<?xml version="1.0" encoding="UTF-8" standalone="no" ?>
<gpx xmlns="http://www.topografix.com/GPX/1/1" xmlns:xsi="http://www.w3.org/2001/XMLSchema-instance" xsi:schemaLocation="http://www.topografix.com/GPX/1/1 http://www.topografix.com/GPX/1/1/gpx.xsd" version="1.1" creator="VisuGPX - https://www.visugpx.com">
  <metadata>
    <name>Glomel à Carhaix</name>
    <desc><![CDATA[Au départ de Glomel vers la V6 en amont de Maël-Carhaix par petites routes et chemins empierrés, V6 jusqu'à Carhaix et canal de Nantes à Brest et retour vers Glomel par le canal de Nantes à Brest avec un petit crochet vers la Grande tranchée de Glomel.]]></desc>
  </metadata>
  <trk>
    <name><![CDATA[Glomel vélo]]></name>
    <trkseg>
      <trkpt lat="48.22075" lon="-3.38946">
        <ele>216</ele>
        <time>2020-10-18T10:17:51.000Z</time>
      </trkpt>
      <trkpt lat="48.22074" lon="-3.38949">
        <ele>216</ele>
        <time>2020-10-18T10:17:52.000Z</time>
      </trkpt>
      <trkpt lat="48.22076" lon="-3.38949">
        <ele>216.19999694824</ele>
        <time>2020-10-18T10:17:54.000Z</time>
      </trkpt>
      <trkpt lat="48.22078" lon="-3.38947">
        <ele>216.19999694824</ele>
        <time>2020-10-18T10:17:55.000Z</time>
      </trkpt>
      <trkpt lat="48.22078" lon="-3.38947">
        <ele>216.19999694824</ele>
        <time>2020-10-18T10:17:56.000Z</time>
      </trkpt>
      <trkpt lat="48.22079" lon="-3.38945">
        <ele>216</ele>
        <time>2020-10-18T10:17:57.000Z</time>
      </trkpt>
      <trkpt lat="48.22079" lon="-3.38945">
        <ele>216</ele>
        <time>2020-10-18T10:17:58.000Z</time>
      </trkpt>
      <trkpt lat="48.2208" lon="-3.38945">
        <ele>216.19999694824</ele>
        <time>2020-10-18T10:17:59.000Z</time>
      </trkpt>
      <trkpt lat="48.2208" lon="-3.38945">
        <ele>216.19999694824</ele>
        <time>2020-10-18T10:18:00.000Z</time>
      </trkpt>
      <trkpt lat="48.22081" lon="-3.38945">
        <ele>216.19999694824</ele>
        <time>2020-10-18T10:18:01.000Z</time>
      </trkpt>
      <trkpt lat="48.22083" lon="-3.38944">
        <ele>216.19999694824</ele>
        <time>2020-10-18T10:18:02.000Z</time>
      </trkpt>
      <trkpt lat="48.22083" lon="-3.38944">
        <ele>216.19999694824</ele>
        <time>2020-10-18T10:18:03.000Z</time>
      </trkpt>
      <trkpt lat="48.22083" lon="-3.38944">
        <ele>216.19999694824</ele>
        <time>2020-10-18T10:18:04.000Z</time>
      </trkpt>
      <trkpt lat="48.22083" lon="-3.38944">
        <ele>216.19999694824</ele>
        <time>2020-10-18T10:18:05.000Z</time>
      </trkpt>
      <trkpt lat="48.22083" lon="-3.38944">
        <ele>216.19999694824</ele>
        <time>2020-10-18T10:18:06.000Z</time>
      </trkpt>
      <trkpt lat="48.22084" lon="-3.38944">
        <ele>216.19999694824</ele>
        <time>2020-10-18T10:18:07.000Z</time>
      </trkpt>
      <trkpt lat="48.22085" lon="-3.38945">
        <ele>216.19999694824</ele>
        <time>2020-10-18T10:18:08.000Z</time>
      </trkpt>
      <trkpt lat="48.22085" lon="-3.38945">
        <ele>216.19999694824</ele>
        <time>2020-10-18T10:18:09.000Z</time>
      </trkpt>
      <trkpt lat="48.22085" lon="-3.38945">
        <ele>216.19999694824</ele>
        <time>2020-10-18T10:18:10.000Z</time>
      </trkpt>
      <trkpt lat="48.22085" lon="-3.38945">
        <ele>216.19999694824</ele>
        <time>2020-10-18T10:18:11.000Z</time>
      </trkpt>
      <trkpt lat="48.22085" lon="-3.38945">
        <ele>216.19999694824</ele>
        <time>2020-10-18T10:18:12.000Z</time>
      </trkpt>
      <trkpt lat="48.22085" lon="-3.38945">
        <ele>216.19999694824</ele>
        <time>2020-10-18T10:18:13.000Z</time>
      </trkpt>
      <trkpt lat="48.22085" lon="-3.38945">
        <ele>216.19999694824</ele>
        <time>2020-10-18T10:18:14.000Z</time>
      </trkpt>
      <trkpt lat="48.22085" lon="-3.38945">
        <ele>216.19999694824</ele>
        <time>2020-10-18T10:18:15.000Z</time>
      </trkpt>
      <trkpt lat="48.22085" lon="-3.38945">
        <ele>216.19999694824</ele>
        <time>2020-10-18T10:18:16.000Z</time>
      </trkpt>
      <trkpt lat="48.22085" lon="-3.38945">
        <ele>216.19999694824</ele>
        <time>2020-10-18T10:18:17.000Z</time>
      </trkpt>
      <trkpt lat="48.22086" lon="-3.38945">
        <ele>216.19999694824</ele>
        <time>2020-10-18T10:18:18.000Z</time>
      </trkpt>
      <trkpt lat="48.22086" lon="-3.38945">
        <ele>216.19999694824</ele>
        <time>2020-10-18T10:18:19.000Z</time>
      </trkpt>
      <trkpt lat="48.22085" lon="-3.38945">
        <ele>216.19999694824</ele>
        <time>2020-10-18T10:18:20.000Z</time>
      </trkpt>
      <trkpt lat="48.22085" lon="-3.38945">
        <ele>216.19999694824</ele>
        <time>2020-10-18T10:18:21.000Z</time>
      </trkpt>
      <trkpt lat="48.22085" lon="-3.38945">
        <ele>216.19999694824</ele>
        <time>2020-10-18T10:18:22.000Z</time>
      </trkpt>
      <trkpt lat="48.22085" lon="-3.38946">
        <ele>216.19999694824</ele>
        <time>2020-10-18T10:18:23.000Z</time>
      </trkpt>
      <trkpt lat="48.22085" lon="-3.38945">
        <ele>216.19999694824</ele>
        <time>2020-10-18T10:18:24.000Z</time>
      </trkpt>
      <trkpt lat="48.22085" lon="-3.38945">
        <ele>216.19999694824</ele>
        <time>2020-10-18T10:18:25.000Z</time>
      </trkpt>
      <trkpt lat="48.22085" lon="-3.38945">
        <ele>216.19999694824</ele>
        <time>2020-10-18T10:18:26.000Z</time>
      </trkpt>
      <trkpt lat="48.22085" lon="-3.38945">
        <ele>216.19999694824</ele>
        <time>2020-10-18T10:18:27.000Z</time>
      </trkpt>
      <trkpt lat="48.22085" lon="-3.38945">
        <ele>216.19999694824</ele>
        <time>2020-10-18T10:18:28.000Z</time>
      </trkpt>
      <trkpt lat="48.22085" lon="-3.38945">
        <ele>216.19999694824</ele>
        <time>2020-10-18T10:18:29.000Z</time>
      </trkpt>
      <trkpt lat="48.22085" lon="-3.38945">
        <ele>216.19999694824</ele>
        <time>2020-10-18T10:18:30.000Z</time>
      </trkpt>
      <trkpt lat="48.22085" lon="-3.38945">
        <ele>216.19999694824</ele>
        <time>2020-10-18T10:18:31.000Z</time>
      </trkpt>
      <trkpt lat="48.22086" lon="-3.38945">
        <ele>216.19999694824</ele>
        <time>2020-10-18T10:18:32.000Z</time>
      </trkpt>
      <trkpt lat="48.22086" lon="-3.38945">
        <ele>216.19999694824</ele>
        <time>2020-10-18T10:18:33.000Z</time>
      </trkpt>
      <trkpt lat="48.22086" lon="-3.38945">
        <ele>216.19999694824</ele>
        <time>2020-10-18T10:18:34.000Z</time>
      </trkpt>
      <trkpt lat="48.22086" lon="-3.38945">
        <ele>216.19999694824</ele>
        <time>2020-10-18T10:18:35.000Z</time>
      </trkpt>
      <trkpt lat="48.22086" lon="-3.38946">
        <ele>216.19999694824</ele>
        <time>2020-10-18T10:18:36.000Z</time>
      </trkpt>
      <trkpt lat="48.22086" lon="-3.38946">
        <ele>216.19999694824</ele>
        <time>2020-10-18T10:18:37.000Z</time>
      </trkpt>
      <trkpt lat="48.22086" lon="-3.38946">
        <ele>216.19999694824</ele>
        <time>2020-10-18T10:18:38.000Z</time>
      </trkpt>
      <trkpt lat="48.22085" lon="-3.38946">
        <ele>216.19999694824</ele>
        <time>2020-10-18T10:18:39.000Z</time>
      </trkpt>
      <trkpt lat="48.22085" lon="-3.38946">
        <ele>216.19999694824</ele>
        <time>2020-10-18T10:18:40.000Z</time>
      </trkpt>
      <trkpt lat="48.22084" lon="-3.38946">
        <ele>216.19999694824</ele>
        <time>2020-10-18T10:18:41.000Z</time>
      </trkpt>
      <trkpt lat="48.22084" lon="-3.38946">
        <ele>216.19999694824</ele>
        <time>2020-10-18T10:18:42.000Z</time>
      </trkpt>
      <trkpt lat="48.22084" lon="-3.38946">
        <ele>216.19999694824</ele>
        <time>2020-10-18T10:18:43.000Z</time>
      </trkpt>
      <trkpt lat="48.22084" lon="-3.38946">
        <ele>216.19999694824</ele>
        <time>2020-10-18T10:18:44.000Z</time>
      </trkpt>
      <trkpt lat="48.22085" lon="-3.38946">
        <ele>216.19999694824</ele>
        <time>2020-10-18T10:18:45.000Z</time>
      </trkpt>
      <trkpt lat="48.22085" lon="-3.38946">
        <ele>216.19999694824</ele>
        <time>2020-10-18T10:18:46.000Z</time>
      </trkpt>
      <trkpt lat="48.22085" lon="-3.38946">
        <ele>216.19999694824</ele>
        <time>2020-10-18T10:18:47.000Z</time>
      </trkpt>
      <trkpt lat="48.22085" lon="-3.38946">
        <ele>216.19999694824</ele>
        <time>2020-10-18T10:18:48.000Z</time>
      </trkpt>
      <trkpt lat="48.22086" lon="-3.38946">
        <ele>216.19999694824</ele>
        <time>2020-10-18T10:18:49.000Z</time>
      </trkpt>
      <trkpt lat="48.22086" lon="-3.38946">
        <ele>216.19999694824</ele>
        <time>2020-10-18T10:18:50.000Z</time>
      </trkpt>
      <trkpt lat="48.22086" lon="-3.38946">
        <ele>216.19999694824</ele>
        <time>2020-10-18T10:18:51.000Z</time>
      </trkpt>
      <trkpt lat="48.22086" lon="-3.38946">
        <ele>216.19999694824</ele>
        <time>2020-10-18T10:18:52.000Z</time>
      </trkpt>
      <trkpt lat="48.22086" lon="-3.38946">
        <ele>216.19999694824</ele>
        <time>2020-10-18T10:18:53.000Z</time>
      </trkpt>
      <trkpt lat="48.22086" lon="-3.38946">
        <ele>216.19999694824</ele>
        <time>2020-10-18T10:18:54.000Z</time>
      </trkpt>
      <trkpt lat="48.22086" lon="-3.38946">
        <ele>216.19999694824</ele>
        <time>2020-10-18T10:18:55.000Z</time>
      </trkpt>
      <trkpt lat="48.22084" lon="-3.38946">
        <ele>216.19999694824</ele>
        <time>2020-10-18T10:18:56.000Z</time>
      </trkpt>
      <trkpt lat="48.22084" lon="-3.38946">
        <ele>216.19999694824</ele>
        <time>2020-10-18T10:18:57.000Z</time>
      </trkpt>
      <trkpt lat="48.22084" lon="-3.38946">
        <ele>216.19999694824</ele>
        <time>2020-10-18T10:18:58.000Z</time>
      </trkpt>
      <trkpt lat="48.22084" lon="-3.38946">
        <ele>216.19999694824</ele>
        <time>2020-10-18T10:18:59.000Z</time>
      </trkpt>
      <trkpt lat="48.22084" lon="-3.38946">
        <ele>216.19999694824</ele>
        <time>2020-10-18T10:19:00.000Z</time>
      </trkpt>
      <trkpt lat="48.22084" lon="-3.38946">
        <ele>216.19999694824</ele>
        <time>2020-10-18T10:19:01.000Z</time>
      </trkpt>
      <trkpt lat="48.22084" lon="-3.38946">
        <ele>216.19999694824</ele>
        <time>2020-10-18T10:19:02.000Z</time>
      </trkpt>
      <trkpt lat="48.22084" lon="-3.38946">
        <ele>216.19999694824</ele>
        <time>2020-10-18T10:19:03.000Z</time>
      </trkpt>
      <trkpt lat="48.22084" lon="-3.38946">
        <ele>216.19999694824</ele>
        <time>2020-10-18T10:19:04.000Z</time>
      </trkpt>
      <trkpt lat="48.22084" lon="-3.38945">
        <ele>216.19999694824</ele>
        <time>2020-10-18T10:19:05.000Z</time>
      </trkpt>
      <trkpt lat="48.22084" lon="-3.38945">
        <ele>216.19999694824</ele>
        <time>2020-10-18T10:19:06.000Z</time>
      </trkpt>
      <trkpt lat="48.22084" lon="-3.38945">
        <ele>216.19999694824</ele>
        <time>2020-10-18T10:19:07.000Z</time>
      </trkpt>
      <trkpt lat="48.22084" lon="-3.38945">
        <ele>216.19999694824</ele>
        <time>2020-10-18T10:19:08.000Z</time>
      </trkpt>
      <trkpt lat="48.22084" lon="-3.38945">
        <ele>216.19999694824</ele>
        <time>2020-10-18T10:19:09.000Z</time>
      </trkpt>
      <trkpt lat="48.22085" lon="-3.38945">
        <ele>216.19999694824</ele>
        <time>2020-10-18T10:19:10.000Z</time>
      </trkpt>
      <trkpt lat="48.22085" lon="-3.38945">
        <ele>216.19999694824</ele>
        <time>2020-10-18T10:19:11.000Z</time>
      </trkpt>
      <trkpt lat="48.22085" lon="-3.38945">
        <ele>216.19999694824</ele>
        <time>2020-10-18T10:19:12.000Z</time>
      </trkpt>
      <trkpt lat="48.22085" lon="-3.38945">
        <ele>216.19999694824</ele>
        <time>2020-10-18T10:19:13.000Z</time>
      </trkpt>
      <trkpt lat="48.22085" lon="-3.38945">
        <ele>216.19999694824</ele>
        <time>2020-10-18T10:19:14.000Z</time>
      </trkpt>
      <trkpt lat="48.22085" lon="-3.38945">
        <ele>216.19999694824</ele>
        <time>2020-10-18T10:19:15.000Z</time>
      </trkpt>
      <trkpt lat="48.22085" lon="-3.38945">
        <ele>216.19999694824</ele>
        <time>2020-10-18T10:19:16.000Z</time>
      </trkpt>
      <trkpt lat="48.22085" lon="-3.38945">
        <ele>216.19999694824</ele>
        <time>2020-10-18T10:19:17.000Z</time>
      </trkpt>
      <trkpt lat="48.22085" lon="-3.38945">
        <ele>216.19999694824</ele>
        <time>2020-10-18T10:19:18.000Z</time>
      </trkpt>
      <trkpt lat="48.22085" lon="-3.38945">
        <ele>216.19999694824</ele>
        <time>2020-10-18T10:19:19.000Z</time>
      </trkpt>
      <trkpt lat="48.22085" lon="-3.38945">
        <ele>216.19999694824</ele>
        <time>2020-10-18T10:19:20.000Z</time>
      </trkpt>
      <trkpt lat="48.22085" lon="-3.38945">
        <ele>216.19999694824</ele>
        <time>2020-10-18T10:19:21.000Z</time>
      </trkpt>
      <trkpt lat="48.22085" lon="-3.38945">
        <ele>216.19999694824</ele>
        <time>2020-10-18T10:19:22.000Z</time>
      </trkpt>
      <trkpt lat="48.22085" lon="-3.38945">
        <ele>216.19999694824</ele>
        <time>2020-10-18T10:19:23.000Z</time>
      </trkpt>
      <trkpt lat="48.22085" lon="-3.38944">
        <ele>216.19999694824</ele>
        <time>2020-10-18T10:19:24.000Z</time>
      </trkpt>
      <trkpt lat="48.22085" lon="-3.38944">
        <ele>216.19999694824</ele>
        <time>2020-10-18T10:19:25.000Z</time>
      </trkpt>
      <trkpt lat="48.22085" lon="-3.38944">
        <ele>216.19999694824</ele>
        <time>2020-10-18T10:19:26.000Z</time>
      </trkpt>
      <trkpt lat="48.22085" lon="-3.38944">
        <ele>216.19999694824</ele>
        <time>2020-10-18T10:19:27.000Z</time>
      </trkpt>
      <trkpt lat="48.22085" lon="-3.38944">
        <ele>216.19999694824</ele>
        <time>2020-10-18T10:19:28.000Z</time>
      </trkpt>
      <trkpt lat="48.22085" lon="-3.38944">
        <ele>216.19999694824</ele>
        <time>2020-10-18T10:19:29.000Z</time>
      </trkpt>
      <trkpt lat="48.22085" lon="-3.38944">
        <ele>216.19999694824</ele>
        <time>2020-10-18T10:19:30.000Z</time>
      </trkpt>
      <trkpt lat="48.22085" lon="-3.38944">
        <ele>216.19999694824</ele>
        <time>2020-10-18T10:19:31.000Z</time>
      </trkpt>
      <trkpt lat="48.22085" lon="-3.38944">
        <ele>216.19999694824</ele>
        <time>2020-10-18T10:19:32.000Z</time>
      </trkpt>
      <trkpt lat="48.22085" lon="-3.38944">
        <ele>216.19999694824</ele>
        <time>2020-10-18T10:19:33.000Z</time>
      </trkpt>
      <trkpt lat="48.22085" lon="-3.38944">
        <ele>216.19999694824</ele>
        <time>2020-10-18T10:19:34.000Z</time>
      </trkpt>
      <trkpt lat="48.22085" lon="-3.38944">
        <ele>216.19999694824</ele>
        <time>2020-10-18T10:19:35.000Z</time>
      </trkpt>
      <trkpt lat="48.22085" lon="-3.38944">
        <ele>216.19999694824</ele>
        <time>2020-10-18T10:19:36.000Z</time>
      </trkpt>
      <trkpt lat="48.22085" lon="-3.38944">
        <ele>216.19999694824</ele>
        <time>2020-10-18T10:19:37.000Z</time>
      </trkpt>
      <trkpt lat="48.22085" lon="-3.38944">
        <ele>216.19999694824</ele>
        <time>2020-10-18T10:19:38.000Z</time>
      </trkpt>
      <trkpt lat="48.22085" lon="-3.38944">
        <ele>216.19999694824</ele>
        <time>2020-10-18T10:19:39.000Z</time>
      </trkpt>
      <trkpt lat="48.22085" lon="-3.38944">
        <ele>216.19999694824</ele>
        <time>2020-10-18T10:19:40.000Z</time>
      </trkpt>
      <trkpt lat="48.22085" lon="-3.38944">
        <ele>216.19999694824</ele>
        <time>2020-10-18T10:19:41.000Z</time>
      </trkpt>
      <trkpt lat="48.22085" lon="-3.38945">
        <ele>216.19999694824</ele>
        <time>2020-10-18T10:19:42.000Z</time>
      </trkpt>
      <trkpt lat="48.22085" lon="-3.38945">
        <ele>216.19999694824</ele>
        <time>2020-10-18T10:19:43.000Z</time>
      </trkpt>
      <trkpt lat="48.22085" lon="-3.38945">
        <ele>216.19999694824</ele>
        <time>2020-10-18T10:19:44.000Z</time>
      </trkpt>
      <trkpt lat="48.22085" lon="-3.38945">
        <ele>216.19999694824</ele>
        <time>2020-10-18T10:19:45.000Z</time>
      </trkpt>
      <trkpt lat="48.22085" lon="-3.38946">
        <ele>216.19999694824</ele>
        <time>2020-10-18T10:19:46.000Z</time>
      </trkpt>
      <trkpt lat="48.22085" lon="-3.38946">
        <ele>216.19999694824</ele>
        <time>2020-10-18T10:19:47.000Z</time>
      </trkpt>
      <trkpt lat="48.22084" lon="-3.38946">
        <ele>216.19999694824</ele>
        <time>2020-10-18T10:19:48.000Z</time>
      </trkpt>
      <trkpt lat="48.22084" lon="-3.38946">
        <ele>216.19999694824</ele>
        <time>2020-10-18T10:19:49.000Z</time>
      </trkpt>
      <trkpt lat="48.22084" lon="-3.38946">
        <ele>216.19999694824</ele>
        <time>2020-10-18T10:19:50.000Z</time>
      </trkpt>
      <trkpt lat="48.22085" lon="-3.38946">
        <ele>216.19999694824</ele>
        <time>2020-10-18T10:19:51.000Z</time>
      </trkpt>
      <trkpt lat="48.22085" lon="-3.38946">
        <ele>216.19999694824</ele>
        <time>2020-10-18T10:19:52.000Z</time>
      </trkpt>
      <trkpt lat="48.22085" lon="-3.38946">
        <ele>216.19999694824</ele>
        <time>2020-10-18T10:19:53.000Z</time>
      </trkpt>
      <trkpt lat="48.22085" lon="-3.38946">
        <ele>216.19999694824</ele>
        <time>2020-10-18T10:19:54.000Z</time>
      </trkpt>
      <trkpt lat="48.22085" lon="-3.38946">
        <ele>216.19999694824</ele>
        <time>2020-10-18T10:19:55.000Z</time>
      </trkpt>
      <trkpt lat="48.22085" lon="-3.38946">
        <ele>216.19999694824</ele>
        <time>2020-10-18T10:19:56.000Z</time>
      </trkpt>
      <trkpt lat="48.22085" lon="-3.38946">
        <ele>216.19999694824</ele>
        <time>2020-10-18T10:19:57.000Z</time>
      </trkpt>
      <trkpt lat="48.22085" lon="-3.38946">
        <ele>216.19999694824</ele>
        <time>2020-10-18T10:19:58.000Z</time>
      </trkpt>
      <trkpt lat="48.22085" lon="-3.38946">
        <ele>216.19999694824</ele>
        <time>2020-10-18T10:19:59.000Z</time>
      </trkpt>
      <trkpt lat="48.22084" lon="-3.38946">
        <ele>216.19999694824</ele>
        <time>2020-10-18T10:20:00.000Z</time>
      </trkpt>
      <trkpt lat="48.22085" lon="-3.38946">
        <ele>216.19999694824</ele>
        <time>2020-10-18T10:20:01.000Z</time>
      </trkpt>
      <trkpt lat="48.22085" lon="-3.38946">
        <ele>216.19999694824</ele>
        <time>2020-10-18T10:20:02.000Z</time>
      </trkpt>
      <trkpt lat="48.22085" lon="-3.38946">
        <ele>216.19999694824</ele>
        <time>2020-10-18T10:20:03.000Z</time>
      </trkpt>
      <trkpt lat="48.22085" lon="-3.38946">
        <ele>216.19999694824</ele>
        <time>2020-10-18T10:20:04.000Z</time>
      </trkpt>
      <trkpt lat="48.22084" lon="-3.38946">
        <ele>216.19999694824</ele>
        <time>2020-10-18T10:20:05.000Z</time>
      </trkpt>
      <trkpt lat="48.22085" lon="-3.38946">
        <ele>216.19999694824</ele>
        <time>2020-10-18T10:20:06.000Z</time>
      </trkpt>
      <trkpt lat="48.22085" lon="-3.38946">
        <ele>216.19999694824</ele>
        <time>2020-10-18T10:20:07.000Z</time>
      </trkpt>
      <trkpt lat="48.22085" lon="-3.38946">
        <ele>216.19999694824</ele>
        <time>2020-10-18T10:20:08.000Z</time>
      </trkpt>
      <trkpt lat="48.22085" lon="-3.38946">
        <ele>216.19999694824</ele>
        <time>2020-10-18T10:20:09.000Z</time>
      </trkpt>
      <trkpt lat="48.22085" lon="-3.38946">
        <ele>216.19999694824</ele>
        <time>2020-10-18T10:20:10.000Z</time>
      </trkpt>
      <trkpt lat="48.22085" lon="-3.38946">
        <ele>216.19999694824</ele>
        <time>2020-10-18T10:20:11.000Z</time>
      </trkpt>
      <trkpt lat="48.22085" lon="-3.38946">
        <ele>216.19999694824</ele>
        <time>2020-10-18T10:20:12.000Z</time>
      </trkpt>
      <trkpt lat="48.22085" lon="-3.38946">
        <ele>216.19999694824</ele>
        <time>2020-10-18T10:20:13.000Z</time>
      </trkpt>
      <trkpt lat="48.22085" lon="-3.38946">
        <ele>216.19999694824</ele>
        <time>2020-10-18T10:20:14.000Z</time>
      </trkpt>
      <trkpt lat="48.22085" lon="-3.38946">
        <ele>216.19999694824</ele>
        <time>2020-10-18T10:20:15.000Z</time>
      </trkpt>
      <trkpt lat="48.22085" lon="-3.38946">
        <ele>216.19999694824</ele>
        <time>2020-10-18T10:20:16.000Z</time>
      </trkpt>
      <trkpt lat="48.22085" lon="-3.38946">
        <ele>216.19999694824</ele>
        <time>2020-10-18T10:20:17.000Z</time>
      </trkpt>
      <trkpt lat="48.22085" lon="-3.38946">
        <ele>216.19999694824</ele>
        <time>2020-10-18T10:20:18.000Z</time>
      </trkpt>
      <trkpt lat="48.22085" lon="-3.38946">
        <ele>216.19999694824</ele>
        <time>2020-10-18T10:20:19.000Z</time>
      </trkpt>
      <trkpt lat="48.22085" lon="-3.38946">
        <ele>216.19999694824</ele>
        <time>2020-10-18T10:20:20.000Z</time>
      </trkpt>
      <trkpt lat="48.22085" lon="-3.38946">
        <ele>216.19999694824</ele>
        <time>2020-10-18T10:20:21.000Z</time>
      </trkpt>
      <trkpt lat="48.22085" lon="-3.38946">
        <ele>216.19999694824</ele>
        <time>2020-10-18T10:20:22.000Z</time>
      </trkpt>
      <trkpt lat="48.22085" lon="-3.38947">
        <ele>216.19999694824</ele>
        <time>2020-10-18T10:20:23.000Z</time>
      </trkpt>
      <trkpt lat="48.22085" lon="-3.38947">
        <ele>216.19999694824</ele>
        <time>2020-10-18T10:20:24.000Z</time>
      </trkpt>
      <trkpt lat="48.22085" lon="-3.38947">
        <ele>216.19999694824</ele>
        <time>2020-10-18T10:20:25.000Z</time>
      </trkpt>
      <trkpt lat="48.22085" lon="-3.38946">
        <ele>216.19999694824</ele>
        <time>2020-10-18T10:20:26.000Z</time>
      </trkpt>
      <trkpt lat="48.22085" lon="-3.38946">
        <ele>216.19999694824</ele>
        <time>2020-10-18T10:20:27.000Z</time>
      </trkpt>
      <trkpt lat="48.22084" lon="-3.38946">
        <ele>216.19999694824</ele>
        <time>2020-10-18T10:20:28.000Z</time>
      </trkpt>
      <trkpt lat="48.22084" lon="-3.38946">
        <ele>216.19999694824</ele>
        <time>2020-10-18T10:20:29.000Z</time>
      </trkpt>
      <trkpt lat="48.22084" lon="-3.38946">
        <ele>216.19999694824</ele>
        <time>2020-10-18T10:20:30.000Z</time>
      </trkpt>
      <trkpt lat="48.22084" lon="-3.38946">
        <ele>216.19999694824</ele>
        <time>2020-10-18T10:20:31.000Z</time>
      </trkpt>
      <trkpt lat="48.22083" lon="-3.38946">
        <ele>216.19999694824</ele>
        <time>2020-10-18T10:20:32.000Z</time>
      </trkpt>
      <trkpt lat="48.22083" lon="-3.38946">
        <ele>216.19999694824</ele>
        <time>2020-10-18T10:20:33.000Z</time>
      </trkpt>
      <trkpt lat="48.22083" lon="-3.38946">
        <ele>216.19999694824</ele>
        <time>2020-10-18T10:20:34.000Z</time>
      </trkpt>
      <trkpt lat="48.22083" lon="-3.38946">
        <ele>216.19999694824</ele>
        <time>2020-10-18T10:20:35.000Z</time>
      </trkpt>
      <trkpt lat="48.22083" lon="-3.38946">
        <ele>216.19999694824</ele>
        <time>2020-10-18T10:20:36.000Z</time>
      </trkpt>
      <trkpt lat="48.22083" lon="-3.38946">
        <ele>216.19999694824</ele>
        <time>2020-10-18T10:20:37.000Z</time>
      </trkpt>
      <trkpt lat="48.22083" lon="-3.38946">
        <ele>216.19999694824</ele>
        <time>2020-10-18T10:20:38.000Z</time>
      </trkpt>
      <trkpt lat="48.22082" lon="-3.38946">
        <ele>216.19999694824</ele>
        <time>2020-10-18T10:20:39.000Z</time>
      </trkpt>
      <trkpt lat="48.22082" lon="-3.38945">
        <ele>216.19999694824</ele>
        <time>2020-10-18T10:20:40.000Z</time>
      </trkpt>
      <trkpt lat="48.22082" lon="-3.38945">
        <ele>216.19999694824</ele>
        <time>2020-10-18T10:20:41.000Z</time>
      </trkpt>
      <trkpt lat="48.22082" lon="-3.38945">
        <ele>216.19999694824</ele>
        <time>2020-10-18T10:20:42.000Z</time>
      </trkpt>
      <trkpt lat="48.22082" lon="-3.38945">
        <ele>216.19999694824</ele>
        <time>2020-10-18T10:20:43.000Z</time>
      </trkpt>
      <trkpt lat="48.22082" lon="-3.38945">
        <ele>216.19999694824</ele>
        <time>2020-10-18T10:20:44.000Z</time>
      </trkpt>
      <trkpt lat="48.22082" lon="-3.38945">
        <ele>216.19999694824</ele>
        <time>2020-10-18T10:20:45.000Z</time>
      </trkpt>
      <trkpt lat="48.22083" lon="-3.38945">
        <ele>216.19999694824</ele>
        <time>2020-10-18T10:20:46.000Z</time>
      </trkpt>
      <trkpt lat="48.22083" lon="-3.38945">
        <ele>216.19999694824</ele>
        <time>2020-10-18T10:20:47.000Z</time>
      </trkpt>
      <trkpt lat="48.22083" lon="-3.38945">
        <ele>216.19999694824</ele>
        <time>2020-10-18T10:20:48.000Z</time>
      </trkpt>
      <trkpt lat="48.22083" lon="-3.38945">
        <ele>216.19999694824</ele>
        <time>2020-10-18T10:20:49.000Z</time>
      </trkpt>
      <trkpt lat="48.22083" lon="-3.38945">
        <ele>216.19999694824</ele>
        <time>2020-10-18T10:20:50.000Z</time>
      </trkpt>
      <trkpt lat="48.22083" lon="-3.38945">
        <ele>216.19999694824</ele>
        <time>2020-10-18T10:20:51.000Z</time>
      </trkpt>
      <trkpt lat="48.22083" lon="-3.38945">
        <ele>216.19999694824</ele>
        <time>2020-10-18T10:20:52.000Z</time>
      </trkpt>
      <trkpt lat="48.22083" lon="-3.38945">
        <ele>216.19999694824</ele>
        <time>2020-10-18T10:20:53.000Z</time>
      </trkpt>
      <trkpt lat="48.22083" lon="-3.38945">
        <ele>216.19999694824</ele>
        <time>2020-10-18T10:20:54.000Z</time>
      </trkpt>
      <trkpt lat="48.22083" lon="-3.38945">
        <ele>216.19999694824</ele>
        <time>2020-10-18T10:20:55.000Z</time>
      </trkpt>
      <trkpt lat="48.22083" lon="-3.38945">
        <ele>216.19999694824</ele>
        <time>2020-10-18T10:20:56.000Z</time>
      </trkpt>
      <trkpt lat="48.22083" lon="-3.38945">
        <ele>216.19999694824</ele>
        <time>2020-10-18T10:20:57.000Z</time>
      </trkpt>
      <trkpt lat="48.22083" lon="-3.38945">
        <ele>216.19999694824</ele>
        <time>2020-10-18T10:20:58.000Z</time>
      </trkpt>
      <trkpt lat="48.22083" lon="-3.38945">
        <ele>216.19999694824</ele>
        <time>2020-10-18T10:20:59.000Z</time>
      </trkpt>
      <trkpt lat="48.22083" lon="-3.38945">
        <ele>216.19999694824</ele>
        <time>2020-10-18T10:21:00.000Z</time>
      </trkpt>
      <trkpt lat="48.22083" lon="-3.38945">
        <ele>216.19999694824</ele>
        <time>2020-10-18T10:21:01.000Z</time>
      </trkpt>
      <trkpt lat="48.22083" lon="-3.38945">
        <ele>216.19999694824</ele>
        <time>2020-10-18T10:21:02.000Z</time>
      </trkpt>
      <trkpt lat="48.22083" lon="-3.38945">
        <ele>216.19999694824</ele>
        <time>2020-10-18T10:21:03.000Z</time>
      </trkpt>
      <trkpt lat="48.22083" lon="-3.38945">
        <ele>216.19999694824</ele>
        <time>2020-10-18T10:21:04.000Z</time>
      </trkpt>
      <trkpt lat="48.22083" lon="-3.38945">
        <ele>216.19999694824</ele>
        <time>2020-10-18T10:21:05.000Z</time>
      </trkpt>
      <trkpt lat="48.22083" lon="-3.38945">
        <ele>216.19999694824</ele>
        <time>2020-10-18T10:21:06.000Z</time>
      </trkpt>
      <trkpt lat="48.22083" lon="-3.38945">
        <ele>216.19999694824</ele>
        <time>2020-10-18T10:21:07.000Z</time>
      </trkpt>
      <trkpt lat="48.22083" lon="-3.38945">
        <ele>216.19999694824</ele>
        <time>2020-10-18T10:21:08.000Z</time>
      </trkpt>
      <trkpt lat="48.22083" lon="-3.38945">
        <ele>216.19999694824</ele>
        <time>2020-10-18T10:21:09.000Z</time>
      </trkpt>
      <trkpt lat="48.22081" lon="-3.38946">
        <ele>216.19999694824</ele>
        <time>2020-10-18T10:21:10.000Z</time>
      </trkpt>
      <trkpt lat="48.22081" lon="-3.38946">
        <ele>216.19999694824</ele>
        <time>2020-10-18T10:21:11.000Z</time>
      </trkpt>
      <trkpt lat="48.22079" lon="-3.38948">
        <ele>216.19999694824</ele>
        <time>2020-10-18T10:21:12.000Z</time>
      </trkpt>
      <trkpt lat="48.22079" lon="-3.38948">
        <ele>216.19999694824</ele>
        <time>2020-10-18T10:21:13.000Z</time>
      </trkpt>
      <trkpt lat="48.22076" lon="-3.3895">
        <ele>216.19999694824</ele>
        <time>2020-10-18T10:21:14.000Z</time>
      </trkpt>
      <trkpt lat="48.22076" lon="-3.3895">
        <ele>216.19999694824</ele>
        <time>2020-10-18T10:21:15.000Z</time>
      </trkpt>
      <trkpt lat="48.22074" lon="-3.38951">
        <ele>216.19999694824</ele>
        <time>2020-10-18T10:21:16.000Z</time>
      </trkpt>
      <trkpt lat="48.22071" lon="-3.38954">
        <ele>216.19999694824</ele>
        <time>2020-10-18T10:21:17.000Z</time>
      </trkpt>
      <trkpt lat="48.22071" lon="-3.38954">
        <ele>216.19999694824</ele>
        <time>2020-10-18T10:21:18.000Z</time>
      </trkpt>
      <trkpt lat="48.22069" lon="-3.38956">
        <ele>216.19999694824</ele>
        <time>2020-10-18T10:21:19.000Z</time>
      </trkpt>
      <trkpt lat="48.22065" lon="-3.3896">
        <ele>216.39999389648</ele>
        <time>2020-10-18T10:21:20.000Z</time>
      </trkpt>
      <trkpt lat="48.22065" lon="-3.3896">
        <ele>216.39999389648</ele>
        <time>2020-10-18T10:21:21.000Z</time>
      </trkpt>
      <trkpt lat="48.22064" lon="-3.38963">
        <ele>216.39999389648</ele>
        <time>2020-10-18T10:21:22.000Z</time>
      </trkpt>
      <trkpt lat="48.22061" lon="-3.38967">
        <ele>216.39999389648</ele>
        <time>2020-10-18T10:21:23.000Z</time>
      </trkpt>
      <trkpt lat="48.22061" lon="-3.38967">
        <ele>216.39999389648</ele>
        <time>2020-10-18T10:21:24.000Z</time>
      </trkpt>
      <trkpt lat="48.22059" lon="-3.3897">
        <ele>216.60000610352</ele>
        <time>2020-10-18T10:21:25.000Z</time>
      </trkpt>
      <trkpt lat="48.22054" lon="-3.38976">
        <ele>216.60000610352</ele>
        <time>2020-10-18T10:21:26.000Z</time>
      </trkpt>
      <trkpt lat="48.22054" lon="-3.38976">
        <ele>216.60000610352</ele>
        <time>2020-10-18T10:21:27.000Z</time>
      </trkpt>
      <trkpt lat="48.22052" lon="-3.3898">
        <ele>216.80000305176</ele>
        <time>2020-10-18T10:21:28.000Z</time>
      </trkpt>
      <trkpt lat="48.22048" lon="-3.3899">
        <ele>217</ele>
        <time>2020-10-18T10:21:29.000Z</time>
      </trkpt>
      <trkpt lat="48.22047" lon="-3.38994">
        <ele>217.19999694824</ele>
        <time>2020-10-18T10:21:30.000Z</time>
      </trkpt>
      <trkpt lat="48.22047" lon="-3.38994">
        <ele>217.19999694824</ele>
        <time>2020-10-18T10:21:31.000Z</time>
      </trkpt>
      <trkpt lat="48.22047" lon="-3.38999">
        <ele>217.19999694824</ele>
        <time>2020-10-18T10:21:32.000Z</time>
      </trkpt>
      <trkpt lat="48.22047" lon="-3.39008">
        <ele>217.60000610352</ele>
        <time>2020-10-18T10:21:33.000Z</time>
      </trkpt>
      <trkpt lat="48.22047" lon="-3.39008">
        <ele>217.60000610352</ele>
        <time>2020-10-18T10:21:34.000Z</time>
      </trkpt>
      <trkpt lat="48.22047" lon="-3.39013">
        <ele>217.80000305176</ele>
        <time>2020-10-18T10:21:35.000Z</time>
      </trkpt>
      <trkpt lat="48.22048" lon="-3.39022">
        <ele>218</ele>
        <time>2020-10-18T10:21:36.000Z</time>
      </trkpt>
      <trkpt lat="48.22048" lon="-3.39022">
        <ele>218</ele>
        <time>2020-10-18T10:21:37.000Z</time>
      </trkpt>
      <trkpt lat="48.22048" lon="-3.39026">
        <ele>218</ele>
        <time>2020-10-18T10:21:38.000Z</time>
      </trkpt>
      <trkpt lat="48.2205" lon="-3.39034">
        <ele>218.19999694824</ele>
        <time>2020-10-18T10:21:39.000Z</time>
      </trkpt>
      <trkpt lat="48.2205" lon="-3.39034">
        <ele>218.19999694824</ele>
        <time>2020-10-18T10:21:40.000Z</time>
      </trkpt>
      <trkpt lat="48.22053" lon="-3.39043">
        <ele>218.39999389648</ele>
        <time>2020-10-18T10:21:41.000Z</time>
      </trkpt>
      <trkpt lat="48.22053" lon="-3.39043">
        <ele>218.39999389648</ele>
        <time>2020-10-18T10:21:42.000Z</time>
      </trkpt>
      <trkpt lat="48.22054" lon="-3.39047">
        <ele>218.39999389648</ele>
        <time>2020-10-18T10:21:43.000Z</time>
      </trkpt>
      <trkpt lat="48.22056" lon="-3.39056">
        <ele>218.60000610352</ele>
        <time>2020-10-18T10:21:44.000Z</time>
      </trkpt>
      <trkpt lat="48.22056" lon="-3.39056">
        <ele>218.60000610352</ele>
        <time>2020-10-18T10:21:45.000Z</time>
      </trkpt>
      <trkpt lat="48.22058" lon="-3.39065">
        <ele>218.80000305176</ele>
        <time>2020-10-18T10:21:46.000Z</time>
      </trkpt>
      <trkpt lat="48.22058" lon="-3.39065">
        <ele>218.80000305176</ele>
        <time>2020-10-18T10:21:47.000Z</time>
      </trkpt>
      <trkpt lat="48.2206" lon="-3.39073">
        <ele>218.80000305176</ele>
        <time>2020-10-18T10:21:48.000Z</time>
      </trkpt>
      <trkpt lat="48.2206" lon="-3.39073">
        <ele>218.80000305176</ele>
        <time>2020-10-18T10:21:49.000Z</time>
      </trkpt>
      <trkpt lat="48.22062" lon="-3.39077">
        <ele>219</ele>
        <time>2020-10-18T10:21:50.000Z</time>
      </trkpt>
      <trkpt lat="48.22064" lon="-3.39086">
        <ele>219</ele>
        <time>2020-10-18T10:21:51.000Z</time>
      </trkpt>
      <trkpt lat="48.22064" lon="-3.39086">
        <ele>219</ele>
        <time>2020-10-18T10:21:52.000Z</time>
      </trkpt>
      <trkpt lat="48.22065" lon="-3.3909">
        <ele>219.19999694824</ele>
        <time>2020-10-18T10:21:53.000Z</time>
      </trkpt>
      <trkpt lat="48.22067" lon="-3.39098">
        <ele>219.39999389648</ele>
        <time>2020-10-18T10:21:54.000Z</time>
      </trkpt>
      <trkpt lat="48.22067" lon="-3.39098">
        <ele>219.39999389648</ele>
        <time>2020-10-18T10:21:55.000Z</time>
      </trkpt>
      <trkpt lat="48.22068" lon="-3.39102">
        <ele>219.19999694824</ele>
        <time>2020-10-18T10:21:56.000Z</time>
      </trkpt>
      <trkpt lat="48.2207" lon="-3.3911">
        <ele>219.19999694824</ele>
        <time>2020-10-18T10:21:57.000Z</time>
      </trkpt>
      <trkpt lat="48.2207" lon="-3.3911">
        <ele>219.19999694824</ele>
        <time>2020-10-18T10:21:58.000Z</time>
      </trkpt>
      <trkpt lat="48.22071" lon="-3.39114">
        <ele>219.19999694824</ele>
        <time>2020-10-18T10:21:59.000Z</time>
      </trkpt>
      <trkpt lat="48.22073" lon="-3.39123">
        <ele>219.19999694824</ele>
        <time>2020-10-18T10:22:00.000Z</time>
      </trkpt>
      <trkpt lat="48.22075" lon="-3.39127">
        <ele>219.39999389648</ele>
        <time>2020-10-18T10:22:01.000Z</time>
      </trkpt>
      <trkpt lat="48.22075" lon="-3.39127">
        <ele>219.39999389648</ele>
        <time>2020-10-18T10:22:02.000Z</time>
      </trkpt>
      <trkpt lat="48.22077" lon="-3.39134">
        <ele>219.80000305176</ele>
        <time>2020-10-18T10:22:03.000Z</time>
      </trkpt>
      <trkpt lat="48.22077" lon="-3.39134">
        <ele>219.80000305176</ele>
        <time>2020-10-18T10:22:04.000Z</time>
      </trkpt>
      <trkpt lat="48.22078" lon="-3.39138">
        <ele>220</ele>
        <time>2020-10-18T10:22:05.000Z</time>
      </trkpt>
      <trkpt lat="48.22081" lon="-3.39145">
        <ele>220.19999694824</ele>
        <time>2020-10-18T10:22:06.000Z</time>
      </trkpt>
      <trkpt lat="48.22081" lon="-3.39145">
        <ele>220.19999694824</ele>
        <time>2020-10-18T10:22:07.000Z</time>
      </trkpt>
      <trkpt lat="48.22082" lon="-3.39149">
        <ele>220.39999389648</ele>
        <time>2020-10-18T10:22:08.000Z</time>
      </trkpt>
      <trkpt lat="48.22085" lon="-3.39157">
        <ele>220.80000305176</ele>
        <time>2020-10-18T10:22:09.000Z</time>
      </trkpt>
      <trkpt lat="48.22085" lon="-3.39157">
        <ele>220.80000305176</ele>
        <time>2020-10-18T10:22:10.000Z</time>
      </trkpt>
      <trkpt lat="48.22086" lon="-3.3916">
        <ele>221</ele>
        <time>2020-10-18T10:22:11.000Z</time>
      </trkpt>
      <trkpt lat="48.22089" lon="-3.39168">
        <ele>221.19999694824</ele>
        <time>2020-10-18T10:22:12.000Z</time>
      </trkpt>
      <trkpt lat="48.22089" lon="-3.39168">
        <ele>221.19999694824</ele>
        <time>2020-10-18T10:22:13.000Z</time>
      </trkpt>
      <trkpt lat="48.2209" lon="-3.39171">
        <ele>221.39999389648</ele>
        <time>2020-10-18T10:22:14.000Z</time>
      </trkpt>
      <trkpt lat="48.22092" lon="-3.39179">
        <ele>221.80000305176</ele>
        <time>2020-10-18T10:22:15.000Z</time>
      </trkpt>
      <trkpt lat="48.22092" lon="-3.39179">
        <ele>221.80000305176</ele>
        <time>2020-10-18T10:22:16.000Z</time>
      </trkpt>
      <trkpt lat="48.22094" lon="-3.39182">
        <ele>222</ele>
        <time>2020-10-18T10:22:17.000Z</time>
      </trkpt>
      <trkpt lat="48.22097" lon="-3.39189">
        <ele>222.39999389648</ele>
        <time>2020-10-18T10:22:18.000Z</time>
      </trkpt>
      <trkpt lat="48.22097" lon="-3.39189">
        <ele>222.39999389648</ele>
        <time>2020-10-18T10:22:19.000Z</time>
      </trkpt>
      <trkpt lat="48.22099" lon="-3.39192">
        <ele>222.60000610352</ele>
        <time>2020-10-18T10:22:20.000Z</time>
      </trkpt>
      <trkpt lat="48.22102" lon="-3.39199">
        <ele>223.19999694824</ele>
        <time>2020-10-18T10:22:21.000Z</time>
      </trkpt>
      <trkpt lat="48.22102" lon="-3.39199">
        <ele>223.19999694824</ele>
        <time>2020-10-18T10:22:22.000Z</time>
      </trkpt>
      <trkpt lat="48.22104" lon="-3.39202">
        <ele>223.39999389648</ele>
        <time>2020-10-18T10:22:23.000Z</time>
      </trkpt>
      <trkpt lat="48.22108" lon="-3.39208">
        <ele>223.80000305176</ele>
        <time>2020-10-18T10:22:24.000Z</time>
      </trkpt>
      <trkpt lat="48.22108" lon="-3.39208">
        <ele>223.80000305176</ele>
        <time>2020-10-18T10:22:25.000Z</time>
      </trkpt>
      <trkpt lat="48.22109" lon="-3.39211">
        <ele>224</ele>
        <time>2020-10-18T10:22:26.000Z</time>
      </trkpt>
      <trkpt lat="48.22113" lon="-3.39216">
        <ele>224.60000610352</ele>
        <time>2020-10-18T10:22:27.000Z</time>
      </trkpt>
      <trkpt lat="48.22113" lon="-3.39216">
        <ele>224.60000610352</ele>
        <time>2020-10-18T10:22:28.000Z</time>
      </trkpt>
      <trkpt lat="48.22115" lon="-3.39218">
        <ele>224.80000305176</ele>
        <time>2020-10-18T10:22:29.000Z</time>
      </trkpt>
      <trkpt lat="48.22119" lon="-3.39223">
        <ele>225.19999694824</ele>
        <time>2020-10-18T10:22:30.000Z</time>
      </trkpt>
      <trkpt lat="48.22119" lon="-3.39223">
        <ele>225.19999694824</ele>
        <time>2020-10-18T10:22:31.000Z</time>
      </trkpt>
      <trkpt lat="48.22121" lon="-3.39226">
        <ele>225.39999389648</ele>
        <time>2020-10-18T10:22:32.000Z</time>
      </trkpt>
      <trkpt lat="48.22124" lon="-3.39232">
        <ele>225.80000305176</ele>
        <time>2020-10-18T10:22:33.000Z</time>
      </trkpt>
      <trkpt lat="48.22124" lon="-3.39232">
        <ele>225.80000305176</ele>
        <time>2020-10-18T10:22:34.000Z</time>
      </trkpt>
      <trkpt lat="48.22126" lon="-3.39234">
        <ele>226.19999694824</ele>
        <time>2020-10-18T10:22:35.000Z</time>
      </trkpt>
      <trkpt lat="48.2213" lon="-3.3924">
        <ele>226.60000610352</ele>
        <time>2020-10-18T10:22:36.000Z</time>
      </trkpt>
      <trkpt lat="48.2213" lon="-3.3924">
        <ele>226.60000610352</ele>
        <time>2020-10-18T10:22:37.000Z</time>
      </trkpt>
      <trkpt lat="48.22132" lon="-3.39242">
        <ele>226.80000305176</ele>
        <time>2020-10-18T10:22:38.000Z</time>
      </trkpt>
      <trkpt lat="48.22137" lon="-3.39247">
        <ele>227.39999389648</ele>
        <time>2020-10-18T10:22:39.000Z</time>
      </trkpt>
      <trkpt lat="48.22137" lon="-3.39247">
        <ele>227.39999389648</ele>
        <time>2020-10-18T10:22:40.000Z</time>
      </trkpt>
      <trkpt lat="48.22139" lon="-3.39249">
        <ele>227.60000610352</ele>
        <time>2020-10-18T10:22:41.000Z</time>
      </trkpt>
      <trkpt lat="48.22142" lon="-3.39254">
        <ele>228</ele>
        <time>2020-10-18T10:22:42.000Z</time>
      </trkpt>
      <trkpt lat="48.22142" lon="-3.39254">
        <ele>228</ele>
        <time>2020-10-18T10:22:43.000Z</time>
      </trkpt>
      <trkpt lat="48.22144" lon="-3.39257">
        <ele>228.19999694824</ele>
        <time>2020-10-18T10:22:44.000Z</time>
      </trkpt>
      <trkpt lat="48.22148" lon="-3.39262">
        <ele>228.60000610352</ele>
        <time>2020-10-18T10:22:45.000Z</time>
      </trkpt>
      <trkpt lat="48.22148" lon="-3.39262">
        <ele>228.60000610352</ele>
        <time>2020-10-18T10:22:46.000Z</time>
      </trkpt>
      <trkpt lat="48.22152" lon="-3.39267">
        <ele>229.19999694824</ele>
        <time>2020-10-18T10:22:47.000Z</time>
      </trkpt>
      <trkpt lat="48.22152" lon="-3.39267">
        <ele>229.19999694824</ele>
        <time>2020-10-18T10:22:48.000Z</time>
      </trkpt>
      <trkpt lat="48.22154" lon="-3.39269">
        <ele>229.19999694824</ele>
        <time>2020-10-18T10:22:49.000Z</time>
      </trkpt>
      <trkpt lat="48.22158" lon="-3.39274">
        <ele>229.60000610352</ele>
        <time>2020-10-18T10:22:50.000Z</time>
      </trkpt>
      <trkpt lat="48.22158" lon="-3.39274">
        <ele>229.60000610352</ele>
        <time>2020-10-18T10:22:51.000Z</time>
      </trkpt>
      <trkpt lat="48.2216" lon="-3.39276">
        <ele>229.80000305176</ele>
        <time>2020-10-18T10:22:52.000Z</time>
      </trkpt>
      <trkpt lat="48.22164" lon="-3.3928">
        <ele>230.19999694824</ele>
        <time>2020-10-18T10:22:53.000Z</time>
      </trkpt>
      <trkpt lat="48.22164" lon="-3.3928">
        <ele>230.19999694824</ele>
        <time>2020-10-18T10:22:54.000Z</time>
      </trkpt>
      <trkpt lat="48.22166" lon="-3.39282">
        <ele>230.39999389648</ele>
        <time>2020-10-18T10:22:55.000Z</time>
      </trkpt>
      <trkpt lat="48.2217" lon="-3.39286">
        <ele>230.60000610352</ele>
        <time>2020-10-18T10:22:56.000Z</time>
      </trkpt>
      <trkpt lat="48.2217" lon="-3.39286">
        <ele>230.60000610352</ele>
        <time>2020-10-18T10:22:57.000Z</time>
      </trkpt>
      <trkpt lat="48.22172" lon="-3.39288">
        <ele>230.80000305176</ele>
        <time>2020-10-18T10:22:58.000Z</time>
      </trkpt>
      <trkpt lat="48.22175" lon="-3.39294">
        <ele>231</ele>
        <time>2020-10-18T10:22:59.000Z</time>
      </trkpt>
      <trkpt lat="48.22175" lon="-3.39294">
        <ele>231</ele>
        <time>2020-10-18T10:23:00.000Z</time>
      </trkpt>
      <trkpt lat="48.22177" lon="-3.39296">
        <ele>231.19999694824</ele>
        <time>2020-10-18T10:23:01.000Z</time>
      </trkpt>
      <trkpt lat="48.2218" lon="-3.39301">
        <ele>231.60000610352</ele>
        <time>2020-10-18T10:23:02.000Z</time>
      </trkpt>
      <trkpt lat="48.2218" lon="-3.39301">
        <ele>231.60000610352</ele>
        <time>2020-10-18T10:23:03.000Z</time>
      </trkpt>
      <trkpt lat="48.22182" lon="-3.39304">
        <ele>231.80000305176</ele>
        <time>2020-10-18T10:23:04.000Z</time>
      </trkpt>
      <trkpt lat="48.22185" lon="-3.39309">
        <ele>232</ele>
        <time>2020-10-18T10:23:05.000Z</time>
      </trkpt>
      <trkpt lat="48.22185" lon="-3.39309">
        <ele>232</ele>
        <time>2020-10-18T10:23:06.000Z</time>
      </trkpt>
      <trkpt lat="48.22187" lon="-3.39311">
        <ele>232.19999694824</ele>
        <time>2020-10-18T10:23:07.000Z</time>
      </trkpt>
      <trkpt lat="48.22188" lon="-3.39313">
        <ele>232.19999694824</ele>
        <time>2020-10-18T10:23:08.000Z</time>
      </trkpt>
      <trkpt lat="48.22191" lon="-3.39316">
        <ele>232.60000610352</ele>
        <time>2020-10-18T10:23:09.000Z</time>
      </trkpt>
      <trkpt lat="48.22191" lon="-3.39316">
        <ele>232.60000610352</ele>
        <time>2020-10-18T10:23:10.000Z</time>
      </trkpt>
      <trkpt lat="48.22193" lon="-3.39319">
        <ele>232.60000610352</ele>
        <time>2020-10-18T10:23:11.000Z</time>
      </trkpt>
      <trkpt lat="48.22196" lon="-3.39323">
        <ele>233</ele>
        <time>2020-10-18T10:23:12.000Z</time>
      </trkpt>
      <trkpt lat="48.22196" lon="-3.39323">
        <ele>233</ele>
        <time>2020-10-18T10:23:13.000Z</time>
      </trkpt>
      <trkpt lat="48.22198" lon="-3.39325">
        <ele>233</ele>
        <time>2020-10-18T10:23:14.000Z</time>
      </trkpt>
      <trkpt lat="48.222" lon="-3.39327">
        <ele>233.19999694824</ele>
        <time>2020-10-18T10:23:15.000Z</time>
      </trkpt>
      <trkpt lat="48.22203" lon="-3.39331">
        <ele>233.39999389648</ele>
        <time>2020-10-18T10:23:16.000Z</time>
      </trkpt>
      <trkpt lat="48.22203" lon="-3.39331">
        <ele>233.39999389648</ele>
        <time>2020-10-18T10:23:17.000Z</time>
      </trkpt>
      <trkpt lat="48.22207" lon="-3.39335">
        <ele>233.60000610352</ele>
        <time>2020-10-18T10:23:18.000Z</time>
      </trkpt>
      <trkpt lat="48.22207" lon="-3.39335">
        <ele>233.60000610352</ele>
        <time>2020-10-18T10:23:19.000Z</time>
      </trkpt>
      <trkpt lat="48.22208" lon="-3.39337">
        <ele>233.80000305176</ele>
        <time>2020-10-18T10:23:20.000Z</time>
      </trkpt>
      <trkpt lat="48.22211" lon="-3.39341">
        <ele>234</ele>
        <time>2020-10-18T10:23:21.000Z</time>
      </trkpt>
      <trkpt lat="48.22211" lon="-3.39341">
        <ele>234</ele>
        <time>2020-10-18T10:23:22.000Z</time>
      </trkpt>
      <trkpt lat="48.22213" lon="-3.39343">
        <ele>234</ele>
        <time>2020-10-18T10:23:23.000Z</time>
      </trkpt>
      <trkpt lat="48.22216" lon="-3.39347">
        <ele>234.19999694824</ele>
        <time>2020-10-18T10:23:24.000Z</time>
      </trkpt>
      <trkpt lat="48.22216" lon="-3.39347">
        <ele>234.19999694824</ele>
        <time>2020-10-18T10:23:25.000Z</time>
      </trkpt>
      <trkpt lat="48.22218" lon="-3.39348">
        <ele>234.39999389648</ele>
        <time>2020-10-18T10:23:26.000Z</time>
      </trkpt>
      <trkpt lat="48.22221" lon="-3.39352">
        <ele>234.60000610352</ele>
        <time>2020-10-18T10:23:27.000Z</time>
      </trkpt>
      <trkpt lat="48.22223" lon="-3.39353">
        <ele>234.80000305176</ele>
        <time>2020-10-18T10:23:28.000Z</time>
      </trkpt>
      <trkpt lat="48.22223" lon="-3.39353">
        <ele>234.80000305176</ele>
        <time>2020-10-18T10:23:29.000Z</time>
      </trkpt>
      <trkpt lat="48.22226" lon="-3.39357">
        <ele>235</ele>
        <time>2020-10-18T10:23:30.000Z</time>
      </trkpt>
      <trkpt lat="48.22226" lon="-3.39357">
        <ele>235</ele>
        <time>2020-10-18T10:23:31.000Z</time>
      </trkpt>
      <trkpt lat="48.2223" lon="-3.39361">
        <ele>235.39999389648</ele>
        <time>2020-10-18T10:23:32.000Z</time>
      </trkpt>
      <trkpt lat="48.2223" lon="-3.39361">
        <ele>235.39999389648</ele>
        <time>2020-10-18T10:23:33.000Z</time>
      </trkpt>
      <trkpt lat="48.22231" lon="-3.39363">
        <ele>235.60000610352</ele>
        <time>2020-10-18T10:23:34.000Z</time>
      </trkpt>
      <trkpt lat="48.22235" lon="-3.39367">
        <ele>235.80000305176</ele>
        <time>2020-10-18T10:23:35.000Z</time>
      </trkpt>
      <trkpt lat="48.22235" lon="-3.39367">
        <ele>235.80000305176</ele>
        <time>2020-10-18T10:23:36.000Z</time>
      </trkpt>
      <trkpt lat="48.22239" lon="-3.3937">
        <ele>236.19999694824</ele>
        <time>2020-10-18T10:23:37.000Z</time>
      </trkpt>
      <trkpt lat="48.22239" lon="-3.3937">
        <ele>236.19999694824</ele>
        <time>2020-10-18T10:23:38.000Z</time>
      </trkpt>
      <trkpt lat="48.22241" lon="-3.39372">
        <ele>236.19999694824</ele>
        <time>2020-10-18T10:23:39.000Z</time>
      </trkpt>
      <trkpt lat="48.22245" lon="-3.39375">
        <ele>236.60000610352</ele>
        <time>2020-10-18T10:23:40.000Z</time>
      </trkpt>
      <trkpt lat="48.22245" lon="-3.39375">
        <ele>236.60000610352</ele>
        <time>2020-10-18T10:23:41.000Z</time>
      </trkpt>
      <trkpt lat="48.22248" lon="-3.39379">
        <ele>237</ele>
        <time>2020-10-18T10:23:42.000Z</time>
      </trkpt>
      <trkpt lat="48.22248" lon="-3.39379">
        <ele>237</ele>
        <time>2020-10-18T10:23:43.000Z</time>
      </trkpt>
      <trkpt lat="48.22252" lon="-3.39383">
        <ele>237.19999694824</ele>
        <time>2020-10-18T10:23:44.000Z</time>
      </trkpt>
      <trkpt lat="48.22252" lon="-3.39383">
        <ele>237.19999694824</ele>
        <time>2020-10-18T10:23:45.000Z</time>
      </trkpt>
      <trkpt lat="48.22256" lon="-3.39386">
        <ele>237.60000610352</ele>
        <time>2020-10-18T10:23:46.000Z</time>
      </trkpt>
      <trkpt lat="48.22256" lon="-3.39386">
        <ele>237.60000610352</ele>
        <time>2020-10-18T10:23:47.000Z</time>
      </trkpt>
      <trkpt lat="48.2226" lon="-3.3939">
        <ele>237.80000305176</ele>
        <time>2020-10-18T10:23:48.000Z</time>
      </trkpt>
      <trkpt lat="48.2226" lon="-3.3939">
        <ele>237.80000305176</ele>
        <time>2020-10-18T10:23:49.000Z</time>
      </trkpt>
      <trkpt lat="48.22264" lon="-3.39393">
        <ele>238.19999694824</ele>
        <time>2020-10-18T10:23:50.000Z</time>
      </trkpt>
      <trkpt lat="48.22264" lon="-3.39393">
        <ele>238.19999694824</ele>
        <time>2020-10-18T10:23:51.000Z</time>
      </trkpt>
      <trkpt lat="48.22266" lon="-3.39395">
        <ele>238.19999694824</ele>
        <time>2020-10-18T10:23:52.000Z</time>
      </trkpt>
      <trkpt lat="48.2227" lon="-3.39399">
        <ele>238.39999389648</ele>
        <time>2020-10-18T10:23:53.000Z</time>
      </trkpt>
      <trkpt lat="48.2227" lon="-3.39399">
        <ele>238.39999389648</ele>
        <time>2020-10-18T10:23:54.000Z</time>
      </trkpt>
      <trkpt lat="48.22273" lon="-3.39403">
        <ele>238.80000305176</ele>
        <time>2020-10-18T10:23:55.000Z</time>
      </trkpt>
      <trkpt lat="48.22273" lon="-3.39403">
        <ele>238.80000305176</ele>
        <time>2020-10-18T10:23:56.000Z</time>
      </trkpt>
      <trkpt lat="48.22277" lon="-3.39407">
        <ele>239</ele>
        <time>2020-10-18T10:23:57.000Z</time>
      </trkpt>
      <trkpt lat="48.22277" lon="-3.39407">
        <ele>239</ele>
        <time>2020-10-18T10:23:58.000Z</time>
      </trkpt>
      <trkpt lat="48.22279" lon="-3.39408">
        <ele>239</ele>
        <time>2020-10-18T10:23:59.000Z</time>
      </trkpt>
      <trkpt lat="48.22284" lon="-3.39412">
        <ele>239.19999694824</ele>
        <time>2020-10-18T10:24:00.000Z</time>
      </trkpt>
      <trkpt lat="48.22286" lon="-3.39413">
        <ele>239.19999694824</ele>
        <time>2020-10-18T10:24:01.000Z</time>
      </trkpt>
      <trkpt lat="48.22286" lon="-3.39413">
        <ele>239.19999694824</ele>
        <time>2020-10-18T10:24:02.000Z</time>
      </trkpt>
      <trkpt lat="48.2229" lon="-3.39416">
        <ele>239.39999389648</ele>
        <time>2020-10-18T10:24:03.000Z</time>
      </trkpt>
      <trkpt lat="48.2229" lon="-3.39416">
        <ele>239.39999389648</ele>
        <time>2020-10-18T10:24:04.000Z</time>
      </trkpt>
      <trkpt lat="48.22293" lon="-3.39418">
        <ele>239.39999389648</ele>
        <time>2020-10-18T10:24:05.000Z</time>
      </trkpt>
      <trkpt lat="48.22293" lon="-3.39418">
        <ele>239.39999389648</ele>
        <time>2020-10-18T10:24:06.000Z</time>
      </trkpt>
      <trkpt lat="48.22294" lon="-3.39418">
        <ele>239.39999389648</ele>
        <time>2020-10-18T10:24:07.000Z</time>
      </trkpt>
      <trkpt lat="48.22295" lon="-3.39419">
        <ele>239.39999389648</ele>
        <time>2020-10-18T10:24:08.000Z</time>
      </trkpt>
      <trkpt lat="48.22295" lon="-3.39419">
        <ele>239.39999389648</ele>
        <time>2020-10-18T10:24:09.000Z</time>
      </trkpt>
      <trkpt lat="48.22295" lon="-3.39419">
        <ele>239.39999389648</ele>
        <time>2020-10-18T10:24:10.000Z</time>
      </trkpt>
      <trkpt lat="48.22295" lon="-3.39419">
        <ele>239.39999389648</ele>
        <time>2020-10-18T10:24:11.000Z</time>
      </trkpt>
      <trkpt lat="48.22295" lon="-3.39419">
        <ele>239.39999389648</ele>
        <time>2020-10-18T10:24:12.000Z</time>
      </trkpt>
      <trkpt lat="48.22295" lon="-3.39419">
        <ele>239.39999389648</ele>
        <time>2020-10-18T10:24:13.000Z</time>
      </trkpt>
      <trkpt lat="48.22295" lon="-3.3942">
        <ele>239.39999389648</ele>
        <time>2020-10-18T10:24:14.000Z</time>
      </trkpt>
      <trkpt lat="48.22295" lon="-3.3942">
        <ele>239.39999389648</ele>
        <time>2020-10-18T10:24:15.000Z</time>
      </trkpt>
      <trkpt lat="48.22295" lon="-3.3942">
        <ele>239.39999389648</ele>
        <time>2020-10-18T10:24:16.000Z</time>
      </trkpt>
      <trkpt lat="48.22295" lon="-3.3942">
        <ele>239.39999389648</ele>
        <time>2020-10-18T10:24:17.000Z</time>
      </trkpt>
      <trkpt lat="48.22295" lon="-3.3942">
        <ele>239.39999389648</ele>
        <time>2020-10-18T10:24:18.000Z</time>
      </trkpt>
      <trkpt lat="48.22295" lon="-3.3942">
        <ele>239.39999389648</ele>
        <time>2020-10-18T10:24:19.000Z</time>
      </trkpt>
      <trkpt lat="48.22296" lon="-3.3942">
        <ele>239.39999389648</ele>
        <time>2020-10-18T10:24:20.000Z</time>
      </trkpt>
      <trkpt lat="48.22297" lon="-3.39424">
        <ele>239.39999389648</ele>
        <time>2020-10-18T10:24:21.000Z</time>
      </trkpt>
      <trkpt lat="48.22297" lon="-3.39424">
        <ele>239.39999389648</ele>
        <time>2020-10-18T10:24:22.000Z</time>
      </trkpt>
      <trkpt lat="48.22298" lon="-3.39431">
        <ele>239.39999389648</ele>
        <time>2020-10-18T10:24:23.000Z</time>
      </trkpt>
      <trkpt lat="48.22298" lon="-3.39431">
        <ele>239.39999389648</ele>
        <time>2020-10-18T10:24:24.000Z</time>
      </trkpt>
      <trkpt lat="48.22298" lon="-3.39434">
        <ele>239.39999389648</ele>
        <time>2020-10-18T10:24:25.000Z</time>
      </trkpt>
      <trkpt lat="48.22298" lon="-3.39441">
        <ele>239.60000610352</ele>
        <time>2020-10-18T10:24:26.000Z</time>
      </trkpt>
      <trkpt lat="48.22297" lon="-3.39445">
        <ele>239.60000610352</ele>
        <time>2020-10-18T10:24:27.000Z</time>
      </trkpt>
      <trkpt lat="48.22297" lon="-3.39445">
        <ele>239.60000610352</ele>
        <time>2020-10-18T10:24:28.000Z</time>
      </trkpt>
      <trkpt lat="48.22298" lon="-3.39453">
        <ele>239.60000610352</ele>
        <time>2020-10-18T10:24:29.000Z</time>
      </trkpt>
      <trkpt lat="48.22298" lon="-3.39453">
        <ele>239.60000610352</ele>
        <time>2020-10-18T10:24:30.000Z</time>
      </trkpt>
      <trkpt lat="48.22299" lon="-3.39457">
        <ele>239.80000305176</ele>
        <time>2020-10-18T10:24:31.000Z</time>
      </trkpt>
      <trkpt lat="48.22301" lon="-3.39465">
        <ele>239.80000305176</ele>
        <time>2020-10-18T10:24:32.000Z</time>
      </trkpt>
      <trkpt lat="48.22301" lon="-3.39465">
        <ele>239.80000305176</ele>
        <time>2020-10-18T10:24:33.000Z</time>
      </trkpt>
      <trkpt lat="48.22301" lon="-3.39473">
        <ele>240</ele>
        <time>2020-10-18T10:24:34.000Z</time>
      </trkpt>
      <trkpt lat="48.22301" lon="-3.39473">
        <ele>240</ele>
        <time>2020-10-18T10:24:35.000Z</time>
      </trkpt>
      <trkpt lat="48.223" lon="-3.39482">
        <ele>240</ele>
        <time>2020-10-18T10:24:36.000Z</time>
      </trkpt>
      <trkpt lat="48.223" lon="-3.39482">
        <ele>240</ele>
        <time>2020-10-18T10:24:37.000Z</time>
      </trkpt>
      <trkpt lat="48.22299" lon="-3.39487">
        <ele>240</ele>
        <time>2020-10-18T10:24:38.000Z</time>
      </trkpt>
      <trkpt lat="48.22296" lon="-3.39497">
        <ele>240</ele>
        <time>2020-10-18T10:24:39.000Z</time>
      </trkpt>
      <trkpt lat="48.22296" lon="-3.39497">
        <ele>240</ele>
        <time>2020-10-18T10:24:40.000Z</time>
      </trkpt>
      <trkpt lat="48.22294" lon="-3.39507">
        <ele>240</ele>
        <time>2020-10-18T10:24:41.000Z</time>
      </trkpt>
      <trkpt lat="48.22294" lon="-3.39507">
        <ele>240</ele>
        <time>2020-10-18T10:24:42.000Z</time>
      </trkpt>
      <trkpt lat="48.22293" lon="-3.39512">
        <ele>240</ele>
        <time>2020-10-18T10:24:43.000Z</time>
      </trkpt>
      <trkpt lat="48.22291" lon="-3.39522">
        <ele>240</ele>
        <time>2020-10-18T10:24:44.000Z</time>
      </trkpt>
      <trkpt lat="48.22291" lon="-3.39522">
        <ele>240</ele>
        <time>2020-10-18T10:24:45.000Z</time>
      </trkpt>
      <trkpt lat="48.2229" lon="-3.39528">
        <ele>240</ele>
        <time>2020-10-18T10:24:46.000Z</time>
      </trkpt>
      <trkpt lat="48.22287" lon="-3.39538">
        <ele>240</ele>
        <time>2020-10-18T10:24:47.000Z</time>
      </trkpt>
      <trkpt lat="48.22287" lon="-3.39538">
        <ele>240</ele>
        <time>2020-10-18T10:24:48.000Z</time>
      </trkpt>
      <trkpt lat="48.22286" lon="-3.39544">
        <ele>240</ele>
        <time>2020-10-18T10:24:49.000Z</time>
      </trkpt>
      <trkpt lat="48.22284" lon="-3.39554">
        <ele>240</ele>
        <time>2020-10-18T10:24:50.000Z</time>
      </trkpt>
      <trkpt lat="48.22284" lon="-3.39554">
        <ele>240</ele>
        <time>2020-10-18T10:24:51.000Z</time>
      </trkpt>
      <trkpt lat="48.22282" lon="-3.39564">
        <ele>240</ele>
        <time>2020-10-18T10:24:52.000Z</time>
      </trkpt>
      <trkpt lat="48.22282" lon="-3.39564">
        <ele>240</ele>
        <time>2020-10-18T10:24:53.000Z</time>
      </trkpt>
      <trkpt lat="48.22281" lon="-3.3957">
        <ele>240</ele>
        <time>2020-10-18T10:24:54.000Z</time>
      </trkpt>
      <trkpt lat="48.22279" lon="-3.3958">
        <ele>240</ele>
        <time>2020-10-18T10:24:55.000Z</time>
      </trkpt>
      <trkpt lat="48.22279" lon="-3.3958">
        <ele>240</ele>
        <time>2020-10-18T10:24:56.000Z</time>
      </trkpt>
      <trkpt lat="48.22277" lon="-3.3959">
        <ele>239.80000305176</ele>
        <time>2020-10-18T10:24:57.000Z</time>
      </trkpt>
      <trkpt lat="48.22277" lon="-3.3959">
        <ele>239.80000305176</ele>
        <time>2020-10-18T10:24:58.000Z</time>
      </trkpt>
      <trkpt lat="48.22275" lon="-3.396">
        <ele>239.80000305176</ele>
        <time>2020-10-18T10:24:59.000Z</time>
      </trkpt>
      <trkpt lat="48.22275" lon="-3.396">
        <ele>239.80000305176</ele>
        <time>2020-10-18T10:25:00.000Z</time>
      </trkpt>
      <trkpt lat="48.22273" lon="-3.3961">
        <ele>239.80000305176</ele>
        <time>2020-10-18T10:25:01.000Z</time>
      </trkpt>
      <trkpt lat="48.22273" lon="-3.3961">
        <ele>239.80000305176</ele>
        <time>2020-10-18T10:25:02.000Z</time>
      </trkpt>
      <trkpt lat="48.22271" lon="-3.39619">
        <ele>240</ele>
        <time>2020-10-18T10:25:03.000Z</time>
      </trkpt>
      <trkpt lat="48.22271" lon="-3.39619">
        <ele>240</ele>
        <time>2020-10-18T10:25:04.000Z</time>
      </trkpt>
      <trkpt lat="48.2227" lon="-3.39623">
        <ele>240.19999694824</ele>
        <time>2020-10-18T10:25:05.000Z</time>
      </trkpt>
      <trkpt lat="48.22267" lon="-3.39632">
        <ele>240.19999694824</ele>
        <time>2020-10-18T10:25:06.000Z</time>
      </trkpt>
      <trkpt lat="48.22267" lon="-3.39632">
        <ele>240.19999694824</ele>
        <time>2020-10-18T10:25:07.000Z</time>
      </trkpt>
      <trkpt lat="48.22266" lon="-3.39636">
        <ele>240.39999389648</ele>
        <time>2020-10-18T10:25:08.000Z</time>
      </trkpt>
      <trkpt lat="48.22265" lon="-3.39645">
        <ele>240.39999389648</ele>
        <time>2020-10-18T10:25:09.000Z</time>
      </trkpt>
      <trkpt lat="48.22265" lon="-3.39645">
        <ele>240.39999389648</ele>
        <time>2020-10-18T10:25:10.000Z</time>
      </trkpt>
      <trkpt lat="48.22264" lon="-3.3965">
        <ele>240.60000610352</ele>
        <time>2020-10-18T10:25:11.000Z</time>
      </trkpt>
      <trkpt lat="48.22262" lon="-3.39659">
        <ele>240.80000305176</ele>
        <time>2020-10-18T10:25:12.000Z</time>
      </trkpt>
      <trkpt lat="48.22262" lon="-3.39659">
        <ele>240.80000305176</ele>
        <time>2020-10-18T10:25:13.000Z</time>
      </trkpt>
      <trkpt lat="48.22261" lon="-3.39664">
        <ele>240.80000305176</ele>
        <time>2020-10-18T10:25:14.000Z</time>
      </trkpt>
      <trkpt lat="48.22258" lon="-3.39674">
        <ele>240.80000305176</ele>
        <time>2020-10-18T10:25:15.000Z</time>
      </trkpt>
      <trkpt lat="48.22258" lon="-3.39674">
        <ele>240.80000305176</ele>
        <time>2020-10-18T10:25:16.000Z</time>
      </trkpt>
      <trkpt lat="48.22256" lon="-3.39684">
        <ele>240.80000305176</ele>
        <time>2020-10-18T10:25:17.000Z</time>
      </trkpt>
      <trkpt lat="48.22256" lon="-3.39684">
        <ele>240.80000305176</ele>
        <time>2020-10-18T10:25:18.000Z</time>
      </trkpt>
      <trkpt lat="48.22254" lon="-3.39689">
        <ele>240.80000305176</ele>
        <time>2020-10-18T10:25:19.000Z</time>
      </trkpt>
      <trkpt lat="48.22253" lon="-3.39701">
        <ele>240.80000305176</ele>
        <time>2020-10-18T10:25:20.000Z</time>
      </trkpt>
      <trkpt lat="48.22253" lon="-3.39701">
        <ele>240.80000305176</ele>
        <time>2020-10-18T10:25:21.000Z</time>
      </trkpt>
      <trkpt lat="48.22252" lon="-3.39706">
        <ele>241</ele>
        <time>2020-10-18T10:25:22.000Z</time>
      </trkpt>
      <trkpt lat="48.2225" lon="-3.39718">
        <ele>241</ele>
        <time>2020-10-18T10:25:23.000Z</time>
      </trkpt>
      <trkpt lat="48.2225" lon="-3.39718">
        <ele>241</ele>
        <time>2020-10-18T10:25:24.000Z</time>
      </trkpt>
      <trkpt lat="48.2225" lon="-3.39723">
        <ele>241</ele>
        <time>2020-10-18T10:25:25.000Z</time>
      </trkpt>
      <trkpt lat="48.22248" lon="-3.39735">
        <ele>241.19999694824</ele>
        <time>2020-10-18T10:25:26.000Z</time>
      </trkpt>
      <trkpt lat="48.22248" lon="-3.39735">
        <ele>241.19999694824</ele>
        <time>2020-10-18T10:25:27.000Z</time>
      </trkpt>
      <trkpt lat="48.22248" lon="-3.3974">
        <ele>241.19999694824</ele>
        <time>2020-10-18T10:25:28.000Z</time>
      </trkpt>
      <trkpt lat="48.22246" lon="-3.39751">
        <ele>241.19999694824</ele>
        <time>2020-10-18T10:25:29.000Z</time>
      </trkpt>
      <trkpt lat="48.22246" lon="-3.39751">
        <ele>241.19999694824</ele>
        <time>2020-10-18T10:25:30.000Z</time>
      </trkpt>
      <trkpt lat="48.22245" lon="-3.39757">
        <ele>241.19999694824</ele>
        <time>2020-10-18T10:25:31.000Z</time>
      </trkpt>
      <trkpt lat="48.22243" lon="-3.39768">
        <ele>241.39999389648</ele>
        <time>2020-10-18T10:25:32.000Z</time>
      </trkpt>
      <trkpt lat="48.22243" lon="-3.39768">
        <ele>241.39999389648</ele>
        <time>2020-10-18T10:25:33.000Z</time>
      </trkpt>
      <trkpt lat="48.22242" lon="-3.39773">
        <ele>241.19999694824</ele>
        <time>2020-10-18T10:25:34.000Z</time>
      </trkpt>
      <trkpt lat="48.2224" lon="-3.39784">
        <ele>241.19999694824</ele>
        <time>2020-10-18T10:25:35.000Z</time>
      </trkpt>
      <trkpt lat="48.2224" lon="-3.39784">
        <ele>241.19999694824</ele>
        <time>2020-10-18T10:25:36.000Z</time>
      </trkpt>
      <trkpt lat="48.22239" lon="-3.3979">
        <ele>241.19999694824</ele>
        <time>2020-10-18T10:25:37.000Z</time>
      </trkpt>
      <trkpt lat="48.22238" lon="-3.39801">
        <ele>241</ele>
        <time>2020-10-18T10:25:38.000Z</time>
      </trkpt>
      <trkpt lat="48.22238" lon="-3.39801">
        <ele>241</ele>
        <time>2020-10-18T10:25:39.000Z</time>
      </trkpt>
      <trkpt lat="48.22238" lon="-3.39807">
        <ele>241</ele>
        <time>2020-10-18T10:25:40.000Z</time>
      </trkpt>
      <trkpt lat="48.22235" lon="-3.3982">
        <ele>240.60000610352</ele>
        <time>2020-10-18T10:25:41.000Z</time>
      </trkpt>
      <trkpt lat="48.22235" lon="-3.3982">
        <ele>240.60000610352</ele>
        <time>2020-10-18T10:25:42.000Z</time>
      </trkpt>
      <trkpt lat="48.22234" lon="-3.39833">
        <ele>240.60000610352</ele>
        <time>2020-10-18T10:25:43.000Z</time>
      </trkpt>
      <trkpt lat="48.22234" lon="-3.39833">
        <ele>240.60000610352</ele>
        <time>2020-10-18T10:25:44.000Z</time>
      </trkpt>
      <trkpt lat="48.22232" lon="-3.39846">
        <ele>240.39999389648</ele>
        <time>2020-10-18T10:25:45.000Z</time>
      </trkpt>
      <trkpt lat="48.22231" lon="-3.39853">
        <ele>240.39999389648</ele>
        <time>2020-10-18T10:25:46.000Z</time>
      </trkpt>
      <trkpt lat="48.22231" lon="-3.39853">
        <ele>240.39999389648</ele>
        <time>2020-10-18T10:25:47.000Z</time>
      </trkpt>
      <trkpt lat="48.2223" lon="-3.39866">
        <ele>240.39999389648</ele>
        <time>2020-10-18T10:25:48.000Z</time>
      </trkpt>
      <trkpt lat="48.2223" lon="-3.39866">
        <ele>240.39999389648</ele>
        <time>2020-10-18T10:25:49.000Z</time>
      </trkpt>
      <trkpt lat="48.22228" lon="-3.39873">
        <ele>240.39999389648</ele>
        <time>2020-10-18T10:25:50.000Z</time>
      </trkpt>
      <trkpt lat="48.22226" lon="-3.39887">
        <ele>240.60000610352</ele>
        <time>2020-10-18T10:25:51.000Z</time>
      </trkpt>
      <trkpt lat="48.22226" lon="-3.39887">
        <ele>240.60000610352</ele>
        <time>2020-10-18T10:25:52.000Z</time>
      </trkpt>
      <trkpt lat="48.22225" lon="-3.39894">
        <ele>240.60000610352</ele>
        <time>2020-10-18T10:25:53.000Z</time>
      </trkpt>
      <trkpt lat="48.22223" lon="-3.39909">
        <ele>240.60000610352</ele>
        <time>2020-10-18T10:25:54.000Z</time>
      </trkpt>
      <trkpt lat="48.22223" lon="-3.39909">
        <ele>240.60000610352</ele>
        <time>2020-10-18T10:25:55.000Z</time>
      </trkpt>
      <trkpt lat="48.22222" lon="-3.39916">
        <ele>240.60000610352</ele>
        <time>2020-10-18T10:25:56.000Z</time>
      </trkpt>
      <trkpt lat="48.22218" lon="-3.39931">
        <ele>240.39999389648</ele>
        <time>2020-10-18T10:25:57.000Z</time>
      </trkpt>
      <trkpt lat="48.22218" lon="-3.39931">
        <ele>240.39999389648</ele>
        <time>2020-10-18T10:25:58.000Z</time>
      </trkpt>
      <trkpt lat="48.22217" lon="-3.3994">
        <ele>240.39999389648</ele>
        <time>2020-10-18T10:25:59.000Z</time>
      </trkpt>
      <trkpt lat="48.22214" lon="-3.39957">
        <ele>240.39999389648</ele>
        <time>2020-10-18T10:26:00.000Z</time>
      </trkpt>
      <trkpt lat="48.22212" lon="-3.39965">
        <ele>240.39999389648</ele>
        <time>2020-10-18T10:26:01.000Z</time>
      </trkpt>
      <trkpt lat="48.22212" lon="-3.39965">
        <ele>240.39999389648</ele>
        <time>2020-10-18T10:26:02.000Z</time>
      </trkpt>
      <trkpt lat="48.22208" lon="-3.39983">
        <ele>240.39999389648</ele>
        <time>2020-10-18T10:26:03.000Z</time>
      </trkpt>
      <trkpt lat="48.22208" lon="-3.39983">
        <ele>240.39999389648</ele>
        <time>2020-10-18T10:26:04.000Z</time>
      </trkpt>
      <trkpt lat="48.22206" lon="-3.39992">
        <ele>240.19999694824</ele>
        <time>2020-10-18T10:26:05.000Z</time>
      </trkpt>
      <trkpt lat="48.22202" lon="-3.40009">
        <ele>239.80000305176</ele>
        <time>2020-10-18T10:26:06.000Z</time>
      </trkpt>
      <trkpt lat="48.22202" lon="-3.40009">
        <ele>239.80000305176</ele>
        <time>2020-10-18T10:26:07.000Z</time>
      </trkpt>
      <trkpt lat="48.22199" lon="-3.40018">
        <ele>239.60000610352</ele>
        <time>2020-10-18T10:26:08.000Z</time>
      </trkpt>
      <trkpt lat="48.22195" lon="-3.40035">
        <ele>239</ele>
        <time>2020-10-18T10:26:09.000Z</time>
      </trkpt>
      <trkpt lat="48.22195" lon="-3.40035">
        <ele>239</ele>
        <time>2020-10-18T10:26:10.000Z</time>
      </trkpt>
      <trkpt lat="48.22194" lon="-3.40043">
        <ele>238.80000305176</ele>
        <time>2020-10-18T10:26:11.000Z</time>
      </trkpt>
      <trkpt lat="48.22192" lon="-3.40054">
        <ele>238.39999389648</ele>
        <time>2020-10-18T10:26:12.000Z</time>
      </trkpt>
      <trkpt lat="48.22192" lon="-3.40054">
        <ele>238.39999389648</ele>
        <time>2020-10-18T10:26:13.000Z</time>
      </trkpt>
      <trkpt lat="48.22192" lon="-3.40059">
        <ele>238.19999694824</ele>
        <time>2020-10-18T10:26:14.000Z</time>
      </trkpt>
      <trkpt lat="48.22195" lon="-3.40067">
        <ele>238</ele>
        <time>2020-10-18T10:26:15.000Z</time>
      </trkpt>
      <trkpt lat="48.22195" lon="-3.40067">
        <ele>238</ele>
        <time>2020-10-18T10:26:16.000Z</time>
      </trkpt>
      <trkpt lat="48.22197" lon="-3.40072">
        <ele>237.80000305176</ele>
        <time>2020-10-18T10:26:17.000Z</time>
      </trkpt>
      <trkpt lat="48.22199" lon="-3.40085">
        <ele>237.19999694824</ele>
        <time>2020-10-18T10:26:18.000Z</time>
      </trkpt>
      <trkpt lat="48.22199" lon="-3.40085">
        <ele>237.19999694824</ele>
        <time>2020-10-18T10:26:19.000Z</time>
      </trkpt>
      <trkpt lat="48.22201" lon="-3.40093">
        <ele>236.80000305176</ele>
        <time>2020-10-18T10:26:20.000Z</time>
      </trkpt>
      <trkpt lat="48.22203" lon="-3.40112">
        <ele>236.19999694824</ele>
        <time>2020-10-18T10:26:21.000Z</time>
      </trkpt>
      <trkpt lat="48.22203" lon="-3.40112">
        <ele>236.19999694824</ele>
        <time>2020-10-18T10:26:22.000Z</time>
      </trkpt>
      <trkpt lat="48.22204" lon="-3.40122">
        <ele>236</ele>
        <time>2020-10-18T10:26:23.000Z</time>
      </trkpt>
      <trkpt lat="48.22206" lon="-3.40145">
        <ele>235.80000305176</ele>
        <time>2020-10-18T10:26:24.000Z</time>
      </trkpt>
      <trkpt lat="48.22207" lon="-3.40157">
        <ele>235.39999389648</ele>
        <time>2020-10-18T10:26:25.000Z</time>
      </trkpt>
      <trkpt lat="48.22207" lon="-3.40157">
        <ele>235.39999389648</ele>
        <time>2020-10-18T10:26:26.000Z</time>
      </trkpt>
      <trkpt lat="48.22207" lon="-3.40169">
        <ele>235</ele>
        <time>2020-10-18T10:26:27.000Z</time>
      </trkpt>
      <trkpt lat="48.22206" lon="-3.40192">
        <ele>233.80000305176</ele>
        <time>2020-10-18T10:26:28.000Z</time>
      </trkpt>
      <trkpt lat="48.22206" lon="-3.40192">
        <ele>233.80000305176</ele>
        <time>2020-10-18T10:26:29.000Z</time>
      </trkpt>
      <trkpt lat="48.22205" lon="-3.40204">
        <ele>233</ele>
        <time>2020-10-18T10:26:30.000Z</time>
      </trkpt>
      <trkpt lat="48.22202" lon="-3.40227">
        <ele>231.80000305176</ele>
        <time>2020-10-18T10:26:31.000Z</time>
      </trkpt>
      <trkpt lat="48.22202" lon="-3.40227">
        <ele>231.80000305176</ele>
        <time>2020-10-18T10:26:32.000Z</time>
      </trkpt>
      <trkpt lat="48.222" lon="-3.40239">
        <ele>231.19999694824</ele>
        <time>2020-10-18T10:26:33.000Z</time>
      </trkpt>
      <trkpt lat="48.22198" lon="-3.40265">
        <ele>229.60000610352</ele>
        <time>2020-10-18T10:26:34.000Z</time>
      </trkpt>
      <trkpt lat="48.22198" lon="-3.40265">
        <ele>229.60000610352</ele>
        <time>2020-10-18T10:26:35.000Z</time>
      </trkpt>
      <trkpt lat="48.22197" lon="-3.40278">
        <ele>229</ele>
        <time>2020-10-18T10:26:36.000Z</time>
      </trkpt>
      <trkpt lat="48.22195" lon="-3.40307">
        <ele>227.80000305176</ele>
        <time>2020-10-18T10:26:37.000Z</time>
      </trkpt>
      <trkpt lat="48.22195" lon="-3.40307">
        <ele>227.80000305176</ele>
        <time>2020-10-18T10:26:38.000Z</time>
      </trkpt>
      <trkpt lat="48.22194" lon="-3.40321">
        <ele>227.19999694824</ele>
        <time>2020-10-18T10:26:39.000Z</time>
      </trkpt>
      <trkpt lat="48.22193" lon="-3.4035">
        <ele>225.60000610352</ele>
        <time>2020-10-18T10:26:40.000Z</time>
      </trkpt>
      <trkpt lat="48.22193" lon="-3.4035">
        <ele>225.60000610352</ele>
        <time>2020-10-18T10:26:41.000Z</time>
      </trkpt>
      <trkpt lat="48.22193" lon="-3.40366">
        <ele>225.19999694824</ele>
        <time>2020-10-18T10:26:42.000Z</time>
      </trkpt>
      <trkpt lat="48.22192" lon="-3.40394">
        <ele>224.60000610352</ele>
        <time>2020-10-18T10:26:43.000Z</time>
      </trkpt>
      <trkpt lat="48.22192" lon="-3.40394">
        <ele>224.60000610352</ele>
        <time>2020-10-18T10:26:44.000Z</time>
      </trkpt>
      <trkpt lat="48.22193" lon="-3.40408">
        <ele>224.19999694824</ele>
        <time>2020-10-18T10:26:45.000Z</time>
      </trkpt>
      <trkpt lat="48.22193" lon="-3.40422">
        <ele>224</ele>
        <time>2020-10-18T10:26:46.000Z</time>
      </trkpt>
      <trkpt lat="48.22192" lon="-3.40435">
        <ele>224</ele>
        <time>2020-10-18T10:26:47.000Z</time>
      </trkpt>
      <trkpt lat="48.22191" lon="-3.40461">
        <ele>224.19999694824</ele>
        <time>2020-10-18T10:26:48.000Z</time>
      </trkpt>
      <trkpt lat="48.22191" lon="-3.40461">
        <ele>224.19999694824</ele>
        <time>2020-10-18T10:26:49.000Z</time>
      </trkpt>
      <trkpt lat="48.2219" lon="-3.40473">
        <ele>224.19999694824</ele>
        <time>2020-10-18T10:26:50.000Z</time>
      </trkpt>
      <trkpt lat="48.22189" lon="-3.40494">
        <ele>224.19999694824</ele>
        <time>2020-10-18T10:26:51.000Z</time>
      </trkpt>
      <trkpt lat="48.22189" lon="-3.40494">
        <ele>224.19999694824</ele>
        <time>2020-10-18T10:26:52.000Z</time>
      </trkpt>
      <trkpt lat="48.22188" lon="-3.40504">
        <ele>224.39999389648</ele>
        <time>2020-10-18T10:26:53.000Z</time>
      </trkpt>
      <trkpt lat="48.22187" lon="-3.40521">
        <ele>224.39999389648</ele>
        <time>2020-10-18T10:26:54.000Z</time>
      </trkpt>
      <trkpt lat="48.22187" lon="-3.40521">
        <ele>224.39999389648</ele>
        <time>2020-10-18T10:26:55.000Z</time>
      </trkpt>
      <trkpt lat="48.22186" lon="-3.4053">
        <ele>224.39999389648</ele>
        <time>2020-10-18T10:26:56.000Z</time>
      </trkpt>
      <trkpt lat="48.22185" lon="-3.40546">
        <ele>224.39999389648</ele>
        <time>2020-10-18T10:26:57.000Z</time>
      </trkpt>
      <trkpt lat="48.22185" lon="-3.40546">
        <ele>224.39999389648</ele>
        <time>2020-10-18T10:26:58.000Z</time>
      </trkpt>
      <trkpt lat="48.22184" lon="-3.40553">
        <ele>224.60000610352</ele>
        <time>2020-10-18T10:26:59.000Z</time>
      </trkpt>
      <trkpt lat="48.22183" lon="-3.40568">
        <ele>224.60000610352</ele>
        <time>2020-10-18T10:27:00.000Z</time>
      </trkpt>
      <trkpt lat="48.22183" lon="-3.40568">
        <ele>224.60000610352</ele>
        <time>2020-10-18T10:27:01.000Z</time>
      </trkpt>
      <trkpt lat="48.22182" lon="-3.40575">
        <ele>224.80000305176</ele>
        <time>2020-10-18T10:27:02.000Z</time>
      </trkpt>
      <trkpt lat="48.22181" lon="-3.40589">
        <ele>224.80000305176</ele>
        <time>2020-10-18T10:27:03.000Z</time>
      </trkpt>
      <trkpt lat="48.22181" lon="-3.40596">
        <ele>224.80000305176</ele>
        <time>2020-10-18T10:27:04.000Z</time>
      </trkpt>
      <trkpt lat="48.22181" lon="-3.40596">
        <ele>224.80000305176</ele>
        <time>2020-10-18T10:27:05.000Z</time>
      </trkpt>
      <trkpt lat="48.22181" lon="-3.40603">
        <ele>225</ele>
        <time>2020-10-18T10:27:06.000Z</time>
      </trkpt>
      <trkpt lat="48.22182" lon="-3.40616">
        <ele>225.19999694824</ele>
        <time>2020-10-18T10:27:07.000Z</time>
      </trkpt>
      <trkpt lat="48.22182" lon="-3.40616">
        <ele>225.19999694824</ele>
        <time>2020-10-18T10:27:08.000Z</time>
      </trkpt>
      <trkpt lat="48.22183" lon="-3.40623">
        <ele>225.19999694824</ele>
        <time>2020-10-18T10:27:09.000Z</time>
      </trkpt>
      <trkpt lat="48.22186" lon="-3.40636">
        <ele>225.19999694824</ele>
        <time>2020-10-18T10:27:10.000Z</time>
      </trkpt>
      <trkpt lat="48.22186" lon="-3.40636">
        <ele>225.19999694824</ele>
        <time>2020-10-18T10:27:11.000Z</time>
      </trkpt>
      <trkpt lat="48.22188" lon="-3.40642">
        <ele>225.19999694824</ele>
        <time>2020-10-18T10:27:12.000Z</time>
      </trkpt>
      <trkpt lat="48.22195" lon="-3.40654">
        <ele>225</ele>
        <time>2020-10-18T10:27:13.000Z</time>
      </trkpt>
      <trkpt lat="48.22195" lon="-3.40654">
        <ele>225</ele>
        <time>2020-10-18T10:27:14.000Z</time>
      </trkpt>
      <trkpt lat="48.22198" lon="-3.40661">
        <ele>224.80000305176</ele>
        <time>2020-10-18T10:27:15.000Z</time>
      </trkpt>
      <trkpt lat="48.22206" lon="-3.40675">
        <ele>223.80000305176</ele>
        <time>2020-10-18T10:27:16.000Z</time>
      </trkpt>
      <trkpt lat="48.22206" lon="-3.40675">
        <ele>223.80000305176</ele>
        <time>2020-10-18T10:27:17.000Z</time>
      </trkpt>
      <trkpt lat="48.2221" lon="-3.40683">
        <ele>223.39999389648</ele>
        <time>2020-10-18T10:27:18.000Z</time>
      </trkpt>
      <trkpt lat="48.22218" lon="-3.40699">
        <ele>223</ele>
        <time>2020-10-18T10:27:19.000Z</time>
      </trkpt>
      <trkpt lat="48.22218" lon="-3.40699">
        <ele>223</ele>
        <time>2020-10-18T10:27:20.000Z</time>
      </trkpt>
      <trkpt lat="48.22222" lon="-3.40707">
        <ele>222.60000610352</ele>
        <time>2020-10-18T10:27:21.000Z</time>
      </trkpt>
      <trkpt lat="48.22231" lon="-3.40723">
        <ele>221.80000305176</ele>
        <time>2020-10-18T10:27:22.000Z</time>
      </trkpt>
      <trkpt lat="48.22231" lon="-3.40723">
        <ele>221.80000305176</ele>
        <time>2020-10-18T10:27:23.000Z</time>
      </trkpt>
      <trkpt lat="48.22234" lon="-3.40729">
        <ele>221.39999389648</ele>
        <time>2020-10-18T10:27:24.000Z</time>
      </trkpt>
      <trkpt lat="48.2224" lon="-3.40741">
        <ele>220.39999389648</ele>
        <time>2020-10-18T10:27:25.000Z</time>
      </trkpt>
      <trkpt lat="48.2224" lon="-3.40741">
        <ele>220.39999389648</ele>
        <time>2020-10-18T10:27:26.000Z</time>
      </trkpt>
      <trkpt lat="48.22243" lon="-3.40746">
        <ele>220</ele>
        <time>2020-10-18T10:27:27.000Z</time>
      </trkpt>
      <trkpt lat="48.22249" lon="-3.40757">
        <ele>219</ele>
        <time>2020-10-18T10:27:28.000Z</time>
      </trkpt>
      <trkpt lat="48.22249" lon="-3.40757">
        <ele>219</ele>
        <time>2020-10-18T10:27:29.000Z</time>
      </trkpt>
      <trkpt lat="48.22252" lon="-3.40762">
        <ele>218.60000610352</ele>
        <time>2020-10-18T10:27:30.000Z</time>
      </trkpt>
      <trkpt lat="48.22257" lon="-3.40772">
        <ele>218</ele>
        <time>2020-10-18T10:27:31.000Z</time>
      </trkpt>
      <trkpt lat="48.22257" lon="-3.40772">
        <ele>218</ele>
        <time>2020-10-18T10:27:32.000Z</time>
      </trkpt>
      <trkpt lat="48.2226" lon="-3.40778">
        <ele>217.60000610352</ele>
        <time>2020-10-18T10:27:33.000Z</time>
      </trkpt>
      <trkpt lat="48.22266" lon="-3.40785">
        <ele>217</ele>
        <time>2020-10-18T10:27:34.000Z</time>
      </trkpt>
      <trkpt lat="48.22266" lon="-3.40785">
        <ele>217</ele>
        <time>2020-10-18T10:27:35.000Z</time>
      </trkpt>
      <trkpt lat="48.22268" lon="-3.40788">
        <ele>217</ele>
        <time>2020-10-18T10:27:36.000Z</time>
      </trkpt>
      <trkpt lat="48.2227" lon="-3.40791">
        <ele>217</ele>
        <time>2020-10-18T10:27:37.000Z</time>
      </trkpt>
      <trkpt lat="48.2227" lon="-3.40791">
        <ele>217</ele>
        <time>2020-10-18T10:27:38.000Z</time>
      </trkpt>
      <trkpt lat="48.2227" lon="-3.40792">
        <ele>217</ele>
        <time>2020-10-18T10:27:39.000Z</time>
      </trkpt>
      <trkpt lat="48.2227" lon="-3.40793">
        <ele>217</ele>
        <time>2020-10-18T10:27:40.000Z</time>
      </trkpt>
      <trkpt lat="48.2227" lon="-3.40793">
        <ele>217</ele>
        <time>2020-10-18T10:27:41.000Z</time>
      </trkpt>
      <trkpt lat="48.2227" lon="-3.40793">
        <ele>217</ele>
        <time>2020-10-18T10:27:42.000Z</time>
      </trkpt>
      <trkpt lat="48.2227" lon="-3.40793">
        <ele>217</ele>
        <time>2020-10-18T10:27:43.000Z</time>
      </trkpt>
      <trkpt lat="48.2227" lon="-3.40793">
        <ele>217</ele>
        <time>2020-10-18T10:27:44.000Z</time>
      </trkpt>
      <trkpt lat="48.2227" lon="-3.40793">
        <ele>217</ele>
        <time>2020-10-18T10:27:45.000Z</time>
      </trkpt>
      <trkpt lat="48.2227" lon="-3.40793">
        <ele>217</ele>
        <time>2020-10-18T10:27:46.000Z</time>
      </trkpt>
      <trkpt lat="48.2227" lon="-3.40793">
        <ele>217</ele>
        <time>2020-10-18T10:27:47.000Z</time>
      </trkpt>
      <trkpt lat="48.2227" lon="-3.40792">
        <ele>217</ele>
        <time>2020-10-18T10:27:48.000Z</time>
      </trkpt>
      <trkpt lat="48.2227" lon="-3.40792">
        <ele>217</ele>
        <time>2020-10-18T10:27:49.000Z</time>
      </trkpt>
      <trkpt lat="48.2227" lon="-3.40791">
        <ele>217</ele>
        <time>2020-10-18T10:27:50.000Z</time>
      </trkpt>
      <trkpt lat="48.2227" lon="-3.40789">
        <ele>216.80000305176</ele>
        <time>2020-10-18T10:27:51.000Z</time>
      </trkpt>
      <trkpt lat="48.2227" lon="-3.40789">
        <ele>216.80000305176</ele>
        <time>2020-10-18T10:27:52.000Z</time>
      </trkpt>
      <trkpt lat="48.2227" lon="-3.40789">
        <ele>216.80000305176</ele>
        <time>2020-10-18T10:27:53.000Z</time>
      </trkpt>
      <trkpt lat="48.22271" lon="-3.40788">
        <ele>216.80000305176</ele>
        <time>2020-10-18T10:27:54.000Z</time>
      </trkpt>
      <trkpt lat="48.22271" lon="-3.40788">
        <ele>216.80000305176</ele>
        <time>2020-10-18T10:27:55.000Z</time>
      </trkpt>
      <trkpt lat="48.22271" lon="-3.40788">
        <ele>216.80000305176</ele>
        <time>2020-10-18T10:27:56.000Z</time>
      </trkpt>
      <trkpt lat="48.22271" lon="-3.40787">
        <ele>216.80000305176</ele>
        <time>2020-10-18T10:27:57.000Z</time>
      </trkpt>
      <trkpt lat="48.22271" lon="-3.40787">
        <ele>216.80000305176</ele>
        <time>2020-10-18T10:27:58.000Z</time>
      </trkpt>
      <trkpt lat="48.2227" lon="-3.40787">
        <ele>217</ele>
        <time>2020-10-18T10:27:59.000Z</time>
      </trkpt>
      <trkpt lat="48.22269" lon="-3.40788">
        <ele>217</ele>
        <time>2020-10-18T10:28:00.000Z</time>
      </trkpt>
      <trkpt lat="48.22268" lon="-3.40788">
        <ele>217</ele>
        <time>2020-10-18T10:28:01.000Z</time>
      </trkpt>
      <trkpt lat="48.22268" lon="-3.40788">
        <ele>217</ele>
        <time>2020-10-18T10:28:02.000Z</time>
      </trkpt>
      <trkpt lat="48.22268" lon="-3.40788">
        <ele>217</ele>
        <time>2020-10-18T10:28:03.000Z</time>
      </trkpt>
      <trkpt lat="48.22268" lon="-3.40788">
        <ele>217</ele>
        <time>2020-10-18T10:28:04.000Z</time>
      </trkpt>
      <trkpt lat="48.22268" lon="-3.40788">
        <ele>217</ele>
        <time>2020-10-18T10:28:05.000Z</time>
      </trkpt>
      <trkpt lat="48.22268" lon="-3.40788">
        <ele>217</ele>
        <time>2020-10-18T10:28:06.000Z</time>
      </trkpt>
      <trkpt lat="48.22268" lon="-3.40788">
        <ele>217</ele>
        <time>2020-10-18T10:28:07.000Z</time>
      </trkpt>
      <trkpt lat="48.22268" lon="-3.40788">
        <ele>217</ele>
        <time>2020-10-18T10:28:08.000Z</time>
      </trkpt>
      <trkpt lat="48.22268" lon="-3.40788">
        <ele>217</ele>
        <time>2020-10-18T10:28:09.000Z</time>
      </trkpt>
      <trkpt lat="48.22268" lon="-3.40788">
        <ele>217</ele>
        <time>2020-10-18T10:28:10.000Z</time>
      </trkpt>
      <trkpt lat="48.22268" lon="-3.40788">
        <ele>217</ele>
        <time>2020-10-18T10:28:11.000Z</time>
      </trkpt>
      <trkpt lat="48.22268" lon="-3.40787">
        <ele>217</ele>
        <time>2020-10-18T10:28:12.000Z</time>
      </trkpt>
      <trkpt lat="48.22268" lon="-3.40787">
        <ele>217</ele>
        <time>2020-10-18T10:28:13.000Z</time>
      </trkpt>
      <trkpt lat="48.22269" lon="-3.40788">
        <ele>217</ele>
        <time>2020-10-18T10:28:14.000Z</time>
      </trkpt>
      <trkpt lat="48.22269" lon="-3.40788">
        <ele>217</ele>
        <time>2020-10-18T10:28:15.000Z</time>
      </trkpt>
      <trkpt lat="48.22269" lon="-3.40788">
        <ele>217</ele>
        <time>2020-10-18T10:28:16.000Z</time>
      </trkpt>
      <trkpt lat="48.22269" lon="-3.40788">
        <ele>217</ele>
        <time>2020-10-18T10:28:17.000Z</time>
      </trkpt>
      <trkpt lat="48.22269" lon="-3.40787">
        <ele>217</ele>
        <time>2020-10-18T10:28:18.000Z</time>
      </trkpt>
      <trkpt lat="48.22269" lon="-3.40787">
        <ele>217</ele>
        <time>2020-10-18T10:28:19.000Z</time>
      </trkpt>
      <trkpt lat="48.22269" lon="-3.40787">
        <ele>217</ele>
        <time>2020-10-18T10:28:20.000Z</time>
      </trkpt>
      <trkpt lat="48.22269" lon="-3.40788">
        <ele>217</ele>
        <time>2020-10-18T10:28:21.000Z</time>
      </trkpt>
      <trkpt lat="48.22269" lon="-3.40788">
        <ele>217</ele>
        <time>2020-10-18T10:28:22.000Z</time>
      </trkpt>
      <trkpt lat="48.22269" lon="-3.40788">
        <ele>217</ele>
        <time>2020-10-18T10:28:23.000Z</time>
      </trkpt>
      <trkpt lat="48.22269" lon="-3.40788">
        <ele>217</ele>
        <time>2020-10-18T10:28:24.000Z</time>
      </trkpt>
      <trkpt lat="48.22269" lon="-3.40788">
        <ele>217</ele>
        <time>2020-10-18T10:28:25.000Z</time>
      </trkpt>
      <trkpt lat="48.22269" lon="-3.40788">
        <ele>217</ele>
        <time>2020-10-18T10:28:26.000Z</time>
      </trkpt>
      <trkpt lat="48.22269" lon="-3.40788">
        <ele>217</ele>
        <time>2020-10-18T10:28:27.000Z</time>
      </trkpt>
      <trkpt lat="48.22269" lon="-3.40788">
        <ele>217</ele>
        <time>2020-10-18T10:28:28.000Z</time>
      </trkpt>
      <trkpt lat="48.22269" lon="-3.40787">
        <ele>217</ele>
        <time>2020-10-18T10:28:29.000Z</time>
      </trkpt>
      <trkpt lat="48.22269" lon="-3.40787">
        <ele>217</ele>
        <time>2020-10-18T10:28:30.000Z</time>
      </trkpt>
      <trkpt lat="48.22269" lon="-3.40787">
        <ele>217</ele>
        <time>2020-10-18T10:28:31.000Z</time>
      </trkpt>
      <trkpt lat="48.22268" lon="-3.40787">
        <ele>217</ele>
        <time>2020-10-18T10:28:32.000Z</time>
      </trkpt>
      <trkpt lat="48.22268" lon="-3.40787">
        <ele>217</ele>
        <time>2020-10-18T10:28:33.000Z</time>
      </trkpt>
      <trkpt lat="48.22268" lon="-3.40787">
        <ele>217</ele>
        <time>2020-10-18T10:28:34.000Z</time>
      </trkpt>
      <trkpt lat="48.22268" lon="-3.40787">
        <ele>217</ele>
        <time>2020-10-18T10:28:35.000Z</time>
      </trkpt>
      <trkpt lat="48.22268" lon="-3.40787">
        <ele>217</ele>
        <time>2020-10-18T10:28:36.000Z</time>
      </trkpt>
      <trkpt lat="48.22268" lon="-3.40787">
        <ele>217</ele>
        <time>2020-10-18T10:28:37.000Z</time>
      </trkpt>
      <trkpt lat="48.22268" lon="-3.40787">
        <ele>217</ele>
        <time>2020-10-18T10:28:38.000Z</time>
      </trkpt>
      <trkpt lat="48.22268" lon="-3.40787">
        <ele>217</ele>
        <time>2020-10-18T10:28:39.000Z</time>
      </trkpt>
      <trkpt lat="48.22268" lon="-3.40787">
        <ele>217</ele>
        <time>2020-10-18T10:28:40.000Z</time>
      </trkpt>
      <trkpt lat="48.22268" lon="-3.40787">
        <ele>217</ele>
        <time>2020-10-18T10:28:41.000Z</time>
      </trkpt>
      <trkpt lat="48.22268" lon="-3.40787">
        <ele>217</ele>
        <time>2020-10-18T10:28:42.000Z</time>
      </trkpt>
      <trkpt lat="48.22268" lon="-3.40787">
        <ele>217</ele>
        <time>2020-10-18T10:28:43.000Z</time>
      </trkpt>
      <trkpt lat="48.22268" lon="-3.40787">
        <ele>217</ele>
        <time>2020-10-18T10:28:44.000Z</time>
      </trkpt>
      <trkpt lat="48.22268" lon="-3.40787">
        <ele>217</ele>
        <time>2020-10-18T10:28:45.000Z</time>
      </trkpt>
      <trkpt lat="48.22268" lon="-3.40787">
        <ele>217</ele>
        <time>2020-10-18T10:28:46.000Z</time>
      </trkpt>
      <trkpt lat="48.22268" lon="-3.40787">
        <ele>217</ele>
        <time>2020-10-18T10:28:47.000Z</time>
      </trkpt>
      <trkpt lat="48.22268" lon="-3.40787">
        <ele>217</ele>
        <time>2020-10-18T10:28:48.000Z</time>
      </trkpt>
      <trkpt lat="48.22268" lon="-3.40787">
        <ele>217</ele>
        <time>2020-10-18T10:28:49.000Z</time>
      </trkpt>
      <trkpt lat="48.22268" lon="-3.40787">
        <ele>217</ele>
        <time>2020-10-18T10:28:50.000Z</time>
      </trkpt>
      <trkpt lat="48.22268" lon="-3.40787">
        <ele>217</ele>
        <time>2020-10-18T10:28:51.000Z</time>
      </trkpt>
      <trkpt lat="48.22268" lon="-3.40787">
        <ele>217</ele>
        <time>2020-10-18T10:28:52.000Z</time>
      </trkpt>
      <trkpt lat="48.22268" lon="-3.40787">
        <ele>217</ele>
        <time>2020-10-18T10:28:53.000Z</time>
      </trkpt>
      <trkpt lat="48.22268" lon="-3.40787">
        <ele>217</ele>
        <time>2020-10-18T10:28:54.000Z</time>
      </trkpt>
      <trkpt lat="48.22269" lon="-3.40787">
        <ele>217</ele>
        <time>2020-10-18T10:28:55.000Z</time>
      </trkpt>
      <trkpt lat="48.2227" lon="-3.40786">
        <ele>216.80000305176</ele>
        <time>2020-10-18T10:28:56.000Z</time>
      </trkpt>
      <trkpt lat="48.2227" lon="-3.40786">
        <ele>216.80000305176</ele>
        <time>2020-10-18T10:28:57.000Z</time>
      </trkpt>
      <trkpt lat="48.2227" lon="-3.40786">
        <ele>216.80000305176</ele>
        <time>2020-10-18T10:28:58.000Z</time>
      </trkpt>
      <trkpt lat="48.2227" lon="-3.40786">
        <ele>216.80000305176</ele>
        <time>2020-10-18T10:28:59.000Z</time>
      </trkpt>
      <trkpt lat="48.2227" lon="-3.40786">
        <ele>216.80000305176</ele>
        <time>2020-10-18T10:29:00.000Z</time>
      </trkpt>
      <trkpt lat="48.2227" lon="-3.40786">
        <ele>216.80000305176</ele>
        <time>2020-10-18T10:29:01.000Z</time>
      </trkpt>
      <trkpt lat="48.2227" lon="-3.40786">
        <ele>216.80000305176</ele>
        <time>2020-10-18T10:29:02.000Z</time>
      </trkpt>
      <trkpt lat="48.2227" lon="-3.40786">
        <ele>216.80000305176</ele>
        <time>2020-10-18T10:29:03.000Z</time>
      </trkpt>
      <trkpt lat="48.2227" lon="-3.40787">
        <ele>216.80000305176</ele>
        <time>2020-10-18T10:29:04.000Z</time>
      </trkpt>
      <trkpt lat="48.2227" lon="-3.40787">
        <ele>216.80000305176</ele>
        <time>2020-10-18T10:29:05.000Z</time>
      </trkpt>
      <trkpt lat="48.2227" lon="-3.40787">
        <ele>216.80000305176</ele>
        <time>2020-10-18T10:29:06.000Z</time>
      </trkpt>
      <trkpt lat="48.2227" lon="-3.40787">
        <ele>216.80000305176</ele>
        <time>2020-10-18T10:29:07.000Z</time>
      </trkpt>
      <trkpt lat="48.2227" lon="-3.40787">
        <ele>216.80000305176</ele>
        <time>2020-10-18T10:29:08.000Z</time>
      </trkpt>
      <trkpt lat="48.2227" lon="-3.40787">
        <ele>216.80000305176</ele>
        <time>2020-10-18T10:29:09.000Z</time>
      </trkpt>
      <trkpt lat="48.2227" lon="-3.40787">
        <ele>216.80000305176</ele>
        <time>2020-10-18T10:29:10.000Z</time>
      </trkpt>
      <trkpt lat="48.2227" lon="-3.40788">
        <ele>216.80000305176</ele>
        <time>2020-10-18T10:29:11.000Z</time>
      </trkpt>
      <trkpt lat="48.2227" lon="-3.40788">
        <ele>216.80000305176</ele>
        <time>2020-10-18T10:29:12.000Z</time>
      </trkpt>
      <trkpt lat="48.2227" lon="-3.40788">
        <ele>216.80000305176</ele>
        <time>2020-10-18T10:29:13.000Z</time>
      </trkpt>
      <trkpt lat="48.2227" lon="-3.40788">
        <ele>216.80000305176</ele>
        <time>2020-10-18T10:29:14.000Z</time>
      </trkpt>
      <trkpt lat="48.2227" lon="-3.4079">
        <ele>217</ele>
        <time>2020-10-18T10:29:15.000Z</time>
      </trkpt>
      <trkpt lat="48.2227" lon="-3.4079">
        <ele>217</ele>
        <time>2020-10-18T10:29:16.000Z</time>
      </trkpt>
      <trkpt lat="48.22271" lon="-3.40789">
        <ele>216.80000305176</ele>
        <time>2020-10-18T10:29:17.000Z</time>
      </trkpt>
      <trkpt lat="48.22271" lon="-3.40789">
        <ele>216.80000305176</ele>
        <time>2020-10-18T10:29:18.000Z</time>
      </trkpt>
      <trkpt lat="48.22271" lon="-3.40789">
        <ele>216.80000305176</ele>
        <time>2020-10-18T10:29:19.000Z</time>
      </trkpt>
      <trkpt lat="48.22271" lon="-3.40789">
        <ele>216.80000305176</ele>
        <time>2020-10-18T10:29:20.000Z</time>
      </trkpt>
      <trkpt lat="48.22271" lon="-3.40791">
        <ele>216.80000305176</ele>
        <time>2020-10-18T10:29:21.000Z</time>
      </trkpt>
      <trkpt lat="48.22271" lon="-3.40792">
        <ele>217</ele>
        <time>2020-10-18T10:29:22.000Z</time>
      </trkpt>
      <trkpt lat="48.22271" lon="-3.40792">
        <ele>217</ele>
        <time>2020-10-18T10:29:23.000Z</time>
      </trkpt>
      <trkpt lat="48.22271" lon="-3.40794">
        <ele>217</ele>
        <time>2020-10-18T10:29:24.000Z</time>
      </trkpt>
      <trkpt lat="48.22271" lon="-3.40795">
        <ele>217</ele>
        <time>2020-10-18T10:29:25.000Z</time>
      </trkpt>
      <trkpt lat="48.22271" lon="-3.40795">
        <ele>217</ele>
        <time>2020-10-18T10:29:26.000Z</time>
      </trkpt>
      <trkpt lat="48.22271" lon="-3.40795">
        <ele>217</ele>
        <time>2020-10-18T10:29:27.000Z</time>
      </trkpt>
      <trkpt lat="48.22271" lon="-3.40795">
        <ele>217</ele>
        <time>2020-10-18T10:29:28.000Z</time>
      </trkpt>
      <trkpt lat="48.22271" lon="-3.40795">
        <ele>217</ele>
        <time>2020-10-18T10:29:29.000Z</time>
      </trkpt>
      <trkpt lat="48.22271" lon="-3.40795">
        <ele>217</ele>
        <time>2020-10-18T10:29:30.000Z</time>
      </trkpt>
      <trkpt lat="48.22271" lon="-3.40796">
        <ele>217</ele>
        <time>2020-10-18T10:29:31.000Z</time>
      </trkpt>
      <trkpt lat="48.22271" lon="-3.40796">
        <ele>217</ele>
        <time>2020-10-18T10:29:32.000Z</time>
      </trkpt>
      <trkpt lat="48.22271" lon="-3.40796">
        <ele>217</ele>
        <time>2020-10-18T10:29:33.000Z</time>
      </trkpt>
      <trkpt lat="48.22271" lon="-3.40797">
        <ele>217</ele>
        <time>2020-10-18T10:29:34.000Z</time>
      </trkpt>
      <trkpt lat="48.22271" lon="-3.40797">
        <ele>217</ele>
        <time>2020-10-18T10:29:35.000Z</time>
      </trkpt>
      <trkpt lat="48.22272" lon="-3.40798">
        <ele>217</ele>
        <time>2020-10-18T10:29:36.000Z</time>
      </trkpt>
      <trkpt lat="48.22273" lon="-3.40803">
        <ele>217</ele>
        <time>2020-10-18T10:29:37.000Z</time>
      </trkpt>
      <trkpt lat="48.22273" lon="-3.40803">
        <ele>217</ele>
        <time>2020-10-18T10:29:38.000Z</time>
      </trkpt>
      <trkpt lat="48.22274" lon="-3.40806">
        <ele>217</ele>
        <time>2020-10-18T10:29:39.000Z</time>
      </trkpt>
      <trkpt lat="48.22278" lon="-3.40813">
        <ele>216.80000305176</ele>
        <time>2020-10-18T10:29:40.000Z</time>
      </trkpt>
      <trkpt lat="48.22278" lon="-3.40813">
        <ele>216.80000305176</ele>
        <time>2020-10-18T10:29:41.000Z</time>
      </trkpt>
      <trkpt lat="48.22282" lon="-3.4082">
        <ele>216.60000610352</ele>
        <time>2020-10-18T10:29:42.000Z</time>
      </trkpt>
      <trkpt lat="48.22282" lon="-3.4082">
        <ele>216.60000610352</ele>
        <time>2020-10-18T10:29:43.000Z</time>
      </trkpt>
      <trkpt lat="48.22287" lon="-3.40829">
        <ele>216.39999389648</ele>
        <time>2020-10-18T10:29:44.000Z</time>
      </trkpt>
      <trkpt lat="48.22287" lon="-3.40829">
        <ele>216.39999389648</ele>
        <time>2020-10-18T10:29:45.000Z</time>
      </trkpt>
      <trkpt lat="48.22292" lon="-3.40839">
        <ele>216</ele>
        <time>2020-10-18T10:29:46.000Z</time>
      </trkpt>
      <trkpt lat="48.22292" lon="-3.40839">
        <ele>216</ele>
        <time>2020-10-18T10:29:47.000Z</time>
      </trkpt>
      <trkpt lat="48.22298" lon="-3.40851">
        <ele>215.39999389648</ele>
        <time>2020-10-18T10:29:48.000Z</time>
      </trkpt>
      <trkpt lat="48.22298" lon="-3.40851">
        <ele>215.39999389648</ele>
        <time>2020-10-18T10:29:49.000Z</time>
      </trkpt>
      <trkpt lat="48.22301" lon="-3.40857">
        <ele>215.19999694824</ele>
        <time>2020-10-18T10:29:50.000Z</time>
      </trkpt>
      <trkpt lat="48.22308" lon="-3.40869">
        <ele>214.80000305176</ele>
        <time>2020-10-18T10:29:51.000Z</time>
      </trkpt>
      <trkpt lat="48.22308" lon="-3.40869">
        <ele>214.80000305176</ele>
        <time>2020-10-18T10:29:52.000Z</time>
      </trkpt>
      <trkpt lat="48.22311" lon="-3.40876">
        <ele>214.39999389648</ele>
        <time>2020-10-18T10:29:53.000Z</time>
      </trkpt>
      <trkpt lat="48.22318" lon="-3.4089">
        <ele>214</ele>
        <time>2020-10-18T10:29:54.000Z</time>
      </trkpt>
      <trkpt lat="48.22318" lon="-3.4089">
        <ele>214</ele>
        <time>2020-10-18T10:29:55.000Z</time>
      </trkpt>
      <trkpt lat="48.22322" lon="-3.40898">
        <ele>213.60000610352</ele>
        <time>2020-10-18T10:29:56.000Z</time>
      </trkpt>
      <trkpt lat="48.2233" lon="-3.40912">
        <ele>213.19999694824</ele>
        <time>2020-10-18T10:29:57.000Z</time>
      </trkpt>
      <trkpt lat="48.2233" lon="-3.40912">
        <ele>213.19999694824</ele>
        <time>2020-10-18T10:29:58.000Z</time>
      </trkpt>
      <trkpt lat="48.22334" lon="-3.4092">
        <ele>212.80000305176</ele>
        <time>2020-10-18T10:29:59.000Z</time>
      </trkpt>
      <trkpt lat="48.22342" lon="-3.40935">
        <ele>212.39999389648</ele>
        <time>2020-10-18T10:30:00.000Z</time>
      </trkpt>
      <trkpt lat="48.22346" lon="-3.40943">
        <ele>212.39999389648</ele>
        <time>2020-10-18T10:30:01.000Z</time>
      </trkpt>
      <trkpt lat="48.22346" lon="-3.40943">
        <ele>212.39999389648</ele>
        <time>2020-10-18T10:30:02.000Z</time>
      </trkpt>
      <trkpt lat="48.22354" lon="-3.40959">
        <ele>212.80000305176</ele>
        <time>2020-10-18T10:30:03.000Z</time>
      </trkpt>
      <trkpt lat="48.22354" lon="-3.40959">
        <ele>212.80000305176</ele>
        <time>2020-10-18T10:30:04.000Z</time>
      </trkpt>
      <trkpt lat="48.22358" lon="-3.40967">
        <ele>213</ele>
        <time>2020-10-18T10:30:05.000Z</time>
      </trkpt>
      <trkpt lat="48.22367" lon="-3.40982">
        <ele>213.39999389648</ele>
        <time>2020-10-18T10:30:06.000Z</time>
      </trkpt>
      <trkpt lat="48.22367" lon="-3.40982">
        <ele>213.39999389648</ele>
        <time>2020-10-18T10:30:07.000Z</time>
      </trkpt>
      <trkpt lat="48.22371" lon="-3.4099">
        <ele>213.39999389648</ele>
        <time>2020-10-18T10:30:08.000Z</time>
      </trkpt>
      <trkpt lat="48.22379" lon="-3.41006">
        <ele>213.19999694824</ele>
        <time>2020-10-18T10:30:09.000Z</time>
      </trkpt>
      <trkpt lat="48.22379" lon="-3.41006">
        <ele>213.19999694824</ele>
        <time>2020-10-18T10:30:10.000Z</time>
      </trkpt>
      <trkpt lat="48.22383" lon="-3.41014">
        <ele>213.19999694824</ele>
        <time>2020-10-18T10:30:11.000Z</time>
      </trkpt>
      <trkpt lat="48.22391" lon="-3.41029">
        <ele>213</ele>
        <time>2020-10-18T10:30:12.000Z</time>
      </trkpt>
      <trkpt lat="48.22391" lon="-3.41029">
        <ele>213</ele>
        <time>2020-10-18T10:30:13.000Z</time>
      </trkpt>
      <trkpt lat="48.22396" lon="-3.41037">
        <ele>212.80000305176</ele>
        <time>2020-10-18T10:30:14.000Z</time>
      </trkpt>
      <trkpt lat="48.22404" lon="-3.41052">
        <ele>212.39999389648</ele>
        <time>2020-10-18T10:30:15.000Z</time>
      </trkpt>
      <trkpt lat="48.22404" lon="-3.41052">
        <ele>212.39999389648</ele>
        <time>2020-10-18T10:30:16.000Z</time>
      </trkpt>
      <trkpt lat="48.22412" lon="-3.41067">
        <ele>212</ele>
        <time>2020-10-18T10:30:17.000Z</time>
      </trkpt>
      <trkpt lat="48.22412" lon="-3.41067">
        <ele>212</ele>
        <time>2020-10-18T10:30:18.000Z</time>
      </trkpt>
      <trkpt lat="48.22416" lon="-3.41075">
        <ele>211.80000305176</ele>
        <time>2020-10-18T10:30:19.000Z</time>
      </trkpt>
      <trkpt lat="48.22424" lon="-3.4109">
        <ele>211.19999694824</ele>
        <time>2020-10-18T10:30:20.000Z</time>
      </trkpt>
      <trkpt lat="48.22428" lon="-3.41098">
        <ele>211</ele>
        <time>2020-10-18T10:30:21.000Z</time>
      </trkpt>
      <trkpt lat="48.22428" lon="-3.41098">
        <ele>211</ele>
        <time>2020-10-18T10:30:22.000Z</time>
      </trkpt>
      <trkpt lat="48.22432" lon="-3.41105">
        <ele>211.19999694824</ele>
        <time>2020-10-18T10:30:23.000Z</time>
      </trkpt>
      <trkpt lat="48.2244" lon="-3.4112">
        <ele>211.39999389648</ele>
        <time>2020-10-18T10:30:24.000Z</time>
      </trkpt>
      <trkpt lat="48.2244" lon="-3.4112">
        <ele>211.39999389648</ele>
        <time>2020-10-18T10:30:25.000Z</time>
      </trkpt>
      <trkpt lat="48.22444" lon="-3.41127">
        <ele>211.39999389648</ele>
        <time>2020-10-18T10:30:26.000Z</time>
      </trkpt>
      <trkpt lat="48.22452" lon="-3.41142">
        <ele>211.80000305176</ele>
        <time>2020-10-18T10:30:27.000Z</time>
      </trkpt>
      <trkpt lat="48.22452" lon="-3.41142">
        <ele>211.80000305176</ele>
        <time>2020-10-18T10:30:28.000Z</time>
      </trkpt>
      <trkpt lat="48.22456" lon="-3.41149">
        <ele>211.80000305176</ele>
        <time>2020-10-18T10:30:29.000Z</time>
      </trkpt>
      <trkpt lat="48.22464" lon="-3.41164">
        <ele>211.60000610352</ele>
        <time>2020-10-18T10:30:30.000Z</time>
      </trkpt>
      <trkpt lat="48.22464" lon="-3.41164">
        <ele>211.60000610352</ele>
        <time>2020-10-18T10:30:31.000Z</time>
      </trkpt>
      <trkpt lat="48.22473" lon="-3.41177">
        <ele>211.19999694824</ele>
        <time>2020-10-18T10:30:32.000Z</time>
      </trkpt>
      <trkpt lat="48.22473" lon="-3.41177">
        <ele>211.19999694824</ele>
        <time>2020-10-18T10:30:33.000Z</time>
      </trkpt>
      <trkpt lat="48.22482" lon="-3.4119">
        <ele>211.19999694824</ele>
        <time>2020-10-18T10:30:34.000Z</time>
      </trkpt>
      <trkpt lat="48.22482" lon="-3.4119">
        <ele>211.19999694824</ele>
        <time>2020-10-18T10:30:35.000Z</time>
      </trkpt>
      <trkpt lat="48.22487" lon="-3.41196">
        <ele>211.19999694824</ele>
        <time>2020-10-18T10:30:36.000Z</time>
      </trkpt>
      <trkpt lat="48.22496" lon="-3.4121">
        <ele>211</ele>
        <time>2020-10-18T10:30:37.000Z</time>
      </trkpt>
      <trkpt lat="48.22496" lon="-3.4121">
        <ele>211</ele>
        <time>2020-10-18T10:30:38.000Z</time>
      </trkpt>
      <trkpt lat="48.225" lon="-3.41216">
        <ele>210.80000305176</ele>
        <time>2020-10-18T10:30:39.000Z</time>
      </trkpt>
      <trkpt lat="48.2251" lon="-3.4123">
        <ele>210.39999389648</ele>
        <time>2020-10-18T10:30:40.000Z</time>
      </trkpt>
      <trkpt lat="48.22515" lon="-3.41237">
        <ele>210.19999694824</ele>
        <time>2020-10-18T10:30:41.000Z</time>
      </trkpt>
      <trkpt lat="48.22515" lon="-3.41237">
        <ele>210.19999694824</ele>
        <time>2020-10-18T10:30:42.000Z</time>
      </trkpt>
      <trkpt lat="48.2252" lon="-3.41244">
        <ele>210</ele>
        <time>2020-10-18T10:30:43.000Z</time>
      </trkpt>
      <trkpt lat="48.2253" lon="-3.41259">
        <ele>209.80000305176</ele>
        <time>2020-10-18T10:30:44.000Z</time>
      </trkpt>
      <trkpt lat="48.2253" lon="-3.41259">
        <ele>209.80000305176</ele>
        <time>2020-10-18T10:30:45.000Z</time>
      </trkpt>
      <trkpt lat="48.22535" lon="-3.41266">
        <ele>210</ele>
        <time>2020-10-18T10:30:46.000Z</time>
      </trkpt>
      <trkpt lat="48.2254" lon="-3.41274">
        <ele>209.80000305176</ele>
        <time>2020-10-18T10:30:47.000Z</time>
      </trkpt>
      <trkpt lat="48.22551" lon="-3.41289">
        <ele>209.39999389648</ele>
        <time>2020-10-18T10:30:48.000Z</time>
      </trkpt>
      <trkpt lat="48.22551" lon="-3.41289">
        <ele>209.39999389648</ele>
        <time>2020-10-18T10:30:49.000Z</time>
      </trkpt>
      <trkpt lat="48.22556" lon="-3.41297">
        <ele>209.19999694824</ele>
        <time>2020-10-18T10:30:50.000Z</time>
      </trkpt>
      <trkpt lat="48.22567" lon="-3.41313">
        <ele>208.60000610352</ele>
        <time>2020-10-18T10:30:51.000Z</time>
      </trkpt>
      <trkpt lat="48.22567" lon="-3.41313">
        <ele>208.60000610352</ele>
        <time>2020-10-18T10:30:52.000Z</time>
      </trkpt>
      <trkpt lat="48.22573" lon="-3.41321">
        <ele>208.39999389648</ele>
        <time>2020-10-18T10:30:53.000Z</time>
      </trkpt>
      <trkpt lat="48.22584" lon="-3.41337">
        <ele>207.60000610352</ele>
        <time>2020-10-18T10:30:54.000Z</time>
      </trkpt>
      <trkpt lat="48.22584" lon="-3.41337">
        <ele>207.60000610352</ele>
        <time>2020-10-18T10:30:55.000Z</time>
      </trkpt>
      <trkpt lat="48.2259" lon="-3.41346">
        <ele>207.39999389648</ele>
        <time>2020-10-18T10:30:56.000Z</time>
      </trkpt>
      <trkpt lat="48.22602" lon="-3.41363">
        <ele>207.39999389648</ele>
        <time>2020-10-18T10:30:57.000Z</time>
      </trkpt>
      <trkpt lat="48.22602" lon="-3.41363">
        <ele>207.39999389648</ele>
        <time>2020-10-18T10:30:58.000Z</time>
      </trkpt>
      <trkpt lat="48.22609" lon="-3.41373">
        <ele>207.60000610352</ele>
        <time>2020-10-18T10:30:59.000Z</time>
      </trkpt>
      <trkpt lat="48.22622" lon="-3.41392">
        <ele>208</ele>
        <time>2020-10-18T10:31:00.000Z</time>
      </trkpt>
      <trkpt lat="48.22622" lon="-3.41392">
        <ele>208</ele>
        <time>2020-10-18T10:31:01.000Z</time>
      </trkpt>
      <trkpt lat="48.22636" lon="-3.41412">
        <ele>207.39999389648</ele>
        <time>2020-10-18T10:31:02.000Z</time>
      </trkpt>
      <trkpt lat="48.22643" lon="-3.41422">
        <ele>206.60000610352</ele>
        <time>2020-10-18T10:31:03.000Z</time>
      </trkpt>
      <trkpt lat="48.22643" lon="-3.41422">
        <ele>206.60000610352</ele>
        <time>2020-10-18T10:31:04.000Z</time>
      </trkpt>
      <trkpt lat="48.2265" lon="-3.41433">
        <ele>206</ele>
        <time>2020-10-18T10:31:05.000Z</time>
      </trkpt>
      <trkpt lat="48.22665" lon="-3.41454">
        <ele>205</ele>
        <time>2020-10-18T10:31:06.000Z</time>
      </trkpt>
      <trkpt lat="48.22665" lon="-3.41454">
        <ele>205</ele>
        <time>2020-10-18T10:31:07.000Z</time>
      </trkpt>
      <trkpt lat="48.22673" lon="-3.41465">
        <ele>205</ele>
        <time>2020-10-18T10:31:08.000Z</time>
      </trkpt>
      <trkpt lat="48.22688" lon="-3.41488">
        <ele>204.60000610352</ele>
        <time>2020-10-18T10:31:09.000Z</time>
      </trkpt>
      <trkpt lat="48.22688" lon="-3.41488">
        <ele>204.60000610352</ele>
        <time>2020-10-18T10:31:10.000Z</time>
      </trkpt>
      <trkpt lat="48.22695" lon="-3.41499">
        <ele>204.19999694824</ele>
        <time>2020-10-18T10:31:11.000Z</time>
      </trkpt>
      <trkpt lat="48.22703" lon="-3.41511">
        <ele>203.19999694824</ele>
        <time>2020-10-18T10:31:12.000Z</time>
      </trkpt>
      <trkpt lat="48.22711" lon="-3.41522">
        <ele>202</ele>
        <time>2020-10-18T10:31:13.000Z</time>
      </trkpt>
      <trkpt lat="48.22727" lon="-3.41543">
        <ele>199.80000305176</ele>
        <time>2020-10-18T10:31:14.000Z</time>
      </trkpt>
      <trkpt lat="48.22727" lon="-3.41543">
        <ele>199.80000305176</ele>
        <time>2020-10-18T10:31:15.000Z</time>
      </trkpt>
      <trkpt lat="48.22735" lon="-3.41553">
        <ele>199.39999389648</ele>
        <time>2020-10-18T10:31:16.000Z</time>
      </trkpt>
      <trkpt lat="48.22749" lon="-3.41574">
        <ele>199</ele>
        <time>2020-10-18T10:31:17.000Z</time>
      </trkpt>
      <trkpt lat="48.22749" lon="-3.41574">
        <ele>199</ele>
        <time>2020-10-18T10:31:18.000Z</time>
      </trkpt>
      <trkpt lat="48.22755" lon="-3.41584">
        <ele>199</ele>
        <time>2020-10-18T10:31:19.000Z</time>
      </trkpt>
      <trkpt lat="48.22768" lon="-3.41604">
        <ele>198.39999389648</ele>
        <time>2020-10-18T10:31:20.000Z</time>
      </trkpt>
      <trkpt lat="48.22768" lon="-3.41604">
        <ele>198.39999389648</ele>
        <time>2020-10-18T10:31:21.000Z</time>
      </trkpt>
      <trkpt lat="48.22774" lon="-3.41613">
        <ele>197.60000610352</ele>
        <time>2020-10-18T10:31:22.000Z</time>
      </trkpt>
      <trkpt lat="48.22786" lon="-3.41631">
        <ele>196.39999389648</ele>
        <time>2020-10-18T10:31:23.000Z</time>
      </trkpt>
      <trkpt lat="48.22786" lon="-3.41631">
        <ele>196.39999389648</ele>
        <time>2020-10-18T10:31:24.000Z</time>
      </trkpt>
      <trkpt lat="48.22792" lon="-3.41639">
        <ele>195.60000610352</ele>
        <time>2020-10-18T10:31:25.000Z</time>
      </trkpt>
      <trkpt lat="48.22801" lon="-3.41654">
        <ele>194.80000305176</ele>
        <time>2020-10-18T10:31:26.000Z</time>
      </trkpt>
      <trkpt lat="48.22801" lon="-3.41654">
        <ele>194.80000305176</ele>
        <time>2020-10-18T10:31:27.000Z</time>
      </trkpt>
      <trkpt lat="48.22806" lon="-3.41661">
        <ele>194.60000610352</ele>
        <time>2020-10-18T10:31:28.000Z</time>
      </trkpt>
      <trkpt lat="48.22816" lon="-3.41669">
        <ele>194</ele>
        <time>2020-10-18T10:31:29.000Z</time>
      </trkpt>
      <trkpt lat="48.22816" lon="-3.41669">
        <ele>194</ele>
        <time>2020-10-18T10:31:30.000Z</time>
      </trkpt>
      <trkpt lat="48.22821" lon="-3.41671">
        <ele>193.60000610352</ele>
        <time>2020-10-18T10:31:31.000Z</time>
      </trkpt>
      <trkpt lat="48.22832" lon="-3.41669">
        <ele>192.80000305176</ele>
        <time>2020-10-18T10:31:32.000Z</time>
      </trkpt>
      <trkpt lat="48.22832" lon="-3.41669">
        <ele>192.80000305176</ele>
        <time>2020-10-18T10:31:33.000Z</time>
      </trkpt>
      <trkpt lat="48.22836" lon="-3.41666">
        <ele>192.39999389648</ele>
        <time>2020-10-18T10:31:34.000Z</time>
      </trkpt>
      <trkpt lat="48.22844" lon="-3.41654">
        <ele>191.80000305176</ele>
        <time>2020-10-18T10:31:35.000Z</time>
      </trkpt>
      <trkpt lat="48.22844" lon="-3.41654">
        <ele>191.80000305176</ele>
        <time>2020-10-18T10:31:36.000Z</time>
      </trkpt>
      <trkpt lat="48.22848" lon="-3.41649">
        <ele>191.60000610352</ele>
        <time>2020-10-18T10:31:37.000Z</time>
      </trkpt>
      <trkpt lat="48.22857" lon="-3.41639">
        <ele>191.19999694824</ele>
        <time>2020-10-18T10:31:38.000Z</time>
      </trkpt>
      <trkpt lat="48.22857" lon="-3.41639">
        <ele>191.19999694824</ele>
        <time>2020-10-18T10:31:39.000Z</time>
      </trkpt>
      <trkpt lat="48.22861" lon="-3.41634">
        <ele>191</ele>
        <time>2020-10-18T10:31:40.000Z</time>
      </trkpt>
      <trkpt lat="48.2287" lon="-3.41624">
        <ele>190.80000305176</ele>
        <time>2020-10-18T10:31:41.000Z</time>
      </trkpt>
      <trkpt lat="48.2287" lon="-3.41624">
        <ele>190.80000305176</ele>
        <time>2020-10-18T10:31:42.000Z</time>
      </trkpt>
      <trkpt lat="48.22875" lon="-3.41619">
        <ele>190.60000610352</ele>
        <time>2020-10-18T10:31:43.000Z</time>
      </trkpt>
      <trkpt lat="48.22886" lon="-3.41611">
        <ele>190.19999694824</ele>
        <time>2020-10-18T10:31:44.000Z</time>
      </trkpt>
      <trkpt lat="48.22886" lon="-3.41611">
        <ele>190.19999694824</ele>
        <time>2020-10-18T10:31:45.000Z</time>
      </trkpt>
      <trkpt lat="48.22898" lon="-3.41603">
        <ele>189.80000305176</ele>
        <time>2020-10-18T10:31:46.000Z</time>
      </trkpt>
      <trkpt lat="48.22898" lon="-3.41603">
        <ele>189.80000305176</ele>
        <time>2020-10-18T10:31:47.000Z</time>
      </trkpt>
      <trkpt lat="48.22911" lon="-3.41597">
        <ele>189.39999389648</ele>
        <time>2020-10-18T10:31:48.000Z</time>
      </trkpt>
      <trkpt lat="48.22911" lon="-3.41597">
        <ele>189.39999389648</ele>
        <time>2020-10-18T10:31:49.000Z</time>
      </trkpt>
      <trkpt lat="48.2292" lon="-3.41593">
        <ele>189</ele>
        <time>2020-10-18T10:31:50.000Z</time>
      </trkpt>
      <trkpt lat="48.22935" lon="-3.41586">
        <ele>188.60000610352</ele>
        <time>2020-10-18T10:31:51.000Z</time>
      </trkpt>
      <trkpt lat="48.22935" lon="-3.41586">
        <ele>188.60000610352</ele>
        <time>2020-10-18T10:31:52.000Z</time>
      </trkpt>
      <trkpt lat="48.22942" lon="-3.41583">
        <ele>188.39999389648</ele>
        <time>2020-10-18T10:31:53.000Z</time>
      </trkpt>
      <trkpt lat="48.22957" lon="-3.41577">
        <ele>187.80000305176</ele>
        <time>2020-10-18T10:31:54.000Z</time>
      </trkpt>
      <trkpt lat="48.22957" lon="-3.41577">
        <ele>187.80000305176</ele>
        <time>2020-10-18T10:31:55.000Z</time>
      </trkpt>
      <trkpt lat="48.22964" lon="-3.41574">
        <ele>187.39999389648</ele>
        <time>2020-10-18T10:31:56.000Z</time>
      </trkpt>
      <trkpt lat="48.22978" lon="-3.41568">
        <ele>186.80000305176</ele>
        <time>2020-10-18T10:31:57.000Z</time>
      </trkpt>
      <trkpt lat="48.22978" lon="-3.41568">
        <ele>186.80000305176</ele>
        <time>2020-10-18T10:31:58.000Z</time>
      </trkpt>
      <trkpt lat="48.22985" lon="-3.41565">
        <ele>186.60000610352</ele>
        <time>2020-10-18T10:31:59.000Z</time>
      </trkpt>
      <trkpt lat="48.23" lon="-3.41558">
        <ele>186</ele>
        <time>2020-10-18T10:32:00.000Z</time>
      </trkpt>
      <trkpt lat="48.23" lon="-3.41558">
        <ele>186</ele>
        <time>2020-10-18T10:32:01.000Z</time>
      </trkpt>
      <trkpt lat="48.23007" lon="-3.41555">
        <ele>185.60000610352</ele>
        <time>2020-10-18T10:32:02.000Z</time>
      </trkpt>
      <trkpt lat="48.23021" lon="-3.41548">
        <ele>185.19999694824</ele>
        <time>2020-10-18T10:32:03.000Z</time>
      </trkpt>
      <trkpt lat="48.23021" lon="-3.41548">
        <ele>185.19999694824</ele>
        <time>2020-10-18T10:32:04.000Z</time>
      </trkpt>
      <trkpt lat="48.23029" lon="-3.41545">
        <ele>185</ele>
        <time>2020-10-18T10:32:05.000Z</time>
      </trkpt>
      <trkpt lat="48.23043" lon="-3.41538">
        <ele>184.60000610352</ele>
        <time>2020-10-18T10:32:06.000Z</time>
      </trkpt>
      <trkpt lat="48.23043" lon="-3.41538">
        <ele>184.60000610352</ele>
        <time>2020-10-18T10:32:07.000Z</time>
      </trkpt>
      <trkpt lat="48.2305" lon="-3.41535">
        <ele>184.39999389648</ele>
        <time>2020-10-18T10:32:08.000Z</time>
      </trkpt>
      <trkpt lat="48.23064" lon="-3.41529">
        <ele>184</ele>
        <time>2020-10-18T10:32:09.000Z</time>
      </trkpt>
      <trkpt lat="48.23064" lon="-3.41529">
        <ele>184</ele>
        <time>2020-10-18T10:32:10.000Z</time>
      </trkpt>
      <trkpt lat="48.23071" lon="-3.41526">
        <ele>183.80000305176</ele>
        <time>2020-10-18T10:32:11.000Z</time>
      </trkpt>
      <trkpt lat="48.23085" lon="-3.41519">
        <ele>183.39999389648</ele>
        <time>2020-10-18T10:32:12.000Z</time>
      </trkpt>
      <trkpt lat="48.23085" lon="-3.41519">
        <ele>183.39999389648</ele>
        <time>2020-10-18T10:32:13.000Z</time>
      </trkpt>
      <trkpt lat="48.23092" lon="-3.41516">
        <ele>183.19999694824</ele>
        <time>2020-10-18T10:32:14.000Z</time>
      </trkpt>
      <trkpt lat="48.23106" lon="-3.41512">
        <ele>182.80000305176</ele>
        <time>2020-10-18T10:32:15.000Z</time>
      </trkpt>
      <trkpt lat="48.23106" lon="-3.41512">
        <ele>182.80000305176</ele>
        <time>2020-10-18T10:32:16.000Z</time>
      </trkpt>
      <trkpt lat="48.23114" lon="-3.4151">
        <ele>182.80000305176</ele>
        <time>2020-10-18T10:32:17.000Z</time>
      </trkpt>
      <trkpt lat="48.23129" lon="-3.41506">
        <ele>182.39999389648</ele>
        <time>2020-10-18T10:32:18.000Z</time>
      </trkpt>
      <trkpt lat="48.23137" lon="-3.41504">
        <ele>182.39999389648</ele>
        <time>2020-10-18T10:32:19.000Z</time>
      </trkpt>
      <trkpt lat="48.23137" lon="-3.41504">
        <ele>182.39999389648</ele>
        <time>2020-10-18T10:32:20.000Z</time>
      </trkpt>
      <trkpt lat="48.23145" lon="-3.41502">
        <ele>182.19999694824</ele>
        <time>2020-10-18T10:32:21.000Z</time>
      </trkpt>
      <trkpt lat="48.2316" lon="-3.41498">
        <ele>182</ele>
        <time>2020-10-18T10:32:22.000Z</time>
      </trkpt>
      <trkpt lat="48.2316" lon="-3.41498">
        <ele>182</ele>
        <time>2020-10-18T10:32:23.000Z</time>
      </trkpt>
      <trkpt lat="48.23168" lon="-3.41496">
        <ele>182</ele>
        <time>2020-10-18T10:32:24.000Z</time>
      </trkpt>
      <trkpt lat="48.23183" lon="-3.41493">
        <ele>181.60000610352</ele>
        <time>2020-10-18T10:32:25.000Z</time>
      </trkpt>
      <trkpt lat="48.23183" lon="-3.41493">
        <ele>181.60000610352</ele>
        <time>2020-10-18T10:32:26.000Z</time>
      </trkpt>
      <trkpt lat="48.23191" lon="-3.41491">
        <ele>181.60000610352</ele>
        <time>2020-10-18T10:32:27.000Z</time>
      </trkpt>
      <trkpt lat="48.23205" lon="-3.41487">
        <ele>181.39999389648</ele>
        <time>2020-10-18T10:32:28.000Z</time>
      </trkpt>
      <trkpt lat="48.23205" lon="-3.41487">
        <ele>181.39999389648</ele>
        <time>2020-10-18T10:32:29.000Z</time>
      </trkpt>
      <trkpt lat="48.23213" lon="-3.41485">
        <ele>181.19999694824</ele>
        <time>2020-10-18T10:32:30.000Z</time>
      </trkpt>
      <trkpt lat="48.23226" lon="-3.41482">
        <ele>180.80000305176</ele>
        <time>2020-10-18T10:32:31.000Z</time>
      </trkpt>
      <trkpt lat="48.23226" lon="-3.41482">
        <ele>180.80000305176</ele>
        <time>2020-10-18T10:32:32.000Z</time>
      </trkpt>
      <trkpt lat="48.2324" lon="-3.41479">
        <ele>180.60000610352</ele>
        <time>2020-10-18T10:32:33.000Z</time>
      </trkpt>
      <trkpt lat="48.2324" lon="-3.41479">
        <ele>180.60000610352</ele>
        <time>2020-10-18T10:32:34.000Z</time>
      </trkpt>
      <trkpt lat="48.23247" lon="-3.41476">
        <ele>180.39999389648</ele>
        <time>2020-10-18T10:32:35.000Z</time>
      </trkpt>
      <trkpt lat="48.2326" lon="-3.41471">
        <ele>180</ele>
        <time>2020-10-18T10:32:36.000Z</time>
      </trkpt>
      <trkpt lat="48.2326" lon="-3.41471">
        <ele>180</ele>
        <time>2020-10-18T10:32:37.000Z</time>
      </trkpt>
      <trkpt lat="48.23267" lon="-3.41468">
        <ele>179.80000305176</ele>
        <time>2020-10-18T10:32:38.000Z</time>
      </trkpt>
      <trkpt lat="48.2328" lon="-3.41461">
        <ele>179.60000610352</ele>
        <time>2020-10-18T10:32:39.000Z</time>
      </trkpt>
      <trkpt lat="48.2328" lon="-3.41461">
        <ele>179.60000610352</ele>
        <time>2020-10-18T10:32:40.000Z</time>
      </trkpt>
      <trkpt lat="48.23287" lon="-3.41457">
        <ele>179.39999389648</ele>
        <time>2020-10-18T10:32:41.000Z</time>
      </trkpt>
      <trkpt lat="48.23299" lon="-3.41448">
        <ele>179.19999694824</ele>
        <time>2020-10-18T10:32:42.000Z</time>
      </trkpt>
      <trkpt lat="48.23299" lon="-3.41448">
        <ele>179.19999694824</ele>
        <time>2020-10-18T10:32:43.000Z</time>
      </trkpt>
      <trkpt lat="48.23304" lon="-3.41443">
        <ele>179</ele>
        <time>2020-10-18T10:32:44.000Z</time>
      </trkpt>
      <trkpt lat="48.23312" lon="-3.41431">
        <ele>178.80000305176</ele>
        <time>2020-10-18T10:32:45.000Z</time>
      </trkpt>
      <trkpt lat="48.23312" lon="-3.41431">
        <ele>178.80000305176</ele>
        <time>2020-10-18T10:32:46.000Z</time>
      </trkpt>
      <trkpt lat="48.23318" lon="-3.41419">
        <ele>178.80000305176</ele>
        <time>2020-10-18T10:32:47.000Z</time>
      </trkpt>
      <trkpt lat="48.23318" lon="-3.41419">
        <ele>178.80000305176</ele>
        <time>2020-10-18T10:32:48.000Z</time>
      </trkpt>
      <trkpt lat="48.2332" lon="-3.41411">
        <ele>178.80000305176</ele>
        <time>2020-10-18T10:32:49.000Z</time>
      </trkpt>
      <trkpt lat="48.23324" lon="-3.41398">
        <ele>179</ele>
        <time>2020-10-18T10:32:50.000Z</time>
      </trkpt>
      <trkpt lat="48.23324" lon="-3.41398">
        <ele>179</ele>
        <time>2020-10-18T10:32:51.000Z</time>
      </trkpt>
      <trkpt lat="48.23326" lon="-3.41392">
        <ele>179</ele>
        <time>2020-10-18T10:32:52.000Z</time>
      </trkpt>
      <trkpt lat="48.23331" lon="-3.41379">
        <ele>179</ele>
        <time>2020-10-18T10:32:53.000Z</time>
      </trkpt>
      <trkpt lat="48.23331" lon="-3.41379">
        <ele>179</ele>
        <time>2020-10-18T10:32:54.000Z</time>
      </trkpt>
      <trkpt lat="48.23333" lon="-3.41373">
        <ele>179</ele>
        <time>2020-10-18T10:32:55.000Z</time>
      </trkpt>
      <trkpt lat="48.23338" lon="-3.4136">
        <ele>179</ele>
        <time>2020-10-18T10:32:56.000Z</time>
      </trkpt>
      <trkpt lat="48.23338" lon="-3.4136">
        <ele>179</ele>
        <time>2020-10-18T10:32:57.000Z</time>
      </trkpt>
      <trkpt lat="48.2334" lon="-3.41353">
        <ele>179</ele>
        <time>2020-10-18T10:32:58.000Z</time>
      </trkpt>
      <trkpt lat="48.23346" lon="-3.4134">
        <ele>179.39999389648</ele>
        <time>2020-10-18T10:32:59.000Z</time>
      </trkpt>
      <trkpt lat="48.23346" lon="-3.4134">
        <ele>179.39999389648</ele>
        <time>2020-10-18T10:33:00.000Z</time>
      </trkpt>
      <trkpt lat="48.23349" lon="-3.41334">
        <ele>179.60000610352</ele>
        <time>2020-10-18T10:33:01.000Z</time>
      </trkpt>
      <trkpt lat="48.23356" lon="-3.41325">
        <ele>180</ele>
        <time>2020-10-18T10:33:02.000Z</time>
      </trkpt>
      <trkpt lat="48.23356" lon="-3.41325">
        <ele>180</ele>
        <time>2020-10-18T10:33:03.000Z</time>
      </trkpt>
      <trkpt lat="48.2336" lon="-3.41321">
        <ele>180.19999694824</ele>
        <time>2020-10-18T10:33:04.000Z</time>
      </trkpt>
      <trkpt lat="48.23368" lon="-3.41317">
        <ele>180.19999694824</ele>
        <time>2020-10-18T10:33:05.000Z</time>
      </trkpt>
      <trkpt lat="48.23368" lon="-3.41317">
        <ele>180.19999694824</ele>
        <time>2020-10-18T10:33:06.000Z</time>
      </trkpt>
      <trkpt lat="48.23373" lon="-3.41316">
        <ele>180.19999694824</ele>
        <time>2020-10-18T10:33:07.000Z</time>
      </trkpt>
      <trkpt lat="48.23383" lon="-3.41316">
        <ele>180</ele>
        <time>2020-10-18T10:33:08.000Z</time>
      </trkpt>
      <trkpt lat="48.23383" lon="-3.41316">
        <ele>180</ele>
        <time>2020-10-18T10:33:09.000Z</time>
      </trkpt>
      <trkpt lat="48.23388" lon="-3.41316">
        <ele>180</ele>
        <time>2020-10-18T10:33:10.000Z</time>
      </trkpt>
      <trkpt lat="48.23399" lon="-3.41318">
        <ele>179.60000610352</ele>
        <time>2020-10-18T10:33:11.000Z</time>
      </trkpt>
      <trkpt lat="48.23399" lon="-3.41318">
        <ele>179.60000610352</ele>
        <time>2020-10-18T10:33:12.000Z</time>
      </trkpt>
      <trkpt lat="48.23405" lon="-3.4132">
        <ele>179.39999389648</ele>
        <time>2020-10-18T10:33:13.000Z</time>
      </trkpt>
      <trkpt lat="48.23418" lon="-3.41324">
        <ele>178.80000305176</ele>
        <time>2020-10-18T10:33:14.000Z</time>
      </trkpt>
      <trkpt lat="48.23418" lon="-3.41324">
        <ele>178.80000305176</ele>
        <time>2020-10-18T10:33:15.000Z</time>
      </trkpt>
      <trkpt lat="48.23425" lon="-3.41326">
        <ele>178.39999389648</ele>
        <time>2020-10-18T10:33:16.000Z</time>
      </trkpt>
      <trkpt lat="48.23439" lon="-3.41332">
        <ele>177.60000610352</ele>
        <time>2020-10-18T10:33:17.000Z</time>
      </trkpt>
      <trkpt lat="48.23446" lon="-3.41334">
        <ele>177</ele>
        <time>2020-10-18T10:33:18.000Z</time>
      </trkpt>
      <trkpt lat="48.23446" lon="-3.41334">
        <ele>177</ele>
        <time>2020-10-18T10:33:19.000Z</time>
      </trkpt>
      <trkpt lat="48.23453" lon="-3.41337">
        <ele>176.60000610352</ele>
        <time>2020-10-18T10:33:20.000Z</time>
      </trkpt>
      <trkpt lat="48.23467" lon="-3.41343">
        <ele>175.80000305176</ele>
        <time>2020-10-18T10:33:21.000Z</time>
      </trkpt>
      <trkpt lat="48.23467" lon="-3.41343">
        <ele>175.80000305176</ele>
        <time>2020-10-18T10:33:22.000Z</time>
      </trkpt>
      <trkpt lat="48.23474" lon="-3.41346">
        <ele>175.39999389648</ele>
        <time>2020-10-18T10:33:23.000Z</time>
      </trkpt>
      <trkpt lat="48.23488" lon="-3.41352">
        <ele>174.80000305176</ele>
        <time>2020-10-18T10:33:24.000Z</time>
      </trkpt>
      <trkpt lat="48.23488" lon="-3.41352">
        <ele>174.80000305176</ele>
        <time>2020-10-18T10:33:25.000Z</time>
      </trkpt>
      <trkpt lat="48.23495" lon="-3.41355">
        <ele>174.39999389648</ele>
        <time>2020-10-18T10:33:26.000Z</time>
      </trkpt>
      <trkpt lat="48.23509" lon="-3.41361">
        <ele>173.60000610352</ele>
        <time>2020-10-18T10:33:27.000Z</time>
      </trkpt>
      <trkpt lat="48.23509" lon="-3.41361">
        <ele>173.60000610352</ele>
        <time>2020-10-18T10:33:28.000Z</time>
      </trkpt>
      <trkpt lat="48.23516" lon="-3.41364">
        <ele>173.39999389648</ele>
        <time>2020-10-18T10:33:29.000Z</time>
      </trkpt>
      <trkpt lat="48.2353" lon="-3.4137">
        <ele>173</ele>
        <time>2020-10-18T10:33:30.000Z</time>
      </trkpt>
      <trkpt lat="48.2353" lon="-3.4137">
        <ele>173</ele>
        <time>2020-10-18T10:33:31.000Z</time>
      </trkpt>
      <trkpt lat="48.23537" lon="-3.41374">
        <ele>172.80000305176</ele>
        <time>2020-10-18T10:33:32.000Z</time>
      </trkpt>
      <trkpt lat="48.23551" lon="-3.41381">
        <ele>172.39999389648</ele>
        <time>2020-10-18T10:33:33.000Z</time>
      </trkpt>
      <trkpt lat="48.23551" lon="-3.41381">
        <ele>172.39999389648</ele>
        <time>2020-10-18T10:33:34.000Z</time>
      </trkpt>
      <trkpt lat="48.23557" lon="-3.41385">
        <ele>172.19999694824</ele>
        <time>2020-10-18T10:33:35.000Z</time>
      </trkpt>
      <trkpt lat="48.2357" lon="-3.41395">
        <ele>171.80000305176</ele>
        <time>2020-10-18T10:33:36.000Z</time>
      </trkpt>
      <trkpt lat="48.23575" lon="-3.414">
        <ele>171.80000305176</ele>
        <time>2020-10-18T10:33:37.000Z</time>
      </trkpt>
      <trkpt lat="48.23575" lon="-3.414">
        <ele>171.80000305176</ele>
        <time>2020-10-18T10:33:38.000Z</time>
      </trkpt>
      <trkpt lat="48.23581" lon="-3.41406">
        <ele>171.60000610352</ele>
        <time>2020-10-18T10:33:39.000Z</time>
      </trkpt>
      <trkpt lat="48.23591" lon="-3.41419">
        <ele>171.39999389648</ele>
        <time>2020-10-18T10:33:40.000Z</time>
      </trkpt>
      <trkpt lat="48.23591" lon="-3.41419">
        <ele>171.39999389648</ele>
        <time>2020-10-18T10:33:41.000Z</time>
      </trkpt>
      <trkpt lat="48.23596" lon="-3.41426">
        <ele>171.19999694824</ele>
        <time>2020-10-18T10:33:42.000Z</time>
      </trkpt>
      <trkpt lat="48.23601" lon="-3.41433">
        <ele>171.19999694824</ele>
        <time>2020-10-18T10:33:43.000Z</time>
      </trkpt>
      <trkpt lat="48.23605" lon="-3.4144">
        <ele>171.19999694824</ele>
        <time>2020-10-18T10:33:44.000Z</time>
      </trkpt>
      <trkpt lat="48.23613" lon="-3.41456">
        <ele>171</ele>
        <time>2020-10-18T10:33:45.000Z</time>
      </trkpt>
      <trkpt lat="48.23617" lon="-3.41464">
        <ele>170.80000305176</ele>
        <time>2020-10-18T10:33:46.000Z</time>
      </trkpt>
      <trkpt lat="48.23621" lon="-3.41472">
        <ele>170.80000305176</ele>
        <time>2020-10-18T10:33:47.000Z</time>
      </trkpt>
      <trkpt lat="48.23621" lon="-3.41472">
        <ele>170.80000305176</ele>
        <time>2020-10-18T10:33:48.000Z</time>
      </trkpt>
      <trkpt lat="48.23625" lon="-3.4148">
        <ele>170.60000610352</ele>
        <time>2020-10-18T10:33:49.000Z</time>
      </trkpt>
      <trkpt lat="48.23633" lon="-3.41495">
        <ele>170.39999389648</ele>
        <time>2020-10-18T10:33:50.000Z</time>
      </trkpt>
      <trkpt lat="48.23633" lon="-3.41495">
        <ele>170.39999389648</ele>
        <time>2020-10-18T10:33:51.000Z</time>
      </trkpt>
      <trkpt lat="48.23638" lon="-3.41504">
        <ele>170</ele>
        <time>2020-10-18T10:33:52.000Z</time>
      </trkpt>
      <trkpt lat="48.23646" lon="-3.4152">
        <ele>169.80000305176</ele>
        <time>2020-10-18T10:33:53.000Z</time>
      </trkpt>
      <trkpt lat="48.23646" lon="-3.4152">
        <ele>169.80000305176</ele>
        <time>2020-10-18T10:33:54.000Z</time>
      </trkpt>
      <trkpt lat="48.2365" lon="-3.41529">
        <ele>170</ele>
        <time>2020-10-18T10:33:55.000Z</time>
      </trkpt>
      <trkpt lat="48.2366" lon="-3.41545">
        <ele>170.19999694824</ele>
        <time>2020-10-18T10:33:56.000Z</time>
      </trkpt>
      <trkpt lat="48.23664" lon="-3.41553">
        <ele>170.19999694824</ele>
        <time>2020-10-18T10:33:57.000Z</time>
      </trkpt>
      <trkpt lat="48.23664" lon="-3.41553">
        <ele>170.19999694824</ele>
        <time>2020-10-18T10:33:58.000Z</time>
      </trkpt>
      <trkpt lat="48.23669" lon="-3.41561">
        <ele>170.19999694824</ele>
        <time>2020-10-18T10:33:59.000Z</time>
      </trkpt>
      <trkpt lat="48.23678" lon="-3.41576">
        <ele>170.19999694824</ele>
        <time>2020-10-18T10:34:00.000Z</time>
      </trkpt>
      <trkpt lat="48.23678" lon="-3.41576">
        <ele>170.19999694824</ele>
        <time>2020-10-18T10:34:01.000Z</time>
      </trkpt>
      <trkpt lat="48.23684" lon="-3.41583">
        <ele>170.39999389648</ele>
        <time>2020-10-18T10:34:02.000Z</time>
      </trkpt>
      <trkpt lat="48.23694" lon="-3.41596">
        <ele>170.80000305176</ele>
        <time>2020-10-18T10:34:03.000Z</time>
      </trkpt>
      <trkpt lat="48.23694" lon="-3.41596">
        <ele>170.80000305176</ele>
        <time>2020-10-18T10:34:04.000Z</time>
      </trkpt>
      <trkpt lat="48.23699" lon="-3.41601">
        <ele>171.19999694824</ele>
        <time>2020-10-18T10:34:05.000Z</time>
      </trkpt>
      <trkpt lat="48.2371" lon="-3.41609">
        <ele>171.80000305176</ele>
        <time>2020-10-18T10:34:06.000Z</time>
      </trkpt>
      <trkpt lat="48.2371" lon="-3.41609">
        <ele>171.80000305176</ele>
        <time>2020-10-18T10:34:07.000Z</time>
      </trkpt>
      <trkpt lat="48.23716" lon="-3.41612">
        <ele>172.19999694824</ele>
        <time>2020-10-18T10:34:08.000Z</time>
      </trkpt>
      <trkpt lat="48.23727" lon="-3.41617">
        <ele>173</ele>
        <time>2020-10-18T10:34:09.000Z</time>
      </trkpt>
      <trkpt lat="48.23727" lon="-3.41617">
        <ele>173</ele>
        <time>2020-10-18T10:34:10.000Z</time>
      </trkpt>
      <trkpt lat="48.23733" lon="-3.41618">
        <ele>173.19999694824</ele>
        <time>2020-10-18T10:34:11.000Z</time>
      </trkpt>
      <trkpt lat="48.23743" lon="-3.41618">
        <ele>173.80000305176</ele>
        <time>2020-10-18T10:34:12.000Z</time>
      </trkpt>
      <trkpt lat="48.23743" lon="-3.41618">
        <ele>173.80000305176</ele>
        <time>2020-10-18T10:34:13.000Z</time>
      </trkpt>
      <trkpt lat="48.23748" lon="-3.41616">
        <ele>174</ele>
        <time>2020-10-18T10:34:14.000Z</time>
      </trkpt>
      <trkpt lat="48.23756" lon="-3.41613">
        <ele>174.60000610352</ele>
        <time>2020-10-18T10:34:15.000Z</time>
      </trkpt>
      <trkpt lat="48.23756" lon="-3.41613">
        <ele>174.60000610352</ele>
        <time>2020-10-18T10:34:16.000Z</time>
      </trkpt>
      <trkpt lat="48.23759" lon="-3.41612">
        <ele>174.60000610352</ele>
        <time>2020-10-18T10:34:17.000Z</time>
      </trkpt>
      <trkpt lat="48.23765" lon="-3.4161">
        <ele>175</ele>
        <time>2020-10-18T10:34:18.000Z</time>
      </trkpt>
      <trkpt lat="48.23765" lon="-3.4161">
        <ele>175</ele>
        <time>2020-10-18T10:34:19.000Z</time>
      </trkpt>
      <trkpt lat="48.23768" lon="-3.41609">
        <ele>175.39999389648</ele>
        <time>2020-10-18T10:34:20.000Z</time>
      </trkpt>
      <trkpt lat="48.23773" lon="-3.41605">
        <ele>175.80000305176</ele>
        <time>2020-10-18T10:34:21.000Z</time>
      </trkpt>
      <trkpt lat="48.23773" lon="-3.41605">
        <ele>175.80000305176</ele>
        <time>2020-10-18T10:34:22.000Z</time>
      </trkpt>
      <trkpt lat="48.23775" lon="-3.41604">
        <ele>176</ele>
        <time>2020-10-18T10:34:23.000Z</time>
      </trkpt>
      <trkpt lat="48.23779" lon="-3.41602">
        <ele>176.39999389648</ele>
        <time>2020-10-18T10:34:24.000Z</time>
      </trkpt>
      <trkpt lat="48.23779" lon="-3.41602">
        <ele>176.39999389648</ele>
        <time>2020-10-18T10:34:25.000Z</time>
      </trkpt>
      <trkpt lat="48.23781" lon="-3.41601">
        <ele>176.60000610352</ele>
        <time>2020-10-18T10:34:26.000Z</time>
      </trkpt>
      <trkpt lat="48.23785" lon="-3.416">
        <ele>176.80000305176</ele>
        <time>2020-10-18T10:34:27.000Z</time>
      </trkpt>
      <trkpt lat="48.23785" lon="-3.416">
        <ele>176.80000305176</ele>
        <time>2020-10-18T10:34:28.000Z</time>
      </trkpt>
      <trkpt lat="48.23787" lon="-3.416">
        <ele>177</ele>
        <time>2020-10-18T10:34:29.000Z</time>
      </trkpt>
      <trkpt lat="48.23791" lon="-3.41598">
        <ele>177.39999389648</ele>
        <time>2020-10-18T10:34:30.000Z</time>
      </trkpt>
      <trkpt lat="48.23791" lon="-3.41598">
        <ele>177.39999389648</ele>
        <time>2020-10-18T10:34:31.000Z</time>
      </trkpt>
      <trkpt lat="48.23792" lon="-3.41597">
        <ele>177.60000610352</ele>
        <time>2020-10-18T10:34:32.000Z</time>
      </trkpt>
      <trkpt lat="48.23796" lon="-3.41596">
        <ele>177.80000305176</ele>
        <time>2020-10-18T10:34:33.000Z</time>
      </trkpt>
      <trkpt lat="48.23796" lon="-3.41596">
        <ele>177.80000305176</ele>
        <time>2020-10-18T10:34:34.000Z</time>
      </trkpt>
      <trkpt lat="48.23798" lon="-3.41594">
        <ele>178</ele>
        <time>2020-10-18T10:34:35.000Z</time>
      </trkpt>
      <trkpt lat="48.23802" lon="-3.41592">
        <ele>178.19999694824</ele>
        <time>2020-10-18T10:34:36.000Z</time>
      </trkpt>
      <trkpt lat="48.23802" lon="-3.41592">
        <ele>178.19999694824</ele>
        <time>2020-10-18T10:34:37.000Z</time>
      </trkpt>
      <trkpt lat="48.23804" lon="-3.41592">
        <ele>178.39999389648</ele>
        <time>2020-10-18T10:34:38.000Z</time>
      </trkpt>
      <trkpt lat="48.23808" lon="-3.4159">
        <ele>178.80000305176</ele>
        <time>2020-10-18T10:34:39.000Z</time>
      </trkpt>
      <trkpt lat="48.23808" lon="-3.4159">
        <ele>178.80000305176</ele>
        <time>2020-10-18T10:34:40.000Z</time>
      </trkpt>
      <trkpt lat="48.23809" lon="-3.41589">
        <ele>178.80000305176</ele>
        <time>2020-10-18T10:34:41.000Z</time>
      </trkpt>
      <trkpt lat="48.23813" lon="-3.41587">
        <ele>179</ele>
        <time>2020-10-18T10:34:42.000Z</time>
      </trkpt>
      <trkpt lat="48.23813" lon="-3.41587">
        <ele>179</ele>
        <time>2020-10-18T10:34:43.000Z</time>
      </trkpt>
      <trkpt lat="48.23815" lon="-3.41585">
        <ele>179.19999694824</ele>
        <time>2020-10-18T10:34:44.000Z</time>
      </trkpt>
      <trkpt lat="48.23819" lon="-3.41583">
        <ele>179.60000610352</ele>
        <time>2020-10-18T10:34:45.000Z</time>
      </trkpt>
      <trkpt lat="48.23819" lon="-3.41583">
        <ele>179.60000610352</ele>
        <time>2020-10-18T10:34:46.000Z</time>
      </trkpt>
      <trkpt lat="48.23823" lon="-3.4158">
        <ele>180</ele>
        <time>2020-10-18T10:34:47.000Z</time>
      </trkpt>
      <trkpt lat="48.23823" lon="-3.4158">
        <ele>180</ele>
        <time>2020-10-18T10:34:48.000Z</time>
      </trkpt>
      <trkpt lat="48.23826" lon="-3.41579">
        <ele>180</ele>
        <time>2020-10-18T10:34:49.000Z</time>
      </trkpt>
      <trkpt lat="48.2383" lon="-3.41576">
        <ele>180.39999389648</ele>
        <time>2020-10-18T10:34:50.000Z</time>
      </trkpt>
      <trkpt lat="48.2383" lon="-3.41576">
        <ele>180.39999389648</ele>
        <time>2020-10-18T10:34:51.000Z</time>
      </trkpt>
      <trkpt lat="48.23832" lon="-3.41574">
        <ele>180.60000610352</ele>
        <time>2020-10-18T10:34:52.000Z</time>
      </trkpt>
      <trkpt lat="48.23837" lon="-3.41572">
        <ele>181</ele>
        <time>2020-10-18T10:34:53.000Z</time>
      </trkpt>
      <trkpt lat="48.23837" lon="-3.41572">
        <ele>181</ele>
        <time>2020-10-18T10:34:54.000Z</time>
      </trkpt>
      <trkpt lat="48.23839" lon="-3.41571">
        <ele>181.19999694824</ele>
        <time>2020-10-18T10:34:55.000Z</time>
      </trkpt>
      <trkpt lat="48.23843" lon="-3.41568">
        <ele>181.39999389648</ele>
        <time>2020-10-18T10:34:56.000Z</time>
      </trkpt>
      <trkpt lat="48.23843" lon="-3.41568">
        <ele>181.39999389648</ele>
        <time>2020-10-18T10:34:57.000Z</time>
      </trkpt>
      <trkpt lat="48.23846" lon="-3.41567">
        <ele>181.60000610352</ele>
        <time>2020-10-18T10:34:58.000Z</time>
      </trkpt>
      <trkpt lat="48.2385" lon="-3.41565">
        <ele>182</ele>
        <time>2020-10-18T10:34:59.000Z</time>
      </trkpt>
      <trkpt lat="48.2385" lon="-3.41565">
        <ele>182</ele>
        <time>2020-10-18T10:35:00.000Z</time>
      </trkpt>
      <trkpt lat="48.23852" lon="-3.41564">
        <ele>182.19999694824</ele>
        <time>2020-10-18T10:35:01.000Z</time>
      </trkpt>
      <trkpt lat="48.23857" lon="-3.41562">
        <ele>182.60000610352</ele>
        <time>2020-10-18T10:35:02.000Z</time>
      </trkpt>
      <trkpt lat="48.23857" lon="-3.41562">
        <ele>182.60000610352</ele>
        <time>2020-10-18T10:35:03.000Z</time>
      </trkpt>
      <trkpt lat="48.23859" lon="-3.41561">
        <ele>182.80000305176</ele>
        <time>2020-10-18T10:35:04.000Z</time>
      </trkpt>
      <trkpt lat="48.23864" lon="-3.41559">
        <ele>183.19999694824</ele>
        <time>2020-10-18T10:35:05.000Z</time>
      </trkpt>
      <trkpt lat="48.23864" lon="-3.41559">
        <ele>183.19999694824</ele>
        <time>2020-10-18T10:35:06.000Z</time>
      </trkpt>
      <trkpt lat="48.23866" lon="-3.41558">
        <ele>183.39999389648</ele>
        <time>2020-10-18T10:35:07.000Z</time>
      </trkpt>
      <trkpt lat="48.2387" lon="-3.41555">
        <ele>183.80000305176</ele>
        <time>2020-10-18T10:35:08.000Z</time>
      </trkpt>
      <trkpt lat="48.2387" lon="-3.41555">
        <ele>183.80000305176</ele>
        <time>2020-10-18T10:35:09.000Z</time>
      </trkpt>
      <trkpt lat="48.23872" lon="-3.41554">
        <ele>184</ele>
        <time>2020-10-18T10:35:10.000Z</time>
      </trkpt>
      <trkpt lat="48.23876" lon="-3.41552">
        <ele>184.39999389648</ele>
        <time>2020-10-18T10:35:11.000Z</time>
      </trkpt>
      <trkpt lat="48.23876" lon="-3.41552">
        <ele>184.39999389648</ele>
        <time>2020-10-18T10:35:12.000Z</time>
      </trkpt>
      <trkpt lat="48.23878" lon="-3.41551">
        <ele>184.60000610352</ele>
        <time>2020-10-18T10:35:13.000Z</time>
      </trkpt>
      <trkpt lat="48.23882" lon="-3.41549">
        <ele>185</ele>
        <time>2020-10-18T10:35:14.000Z</time>
      </trkpt>
      <trkpt lat="48.23882" lon="-3.41549">
        <ele>185</ele>
        <time>2020-10-18T10:35:15.000Z</time>
      </trkpt>
      <trkpt lat="48.23884" lon="-3.41547">
        <ele>185</ele>
        <time>2020-10-18T10:35:16.000Z</time>
      </trkpt>
      <trkpt lat="48.23888" lon="-3.41545">
        <ele>185.39999389648</ele>
        <time>2020-10-18T10:35:17.000Z</time>
      </trkpt>
      <trkpt lat="48.23888" lon="-3.41545">
        <ele>185.39999389648</ele>
        <time>2020-10-18T10:35:18.000Z</time>
      </trkpt>
      <trkpt lat="48.2389" lon="-3.41544">
        <ele>185.60000610352</ele>
        <time>2020-10-18T10:35:19.000Z</time>
      </trkpt>
      <trkpt lat="48.23894" lon="-3.41543">
        <ele>186</ele>
        <time>2020-10-18T10:35:20.000Z</time>
      </trkpt>
      <trkpt lat="48.23894" lon="-3.41543">
        <ele>186</ele>
        <time>2020-10-18T10:35:21.000Z</time>
      </trkpt>
      <trkpt lat="48.23896" lon="-3.41542">
        <ele>186.19999694824</ele>
        <time>2020-10-18T10:35:22.000Z</time>
      </trkpt>
      <trkpt lat="48.239" lon="-3.4154">
        <ele>186.60000610352</ele>
        <time>2020-10-18T10:35:23.000Z</time>
      </trkpt>
      <trkpt lat="48.239" lon="-3.4154">
        <ele>186.60000610352</ele>
        <time>2020-10-18T10:35:24.000Z</time>
      </trkpt>
      <trkpt lat="48.23902" lon="-3.41539">
        <ele>186.80000305176</ele>
        <time>2020-10-18T10:35:25.000Z</time>
      </trkpt>
      <trkpt lat="48.23907" lon="-3.41537">
        <ele>187.19999694824</ele>
        <time>2020-10-18T10:35:26.000Z</time>
      </trkpt>
      <trkpt lat="48.23907" lon="-3.41537">
        <ele>187.19999694824</ele>
        <time>2020-10-18T10:35:27.000Z</time>
      </trkpt>
      <trkpt lat="48.23909" lon="-3.41537">
        <ele>187.19999694824</ele>
        <time>2020-10-18T10:35:28.000Z</time>
      </trkpt>
      <trkpt lat="48.23913" lon="-3.41535">
        <ele>187.60000610352</ele>
        <time>2020-10-18T10:35:29.000Z</time>
      </trkpt>
      <trkpt lat="48.23913" lon="-3.41535">
        <ele>187.60000610352</ele>
        <time>2020-10-18T10:35:30.000Z</time>
      </trkpt>
      <trkpt lat="48.23915" lon="-3.41534">
        <ele>187.80000305176</ele>
        <time>2020-10-18T10:35:31.000Z</time>
      </trkpt>
      <trkpt lat="48.23919" lon="-3.41532">
        <ele>188.19999694824</ele>
        <time>2020-10-18T10:35:32.000Z</time>
      </trkpt>
      <trkpt lat="48.23919" lon="-3.41532">
        <ele>188.19999694824</ele>
        <time>2020-10-18T10:35:33.000Z</time>
      </trkpt>
      <trkpt lat="48.23921" lon="-3.41531">
        <ele>188.19999694824</ele>
        <time>2020-10-18T10:35:34.000Z</time>
      </trkpt>
      <trkpt lat="48.23926" lon="-3.41528">
        <ele>188.60000610352</ele>
        <time>2020-10-18T10:35:35.000Z</time>
      </trkpt>
      <trkpt lat="48.23928" lon="-3.41527">
        <ele>188.80000305176</ele>
        <time>2020-10-18T10:35:36.000Z</time>
      </trkpt>
      <trkpt lat="48.23928" lon="-3.41527">
        <ele>188.80000305176</ele>
        <time>2020-10-18T10:35:37.000Z</time>
      </trkpt>
      <trkpt lat="48.2393" lon="-3.41525">
        <ele>189</ele>
        <time>2020-10-18T10:35:38.000Z</time>
      </trkpt>
      <trkpt lat="48.23934" lon="-3.41523">
        <ele>189.19999694824</ele>
        <time>2020-10-18T10:35:39.000Z</time>
      </trkpt>
      <trkpt lat="48.23934" lon="-3.41523">
        <ele>189.19999694824</ele>
        <time>2020-10-18T10:35:40.000Z</time>
      </trkpt>
      <trkpt lat="48.23936" lon="-3.41521">
        <ele>189.39999389648</ele>
        <time>2020-10-18T10:35:41.000Z</time>
      </trkpt>
      <trkpt lat="48.2394" lon="-3.41518">
        <ele>189.80000305176</ele>
        <time>2020-10-18T10:35:42.000Z</time>
      </trkpt>
      <trkpt lat="48.2394" lon="-3.41518">
        <ele>189.80000305176</ele>
        <time>2020-10-18T10:35:43.000Z</time>
      </trkpt>
      <trkpt lat="48.23944" lon="-3.41515">
        <ele>190.19999694824</ele>
        <time>2020-10-18T10:35:44.000Z</time>
      </trkpt>
      <trkpt lat="48.23944" lon="-3.41515">
        <ele>190.19999694824</ele>
        <time>2020-10-18T10:35:45.000Z</time>
      </trkpt>
      <trkpt lat="48.23949" lon="-3.41512">
        <ele>190.39999389648</ele>
        <time>2020-10-18T10:35:47.000Z</time>
      </trkpt>
      <trkpt lat="48.23949" lon="-3.41512">
        <ele>190.39999389648</ele>
        <time>2020-10-18T10:35:48.000Z</time>
      </trkpt>
      <trkpt lat="48.2395" lon="-3.4151">
        <ele>190.60000610352</ele>
        <time>2020-10-18T10:35:49.000Z</time>
      </trkpt>
      <trkpt lat="48.23954" lon="-3.41507">
        <ele>191</ele>
        <time>2020-10-18T10:35:50.000Z</time>
      </trkpt>
      <trkpt lat="48.23954" lon="-3.41507">
        <ele>191</ele>
        <time>2020-10-18T10:35:51.000Z</time>
      </trkpt>
      <trkpt lat="48.23956" lon="-3.41505">
        <ele>191</ele>
        <time>2020-10-18T10:35:52.000Z</time>
      </trkpt>
      <trkpt lat="48.23959" lon="-3.41502">
        <ele>191.39999389648</ele>
        <time>2020-10-18T10:35:53.000Z</time>
      </trkpt>
      <trkpt lat="48.23959" lon="-3.41502">
        <ele>191.39999389648</ele>
        <time>2020-10-18T10:35:54.000Z</time>
      </trkpt>
      <trkpt lat="48.23961" lon="-3.415">
        <ele>191.39999389648</ele>
        <time>2020-10-18T10:35:55.000Z</time>
      </trkpt>
      <trkpt lat="48.23964" lon="-3.41496">
        <ele>191.80000305176</ele>
        <time>2020-10-18T10:35:56.000Z</time>
      </trkpt>
      <trkpt lat="48.23964" lon="-3.41496">
        <ele>191.80000305176</ele>
        <time>2020-10-18T10:35:57.000Z</time>
      </trkpt>
      <trkpt lat="48.23966" lon="-3.41494">
        <ele>191.80000305176</ele>
        <time>2020-10-18T10:35:58.000Z</time>
      </trkpt>
      <trkpt lat="48.23969" lon="-3.41489">
        <ele>192.19999694824</ele>
        <time>2020-10-18T10:35:59.000Z</time>
      </trkpt>
      <trkpt lat="48.23969" lon="-3.41489">
        <ele>192.19999694824</ele>
        <time>2020-10-18T10:36:00.000Z</time>
      </trkpt>
      <trkpt lat="48.23971" lon="-3.41487">
        <ele>192.39999389648</ele>
        <time>2020-10-18T10:36:01.000Z</time>
      </trkpt>
      <trkpt lat="48.23975" lon="-3.41482">
        <ele>192.60000610352</ele>
        <time>2020-10-18T10:36:02.000Z</time>
      </trkpt>
      <trkpt lat="48.23975" lon="-3.41482">
        <ele>192.60000610352</ele>
        <time>2020-10-18T10:36:03.000Z</time>
      </trkpt>
      <trkpt lat="48.23979" lon="-3.41477">
        <ele>193</ele>
        <time>2020-10-18T10:36:04.000Z</time>
      </trkpt>
      <trkpt lat="48.23979" lon="-3.41477">
        <ele>193</ele>
        <time>2020-10-18T10:36:05.000Z</time>
      </trkpt>
      <trkpt lat="48.23981" lon="-3.41474">
        <ele>193.19999694824</ele>
        <time>2020-10-18T10:36:06.000Z</time>
      </trkpt>
      <trkpt lat="48.23984" lon="-3.41469">
        <ele>193.60000610352</ele>
        <time>2020-10-18T10:36:07.000Z</time>
      </trkpt>
      <trkpt lat="48.23984" lon="-3.41469">
        <ele>193.60000610352</ele>
        <time>2020-10-18T10:36:08.000Z</time>
      </trkpt>
      <trkpt lat="48.23986" lon="-3.41466">
        <ele>193.60000610352</ele>
        <time>2020-10-18T10:36:09.000Z</time>
      </trkpt>
      <trkpt lat="48.23989" lon="-3.4146">
        <ele>194</ele>
        <time>2020-10-18T10:36:10.000Z</time>
      </trkpt>
      <trkpt lat="48.23989" lon="-3.4146">
        <ele>194</ele>
        <time>2020-10-18T10:36:11.000Z</time>
      </trkpt>
      <trkpt lat="48.23991" lon="-3.41458">
        <ele>194.19999694824</ele>
        <time>2020-10-18T10:36:12.000Z</time>
      </trkpt>
      <trkpt lat="48.23994" lon="-3.41452">
        <ele>194.39999389648</ele>
        <time>2020-10-18T10:36:13.000Z</time>
      </trkpt>
      <trkpt lat="48.23994" lon="-3.41452">
        <ele>194.39999389648</ele>
        <time>2020-10-18T10:36:14.000Z</time>
      </trkpt>
      <trkpt lat="48.23996" lon="-3.4145">
        <ele>194.60000610352</ele>
        <time>2020-10-18T10:36:15.000Z</time>
      </trkpt>
      <trkpt lat="48.23999" lon="-3.41444">
        <ele>194.80000305176</ele>
        <time>2020-10-18T10:36:16.000Z</time>
      </trkpt>
      <trkpt lat="48.23999" lon="-3.41444">
        <ele>194.80000305176</ele>
        <time>2020-10-18T10:36:17.000Z</time>
      </trkpt>
      <trkpt lat="48.24" lon="-3.41441">
        <ele>195</ele>
        <time>2020-10-18T10:36:18.000Z</time>
      </trkpt>
      <trkpt lat="48.24003" lon="-3.41435">
        <ele>195.19999694824</ele>
        <time>2020-10-18T10:36:19.000Z</time>
      </trkpt>
      <trkpt lat="48.24003" lon="-3.41435">
        <ele>195.19999694824</ele>
        <time>2020-10-18T10:36:20.000Z</time>
      </trkpt>
      <trkpt lat="48.24004" lon="-3.41432">
        <ele>195.39999389648</ele>
        <time>2020-10-18T10:36:21.000Z</time>
      </trkpt>
      <trkpt lat="48.24007" lon="-3.41426">
        <ele>195.60000610352</ele>
        <time>2020-10-18T10:36:22.000Z</time>
      </trkpt>
      <trkpt lat="48.24007" lon="-3.41426">
        <ele>195.60000610352</ele>
        <time>2020-10-18T10:36:23.000Z</time>
      </trkpt>
      <trkpt lat="48.24008" lon="-3.41423">
        <ele>195.80000305176</ele>
        <time>2020-10-18T10:36:24.000Z</time>
      </trkpt>
      <trkpt lat="48.2401" lon="-3.41417">
        <ele>196</ele>
        <time>2020-10-18T10:36:25.000Z</time>
      </trkpt>
      <trkpt lat="48.2401" lon="-3.41417">
        <ele>196</ele>
        <time>2020-10-18T10:36:26.000Z</time>
      </trkpt>
      <trkpt lat="48.24011" lon="-3.41414">
        <ele>196</ele>
        <time>2020-10-18T10:36:27.000Z</time>
      </trkpt>
      <trkpt lat="48.24013" lon="-3.41407">
        <ele>196.39999389648</ele>
        <time>2020-10-18T10:36:28.000Z</time>
      </trkpt>
      <trkpt lat="48.24013" lon="-3.41407">
        <ele>196.39999389648</ele>
        <time>2020-10-18T10:36:29.000Z</time>
      </trkpt>
      <trkpt lat="48.24014" lon="-3.41403">
        <ele>196.39999389648</ele>
        <time>2020-10-18T10:36:30.000Z</time>
      </trkpt>
      <trkpt lat="48.24016" lon="-3.41396">
        <ele>196.60000610352</ele>
        <time>2020-10-18T10:36:31.000Z</time>
      </trkpt>
      <trkpt lat="48.24016" lon="-3.41396">
        <ele>196.60000610352</ele>
        <time>2020-10-18T10:36:32.000Z</time>
      </trkpt>
      <trkpt lat="48.24017" lon="-3.41391">
        <ele>196.80000305176</ele>
        <time>2020-10-18T10:36:33.000Z</time>
      </trkpt>
      <trkpt lat="48.2402" lon="-3.41382">
        <ele>197</ele>
        <time>2020-10-18T10:36:34.000Z</time>
      </trkpt>
      <trkpt lat="48.2402" lon="-3.41382">
        <ele>197</ele>
        <time>2020-10-18T10:36:35.000Z</time>
      </trkpt>
      <trkpt lat="48.24021" lon="-3.41378">
        <ele>197</ele>
        <time>2020-10-18T10:36:36.000Z</time>
      </trkpt>
      <trkpt lat="48.24023" lon="-3.41368">
        <ele>197.19999694824</ele>
        <time>2020-10-18T10:36:37.000Z</time>
      </trkpt>
      <trkpt lat="48.24023" lon="-3.41368">
        <ele>197.19999694824</ele>
        <time>2020-10-18T10:36:38.000Z</time>
      </trkpt>
      <trkpt lat="48.24025" lon="-3.41359">
        <ele>197.39999389648</ele>
        <time>2020-10-18T10:36:39.000Z</time>
      </trkpt>
      <trkpt lat="48.24025" lon="-3.41359">
        <ele>197.39999389648</ele>
        <time>2020-10-18T10:36:40.000Z</time>
      </trkpt>
      <trkpt lat="48.24027" lon="-3.4135">
        <ele>197.60000610352</ele>
        <time>2020-10-18T10:36:41.000Z</time>
      </trkpt>
      <trkpt lat="48.24027" lon="-3.4135">
        <ele>197.60000610352</ele>
        <time>2020-10-18T10:36:42.000Z</time>
      </trkpt>
      <trkpt lat="48.24028" lon="-3.41346">
        <ele>197.80000305176</ele>
        <time>2020-10-18T10:36:43.000Z</time>
      </trkpt>
      <trkpt lat="48.24029" lon="-3.41336">
        <ele>198</ele>
        <time>2020-10-18T10:36:44.000Z</time>
      </trkpt>
      <trkpt lat="48.24029" lon="-3.41336">
        <ele>198</ele>
        <time>2020-10-18T10:36:45.000Z</time>
      </trkpt>
      <trkpt lat="48.2403" lon="-3.41331">
        <ele>198</ele>
        <time>2020-10-18T10:36:46.000Z</time>
      </trkpt>
      <trkpt lat="48.24031" lon="-3.41327">
        <ele>198.19999694824</ele>
        <time>2020-10-18T10:36:47.000Z</time>
      </trkpt>
      <trkpt lat="48.24031" lon="-3.41322">
        <ele>198.39999389648</ele>
        <time>2020-10-18T10:36:48.000Z</time>
      </trkpt>
      <trkpt lat="48.24033" lon="-3.41313">
        <ele>198.60000610352</ele>
        <time>2020-10-18T10:36:49.000Z</time>
      </trkpt>
      <trkpt lat="48.24033" lon="-3.41313">
        <ele>198.60000610352</ele>
        <time>2020-10-18T10:36:50.000Z</time>
      </trkpt>
      <trkpt lat="48.24034" lon="-3.41308">
        <ele>198.80000305176</ele>
        <time>2020-10-18T10:36:51.000Z</time>
      </trkpt>
      <trkpt lat="48.24036" lon="-3.41299">
        <ele>199</ele>
        <time>2020-10-18T10:36:52.000Z</time>
      </trkpt>
      <trkpt lat="48.24036" lon="-3.41299">
        <ele>199</ele>
        <time>2020-10-18T10:36:53.000Z</time>
      </trkpt>
      <trkpt lat="48.24037" lon="-3.41294">
        <ele>199.19999694824</ele>
        <time>2020-10-18T10:36:54.000Z</time>
      </trkpt>
      <trkpt lat="48.24039" lon="-3.41285">
        <ele>199.39999389648</ele>
        <time>2020-10-18T10:36:55.000Z</time>
      </trkpt>
      <trkpt lat="48.24039" lon="-3.41285">
        <ele>199.39999389648</ele>
        <time>2020-10-18T10:36:56.000Z</time>
      </trkpt>
      <trkpt lat="48.2404" lon="-3.4128">
        <ele>199.60000610352</ele>
        <time>2020-10-18T10:36:57.000Z</time>
      </trkpt>
      <trkpt lat="48.24042" lon="-3.41269">
        <ele>200</ele>
        <time>2020-10-18T10:36:58.000Z</time>
      </trkpt>
      <trkpt lat="48.24042" lon="-3.41269">
        <ele>200</ele>
        <time>2020-10-18T10:36:59.000Z</time>
      </trkpt>
      <trkpt lat="48.24044" lon="-3.41264">
        <ele>200.19999694824</ele>
        <time>2020-10-18T10:37:00.000Z</time>
      </trkpt>
      <trkpt lat="48.24045" lon="-3.41255">
        <ele>200.60000610352</ele>
        <time>2020-10-18T10:37:01.000Z</time>
      </trkpt>
      <trkpt lat="48.24045" lon="-3.41255">
        <ele>200.60000610352</ele>
        <time>2020-10-18T10:37:02.000Z</time>
      </trkpt>
      <trkpt lat="48.24046" lon="-3.4125">
        <ele>200.80000305176</ele>
        <time>2020-10-18T10:37:03.000Z</time>
      </trkpt>
      <trkpt lat="48.24048" lon="-3.41241">
        <ele>201.19999694824</ele>
        <time>2020-10-18T10:37:04.000Z</time>
      </trkpt>
      <trkpt lat="48.24048" lon="-3.41241">
        <ele>201.19999694824</ele>
        <time>2020-10-18T10:37:05.000Z</time>
      </trkpt>
      <trkpt lat="48.24049" lon="-3.41236">
        <ele>201.39999389648</ele>
        <time>2020-10-18T10:37:06.000Z</time>
      </trkpt>
      <trkpt lat="48.2405" lon="-3.41227">
        <ele>201.60000610352</ele>
        <time>2020-10-18T10:37:07.000Z</time>
      </trkpt>
      <trkpt lat="48.2405" lon="-3.41227">
        <ele>201.60000610352</ele>
        <time>2020-10-18T10:37:08.000Z</time>
      </trkpt>
      <trkpt lat="48.2405" lon="-3.41223">
        <ele>201.80000305176</ele>
        <time>2020-10-18T10:37:09.000Z</time>
      </trkpt>
      <trkpt lat="48.24051" lon="-3.41214">
        <ele>202</ele>
        <time>2020-10-18T10:37:10.000Z</time>
      </trkpt>
      <trkpt lat="48.24051" lon="-3.41214">
        <ele>202</ele>
        <time>2020-10-18T10:37:11.000Z</time>
      </trkpt>
      <trkpt lat="48.24052" lon="-3.41209">
        <ele>202</ele>
        <time>2020-10-18T10:37:12.000Z</time>
      </trkpt>
      <trkpt lat="48.24053" lon="-3.412">
        <ele>202.19999694824</ele>
        <time>2020-10-18T10:37:13.000Z</time>
      </trkpt>
      <trkpt lat="48.24053" lon="-3.412">
        <ele>202.19999694824</ele>
        <time>2020-10-18T10:37:14.000Z</time>
      </trkpt>
      <trkpt lat="48.24054" lon="-3.41195">
        <ele>202.39999389648</ele>
        <time>2020-10-18T10:37:15.000Z</time>
      </trkpt>
      <trkpt lat="48.24055" lon="-3.41186">
        <ele>202.60000610352</ele>
        <time>2020-10-18T10:37:16.000Z</time>
      </trkpt>
      <trkpt lat="48.24055" lon="-3.41186">
        <ele>202.60000610352</ele>
        <time>2020-10-18T10:37:17.000Z</time>
      </trkpt>
      <trkpt lat="48.24056" lon="-3.41181">
        <ele>202.60000610352</ele>
        <time>2020-10-18T10:37:18.000Z</time>
      </trkpt>
      <trkpt lat="48.24058" lon="-3.41172">
        <ele>203</ele>
        <time>2020-10-18T10:37:19.000Z</time>
      </trkpt>
      <trkpt lat="48.24058" lon="-3.41172">
        <ele>203</ele>
        <time>2020-10-18T10:37:20.000Z</time>
      </trkpt>
      <trkpt lat="48.24059" lon="-3.41168">
        <ele>203.19999694824</ele>
        <time>2020-10-18T10:37:21.000Z</time>
      </trkpt>
      <trkpt lat="48.24062" lon="-3.41159">
        <ele>203.60000610352</ele>
        <time>2020-10-18T10:37:22.000Z</time>
      </trkpt>
      <trkpt lat="48.24062" lon="-3.41159">
        <ele>203.60000610352</ele>
        <time>2020-10-18T10:37:23.000Z</time>
      </trkpt>
      <trkpt lat="48.24063" lon="-3.41155">
        <ele>203.60000610352</ele>
        <time>2020-10-18T10:37:24.000Z</time>
      </trkpt>
      <trkpt lat="48.24065" lon="-3.41146">
        <ele>204</ele>
        <time>2020-10-18T10:37:25.000Z</time>
      </trkpt>
      <trkpt lat="48.24065" lon="-3.41146">
        <ele>204</ele>
        <time>2020-10-18T10:37:26.000Z</time>
      </trkpt>
      <trkpt lat="48.24067" lon="-3.41142">
        <ele>204.19999694824</ele>
        <time>2020-10-18T10:37:27.000Z</time>
      </trkpt>
      <trkpt lat="48.24069" lon="-3.41133">
        <ele>204.60000610352</ele>
        <time>2020-10-18T10:37:28.000Z</time>
      </trkpt>
      <trkpt lat="48.24069" lon="-3.41133">
        <ele>204.60000610352</ele>
        <time>2020-10-18T10:37:29.000Z</time>
      </trkpt>
      <trkpt lat="48.24071" lon="-3.41129">
        <ele>204.80000305176</ele>
        <time>2020-10-18T10:37:30.000Z</time>
      </trkpt>
      <trkpt lat="48.24074" lon="-3.4112">
        <ele>205.19999694824</ele>
        <time>2020-10-18T10:37:31.000Z</time>
      </trkpt>
      <trkpt lat="48.24074" lon="-3.4112">
        <ele>205.19999694824</ele>
        <time>2020-10-18T10:37:32.000Z</time>
      </trkpt>
      <trkpt lat="48.24076" lon="-3.41115">
        <ele>205.39999389648</ele>
        <time>2020-10-18T10:37:33.000Z</time>
      </trkpt>
      <trkpt lat="48.24079" lon="-3.41106">
        <ele>205.60000610352</ele>
        <time>2020-10-18T10:37:34.000Z</time>
      </trkpt>
      <trkpt lat="48.24081" lon="-3.41101">
        <ele>205.80000305176</ele>
        <time>2020-10-18T10:37:35.000Z</time>
      </trkpt>
      <trkpt lat="48.24081" lon="-3.41101">
        <ele>205.80000305176</ele>
        <time>2020-10-18T10:37:36.000Z</time>
      </trkpt>
      <trkpt lat="48.24083" lon="-3.41097">
        <ele>206</ele>
        <time>2020-10-18T10:37:37.000Z</time>
      </trkpt>
      <trkpt lat="48.24086" lon="-3.41087">
        <ele>206.39999389648</ele>
        <time>2020-10-18T10:37:38.000Z</time>
      </trkpt>
      <trkpt lat="48.24086" lon="-3.41087">
        <ele>206.39999389648</ele>
        <time>2020-10-18T10:37:39.000Z</time>
      </trkpt>
      <trkpt lat="48.24089" lon="-3.41078">
        <ele>207</ele>
        <time>2020-10-18T10:37:40.000Z</time>
      </trkpt>
      <trkpt lat="48.24089" lon="-3.41078">
        <ele>207</ele>
        <time>2020-10-18T10:37:41.000Z</time>
      </trkpt>
      <trkpt lat="48.24091" lon="-3.41073">
        <ele>207.19999694824</ele>
        <time>2020-10-18T10:37:42.000Z</time>
      </trkpt>
      <trkpt lat="48.24095" lon="-3.41064">
        <ele>207.80000305176</ele>
        <time>2020-10-18T10:37:43.000Z</time>
      </trkpt>
      <trkpt lat="48.24095" lon="-3.41064">
        <ele>207.80000305176</ele>
        <time>2020-10-18T10:37:44.000Z</time>
      </trkpt>
      <trkpt lat="48.24097" lon="-3.41059">
        <ele>208</ele>
        <time>2020-10-18T10:37:45.000Z</time>
      </trkpt>
      <trkpt lat="48.24101" lon="-3.4105">
        <ele>208.19999694824</ele>
        <time>2020-10-18T10:37:46.000Z</time>
      </trkpt>
      <trkpt lat="48.24102" lon="-3.41045">
        <ele>208.39999389648</ele>
        <time>2020-10-18T10:37:47.000Z</time>
      </trkpt>
      <trkpt lat="48.24104" lon="-3.4104">
        <ele>208.60000610352</ele>
        <time>2020-10-18T10:37:48.000Z</time>
      </trkpt>
      <trkpt lat="48.24104" lon="-3.4104">
        <ele>208.60000610352</ele>
        <time>2020-10-18T10:37:49.000Z</time>
      </trkpt>
      <trkpt lat="48.24106" lon="-3.41035">
        <ele>208.60000610352</ele>
        <time>2020-10-18T10:37:50.000Z</time>
      </trkpt>
      <trkpt lat="48.24111" lon="-3.41024">
        <ele>209</ele>
        <time>2020-10-18T10:37:51.000Z</time>
      </trkpt>
      <trkpt lat="48.24111" lon="-3.41024">
        <ele>209</ele>
        <time>2020-10-18T10:37:52.000Z</time>
      </trkpt>
      <trkpt lat="48.24113" lon="-3.41018">
        <ele>209.19999694824</ele>
        <time>2020-10-18T10:37:53.000Z</time>
      </trkpt>
      <trkpt lat="48.24118" lon="-3.41008">
        <ele>209.60000610352</ele>
        <time>2020-10-18T10:37:54.000Z</time>
      </trkpt>
      <trkpt lat="48.24118" lon="-3.41008">
        <ele>209.60000610352</ele>
        <time>2020-10-18T10:37:55.000Z</time>
      </trkpt>
      <trkpt lat="48.24121" lon="-3.41002">
        <ele>209.80000305176</ele>
        <time>2020-10-18T10:37:56.000Z</time>
      </trkpt>
      <trkpt lat="48.24125" lon="-3.4099">
        <ele>210.19999694824</ele>
        <time>2020-10-18T10:37:57.000Z</time>
      </trkpt>
      <trkpt lat="48.24125" lon="-3.4099">
        <ele>210.19999694824</ele>
        <time>2020-10-18T10:37:58.000Z</time>
      </trkpt>
      <trkpt lat="48.24127" lon="-3.40985">
        <ele>210.39999389648</ele>
        <time>2020-10-18T10:37:59.000Z</time>
      </trkpt>
      <trkpt lat="48.24131" lon="-3.40974">
        <ele>210.60000610352</ele>
        <time>2020-10-18T10:38:00.000Z</time>
      </trkpt>
      <trkpt lat="48.24131" lon="-3.40974">
        <ele>210.60000610352</ele>
        <time>2020-10-18T10:38:01.000Z</time>
      </trkpt>
      <trkpt lat="48.24133" lon="-3.40969">
        <ele>210.60000610352</ele>
        <time>2020-10-18T10:38:02.000Z</time>
      </trkpt>
      <trkpt lat="48.24137" lon="-3.40959">
        <ele>210.80000305176</ele>
        <time>2020-10-18T10:38:03.000Z</time>
      </trkpt>
      <trkpt lat="48.24137" lon="-3.40959">
        <ele>210.80000305176</ele>
        <time>2020-10-18T10:38:04.000Z</time>
      </trkpt>
      <trkpt lat="48.2414" lon="-3.40954">
        <ele>211</ele>
        <time>2020-10-18T10:38:05.000Z</time>
      </trkpt>
      <trkpt lat="48.24145" lon="-3.40945">
        <ele>211</ele>
        <time>2020-10-18T10:38:06.000Z</time>
      </trkpt>
      <trkpt lat="48.24145" lon="-3.40945">
        <ele>211</ele>
        <time>2020-10-18T10:38:07.000Z</time>
      </trkpt>
      <trkpt lat="48.24147" lon="-3.4094">
        <ele>211.19999694824</ele>
        <time>2020-10-18T10:38:08.000Z</time>
      </trkpt>
      <trkpt lat="48.24153" lon="-3.40931">
        <ele>211.39999389648</ele>
        <time>2020-10-18T10:38:09.000Z</time>
      </trkpt>
      <trkpt lat="48.24153" lon="-3.40931">
        <ele>211.39999389648</ele>
        <time>2020-10-18T10:38:10.000Z</time>
      </trkpt>
      <trkpt lat="48.24156" lon="-3.40927">
        <ele>211.80000305176</ele>
        <time>2020-10-18T10:38:11.000Z</time>
      </trkpt>
      <trkpt lat="48.24162" lon="-3.40918">
        <ele>212.19999694824</ele>
        <time>2020-10-18T10:38:12.000Z</time>
      </trkpt>
      <trkpt lat="48.24162" lon="-3.40918">
        <ele>212.19999694824</ele>
        <time>2020-10-18T10:38:13.000Z</time>
      </trkpt>
      <trkpt lat="48.24164" lon="-3.40914">
        <ele>212.60000610352</ele>
        <time>2020-10-18T10:38:14.000Z</time>
      </trkpt>
      <trkpt lat="48.2417" lon="-3.40907">
        <ele>213</ele>
        <time>2020-10-18T10:38:15.000Z</time>
      </trkpt>
      <trkpt lat="48.2417" lon="-3.40907">
        <ele>213</ele>
        <time>2020-10-18T10:38:16.000Z</time>
      </trkpt>
      <trkpt lat="48.24173" lon="-3.40903">
        <ele>213.39999389648</ele>
        <time>2020-10-18T10:38:17.000Z</time>
      </trkpt>
      <trkpt lat="48.2418" lon="-3.40897">
        <ele>213.80000305176</ele>
        <time>2020-10-18T10:38:18.000Z</time>
      </trkpt>
      <trkpt lat="48.2418" lon="-3.40897">
        <ele>213.80000305176</ele>
        <time>2020-10-18T10:38:19.000Z</time>
      </trkpt>
      <trkpt lat="48.24183" lon="-3.40893">
        <ele>214</ele>
        <time>2020-10-18T10:38:20.000Z</time>
      </trkpt>
      <trkpt lat="48.2419" lon="-3.40886">
        <ele>214.19999694824</ele>
        <time>2020-10-18T10:38:21.000Z</time>
      </trkpt>
      <trkpt lat="48.2419" lon="-3.40886">
        <ele>214.19999694824</ele>
        <time>2020-10-18T10:38:22.000Z</time>
      </trkpt>
      <trkpt lat="48.24194" lon="-3.40882">
        <ele>214.39999389648</ele>
        <time>2020-10-18T10:38:23.000Z</time>
      </trkpt>
      <trkpt lat="48.24201" lon="-3.40877">
        <ele>214.60000610352</ele>
        <time>2020-10-18T10:38:24.000Z</time>
      </trkpt>
      <trkpt lat="48.24201" lon="-3.40877">
        <ele>214.60000610352</ele>
        <time>2020-10-18T10:38:25.000Z</time>
      </trkpt>
      <trkpt lat="48.24205" lon="-3.40874">
        <ele>214.60000610352</ele>
        <time>2020-10-18T10:38:26.000Z</time>
      </trkpt>
      <trkpt lat="48.24212" lon="-3.40869">
        <ele>215</ele>
        <time>2020-10-18T10:38:27.000Z</time>
      </trkpt>
      <trkpt lat="48.24212" lon="-3.40869">
        <ele>215</ele>
        <time>2020-10-18T10:38:28.000Z</time>
      </trkpt>
      <trkpt lat="48.24216" lon="-3.40866">
        <ele>215</ele>
        <time>2020-10-18T10:38:29.000Z</time>
      </trkpt>
      <trkpt lat="48.24224" lon="-3.40862">
        <ele>215.19999694824</ele>
        <time>2020-10-18T10:38:30.000Z</time>
      </trkpt>
      <trkpt lat="48.24224" lon="-3.40862">
        <ele>215.19999694824</ele>
        <time>2020-10-18T10:38:31.000Z</time>
      </trkpt>
      <trkpt lat="48.24228" lon="-3.4086">
        <ele>215.19999694824</ele>
        <time>2020-10-18T10:38:32.000Z</time>
      </trkpt>
      <trkpt lat="48.24236" lon="-3.40857">
        <ele>215.39999389648</ele>
        <time>2020-10-18T10:38:33.000Z</time>
      </trkpt>
      <trkpt lat="48.24236" lon="-3.40857">
        <ele>215.39999389648</ele>
        <time>2020-10-18T10:38:34.000Z</time>
      </trkpt>
      <trkpt lat="48.24244" lon="-3.40855">
        <ele>215.60000610352</ele>
        <time>2020-10-18T10:38:35.000Z</time>
      </trkpt>
      <trkpt lat="48.24244" lon="-3.40855">
        <ele>215.60000610352</ele>
        <time>2020-10-18T10:38:36.000Z</time>
      </trkpt>
      <trkpt lat="48.24252" lon="-3.40854">
        <ele>215.80000305176</ele>
        <time>2020-10-18T10:38:37.000Z</time>
      </trkpt>
      <trkpt lat="48.24252" lon="-3.40854">
        <ele>215.80000305176</ele>
        <time>2020-10-18T10:38:38.000Z</time>
      </trkpt>
      <trkpt lat="48.24261" lon="-3.40855">
        <ele>215.80000305176</ele>
        <time>2020-10-18T10:38:39.000Z</time>
      </trkpt>
      <trkpt lat="48.24261" lon="-3.40855">
        <ele>215.80000305176</ele>
        <time>2020-10-18T10:38:40.000Z</time>
      </trkpt>
      <trkpt lat="48.24271" lon="-3.40856">
        <ele>215.60000610352</ele>
        <time>2020-10-18T10:38:41.000Z</time>
      </trkpt>
      <trkpt lat="48.24271" lon="-3.40856">
        <ele>215.60000610352</ele>
        <time>2020-10-18T10:38:42.000Z</time>
      </trkpt>
      <trkpt lat="48.24281" lon="-3.40859">
        <ele>215.19999694824</ele>
        <time>2020-10-18T10:38:43.000Z</time>
      </trkpt>
      <trkpt lat="48.24281" lon="-3.40859">
        <ele>215.19999694824</ele>
        <time>2020-10-18T10:38:44.000Z</time>
      </trkpt>
      <trkpt lat="48.24287" lon="-3.4086">
        <ele>215.19999694824</ele>
        <time>2020-10-18T10:38:45.000Z</time>
      </trkpt>
      <trkpt lat="48.24299" lon="-3.40865">
        <ele>214.80000305176</ele>
        <time>2020-10-18T10:38:46.000Z</time>
      </trkpt>
      <trkpt lat="48.24299" lon="-3.40865">
        <ele>214.80000305176</ele>
        <time>2020-10-18T10:38:47.000Z</time>
      </trkpt>
      <trkpt lat="48.24314" lon="-3.40872">
        <ele>214.19999694824</ele>
        <time>2020-10-18T10:38:48.000Z</time>
      </trkpt>
      <trkpt lat="48.24314" lon="-3.40872">
        <ele>214.19999694824</ele>
        <time>2020-10-18T10:38:49.000Z</time>
      </trkpt>
      <trkpt lat="48.24329" lon="-3.40881">
        <ele>213.39999389648</ele>
        <time>2020-10-18T10:38:50.000Z</time>
      </trkpt>
      <trkpt lat="48.24329" lon="-3.40881">
        <ele>213.39999389648</ele>
        <time>2020-10-18T10:38:51.000Z</time>
      </trkpt>
      <trkpt lat="48.24338" lon="-3.40885">
        <ele>213</ele>
        <time>2020-10-18T10:38:52.000Z</time>
      </trkpt>
      <trkpt lat="48.24355" lon="-3.40894">
        <ele>211.39999389648</ele>
        <time>2020-10-18T10:38:53.000Z</time>
      </trkpt>
      <trkpt lat="48.24355" lon="-3.40894">
        <ele>211.39999389648</ele>
        <time>2020-10-18T10:38:54.000Z</time>
      </trkpt>
      <trkpt lat="48.24364" lon="-3.40898">
        <ele>210.19999694824</ele>
        <time>2020-10-18T10:38:55.000Z</time>
      </trkpt>
      <trkpt lat="48.24383" lon="-3.40908">
        <ele>208</ele>
        <time>2020-10-18T10:38:56.000Z</time>
      </trkpt>
      <trkpt lat="48.24383" lon="-3.40908">
        <ele>208</ele>
        <time>2020-10-18T10:38:57.000Z</time>
      </trkpt>
      <trkpt lat="48.24404" lon="-3.40918">
        <ele>205.80000305176</ele>
        <time>2020-10-18T10:38:58.000Z</time>
      </trkpt>
      <trkpt lat="48.24404" lon="-3.40918">
        <ele>205.80000305176</ele>
        <time>2020-10-18T10:38:59.000Z</time>
      </trkpt>
      <trkpt lat="48.24415" lon="-3.40924">
        <ele>204.60000610352</ele>
        <time>2020-10-18T10:39:00.000Z</time>
      </trkpt>
      <trkpt lat="48.24437" lon="-3.40935">
        <ele>202.39999389648</ele>
        <time>2020-10-18T10:39:01.000Z</time>
      </trkpt>
      <trkpt lat="48.24437" lon="-3.40935">
        <ele>202.39999389648</ele>
        <time>2020-10-18T10:39:02.000Z</time>
      </trkpt>
      <trkpt lat="48.24449" lon="-3.4094">
        <ele>201.39999389648</ele>
        <time>2020-10-18T10:39:03.000Z</time>
      </trkpt>
      <trkpt lat="48.24472" lon="-3.4095">
        <ele>199.60000610352</ele>
        <time>2020-10-18T10:39:04.000Z</time>
      </trkpt>
      <trkpt lat="48.24472" lon="-3.4095">
        <ele>199.60000610352</ele>
        <time>2020-10-18T10:39:05.000Z</time>
      </trkpt>
      <trkpt lat="48.24483" lon="-3.40955">
        <ele>198.60000610352</ele>
        <time>2020-10-18T10:39:06.000Z</time>
      </trkpt>
      <trkpt lat="48.24504" lon="-3.40965">
        <ele>197</ele>
        <time>2020-10-18T10:39:07.000Z</time>
      </trkpt>
      <trkpt lat="48.24504" lon="-3.40965">
        <ele>197</ele>
        <time>2020-10-18T10:39:08.000Z</time>
      </trkpt>
      <trkpt lat="48.24514" lon="-3.4097">
        <ele>196.19999694824</ele>
        <time>2020-10-18T10:39:09.000Z</time>
      </trkpt>
      <trkpt lat="48.24535" lon="-3.4098">
        <ele>195.60000610352</ele>
        <time>2020-10-18T10:39:10.000Z</time>
      </trkpt>
      <trkpt lat="48.24535" lon="-3.4098">
        <ele>195.60000610352</ele>
        <time>2020-10-18T10:39:11.000Z</time>
      </trkpt>
      <trkpt lat="48.24544" lon="-3.40984">
        <ele>195.39999389648</ele>
        <time>2020-10-18T10:39:12.000Z</time>
      </trkpt>
      <trkpt lat="48.24563" lon="-3.40995">
        <ele>194.60000610352</ele>
        <time>2020-10-18T10:39:13.000Z</time>
      </trkpt>
      <trkpt lat="48.24563" lon="-3.40995">
        <ele>194.60000610352</ele>
        <time>2020-10-18T10:39:14.000Z</time>
      </trkpt>
      <trkpt lat="48.24572" lon="-3.41">
        <ele>194.19999694824</ele>
        <time>2020-10-18T10:39:15.000Z</time>
      </trkpt>
      <trkpt lat="48.24581" lon="-3.41006">
        <ele>193.80000305176</ele>
        <time>2020-10-18T10:39:16.000Z</time>
      </trkpt>
      <trkpt lat="48.24598" lon="-3.41017">
        <ele>193</ele>
        <time>2020-10-18T10:39:17.000Z</time>
      </trkpt>
      <trkpt lat="48.24598" lon="-3.41017">
        <ele>193</ele>
        <time>2020-10-18T10:39:18.000Z</time>
      </trkpt>
      <trkpt lat="48.24615" lon="-3.41028">
        <ele>192.60000610352</ele>
        <time>2020-10-18T10:39:19.000Z</time>
      </trkpt>
      <trkpt lat="48.24615" lon="-3.41028">
        <ele>192.60000610352</ele>
        <time>2020-10-18T10:39:20.000Z</time>
      </trkpt>
      <trkpt lat="48.24632" lon="-3.41039">
        <ele>192.19999694824</ele>
        <time>2020-10-18T10:39:21.000Z</time>
      </trkpt>
      <trkpt lat="48.24632" lon="-3.41039">
        <ele>192.19999694824</ele>
        <time>2020-10-18T10:39:22.000Z</time>
      </trkpt>
      <trkpt lat="48.2464" lon="-3.41045">
        <ele>192</ele>
        <time>2020-10-18T10:39:23.000Z</time>
      </trkpt>
      <trkpt lat="48.24656" lon="-3.41057">
        <ele>191.19999694824</ele>
        <time>2020-10-18T10:39:24.000Z</time>
      </trkpt>
      <trkpt lat="48.24656" lon="-3.41057">
        <ele>191.19999694824</ele>
        <time>2020-10-18T10:39:25.000Z</time>
      </trkpt>
      <trkpt lat="48.24664" lon="-3.41064">
        <ele>190.80000305176</ele>
        <time>2020-10-18T10:39:26.000Z</time>
      </trkpt>
      <trkpt lat="48.24681" lon="-3.41076">
        <ele>190</ele>
        <time>2020-10-18T10:39:27.000Z</time>
      </trkpt>
      <trkpt lat="48.24681" lon="-3.41076">
        <ele>190</ele>
        <time>2020-10-18T10:39:28.000Z</time>
      </trkpt>
      <trkpt lat="48.24698" lon="-3.41089">
        <ele>189.19999694824</ele>
        <time>2020-10-18T10:39:29.000Z</time>
      </trkpt>
      <trkpt lat="48.24698" lon="-3.41089">
        <ele>189.19999694824</ele>
        <time>2020-10-18T10:39:30.000Z</time>
      </trkpt>
      <trkpt lat="48.24706" lon="-3.41096">
        <ele>188.80000305176</ele>
        <time>2020-10-18T10:39:31.000Z</time>
      </trkpt>
      <trkpt lat="48.24723" lon="-3.41109">
        <ele>188</ele>
        <time>2020-10-18T10:39:32.000Z</time>
      </trkpt>
      <trkpt lat="48.24723" lon="-3.41109">
        <ele>188</ele>
        <time>2020-10-18T10:39:33.000Z</time>
      </trkpt>
      <trkpt lat="48.24731" lon="-3.41115">
        <ele>187.60000610352</ele>
        <time>2020-10-18T10:39:34.000Z</time>
      </trkpt>
      <trkpt lat="48.24748" lon="-3.41127">
        <ele>186.80000305176</ele>
        <time>2020-10-18T10:39:35.000Z</time>
      </trkpt>
      <trkpt lat="48.24748" lon="-3.41127">
        <ele>186.80000305176</ele>
        <time>2020-10-18T10:39:36.000Z</time>
      </trkpt>
      <trkpt lat="48.24763" lon="-3.41139">
        <ele>186</ele>
        <time>2020-10-18T10:39:37.000Z</time>
      </trkpt>
      <trkpt lat="48.24763" lon="-3.41139">
        <ele>186</ele>
        <time>2020-10-18T10:39:38.000Z</time>
      </trkpt>
      <trkpt lat="48.24779" lon="-3.4115">
        <ele>186.39999389648</ele>
        <time>2020-10-18T10:39:39.000Z</time>
      </trkpt>
      <trkpt lat="48.24779" lon="-3.4115">
        <ele>186.39999389648</ele>
        <time>2020-10-18T10:39:40.000Z</time>
      </trkpt>
      <trkpt lat="48.24793" lon="-3.4116">
        <ele>186.39999389648</ele>
        <time>2020-10-18T10:39:41.000Z</time>
      </trkpt>
      <trkpt lat="48.24793" lon="-3.4116">
        <ele>186.39999389648</ele>
        <time>2020-10-18T10:39:42.000Z</time>
      </trkpt>
      <trkpt lat="48.24807" lon="-3.41171">
        <ele>186.19999694824</ele>
        <time>2020-10-18T10:39:43.000Z</time>
      </trkpt>
      <trkpt lat="48.24807" lon="-3.41171">
        <ele>186.19999694824</ele>
        <time>2020-10-18T10:39:44.000Z</time>
      </trkpt>
      <trkpt lat="48.24821" lon="-3.41182">
        <ele>186.19999694824</ele>
        <time>2020-10-18T10:39:45.000Z</time>
      </trkpt>
      <trkpt lat="48.24821" lon="-3.41182">
        <ele>186.19999694824</ele>
        <time>2020-10-18T10:39:46.000Z</time>
      </trkpt>
      <trkpt lat="48.24835" lon="-3.41193">
        <ele>186.19999694824</ele>
        <time>2020-10-18T10:39:47.000Z</time>
      </trkpt>
      <trkpt lat="48.24835" lon="-3.41193">
        <ele>186.19999694824</ele>
        <time>2020-10-18T10:39:48.000Z</time>
      </trkpt>
      <trkpt lat="48.24849" lon="-3.41202">
        <ele>186.19999694824</ele>
        <time>2020-10-18T10:39:49.000Z</time>
      </trkpt>
      <trkpt lat="48.24849" lon="-3.41202">
        <ele>186.19999694824</ele>
        <time>2020-10-18T10:39:50.000Z</time>
      </trkpt>
      <trkpt lat="48.2486" lon="-3.4121">
        <ele>186</ele>
        <time>2020-10-18T10:39:51.000Z</time>
      </trkpt>
      <trkpt lat="48.24865" lon="-3.41214">
        <ele>185.80000305176</ele>
        <time>2020-10-18T10:39:52.000Z</time>
      </trkpt>
      <trkpt lat="48.24865" lon="-3.41214">
        <ele>185.80000305176</ele>
        <time>2020-10-18T10:39:53.000Z</time>
      </trkpt>
      <trkpt lat="48.24876" lon="-3.4122">
        <ele>185.60000610352</ele>
        <time>2020-10-18T10:39:54.000Z</time>
      </trkpt>
      <trkpt lat="48.24876" lon="-3.4122">
        <ele>185.60000610352</ele>
        <time>2020-10-18T10:39:55.000Z</time>
      </trkpt>
      <trkpt lat="48.2488" lon="-3.41224">
        <ele>185.39999389648</ele>
        <time>2020-10-18T10:39:56.000Z</time>
      </trkpt>
      <trkpt lat="48.24889" lon="-3.41231">
        <ele>185.19999694824</ele>
        <time>2020-10-18T10:39:57.000Z</time>
      </trkpt>
      <trkpt lat="48.24889" lon="-3.41231">
        <ele>185.19999694824</ele>
        <time>2020-10-18T10:39:58.000Z</time>
      </trkpt>
      <trkpt lat="48.24893" lon="-3.41234">
        <ele>185</ele>
        <time>2020-10-18T10:39:59.000Z</time>
      </trkpt>
      <trkpt lat="48.24902" lon="-3.41241">
        <ele>184.39999389648</ele>
        <time>2020-10-18T10:40:00.000Z</time>
      </trkpt>
      <trkpt lat="48.24902" lon="-3.41241">
        <ele>184.39999389648</ele>
        <time>2020-10-18T10:40:01.000Z</time>
      </trkpt>
      <trkpt lat="48.24907" lon="-3.41244">
        <ele>184.19999694824</ele>
        <time>2020-10-18T10:40:02.000Z</time>
      </trkpt>
      <trkpt lat="48.24917" lon="-3.41252">
        <ele>183.80000305176</ele>
        <time>2020-10-18T10:40:03.000Z</time>
      </trkpt>
      <trkpt lat="48.24917" lon="-3.41252">
        <ele>183.80000305176</ele>
        <time>2020-10-18T10:40:04.000Z</time>
      </trkpt>
      <trkpt lat="48.24928" lon="-3.4126">
        <ele>183.19999694824</ele>
        <time>2020-10-18T10:40:05.000Z</time>
      </trkpt>
      <trkpt lat="48.24928" lon="-3.4126">
        <ele>183.19999694824</ele>
        <time>2020-10-18T10:40:06.000Z</time>
      </trkpt>
      <trkpt lat="48.24933" lon="-3.41264">
        <ele>183</ele>
        <time>2020-10-18T10:40:07.000Z</time>
      </trkpt>
      <trkpt lat="48.24944" lon="-3.41273">
        <ele>182</ele>
        <time>2020-10-18T10:40:08.000Z</time>
      </trkpt>
      <trkpt lat="48.24944" lon="-3.41273">
        <ele>182</ele>
        <time>2020-10-18T10:40:09.000Z</time>
      </trkpt>
      <trkpt lat="48.24949" lon="-3.41277">
        <ele>181.80000305176</ele>
        <time>2020-10-18T10:40:10.000Z</time>
      </trkpt>
      <trkpt lat="48.24958" lon="-3.41283">
        <ele>181</ele>
        <time>2020-10-18T10:40:11.000Z</time>
      </trkpt>
      <trkpt lat="48.24963" lon="-3.41286">
        <ele>180.80000305176</ele>
        <time>2020-10-18T10:40:12.000Z</time>
      </trkpt>
      <trkpt lat="48.24963" lon="-3.41286">
        <ele>180.80000305176</ele>
        <time>2020-10-18T10:40:13.000Z</time>
      </trkpt>
      <trkpt lat="48.24969" lon="-3.41288">
        <ele>180.39999389648</ele>
        <time>2020-10-18T10:40:14.000Z</time>
      </trkpt>
      <trkpt lat="48.24969" lon="-3.41288">
        <ele>180.39999389648</ele>
        <time>2020-10-18T10:40:15.000Z</time>
      </trkpt>
      <trkpt lat="48.24975" lon="-3.41285">
        <ele>180.39999389648</ele>
        <time>2020-10-18T10:40:16.000Z</time>
      </trkpt>
      <trkpt lat="48.24975" lon="-3.41285">
        <ele>180.39999389648</ele>
        <time>2020-10-18T10:40:17.000Z</time>
      </trkpt>
      <trkpt lat="48.24981" lon="-3.41278">
        <ele>180.39999389648</ele>
        <time>2020-10-18T10:40:18.000Z</time>
      </trkpt>
      <trkpt lat="48.24981" lon="-3.41278">
        <ele>180.39999389648</ele>
        <time>2020-10-18T10:40:19.000Z</time>
      </trkpt>
      <trkpt lat="48.24984" lon="-3.41274">
        <ele>180.60000610352</ele>
        <time>2020-10-18T10:40:20.000Z</time>
      </trkpt>
      <trkpt lat="48.24989" lon="-3.41266">
        <ele>180.80000305176</ele>
        <time>2020-10-18T10:40:21.000Z</time>
      </trkpt>
      <trkpt lat="48.24989" lon="-3.41266">
        <ele>180.80000305176</ele>
        <time>2020-10-18T10:40:22.000Z</time>
      </trkpt>
      <trkpt lat="48.24995" lon="-3.41257">
        <ele>181</ele>
        <time>2020-10-18T10:40:23.000Z</time>
      </trkpt>
      <trkpt lat="48.24995" lon="-3.41257">
        <ele>181</ele>
        <time>2020-10-18T10:40:24.000Z</time>
      </trkpt>
      <trkpt lat="48.25001" lon="-3.41247">
        <ele>181.19999694824</ele>
        <time>2020-10-18T10:40:25.000Z</time>
      </trkpt>
      <trkpt lat="48.25001" lon="-3.41247">
        <ele>181.19999694824</ele>
        <time>2020-10-18T10:40:26.000Z</time>
      </trkpt>
      <trkpt lat="48.25004" lon="-3.41242">
        <ele>181.39999389648</ele>
        <time>2020-10-18T10:40:27.000Z</time>
      </trkpt>
      <trkpt lat="48.25011" lon="-3.41232">
        <ele>181.60000610352</ele>
        <time>2020-10-18T10:40:28.000Z</time>
      </trkpt>
      <trkpt lat="48.25011" lon="-3.41232">
        <ele>181.60000610352</ele>
        <time>2020-10-18T10:40:29.000Z</time>
      </trkpt>
      <trkpt lat="48.25018" lon="-3.41223">
        <ele>182.19999694824</ele>
        <time>2020-10-18T10:40:30.000Z</time>
      </trkpt>
      <trkpt lat="48.25018" lon="-3.41223">
        <ele>182.19999694824</ele>
        <time>2020-10-18T10:40:31.000Z</time>
      </trkpt>
      <trkpt lat="48.25021" lon="-3.41218">
        <ele>182.39999389648</ele>
        <time>2020-10-18T10:40:32.000Z</time>
      </trkpt>
      <trkpt lat="48.25028" lon="-3.4121">
        <ele>183</ele>
        <time>2020-10-18T10:40:33.000Z</time>
      </trkpt>
      <trkpt lat="48.25028" lon="-3.4121">
        <ele>183</ele>
        <time>2020-10-18T10:40:34.000Z</time>
      </trkpt>
      <trkpt lat="48.25036" lon="-3.41205">
        <ele>183.39999389648</ele>
        <time>2020-10-18T10:40:35.000Z</time>
      </trkpt>
      <trkpt lat="48.25036" lon="-3.41205">
        <ele>183.39999389648</ele>
        <time>2020-10-18T10:40:36.000Z</time>
      </trkpt>
      <trkpt lat="48.25044" lon="-3.41202">
        <ele>183.80000305176</ele>
        <time>2020-10-18T10:40:37.000Z</time>
      </trkpt>
      <trkpt lat="48.25044" lon="-3.41202">
        <ele>183.80000305176</ele>
        <time>2020-10-18T10:40:38.000Z</time>
      </trkpt>
      <trkpt lat="48.25048" lon="-3.41202">
        <ele>183.80000305176</ele>
        <time>2020-10-18T10:40:39.000Z</time>
      </trkpt>
      <trkpt lat="48.25056" lon="-3.41201">
        <ele>184.19999694824</ele>
        <time>2020-10-18T10:40:40.000Z</time>
      </trkpt>
      <trkpt lat="48.25056" lon="-3.41201">
        <ele>184.19999694824</ele>
        <time>2020-10-18T10:40:41.000Z</time>
      </trkpt>
      <trkpt lat="48.25063" lon="-3.41201">
        <ele>184.19999694824</ele>
        <time>2020-10-18T10:40:42.000Z</time>
      </trkpt>
      <trkpt lat="48.25063" lon="-3.41201">
        <ele>184.19999694824</ele>
        <time>2020-10-18T10:40:43.000Z</time>
      </trkpt>
      <trkpt lat="48.25071" lon="-3.41201">
        <ele>184.60000610352</ele>
        <time>2020-10-18T10:40:44.000Z</time>
      </trkpt>
      <trkpt lat="48.25071" lon="-3.41201">
        <ele>184.60000610352</ele>
        <time>2020-10-18T10:40:45.000Z</time>
      </trkpt>
      <trkpt lat="48.25075" lon="-3.412">
        <ele>184.60000610352</ele>
        <time>2020-10-18T10:40:46.000Z</time>
      </trkpt>
      <trkpt lat="48.25079" lon="-3.412">
        <ele>184.80000305176</ele>
        <time>2020-10-18T10:40:47.000Z</time>
      </trkpt>
      <trkpt lat="48.25083" lon="-3.412">
        <ele>185</ele>
        <time>2020-10-18T10:40:48.000Z</time>
      </trkpt>
      <trkpt lat="48.25091" lon="-3.41198">
        <ele>185.39999389648</ele>
        <time>2020-10-18T10:40:49.000Z</time>
      </trkpt>
      <trkpt lat="48.25091" lon="-3.41198">
        <ele>185.39999389648</ele>
        <time>2020-10-18T10:40:50.000Z</time>
      </trkpt>
      <trkpt lat="48.25099" lon="-3.41195">
        <ele>185.80000305176</ele>
        <time>2020-10-18T10:40:51.000Z</time>
      </trkpt>
      <trkpt lat="48.25099" lon="-3.41195">
        <ele>185.80000305176</ele>
        <time>2020-10-18T10:40:52.000Z</time>
      </trkpt>
      <trkpt lat="48.25103" lon="-3.41192">
        <ele>185.80000305176</ele>
        <time>2020-10-18T10:40:53.000Z</time>
      </trkpt>
      <trkpt lat="48.25111" lon="-3.41187">
        <ele>186</ele>
        <time>2020-10-18T10:40:54.000Z</time>
      </trkpt>
      <trkpt lat="48.25111" lon="-3.41187">
        <ele>186</ele>
        <time>2020-10-18T10:40:55.000Z</time>
      </trkpt>
      <trkpt lat="48.25114" lon="-3.41184">
        <ele>186.19999694824</ele>
        <time>2020-10-18T10:40:56.000Z</time>
      </trkpt>
      <trkpt lat="48.25121" lon="-3.41177">
        <ele>186.19999694824</ele>
        <time>2020-10-18T10:40:57.000Z</time>
      </trkpt>
      <trkpt lat="48.25121" lon="-3.41177">
        <ele>186.19999694824</ele>
        <time>2020-10-18T10:40:58.000Z</time>
      </trkpt>
      <trkpt lat="48.25124" lon="-3.41173">
        <ele>186.19999694824</ele>
        <time>2020-10-18T10:40:59.000Z</time>
      </trkpt>
      <trkpt lat="48.2513" lon="-3.41165">
        <ele>186</ele>
        <time>2020-10-18T10:41:00.000Z</time>
      </trkpt>
      <trkpt lat="48.2513" lon="-3.41165">
        <ele>186</ele>
        <time>2020-10-18T10:41:01.000Z</time>
      </trkpt>
      <trkpt lat="48.25133" lon="-3.41161">
        <ele>186</ele>
        <time>2020-10-18T10:41:02.000Z</time>
      </trkpt>
      <trkpt lat="48.25137" lon="-3.41153">
        <ele>185.80000305176</ele>
        <time>2020-10-18T10:41:03.000Z</time>
      </trkpt>
      <trkpt lat="48.25137" lon="-3.41153">
        <ele>185.80000305176</ele>
        <time>2020-10-18T10:41:04.000Z</time>
      </trkpt>
      <trkpt lat="48.2514" lon="-3.41149">
        <ele>185.80000305176</ele>
        <time>2020-10-18T10:41:05.000Z</time>
      </trkpt>
      <trkpt lat="48.25144" lon="-3.41142">
        <ele>185.60000610352</ele>
        <time>2020-10-18T10:41:06.000Z</time>
      </trkpt>
      <trkpt lat="48.25144" lon="-3.41142">
        <ele>185.60000610352</ele>
        <time>2020-10-18T10:41:07.000Z</time>
      </trkpt>
      <trkpt lat="48.25149" lon="-3.41134">
        <ele>185.39999389648</ele>
        <time>2020-10-18T10:41:08.000Z</time>
      </trkpt>
      <trkpt lat="48.25149" lon="-3.41134">
        <ele>185.39999389648</ele>
        <time>2020-10-18T10:41:09.000Z</time>
      </trkpt>
      <trkpt lat="48.25151" lon="-3.4113">
        <ele>185.39999389648</ele>
        <time>2020-10-18T10:41:10.000Z</time>
      </trkpt>
      <trkpt lat="48.25155" lon="-3.41122">
        <ele>185.19999694824</ele>
        <time>2020-10-18T10:41:11.000Z</time>
      </trkpt>
      <trkpt lat="48.25155" lon="-3.41122">
        <ele>185.19999694824</ele>
        <time>2020-10-18T10:41:12.000Z</time>
      </trkpt>
      <trkpt lat="48.25157" lon="-3.41118">
        <ele>185.39999389648</ele>
        <time>2020-10-18T10:41:13.000Z</time>
      </trkpt>
      <trkpt lat="48.25161" lon="-3.41109">
        <ele>185.39999389648</ele>
        <time>2020-10-18T10:41:14.000Z</time>
      </trkpt>
      <trkpt lat="48.25161" lon="-3.41109">
        <ele>185.39999389648</ele>
        <time>2020-10-18T10:41:15.000Z</time>
      </trkpt>
      <trkpt lat="48.25163" lon="-3.41104">
        <ele>185.39999389648</ele>
        <time>2020-10-18T10:41:16.000Z</time>
      </trkpt>
      <trkpt lat="48.25168" lon="-3.41095">
        <ele>185.19999694824</ele>
        <time>2020-10-18T10:41:17.000Z</time>
      </trkpt>
      <trkpt lat="48.25168" lon="-3.41095">
        <ele>185.19999694824</ele>
        <time>2020-10-18T10:41:18.000Z</time>
      </trkpt>
      <trkpt lat="48.25172" lon="-3.41087">
        <ele>185.19999694824</ele>
        <time>2020-10-18T10:41:19.000Z</time>
      </trkpt>
      <trkpt lat="48.25172" lon="-3.41087">
        <ele>185.19999694824</ele>
        <time>2020-10-18T10:41:20.000Z</time>
      </trkpt>
      <trkpt lat="48.25175" lon="-3.41083">
        <ele>185.19999694824</ele>
        <time>2020-10-18T10:41:21.000Z</time>
      </trkpt>
      <trkpt lat="48.25179" lon="-3.41074">
        <ele>185</ele>
        <time>2020-10-18T10:41:22.000Z</time>
      </trkpt>
      <trkpt lat="48.25179" lon="-3.41074">
        <ele>185</ele>
        <time>2020-10-18T10:41:23.000Z</time>
      </trkpt>
      <trkpt lat="48.25181" lon="-3.41069">
        <ele>185</ele>
        <time>2020-10-18T10:41:24.000Z</time>
      </trkpt>
      <trkpt lat="48.25185" lon="-3.4106">
        <ele>185.19999694824</ele>
        <time>2020-10-18T10:41:25.000Z</time>
      </trkpt>
      <trkpt lat="48.25185" lon="-3.4106">
        <ele>185.19999694824</ele>
        <time>2020-10-18T10:41:26.000Z</time>
      </trkpt>
      <trkpt lat="48.25187" lon="-3.41055">
        <ele>185.19999694824</ele>
        <time>2020-10-18T10:41:27.000Z</time>
      </trkpt>
      <trkpt lat="48.25192" lon="-3.41045">
        <ele>185.19999694824</ele>
        <time>2020-10-18T10:41:28.000Z</time>
      </trkpt>
      <trkpt lat="48.25192" lon="-3.41045">
        <ele>185.19999694824</ele>
        <time>2020-10-18T10:41:29.000Z</time>
      </trkpt>
      <trkpt lat="48.25194" lon="-3.41041">
        <ele>185.39999389648</ele>
        <time>2020-10-18T10:41:30.000Z</time>
      </trkpt>
      <trkpt lat="48.25198" lon="-3.41032">
        <ele>185.39999389648</ele>
        <time>2020-10-18T10:41:31.000Z</time>
      </trkpt>
      <trkpt lat="48.25198" lon="-3.41032">
        <ele>185.39999389648</ele>
        <time>2020-10-18T10:41:32.000Z</time>
      </trkpt>
      <trkpt lat="48.252" lon="-3.41027">
        <ele>185.39999389648</ele>
        <time>2020-10-18T10:41:33.000Z</time>
      </trkpt>
      <trkpt lat="48.25204" lon="-3.41019">
        <ele>185.60000610352</ele>
        <time>2020-10-18T10:41:34.000Z</time>
      </trkpt>
      <trkpt lat="48.25204" lon="-3.41019">
        <ele>185.60000610352</ele>
        <time>2020-10-18T10:41:35.000Z</time>
      </trkpt>
      <trkpt lat="48.25206" lon="-3.41015">
        <ele>185.60000610352</ele>
        <time>2020-10-18T10:41:36.000Z</time>
      </trkpt>
      <trkpt lat="48.25209" lon="-3.41007">
        <ele>185.80000305176</ele>
        <time>2020-10-18T10:41:37.000Z</time>
      </trkpt>
      <trkpt lat="48.25209" lon="-3.41007">
        <ele>185.80000305176</ele>
        <time>2020-10-18T10:41:38.000Z</time>
      </trkpt>
      <trkpt lat="48.2521" lon="-3.41003">
        <ele>185.80000305176</ele>
        <time>2020-10-18T10:41:39.000Z</time>
      </trkpt>
      <trkpt lat="48.25214" lon="-3.40995">
        <ele>185.80000305176</ele>
        <time>2020-10-18T10:41:40.000Z</time>
      </trkpt>
      <trkpt lat="48.25214" lon="-3.40995">
        <ele>185.80000305176</ele>
        <time>2020-10-18T10:41:41.000Z</time>
      </trkpt>
      <trkpt lat="48.25218" lon="-3.40986">
        <ele>186</ele>
        <time>2020-10-18T10:41:42.000Z</time>
      </trkpt>
      <trkpt lat="48.25218" lon="-3.40986">
        <ele>186</ele>
        <time>2020-10-18T10:41:43.000Z</time>
      </trkpt>
      <trkpt lat="48.25219" lon="-3.40982">
        <ele>186</ele>
        <time>2020-10-18T10:41:44.000Z</time>
      </trkpt>
      <trkpt lat="48.25222" lon="-3.40974">
        <ele>186</ele>
        <time>2020-10-18T10:41:45.000Z</time>
      </trkpt>
      <trkpt lat="48.25222" lon="-3.40974">
        <ele>186</ele>
        <time>2020-10-18T10:41:46.000Z</time>
      </trkpt>
      <trkpt lat="48.25225" lon="-3.40966">
        <ele>186.39999389648</ele>
        <time>2020-10-18T10:41:47.000Z</time>
      </trkpt>
      <trkpt lat="48.25225" lon="-3.40966">
        <ele>186.39999389648</ele>
        <time>2020-10-18T10:41:48.000Z</time>
      </trkpt>
      <trkpt lat="48.25228" lon="-3.40957">
        <ele>186.80000305176</ele>
        <time>2020-10-18T10:41:49.000Z</time>
      </trkpt>
      <trkpt lat="48.25229" lon="-3.40953">
        <ele>187</ele>
        <time>2020-10-18T10:41:50.000Z</time>
      </trkpt>
      <trkpt lat="48.25229" lon="-3.40953">
        <ele>187</ele>
        <time>2020-10-18T10:41:51.000Z</time>
      </trkpt>
      <trkpt lat="48.2523" lon="-3.40948">
        <ele>187.19999694824</ele>
        <time>2020-10-18T10:41:52.000Z</time>
      </trkpt>
      <trkpt lat="48.25231" lon="-3.40939">
        <ele>187.60000610352</ele>
        <time>2020-10-18T10:41:53.000Z</time>
      </trkpt>
      <trkpt lat="48.25231" lon="-3.40939">
        <ele>187.60000610352</ele>
        <time>2020-10-18T10:41:54.000Z</time>
      </trkpt>
      <trkpt lat="48.25232" lon="-3.40935">
        <ele>188</ele>
        <time>2020-10-18T10:41:55.000Z</time>
      </trkpt>
      <trkpt lat="48.25233" lon="-3.40926">
        <ele>188.19999694824</ele>
        <time>2020-10-18T10:41:56.000Z</time>
      </trkpt>
      <trkpt lat="48.25233" lon="-3.40926">
        <ele>188.19999694824</ele>
        <time>2020-10-18T10:41:57.000Z</time>
      </trkpt>
      <trkpt lat="48.25234" lon="-3.40921">
        <ele>188.19999694824</ele>
        <time>2020-10-18T10:41:58.000Z</time>
      </trkpt>
      <trkpt lat="48.25235" lon="-3.40912">
        <ele>188.19999694824</ele>
        <time>2020-10-18T10:41:59.000Z</time>
      </trkpt>
      <trkpt lat="48.25235" lon="-3.40912">
        <ele>188.19999694824</ele>
        <time>2020-10-18T10:42:00.000Z</time>
      </trkpt>
      <trkpt lat="48.25235" lon="-3.40907">
        <ele>188.19999694824</ele>
        <time>2020-10-18T10:42:01.000Z</time>
      </trkpt>
      <trkpt lat="48.25236" lon="-3.40898">
        <ele>188.39999389648</ele>
        <time>2020-10-18T10:42:02.000Z</time>
      </trkpt>
      <trkpt lat="48.25236" lon="-3.40898">
        <ele>188.39999389648</ele>
        <time>2020-10-18T10:42:03.000Z</time>
      </trkpt>
      <trkpt lat="48.25236" lon="-3.40888">
        <ele>188.39999389648</ele>
        <time>2020-10-18T10:42:04.000Z</time>
      </trkpt>
      <trkpt lat="48.25236" lon="-3.40888">
        <ele>188.39999389648</ele>
        <time>2020-10-18T10:42:05.000Z</time>
      </trkpt>
      <trkpt lat="48.25236" lon="-3.40883">
        <ele>188.60000610352</ele>
        <time>2020-10-18T10:42:06.000Z</time>
      </trkpt>
      <trkpt lat="48.25236" lon="-3.40874">
        <ele>188.60000610352</ele>
        <time>2020-10-18T10:42:07.000Z</time>
      </trkpt>
      <trkpt lat="48.25236" lon="-3.40874">
        <ele>188.60000610352</ele>
        <time>2020-10-18T10:42:08.000Z</time>
      </trkpt>
      <trkpt lat="48.25237" lon="-3.40864">
        <ele>188.80000305176</ele>
        <time>2020-10-18T10:42:09.000Z</time>
      </trkpt>
      <trkpt lat="48.25237" lon="-3.40859">
        <ele>188.80000305176</ele>
        <time>2020-10-18T10:42:10.000Z</time>
      </trkpt>
      <trkpt lat="48.25237" lon="-3.40859">
        <ele>188.80000305176</ele>
        <time>2020-10-18T10:42:11.000Z</time>
      </trkpt>
      <trkpt lat="48.25237" lon="-3.40855">
        <ele>188.80000305176</ele>
        <time>2020-10-18T10:42:12.000Z</time>
      </trkpt>
      <trkpt lat="48.25238" lon="-3.40845">
        <ele>189</ele>
        <time>2020-10-18T10:42:13.000Z</time>
      </trkpt>
      <trkpt lat="48.25238" lon="-3.40845">
        <ele>189</ele>
        <time>2020-10-18T10:42:14.000Z</time>
      </trkpt>
      <trkpt lat="48.25239" lon="-3.40841">
        <ele>189</ele>
        <time>2020-10-18T10:42:15.000Z</time>
      </trkpt>
      <trkpt lat="48.2524" lon="-3.40833">
        <ele>189.19999694824</ele>
        <time>2020-10-18T10:42:16.000Z</time>
      </trkpt>
      <trkpt lat="48.2524" lon="-3.40833">
        <ele>189.19999694824</ele>
        <time>2020-10-18T10:42:17.000Z</time>
      </trkpt>
      <trkpt lat="48.25241" lon="-3.4083">
        <ele>189.19999694824</ele>
        <time>2020-10-18T10:42:18.000Z</time>
      </trkpt>
      <trkpt lat="48.25245" lon="-3.40828">
        <ele>189.19999694824</ele>
        <time>2020-10-18T10:42:19.000Z</time>
      </trkpt>
      <trkpt lat="48.25245" lon="-3.40828">
        <ele>189.19999694824</ele>
        <time>2020-10-18T10:42:20.000Z</time>
      </trkpt>
      <trkpt lat="48.25248" lon="-3.40828">
        <ele>189</ele>
        <time>2020-10-18T10:42:21.000Z</time>
      </trkpt>
      <trkpt lat="48.25252" lon="-3.40831">
        <ele>188.80000305176</ele>
        <time>2020-10-18T10:42:22.000Z</time>
      </trkpt>
      <trkpt lat="48.25252" lon="-3.40831">
        <ele>188.80000305176</ele>
        <time>2020-10-18T10:42:23.000Z</time>
      </trkpt>
      <trkpt lat="48.25254" lon="-3.40833">
        <ele>188.60000610352</ele>
        <time>2020-10-18T10:42:24.000Z</time>
      </trkpt>
      <trkpt lat="48.25259" lon="-3.40838">
        <ele>188.39999389648</ele>
        <time>2020-10-18T10:42:25.000Z</time>
      </trkpt>
      <trkpt lat="48.25259" lon="-3.40838">
        <ele>188.39999389648</ele>
        <time>2020-10-18T10:42:26.000Z</time>
      </trkpt>
      <trkpt lat="48.25262" lon="-3.4084">
        <ele>188.19999694824</ele>
        <time>2020-10-18T10:42:27.000Z</time>
      </trkpt>
      <trkpt lat="48.25268" lon="-3.40845">
        <ele>188.60000610352</ele>
        <time>2020-10-18T10:42:28.000Z</time>
      </trkpt>
      <trkpt lat="48.25268" lon="-3.40845">
        <ele>188.60000610352</ele>
        <time>2020-10-18T10:42:29.000Z</time>
      </trkpt>
      <trkpt lat="48.25271" lon="-3.40848">
        <ele>188.60000610352</ele>
        <time>2020-10-18T10:42:30.000Z</time>
      </trkpt>
      <trkpt lat="48.25277" lon="-3.40853">
        <ele>189</ele>
        <time>2020-10-18T10:42:31.000Z</time>
      </trkpt>
      <trkpt lat="48.25277" lon="-3.40853">
        <ele>189</ele>
        <time>2020-10-18T10:42:32.000Z</time>
      </trkpt>
      <trkpt lat="48.25283" lon="-3.40857">
        <ele>189.39999389648</ele>
        <time>2020-10-18T10:42:33.000Z</time>
      </trkpt>
      <trkpt lat="48.25283" lon="-3.40857">
        <ele>189.39999389648</ele>
        <time>2020-10-18T10:42:34.000Z</time>
      </trkpt>
      <trkpt lat="48.25286" lon="-3.40859">
        <ele>189.60000610352</ele>
        <time>2020-10-18T10:42:35.000Z</time>
      </trkpt>
      <trkpt lat="48.25291" lon="-3.40862">
        <ele>189.80000305176</ele>
        <time>2020-10-18T10:42:36.000Z</time>
      </trkpt>
      <trkpt lat="48.25291" lon="-3.40862">
        <ele>189.80000305176</ele>
        <time>2020-10-18T10:42:37.000Z</time>
      </trkpt>
      <trkpt lat="48.25294" lon="-3.40864">
        <ele>190</ele>
        <time>2020-10-18T10:42:38.000Z</time>
      </trkpt>
      <trkpt lat="48.25299" lon="-3.40866">
        <ele>190.39999389648</ele>
        <time>2020-10-18T10:42:39.000Z</time>
      </trkpt>
      <trkpt lat="48.25299" lon="-3.40866">
        <ele>190.39999389648</ele>
        <time>2020-10-18T10:42:40.000Z</time>
      </trkpt>
      <trkpt lat="48.25302" lon="-3.40867">
        <ele>190.60000610352</ele>
        <time>2020-10-18T10:42:41.000Z</time>
      </trkpt>
      <trkpt lat="48.25308" lon="-3.4087">
        <ele>191</ele>
        <time>2020-10-18T10:42:42.000Z</time>
      </trkpt>
      <trkpt lat="48.25308" lon="-3.4087">
        <ele>191</ele>
        <time>2020-10-18T10:42:43.000Z</time>
      </trkpt>
      <trkpt lat="48.25313" lon="-3.40872">
        <ele>191.39999389648</ele>
        <time>2020-10-18T10:42:44.000Z</time>
      </trkpt>
      <trkpt lat="48.25313" lon="-3.40872">
        <ele>191.39999389648</ele>
        <time>2020-10-18T10:42:45.000Z</time>
      </trkpt>
      <trkpt lat="48.25315" lon="-3.40873">
        <ele>191.60000610352</ele>
        <time>2020-10-18T10:42:46.000Z</time>
      </trkpt>
      <trkpt lat="48.25318" lon="-3.40874">
        <ele>191.60000610352</ele>
        <time>2020-10-18T10:42:47.000Z</time>
      </trkpt>
      <trkpt lat="48.25321" lon="-3.40875">
        <ele>191.80000305176</ele>
        <time>2020-10-18T10:42:48.000Z</time>
      </trkpt>
      <trkpt lat="48.25326" lon="-3.40876">
        <ele>192.19999694824</ele>
        <time>2020-10-18T10:42:49.000Z</time>
      </trkpt>
      <trkpt lat="48.25326" lon="-3.40876">
        <ele>192.19999694824</ele>
        <time>2020-10-18T10:42:50.000Z</time>
      </trkpt>
      <trkpt lat="48.25329" lon="-3.40877">
        <ele>192.39999389648</ele>
        <time>2020-10-18T10:42:51.000Z</time>
      </trkpt>
      <trkpt lat="48.25334" lon="-3.40877">
        <ele>192.80000305176</ele>
        <time>2020-10-18T10:42:52.000Z</time>
      </trkpt>
      <trkpt lat="48.25334" lon="-3.40877">
        <ele>192.80000305176</ele>
        <time>2020-10-18T10:42:53.000Z</time>
      </trkpt>
      <trkpt lat="48.25336" lon="-3.40878">
        <ele>193</ele>
        <time>2020-10-18T10:42:54.000Z</time>
      </trkpt>
      <trkpt lat="48.25341" lon="-3.40878">
        <ele>193.19999694824</ele>
        <time>2020-10-18T10:42:55.000Z</time>
      </trkpt>
      <trkpt lat="48.25341" lon="-3.40878">
        <ele>193.19999694824</ele>
        <time>2020-10-18T10:42:56.000Z</time>
      </trkpt>
      <trkpt lat="48.25343" lon="-3.40879">
        <ele>193.39999389648</ele>
        <time>2020-10-18T10:42:57.000Z</time>
      </trkpt>
      <trkpt lat="48.25348" lon="-3.40879">
        <ele>193.80000305176</ele>
        <time>2020-10-18T10:42:58.000Z</time>
      </trkpt>
      <trkpt lat="48.25348" lon="-3.40879">
        <ele>193.80000305176</ele>
        <time>2020-10-18T10:42:59.000Z</time>
      </trkpt>
      <trkpt lat="48.25351" lon="-3.4088">
        <ele>194</ele>
        <time>2020-10-18T10:43:00.000Z</time>
      </trkpt>
      <trkpt lat="48.25355" lon="-3.4088">
        <ele>194.60000610352</ele>
        <time>2020-10-18T10:43:01.000Z</time>
      </trkpt>
      <trkpt lat="48.25355" lon="-3.4088">
        <ele>194.60000610352</ele>
        <time>2020-10-18T10:43:02.000Z</time>
      </trkpt>
      <trkpt lat="48.25358" lon="-3.4088">
        <ele>194.80000305176</ele>
        <time>2020-10-18T10:43:03.000Z</time>
      </trkpt>
      <trkpt lat="48.25362" lon="-3.4088">
        <ele>195.19999694824</ele>
        <time>2020-10-18T10:43:04.000Z</time>
      </trkpt>
      <trkpt lat="48.25362" lon="-3.4088">
        <ele>195.19999694824</ele>
        <time>2020-10-18T10:43:05.000Z</time>
      </trkpt>
      <trkpt lat="48.25365" lon="-3.4088">
        <ele>195.39999389648</ele>
        <time>2020-10-18T10:43:06.000Z</time>
      </trkpt>
      <trkpt lat="48.2537" lon="-3.4088">
        <ele>196</ele>
        <time>2020-10-18T10:43:07.000Z</time>
      </trkpt>
      <trkpt lat="48.2537" lon="-3.4088">
        <ele>196</ele>
        <time>2020-10-18T10:43:08.000Z</time>
      </trkpt>
      <trkpt lat="48.25373" lon="-3.4088">
        <ele>196.19999694824</ele>
        <time>2020-10-18T10:43:09.000Z</time>
      </trkpt>
      <trkpt lat="48.25378" lon="-3.4088">
        <ele>196.60000610352</ele>
        <time>2020-10-18T10:43:10.000Z</time>
      </trkpt>
      <trkpt lat="48.25378" lon="-3.4088">
        <ele>196.60000610352</ele>
        <time>2020-10-18T10:43:11.000Z</time>
      </trkpt>
      <trkpt lat="48.2538" lon="-3.4088">
        <ele>196.80000305176</ele>
        <time>2020-10-18T10:43:12.000Z</time>
      </trkpt>
      <trkpt lat="48.25385" lon="-3.4088">
        <ele>197.39999389648</ele>
        <time>2020-10-18T10:43:13.000Z</time>
      </trkpt>
      <trkpt lat="48.25385" lon="-3.4088">
        <ele>197.39999389648</ele>
        <time>2020-10-18T10:43:14.000Z</time>
      </trkpt>
      <trkpt lat="48.25387" lon="-3.4088">
        <ele>197.60000610352</ele>
        <time>2020-10-18T10:43:15.000Z</time>
      </trkpt>
      <trkpt lat="48.25392" lon="-3.40881">
        <ele>198</ele>
        <time>2020-10-18T10:43:16.000Z</time>
      </trkpt>
      <trkpt lat="48.25392" lon="-3.40881">
        <ele>198</ele>
        <time>2020-10-18T10:43:17.000Z</time>
      </trkpt>
      <trkpt lat="48.25397" lon="-3.40881">
        <ele>198.39999389648</ele>
        <time>2020-10-18T10:43:18.000Z</time>
      </trkpt>
      <trkpt lat="48.25397" lon="-3.40881">
        <ele>198.39999389648</ele>
        <time>2020-10-18T10:43:19.000Z</time>
      </trkpt>
      <trkpt lat="48.25399" lon="-3.40881">
        <ele>198.60000610352</ele>
        <time>2020-10-18T10:43:20.000Z</time>
      </trkpt>
      <trkpt lat="48.25404" lon="-3.40881">
        <ele>199</ele>
        <time>2020-10-18T10:43:21.000Z</time>
      </trkpt>
      <trkpt lat="48.25404" lon="-3.40881">
        <ele>199</ele>
        <time>2020-10-18T10:43:22.000Z</time>
      </trkpt>
      <trkpt lat="48.25407" lon="-3.40881">
        <ele>199.19999694824</ele>
        <time>2020-10-18T10:43:23.000Z</time>
      </trkpt>
      <trkpt lat="48.25412" lon="-3.40881">
        <ele>199.60000610352</ele>
        <time>2020-10-18T10:43:24.000Z</time>
      </trkpt>
      <trkpt lat="48.25412" lon="-3.40881">
        <ele>199.60000610352</ele>
        <time>2020-10-18T10:43:25.000Z</time>
      </trkpt>
      <trkpt lat="48.25414" lon="-3.40881">
        <ele>199.80000305176</ele>
        <time>2020-10-18T10:43:26.000Z</time>
      </trkpt>
      <trkpt lat="48.25419" lon="-3.40881">
        <ele>200</ele>
        <time>2020-10-18T10:43:27.000Z</time>
      </trkpt>
      <trkpt lat="48.25421" lon="-3.40882">
        <ele>200.19999694824</ele>
        <time>2020-10-18T10:43:28.000Z</time>
      </trkpt>
      <trkpt lat="48.25421" lon="-3.40882">
        <ele>200.19999694824</ele>
        <time>2020-10-18T10:43:29.000Z</time>
      </trkpt>
      <trkpt lat="48.25423" lon="-3.40882">
        <ele>200.39999389648</ele>
        <time>2020-10-18T10:43:30.000Z</time>
      </trkpt>
      <trkpt lat="48.25428" lon="-3.40882">
        <ele>200.60000610352</ele>
        <time>2020-10-18T10:43:31.000Z</time>
      </trkpt>
      <trkpt lat="48.25428" lon="-3.40882">
        <ele>200.60000610352</ele>
        <time>2020-10-18T10:43:32.000Z</time>
      </trkpt>
      <trkpt lat="48.2543" lon="-3.40882">
        <ele>200.80000305176</ele>
        <time>2020-10-18T10:43:33.000Z</time>
      </trkpt>
      <trkpt lat="48.25435" lon="-3.40882">
        <ele>200.80000305176</ele>
        <time>2020-10-18T10:43:34.000Z</time>
      </trkpt>
      <trkpt lat="48.25435" lon="-3.40882">
        <ele>200.80000305176</ele>
        <time>2020-10-18T10:43:35.000Z</time>
      </trkpt>
      <trkpt lat="48.25436" lon="-3.40881">
        <ele>200.80000305176</ele>
        <time>2020-10-18T10:43:36.000Z</time>
      </trkpt>
      <trkpt lat="48.25437" lon="-3.40881">
        <ele>200.80000305176</ele>
        <time>2020-10-18T10:43:37.000Z</time>
      </trkpt>
      <trkpt lat="48.25437" lon="-3.40881">
        <ele>200.80000305176</ele>
        <time>2020-10-18T10:43:38.000Z</time>
      </trkpt>
      <trkpt lat="48.25437" lon="-3.40881">
        <ele>200.80000305176</ele>
        <time>2020-10-18T10:43:39.000Z</time>
      </trkpt>
      <trkpt lat="48.25437" lon="-3.40881">
        <ele>200.80000305176</ele>
        <time>2020-10-18T10:43:40.000Z</time>
      </trkpt>
      <trkpt lat="48.25437" lon="-3.40881">
        <ele>200.80000305176</ele>
        <time>2020-10-18T10:43:41.000Z</time>
      </trkpt>
      <trkpt lat="48.25437" lon="-3.40881">
        <ele>200.80000305176</ele>
        <time>2020-10-18T10:43:42.000Z</time>
      </trkpt>
      <trkpt lat="48.25437" lon="-3.40881">
        <ele>200.80000305176</ele>
        <time>2020-10-18T10:43:43.000Z</time>
      </trkpt>
      <trkpt lat="48.25437" lon="-3.4088">
        <ele>200.80000305176</ele>
        <time>2020-10-18T10:43:44.000Z</time>
      </trkpt>
      <trkpt lat="48.25437" lon="-3.4088">
        <ele>200.80000305176</ele>
        <time>2020-10-18T10:43:45.000Z</time>
      </trkpt>
      <trkpt lat="48.25437" lon="-3.4088">
        <ele>200.80000305176</ele>
        <time>2020-10-18T10:43:46.000Z</time>
      </trkpt>
      <trkpt lat="48.25436" lon="-3.40881">
        <ele>200.80000305176</ele>
        <time>2020-10-18T10:43:47.000Z</time>
      </trkpt>
      <trkpt lat="48.25435" lon="-3.40881">
        <ele>200.80000305176</ele>
        <time>2020-10-18T10:43:48.000Z</time>
      </trkpt>
      <trkpt lat="48.25435" lon="-3.40881">
        <ele>200.80000305176</ele>
        <time>2020-10-18T10:43:49.000Z</time>
      </trkpt>
      <trkpt lat="48.25434" lon="-3.40882">
        <ele>200.80000305176</ele>
        <time>2020-10-18T10:43:50.000Z</time>
      </trkpt>
      <trkpt lat="48.25434" lon="-3.40882">
        <ele>200.80000305176</ele>
        <time>2020-10-18T10:43:51.000Z</time>
      </trkpt>
      <trkpt lat="48.25434" lon="-3.40882">
        <ele>200.80000305176</ele>
        <time>2020-10-18T10:43:52.000Z</time>
      </trkpt>
      <trkpt lat="48.25434" lon="-3.40882">
        <ele>200.80000305176</ele>
        <time>2020-10-18T10:43:53.000Z</time>
      </trkpt>
      <trkpt lat="48.25433" lon="-3.40882">
        <ele>200.80000305176</ele>
        <time>2020-10-18T10:43:54.000Z</time>
      </trkpt>
      <trkpt lat="48.25433" lon="-3.40882">
        <ele>200.80000305176</ele>
        <time>2020-10-18T10:43:55.000Z</time>
      </trkpt>
      <trkpt lat="48.25433" lon="-3.40882">
        <ele>200.80000305176</ele>
        <time>2020-10-18T10:43:56.000Z</time>
      </trkpt>
      <trkpt lat="48.25433" lon="-3.40881">
        <ele>200.80000305176</ele>
        <time>2020-10-18T10:43:57.000Z</time>
      </trkpt>
      <trkpt lat="48.25433" lon="-3.40881">
        <ele>200.80000305176</ele>
        <time>2020-10-18T10:43:58.000Z</time>
      </trkpt>
      <trkpt lat="48.25433" lon="-3.40881">
        <ele>200.80000305176</ele>
        <time>2020-10-18T10:43:59.000Z</time>
      </trkpt>
      <trkpt lat="48.25433" lon="-3.40881">
        <ele>200.80000305176</ele>
        <time>2020-10-18T10:44:00.000Z</time>
      </trkpt>
      <trkpt lat="48.25433" lon="-3.40881">
        <ele>200.80000305176</ele>
        <time>2020-10-18T10:44:01.000Z</time>
      </trkpt>
      <trkpt lat="48.25433" lon="-3.40881">
        <ele>200.80000305176</ele>
        <time>2020-10-18T10:44:02.000Z</time>
      </trkpt>
      <trkpt lat="48.25432" lon="-3.40882">
        <ele>200.80000305176</ele>
        <time>2020-10-18T10:44:03.000Z</time>
      </trkpt>
      <trkpt lat="48.25432" lon="-3.40882">
        <ele>200.80000305176</ele>
        <time>2020-10-18T10:44:04.000Z</time>
      </trkpt>
      <trkpt lat="48.25432" lon="-3.40884">
        <ele>200.80000305176</ele>
        <time>2020-10-18T10:44:05.000Z</time>
      </trkpt>
      <trkpt lat="48.25431" lon="-3.40885">
        <ele>200.60000610352</ele>
        <time>2020-10-18T10:44:06.000Z</time>
      </trkpt>
      <trkpt lat="48.25431" lon="-3.40885">
        <ele>200.60000610352</ele>
        <time>2020-10-18T10:44:07.000Z</time>
      </trkpt>
      <trkpt lat="48.2543" lon="-3.40886">
        <ele>200.60000610352</ele>
        <time>2020-10-18T10:44:08.000Z</time>
      </trkpt>
      <trkpt lat="48.2543" lon="-3.40886">
        <ele>200.60000610352</ele>
        <time>2020-10-18T10:44:09.000Z</time>
      </trkpt>
      <trkpt lat="48.2543" lon="-3.40886">
        <ele>200.60000610352</ele>
        <time>2020-10-18T10:44:10.000Z</time>
      </trkpt>
      <trkpt lat="48.2543" lon="-3.40886">
        <ele>200.60000610352</ele>
        <time>2020-10-18T10:44:11.000Z</time>
      </trkpt>
      <trkpt lat="48.25429" lon="-3.40886">
        <ele>200.60000610352</ele>
        <time>2020-10-18T10:44:12.000Z</time>
      </trkpt>
      <trkpt lat="48.25429" lon="-3.40886">
        <ele>200.60000610352</ele>
        <time>2020-10-18T10:44:13.000Z</time>
      </trkpt>
      <trkpt lat="48.25429" lon="-3.40886">
        <ele>200.60000610352</ele>
        <time>2020-10-18T10:44:14.000Z</time>
      </trkpt>
      <trkpt lat="48.25429" lon="-3.40886">
        <ele>200.60000610352</ele>
        <time>2020-10-18T10:44:15.000Z</time>
      </trkpt>
      <trkpt lat="48.25429" lon="-3.40886">
        <ele>200.60000610352</ele>
        <time>2020-10-18T10:44:16.000Z</time>
      </trkpt>
      <trkpt lat="48.25429" lon="-3.40886">
        <ele>200.60000610352</ele>
        <time>2020-10-18T10:44:17.000Z</time>
      </trkpt>
      <trkpt lat="48.25429" lon="-3.40886">
        <ele>200.60000610352</ele>
        <time>2020-10-18T10:44:18.000Z</time>
      </trkpt>
      <trkpt lat="48.25429" lon="-3.40886">
        <ele>200.60000610352</ele>
        <time>2020-10-18T10:44:19.000Z</time>
      </trkpt>
      <trkpt lat="48.25429" lon="-3.40886">
        <ele>200.60000610352</ele>
        <time>2020-10-18T10:44:20.000Z</time>
      </trkpt>
      <trkpt lat="48.25429" lon="-3.40887">
        <ele>200.60000610352</ele>
        <time>2020-10-18T10:44:21.000Z</time>
      </trkpt>
      <trkpt lat="48.25429" lon="-3.40887">
        <ele>200.60000610352</ele>
        <time>2020-10-18T10:44:22.000Z</time>
      </trkpt>
      <trkpt lat="48.25428" lon="-3.40887">
        <ele>200.60000610352</ele>
        <time>2020-10-18T10:44:23.000Z</time>
      </trkpt>
      <trkpt lat="48.25426" lon="-3.40888">
        <ele>200.39999389648</ele>
        <time>2020-10-18T10:44:24.000Z</time>
      </trkpt>
      <trkpt lat="48.25426" lon="-3.40888">
        <ele>200.39999389648</ele>
        <time>2020-10-18T10:44:25.000Z</time>
      </trkpt>
      <trkpt lat="48.25425" lon="-3.40889">
        <ele>200.19999694824</ele>
        <time>2020-10-18T10:44:26.000Z</time>
      </trkpt>
      <trkpt lat="48.25425" lon="-3.40889">
        <ele>200.19999694824</ele>
        <time>2020-10-18T10:44:27.000Z</time>
      </trkpt>
      <trkpt lat="48.25425" lon="-3.40889">
        <ele>200.19999694824</ele>
        <time>2020-10-18T10:44:28.000Z</time>
      </trkpt>
      <trkpt lat="48.25425" lon="-3.40889">
        <ele>200.19999694824</ele>
        <time>2020-10-18T10:44:29.000Z</time>
      </trkpt>
      <trkpt lat="48.25425" lon="-3.40889">
        <ele>200.19999694824</ele>
        <time>2020-10-18T10:44:30.000Z</time>
      </trkpt>
      <trkpt lat="48.25425" lon="-3.40889">
        <ele>200.19999694824</ele>
        <time>2020-10-18T10:44:31.000Z</time>
      </trkpt>
      <trkpt lat="48.25425" lon="-3.40889">
        <ele>200.19999694824</ele>
        <time>2020-10-18T10:44:32.000Z</time>
      </trkpt>
      <trkpt lat="48.25425" lon="-3.40889">
        <ele>200.19999694824</ele>
        <time>2020-10-18T10:44:33.000Z</time>
      </trkpt>
      <trkpt lat="48.25425" lon="-3.40889">
        <ele>200.19999694824</ele>
        <time>2020-10-18T10:44:34.000Z</time>
      </trkpt>
      <trkpt lat="48.25425" lon="-3.40889">
        <ele>200.19999694824</ele>
        <time>2020-10-18T10:44:35.000Z</time>
      </trkpt>
      <trkpt lat="48.25426" lon="-3.40889">
        <ele>200.19999694824</ele>
        <time>2020-10-18T10:44:36.000Z</time>
      </trkpt>
      <trkpt lat="48.25426" lon="-3.40889">
        <ele>200.19999694824</ele>
        <time>2020-10-18T10:44:37.000Z</time>
      </trkpt>
      <trkpt lat="48.25426" lon="-3.40889">
        <ele>200.19999694824</ele>
        <time>2020-10-18T10:44:38.000Z</time>
      </trkpt>
      <trkpt lat="48.25426" lon="-3.40889">
        <ele>200.19999694824</ele>
        <time>2020-10-18T10:44:39.000Z</time>
      </trkpt>
      <trkpt lat="48.25426" lon="-3.40889">
        <ele>200.19999694824</ele>
        <time>2020-10-18T10:44:40.000Z</time>
      </trkpt>
      <trkpt lat="48.25426" lon="-3.40889">
        <ele>200.19999694824</ele>
        <time>2020-10-18T10:44:41.000Z</time>
      </trkpt>
      <trkpt lat="48.25426" lon="-3.40889">
        <ele>200.19999694824</ele>
        <time>2020-10-18T10:44:42.000Z</time>
      </trkpt>
      <trkpt lat="48.25426" lon="-3.40889">
        <ele>200.19999694824</ele>
        <time>2020-10-18T10:44:43.000Z</time>
      </trkpt>
      <trkpt lat="48.25426" lon="-3.40889">
        <ele>200.19999694824</ele>
        <time>2020-10-18T10:44:44.000Z</time>
      </trkpt>
      <trkpt lat="48.25426" lon="-3.40889">
        <ele>200.19999694824</ele>
        <time>2020-10-18T10:44:45.000Z</time>
      </trkpt>
      <trkpt lat="48.25426" lon="-3.40889">
        <ele>200.19999694824</ele>
        <time>2020-10-18T10:44:46.000Z</time>
      </trkpt>
      <trkpt lat="48.25426" lon="-3.40889">
        <ele>200.19999694824</ele>
        <time>2020-10-18T10:44:47.000Z</time>
      </trkpt>
      <trkpt lat="48.25426" lon="-3.40889">
        <ele>200.19999694824</ele>
        <time>2020-10-18T10:44:48.000Z</time>
      </trkpt>
      <trkpt lat="48.25426" lon="-3.40889">
        <ele>200.19999694824</ele>
        <time>2020-10-18T10:44:49.000Z</time>
      </trkpt>
      <trkpt lat="48.25426" lon="-3.40889">
        <ele>200.19999694824</ele>
        <time>2020-10-18T10:44:50.000Z</time>
      </trkpt>
      <trkpt lat="48.25426" lon="-3.40889">
        <ele>200.19999694824</ele>
        <time>2020-10-18T10:44:51.000Z</time>
      </trkpt>
      <trkpt lat="48.25426" lon="-3.40889">
        <ele>200.19999694824</ele>
        <time>2020-10-18T10:44:52.000Z</time>
      </trkpt>
      <trkpt lat="48.25426" lon="-3.40889">
        <ele>200.19999694824</ele>
        <time>2020-10-18T10:44:53.000Z</time>
      </trkpt>
      <trkpt lat="48.25426" lon="-3.40889">
        <ele>200.19999694824</ele>
        <time>2020-10-18T10:44:54.000Z</time>
      </trkpt>
      <trkpt lat="48.25426" lon="-3.40889">
        <ele>200.19999694824</ele>
        <time>2020-10-18T10:44:55.000Z</time>
      </trkpt>
      <trkpt lat="48.25426" lon="-3.40889">
        <ele>200.19999694824</ele>
        <time>2020-10-18T10:44:56.000Z</time>
      </trkpt>
      <trkpt lat="48.25426" lon="-3.40889">
        <ele>200.19999694824</ele>
        <time>2020-10-18T10:44:57.000Z</time>
      </trkpt>
      <trkpt lat="48.25426" lon="-3.40889">
        <ele>200.19999694824</ele>
        <time>2020-10-18T10:44:58.000Z</time>
      </trkpt>
      <trkpt lat="48.25426" lon="-3.40889">
        <ele>200.19999694824</ele>
        <time>2020-10-18T10:44:59.000Z</time>
      </trkpt>
      <trkpt lat="48.25426" lon="-3.40888">
        <ele>200.39999389648</ele>
        <time>2020-10-18T10:45:00.000Z</time>
      </trkpt>
      <trkpt lat="48.25426" lon="-3.40888">
        <ele>200.39999389648</ele>
        <time>2020-10-18T10:45:01.000Z</time>
      </trkpt>
      <trkpt lat="48.25426" lon="-3.40887">
        <ele>200.39999389648</ele>
        <time>2020-10-18T10:45:02.000Z</time>
      </trkpt>
      <trkpt lat="48.25426" lon="-3.40887">
        <ele>200.39999389648</ele>
        <time>2020-10-18T10:45:03.000Z</time>
      </trkpt>
      <trkpt lat="48.25426" lon="-3.40887">
        <ele>200.39999389648</ele>
        <time>2020-10-18T10:45:04.000Z</time>
      </trkpt>
      <trkpt lat="48.25425" lon="-3.40887">
        <ele>200.39999389648</ele>
        <time>2020-10-18T10:45:05.000Z</time>
      </trkpt>
      <trkpt lat="48.25425" lon="-3.40888">
        <ele>200.19999694824</ele>
        <time>2020-10-18T10:45:06.000Z</time>
      </trkpt>
      <trkpt lat="48.25425" lon="-3.40889">
        <ele>200.19999694824</ele>
        <time>2020-10-18T10:45:07.000Z</time>
      </trkpt>
      <trkpt lat="48.25425" lon="-3.40889">
        <ele>200.19999694824</ele>
        <time>2020-10-18T10:45:08.000Z</time>
      </trkpt>
      <trkpt lat="48.25425" lon="-3.40889">
        <ele>200.19999694824</ele>
        <time>2020-10-18T10:45:09.000Z</time>
      </trkpt>
      <trkpt lat="48.25425" lon="-3.4089">
        <ele>200.19999694824</ele>
        <time>2020-10-18T10:45:10.000Z</time>
      </trkpt>
      <trkpt lat="48.25425" lon="-3.4089">
        <ele>200.19999694824</ele>
        <time>2020-10-18T10:45:11.000Z</time>
      </trkpt>
      <trkpt lat="48.25425" lon="-3.4089">
        <ele>200.19999694824</ele>
        <time>2020-10-18T10:45:12.000Z</time>
      </trkpt>
      <trkpt lat="48.25425" lon="-3.4089">
        <ele>200.19999694824</ele>
        <time>2020-10-18T10:45:13.000Z</time>
      </trkpt>
      <trkpt lat="48.25425" lon="-3.4089">
        <ele>200.19999694824</ele>
        <time>2020-10-18T10:45:14.000Z</time>
      </trkpt>
      <trkpt lat="48.25425" lon="-3.4089">
        <ele>200.19999694824</ele>
        <time>2020-10-18T10:45:15.000Z</time>
      </trkpt>
      <trkpt lat="48.25425" lon="-3.4089">
        <ele>200.19999694824</ele>
        <time>2020-10-18T10:45:16.000Z</time>
      </trkpt>
      <trkpt lat="48.25425" lon="-3.4089">
        <ele>200.19999694824</ele>
        <time>2020-10-18T10:45:17.000Z</time>
      </trkpt>
      <trkpt lat="48.25425" lon="-3.4089">
        <ele>200.19999694824</ele>
        <time>2020-10-18T10:45:18.000Z</time>
      </trkpt>
      <trkpt lat="48.25425" lon="-3.4089">
        <ele>200.19999694824</ele>
        <time>2020-10-18T10:45:19.000Z</time>
      </trkpt>
      <trkpt lat="48.25425" lon="-3.4089">
        <ele>200.19999694824</ele>
        <time>2020-10-18T10:45:20.000Z</time>
      </trkpt>
      <trkpt lat="48.25425" lon="-3.4089">
        <ele>200.19999694824</ele>
        <time>2020-10-18T10:45:21.000Z</time>
      </trkpt>
      <trkpt lat="48.25425" lon="-3.4089">
        <ele>200.19999694824</ele>
        <time>2020-10-18T10:45:22.000Z</time>
      </trkpt>
      <trkpt lat="48.25425" lon="-3.4089">
        <ele>200.19999694824</ele>
        <time>2020-10-18T10:45:23.000Z</time>
      </trkpt>
      <trkpt lat="48.25425" lon="-3.4089">
        <ele>200.19999694824</ele>
        <time>2020-10-18T10:45:24.000Z</time>
      </trkpt>
      <trkpt lat="48.25425" lon="-3.4089">
        <ele>200.19999694824</ele>
        <time>2020-10-18T10:45:25.000Z</time>
      </trkpt>
      <trkpt lat="48.25425" lon="-3.4089">
        <ele>200.19999694824</ele>
        <time>2020-10-18T10:45:26.000Z</time>
      </trkpt>
      <trkpt lat="48.25425" lon="-3.4089">
        <ele>200.19999694824</ele>
        <time>2020-10-18T10:45:27.000Z</time>
      </trkpt>
      <trkpt lat="48.25425" lon="-3.4089">
        <ele>200.19999694824</ele>
        <time>2020-10-18T10:45:28.000Z</time>
      </trkpt>
      <trkpt lat="48.25425" lon="-3.4089">
        <ele>200.19999694824</ele>
        <time>2020-10-18T10:45:29.000Z</time>
      </trkpt>
      <trkpt lat="48.25425" lon="-3.4089">
        <ele>200.19999694824</ele>
        <time>2020-10-18T10:45:30.000Z</time>
      </trkpt>
      <trkpt lat="48.25425" lon="-3.4089">
        <ele>200.19999694824</ele>
        <time>2020-10-18T10:45:31.000Z</time>
      </trkpt>
      <trkpt lat="48.25425" lon="-3.4089">
        <ele>200.19999694824</ele>
        <time>2020-10-18T10:45:32.000Z</time>
      </trkpt>
      <trkpt lat="48.25425" lon="-3.4089">
        <ele>200.19999694824</ele>
        <time>2020-10-18T10:45:33.000Z</time>
      </trkpt>
      <trkpt lat="48.25425" lon="-3.4089">
        <ele>200.19999694824</ele>
        <time>2020-10-18T10:45:34.000Z</time>
      </trkpt>
      <trkpt lat="48.25425" lon="-3.4089">
        <ele>200.19999694824</ele>
        <time>2020-10-18T10:45:35.000Z</time>
      </trkpt>
      <trkpt lat="48.25425" lon="-3.4089">
        <ele>200.19999694824</ele>
        <time>2020-10-18T10:45:36.000Z</time>
      </trkpt>
      <trkpt lat="48.25425" lon="-3.4089">
        <ele>200.19999694824</ele>
        <time>2020-10-18T10:45:37.000Z</time>
      </trkpt>
      <trkpt lat="48.25425" lon="-3.4089">
        <ele>200.19999694824</ele>
        <time>2020-10-18T10:45:38.000Z</time>
      </trkpt>
      <trkpt lat="48.25425" lon="-3.4089">
        <ele>200.19999694824</ele>
        <time>2020-10-18T10:45:39.000Z</time>
      </trkpt>
      <trkpt lat="48.25425" lon="-3.4089">
        <ele>200.19999694824</ele>
        <time>2020-10-18T10:45:40.000Z</time>
      </trkpt>
      <trkpt lat="48.25425" lon="-3.4089">
        <ele>200.19999694824</ele>
        <time>2020-10-18T10:45:41.000Z</time>
      </trkpt>
      <trkpt lat="48.25425" lon="-3.4089">
        <ele>200.19999694824</ele>
        <time>2020-10-18T10:45:42.000Z</time>
      </trkpt>
      <trkpt lat="48.25425" lon="-3.4089">
        <ele>200.19999694824</ele>
        <time>2020-10-18T10:45:43.000Z</time>
      </trkpt>
      <trkpt lat="48.25425" lon="-3.4089">
        <ele>200.19999694824</ele>
        <time>2020-10-18T10:45:44.000Z</time>
      </trkpt>
      <trkpt lat="48.25425" lon="-3.4089">
        <ele>200.19999694824</ele>
        <time>2020-10-18T10:45:45.000Z</time>
      </trkpt>
      <trkpt lat="48.25425" lon="-3.4089">
        <ele>200.19999694824</ele>
        <time>2020-10-18T10:45:46.000Z</time>
      </trkpt>
      <trkpt lat="48.25425" lon="-3.40891">
        <ele>200.19999694824</ele>
        <time>2020-10-18T10:45:47.000Z</time>
      </trkpt>
      <trkpt lat="48.25425" lon="-3.40891">
        <ele>200.19999694824</ele>
        <time>2020-10-18T10:45:48.000Z</time>
      </trkpt>
      <trkpt lat="48.25425" lon="-3.40891">
        <ele>200.19999694824</ele>
        <time>2020-10-18T10:45:49.000Z</time>
      </trkpt>
      <trkpt lat="48.25425" lon="-3.40891">
        <ele>200.19999694824</ele>
        <time>2020-10-18T10:45:50.000Z</time>
      </trkpt>
      <trkpt lat="48.25425" lon="-3.40891">
        <ele>200.19999694824</ele>
        <time>2020-10-18T10:45:51.000Z</time>
      </trkpt>
      <trkpt lat="48.25425" lon="-3.40891">
        <ele>200.19999694824</ele>
        <time>2020-10-18T10:45:52.000Z</time>
      </trkpt>
      <trkpt lat="48.25425" lon="-3.40891">
        <ele>200.19999694824</ele>
        <time>2020-10-18T10:45:53.000Z</time>
      </trkpt>
      <trkpt lat="48.25425" lon="-3.40891">
        <ele>200.19999694824</ele>
        <time>2020-10-18T10:45:54.000Z</time>
      </trkpt>
      <trkpt lat="48.25425" lon="-3.40891">
        <ele>200.19999694824</ele>
        <time>2020-10-18T10:45:55.000Z</time>
      </trkpt>
      <trkpt lat="48.25425" lon="-3.4089">
        <ele>200.19999694824</ele>
        <time>2020-10-18T10:45:56.000Z</time>
      </trkpt>
      <trkpt lat="48.25425" lon="-3.4089">
        <ele>200.19999694824</ele>
        <time>2020-10-18T10:45:57.000Z</time>
      </trkpt>
      <trkpt lat="48.25425" lon="-3.4089">
        <ele>200.19999694824</ele>
        <time>2020-10-18T10:45:58.000Z</time>
      </trkpt>
      <trkpt lat="48.25425" lon="-3.4089">
        <ele>200.19999694824</ele>
        <time>2020-10-18T10:45:59.000Z</time>
      </trkpt>
      <trkpt lat="48.25425" lon="-3.40889">
        <ele>200.19999694824</ele>
        <time>2020-10-18T10:46:00.000Z</time>
      </trkpt>
      <trkpt lat="48.25425" lon="-3.40889">
        <ele>200.19999694824</ele>
        <time>2020-10-18T10:46:01.000Z</time>
      </trkpt>
      <trkpt lat="48.25425" lon="-3.40889">
        <ele>200.19999694824</ele>
        <time>2020-10-18T10:46:02.000Z</time>
      </trkpt>
      <trkpt lat="48.25425" lon="-3.4089">
        <ele>200.19999694824</ele>
        <time>2020-10-18T10:46:03.000Z</time>
      </trkpt>
      <trkpt lat="48.25425" lon="-3.4089">
        <ele>200.19999694824</ele>
        <time>2020-10-18T10:46:04.000Z</time>
      </trkpt>
      <trkpt lat="48.25425" lon="-3.4089">
        <ele>200.19999694824</ele>
        <time>2020-10-18T10:46:05.000Z</time>
      </trkpt>
      <trkpt lat="48.25425" lon="-3.4089">
        <ele>200.19999694824</ele>
        <time>2020-10-18T10:46:06.000Z</time>
      </trkpt>
      <trkpt lat="48.25425" lon="-3.4089">
        <ele>200.19999694824</ele>
        <time>2020-10-18T10:46:07.000Z</time>
      </trkpt>
      <trkpt lat="48.25426" lon="-3.40888">
        <ele>200.39999389648</ele>
        <time>2020-10-18T10:46:08.000Z</time>
      </trkpt>
      <trkpt lat="48.25426" lon="-3.40888">
        <ele>200.39999389648</ele>
        <time>2020-10-18T10:46:09.000Z</time>
      </trkpt>
      <trkpt lat="48.25427" lon="-3.40887">
        <ele>200.39999389648</ele>
        <time>2020-10-18T10:46:10.000Z</time>
      </trkpt>
      <trkpt lat="48.25427" lon="-3.40885">
        <ele>200.39999389648</ele>
        <time>2020-10-18T10:46:11.000Z</time>
      </trkpt>
      <trkpt lat="48.25427" lon="-3.40885">
        <ele>200.39999389648</ele>
        <time>2020-10-18T10:46:12.000Z</time>
      </trkpt>
      <trkpt lat="48.25427" lon="-3.40885">
        <ele>200.60000610352</ele>
        <time>2020-10-18T10:46:13.000Z</time>
      </trkpt>
      <trkpt lat="48.25428" lon="-3.40885">
        <ele>200.60000610352</ele>
        <time>2020-10-18T10:46:14.000Z</time>
      </trkpt>
      <trkpt lat="48.25428" lon="-3.40885">
        <ele>200.60000610352</ele>
        <time>2020-10-18T10:46:15.000Z</time>
      </trkpt>
      <trkpt lat="48.25429" lon="-3.40883">
        <ele>200.80000305176</ele>
        <time>2020-10-18T10:46:16.000Z</time>
      </trkpt>
      <trkpt lat="48.25429" lon="-3.40883">
        <ele>200.80000305176</ele>
        <time>2020-10-18T10:46:17.000Z</time>
      </trkpt>
      <trkpt lat="48.25429" lon="-3.40883">
        <ele>200.80000305176</ele>
        <time>2020-10-18T10:46:18.000Z</time>
      </trkpt>
      <trkpt lat="48.25428" lon="-3.40882">
        <ele>200.80000305176</ele>
        <time>2020-10-18T10:46:19.000Z</time>
      </trkpt>
      <trkpt lat="48.25428" lon="-3.40882">
        <ele>200.80000305176</ele>
        <time>2020-10-18T10:46:20.000Z</time>
      </trkpt>
      <trkpt lat="48.25428" lon="-3.40882">
        <ele>200.80000305176</ele>
        <time>2020-10-18T10:46:21.000Z</time>
      </trkpt>
      <trkpt lat="48.25428" lon="-3.40882">
        <ele>200.80000305176</ele>
        <time>2020-10-18T10:46:22.000Z</time>
      </trkpt>
      <trkpt lat="48.25428" lon="-3.40882">
        <ele>200.80000305176</ele>
        <time>2020-10-18T10:46:23.000Z</time>
      </trkpt>
      <trkpt lat="48.25428" lon="-3.40882">
        <ele>200.80000305176</ele>
        <time>2020-10-18T10:46:24.000Z</time>
      </trkpt>
      <trkpt lat="48.25428" lon="-3.40882">
        <ele>200.80000305176</ele>
        <time>2020-10-18T10:46:25.000Z</time>
      </trkpt>
      <trkpt lat="48.25428" lon="-3.40882">
        <ele>200.80000305176</ele>
        <time>2020-10-18T10:46:26.000Z</time>
      </trkpt>
      <trkpt lat="48.25428" lon="-3.40882">
        <ele>200.80000305176</ele>
        <time>2020-10-18T10:46:27.000Z</time>
      </trkpt>
      <trkpt lat="48.25428" lon="-3.40882">
        <ele>200.80000305176</ele>
        <time>2020-10-18T10:46:28.000Z</time>
      </trkpt>
      <trkpt lat="48.25428" lon="-3.40882">
        <ele>200.80000305176</ele>
        <time>2020-10-18T10:46:29.000Z</time>
      </trkpt>
      <trkpt lat="48.25428" lon="-3.40882">
        <ele>200.80000305176</ele>
        <time>2020-10-18T10:46:30.000Z</time>
      </trkpt>
      <trkpt lat="48.25428" lon="-3.40882">
        <ele>200.80000305176</ele>
        <time>2020-10-18T10:46:31.000Z</time>
      </trkpt>
      <trkpt lat="48.25428" lon="-3.40882">
        <ele>200.80000305176</ele>
        <time>2020-10-18T10:46:32.000Z</time>
      </trkpt>
      <trkpt lat="48.25428" lon="-3.40882">
        <ele>200.80000305176</ele>
        <time>2020-10-18T10:46:33.000Z</time>
      </trkpt>
      <trkpt lat="48.25428" lon="-3.40882">
        <ele>200.80000305176</ele>
        <time>2020-10-18T10:46:34.000Z</time>
      </trkpt>
      <trkpt lat="48.25428" lon="-3.40882">
        <ele>200.80000305176</ele>
        <time>2020-10-18T10:46:35.000Z</time>
      </trkpt>
      <trkpt lat="48.25428" lon="-3.40882">
        <ele>200.80000305176</ele>
        <time>2020-10-18T10:46:36.000Z</time>
      </trkpt>
      <trkpt lat="48.25428" lon="-3.40882">
        <ele>200.80000305176</ele>
        <time>2020-10-18T10:46:37.000Z</time>
      </trkpt>
      <trkpt lat="48.25428" lon="-3.40882">
        <ele>200.80000305176</ele>
        <time>2020-10-18T10:46:38.000Z</time>
      </trkpt>
      <trkpt lat="48.25428" lon="-3.40882">
        <ele>200.80000305176</ele>
        <time>2020-10-18T10:46:39.000Z</time>
      </trkpt>
      <trkpt lat="48.25428" lon="-3.40882">
        <ele>200.80000305176</ele>
        <time>2020-10-18T10:46:40.000Z</time>
      </trkpt>
      <trkpt lat="48.25428" lon="-3.40882">
        <ele>200.80000305176</ele>
        <time>2020-10-18T10:46:41.000Z</time>
      </trkpt>
      <trkpt lat="48.25428" lon="-3.40882">
        <ele>200.80000305176</ele>
        <time>2020-10-18T10:46:42.000Z</time>
      </trkpt>
      <trkpt lat="48.25428" lon="-3.40882">
        <ele>200.80000305176</ele>
        <time>2020-10-18T10:46:43.000Z</time>
      </trkpt>
      <trkpt lat="48.25428" lon="-3.40882">
        <ele>200.80000305176</ele>
        <time>2020-10-18T10:46:44.000Z</time>
      </trkpt>
      <trkpt lat="48.25428" lon="-3.40882">
        <ele>200.80000305176</ele>
        <time>2020-10-18T10:46:45.000Z</time>
      </trkpt>
      <trkpt lat="48.25428" lon="-3.40882">
        <ele>200.80000305176</ele>
        <time>2020-10-18T10:46:46.000Z</time>
      </trkpt>
      <trkpt lat="48.25428" lon="-3.40882">
        <ele>200.80000305176</ele>
        <time>2020-10-18T10:46:47.000Z</time>
      </trkpt>
      <trkpt lat="48.25428" lon="-3.40882">
        <ele>200.80000305176</ele>
        <time>2020-10-18T10:46:48.000Z</time>
      </trkpt>
      <trkpt lat="48.25428" lon="-3.40883">
        <ele>200.60000610352</ele>
        <time>2020-10-18T10:46:49.000Z</time>
      </trkpt>
      <trkpt lat="48.25428" lon="-3.40883">
        <ele>200.60000610352</ele>
        <time>2020-10-18T10:46:50.000Z</time>
      </trkpt>
      <trkpt lat="48.25428" lon="-3.40883">
        <ele>200.60000610352</ele>
        <time>2020-10-18T10:46:51.000Z</time>
      </trkpt>
      <trkpt lat="48.25428" lon="-3.40883">
        <ele>200.60000610352</ele>
        <time>2020-10-18T10:46:52.000Z</time>
      </trkpt>
      <trkpt lat="48.25428" lon="-3.40883">
        <ele>200.60000610352</ele>
        <time>2020-10-18T10:46:53.000Z</time>
      </trkpt>
      <trkpt lat="48.25428" lon="-3.40883">
        <ele>200.60000610352</ele>
        <time>2020-10-18T10:46:54.000Z</time>
      </trkpt>
      <trkpt lat="48.25428" lon="-3.40883">
        <ele>200.60000610352</ele>
        <time>2020-10-18T10:46:55.000Z</time>
      </trkpt>
      <trkpt lat="48.25428" lon="-3.40883">
        <ele>200.60000610352</ele>
        <time>2020-10-18T10:46:56.000Z</time>
      </trkpt>
      <trkpt lat="48.25428" lon="-3.40883">
        <ele>200.60000610352</ele>
        <time>2020-10-18T10:46:57.000Z</time>
      </trkpt>
      <trkpt lat="48.25428" lon="-3.40883">
        <ele>200.60000610352</ele>
        <time>2020-10-18T10:46:58.000Z</time>
      </trkpt>
      <trkpt lat="48.25428" lon="-3.40883">
        <ele>200.60000610352</ele>
        <time>2020-10-18T10:46:59.000Z</time>
      </trkpt>
      <trkpt lat="48.25428" lon="-3.40883">
        <ele>200.60000610352</ele>
        <time>2020-10-18T10:47:00.000Z</time>
      </trkpt>
      <trkpt lat="48.25428" lon="-3.40883">
        <ele>200.60000610352</ele>
        <time>2020-10-18T10:47:01.000Z</time>
      </trkpt>
      <trkpt lat="48.25428" lon="-3.40883">
        <ele>200.60000610352</ele>
        <time>2020-10-18T10:47:02.000Z</time>
      </trkpt>
      <trkpt lat="48.25427" lon="-3.40883">
        <ele>200.60000610352</ele>
        <time>2020-10-18T10:47:03.000Z</time>
      </trkpt>
      <trkpt lat="48.25427" lon="-3.40883">
        <ele>200.60000610352</ele>
        <time>2020-10-18T10:47:04.000Z</time>
      </trkpt>
      <trkpt lat="48.25427" lon="-3.40884">
        <ele>200.60000610352</ele>
        <time>2020-10-18T10:47:05.000Z</time>
      </trkpt>
      <trkpt lat="48.25427" lon="-3.40884">
        <ele>200.60000610352</ele>
        <time>2020-10-18T10:47:06.000Z</time>
      </trkpt>
      <trkpt lat="48.25427" lon="-3.40884">
        <ele>200.60000610352</ele>
        <time>2020-10-18T10:47:07.000Z</time>
      </trkpt>
      <trkpt lat="48.25427" lon="-3.40884">
        <ele>200.60000610352</ele>
        <time>2020-10-18T10:47:08.000Z</time>
      </trkpt>
      <trkpt lat="48.25427" lon="-3.40884">
        <ele>200.60000610352</ele>
        <time>2020-10-18T10:47:09.000Z</time>
      </trkpt>
      <trkpt lat="48.25427" lon="-3.40884">
        <ele>200.60000610352</ele>
        <time>2020-10-18T10:47:10.000Z</time>
      </trkpt>
      <trkpt lat="48.25427" lon="-3.40884">
        <ele>200.60000610352</ele>
        <time>2020-10-18T10:47:11.000Z</time>
      </trkpt>
      <trkpt lat="48.25427" lon="-3.40883">
        <ele>200.60000610352</ele>
        <time>2020-10-18T10:47:12.000Z</time>
      </trkpt>
      <trkpt lat="48.25427" lon="-3.40883">
        <ele>200.60000610352</ele>
        <time>2020-10-18T10:47:13.000Z</time>
      </trkpt>
      <trkpt lat="48.25427" lon="-3.40883">
        <ele>200.60000610352</ele>
        <time>2020-10-18T10:47:14.000Z</time>
      </trkpt>
      <trkpt lat="48.25427" lon="-3.40883">
        <ele>200.60000610352</ele>
        <time>2020-10-18T10:47:15.000Z</time>
      </trkpt>
      <trkpt lat="48.25427" lon="-3.40883">
        <ele>200.60000610352</ele>
        <time>2020-10-18T10:47:16.000Z</time>
      </trkpt>
      <trkpt lat="48.25427" lon="-3.40883">
        <ele>200.60000610352</ele>
        <time>2020-10-18T10:47:17.000Z</time>
      </trkpt>
      <trkpt lat="48.25427" lon="-3.40883">
        <ele>200.60000610352</ele>
        <time>2020-10-18T10:47:18.000Z</time>
      </trkpt>
      <trkpt lat="48.25427" lon="-3.40883">
        <ele>200.60000610352</ele>
        <time>2020-10-18T10:47:19.000Z</time>
      </trkpt>
      <trkpt lat="48.25427" lon="-3.40883">
        <ele>200.60000610352</ele>
        <time>2020-10-18T10:47:20.000Z</time>
      </trkpt>
      <trkpt lat="48.25426" lon="-3.40883">
        <ele>200.60000610352</ele>
        <time>2020-10-18T10:47:21.000Z</time>
      </trkpt>
      <trkpt lat="48.25426" lon="-3.40883">
        <ele>200.60000610352</ele>
        <time>2020-10-18T10:47:22.000Z</time>
      </trkpt>
      <trkpt lat="48.25426" lon="-3.40882">
        <ele>200.60000610352</ele>
        <time>2020-10-18T10:47:23.000Z</time>
      </trkpt>
      <trkpt lat="48.25426" lon="-3.40882">
        <ele>200.60000610352</ele>
        <time>2020-10-18T10:47:24.000Z</time>
      </trkpt>
      <trkpt lat="48.25426" lon="-3.40882">
        <ele>200.60000610352</ele>
        <time>2020-10-18T10:47:25.000Z</time>
      </trkpt>
      <trkpt lat="48.25426" lon="-3.40882">
        <ele>200.60000610352</ele>
        <time>2020-10-18T10:47:26.000Z</time>
      </trkpt>
      <trkpt lat="48.25426" lon="-3.40882">
        <ele>200.60000610352</ele>
        <time>2020-10-18T10:47:27.000Z</time>
      </trkpt>
      <trkpt lat="48.25426" lon="-3.40882">
        <ele>200.60000610352</ele>
        <time>2020-10-18T10:47:28.000Z</time>
      </trkpt>
      <trkpt lat="48.25426" lon="-3.40882">
        <ele>200.60000610352</ele>
        <time>2020-10-18T10:47:29.000Z</time>
      </trkpt>
      <trkpt lat="48.25426" lon="-3.40882">
        <ele>200.60000610352</ele>
        <time>2020-10-18T10:47:30.000Z</time>
      </trkpt>
      <trkpt lat="48.25426" lon="-3.40882">
        <ele>200.60000610352</ele>
        <time>2020-10-18T10:47:31.000Z</time>
      </trkpt>
      <trkpt lat="48.25426" lon="-3.40882">
        <ele>200.60000610352</ele>
        <time>2020-10-18T10:47:32.000Z</time>
      </trkpt>
      <trkpt lat="48.25426" lon="-3.40882">
        <ele>200.60000610352</ele>
        <time>2020-10-18T10:47:33.000Z</time>
      </trkpt>
      <trkpt lat="48.25426" lon="-3.40883">
        <ele>200.60000610352</ele>
        <time>2020-10-18T10:47:34.000Z</time>
      </trkpt>
      <trkpt lat="48.25426" lon="-3.40883">
        <ele>200.60000610352</ele>
        <time>2020-10-18T10:47:35.000Z</time>
      </trkpt>
      <trkpt lat="48.25426" lon="-3.40883">
        <ele>200.60000610352</ele>
        <time>2020-10-18T10:47:36.000Z</time>
      </trkpt>
      <trkpt lat="48.25426" lon="-3.40883">
        <ele>200.60000610352</ele>
        <time>2020-10-18T10:47:37.000Z</time>
      </trkpt>
      <trkpt lat="48.25426" lon="-3.40883">
        <ele>200.60000610352</ele>
        <time>2020-10-18T10:47:38.000Z</time>
      </trkpt>
      <trkpt lat="48.25426" lon="-3.40883">
        <ele>200.60000610352</ele>
        <time>2020-10-18T10:47:39.000Z</time>
      </trkpt>
      <trkpt lat="48.25425" lon="-3.40882">
        <ele>200.39999389648</ele>
        <time>2020-10-18T10:47:40.000Z</time>
      </trkpt>
      <trkpt lat="48.25425" lon="-3.40882">
        <ele>200.39999389648</ele>
        <time>2020-10-18T10:47:41.000Z</time>
      </trkpt>
      <trkpt lat="48.25425" lon="-3.40883">
        <ele>200.39999389648</ele>
        <time>2020-10-18T10:47:42.000Z</time>
      </trkpt>
      <trkpt lat="48.25425" lon="-3.40883">
        <ele>200.39999389648</ele>
        <time>2020-10-18T10:47:43.000Z</time>
      </trkpt>
      <trkpt lat="48.25426" lon="-3.40883">
        <ele>200.39999389648</ele>
        <time>2020-10-18T10:47:44.000Z</time>
      </trkpt>
      <trkpt lat="48.25426" lon="-3.40883">
        <ele>200.39999389648</ele>
        <time>2020-10-18T10:47:45.000Z</time>
      </trkpt>
      <trkpt lat="48.25426" lon="-3.40883">
        <ele>200.39999389648</ele>
        <time>2020-10-18T10:47:46.000Z</time>
      </trkpt>
      <trkpt lat="48.25426" lon="-3.40883">
        <ele>200.39999389648</ele>
        <time>2020-10-18T10:47:47.000Z</time>
      </trkpt>
      <trkpt lat="48.25426" lon="-3.40883">
        <ele>200.39999389648</ele>
        <time>2020-10-18T10:47:48.000Z</time>
      </trkpt>
      <trkpt lat="48.25426" lon="-3.40883">
        <ele>200.39999389648</ele>
        <time>2020-10-18T10:47:49.000Z</time>
      </trkpt>
      <trkpt lat="48.25426" lon="-3.40883">
        <ele>200.39999389648</ele>
        <time>2020-10-18T10:47:50.000Z</time>
      </trkpt>
      <trkpt lat="48.25426" lon="-3.40883">
        <ele>200.39999389648</ele>
        <time>2020-10-18T10:47:51.000Z</time>
      </trkpt>
      <trkpt lat="48.25426" lon="-3.40883">
        <ele>200.39999389648</ele>
        <time>2020-10-18T10:47:52.000Z</time>
      </trkpt>
      <trkpt lat="48.25426" lon="-3.40883">
        <ele>200.39999389648</ele>
        <time>2020-10-18T10:47:53.000Z</time>
      </trkpt>
      <trkpt lat="48.25426" lon="-3.40883">
        <ele>200.60000610352</ele>
        <time>2020-10-18T10:47:54.000Z</time>
      </trkpt>
      <trkpt lat="48.25426" lon="-3.40883">
        <ele>200.60000610352</ele>
        <time>2020-10-18T10:47:55.000Z</time>
      </trkpt>
      <trkpt lat="48.25426" lon="-3.40883">
        <ele>200.60000610352</ele>
        <time>2020-10-18T10:47:56.000Z</time>
      </trkpt>
      <trkpt lat="48.25426" lon="-3.40883">
        <ele>200.60000610352</ele>
        <time>2020-10-18T10:47:57.000Z</time>
      </trkpt>
      <trkpt lat="48.25426" lon="-3.40883">
        <ele>200.60000610352</ele>
        <time>2020-10-18T10:47:58.000Z</time>
      </trkpt>
      <trkpt lat="48.25426" lon="-3.40883">
        <ele>200.60000610352</ele>
        <time>2020-10-18T10:47:59.000Z</time>
      </trkpt>
      <trkpt lat="48.25426" lon="-3.40883">
        <ele>200.60000610352</ele>
        <time>2020-10-18T10:48:00.000Z</time>
      </trkpt>
      <trkpt lat="48.25426" lon="-3.40883">
        <ele>200.60000610352</ele>
        <time>2020-10-18T10:48:01.000Z</time>
      </trkpt>
      <trkpt lat="48.25426" lon="-3.40883">
        <ele>200.60000610352</ele>
        <time>2020-10-18T10:48:02.000Z</time>
      </trkpt>
      <trkpt lat="48.25426" lon="-3.40883">
        <ele>200.60000610352</ele>
        <time>2020-10-18T10:48:03.000Z</time>
      </trkpt>
      <trkpt lat="48.25426" lon="-3.40883">
        <ele>200.60000610352</ele>
        <time>2020-10-18T10:48:04.000Z</time>
      </trkpt>
      <trkpt lat="48.25426" lon="-3.40883">
        <ele>200.60000610352</ele>
        <time>2020-10-18T10:48:05.000Z</time>
      </trkpt>
      <trkpt lat="48.25426" lon="-3.40883">
        <ele>200.60000610352</ele>
        <time>2020-10-18T10:48:06.000Z</time>
      </trkpt>
      <trkpt lat="48.25426" lon="-3.40883">
        <ele>200.60000610352</ele>
        <time>2020-10-18T10:48:07.000Z</time>
      </trkpt>
      <trkpt lat="48.25426" lon="-3.40883">
        <ele>200.60000610352</ele>
        <time>2020-10-18T10:48:08.000Z</time>
      </trkpt>
      <trkpt lat="48.25426" lon="-3.40883">
        <ele>200.60000610352</ele>
        <time>2020-10-18T10:48:09.000Z</time>
      </trkpt>
      <trkpt lat="48.25426" lon="-3.40884">
        <ele>200.60000610352</ele>
        <time>2020-10-18T10:48:10.000Z</time>
      </trkpt>
      <trkpt lat="48.25426" lon="-3.40884">
        <ele>200.60000610352</ele>
        <time>2020-10-18T10:48:11.000Z</time>
      </trkpt>
      <trkpt lat="48.25427" lon="-3.40884">
        <ele>200.60000610352</ele>
        <time>2020-10-18T10:48:12.000Z</time>
      </trkpt>
      <trkpt lat="48.25426" lon="-3.40884">
        <ele>200.60000610352</ele>
        <time>2020-10-18T10:48:13.000Z</time>
      </trkpt>
      <trkpt lat="48.25426" lon="-3.40884">
        <ele>200.60000610352</ele>
        <time>2020-10-18T10:48:14.000Z</time>
      </trkpt>
      <trkpt lat="48.25426" lon="-3.40884">
        <ele>200.60000610352</ele>
        <time>2020-10-18T10:48:15.000Z</time>
      </trkpt>
      <trkpt lat="48.25427" lon="-3.40885">
        <ele>200.60000610352</ele>
        <time>2020-10-18T10:48:16.000Z</time>
      </trkpt>
      <trkpt lat="48.25428" lon="-3.40884">
        <ele>200.60000610352</ele>
        <time>2020-10-18T10:48:17.000Z</time>
      </trkpt>
      <trkpt lat="48.25428" lon="-3.40884">
        <ele>200.60000610352</ele>
        <time>2020-10-18T10:48:18.000Z</time>
      </trkpt>
      <trkpt lat="48.2543" lon="-3.40882">
        <ele>200.80000305176</ele>
        <time>2020-10-18T10:48:19.000Z</time>
      </trkpt>
      <trkpt lat="48.2543" lon="-3.40882">
        <ele>200.80000305176</ele>
        <time>2020-10-18T10:48:20.000Z</time>
      </trkpt>
      <trkpt lat="48.25431" lon="-3.40881">
        <ele>200.80000305176</ele>
        <time>2020-10-18T10:48:21.000Z</time>
      </trkpt>
      <trkpt lat="48.25433" lon="-3.40879">
        <ele>200.80000305176</ele>
        <time>2020-10-18T10:48:22.000Z</time>
      </trkpt>
      <trkpt lat="48.25433" lon="-3.40879">
        <ele>200.80000305176</ele>
        <time>2020-10-18T10:48:23.000Z</time>
      </trkpt>
      <trkpt lat="48.25433" lon="-3.40879">
        <ele>200.80000305176</ele>
        <time>2020-10-18T10:48:24.000Z</time>
      </trkpt>
      <trkpt lat="48.25435" lon="-3.40879">
        <ele>200.80000305176</ele>
        <time>2020-10-18T10:48:25.000Z</time>
      </trkpt>
      <trkpt lat="48.25435" lon="-3.40879">
        <ele>200.80000305176</ele>
        <time>2020-10-18T10:48:26.000Z</time>
      </trkpt>
      <trkpt lat="48.25435" lon="-3.40879">
        <ele>200.80000305176</ele>
        <time>2020-10-18T10:48:27.000Z</time>
      </trkpt>
      <trkpt lat="48.25435" lon="-3.40879">
        <ele>200.80000305176</ele>
        <time>2020-10-18T10:48:28.000Z</time>
      </trkpt>
      <trkpt lat="48.25435" lon="-3.40879">
        <ele>201</ele>
        <time>2020-10-18T10:48:29.000Z</time>
      </trkpt>
      <trkpt lat="48.25436" lon="-3.40879">
        <ele>201</ele>
        <time>2020-10-18T10:48:30.000Z</time>
      </trkpt>
      <trkpt lat="48.25436" lon="-3.40879">
        <ele>201</ele>
        <time>2020-10-18T10:48:31.000Z</time>
      </trkpt>
      <trkpt lat="48.25438" lon="-3.40878">
        <ele>201</ele>
        <time>2020-10-18T10:48:32.000Z</time>
      </trkpt>
      <trkpt lat="48.25438" lon="-3.40878">
        <ele>201</ele>
        <time>2020-10-18T10:48:33.000Z</time>
      </trkpt>
      <trkpt lat="48.25442" lon="-3.40877">
        <ele>201</ele>
        <time>2020-10-18T10:48:34.000Z</time>
      </trkpt>
      <trkpt lat="48.25442" lon="-3.40877">
        <ele>201</ele>
        <time>2020-10-18T10:48:35.000Z</time>
      </trkpt>
      <trkpt lat="48.25447" lon="-3.40875">
        <ele>201</ele>
        <time>2020-10-18T10:48:36.000Z</time>
      </trkpt>
      <trkpt lat="48.25447" lon="-3.40875">
        <ele>201</ele>
        <time>2020-10-18T10:48:37.000Z</time>
      </trkpt>
      <trkpt lat="48.2545" lon="-3.40874">
        <ele>201</ele>
        <time>2020-10-18T10:48:38.000Z</time>
      </trkpt>
      <trkpt lat="48.25455" lon="-3.40872">
        <ele>201.19999694824</ele>
        <time>2020-10-18T10:48:39.000Z</time>
      </trkpt>
      <trkpt lat="48.25455" lon="-3.40872">
        <ele>201.19999694824</ele>
        <time>2020-10-18T10:48:40.000Z</time>
      </trkpt>
      <trkpt lat="48.25458" lon="-3.40871">
        <ele>201.19999694824</ele>
        <time>2020-10-18T10:48:41.000Z</time>
      </trkpt>
      <trkpt lat="48.25462" lon="-3.40871">
        <ele>201.19999694824</ele>
        <time>2020-10-18T10:48:42.000Z</time>
      </trkpt>
      <trkpt lat="48.25463" lon="-3.40872">
        <ele>201.19999694824</ele>
        <time>2020-10-18T10:48:43.000Z</time>
      </trkpt>
      <trkpt lat="48.25463" lon="-3.40872">
        <ele>201.19999694824</ele>
        <time>2020-10-18T10:48:44.000Z</time>
      </trkpt>
      <trkpt lat="48.25464" lon="-3.40872">
        <ele>201.19999694824</ele>
        <time>2020-10-18T10:48:45.000Z</time>
      </trkpt>
      <trkpt lat="48.25464" lon="-3.40872">
        <ele>201.19999694824</ele>
        <time>2020-10-18T10:48:46.000Z</time>
      </trkpt>
      <trkpt lat="48.25464" lon="-3.40872">
        <ele>201.19999694824</ele>
        <time>2020-10-18T10:48:47.000Z</time>
      </trkpt>
      <trkpt lat="48.25464" lon="-3.40872">
        <ele>201.19999694824</ele>
        <time>2020-10-18T10:48:48.000Z</time>
      </trkpt>
      <trkpt lat="48.25464" lon="-3.40872">
        <ele>201.19999694824</ele>
        <time>2020-10-18T10:48:49.000Z</time>
      </trkpt>
      <trkpt lat="48.25464" lon="-3.40872">
        <ele>201.19999694824</ele>
        <time>2020-10-18T10:48:50.000Z</time>
      </trkpt>
      <trkpt lat="48.25464" lon="-3.40872">
        <ele>201.19999694824</ele>
        <time>2020-10-18T10:48:51.000Z</time>
      </trkpt>
      <trkpt lat="48.25464" lon="-3.40872">
        <ele>201.19999694824</ele>
        <time>2020-10-18T10:48:52.000Z</time>
      </trkpt>
      <trkpt lat="48.25464" lon="-3.40872">
        <ele>201.19999694824</ele>
        <time>2020-10-18T10:48:53.000Z</time>
      </trkpt>
      <trkpt lat="48.25465" lon="-3.40873">
        <ele>201.19999694824</ele>
        <time>2020-10-18T10:48:54.000Z</time>
      </trkpt>
      <trkpt lat="48.25469" lon="-3.40876">
        <ele>201</ele>
        <time>2020-10-18T10:48:55.000Z</time>
      </trkpt>
      <trkpt lat="48.25469" lon="-3.40876">
        <ele>201</ele>
        <time>2020-10-18T10:48:56.000Z</time>
      </trkpt>
      <trkpt lat="48.25472" lon="-3.40878">
        <ele>201</ele>
        <time>2020-10-18T10:48:57.000Z</time>
      </trkpt>
      <trkpt lat="48.25479" lon="-3.40883">
        <ele>200.80000305176</ele>
        <time>2020-10-18T10:48:58.000Z</time>
      </trkpt>
      <trkpt lat="48.25479" lon="-3.40883">
        <ele>200.80000305176</ele>
        <time>2020-10-18T10:48:59.000Z</time>
      </trkpt>
      <trkpt lat="48.25482" lon="-3.40884">
        <ele>200.80000305176</ele>
        <time>2020-10-18T10:49:00.000Z</time>
      </trkpt>
      <trkpt lat="48.25488" lon="-3.40887">
        <ele>201.19999694824</ele>
        <time>2020-10-18T10:49:01.000Z</time>
      </trkpt>
      <trkpt lat="48.25488" lon="-3.40887">
        <ele>201.19999694824</ele>
        <time>2020-10-18T10:49:02.000Z</time>
      </trkpt>
      <trkpt lat="48.25491" lon="-3.40888">
        <ele>201.19999694824</ele>
        <time>2020-10-18T10:49:03.000Z</time>
      </trkpt>
      <trkpt lat="48.25498" lon="-3.4089">
        <ele>201.39999389648</ele>
        <time>2020-10-18T10:49:04.000Z</time>
      </trkpt>
      <trkpt lat="48.25498" lon="-3.4089">
        <ele>201.39999389648</ele>
        <time>2020-10-18T10:49:05.000Z</time>
      </trkpt>
      <trkpt lat="48.25501" lon="-3.40891">
        <ele>201.60000610352</ele>
        <time>2020-10-18T10:49:06.000Z</time>
      </trkpt>
      <trkpt lat="48.25508" lon="-3.40894">
        <ele>201.80000305176</ele>
        <time>2020-10-18T10:49:07.000Z</time>
      </trkpt>
      <trkpt lat="48.25508" lon="-3.40894">
        <ele>201.80000305176</ele>
        <time>2020-10-18T10:49:08.000Z</time>
      </trkpt>
      <trkpt lat="48.25511" lon="-3.40896">
        <ele>202</ele>
        <time>2020-10-18T10:49:09.000Z</time>
      </trkpt>
      <trkpt lat="48.25519" lon="-3.40899">
        <ele>201.80000305176</ele>
        <time>2020-10-18T10:49:10.000Z</time>
      </trkpt>
      <trkpt lat="48.25519" lon="-3.40899">
        <ele>201.80000305176</ele>
        <time>2020-10-18T10:49:11.000Z</time>
      </trkpt>
      <trkpt lat="48.25528" lon="-3.40902">
        <ele>201.60000610352</ele>
        <time>2020-10-18T10:49:12.000Z</time>
      </trkpt>
      <trkpt lat="48.25528" lon="-3.40902">
        <ele>201.60000610352</ele>
        <time>2020-10-18T10:49:13.000Z</time>
      </trkpt>
      <trkpt lat="48.25533" lon="-3.40903">
        <ele>201.60000610352</ele>
        <time>2020-10-18T10:49:14.000Z</time>
      </trkpt>
      <trkpt lat="48.25542" lon="-3.40906">
        <ele>201.39999389648</ele>
        <time>2020-10-18T10:49:15.000Z</time>
      </trkpt>
      <trkpt lat="48.25542" lon="-3.40906">
        <ele>201.39999389648</ele>
        <time>2020-10-18T10:49:16.000Z</time>
      </trkpt>
      <trkpt lat="48.25547" lon="-3.40907">
        <ele>201.19999694824</ele>
        <time>2020-10-18T10:49:17.000Z</time>
      </trkpt>
      <trkpt lat="48.25558" lon="-3.40909">
        <ele>201.19999694824</ele>
        <time>2020-10-18T10:49:18.000Z</time>
      </trkpt>
      <trkpt lat="48.25558" lon="-3.40909">
        <ele>201.19999694824</ele>
        <time>2020-10-18T10:49:19.000Z</time>
      </trkpt>
      <trkpt lat="48.25563" lon="-3.40911">
        <ele>201.19999694824</ele>
        <time>2020-10-18T10:49:20.000Z</time>
      </trkpt>
      <trkpt lat="48.25574" lon="-3.40914">
        <ele>201</ele>
        <time>2020-10-18T10:49:21.000Z</time>
      </trkpt>
      <trkpt lat="48.2558" lon="-3.40915">
        <ele>201</ele>
        <time>2020-10-18T10:49:22.000Z</time>
      </trkpt>
      <trkpt lat="48.2558" lon="-3.40915">
        <ele>201</ele>
        <time>2020-10-18T10:49:23.000Z</time>
      </trkpt>
      <trkpt lat="48.25585" lon="-3.40917">
        <ele>201</ele>
        <time>2020-10-18T10:49:24.000Z</time>
      </trkpt>
      <trkpt lat="48.25597" lon="-3.4092">
        <ele>200.80000305176</ele>
        <time>2020-10-18T10:49:25.000Z</time>
      </trkpt>
      <trkpt lat="48.25597" lon="-3.4092">
        <ele>200.80000305176</ele>
        <time>2020-10-18T10:49:26.000Z</time>
      </trkpt>
      <trkpt lat="48.25609" lon="-3.40922">
        <ele>200.19999694824</ele>
        <time>2020-10-18T10:49:27.000Z</time>
      </trkpt>
      <trkpt lat="48.25609" lon="-3.40922">
        <ele>200.19999694824</ele>
        <time>2020-10-18T10:49:28.000Z</time>
      </trkpt>
      <trkpt lat="48.25615" lon="-3.40922">
        <ele>199.80000305176</ele>
        <time>2020-10-18T10:49:29.000Z</time>
      </trkpt>
      <trkpt lat="48.25628" lon="-3.40923">
        <ele>199</ele>
        <time>2020-10-18T10:49:30.000Z</time>
      </trkpt>
      <trkpt lat="48.25628" lon="-3.40923">
        <ele>199</ele>
        <time>2020-10-18T10:49:31.000Z</time>
      </trkpt>
      <trkpt lat="48.25636" lon="-3.40923">
        <ele>198.60000610352</ele>
        <time>2020-10-18T10:49:32.000Z</time>
      </trkpt>
      <trkpt lat="48.25651" lon="-3.40925">
        <ele>197.60000610352</ele>
        <time>2020-10-18T10:49:33.000Z</time>
      </trkpt>
      <trkpt lat="48.25651" lon="-3.40925">
        <ele>197.60000610352</ele>
        <time>2020-10-18T10:49:34.000Z</time>
      </trkpt>
      <trkpt lat="48.25669" lon="-3.40926">
        <ele>196.60000610352</ele>
        <time>2020-10-18T10:49:35.000Z</time>
      </trkpt>
      <trkpt lat="48.25669" lon="-3.40926">
        <ele>196.60000610352</ele>
        <time>2020-10-18T10:49:36.000Z</time>
      </trkpt>
      <trkpt lat="48.25678" lon="-3.40927">
        <ele>196</ele>
        <time>2020-10-18T10:49:37.000Z</time>
      </trkpt>
      <trkpt lat="48.25698" lon="-3.40929">
        <ele>195</ele>
        <time>2020-10-18T10:49:38.000Z</time>
      </trkpt>
      <trkpt lat="48.25698" lon="-3.40929">
        <ele>195</ele>
        <time>2020-10-18T10:49:39.000Z</time>
      </trkpt>
      <trkpt lat="48.25707" lon="-3.4093">
        <ele>194.60000610352</ele>
        <time>2020-10-18T10:49:40.000Z</time>
      </trkpt>
      <trkpt lat="48.25725" lon="-3.40935">
        <ele>193.80000305176</ele>
        <time>2020-10-18T10:49:41.000Z</time>
      </trkpt>
      <trkpt lat="48.25733" lon="-3.40938">
        <ele>193.60000610352</ele>
        <time>2020-10-18T10:49:42.000Z</time>
      </trkpt>
      <trkpt lat="48.25733" lon="-3.40938">
        <ele>193.60000610352</ele>
        <time>2020-10-18T10:49:43.000Z</time>
      </trkpt>
      <trkpt lat="48.25741" lon="-3.40942">
        <ele>193.19999694824</ele>
        <time>2020-10-18T10:49:44.000Z</time>
      </trkpt>
      <trkpt lat="48.25755" lon="-3.40949">
        <ele>192.39999389648</ele>
        <time>2020-10-18T10:49:45.000Z</time>
      </trkpt>
      <trkpt lat="48.25755" lon="-3.40949">
        <ele>192.39999389648</ele>
        <time>2020-10-18T10:49:46.000Z</time>
      </trkpt>
      <trkpt lat="48.25766" lon="-3.40955">
        <ele>191.39999389648</ele>
        <time>2020-10-18T10:49:47.000Z</time>
      </trkpt>
      <trkpt lat="48.25766" lon="-3.40955">
        <ele>191.39999389648</ele>
        <time>2020-10-18T10:49:48.000Z</time>
      </trkpt>
      <trkpt lat="48.25775" lon="-3.40961">
        <ele>190.39999389648</ele>
        <time>2020-10-18T10:49:49.000Z</time>
      </trkpt>
      <trkpt lat="48.25775" lon="-3.40961">
        <ele>190.39999389648</ele>
        <time>2020-10-18T10:49:50.000Z</time>
      </trkpt>
      <trkpt lat="48.25782" lon="-3.40964">
        <ele>189.60000610352</ele>
        <time>2020-10-18T10:49:51.000Z</time>
      </trkpt>
      <trkpt lat="48.25782" lon="-3.40964">
        <ele>189.60000610352</ele>
        <time>2020-10-18T10:49:52.000Z</time>
      </trkpt>
      <trkpt lat="48.25785" lon="-3.40966">
        <ele>189.19999694824</ele>
        <time>2020-10-18T10:49:53.000Z</time>
      </trkpt>
      <trkpt lat="48.25794" lon="-3.4097">
        <ele>188.19999694824</ele>
        <time>2020-10-18T10:49:54.000Z</time>
      </trkpt>
      <trkpt lat="48.25794" lon="-3.4097">
        <ele>188.19999694824</ele>
        <time>2020-10-18T10:49:55.000Z</time>
      </trkpt>
      <trkpt lat="48.258" lon="-3.40973">
        <ele>187.60000610352</ele>
        <time>2020-10-18T10:49:56.000Z</time>
      </trkpt>
      <trkpt lat="48.25812" lon="-3.40976">
        <ele>186.19999694824</ele>
        <time>2020-10-18T10:49:57.000Z</time>
      </trkpt>
      <trkpt lat="48.25812" lon="-3.40976">
        <ele>186.19999694824</ele>
        <time>2020-10-18T10:49:58.000Z</time>
      </trkpt>
      <trkpt lat="48.25818" lon="-3.40977">
        <ele>185.60000610352</ele>
        <time>2020-10-18T10:49:59.000Z</time>
      </trkpt>
      <trkpt lat="48.25832" lon="-3.40978">
        <ele>184.39999389648</ele>
        <time>2020-10-18T10:50:00.000Z</time>
      </trkpt>
      <trkpt lat="48.25832" lon="-3.40978">
        <ele>184.39999389648</ele>
        <time>2020-10-18T10:50:01.000Z</time>
      </trkpt>
      <trkpt lat="48.25839" lon="-3.40978">
        <ele>183.60000610352</ele>
        <time>2020-10-18T10:50:02.000Z</time>
      </trkpt>
      <trkpt lat="48.25853" lon="-3.40978">
        <ele>182.60000610352</ele>
        <time>2020-10-18T10:50:03.000Z</time>
      </trkpt>
      <trkpt lat="48.25853" lon="-3.40978">
        <ele>182.60000610352</ele>
        <time>2020-10-18T10:50:04.000Z</time>
      </trkpt>
      <trkpt lat="48.25861" lon="-3.40978">
        <ele>182</ele>
        <time>2020-10-18T10:50:05.000Z</time>
      </trkpt>
      <trkpt lat="48.25877" lon="-3.40977">
        <ele>181.19999694824</ele>
        <time>2020-10-18T10:50:06.000Z</time>
      </trkpt>
      <trkpt lat="48.25877" lon="-3.40977">
        <ele>181.19999694824</ele>
        <time>2020-10-18T10:50:07.000Z</time>
      </trkpt>
      <trkpt lat="48.25885" lon="-3.40976">
        <ele>180.60000610352</ele>
        <time>2020-10-18T10:50:08.000Z</time>
      </trkpt>
      <trkpt lat="48.25902" lon="-3.4097">
        <ele>179.80000305176</ele>
        <time>2020-10-18T10:50:09.000Z</time>
      </trkpt>
      <trkpt lat="48.25902" lon="-3.4097">
        <ele>179.80000305176</ele>
        <time>2020-10-18T10:50:10.000Z</time>
      </trkpt>
      <trkpt lat="48.2591" lon="-3.40966">
        <ele>179.39999389648</ele>
        <time>2020-10-18T10:50:11.000Z</time>
      </trkpt>
      <trkpt lat="48.25927" lon="-3.40957">
        <ele>178.39999389648</ele>
        <time>2020-10-18T10:50:12.000Z</time>
      </trkpt>
      <trkpt lat="48.25927" lon="-3.40957">
        <ele>178.39999389648</ele>
        <time>2020-10-18T10:50:13.000Z</time>
      </trkpt>
      <trkpt lat="48.25936" lon="-3.40953">
        <ele>178</ele>
        <time>2020-10-18T10:50:14.000Z</time>
      </trkpt>
      <trkpt lat="48.25954" lon="-3.40948">
        <ele>177.60000610352</ele>
        <time>2020-10-18T10:50:15.000Z</time>
      </trkpt>
      <trkpt lat="48.25954" lon="-3.40948">
        <ele>177.60000610352</ele>
        <time>2020-10-18T10:50:16.000Z</time>
      </trkpt>
      <trkpt lat="48.25964" lon="-3.40947">
        <ele>177.39999389648</ele>
        <time>2020-10-18T10:50:17.000Z</time>
      </trkpt>
      <trkpt lat="48.25983" lon="-3.40948">
        <ele>177</ele>
        <time>2020-10-18T10:50:18.000Z</time>
      </trkpt>
      <trkpt lat="48.25983" lon="-3.40948">
        <ele>177</ele>
        <time>2020-10-18T10:50:19.000Z</time>
      </trkpt>
      <trkpt lat="48.25992" lon="-3.40952">
        <ele>176.80000305176</ele>
        <time>2020-10-18T10:50:20.000Z</time>
      </trkpt>
      <trkpt lat="48.2601" lon="-3.40965">
        <ele>175.39999389648</ele>
        <time>2020-10-18T10:50:21.000Z</time>
      </trkpt>
      <trkpt lat="48.2601" lon="-3.40965">
        <ele>175.39999389648</ele>
        <time>2020-10-18T10:50:22.000Z</time>
      </trkpt>
      <trkpt lat="48.26018" lon="-3.40973">
        <ele>175</ele>
        <time>2020-10-18T10:50:23.000Z</time>
      </trkpt>
      <trkpt lat="48.26034" lon="-3.40989">
        <ele>174.39999389648</ele>
        <time>2020-10-18T10:50:24.000Z</time>
      </trkpt>
      <trkpt lat="48.26034" lon="-3.40989">
        <ele>174.39999389648</ele>
        <time>2020-10-18T10:50:25.000Z</time>
      </trkpt>
      <trkpt lat="48.26042" lon="-3.40997">
        <ele>174</ele>
        <time>2020-10-18T10:50:26.000Z</time>
      </trkpt>
      <trkpt lat="48.26058" lon="-3.41014">
        <ele>173</ele>
        <time>2020-10-18T10:50:27.000Z</time>
      </trkpt>
      <trkpt lat="48.26058" lon="-3.41014">
        <ele>173</ele>
        <time>2020-10-18T10:50:28.000Z</time>
      </trkpt>
      <trkpt lat="48.26066" lon="-3.41022">
        <ele>172.80000305176</ele>
        <time>2020-10-18T10:50:29.000Z</time>
      </trkpt>
      <trkpt lat="48.26081" lon="-3.41038">
        <ele>172.80000305176</ele>
        <time>2020-10-18T10:50:30.000Z</time>
      </trkpt>
      <trkpt lat="48.26081" lon="-3.41038">
        <ele>172.80000305176</ele>
        <time>2020-10-18T10:50:31.000Z</time>
      </trkpt>
      <trkpt lat="48.26089" lon="-3.41047">
        <ele>172.39999389648</ele>
        <time>2020-10-18T10:50:32.000Z</time>
      </trkpt>
      <trkpt lat="48.26105" lon="-3.41063">
        <ele>172.19999694824</ele>
        <time>2020-10-18T10:50:33.000Z</time>
      </trkpt>
      <trkpt lat="48.26105" lon="-3.41063">
        <ele>172.19999694824</ele>
        <time>2020-10-18T10:50:34.000Z</time>
      </trkpt>
      <trkpt lat="48.26112" lon="-3.41072">
        <ele>172.39999389648</ele>
        <time>2020-10-18T10:50:35.000Z</time>
      </trkpt>
      <trkpt lat="48.26126" lon="-3.41092">
        <ele>172.39999389648</ele>
        <time>2020-10-18T10:50:36.000Z</time>
      </trkpt>
      <trkpt lat="48.26126" lon="-3.41092">
        <ele>172.39999389648</ele>
        <time>2020-10-18T10:50:37.000Z</time>
      </trkpt>
      <trkpt lat="48.26133" lon="-3.41102">
        <ele>172.60000610352</ele>
        <time>2020-10-18T10:50:38.000Z</time>
      </trkpt>
      <trkpt lat="48.26144" lon="-3.41122">
        <ele>173.39999389648</ele>
        <time>2020-10-18T10:50:39.000Z</time>
      </trkpt>
      <trkpt lat="48.26144" lon="-3.41122">
        <ele>173.39999389648</ele>
        <time>2020-10-18T10:50:40.000Z</time>
      </trkpt>
      <trkpt lat="48.2615" lon="-3.41132">
        <ele>173.80000305176</ele>
        <time>2020-10-18T10:50:41.000Z</time>
      </trkpt>
      <trkpt lat="48.26164" lon="-3.41147">
        <ele>173.39999389648</ele>
        <time>2020-10-18T10:50:42.000Z</time>
      </trkpt>
      <trkpt lat="48.26164" lon="-3.41147">
        <ele>173.39999389648</ele>
        <time>2020-10-18T10:50:43.000Z</time>
      </trkpt>
      <trkpt lat="48.26172" lon="-3.41149">
        <ele>173.19999694824</ele>
        <time>2020-10-18T10:50:44.000Z</time>
      </trkpt>
      <trkpt lat="48.26189" lon="-3.41141">
        <ele>172.80000305176</ele>
        <time>2020-10-18T10:50:45.000Z</time>
      </trkpt>
      <trkpt lat="48.26189" lon="-3.41141">
        <ele>172.80000305176</ele>
        <time>2020-10-18T10:50:46.000Z</time>
      </trkpt>
      <trkpt lat="48.26196" lon="-3.41134">
        <ele>172.60000610352</ele>
        <time>2020-10-18T10:50:47.000Z</time>
      </trkpt>
      <trkpt lat="48.26202" lon="-3.41128">
        <ele>172.39999389648</ele>
        <time>2020-10-18T10:50:48.000Z</time>
      </trkpt>
      <trkpt lat="48.26213" lon="-3.41115">
        <ele>172.19999694824</ele>
        <time>2020-10-18T10:50:49.000Z</time>
      </trkpt>
      <trkpt lat="48.26213" lon="-3.41115">
        <ele>172.19999694824</ele>
        <time>2020-10-18T10:50:50.000Z</time>
      </trkpt>
      <trkpt lat="48.26224" lon="-3.41102">
        <ele>172</ele>
        <time>2020-10-18T10:50:51.000Z</time>
      </trkpt>
      <trkpt lat="48.26224" lon="-3.41102">
        <ele>172</ele>
        <time>2020-10-18T10:50:52.000Z</time>
      </trkpt>
      <trkpt lat="48.26233" lon="-3.41087">
        <ele>171.80000305176</ele>
        <time>2020-10-18T10:50:53.000Z</time>
      </trkpt>
      <trkpt lat="48.26233" lon="-3.41087">
        <ele>171.80000305176</ele>
        <time>2020-10-18T10:50:54.000Z</time>
      </trkpt>
      <trkpt lat="48.26237" lon="-3.41079">
        <ele>171.60000610352</ele>
        <time>2020-10-18T10:50:55.000Z</time>
      </trkpt>
      <trkpt lat="48.26244" lon="-3.41062">
        <ele>171.39999389648</ele>
        <time>2020-10-18T10:50:56.000Z</time>
      </trkpt>
      <trkpt lat="48.26244" lon="-3.41062">
        <ele>171.39999389648</ele>
        <time>2020-10-18T10:50:57.000Z</time>
      </trkpt>
      <trkpt lat="48.26247" lon="-3.41053">
        <ele>171.39999389648</ele>
        <time>2020-10-18T10:50:58.000Z</time>
      </trkpt>
      <trkpt lat="48.26253" lon="-3.41037">
        <ele>171.19999694824</ele>
        <time>2020-10-18T10:50:59.000Z</time>
      </trkpt>
      <trkpt lat="48.26253" lon="-3.41037">
        <ele>171.19999694824</ele>
        <time>2020-10-18T10:51:00.000Z</time>
      </trkpt>
      <trkpt lat="48.26257" lon="-3.41029">
        <ele>171.19999694824</ele>
        <time>2020-10-18T10:51:01.000Z</time>
      </trkpt>
      <trkpt lat="48.26263" lon="-3.41014">
        <ele>171</ele>
        <time>2020-10-18T10:51:02.000Z</time>
      </trkpt>
      <trkpt lat="48.26263" lon="-3.41014">
        <ele>171</ele>
        <time>2020-10-18T10:51:03.000Z</time>
      </trkpt>
      <trkpt lat="48.2627" lon="-3.40999">
        <ele>171</ele>
        <time>2020-10-18T10:51:04.000Z</time>
      </trkpt>
      <trkpt lat="48.2627" lon="-3.40999">
        <ele>171</ele>
        <time>2020-10-18T10:51:05.000Z</time>
      </trkpt>
      <trkpt lat="48.26273" lon="-3.40992">
        <ele>171</ele>
        <time>2020-10-18T10:51:06.000Z</time>
      </trkpt>
      <trkpt lat="48.26279" lon="-3.40979">
        <ele>171</ele>
        <time>2020-10-18T10:51:07.000Z</time>
      </trkpt>
      <trkpt lat="48.26279" lon="-3.40979">
        <ele>171</ele>
        <time>2020-10-18T10:51:08.000Z</time>
      </trkpt>
      <trkpt lat="48.26282" lon="-3.40973">
        <ele>171</ele>
        <time>2020-10-18T10:51:09.000Z</time>
      </trkpt>
      <trkpt lat="48.26288" lon="-3.40961">
        <ele>171</ele>
        <time>2020-10-18T10:51:10.000Z</time>
      </trkpt>
      <trkpt lat="48.26288" lon="-3.40961">
        <ele>171</ele>
        <time>2020-10-18T10:51:11.000Z</time>
      </trkpt>
      <trkpt lat="48.26292" lon="-3.40956">
        <ele>171</ele>
        <time>2020-10-18T10:51:12.000Z</time>
      </trkpt>
      <trkpt lat="48.26299" lon="-3.40945">
        <ele>171</ele>
        <time>2020-10-18T10:51:13.000Z</time>
      </trkpt>
      <trkpt lat="48.26299" lon="-3.40945">
        <ele>171</ele>
        <time>2020-10-18T10:51:14.000Z</time>
      </trkpt>
      <trkpt lat="48.26303" lon="-3.4094">
        <ele>171</ele>
        <time>2020-10-18T10:51:15.000Z</time>
      </trkpt>
      <trkpt lat="48.26311" lon="-3.4093">
        <ele>171</ele>
        <time>2020-10-18T10:51:16.000Z</time>
      </trkpt>
      <trkpt lat="48.26311" lon="-3.4093">
        <ele>171</ele>
        <time>2020-10-18T10:51:17.000Z</time>
      </trkpt>
      <trkpt lat="48.26314" lon="-3.40925">
        <ele>171.19999694824</ele>
        <time>2020-10-18T10:51:18.000Z</time>
      </trkpt>
      <trkpt lat="48.26321" lon="-3.40916">
        <ele>171.39999389648</ele>
        <time>2020-10-18T10:51:19.000Z</time>
      </trkpt>
      <trkpt lat="48.26321" lon="-3.40916">
        <ele>171.39999389648</ele>
        <time>2020-10-18T10:51:20.000Z</time>
      </trkpt>
      <trkpt lat="48.26328" lon="-3.40906">
        <ele>171.60000610352</ele>
        <time>2020-10-18T10:51:21.000Z</time>
      </trkpt>
      <trkpt lat="48.26328" lon="-3.40906">
        <ele>171.60000610352</ele>
        <time>2020-10-18T10:51:22.000Z</time>
      </trkpt>
      <trkpt lat="48.26331" lon="-3.40901">
        <ele>171.80000305176</ele>
        <time>2020-10-18T10:51:23.000Z</time>
      </trkpt>
      <trkpt lat="48.26336" lon="-3.4089">
        <ele>172</ele>
        <time>2020-10-18T10:51:24.000Z</time>
      </trkpt>
      <trkpt lat="48.26336" lon="-3.4089">
        <ele>172</ele>
        <time>2020-10-18T10:51:25.000Z</time>
      </trkpt>
      <trkpt lat="48.26338" lon="-3.40884">
        <ele>172.19999694824</ele>
        <time>2020-10-18T10:51:26.000Z</time>
      </trkpt>
      <trkpt lat="48.2634" lon="-3.40873">
        <ele>172.39999389648</ele>
        <time>2020-10-18T10:51:27.000Z</time>
      </trkpt>
      <trkpt lat="48.2634" lon="-3.40873">
        <ele>172.39999389648</ele>
        <time>2020-10-18T10:51:28.000Z</time>
      </trkpt>
      <trkpt lat="48.26341" lon="-3.40868">
        <ele>172.60000610352</ele>
        <time>2020-10-18T10:51:29.000Z</time>
      </trkpt>
      <trkpt lat="48.26343" lon="-3.40859">
        <ele>172.80000305176</ele>
        <time>2020-10-18T10:51:30.000Z</time>
      </trkpt>
      <trkpt lat="48.26343" lon="-3.40859">
        <ele>172.80000305176</ele>
        <time>2020-10-18T10:51:31.000Z</time>
      </trkpt>
      <trkpt lat="48.26344" lon="-3.40855">
        <ele>172.80000305176</ele>
        <time>2020-10-18T10:51:32.000Z</time>
      </trkpt>
      <trkpt lat="48.26343" lon="-3.40846">
        <ele>173</ele>
        <time>2020-10-18T10:51:33.000Z</time>
      </trkpt>
      <trkpt lat="48.26343" lon="-3.40846">
        <ele>173</ele>
        <time>2020-10-18T10:51:34.000Z</time>
      </trkpt>
      <trkpt lat="48.26342" lon="-3.40842">
        <ele>173</ele>
        <time>2020-10-18T10:51:35.000Z</time>
      </trkpt>
      <trkpt lat="48.2634" lon="-3.40836">
        <ele>173</ele>
        <time>2020-10-18T10:51:36.000Z</time>
      </trkpt>
      <trkpt lat="48.2634" lon="-3.40836">
        <ele>173</ele>
        <time>2020-10-18T10:51:37.000Z</time>
      </trkpt>
      <trkpt lat="48.26338" lon="-3.40833">
        <ele>173</ele>
        <time>2020-10-18T10:51:38.000Z</time>
      </trkpt>
      <trkpt lat="48.26335" lon="-3.40827">
        <ele>173.19999694824</ele>
        <time>2020-10-18T10:51:39.000Z</time>
      </trkpt>
      <trkpt lat="48.26333" lon="-3.40824">
        <ele>173.19999694824</ele>
        <time>2020-10-18T10:51:40.000Z</time>
      </trkpt>
      <trkpt lat="48.26333" lon="-3.40824">
        <ele>173.19999694824</ele>
        <time>2020-10-18T10:51:41.000Z</time>
      </trkpt>
      <trkpt lat="48.26331" lon="-3.40821">
        <ele>173.19999694824</ele>
        <time>2020-10-18T10:51:42.000Z</time>
      </trkpt>
      <trkpt lat="48.26327" lon="-3.40816">
        <ele>173.19999694824</ele>
        <time>2020-10-18T10:51:43.000Z</time>
      </trkpt>
      <trkpt lat="48.26327" lon="-3.40816">
        <ele>173.19999694824</ele>
        <time>2020-10-18T10:51:44.000Z</time>
      </trkpt>
      <trkpt lat="48.26323" lon="-3.4081">
        <ele>173.19999694824</ele>
        <time>2020-10-18T10:51:45.000Z</time>
      </trkpt>
      <trkpt lat="48.26323" lon="-3.4081">
        <ele>173.19999694824</ele>
        <time>2020-10-18T10:51:46.000Z</time>
      </trkpt>
      <trkpt lat="48.26319" lon="-3.40804">
        <ele>173.39999389648</ele>
        <time>2020-10-18T10:51:47.000Z</time>
      </trkpt>
      <trkpt lat="48.26319" lon="-3.40804">
        <ele>173.39999389648</ele>
        <time>2020-10-18T10:51:48.000Z</time>
      </trkpt>
      <trkpt lat="48.26315" lon="-3.40798">
        <ele>173.39999389648</ele>
        <time>2020-10-18T10:51:49.000Z</time>
      </trkpt>
      <trkpt lat="48.26315" lon="-3.40798">
        <ele>173.39999389648</ele>
        <time>2020-10-18T10:51:50.000Z</time>
      </trkpt>
      <trkpt lat="48.26312" lon="-3.40791">
        <ele>173.80000305176</ele>
        <time>2020-10-18T10:51:51.000Z</time>
      </trkpt>
      <trkpt lat="48.26312" lon="-3.40791">
        <ele>173.80000305176</ele>
        <time>2020-10-18T10:51:52.000Z</time>
      </trkpt>
      <trkpt lat="48.2631" lon="-3.40788">
        <ele>174</ele>
        <time>2020-10-18T10:51:53.000Z</time>
      </trkpt>
      <trkpt lat="48.26307" lon="-3.40781">
        <ele>174.19999694824</ele>
        <time>2020-10-18T10:51:54.000Z</time>
      </trkpt>
      <trkpt lat="48.26307" lon="-3.40781">
        <ele>174.19999694824</ele>
        <time>2020-10-18T10:51:55.000Z</time>
      </trkpt>
      <trkpt lat="48.26305" lon="-3.40778">
        <ele>174.39999389648</ele>
        <time>2020-10-18T10:51:56.000Z</time>
      </trkpt>
      <trkpt lat="48.26302" lon="-3.40772">
        <ele>174.80000305176</ele>
        <time>2020-10-18T10:51:57.000Z</time>
      </trkpt>
      <trkpt lat="48.26302" lon="-3.40772">
        <ele>174.80000305176</ele>
        <time>2020-10-18T10:51:58.000Z</time>
      </trkpt>
      <trkpt lat="48.263" lon="-3.40769">
        <ele>175</ele>
        <time>2020-10-18T10:51:59.000Z</time>
      </trkpt>
      <trkpt lat="48.26296" lon="-3.40763">
        <ele>175.39999389648</ele>
        <time>2020-10-18T10:52:00.000Z</time>
      </trkpt>
      <trkpt lat="48.26296" lon="-3.40763">
        <ele>175.39999389648</ele>
        <time>2020-10-18T10:52:01.000Z</time>
      </trkpt>
      <trkpt lat="48.26294" lon="-3.40761">
        <ele>175.60000610352</ele>
        <time>2020-10-18T10:52:02.000Z</time>
      </trkpt>
      <trkpt lat="48.26291" lon="-3.40755">
        <ele>175.80000305176</ele>
        <time>2020-10-18T10:52:03.000Z</time>
      </trkpt>
      <trkpt lat="48.26291" lon="-3.40755">
        <ele>175.80000305176</ele>
        <time>2020-10-18T10:52:04.000Z</time>
      </trkpt>
      <trkpt lat="48.2629" lon="-3.40753">
        <ele>175.80000305176</ele>
        <time>2020-10-18T10:52:05.000Z</time>
      </trkpt>
      <trkpt lat="48.26287" lon="-3.40747">
        <ele>176</ele>
        <time>2020-10-18T10:52:06.000Z</time>
      </trkpt>
      <trkpt lat="48.26287" lon="-3.40747">
        <ele>176</ele>
        <time>2020-10-18T10:52:07.000Z</time>
      </trkpt>
      <trkpt lat="48.26285" lon="-3.40744">
        <ele>176.19999694824</ele>
        <time>2020-10-18T10:52:08.000Z</time>
      </trkpt>
      <trkpt lat="48.26282" lon="-3.40739">
        <ele>176.60000610352</ele>
        <time>2020-10-18T10:52:09.000Z</time>
      </trkpt>
      <trkpt lat="48.26282" lon="-3.40739">
        <ele>176.60000610352</ele>
        <time>2020-10-18T10:52:10.000Z</time>
      </trkpt>
      <trkpt lat="48.2628" lon="-3.40736">
        <ele>176.80000305176</ele>
        <time>2020-10-18T10:52:11.000Z</time>
      </trkpt>
      <trkpt lat="48.26276" lon="-3.4073">
        <ele>177.19999694824</ele>
        <time>2020-10-18T10:52:12.000Z</time>
      </trkpt>
      <trkpt lat="48.26276" lon="-3.4073">
        <ele>177.19999694824</ele>
        <time>2020-10-18T10:52:13.000Z</time>
      </trkpt>
      <trkpt lat="48.26275" lon="-3.40727">
        <ele>177.60000610352</ele>
        <time>2020-10-18T10:52:14.000Z</time>
      </trkpt>
      <trkpt lat="48.26271" lon="-3.4072">
        <ele>178</ele>
        <time>2020-10-18T10:52:15.000Z</time>
      </trkpt>
      <trkpt lat="48.26271" lon="-3.4072">
        <ele>178</ele>
        <time>2020-10-18T10:52:16.000Z</time>
      </trkpt>
      <trkpt lat="48.26269" lon="-3.40717">
        <ele>178.19999694824</ele>
        <time>2020-10-18T10:52:17.000Z</time>
      </trkpt>
      <trkpt lat="48.26266" lon="-3.40711">
        <ele>178.80000305176</ele>
        <time>2020-10-18T10:52:18.000Z</time>
      </trkpt>
      <trkpt lat="48.26266" lon="-3.40711">
        <ele>178.80000305176</ele>
        <time>2020-10-18T10:52:19.000Z</time>
      </trkpt>
      <trkpt lat="48.26262" lon="-3.40705">
        <ele>179.19999694824</ele>
        <time>2020-10-18T10:52:20.000Z</time>
      </trkpt>
      <trkpt lat="48.26262" lon="-3.40705">
        <ele>179.19999694824</ele>
        <time>2020-10-18T10:52:21.000Z</time>
      </trkpt>
      <trkpt lat="48.26261" lon="-3.40702">
        <ele>179.39999389648</ele>
        <time>2020-10-18T10:52:22.000Z</time>
      </trkpt>
      <trkpt lat="48.26257" lon="-3.40695">
        <ele>179.80000305176</ele>
        <time>2020-10-18T10:52:23.000Z</time>
      </trkpt>
      <trkpt lat="48.26257" lon="-3.40695">
        <ele>179.80000305176</ele>
        <time>2020-10-18T10:52:24.000Z</time>
      </trkpt>
      <trkpt lat="48.26256" lon="-3.40692">
        <ele>180</ele>
        <time>2020-10-18T10:52:25.000Z</time>
      </trkpt>
      <trkpt lat="48.26252" lon="-3.40686">
        <ele>180.19999694824</ele>
        <time>2020-10-18T10:52:26.000Z</time>
      </trkpt>
      <trkpt lat="48.26252" lon="-3.40686">
        <ele>180.19999694824</ele>
        <time>2020-10-18T10:52:27.000Z</time>
      </trkpt>
      <trkpt lat="48.26251" lon="-3.40683">
        <ele>180.19999694824</ele>
        <time>2020-10-18T10:52:28.000Z</time>
      </trkpt>
      <trkpt lat="48.26247" lon="-3.40677">
        <ele>180.60000610352</ele>
        <time>2020-10-18T10:52:29.000Z</time>
      </trkpt>
      <trkpt lat="48.26247" lon="-3.40677">
        <ele>180.60000610352</ele>
        <time>2020-10-18T10:52:30.000Z</time>
      </trkpt>
      <trkpt lat="48.26246" lon="-3.40674">
        <ele>180.80000305176</ele>
        <time>2020-10-18T10:52:31.000Z</time>
      </trkpt>
      <trkpt lat="48.26242" lon="-3.40668">
        <ele>181.19999694824</ele>
        <time>2020-10-18T10:52:32.000Z</time>
      </trkpt>
      <trkpt lat="48.26242" lon="-3.40668">
        <ele>181.19999694824</ele>
        <time>2020-10-18T10:52:33.000Z</time>
      </trkpt>
      <trkpt lat="48.2624" lon="-3.40665">
        <ele>181.39999389648</ele>
        <time>2020-10-18T10:52:34.000Z</time>
      </trkpt>
      <trkpt lat="48.26236" lon="-3.40658">
        <ele>181.80000305176</ele>
        <time>2020-10-18T10:52:35.000Z</time>
      </trkpt>
      <trkpt lat="48.26236" lon="-3.40658">
        <ele>181.80000305176</ele>
        <time>2020-10-18T10:52:36.000Z</time>
      </trkpt>
      <trkpt lat="48.26234" lon="-3.40655">
        <ele>182</ele>
        <time>2020-10-18T10:52:37.000Z</time>
      </trkpt>
      <trkpt lat="48.2623" lon="-3.40648">
        <ele>182.39999389648</ele>
        <time>2020-10-18T10:52:38.000Z</time>
      </trkpt>
      <trkpt lat="48.26228" lon="-3.40645">
        <ele>182.60000610352</ele>
        <time>2020-10-18T10:52:39.000Z</time>
      </trkpt>
      <trkpt lat="48.26228" lon="-3.40645">
        <ele>182.60000610352</ele>
        <time>2020-10-18T10:52:40.000Z</time>
      </trkpt>
      <trkpt lat="48.26226" lon="-3.40643">
        <ele>182.80000305176</ele>
        <time>2020-10-18T10:52:41.000Z</time>
      </trkpt>
      <trkpt lat="48.26224" lon="-3.40635">
        <ele>183.19999694824</ele>
        <time>2020-10-18T10:52:42.000Z</time>
      </trkpt>
      <trkpt lat="48.26224" lon="-3.40635">
        <ele>183.19999694824</ele>
        <time>2020-10-18T10:52:43.000Z</time>
      </trkpt>
      <trkpt lat="48.26223" lon="-3.40631">
        <ele>183.19999694824</ele>
        <time>2020-10-18T10:52:44.000Z</time>
      </trkpt>
      <trkpt lat="48.26225" lon="-3.40623">
        <ele>183.60000610352</ele>
        <time>2020-10-18T10:52:45.000Z</time>
      </trkpt>
      <trkpt lat="48.26225" lon="-3.40623">
        <ele>183.60000610352</ele>
        <time>2020-10-18T10:52:46.000Z</time>
      </trkpt>
      <trkpt lat="48.26227" lon="-3.4062">
        <ele>183.60000610352</ele>
        <time>2020-10-18T10:52:47.000Z</time>
      </trkpt>
      <trkpt lat="48.26228" lon="-3.40616">
        <ele>183.80000305176</ele>
        <time>2020-10-18T10:52:48.000Z</time>
      </trkpt>
      <trkpt lat="48.26232" lon="-3.4061">
        <ele>184</ele>
        <time>2020-10-18T10:52:49.000Z</time>
      </trkpt>
      <trkpt lat="48.26232" lon="-3.4061">
        <ele>184</ele>
        <time>2020-10-18T10:52:50.000Z</time>
      </trkpt>
      <trkpt lat="48.26234" lon="-3.40606">
        <ele>184</ele>
        <time>2020-10-18T10:52:51.000Z</time>
      </trkpt>
      <trkpt lat="48.26237" lon="-3.40598">
        <ele>184.19999694824</ele>
        <time>2020-10-18T10:52:52.000Z</time>
      </trkpt>
      <trkpt lat="48.26237" lon="-3.40598">
        <ele>184.19999694824</ele>
        <time>2020-10-18T10:52:53.000Z</time>
      </trkpt>
      <trkpt lat="48.26239" lon="-3.40595">
        <ele>184.39999389648</ele>
        <time>2020-10-18T10:52:54.000Z</time>
      </trkpt>
      <trkpt lat="48.26243" lon="-3.40588">
        <ele>184.39999389648</ele>
        <time>2020-10-18T10:52:55.000Z</time>
      </trkpt>
      <trkpt lat="48.26243" lon="-3.40588">
        <ele>184.39999389648</ele>
        <time>2020-10-18T10:52:56.000Z</time>
      </trkpt>
      <trkpt lat="48.26245" lon="-3.40584">
        <ele>184.39999389648</ele>
        <time>2020-10-18T10:52:57.000Z</time>
      </trkpt>
      <trkpt lat="48.26249" lon="-3.40577">
        <ele>184.39999389648</ele>
        <time>2020-10-18T10:52:58.000Z</time>
      </trkpt>
      <trkpt lat="48.26251" lon="-3.40573">
        <ele>184.39999389648</ele>
        <time>2020-10-18T10:52:59.000Z</time>
      </trkpt>
      <trkpt lat="48.26251" lon="-3.40573">
        <ele>184.39999389648</ele>
        <time>2020-10-18T10:53:00.000Z</time>
      </trkpt>
      <trkpt lat="48.26253" lon="-3.40568">
        <ele>184.39999389648</ele>
        <time>2020-10-18T10:53:01.000Z</time>
      </trkpt>
      <trkpt lat="48.26257" lon="-3.4056">
        <ele>184.60000610352</ele>
        <time>2020-10-18T10:53:02.000Z</time>
      </trkpt>
      <trkpt lat="48.26257" lon="-3.4056">
        <ele>184.60000610352</ele>
        <time>2020-10-18T10:53:03.000Z</time>
      </trkpt>
      <trkpt lat="48.26261" lon="-3.40551">
        <ele>184.60000610352</ele>
        <time>2020-10-18T10:53:04.000Z</time>
      </trkpt>
      <trkpt lat="48.26261" lon="-3.40551">
        <ele>184.60000610352</ele>
        <time>2020-10-18T10:53:05.000Z</time>
      </trkpt>
      <trkpt lat="48.26264" lon="-3.40546">
        <ele>184.60000610352</ele>
        <time>2020-10-18T10:53:06.000Z</time>
      </trkpt>
      <trkpt lat="48.26268" lon="-3.40536">
        <ele>184.39999389648</ele>
        <time>2020-10-18T10:53:07.000Z</time>
      </trkpt>
      <trkpt lat="48.26268" lon="-3.40536">
        <ele>184.39999389648</ele>
        <time>2020-10-18T10:53:08.000Z</time>
      </trkpt>
      <trkpt lat="48.2627" lon="-3.40531">
        <ele>184.19999694824</ele>
        <time>2020-10-18T10:53:09.000Z</time>
      </trkpt>
      <trkpt lat="48.26274" lon="-3.4052">
        <ele>184.19999694824</ele>
        <time>2020-10-18T10:53:10.000Z</time>
      </trkpt>
      <trkpt lat="48.26274" lon="-3.4052">
        <ele>184.19999694824</ele>
        <time>2020-10-18T10:53:11.000Z</time>
      </trkpt>
      <trkpt lat="48.26276" lon="-3.40514">
        <ele>184.19999694824</ele>
        <time>2020-10-18T10:53:12.000Z</time>
      </trkpt>
      <trkpt lat="48.26279" lon="-3.40502">
        <ele>184.39999389648</ele>
        <time>2020-10-18T10:53:13.000Z</time>
      </trkpt>
      <trkpt lat="48.26279" lon="-3.40502">
        <ele>184.39999389648</ele>
        <time>2020-10-18T10:53:14.000Z</time>
      </trkpt>
      <trkpt lat="48.26281" lon="-3.40496">
        <ele>184.60000610352</ele>
        <time>2020-10-18T10:53:15.000Z</time>
      </trkpt>
      <trkpt lat="48.26283" lon="-3.4049">
        <ele>184.60000610352</ele>
        <time>2020-10-18T10:53:16.000Z</time>
      </trkpt>
      <trkpt lat="48.26285" lon="-3.40484">
        <ele>184.60000610352</ele>
        <time>2020-10-18T10:53:17.000Z</time>
      </trkpt>
      <trkpt lat="48.26289" lon="-3.40472">
        <ele>184.60000610352</ele>
        <time>2020-10-18T10:53:18.000Z</time>
      </trkpt>
      <trkpt lat="48.26289" lon="-3.40472">
        <ele>184.60000610352</ele>
        <time>2020-10-18T10:53:19.000Z</time>
      </trkpt>
      <trkpt lat="48.26292" lon="-3.40466">
        <ele>184.60000610352</ele>
        <time>2020-10-18T10:53:20.000Z</time>
      </trkpt>
      <trkpt lat="48.26297" lon="-3.40454">
        <ele>184.60000610352</ele>
        <time>2020-10-18T10:53:21.000Z</time>
      </trkpt>
      <trkpt lat="48.26297" lon="-3.40454">
        <ele>184.60000610352</ele>
        <time>2020-10-18T10:53:22.000Z</time>
      </trkpt>
      <trkpt lat="48.263" lon="-3.40448">
        <ele>184.39999389648</ele>
        <time>2020-10-18T10:53:23.000Z</time>
      </trkpt>
      <trkpt lat="48.26307" lon="-3.40436">
        <ele>184.39999389648</ele>
        <time>2020-10-18T10:53:24.000Z</time>
      </trkpt>
      <trkpt lat="48.26307" lon="-3.40436">
        <ele>184.39999389648</ele>
        <time>2020-10-18T10:53:25.000Z</time>
      </trkpt>
      <trkpt lat="48.2631" lon="-3.4043">
        <ele>184.39999389648</ele>
        <time>2020-10-18T10:53:26.000Z</time>
      </trkpt>
      <trkpt lat="48.26319" lon="-3.40417">
        <ele>184.19999694824</ele>
        <time>2020-10-18T10:53:27.000Z</time>
      </trkpt>
      <trkpt lat="48.26319" lon="-3.40417">
        <ele>184.19999694824</ele>
        <time>2020-10-18T10:53:28.000Z</time>
      </trkpt>
      <trkpt lat="48.26323" lon="-3.4041">
        <ele>184</ele>
        <time>2020-10-18T10:53:29.000Z</time>
      </trkpt>
      <trkpt lat="48.26332" lon="-3.40397">
        <ele>184</ele>
        <time>2020-10-18T10:53:30.000Z</time>
      </trkpt>
      <trkpt lat="48.26332" lon="-3.40397">
        <ele>184</ele>
        <time>2020-10-18T10:53:31.000Z</time>
      </trkpt>
      <trkpt lat="48.26336" lon="-3.40391">
        <ele>183.80000305176</ele>
        <time>2020-10-18T10:53:32.000Z</time>
      </trkpt>
      <trkpt lat="48.26344" lon="-3.40378">
        <ele>183.80000305176</ele>
        <time>2020-10-18T10:53:33.000Z</time>
      </trkpt>
      <trkpt lat="48.26344" lon="-3.40378">
        <ele>183.80000305176</ele>
        <time>2020-10-18T10:53:34.000Z</time>
      </trkpt>
      <trkpt lat="48.26348" lon="-3.40371">
        <ele>183.60000610352</ele>
        <time>2020-10-18T10:53:35.000Z</time>
      </trkpt>
      <trkpt lat="48.26356" lon="-3.40357">
        <ele>183.39999389648</ele>
        <time>2020-10-18T10:53:36.000Z</time>
      </trkpt>
      <trkpt lat="48.26356" lon="-3.40357">
        <ele>183.39999389648</ele>
        <time>2020-10-18T10:53:37.000Z</time>
      </trkpt>
      <trkpt lat="48.26361" lon="-3.4035">
        <ele>183.19999694824</ele>
        <time>2020-10-18T10:53:38.000Z</time>
      </trkpt>
      <trkpt lat="48.26368" lon="-3.40334">
        <ele>183.39999389648</ele>
        <time>2020-10-18T10:53:39.000Z</time>
      </trkpt>
      <trkpt lat="48.26368" lon="-3.40334">
        <ele>183.39999389648</ele>
        <time>2020-10-18T10:53:40.000Z</time>
      </trkpt>
      <trkpt lat="48.2637" lon="-3.40326">
        <ele>183.60000610352</ele>
        <time>2020-10-18T10:53:41.000Z</time>
      </trkpt>
      <trkpt lat="48.26372" lon="-3.40308">
        <ele>184</ele>
        <time>2020-10-18T10:53:42.000Z</time>
      </trkpt>
      <trkpt lat="48.26372" lon="-3.40308">
        <ele>184</ele>
        <time>2020-10-18T10:53:43.000Z</time>
      </trkpt>
      <trkpt lat="48.2637" lon="-3.403">
        <ele>184.19999694824</ele>
        <time>2020-10-18T10:53:44.000Z</time>
      </trkpt>
      <trkpt lat="48.26365" lon="-3.40288">
        <ele>184.80000305176</ele>
        <time>2020-10-18T10:53:45.000Z</time>
      </trkpt>
      <trkpt lat="48.26365" lon="-3.40288">
        <ele>184.80000305176</ele>
        <time>2020-10-18T10:53:46.000Z</time>
      </trkpt>
      <trkpt lat="48.26359" lon="-3.40279">
        <ele>185.19999694824</ele>
        <time>2020-10-18T10:53:47.000Z</time>
      </trkpt>
      <trkpt lat="48.26359" lon="-3.40279">
        <ele>185.19999694824</ele>
        <time>2020-10-18T10:53:48.000Z</time>
      </trkpt>
      <trkpt lat="48.26354" lon="-3.40271">
        <ele>185.60000610352</ele>
        <time>2020-10-18T10:53:49.000Z</time>
      </trkpt>
      <trkpt lat="48.26354" lon="-3.40271">
        <ele>185.60000610352</ele>
        <time>2020-10-18T10:53:50.000Z</time>
      </trkpt>
      <trkpt lat="48.26351" lon="-3.40267">
        <ele>185.80000305176</ele>
        <time>2020-10-18T10:53:51.000Z</time>
      </trkpt>
      <trkpt lat="48.26345" lon="-3.40259">
        <ele>186.19999694824</ele>
        <time>2020-10-18T10:53:52.000Z</time>
      </trkpt>
      <trkpt lat="48.26345" lon="-3.40259">
        <ele>186.19999694824</ele>
        <time>2020-10-18T10:53:53.000Z</time>
      </trkpt>
      <trkpt lat="48.26342" lon="-3.40255">
        <ele>186.39999389648</ele>
        <time>2020-10-18T10:53:54.000Z</time>
      </trkpt>
      <trkpt lat="48.26336" lon="-3.40248">
        <ele>187</ele>
        <time>2020-10-18T10:53:55.000Z</time>
      </trkpt>
      <trkpt lat="48.26336" lon="-3.40248">
        <ele>187</ele>
        <time>2020-10-18T10:53:56.000Z</time>
      </trkpt>
      <trkpt lat="48.26333" lon="-3.40244">
        <ele>187.19999694824</ele>
        <time>2020-10-18T10:53:57.000Z</time>
      </trkpt>
      <trkpt lat="48.26326" lon="-3.40239">
        <ele>187.80000305176</ele>
        <time>2020-10-18T10:53:58.000Z</time>
      </trkpt>
      <trkpt lat="48.26326" lon="-3.40239">
        <ele>187.80000305176</ele>
        <time>2020-10-18T10:53:59.000Z</time>
      </trkpt>
      <trkpt lat="48.26323" lon="-3.40237">
        <ele>188</ele>
        <time>2020-10-18T10:54:00.000Z</time>
      </trkpt>
      <trkpt lat="48.26316" lon="-3.40234">
        <ele>188.60000610352</ele>
        <time>2020-10-18T10:54:01.000Z</time>
      </trkpt>
      <trkpt lat="48.26316" lon="-3.40234">
        <ele>188.60000610352</ele>
        <time>2020-10-18T10:54:02.000Z</time>
      </trkpt>
      <trkpt lat="48.26313" lon="-3.40232">
        <ele>188.80000305176</ele>
        <time>2020-10-18T10:54:03.000Z</time>
      </trkpt>
      <trkpt lat="48.26307" lon="-3.40228">
        <ele>189.19999694824</ele>
        <time>2020-10-18T10:54:04.000Z</time>
      </trkpt>
      <trkpt lat="48.26307" lon="-3.40228">
        <ele>189.19999694824</ele>
        <time>2020-10-18T10:54:05.000Z</time>
      </trkpt>
      <trkpt lat="48.26305" lon="-3.40226">
        <ele>189.39999389648</ele>
        <time>2020-10-18T10:54:06.000Z</time>
      </trkpt>
      <trkpt lat="48.26302" lon="-3.4022">
        <ele>189.80000305176</ele>
        <time>2020-10-18T10:54:07.000Z</time>
      </trkpt>
      <trkpt lat="48.26302" lon="-3.4022">
        <ele>189.80000305176</ele>
        <time>2020-10-18T10:54:08.000Z</time>
      </trkpt>
      <trkpt lat="48.26301" lon="-3.40215">
        <ele>190.19999694824</ele>
        <time>2020-10-18T10:54:09.000Z</time>
      </trkpt>
      <trkpt lat="48.26303" lon="-3.40206">
        <ele>190.60000610352</ele>
        <time>2020-10-18T10:54:10.000Z</time>
      </trkpt>
      <trkpt lat="48.26303" lon="-3.40206">
        <ele>190.60000610352</ele>
        <time>2020-10-18T10:54:11.000Z</time>
      </trkpt>
      <trkpt lat="48.26304" lon="-3.40202">
        <ele>190.60000610352</ele>
        <time>2020-10-18T10:54:12.000Z</time>
      </trkpt>
      <trkpt lat="48.26307" lon="-3.40195">
        <ele>190.60000610352</ele>
        <time>2020-10-18T10:54:13.000Z</time>
      </trkpt>
      <trkpt lat="48.26307" lon="-3.40195">
        <ele>190.60000610352</ele>
        <time>2020-10-18T10:54:14.000Z</time>
      </trkpt>
      <trkpt lat="48.26309" lon="-3.40191">
        <ele>190.60000610352</ele>
        <time>2020-10-18T10:54:15.000Z</time>
      </trkpt>
      <trkpt lat="48.26314" lon="-3.40185">
        <ele>190.60000610352</ele>
        <time>2020-10-18T10:54:16.000Z</time>
      </trkpt>
      <trkpt lat="48.26317" lon="-3.40182">
        <ele>190.39999389648</ele>
        <time>2020-10-18T10:54:17.000Z</time>
      </trkpt>
      <trkpt lat="48.26317" lon="-3.40182">
        <ele>190.39999389648</ele>
        <time>2020-10-18T10:54:18.000Z</time>
      </trkpt>
      <trkpt lat="48.2632" lon="-3.4018">
        <ele>190.19999694824</ele>
        <time>2020-10-18T10:54:19.000Z</time>
      </trkpt>
      <trkpt lat="48.26326" lon="-3.40175">
        <ele>190</ele>
        <time>2020-10-18T10:54:20.000Z</time>
      </trkpt>
      <trkpt lat="48.26326" lon="-3.40175">
        <ele>190</ele>
        <time>2020-10-18T10:54:21.000Z</time>
      </trkpt>
      <trkpt lat="48.26328" lon="-3.40171">
        <ele>190</ele>
        <time>2020-10-18T10:54:22.000Z</time>
      </trkpt>
      <trkpt lat="48.26332" lon="-3.40164">
        <ele>189.80000305176</ele>
        <time>2020-10-18T10:54:23.000Z</time>
      </trkpt>
      <trkpt lat="48.26332" lon="-3.40164">
        <ele>189.80000305176</ele>
        <time>2020-10-18T10:54:24.000Z</time>
      </trkpt>
      <trkpt lat="48.26334" lon="-3.4016">
        <ele>189.80000305176</ele>
        <time>2020-10-18T10:54:25.000Z</time>
      </trkpt>
      <trkpt lat="48.26339" lon="-3.40154">
        <ele>189.60000610352</ele>
        <time>2020-10-18T10:54:26.000Z</time>
      </trkpt>
      <trkpt lat="48.26339" lon="-3.40154">
        <ele>189.60000610352</ele>
        <time>2020-10-18T10:54:27.000Z</time>
      </trkpt>
      <trkpt lat="48.26341" lon="-3.40151">
        <ele>189.60000610352</ele>
        <time>2020-10-18T10:54:28.000Z</time>
      </trkpt>
      <trkpt lat="48.26346" lon="-3.40144">
        <ele>189.39999389648</ele>
        <time>2020-10-18T10:54:29.000Z</time>
      </trkpt>
      <trkpt lat="48.26346" lon="-3.40144">
        <ele>189.39999389648</ele>
        <time>2020-10-18T10:54:30.000Z</time>
      </trkpt>
      <trkpt lat="48.26348" lon="-3.4014">
        <ele>189.39999389648</ele>
        <time>2020-10-18T10:54:31.000Z</time>
      </trkpt>
      <trkpt lat="48.26353" lon="-3.40133">
        <ele>189.60000610352</ele>
        <time>2020-10-18T10:54:32.000Z</time>
      </trkpt>
      <trkpt lat="48.26353" lon="-3.40133">
        <ele>189.60000610352</ele>
        <time>2020-10-18T10:54:33.000Z</time>
      </trkpt>
      <trkpt lat="48.26355" lon="-3.40129">
        <ele>189.80000305176</ele>
        <time>2020-10-18T10:54:34.000Z</time>
      </trkpt>
      <trkpt lat="48.26359" lon="-3.40121">
        <ele>190</ele>
        <time>2020-10-18T10:54:35.000Z</time>
      </trkpt>
      <trkpt lat="48.26359" lon="-3.40121">
        <ele>190</ele>
        <time>2020-10-18T10:54:36.000Z</time>
      </trkpt>
      <trkpt lat="48.26361" lon="-3.40117">
        <ele>190.19999694824</ele>
        <time>2020-10-18T10:54:37.000Z</time>
      </trkpt>
      <trkpt lat="48.26365" lon="-3.4011">
        <ele>190.39999389648</ele>
        <time>2020-10-18T10:54:38.000Z</time>
      </trkpt>
      <trkpt lat="48.26365" lon="-3.4011">
        <ele>190.39999389648</ele>
        <time>2020-10-18T10:54:39.000Z</time>
      </trkpt>
      <trkpt lat="48.26367" lon="-3.40106">
        <ele>190.39999389648</ele>
        <time>2020-10-18T10:54:40.000Z</time>
      </trkpt>
      <trkpt lat="48.26371" lon="-3.40098">
        <ele>190.60000610352</ele>
        <time>2020-10-18T10:54:41.000Z</time>
      </trkpt>
      <trkpt lat="48.26371" lon="-3.40098">
        <ele>190.60000610352</ele>
        <time>2020-10-18T10:54:42.000Z</time>
      </trkpt>
      <trkpt lat="48.26372" lon="-3.40095">
        <ele>190.80000305176</ele>
        <time>2020-10-18T10:54:43.000Z</time>
      </trkpt>
      <trkpt lat="48.26376" lon="-3.40087">
        <ele>191</ele>
        <time>2020-10-18T10:54:44.000Z</time>
      </trkpt>
      <trkpt lat="48.26376" lon="-3.40087">
        <ele>191</ele>
        <time>2020-10-18T10:54:45.000Z</time>
      </trkpt>
      <trkpt lat="48.2638" lon="-3.40079">
        <ele>191.19999694824</ele>
        <time>2020-10-18T10:54:46.000Z</time>
      </trkpt>
      <trkpt lat="48.2638" lon="-3.40079">
        <ele>191.19999694824</ele>
        <time>2020-10-18T10:54:47.000Z</time>
      </trkpt>
      <trkpt lat="48.26384" lon="-3.40072">
        <ele>191.60000610352</ele>
        <time>2020-10-18T10:54:48.000Z</time>
      </trkpt>
      <trkpt lat="48.26384" lon="-3.40072">
        <ele>191.60000610352</ele>
        <time>2020-10-18T10:54:49.000Z</time>
      </trkpt>
      <trkpt lat="48.26386" lon="-3.40068">
        <ele>191.60000610352</ele>
        <time>2020-10-18T10:54:50.000Z</time>
      </trkpt>
      <trkpt lat="48.2639" lon="-3.40061">
        <ele>191.80000305176</ele>
        <time>2020-10-18T10:54:51.000Z</time>
      </trkpt>
      <trkpt lat="48.2639" lon="-3.40061">
        <ele>191.80000305176</ele>
        <time>2020-10-18T10:54:52.000Z</time>
      </trkpt>
      <trkpt lat="48.26393" lon="-3.40054">
        <ele>192</ele>
        <time>2020-10-18T10:54:53.000Z</time>
      </trkpt>
      <trkpt lat="48.26393" lon="-3.40054">
        <ele>192</ele>
        <time>2020-10-18T10:54:54.000Z</time>
      </trkpt>
      <trkpt lat="48.26395" lon="-3.4005">
        <ele>192.19999694824</ele>
        <time>2020-10-18T10:54:55.000Z</time>
      </trkpt>
      <trkpt lat="48.26399" lon="-3.40043">
        <ele>192.39999389648</ele>
        <time>2020-10-18T10:54:56.000Z</time>
      </trkpt>
      <trkpt lat="48.26401" lon="-3.4004">
        <ele>192.60000610352</ele>
        <time>2020-10-18T10:54:57.000Z</time>
      </trkpt>
      <trkpt lat="48.26401" lon="-3.4004">
        <ele>192.60000610352</ele>
        <time>2020-10-18T10:54:58.000Z</time>
      </trkpt>
      <trkpt lat="48.26403" lon="-3.40036">
        <ele>192.60000610352</ele>
        <time>2020-10-18T10:54:59.000Z</time>
      </trkpt>
      <trkpt lat="48.26407" lon="-3.40029">
        <ele>193</ele>
        <time>2020-10-18T10:55:00.000Z</time>
      </trkpt>
      <trkpt lat="48.26407" lon="-3.40029">
        <ele>193</ele>
        <time>2020-10-18T10:55:01.000Z</time>
      </trkpt>
      <trkpt lat="48.26409" lon="-3.40026">
        <ele>193</ele>
        <time>2020-10-18T10:55:02.000Z</time>
      </trkpt>
      <trkpt lat="48.26413" lon="-3.40019">
        <ele>193.39999389648</ele>
        <time>2020-10-18T10:55:03.000Z</time>
      </trkpt>
      <trkpt lat="48.26413" lon="-3.40019">
        <ele>193.39999389648</ele>
        <time>2020-10-18T10:55:04.000Z</time>
      </trkpt>
      <trkpt lat="48.26415" lon="-3.40015">
        <ele>193.39999389648</ele>
        <time>2020-10-18T10:55:05.000Z</time>
      </trkpt>
      <trkpt lat="48.26419" lon="-3.40009">
        <ele>193.60000610352</ele>
        <time>2020-10-18T10:55:06.000Z</time>
      </trkpt>
      <trkpt lat="48.26419" lon="-3.40009">
        <ele>193.60000610352</ele>
        <time>2020-10-18T10:55:07.000Z</time>
      </trkpt>
      <trkpt lat="48.26421" lon="-3.40006">
        <ele>193.60000610352</ele>
        <time>2020-10-18T10:55:08.000Z</time>
      </trkpt>
      <trkpt lat="48.26425" lon="-3.39999">
        <ele>193.80000305176</ele>
        <time>2020-10-18T10:55:09.000Z</time>
      </trkpt>
      <trkpt lat="48.26425" lon="-3.39999">
        <ele>193.80000305176</ele>
        <time>2020-10-18T10:55:10.000Z</time>
      </trkpt>
      <trkpt lat="48.26427" lon="-3.39995">
        <ele>193.80000305176</ele>
        <time>2020-10-18T10:55:11.000Z</time>
      </trkpt>
      <trkpt lat="48.26431" lon="-3.39988">
        <ele>194</ele>
        <time>2020-10-18T10:55:12.000Z</time>
      </trkpt>
      <trkpt lat="48.26431" lon="-3.39988">
        <ele>194</ele>
        <time>2020-10-18T10:55:13.000Z</time>
      </trkpt>
      <trkpt lat="48.26433" lon="-3.39984">
        <ele>194</ele>
        <time>2020-10-18T10:55:14.000Z</time>
      </trkpt>
      <trkpt lat="48.26436" lon="-3.39978">
        <ele>194.19999694824</ele>
        <time>2020-10-18T10:55:15.000Z</time>
      </trkpt>
      <trkpt lat="48.26438" lon="-3.39974">
        <ele>194.39999389648</ele>
        <time>2020-10-18T10:55:16.000Z</time>
      </trkpt>
      <trkpt lat="48.26438" lon="-3.39974">
        <ele>194.39999389648</ele>
        <time>2020-10-18T10:55:17.000Z</time>
      </trkpt>
      <trkpt lat="48.2644" lon="-3.39971">
        <ele>194.39999389648</ele>
        <time>2020-10-18T10:55:18.000Z</time>
      </trkpt>
      <trkpt lat="48.26443" lon="-3.39965">
        <ele>194.60000610352</ele>
        <time>2020-10-18T10:55:19.000Z</time>
      </trkpt>
      <trkpt lat="48.26443" lon="-3.39965">
        <ele>194.60000610352</ele>
        <time>2020-10-18T10:55:20.000Z</time>
      </trkpt>
      <trkpt lat="48.26445" lon="-3.39962">
        <ele>194.80000305176</ele>
        <time>2020-10-18T10:55:21.000Z</time>
      </trkpt>
      <trkpt lat="48.26448" lon="-3.39956">
        <ele>195</ele>
        <time>2020-10-18T10:55:22.000Z</time>
      </trkpt>
      <trkpt lat="48.26448" lon="-3.39956">
        <ele>195</ele>
        <time>2020-10-18T10:55:23.000Z</time>
      </trkpt>
      <trkpt lat="48.2645" lon="-3.39953">
        <ele>195</ele>
        <time>2020-10-18T10:55:24.000Z</time>
      </trkpt>
      <trkpt lat="48.26454" lon="-3.39946">
        <ele>195.19999694824</ele>
        <time>2020-10-18T10:55:25.000Z</time>
      </trkpt>
      <trkpt lat="48.26454" lon="-3.39946">
        <ele>195.19999694824</ele>
        <time>2020-10-18T10:55:26.000Z</time>
      </trkpt>
      <trkpt lat="48.26457" lon="-3.39939">
        <ele>195.39999389648</ele>
        <time>2020-10-18T10:55:27.000Z</time>
      </trkpt>
      <trkpt lat="48.26457" lon="-3.39939">
        <ele>195.39999389648</ele>
        <time>2020-10-18T10:55:28.000Z</time>
      </trkpt>
      <trkpt lat="48.26459" lon="-3.39936">
        <ele>195.60000610352</ele>
        <time>2020-10-18T10:55:29.000Z</time>
      </trkpt>
      <trkpt lat="48.26463" lon="-3.39929">
        <ele>195.60000610352</ele>
        <time>2020-10-18T10:55:30.000Z</time>
      </trkpt>
      <trkpt lat="48.26463" lon="-3.39929">
        <ele>195.60000610352</ele>
        <time>2020-10-18T10:55:31.000Z</time>
      </trkpt>
      <trkpt lat="48.26465" lon="-3.39925">
        <ele>195.60000610352</ele>
        <time>2020-10-18T10:55:32.000Z</time>
      </trkpt>
      <trkpt lat="48.26468" lon="-3.39918">
        <ele>195.60000610352</ele>
        <time>2020-10-18T10:55:33.000Z</time>
      </trkpt>
      <trkpt lat="48.26468" lon="-3.39918">
        <ele>195.60000610352</ele>
        <time>2020-10-18T10:55:34.000Z</time>
      </trkpt>
      <trkpt lat="48.2647" lon="-3.39915">
        <ele>195.60000610352</ele>
        <time>2020-10-18T10:55:35.000Z</time>
      </trkpt>
      <trkpt lat="48.26473" lon="-3.39909">
        <ele>195.39999389648</ele>
        <time>2020-10-18T10:55:36.000Z</time>
      </trkpt>
      <trkpt lat="48.26473" lon="-3.39909">
        <ele>195.39999389648</ele>
        <time>2020-10-18T10:55:37.000Z</time>
      </trkpt>
      <trkpt lat="48.26475" lon="-3.39906">
        <ele>195.39999389648</ele>
        <time>2020-10-18T10:55:38.000Z</time>
      </trkpt>
      <trkpt lat="48.26477" lon="-3.399">
        <ele>195.39999389648</ele>
        <time>2020-10-18T10:55:39.000Z</time>
      </trkpt>
      <trkpt lat="48.26477" lon="-3.399">
        <ele>195.39999389648</ele>
        <time>2020-10-18T10:55:40.000Z</time>
      </trkpt>
      <trkpt lat="48.26477" lon="-3.39898">
        <ele>195.39999389648</ele>
        <time>2020-10-18T10:55:41.000Z</time>
      </trkpt>
      <trkpt lat="48.26478" lon="-3.39895">
        <ele>195.39999389648</ele>
        <time>2020-10-18T10:55:42.000Z</time>
      </trkpt>
      <trkpt lat="48.26478" lon="-3.39895">
        <ele>195.39999389648</ele>
        <time>2020-10-18T10:55:43.000Z</time>
      </trkpt>
      <trkpt lat="48.26478" lon="-3.39895">
        <ele>195.39999389648</ele>
        <time>2020-10-18T10:55:44.000Z</time>
      </trkpt>
      <trkpt lat="48.26479" lon="-3.39896">
        <ele>195.39999389648</ele>
        <time>2020-10-18T10:55:45.000Z</time>
      </trkpt>
      <trkpt lat="48.26479" lon="-3.39896">
        <ele>195.39999389648</ele>
        <time>2020-10-18T10:55:46.000Z</time>
      </trkpt>
      <trkpt lat="48.26479" lon="-3.39896">
        <ele>195.39999389648</ele>
        <time>2020-10-18T10:55:47.000Z</time>
      </trkpt>
      <trkpt lat="48.26479" lon="-3.39896">
        <ele>195.39999389648</ele>
        <time>2020-10-18T10:55:48.000Z</time>
      </trkpt>
      <trkpt lat="48.26479" lon="-3.39896">
        <ele>195.39999389648</ele>
        <time>2020-10-18T10:55:49.000Z</time>
      </trkpt>
      <trkpt lat="48.26479" lon="-3.39896">
        <ele>195.39999389648</ele>
        <time>2020-10-18T10:55:50.000Z</time>
      </trkpt>
      <trkpt lat="48.26479" lon="-3.39896">
        <ele>195.39999389648</ele>
        <time>2020-10-18T10:55:51.000Z</time>
      </trkpt>
      <trkpt lat="48.26479" lon="-3.39896">
        <ele>195.39999389648</ele>
        <time>2020-10-18T10:55:52.000Z</time>
      </trkpt>
      <trkpt lat="48.26479" lon="-3.39896">
        <ele>195.39999389648</ele>
        <time>2020-10-18T10:55:53.000Z</time>
      </trkpt>
      <trkpt lat="48.26479" lon="-3.39896">
        <ele>195.39999389648</ele>
        <time>2020-10-18T10:55:54.000Z</time>
      </trkpt>
      <trkpt lat="48.26479" lon="-3.39896">
        <ele>195.39999389648</ele>
        <time>2020-10-18T10:55:55.000Z</time>
      </trkpt>
      <trkpt lat="48.26479" lon="-3.39897">
        <ele>195.39999389648</ele>
        <time>2020-10-18T10:55:56.000Z</time>
      </trkpt>
      <trkpt lat="48.26479" lon="-3.39897">
        <ele>195.39999389648</ele>
        <time>2020-10-18T10:55:57.000Z</time>
      </trkpt>
      <trkpt lat="48.26479" lon="-3.39897">
        <ele>195.39999389648</ele>
        <time>2020-10-18T10:55:58.000Z</time>
      </trkpt>
      <trkpt lat="48.26479" lon="-3.39897">
        <ele>195.39999389648</ele>
        <time>2020-10-18T10:55:59.000Z</time>
      </trkpt>
      <trkpt lat="48.26479" lon="-3.39897">
        <ele>195.39999389648</ele>
        <time>2020-10-18T10:56:00.000Z</time>
      </trkpt>
      <trkpt lat="48.26479" lon="-3.39897">
        <ele>195.39999389648</ele>
        <time>2020-10-18T10:56:01.000Z</time>
      </trkpt>
      <trkpt lat="48.26479" lon="-3.39897">
        <ele>195.39999389648</ele>
        <time>2020-10-18T10:56:02.000Z</time>
      </trkpt>
      <trkpt lat="48.26479" lon="-3.39897">
        <ele>195.39999389648</ele>
        <time>2020-10-18T10:56:03.000Z</time>
      </trkpt>
      <trkpt lat="48.26479" lon="-3.39897">
        <ele>195.39999389648</ele>
        <time>2020-10-18T10:56:04.000Z</time>
      </trkpt>
      <trkpt lat="48.26479" lon="-3.39897">
        <ele>195.39999389648</ele>
        <time>2020-10-18T10:56:05.000Z</time>
      </trkpt>
      <trkpt lat="48.26479" lon="-3.39897">
        <ele>195.39999389648</ele>
        <time>2020-10-18T10:56:06.000Z</time>
      </trkpt>
      <trkpt lat="48.26479" lon="-3.39897">
        <ele>195.39999389648</ele>
        <time>2020-10-18T10:56:07.000Z</time>
      </trkpt>
      <trkpt lat="48.26479" lon="-3.39897">
        <ele>195.39999389648</ele>
        <time>2020-10-18T10:56:08.000Z</time>
      </trkpt>
      <trkpt lat="48.26479" lon="-3.39897">
        <ele>195.39999389648</ele>
        <time>2020-10-18T10:56:09.000Z</time>
      </trkpt>
      <trkpt lat="48.26479" lon="-3.39897">
        <ele>195.39999389648</ele>
        <time>2020-10-18T10:56:10.000Z</time>
      </trkpt>
      <trkpt lat="48.26479" lon="-3.39897">
        <ele>195.39999389648</ele>
        <time>2020-10-18T10:56:11.000Z</time>
      </trkpt>
      <trkpt lat="48.26479" lon="-3.39897">
        <ele>195.39999389648</ele>
        <time>2020-10-18T10:56:12.000Z</time>
      </trkpt>
      <trkpt lat="48.26479" lon="-3.39897">
        <ele>195.39999389648</ele>
        <time>2020-10-18T10:56:13.000Z</time>
      </trkpt>
      <trkpt lat="48.26479" lon="-3.39897">
        <ele>195.39999389648</ele>
        <time>2020-10-18T10:56:14.000Z</time>
      </trkpt>
      <trkpt lat="48.26479" lon="-3.39897">
        <ele>195.39999389648</ele>
        <time>2020-10-18T10:56:15.000Z</time>
      </trkpt>
      <trkpt lat="48.26479" lon="-3.39897">
        <ele>195.39999389648</ele>
        <time>2020-10-18T10:56:16.000Z</time>
      </trkpt>
      <trkpt lat="48.26479" lon="-3.39897">
        <ele>195.39999389648</ele>
        <time>2020-10-18T10:56:17.000Z</time>
      </trkpt>
      <trkpt lat="48.26479" lon="-3.39897">
        <ele>195.39999389648</ele>
        <time>2020-10-18T10:56:18.000Z</time>
      </trkpt>
      <trkpt lat="48.26479" lon="-3.39897">
        <ele>195.39999389648</ele>
        <time>2020-10-18T10:56:19.000Z</time>
      </trkpt>
      <trkpt lat="48.26479" lon="-3.39897">
        <ele>195.39999389648</ele>
        <time>2020-10-18T10:56:20.000Z</time>
      </trkpt>
      <trkpt lat="48.26479" lon="-3.39897">
        <ele>195.39999389648</ele>
        <time>2020-10-18T10:56:21.000Z</time>
      </trkpt>
      <trkpt lat="48.26479" lon="-3.39897">
        <ele>195.39999389648</ele>
        <time>2020-10-18T10:56:22.000Z</time>
      </trkpt>
      <trkpt lat="48.26479" lon="-3.39897">
        <ele>195.39999389648</ele>
        <time>2020-10-18T10:56:23.000Z</time>
      </trkpt>
      <trkpt lat="48.26479" lon="-3.39897">
        <ele>195.39999389648</ele>
        <time>2020-10-18T10:56:24.000Z</time>
      </trkpt>
      <trkpt lat="48.26479" lon="-3.39897">
        <ele>195.39999389648</ele>
        <time>2020-10-18T10:56:25.000Z</time>
      </trkpt>
      <trkpt lat="48.26479" lon="-3.39897">
        <ele>195.39999389648</ele>
        <time>2020-10-18T10:56:26.000Z</time>
      </trkpt>
      <trkpt lat="48.26479" lon="-3.39897">
        <ele>195.39999389648</ele>
        <time>2020-10-18T10:56:27.000Z</time>
      </trkpt>
      <trkpt lat="48.26479" lon="-3.39897">
        <ele>195.39999389648</ele>
        <time>2020-10-18T10:56:28.000Z</time>
      </trkpt>
      <trkpt lat="48.26479" lon="-3.39897">
        <ele>195.39999389648</ele>
        <time>2020-10-18T10:56:29.000Z</time>
      </trkpt>
      <trkpt lat="48.26479" lon="-3.39897">
        <ele>195.39999389648</ele>
        <time>2020-10-18T10:56:30.000Z</time>
      </trkpt>
      <trkpt lat="48.26479" lon="-3.39897">
        <ele>195.39999389648</ele>
        <time>2020-10-18T10:56:31.000Z</time>
      </trkpt>
      <trkpt lat="48.26479" lon="-3.39897">
        <ele>195.39999389648</ele>
        <time>2020-10-18T10:56:32.000Z</time>
      </trkpt>
      <trkpt lat="48.26479" lon="-3.39897">
        <ele>195.39999389648</ele>
        <time>2020-10-18T10:56:33.000Z</time>
      </trkpt>
      <trkpt lat="48.26479" lon="-3.39897">
        <ele>195.39999389648</ele>
        <time>2020-10-18T10:56:34.000Z</time>
      </trkpt>
      <trkpt lat="48.26479" lon="-3.39897">
        <ele>195.39999389648</ele>
        <time>2020-10-18T10:56:35.000Z</time>
      </trkpt>
      <trkpt lat="48.26479" lon="-3.39897">
        <ele>195.39999389648</ele>
        <time>2020-10-18T10:56:36.000Z</time>
      </trkpt>
      <trkpt lat="48.26479" lon="-3.39897">
        <ele>195.39999389648</ele>
        <time>2020-10-18T10:56:37.000Z</time>
      </trkpt>
      <trkpt lat="48.26479" lon="-3.39897">
        <ele>195.39999389648</ele>
        <time>2020-10-18T10:56:38.000Z</time>
      </trkpt>
      <trkpt lat="48.26479" lon="-3.39897">
        <ele>195.39999389648</ele>
        <time>2020-10-18T10:56:39.000Z</time>
      </trkpt>
      <trkpt lat="48.26479" lon="-3.39897">
        <ele>195.39999389648</ele>
        <time>2020-10-18T10:56:40.000Z</time>
      </trkpt>
      <trkpt lat="48.26479" lon="-3.39897">
        <ele>195.39999389648</ele>
        <time>2020-10-18T10:56:41.000Z</time>
      </trkpt>
      <trkpt lat="48.26479" lon="-3.39897">
        <ele>195.39999389648</ele>
        <time>2020-10-18T10:56:42.000Z</time>
      </trkpt>
      <trkpt lat="48.26479" lon="-3.39897">
        <ele>195.39999389648</ele>
        <time>2020-10-18T10:56:43.000Z</time>
      </trkpt>
      <trkpt lat="48.26479" lon="-3.39897">
        <ele>195.39999389648</ele>
        <time>2020-10-18T10:56:44.000Z</time>
      </trkpt>
      <trkpt lat="48.26479" lon="-3.39897">
        <ele>195.39999389648</ele>
        <time>2020-10-18T10:56:45.000Z</time>
      </trkpt>
      <trkpt lat="48.26479" lon="-3.39897">
        <ele>195.39999389648</ele>
        <time>2020-10-18T10:56:46.000Z</time>
      </trkpt>
      <trkpt lat="48.26479" lon="-3.39897">
        <ele>195.39999389648</ele>
        <time>2020-10-18T10:56:47.000Z</time>
      </trkpt>
      <trkpt lat="48.26479" lon="-3.39897">
        <ele>195.39999389648</ele>
        <time>2020-10-18T10:56:48.000Z</time>
      </trkpt>
      <trkpt lat="48.26479" lon="-3.39897">
        <ele>195.39999389648</ele>
        <time>2020-10-18T10:56:49.000Z</time>
      </trkpt>
      <trkpt lat="48.26479" lon="-3.39897">
        <ele>195.39999389648</ele>
        <time>2020-10-18T10:56:50.000Z</time>
      </trkpt>
      <trkpt lat="48.26479" lon="-3.39897">
        <ele>195.39999389648</ele>
        <time>2020-10-18T10:56:51.000Z</time>
      </trkpt>
      <trkpt lat="48.26479" lon="-3.39897">
        <ele>195.39999389648</ele>
        <time>2020-10-18T10:56:52.000Z</time>
      </trkpt>
      <trkpt lat="48.26479" lon="-3.39897">
        <ele>195.39999389648</ele>
        <time>2020-10-18T10:56:53.000Z</time>
      </trkpt>
      <trkpt lat="48.26479" lon="-3.39897">
        <ele>195.39999389648</ele>
        <time>2020-10-18T10:56:54.000Z</time>
      </trkpt>
      <trkpt lat="48.26479" lon="-3.39897">
        <ele>195.39999389648</ele>
        <time>2020-10-18T10:56:55.000Z</time>
      </trkpt>
      <trkpt lat="48.26479" lon="-3.39897">
        <ele>195.39999389648</ele>
        <time>2020-10-18T10:56:56.000Z</time>
      </trkpt>
      <trkpt lat="48.26479" lon="-3.39897">
        <ele>195.39999389648</ele>
        <time>2020-10-18T10:56:57.000Z</time>
      </trkpt>
      <trkpt lat="48.26479" lon="-3.39897">
        <ele>195.39999389648</ele>
        <time>2020-10-18T10:56:58.000Z</time>
      </trkpt>
      <trkpt lat="48.26479" lon="-3.39897">
        <ele>195.39999389648</ele>
        <time>2020-10-18T10:56:59.000Z</time>
      </trkpt>
      <trkpt lat="48.26479" lon="-3.39897">
        <ele>195.39999389648</ele>
        <time>2020-10-18T10:57:00.000Z</time>
      </trkpt>
      <trkpt lat="48.26479" lon="-3.39897">
        <ele>195.39999389648</ele>
        <time>2020-10-18T10:57:01.000Z</time>
      </trkpt>
      <trkpt lat="48.26479" lon="-3.39897">
        <ele>195.39999389648</ele>
        <time>2020-10-18T10:57:02.000Z</time>
      </trkpt>
      <trkpt lat="48.26479" lon="-3.39897">
        <ele>195.39999389648</ele>
        <time>2020-10-18T10:57:03.000Z</time>
      </trkpt>
      <trkpt lat="48.26479" lon="-3.39897">
        <ele>195.39999389648</ele>
        <time>2020-10-18T10:57:04.000Z</time>
      </trkpt>
      <trkpt lat="48.26479" lon="-3.39897">
        <ele>195.39999389648</ele>
        <time>2020-10-18T10:57:05.000Z</time>
      </trkpt>
      <trkpt lat="48.26479" lon="-3.39897">
        <ele>195.39999389648</ele>
        <time>2020-10-18T10:57:06.000Z</time>
      </trkpt>
      <trkpt lat="48.26479" lon="-3.39897">
        <ele>195.39999389648</ele>
        <time>2020-10-18T10:57:07.000Z</time>
      </trkpt>
      <trkpt lat="48.26479" lon="-3.39897">
        <ele>195.39999389648</ele>
        <time>2020-10-18T10:57:08.000Z</time>
      </trkpt>
      <trkpt lat="48.26479" lon="-3.39897">
        <ele>195.39999389648</ele>
        <time>2020-10-18T10:57:09.000Z</time>
      </trkpt>
      <trkpt lat="48.26479" lon="-3.39897">
        <ele>195.39999389648</ele>
        <time>2020-10-18T10:57:10.000Z</time>
      </trkpt>
      <trkpt lat="48.26479" lon="-3.39897">
        <ele>195.39999389648</ele>
        <time>2020-10-18T10:57:11.000Z</time>
      </trkpt>
      <trkpt lat="48.26479" lon="-3.39897">
        <ele>195.39999389648</ele>
        <time>2020-10-18T10:57:12.000Z</time>
      </trkpt>
      <trkpt lat="48.26479" lon="-3.39897">
        <ele>195.39999389648</ele>
        <time>2020-10-18T10:57:13.000Z</time>
      </trkpt>
      <trkpt lat="48.26479" lon="-3.39897">
        <ele>195.39999389648</ele>
        <time>2020-10-18T10:57:14.000Z</time>
      </trkpt>
      <trkpt lat="48.26479" lon="-3.39897">
        <ele>195.39999389648</ele>
        <time>2020-10-18T10:57:15.000Z</time>
      </trkpt>
      <trkpt lat="48.26479" lon="-3.39897">
        <ele>195.39999389648</ele>
        <time>2020-10-18T10:57:16.000Z</time>
      </trkpt>
      <trkpt lat="48.26479" lon="-3.39897">
        <ele>195.39999389648</ele>
        <time>2020-10-18T10:57:17.000Z</time>
      </trkpt>
      <trkpt lat="48.26479" lon="-3.39897">
        <ele>195.39999389648</ele>
        <time>2020-10-18T10:57:18.000Z</time>
      </trkpt>
      <trkpt lat="48.26479" lon="-3.39897">
        <ele>195.39999389648</ele>
        <time>2020-10-18T10:57:19.000Z</time>
      </trkpt>
      <trkpt lat="48.26479" lon="-3.39897">
        <ele>195.39999389648</ele>
        <time>2020-10-18T10:57:20.000Z</time>
      </trkpt>
      <trkpt lat="48.26479" lon="-3.39897">
        <ele>195.39999389648</ele>
        <time>2020-10-18T10:57:21.000Z</time>
      </trkpt>
      <trkpt lat="48.26479" lon="-3.39897">
        <ele>195.39999389648</ele>
        <time>2020-10-18T10:57:22.000Z</time>
      </trkpt>
      <trkpt lat="48.26479" lon="-3.39897">
        <ele>195.39999389648</ele>
        <time>2020-10-18T10:57:23.000Z</time>
      </trkpt>
      <trkpt lat="48.26479" lon="-3.39897">
        <ele>195.39999389648</ele>
        <time>2020-10-18T10:57:24.000Z</time>
      </trkpt>
      <trkpt lat="48.26479" lon="-3.39897">
        <ele>195.39999389648</ele>
        <time>2020-10-18T10:57:25.000Z</time>
      </trkpt>
      <trkpt lat="48.26479" lon="-3.39897">
        <ele>195.39999389648</ele>
        <time>2020-10-18T10:57:26.000Z</time>
      </trkpt>
      <trkpt lat="48.26479" lon="-3.39897">
        <ele>195.39999389648</ele>
        <time>2020-10-18T10:57:27.000Z</time>
      </trkpt>
      <trkpt lat="48.26479" lon="-3.39897">
        <ele>195.39999389648</ele>
        <time>2020-10-18T10:57:28.000Z</time>
      </trkpt>
      <trkpt lat="48.26479" lon="-3.39897">
        <ele>195.39999389648</ele>
        <time>2020-10-18T10:57:29.000Z</time>
      </trkpt>
      <trkpt lat="48.26479" lon="-3.39897">
        <ele>195.39999389648</ele>
        <time>2020-10-18T10:57:30.000Z</time>
      </trkpt>
      <trkpt lat="48.26479" lon="-3.39897">
        <ele>195.39999389648</ele>
        <time>2020-10-18T10:57:31.000Z</time>
      </trkpt>
      <trkpt lat="48.26479" lon="-3.39897">
        <ele>195.39999389648</ele>
        <time>2020-10-18T10:57:32.000Z</time>
      </trkpt>
      <trkpt lat="48.26479" lon="-3.39897">
        <ele>195.39999389648</ele>
        <time>2020-10-18T10:57:33.000Z</time>
      </trkpt>
      <trkpt lat="48.26479" lon="-3.39897">
        <ele>195.39999389648</ele>
        <time>2020-10-18T10:57:34.000Z</time>
      </trkpt>
      <trkpt lat="48.26479" lon="-3.39897">
        <ele>195.39999389648</ele>
        <time>2020-10-18T10:57:35.000Z</time>
      </trkpt>
      <trkpt lat="48.26479" lon="-3.39897">
        <ele>195.39999389648</ele>
        <time>2020-10-18T10:57:36.000Z</time>
      </trkpt>
      <trkpt lat="48.26479" lon="-3.39897">
        <ele>195.39999389648</ele>
        <time>2020-10-18T10:57:37.000Z</time>
      </trkpt>
      <trkpt lat="48.26479" lon="-3.39897">
        <ele>195.39999389648</ele>
        <time>2020-10-18T10:57:38.000Z</time>
      </trkpt>
      <trkpt lat="48.26479" lon="-3.39897">
        <ele>195.39999389648</ele>
        <time>2020-10-18T10:57:39.000Z</time>
      </trkpt>
      <trkpt lat="48.26479" lon="-3.39897">
        <ele>195.39999389648</ele>
        <time>2020-10-18T10:57:40.000Z</time>
      </trkpt>
      <trkpt lat="48.26479" lon="-3.39897">
        <ele>195.39999389648</ele>
        <time>2020-10-18T10:57:41.000Z</time>
      </trkpt>
      <trkpt lat="48.26479" lon="-3.39897">
        <ele>195.39999389648</ele>
        <time>2020-10-18T10:57:42.000Z</time>
      </trkpt>
      <trkpt lat="48.26479" lon="-3.39897">
        <ele>195.39999389648</ele>
        <time>2020-10-18T10:57:43.000Z</time>
      </trkpt>
      <trkpt lat="48.26479" lon="-3.39897">
        <ele>195.39999389648</ele>
        <time>2020-10-18T10:57:44.000Z</time>
      </trkpt>
      <trkpt lat="48.26479" lon="-3.39897">
        <ele>195.39999389648</ele>
        <time>2020-10-18T10:57:45.000Z</time>
      </trkpt>
      <trkpt lat="48.26479" lon="-3.39897">
        <ele>195.39999389648</ele>
        <time>2020-10-18T10:57:46.000Z</time>
      </trkpt>
      <trkpt lat="48.26479" lon="-3.39897">
        <ele>195.39999389648</ele>
        <time>2020-10-18T10:57:47.000Z</time>
      </trkpt>
      <trkpt lat="48.26479" lon="-3.39897">
        <ele>195.39999389648</ele>
        <time>2020-10-18T10:57:48.000Z</time>
      </trkpt>
      <trkpt lat="48.26479" lon="-3.39897">
        <ele>195.39999389648</ele>
        <time>2020-10-18T10:57:49.000Z</time>
      </trkpt>
      <trkpt lat="48.26479" lon="-3.39897">
        <ele>195.39999389648</ele>
        <time>2020-10-18T10:57:50.000Z</time>
      </trkpt>
      <trkpt lat="48.26479" lon="-3.39897">
        <ele>195.39999389648</ele>
        <time>2020-10-18T10:57:51.000Z</time>
      </trkpt>
      <trkpt lat="48.26479" lon="-3.39897">
        <ele>195.39999389648</ele>
        <time>2020-10-18T10:57:52.000Z</time>
      </trkpt>
      <trkpt lat="48.26479" lon="-3.39897">
        <ele>195.39999389648</ele>
        <time>2020-10-18T10:57:53.000Z</time>
      </trkpt>
      <trkpt lat="48.26479" lon="-3.39897">
        <ele>195.39999389648</ele>
        <time>2020-10-18T10:57:54.000Z</time>
      </trkpt>
      <trkpt lat="48.26479" lon="-3.39897">
        <ele>195.39999389648</ele>
        <time>2020-10-18T10:57:55.000Z</time>
      </trkpt>
      <trkpt lat="48.26479" lon="-3.39897">
        <ele>195.39999389648</ele>
        <time>2020-10-18T10:57:56.000Z</time>
      </trkpt>
      <trkpt lat="48.26479" lon="-3.39897">
        <ele>195.39999389648</ele>
        <time>2020-10-18T10:57:57.000Z</time>
      </trkpt>
      <trkpt lat="48.26479" lon="-3.39897">
        <ele>195.39999389648</ele>
        <time>2020-10-18T10:57:58.000Z</time>
      </trkpt>
      <trkpt lat="48.26479" lon="-3.39897">
        <ele>195.39999389648</ele>
        <time>2020-10-18T10:57:59.000Z</time>
      </trkpt>
      <trkpt lat="48.26479" lon="-3.39897">
        <ele>195.39999389648</ele>
        <time>2020-10-18T10:58:00.000Z</time>
      </trkpt>
      <trkpt lat="48.26479" lon="-3.39897">
        <ele>195.39999389648</ele>
        <time>2020-10-18T10:58:01.000Z</time>
      </trkpt>
      <trkpt lat="48.26479" lon="-3.39897">
        <ele>195.39999389648</ele>
        <time>2020-10-18T10:58:02.000Z</time>
      </trkpt>
      <trkpt lat="48.26479" lon="-3.39897">
        <ele>195.39999389648</ele>
        <time>2020-10-18T10:58:03.000Z</time>
      </trkpt>
      <trkpt lat="48.26479" lon="-3.39897">
        <ele>195.39999389648</ele>
        <time>2020-10-18T10:58:04.000Z</time>
      </trkpt>
      <trkpt lat="48.26479" lon="-3.39897">
        <ele>195.39999389648</ele>
        <time>2020-10-18T10:58:05.000Z</time>
      </trkpt>
      <trkpt lat="48.26479" lon="-3.39897">
        <ele>195.39999389648</ele>
        <time>2020-10-18T10:58:06.000Z</time>
      </trkpt>
      <trkpt lat="48.26479" lon="-3.39897">
        <ele>195.39999389648</ele>
        <time>2020-10-18T10:58:07.000Z</time>
      </trkpt>
      <trkpt lat="48.26479" lon="-3.39897">
        <ele>195.39999389648</ele>
        <time>2020-10-18T10:58:08.000Z</time>
      </trkpt>
      <trkpt lat="48.26479" lon="-3.39897">
        <ele>195.39999389648</ele>
        <time>2020-10-18T10:58:09.000Z</time>
      </trkpt>
      <trkpt lat="48.26479" lon="-3.39897">
        <ele>195.39999389648</ele>
        <time>2020-10-18T10:58:10.000Z</time>
      </trkpt>
      <trkpt lat="48.26479" lon="-3.39897">
        <ele>195.39999389648</ele>
        <time>2020-10-18T10:58:11.000Z</time>
      </trkpt>
      <trkpt lat="48.26479" lon="-3.39897">
        <ele>195.39999389648</ele>
        <time>2020-10-18T10:58:12.000Z</time>
      </trkpt>
      <trkpt lat="48.26479" lon="-3.39897">
        <ele>195.39999389648</ele>
        <time>2020-10-18T10:58:13.000Z</time>
      </trkpt>
      <trkpt lat="48.26479" lon="-3.39897">
        <ele>195.39999389648</ele>
        <time>2020-10-18T10:58:14.000Z</time>
      </trkpt>
      <trkpt lat="48.26479" lon="-3.39897">
        <ele>195.39999389648</ele>
        <time>2020-10-18T10:58:15.000Z</time>
      </trkpt>
      <trkpt lat="48.26479" lon="-3.39897">
        <ele>195.39999389648</ele>
        <time>2020-10-18T10:58:16.000Z</time>
      </trkpt>
      <trkpt lat="48.26479" lon="-3.39897">
        <ele>195.39999389648</ele>
        <time>2020-10-18T10:58:17.000Z</time>
      </trkpt>
      <trkpt lat="48.26479" lon="-3.39897">
        <ele>195.39999389648</ele>
        <time>2020-10-18T10:58:18.000Z</time>
      </trkpt>
      <trkpt lat="48.26479" lon="-3.39897">
        <ele>195.39999389648</ele>
        <time>2020-10-18T10:58:19.000Z</time>
      </trkpt>
      <trkpt lat="48.26479" lon="-3.39897">
        <ele>195.39999389648</ele>
        <time>2020-10-18T10:58:20.000Z</time>
      </trkpt>
      <trkpt lat="48.26479" lon="-3.39897">
        <ele>195.39999389648</ele>
        <time>2020-10-18T10:58:21.000Z</time>
      </trkpt>
      <trkpt lat="48.26479" lon="-3.39897">
        <ele>195.39999389648</ele>
        <time>2020-10-18T10:58:22.000Z</time>
      </trkpt>
      <trkpt lat="48.26479" lon="-3.39897">
        <ele>195.39999389648</ele>
        <time>2020-10-18T10:58:23.000Z</time>
      </trkpt>
      <trkpt lat="48.26479" lon="-3.39897">
        <ele>195.39999389648</ele>
        <time>2020-10-18T10:58:24.000Z</time>
      </trkpt>
      <trkpt lat="48.26479" lon="-3.39897">
        <ele>195.39999389648</ele>
        <time>2020-10-18T10:58:25.000Z</time>
      </trkpt>
      <trkpt lat="48.26479" lon="-3.39897">
        <ele>195.39999389648</ele>
        <time>2020-10-18T10:58:26.000Z</time>
      </trkpt>
      <trkpt lat="48.26479" lon="-3.39897">
        <ele>195.39999389648</ele>
        <time>2020-10-18T10:58:27.000Z</time>
      </trkpt>
      <trkpt lat="48.26479" lon="-3.39897">
        <ele>195.39999389648</ele>
        <time>2020-10-18T10:58:28.000Z</time>
      </trkpt>
      <trkpt lat="48.26479" lon="-3.39897">
        <ele>195.39999389648</ele>
        <time>2020-10-18T10:58:29.000Z</time>
      </trkpt>
      <trkpt lat="48.26479" lon="-3.39897">
        <ele>195.39999389648</ele>
        <time>2020-10-18T10:58:30.000Z</time>
      </trkpt>
      <trkpt lat="48.26479" lon="-3.39897">
        <ele>195.39999389648</ele>
        <time>2020-10-18T10:58:31.000Z</time>
      </trkpt>
      <trkpt lat="48.26479" lon="-3.39897">
        <ele>195.39999389648</ele>
        <time>2020-10-18T10:58:32.000Z</time>
      </trkpt>
      <trkpt lat="48.26479" lon="-3.39897">
        <ele>195.39999389648</ele>
        <time>2020-10-18T10:58:33.000Z</time>
      </trkpt>
      <trkpt lat="48.26479" lon="-3.39897">
        <ele>195.39999389648</ele>
        <time>2020-10-18T10:58:34.000Z</time>
      </trkpt>
      <trkpt lat="48.26479" lon="-3.39897">
        <ele>195.39999389648</ele>
        <time>2020-10-18T10:58:35.000Z</time>
      </trkpt>
      <trkpt lat="48.26479" lon="-3.39897">
        <ele>195.39999389648</ele>
        <time>2020-10-18T10:58:36.000Z</time>
      </trkpt>
      <trkpt lat="48.26479" lon="-3.39897">
        <ele>195.39999389648</ele>
        <time>2020-10-18T10:58:37.000Z</time>
      </trkpt>
      <trkpt lat="48.26479" lon="-3.39897">
        <ele>195.39999389648</ele>
        <time>2020-10-18T10:58:38.000Z</time>
      </trkpt>
      <trkpt lat="48.26479" lon="-3.39897">
        <ele>195.39999389648</ele>
        <time>2020-10-18T10:58:39.000Z</time>
      </trkpt>
      <trkpt lat="48.26479" lon="-3.39897">
        <ele>195.39999389648</ele>
        <time>2020-10-18T10:58:40.000Z</time>
      </trkpt>
      <trkpt lat="48.26479" lon="-3.39897">
        <ele>195.39999389648</ele>
        <time>2020-10-18T10:58:41.000Z</time>
      </trkpt>
      <trkpt lat="48.26479" lon="-3.39897">
        <ele>195.39999389648</ele>
        <time>2020-10-18T10:58:42.000Z</time>
      </trkpt>
      <trkpt lat="48.26479" lon="-3.39897">
        <ele>195.39999389648</ele>
        <time>2020-10-18T10:58:43.000Z</time>
      </trkpt>
      <trkpt lat="48.26479" lon="-3.39897">
        <ele>195.39999389648</ele>
        <time>2020-10-18T10:58:44.000Z</time>
      </trkpt>
      <trkpt lat="48.26479" lon="-3.39897">
        <ele>195.39999389648</ele>
        <time>2020-10-18T10:58:45.000Z</time>
      </trkpt>
      <trkpt lat="48.26479" lon="-3.39897">
        <ele>195.39999389648</ele>
        <time>2020-10-18T10:58:46.000Z</time>
      </trkpt>
      <trkpt lat="48.26479" lon="-3.39897">
        <ele>195.39999389648</ele>
        <time>2020-10-18T10:58:47.000Z</time>
      </trkpt>
      <trkpt lat="48.26479" lon="-3.39897">
        <ele>195.39999389648</ele>
        <time>2020-10-18T10:58:48.000Z</time>
      </trkpt>
      <trkpt lat="48.26479" lon="-3.39897">
        <ele>195.39999389648</ele>
        <time>2020-10-18T10:58:49.000Z</time>
      </trkpt>
      <trkpt lat="48.26479" lon="-3.39897">
        <ele>195.39999389648</ele>
        <time>2020-10-18T10:58:50.000Z</time>
      </trkpt>
      <trkpt lat="48.26479" lon="-3.39897">
        <ele>195.39999389648</ele>
        <time>2020-10-18T10:58:51.000Z</time>
      </trkpt>
      <trkpt lat="48.26479" lon="-3.39897">
        <ele>195.39999389648</ele>
        <time>2020-10-18T10:58:52.000Z</time>
      </trkpt>
      <trkpt lat="48.26479" lon="-3.39897">
        <ele>195.39999389648</ele>
        <time>2020-10-18T10:58:53.000Z</time>
      </trkpt>
      <trkpt lat="48.26479" lon="-3.39897">
        <ele>195.39999389648</ele>
        <time>2020-10-18T10:58:54.000Z</time>
      </trkpt>
      <trkpt lat="48.26479" lon="-3.39897">
        <ele>195.39999389648</ele>
        <time>2020-10-18T10:58:55.000Z</time>
      </trkpt>
      <trkpt lat="48.26479" lon="-3.39897">
        <ele>195.39999389648</ele>
        <time>2020-10-18T10:58:56.000Z</time>
      </trkpt>
      <trkpt lat="48.26479" lon="-3.39897">
        <ele>195.39999389648</ele>
        <time>2020-10-18T10:58:57.000Z</time>
      </trkpt>
      <trkpt lat="48.26479" lon="-3.39897">
        <ele>195.39999389648</ele>
        <time>2020-10-18T10:58:58.000Z</time>
      </trkpt>
      <trkpt lat="48.26479" lon="-3.39897">
        <ele>195.39999389648</ele>
        <time>2020-10-18T10:58:59.000Z</time>
      </trkpt>
      <trkpt lat="48.26479" lon="-3.39897">
        <ele>195.39999389648</ele>
        <time>2020-10-18T10:59:00.000Z</time>
      </trkpt>
      <trkpt lat="48.26479" lon="-3.39897">
        <ele>195.39999389648</ele>
        <time>2020-10-18T10:59:01.000Z</time>
      </trkpt>
      <trkpt lat="48.26479" lon="-3.39897">
        <ele>195.39999389648</ele>
        <time>2020-10-18T10:59:02.000Z</time>
      </trkpt>
      <trkpt lat="48.26479" lon="-3.39897">
        <ele>195.39999389648</ele>
        <time>2020-10-18T10:59:03.000Z</time>
      </trkpt>
      <trkpt lat="48.26479" lon="-3.39897">
        <ele>195.39999389648</ele>
        <time>2020-10-18T10:59:04.000Z</time>
      </trkpt>
      <trkpt lat="48.26479" lon="-3.39897">
        <ele>195.39999389648</ele>
        <time>2020-10-18T10:59:05.000Z</time>
      </trkpt>
      <trkpt lat="48.26479" lon="-3.39897">
        <ele>195.39999389648</ele>
        <time>2020-10-18T10:59:06.000Z</time>
      </trkpt>
      <trkpt lat="48.26479" lon="-3.39897">
        <ele>195.39999389648</ele>
        <time>2020-10-18T10:59:07.000Z</time>
      </trkpt>
      <trkpt lat="48.26479" lon="-3.39897">
        <ele>195.39999389648</ele>
        <time>2020-10-18T10:59:08.000Z</time>
      </trkpt>
      <trkpt lat="48.26479" lon="-3.39897">
        <ele>195.39999389648</ele>
        <time>2020-10-18T10:59:09.000Z</time>
      </trkpt>
      <trkpt lat="48.26479" lon="-3.39897">
        <ele>195.39999389648</ele>
        <time>2020-10-18T10:59:10.000Z</time>
      </trkpt>
      <trkpt lat="48.26479" lon="-3.39897">
        <ele>195.39999389648</ele>
        <time>2020-10-18T10:59:11.000Z</time>
      </trkpt>
      <trkpt lat="48.26479" lon="-3.39897">
        <ele>195.39999389648</ele>
        <time>2020-10-18T10:59:12.000Z</time>
      </trkpt>
      <trkpt lat="48.26479" lon="-3.39897">
        <ele>195.39999389648</ele>
        <time>2020-10-18T10:59:13.000Z</time>
      </trkpt>
      <trkpt lat="48.26479" lon="-3.39897">
        <ele>195.39999389648</ele>
        <time>2020-10-18T10:59:14.000Z</time>
      </trkpt>
      <trkpt lat="48.26479" lon="-3.39897">
        <ele>195.39999389648</ele>
        <time>2020-10-18T10:59:15.000Z</time>
      </trkpt>
      <trkpt lat="48.26479" lon="-3.39897">
        <ele>195.39999389648</ele>
        <time>2020-10-18T10:59:16.000Z</time>
      </trkpt>
      <trkpt lat="48.26479" lon="-3.39897">
        <ele>195.39999389648</ele>
        <time>2020-10-18T10:59:17.000Z</time>
      </trkpt>
      <trkpt lat="48.26479" lon="-3.39897">
        <ele>195.39999389648</ele>
        <time>2020-10-18T10:59:18.000Z</time>
      </trkpt>
      <trkpt lat="48.26479" lon="-3.39897">
        <ele>195.39999389648</ele>
        <time>2020-10-18T10:59:19.000Z</time>
      </trkpt>
      <trkpt lat="48.26479" lon="-3.39897">
        <ele>195.39999389648</ele>
        <time>2020-10-18T10:59:20.000Z</time>
      </trkpt>
      <trkpt lat="48.26479" lon="-3.39897">
        <ele>195.39999389648</ele>
        <time>2020-10-18T10:59:21.000Z</time>
      </trkpt>
      <trkpt lat="48.26479" lon="-3.39897">
        <ele>195.39999389648</ele>
        <time>2020-10-18T10:59:22.000Z</time>
      </trkpt>
      <trkpt lat="48.26479" lon="-3.39897">
        <ele>195.39999389648</ele>
        <time>2020-10-18T10:59:23.000Z</time>
      </trkpt>
      <trkpt lat="48.26479" lon="-3.39897">
        <ele>195.39999389648</ele>
        <time>2020-10-18T10:59:24.000Z</time>
      </trkpt>
      <trkpt lat="48.26479" lon="-3.39897">
        <ele>195.39999389648</ele>
        <time>2020-10-18T10:59:25.000Z</time>
      </trkpt>
      <trkpt lat="48.26479" lon="-3.39897">
        <ele>195.39999389648</ele>
        <time>2020-10-18T10:59:26.000Z</time>
      </trkpt>
      <trkpt lat="48.26479" lon="-3.39897">
        <ele>195.39999389648</ele>
        <time>2020-10-18T10:59:27.000Z</time>
      </trkpt>
      <trkpt lat="48.26479" lon="-3.39897">
        <ele>195.39999389648</ele>
        <time>2020-10-18T10:59:28.000Z</time>
      </trkpt>
      <trkpt lat="48.26478" lon="-3.39898">
        <ele>195.39999389648</ele>
        <time>2020-10-18T10:59:29.000Z</time>
      </trkpt>
      <trkpt lat="48.26478" lon="-3.39898">
        <ele>195.39999389648</ele>
        <time>2020-10-18T10:59:30.000Z</time>
      </trkpt>
      <trkpt lat="48.26478" lon="-3.39898">
        <ele>195.39999389648</ele>
        <time>2020-10-18T10:59:31.000Z</time>
      </trkpt>
      <trkpt lat="48.26477" lon="-3.39901">
        <ele>195.39999389648</ele>
        <time>2020-10-18T10:59:32.000Z</time>
      </trkpt>
      <trkpt lat="48.26477" lon="-3.39901">
        <ele>195.39999389648</ele>
        <time>2020-10-18T10:59:33.000Z</time>
      </trkpt>
      <trkpt lat="48.26474" lon="-3.39905">
        <ele>195.39999389648</ele>
        <time>2020-10-18T10:59:34.000Z</time>
      </trkpt>
      <trkpt lat="48.26474" lon="-3.39905">
        <ele>195.39999389648</ele>
        <time>2020-10-18T10:59:35.000Z</time>
      </trkpt>
      <trkpt lat="48.26472" lon="-3.39911">
        <ele>195.39999389648</ele>
        <time>2020-10-18T10:59:36.000Z</time>
      </trkpt>
      <trkpt lat="48.26472" lon="-3.39911">
        <ele>195.39999389648</ele>
        <time>2020-10-18T10:59:37.000Z</time>
      </trkpt>
      <trkpt lat="48.2647" lon="-3.39918">
        <ele>195.60000610352</ele>
        <time>2020-10-18T10:59:38.000Z</time>
      </trkpt>
      <trkpt lat="48.2647" lon="-3.39918">
        <ele>195.60000610352</ele>
        <time>2020-10-18T10:59:39.000Z</time>
      </trkpt>
      <trkpt lat="48.26468" lon="-3.39921">
        <ele>195.60000610352</ele>
        <time>2020-10-18T10:59:40.000Z</time>
      </trkpt>
      <trkpt lat="48.26464" lon="-3.39929">
        <ele>195.60000610352</ele>
        <time>2020-10-18T10:59:41.000Z</time>
      </trkpt>
      <trkpt lat="48.26464" lon="-3.39929">
        <ele>195.60000610352</ele>
        <time>2020-10-18T10:59:42.000Z</time>
      </trkpt>
      <trkpt lat="48.26462" lon="-3.39933">
        <ele>195.60000610352</ele>
        <time>2020-10-18T10:59:43.000Z</time>
      </trkpt>
      <trkpt lat="48.26458" lon="-3.39942">
        <ele>195.19999694824</ele>
        <time>2020-10-18T10:59:44.000Z</time>
      </trkpt>
      <trkpt lat="48.26458" lon="-3.39942">
        <ele>195.19999694824</ele>
        <time>2020-10-18T10:59:45.000Z</time>
      </trkpt>
      <trkpt lat="48.26455" lon="-3.39946">
        <ele>195.19999694824</ele>
        <time>2020-10-18T10:59:46.000Z</time>
      </trkpt>
      <trkpt lat="48.26451" lon="-3.39954">
        <ele>195</ele>
        <time>2020-10-18T10:59:47.000Z</time>
      </trkpt>
      <trkpt lat="48.26451" lon="-3.39954">
        <ele>195</ele>
        <time>2020-10-18T10:59:48.000Z</time>
      </trkpt>
      <trkpt lat="48.26446" lon="-3.39963">
        <ele>194.60000610352</ele>
        <time>2020-10-18T10:59:49.000Z</time>
      </trkpt>
      <trkpt lat="48.26446" lon="-3.39963">
        <ele>194.60000610352</ele>
        <time>2020-10-18T10:59:50.000Z</time>
      </trkpt>
      <trkpt lat="48.26444" lon="-3.39968">
        <ele>194.60000610352</ele>
        <time>2020-10-18T10:59:51.000Z</time>
      </trkpt>
      <trkpt lat="48.26439" lon="-3.39976">
        <ele>194.19999694824</ele>
        <time>2020-10-18T10:59:52.000Z</time>
      </trkpt>
      <trkpt lat="48.26439" lon="-3.39976">
        <ele>194.19999694824</ele>
        <time>2020-10-18T10:59:53.000Z</time>
      </trkpt>
      <trkpt lat="48.26434" lon="-3.39986">
        <ele>194</ele>
        <time>2020-10-18T10:59:54.000Z</time>
      </trkpt>
      <trkpt lat="48.26434" lon="-3.39986">
        <ele>194</ele>
        <time>2020-10-18T10:59:55.000Z</time>
      </trkpt>
      <trkpt lat="48.26431" lon="-3.3999">
        <ele>193.80000305176</ele>
        <time>2020-10-18T10:59:56.000Z</time>
      </trkpt>
      <trkpt lat="48.26426" lon="-3.4">
        <ele>193.60000610352</ele>
        <time>2020-10-18T10:59:57.000Z</time>
      </trkpt>
      <trkpt lat="48.26426" lon="-3.4">
        <ele>193.60000610352</ele>
        <time>2020-10-18T10:59:58.000Z</time>
      </trkpt>
      <trkpt lat="48.26423" lon="-3.40005">
        <ele>193.60000610352</ele>
        <time>2020-10-18T10:59:59.000Z</time>
      </trkpt>
      <trkpt lat="48.26417" lon="-3.40015">
        <ele>193.39999389648</ele>
        <time>2020-10-18T11:00:00.000Z</time>
      </trkpt>
      <trkpt lat="48.26417" lon="-3.40015">
        <ele>193.39999389648</ele>
        <time>2020-10-18T11:00:01.000Z</time>
      </trkpt>
      <trkpt lat="48.26415" lon="-3.4002">
        <ele>193.19999694824</ele>
        <time>2020-10-18T11:00:02.000Z</time>
      </trkpt>
      <trkpt lat="48.26409" lon="-3.4003">
        <ele>192.80000305176</ele>
        <time>2020-10-18T11:00:03.000Z</time>
      </trkpt>
      <trkpt lat="48.26409" lon="-3.4003">
        <ele>192.80000305176</ele>
        <time>2020-10-18T11:00:04.000Z</time>
      </trkpt>
      <trkpt lat="48.26406" lon="-3.40035">
        <ele>192.60000610352</ele>
        <time>2020-10-18T11:00:05.000Z</time>
      </trkpt>
      <trkpt lat="48.26401" lon="-3.40045">
        <ele>192.19999694824</ele>
        <time>2020-10-18T11:00:06.000Z</time>
      </trkpt>
      <trkpt lat="48.26401" lon="-3.40045">
        <ele>192.19999694824</ele>
        <time>2020-10-18T11:00:07.000Z</time>
      </trkpt>
      <trkpt lat="48.26398" lon="-3.4005">
        <ele>192.19999694824</ele>
        <time>2020-10-18T11:00:08.000Z</time>
      </trkpt>
      <trkpt lat="48.26393" lon="-3.40059">
        <ele>191.80000305176</ele>
        <time>2020-10-18T11:00:09.000Z</time>
      </trkpt>
      <trkpt lat="48.26393" lon="-3.40059">
        <ele>191.80000305176</ele>
        <time>2020-10-18T11:00:10.000Z</time>
      </trkpt>
      <trkpt lat="48.26391" lon="-3.40064">
        <ele>191.80000305176</ele>
        <time>2020-10-18T11:00:11.000Z</time>
      </trkpt>
      <trkpt lat="48.26386" lon="-3.40071">
        <ele>191.39999389648</ele>
        <time>2020-10-18T11:00:12.000Z</time>
      </trkpt>
      <trkpt lat="48.26386" lon="-3.40071">
        <ele>191.39999389648</ele>
        <time>2020-10-18T11:00:13.000Z</time>
      </trkpt>
      <trkpt lat="48.26384" lon="-3.40075">
        <ele>191.39999389648</ele>
        <time>2020-10-18T11:00:14.000Z</time>
      </trkpt>
      <trkpt lat="48.2638" lon="-3.40082">
        <ele>191.19999694824</ele>
        <time>2020-10-18T11:00:15.000Z</time>
      </trkpt>
      <trkpt lat="48.2638" lon="-3.40082">
        <ele>191.19999694824</ele>
        <time>2020-10-18T11:00:16.000Z</time>
      </trkpt>
      <trkpt lat="48.26379" lon="-3.40085">
        <ele>191</ele>
        <time>2020-10-18T11:00:17.000Z</time>
      </trkpt>
      <trkpt lat="48.26376" lon="-3.4009">
        <ele>191</ele>
        <time>2020-10-18T11:00:18.000Z</time>
      </trkpt>
      <trkpt lat="48.26376" lon="-3.4009">
        <ele>191</ele>
        <time>2020-10-18T11:00:19.000Z</time>
      </trkpt>
      <trkpt lat="48.26375" lon="-3.40092">
        <ele>190.80000305176</ele>
        <time>2020-10-18T11:00:20.000Z</time>
      </trkpt>
      <trkpt lat="48.26371" lon="-3.40099">
        <ele>190.60000610352</ele>
        <time>2020-10-18T11:00:21.000Z</time>
      </trkpt>
      <trkpt lat="48.26371" lon="-3.40099">
        <ele>190.60000610352</ele>
        <time>2020-10-18T11:00:22.000Z</time>
      </trkpt>
      <trkpt lat="48.26369" lon="-3.40102">
        <ele>190.60000610352</ele>
        <time>2020-10-18T11:00:23.000Z</time>
      </trkpt>
      <trkpt lat="48.26365" lon="-3.40108">
        <ele>190.39999389648</ele>
        <time>2020-10-18T11:00:24.000Z</time>
      </trkpt>
      <trkpt lat="48.26365" lon="-3.40108">
        <ele>190.39999389648</ele>
        <time>2020-10-18T11:00:25.000Z</time>
      </trkpt>
      <trkpt lat="48.26363" lon="-3.40112">
        <ele>190.39999389648</ele>
        <time>2020-10-18T11:00:26.000Z</time>
      </trkpt>
      <trkpt lat="48.26359" lon="-3.40119">
        <ele>190</ele>
        <time>2020-10-18T11:00:27.000Z</time>
      </trkpt>
      <trkpt lat="48.26359" lon="-3.40119">
        <ele>190</ele>
        <time>2020-10-18T11:00:28.000Z</time>
      </trkpt>
      <trkpt lat="48.26356" lon="-3.40123">
        <ele>190</ele>
        <time>2020-10-18T11:00:29.000Z</time>
      </trkpt>
      <trkpt lat="48.26352" lon="-3.40132">
        <ele>189.80000305176</ele>
        <time>2020-10-18T11:00:30.000Z</time>
      </trkpt>
      <trkpt lat="48.26349" lon="-3.40137">
        <ele>189.60000610352</ele>
        <time>2020-10-18T11:00:31.000Z</time>
      </trkpt>
      <trkpt lat="48.26349" lon="-3.40137">
        <ele>189.60000610352</ele>
        <time>2020-10-18T11:00:32.000Z</time>
      </trkpt>
      <trkpt lat="48.26347" lon="-3.40141">
        <ele>189.39999389648</ele>
        <time>2020-10-18T11:00:33.000Z</time>
      </trkpt>
      <trkpt lat="48.26342" lon="-3.40149">
        <ele>189.39999389648</ele>
        <time>2020-10-18T11:00:34.000Z</time>
      </trkpt>
      <trkpt lat="48.26342" lon="-3.40149">
        <ele>189.39999389648</ele>
        <time>2020-10-18T11:00:35.000Z</time>
      </trkpt>
      <trkpt lat="48.2634" lon="-3.40153">
        <ele>189.60000610352</ele>
        <time>2020-10-18T11:00:36.000Z</time>
      </trkpt>
      <trkpt lat="48.26335" lon="-3.40161">
        <ele>189.60000610352</ele>
        <time>2020-10-18T11:00:37.000Z</time>
      </trkpt>
      <trkpt lat="48.26335" lon="-3.40161">
        <ele>189.60000610352</ele>
        <time>2020-10-18T11:00:38.000Z</time>
      </trkpt>
      <trkpt lat="48.26333" lon="-3.40165">
        <ele>189.80000305176</ele>
        <time>2020-10-18T11:00:39.000Z</time>
      </trkpt>
      <trkpt lat="48.26328" lon="-3.40172">
        <ele>189.80000305176</ele>
        <time>2020-10-18T11:00:40.000Z</time>
      </trkpt>
      <trkpt lat="48.26328" lon="-3.40172">
        <ele>189.80000305176</ele>
        <time>2020-10-18T11:00:41.000Z</time>
      </trkpt>
      <trkpt lat="48.26326" lon="-3.40175">
        <ele>190</ele>
        <time>2020-10-18T11:00:42.000Z</time>
      </trkpt>
      <trkpt lat="48.26321" lon="-3.40182">
        <ele>190</ele>
        <time>2020-10-18T11:00:43.000Z</time>
      </trkpt>
      <trkpt lat="48.26321" lon="-3.40182">
        <ele>190</ele>
        <time>2020-10-18T11:00:44.000Z</time>
      </trkpt>
      <trkpt lat="48.2632" lon="-3.40186">
        <ele>190</ele>
        <time>2020-10-18T11:00:45.000Z</time>
      </trkpt>
      <trkpt lat="48.26322" lon="-3.40195">
        <ele>189.39999389648</ele>
        <time>2020-10-18T11:00:46.000Z</time>
      </trkpt>
      <trkpt lat="48.26322" lon="-3.40195">
        <ele>189.39999389648</ele>
        <time>2020-10-18T11:00:47.000Z</time>
      </trkpt>
      <trkpt lat="48.26324" lon="-3.40205">
        <ele>188.80000305176</ele>
        <time>2020-10-18T11:00:48.000Z</time>
      </trkpt>
      <trkpt lat="48.26324" lon="-3.40205">
        <ele>188.80000305176</ele>
        <time>2020-10-18T11:00:49.000Z</time>
      </trkpt>
      <trkpt lat="48.26326" lon="-3.40211">
        <ele>188.39999389648</ele>
        <time>2020-10-18T11:00:50.000Z</time>
      </trkpt>
      <trkpt lat="48.26329" lon="-3.40225">
        <ele>188</ele>
        <time>2020-10-18T11:00:51.000Z</time>
      </trkpt>
      <trkpt lat="48.26329" lon="-3.40225">
        <ele>188</ele>
        <time>2020-10-18T11:00:52.000Z</time>
      </trkpt>
      <trkpt lat="48.26332" lon="-3.40233">
        <ele>187.60000610352</ele>
        <time>2020-10-18T11:00:53.000Z</time>
      </trkpt>
      <trkpt lat="48.26337" lon="-3.40247">
        <ele>187</ele>
        <time>2020-10-18T11:00:54.000Z</time>
      </trkpt>
      <trkpt lat="48.26337" lon="-3.40247">
        <ele>187</ele>
        <time>2020-10-18T11:00:55.000Z</time>
      </trkpt>
      <trkpt lat="48.26344" lon="-3.40259">
        <ele>186.19999694824</ele>
        <time>2020-10-18T11:00:56.000Z</time>
      </trkpt>
      <trkpt lat="48.26344" lon="-3.40259">
        <ele>186.19999694824</ele>
        <time>2020-10-18T11:00:57.000Z</time>
      </trkpt>
      <trkpt lat="48.26348" lon="-3.40265">
        <ele>186</ele>
        <time>2020-10-18T11:00:58.000Z</time>
      </trkpt>
      <trkpt lat="48.26355" lon="-3.40275">
        <ele>185.39999389648</ele>
        <time>2020-10-18T11:00:59.000Z</time>
      </trkpt>
      <trkpt lat="48.26355" lon="-3.40275">
        <ele>185.39999389648</ele>
        <time>2020-10-18T11:01:00.000Z</time>
      </trkpt>
      <trkpt lat="48.26359" lon="-3.4028">
        <ele>185.19999694824</ele>
        <time>2020-10-18T11:01:01.000Z</time>
      </trkpt>
      <trkpt lat="48.26366" lon="-3.40292">
        <ele>184.60000610352</ele>
        <time>2020-10-18T11:01:02.000Z</time>
      </trkpt>
      <trkpt lat="48.26366" lon="-3.40292">
        <ele>184.60000610352</ele>
        <time>2020-10-18T11:01:03.000Z</time>
      </trkpt>
      <trkpt lat="48.26371" lon="-3.40305">
        <ele>184.19999694824</ele>
        <time>2020-10-18T11:01:04.000Z</time>
      </trkpt>
      <trkpt lat="48.26371" lon="-3.40305">
        <ele>184.19999694824</ele>
        <time>2020-10-18T11:01:05.000Z</time>
      </trkpt>
      <trkpt lat="48.26372" lon="-3.40313">
        <ele>184</ele>
        <time>2020-10-18T11:01:06.000Z</time>
      </trkpt>
      <trkpt lat="48.26372" lon="-3.40329">
        <ele>183.39999389648</ele>
        <time>2020-10-18T11:01:07.000Z</time>
      </trkpt>
      <trkpt lat="48.26372" lon="-3.40329">
        <ele>183.39999389648</ele>
        <time>2020-10-18T11:01:08.000Z</time>
      </trkpt>
      <trkpt lat="48.2637" lon="-3.40337">
        <ele>183.19999694824</ele>
        <time>2020-10-18T11:01:09.000Z</time>
      </trkpt>
      <trkpt lat="48.26365" lon="-3.4035">
        <ele>183</ele>
        <time>2020-10-18T11:01:10.000Z</time>
      </trkpt>
      <trkpt lat="48.26365" lon="-3.4035">
        <ele>183</ele>
        <time>2020-10-18T11:01:11.000Z</time>
      </trkpt>
      <trkpt lat="48.26362" lon="-3.40355">
        <ele>183.19999694824</ele>
        <time>2020-10-18T11:01:12.000Z</time>
      </trkpt>
      <trkpt lat="48.26357" lon="-3.40365">
        <ele>183.19999694824</ele>
        <time>2020-10-18T11:01:13.000Z</time>
      </trkpt>
      <trkpt lat="48.26357" lon="-3.40365">
        <ele>183.19999694824</ele>
        <time>2020-10-18T11:01:14.000Z</time>
      </trkpt>
      <trkpt lat="48.26354" lon="-3.4037">
        <ele>183.39999389648</ele>
        <time>2020-10-18T11:01:15.000Z</time>
      </trkpt>
      <trkpt lat="48.26348" lon="-3.4038">
        <ele>183.60000610352</ele>
        <time>2020-10-18T11:01:16.000Z</time>
      </trkpt>
      <trkpt lat="48.26348" lon="-3.4038">
        <ele>183.60000610352</ele>
        <time>2020-10-18T11:01:17.000Z</time>
      </trkpt>
      <trkpt lat="48.26345" lon="-3.40385">
        <ele>183.60000610352</ele>
        <time>2020-10-18T11:01:18.000Z</time>
      </trkpt>
      <trkpt lat="48.26338" lon="-3.40395">
        <ele>183.80000305176</ele>
        <time>2020-10-18T11:01:19.000Z</time>
      </trkpt>
      <trkpt lat="48.26338" lon="-3.40395">
        <ele>183.80000305176</ele>
        <time>2020-10-18T11:01:20.000Z</time>
      </trkpt>
      <trkpt lat="48.26335" lon="-3.40399">
        <ele>183.80000305176</ele>
        <time>2020-10-18T11:01:21.000Z</time>
      </trkpt>
      <trkpt lat="48.26329" lon="-3.40409">
        <ele>183.80000305176</ele>
        <time>2020-10-18T11:01:22.000Z</time>
      </trkpt>
      <trkpt lat="48.26329" lon="-3.40409">
        <ele>183.80000305176</ele>
        <time>2020-10-18T11:01:23.000Z</time>
      </trkpt>
      <trkpt lat="48.26326" lon="-3.40413">
        <ele>184</ele>
        <time>2020-10-18T11:01:24.000Z</time>
      </trkpt>
      <trkpt lat="48.26319" lon="-3.40423">
        <ele>184</ele>
        <time>2020-10-18T11:01:25.000Z</time>
      </trkpt>
      <trkpt lat="48.26319" lon="-3.40423">
        <ele>184</ele>
        <time>2020-10-18T11:01:26.000Z</time>
      </trkpt>
      <trkpt lat="48.26316" lon="-3.40427">
        <ele>184.19999694824</ele>
        <time>2020-10-18T11:01:27.000Z</time>
      </trkpt>
      <trkpt lat="48.26311" lon="-3.40436">
        <ele>184.19999694824</ele>
        <time>2020-10-18T11:01:28.000Z</time>
      </trkpt>
      <trkpt lat="48.26311" lon="-3.40436">
        <ele>184.19999694824</ele>
        <time>2020-10-18T11:01:29.000Z</time>
      </trkpt>
      <trkpt lat="48.26308" lon="-3.40441">
        <ele>184.19999694824</ele>
        <time>2020-10-18T11:01:30.000Z</time>
      </trkpt>
      <trkpt lat="48.26303" lon="-3.40451">
        <ele>184.39999389648</ele>
        <time>2020-10-18T11:01:31.000Z</time>
      </trkpt>
      <trkpt lat="48.26303" lon="-3.40451">
        <ele>184.39999389648</ele>
        <time>2020-10-18T11:01:32.000Z</time>
      </trkpt>
      <trkpt lat="48.263" lon="-3.40455">
        <ele>184.39999389648</ele>
        <time>2020-10-18T11:01:33.000Z</time>
      </trkpt>
      <trkpt lat="48.26296" lon="-3.40466">
        <ele>184.39999389648</ele>
        <time>2020-10-18T11:01:34.000Z</time>
      </trkpt>
      <trkpt lat="48.26296" lon="-3.40466">
        <ele>184.39999389648</ele>
        <time>2020-10-18T11:01:35.000Z</time>
      </trkpt>
      <trkpt lat="48.26294" lon="-3.40471">
        <ele>184.39999389648</ele>
        <time>2020-10-18T11:01:36.000Z</time>
      </trkpt>
      <trkpt lat="48.2629" lon="-3.40483">
        <ele>184.39999389648</ele>
        <time>2020-10-18T11:01:37.000Z</time>
      </trkpt>
      <trkpt lat="48.2629" lon="-3.40483">
        <ele>184.39999389648</ele>
        <time>2020-10-18T11:01:38.000Z</time>
      </trkpt>
      <trkpt lat="48.26288" lon="-3.40489">
        <ele>184.39999389648</ele>
        <time>2020-10-18T11:01:39.000Z</time>
      </trkpt>
      <trkpt lat="48.26284" lon="-3.40501">
        <ele>184.19999694824</ele>
        <time>2020-10-18T11:01:40.000Z</time>
      </trkpt>
      <trkpt lat="48.26284" lon="-3.40501">
        <ele>184.19999694824</ele>
        <time>2020-10-18T11:01:41.000Z</time>
      </trkpt>
      <trkpt lat="48.26282" lon="-3.40507">
        <ele>184</ele>
        <time>2020-10-18T11:01:42.000Z</time>
      </trkpt>
      <trkpt lat="48.26279" lon="-3.4052">
        <ele>183.80000305176</ele>
        <time>2020-10-18T11:01:43.000Z</time>
      </trkpt>
      <trkpt lat="48.26279" lon="-3.4052">
        <ele>183.80000305176</ele>
        <time>2020-10-18T11:01:44.000Z</time>
      </trkpt>
      <trkpt lat="48.26277" lon="-3.40527">
        <ele>183.80000305176</ele>
        <time>2020-10-18T11:01:45.000Z</time>
      </trkpt>
      <trkpt lat="48.26272" lon="-3.4054">
        <ele>184</ele>
        <time>2020-10-18T11:01:46.000Z</time>
      </trkpt>
      <trkpt lat="48.26269" lon="-3.40546">
        <ele>184.19999694824</ele>
        <time>2020-10-18T11:01:47.000Z</time>
      </trkpt>
      <trkpt lat="48.26266" lon="-3.40551">
        <ele>184.39999389648</ele>
        <time>2020-10-18T11:01:48.000Z</time>
      </trkpt>
      <trkpt lat="48.26266" lon="-3.40551">
        <ele>184.39999389648</ele>
        <time>2020-10-18T11:01:49.000Z</time>
      </trkpt>
      <trkpt lat="48.26263" lon="-3.40557">
        <ele>184.39999389648</ele>
        <time>2020-10-18T11:01:50.000Z</time>
      </trkpt>
      <trkpt lat="48.26257" lon="-3.40569">
        <ele>184.39999389648</ele>
        <time>2020-10-18T11:01:51.000Z</time>
      </trkpt>
      <trkpt lat="48.26257" lon="-3.40569">
        <ele>184.39999389648</ele>
        <time>2020-10-18T11:01:52.000Z</time>
      </trkpt>
      <trkpt lat="48.26251" lon="-3.40579">
        <ele>184.39999389648</ele>
        <time>2020-10-18T11:01:53.000Z</time>
      </trkpt>
      <trkpt lat="48.26251" lon="-3.40579">
        <ele>184.39999389648</ele>
        <time>2020-10-18T11:01:54.000Z</time>
      </trkpt>
      <trkpt lat="48.26248" lon="-3.40584">
        <ele>184.39999389648</ele>
        <time>2020-10-18T11:01:55.000Z</time>
      </trkpt>
      <trkpt lat="48.26243" lon="-3.40595">
        <ele>184.19999694824</ele>
        <time>2020-10-18T11:01:56.000Z</time>
      </trkpt>
      <trkpt lat="48.26243" lon="-3.40595">
        <ele>184.19999694824</ele>
        <time>2020-10-18T11:01:57.000Z</time>
      </trkpt>
      <trkpt lat="48.2624" lon="-3.40601">
        <ele>184.19999694824</ele>
        <time>2020-10-18T11:01:58.000Z</time>
      </trkpt>
      <trkpt lat="48.26234" lon="-3.4061">
        <ele>184</ele>
        <time>2020-10-18T11:01:59.000Z</time>
      </trkpt>
      <trkpt lat="48.26234" lon="-3.4061">
        <ele>184</ele>
        <time>2020-10-18T11:02:00.000Z</time>
      </trkpt>
      <trkpt lat="48.26232" lon="-3.40615">
        <ele>183.80000305176</ele>
        <time>2020-10-18T11:02:01.000Z</time>
      </trkpt>
      <trkpt lat="48.26228" lon="-3.40623">
        <ele>183.60000610352</ele>
        <time>2020-10-18T11:02:02.000Z</time>
      </trkpt>
      <trkpt lat="48.26228" lon="-3.40623">
        <ele>183.60000610352</ele>
        <time>2020-10-18T11:02:03.000Z</time>
      </trkpt>
      <trkpt lat="48.26227" lon="-3.40628">
        <ele>183.39999389648</ele>
        <time>2020-10-18T11:02:04.000Z</time>
      </trkpt>
      <trkpt lat="48.26227" lon="-3.40628">
        <ele>183.39999389648</ele>
        <time>2020-10-18T11:02:05.000Z</time>
      </trkpt>
      <trkpt lat="48.26227" lon="-3.40629">
        <ele>183.39999389648</ele>
        <time>2020-10-18T11:02:06.000Z</time>
      </trkpt>
      <trkpt lat="48.26227" lon="-3.40628">
        <ele>183.39999389648</ele>
        <time>2020-10-18T11:02:07.000Z</time>
      </trkpt>
      <trkpt lat="48.26227" lon="-3.40628">
        <ele>183.39999389648</ele>
        <time>2020-10-18T11:02:08.000Z</time>
      </trkpt>
      <trkpt lat="48.26227" lon="-3.40628">
        <ele>183.39999389648</ele>
        <time>2020-10-18T11:02:09.000Z</time>
      </trkpt>
      <trkpt lat="48.26227" lon="-3.40628">
        <ele>183.39999389648</ele>
        <time>2020-10-18T11:02:10.000Z</time>
      </trkpt>
      <trkpt lat="48.26227" lon="-3.40628">
        <ele>183.39999389648</ele>
        <time>2020-10-18T11:02:11.000Z</time>
      </trkpt>
      <trkpt lat="48.26227" lon="-3.40628">
        <ele>183.39999389648</ele>
        <time>2020-10-18T11:02:12.000Z</time>
      </trkpt>
      <trkpt lat="48.26227" lon="-3.40628">
        <ele>183.39999389648</ele>
        <time>2020-10-18T11:02:13.000Z</time>
      </trkpt>
      <trkpt lat="48.26227" lon="-3.40628">
        <ele>183.39999389648</ele>
        <time>2020-10-18T11:02:14.000Z</time>
      </trkpt>
      <trkpt lat="48.26227" lon="-3.40628">
        <ele>183.39999389648</ele>
        <time>2020-10-18T11:02:15.000Z</time>
      </trkpt>
      <trkpt lat="48.26227" lon="-3.40628">
        <ele>183.39999389648</ele>
        <time>2020-10-18T11:02:16.000Z</time>
      </trkpt>
      <trkpt lat="48.26227" lon="-3.40628">
        <ele>183.39999389648</ele>
        <time>2020-10-18T11:02:17.000Z</time>
      </trkpt>
      <trkpt lat="48.26227" lon="-3.40628">
        <ele>183.39999389648</ele>
        <time>2020-10-18T11:02:18.000Z</time>
      </trkpt>
      <trkpt lat="48.26227" lon="-3.40628">
        <ele>183.39999389648</ele>
        <time>2020-10-18T11:02:19.000Z</time>
      </trkpt>
      <trkpt lat="48.26227" lon="-3.40628">
        <ele>183.39999389648</ele>
        <time>2020-10-18T11:02:20.000Z</time>
      </trkpt>
      <trkpt lat="48.26227" lon="-3.40628">
        <ele>183.39999389648</ele>
        <time>2020-10-18T11:02:21.000Z</time>
      </trkpt>
      <trkpt lat="48.26227" lon="-3.40628">
        <ele>183.39999389648</ele>
        <time>2020-10-18T11:02:22.000Z</time>
      </trkpt>
      <trkpt lat="48.26227" lon="-3.40628">
        <ele>183.39999389648</ele>
        <time>2020-10-18T11:02:23.000Z</time>
      </trkpt>
      <trkpt lat="48.26227" lon="-3.40628">
        <ele>183.39999389648</ele>
        <time>2020-10-18T11:02:24.000Z</time>
      </trkpt>
      <trkpt lat="48.26227" lon="-3.40628">
        <ele>183.39999389648</ele>
        <time>2020-10-18T11:02:25.000Z</time>
      </trkpt>
      <trkpt lat="48.26227" lon="-3.40628">
        <ele>183.39999389648</ele>
        <time>2020-10-18T11:02:26.000Z</time>
      </trkpt>
      <trkpt lat="48.26227" lon="-3.40628">
        <ele>183.39999389648</ele>
        <time>2020-10-18T11:02:27.000Z</time>
      </trkpt>
      <trkpt lat="48.26227" lon="-3.40628">
        <ele>183.39999389648</ele>
        <time>2020-10-18T11:02:28.000Z</time>
      </trkpt>
      <trkpt lat="48.26227" lon="-3.40628">
        <ele>183.39999389648</ele>
        <time>2020-10-18T11:02:29.000Z</time>
      </trkpt>
      <trkpt lat="48.26227" lon="-3.40628">
        <ele>183.39999389648</ele>
        <time>2020-10-18T11:02:30.000Z</time>
      </trkpt>
      <trkpt lat="48.26227" lon="-3.40628">
        <ele>183.39999389648</ele>
        <time>2020-10-18T11:02:31.000Z</time>
      </trkpt>
      <trkpt lat="48.26227" lon="-3.40628">
        <ele>183.39999389648</ele>
        <time>2020-10-18T11:02:32.000Z</time>
      </trkpt>
      <trkpt lat="48.26227" lon="-3.40628">
        <ele>183.39999389648</ele>
        <time>2020-10-18T11:02:33.000Z</time>
      </trkpt>
      <trkpt lat="48.26227" lon="-3.40628">
        <ele>183.39999389648</ele>
        <time>2020-10-18T11:02:34.000Z</time>
      </trkpt>
      <trkpt lat="48.26227" lon="-3.40628">
        <ele>183.39999389648</ele>
        <time>2020-10-18T11:02:35.000Z</time>
      </trkpt>
      <trkpt lat="48.26227" lon="-3.40628">
        <ele>183.39999389648</ele>
        <time>2020-10-18T11:02:36.000Z</time>
      </trkpt>
      <trkpt lat="48.26227" lon="-3.40628">
        <ele>183.39999389648</ele>
        <time>2020-10-18T11:02:37.000Z</time>
      </trkpt>
      <trkpt lat="48.26227" lon="-3.40628">
        <ele>183.39999389648</ele>
        <time>2020-10-18T11:02:38.000Z</time>
      </trkpt>
      <trkpt lat="48.26227" lon="-3.40628">
        <ele>183.39999389648</ele>
        <time>2020-10-18T11:02:39.000Z</time>
      </trkpt>
      <trkpt lat="48.26227" lon="-3.40628">
        <ele>183.39999389648</ele>
        <time>2020-10-18T11:02:40.000Z</time>
      </trkpt>
      <trkpt lat="48.26227" lon="-3.40628">
        <ele>183.39999389648</ele>
        <time>2020-10-18T11:02:41.000Z</time>
      </trkpt>
      <trkpt lat="48.26227" lon="-3.40628">
        <ele>183.39999389648</ele>
        <time>2020-10-18T11:02:42.000Z</time>
      </trkpt>
      <trkpt lat="48.26227" lon="-3.40628">
        <ele>183.39999389648</ele>
        <time>2020-10-18T11:02:43.000Z</time>
      </trkpt>
      <trkpt lat="48.26227" lon="-3.40628">
        <ele>183.39999389648</ele>
        <time>2020-10-18T11:02:44.000Z</time>
      </trkpt>
      <trkpt lat="48.26227" lon="-3.40628">
        <ele>183.39999389648</ele>
        <time>2020-10-18T11:02:45.000Z</time>
      </trkpt>
      <trkpt lat="48.26227" lon="-3.40628">
        <ele>183.39999389648</ele>
        <time>2020-10-18T11:02:46.000Z</time>
      </trkpt>
      <trkpt lat="48.26227" lon="-3.40628">
        <ele>183.39999389648</ele>
        <time>2020-10-18T11:02:47.000Z</time>
      </trkpt>
      <trkpt lat="48.26227" lon="-3.40628">
        <ele>183.39999389648</ele>
        <time>2020-10-18T11:02:48.000Z</time>
      </trkpt>
      <trkpt lat="48.26227" lon="-3.40628">
        <ele>183.39999389648</ele>
        <time>2020-10-18T11:02:49.000Z</time>
      </trkpt>
      <trkpt lat="48.26227" lon="-3.40628">
        <ele>183.39999389648</ele>
        <time>2020-10-18T11:02:50.000Z</time>
      </trkpt>
      <trkpt lat="48.26227" lon="-3.40628">
        <ele>183.39999389648</ele>
        <time>2020-10-18T11:02:51.000Z</time>
      </trkpt>
      <trkpt lat="48.26227" lon="-3.40628">
        <ele>183.39999389648</ele>
        <time>2020-10-18T11:02:52.000Z</time>
      </trkpt>
      <trkpt lat="48.26227" lon="-3.40628">
        <ele>183.39999389648</ele>
        <time>2020-10-18T11:02:53.000Z</time>
      </trkpt>
      <trkpt lat="48.26227" lon="-3.40628">
        <ele>183.39999389648</ele>
        <time>2020-10-18T11:02:54.000Z</time>
      </trkpt>
      <trkpt lat="48.26227" lon="-3.40628">
        <ele>183.39999389648</ele>
        <time>2020-10-18T11:02:55.000Z</time>
      </trkpt>
      <trkpt lat="48.26227" lon="-3.40628">
        <ele>183.39999389648</ele>
        <time>2020-10-18T11:02:56.000Z</time>
      </trkpt>
      <trkpt lat="48.26227" lon="-3.40628">
        <ele>183.39999389648</ele>
        <time>2020-10-18T11:02:57.000Z</time>
      </trkpt>
      <trkpt lat="48.26227" lon="-3.40628">
        <ele>183.39999389648</ele>
        <time>2020-10-18T11:02:58.000Z</time>
      </trkpt>
      <trkpt lat="48.26227" lon="-3.40628">
        <ele>183.39999389648</ele>
        <time>2020-10-18T11:02:59.000Z</time>
      </trkpt>
      <trkpt lat="48.26227" lon="-3.40628">
        <ele>183.39999389648</ele>
        <time>2020-10-18T11:03:00.000Z</time>
      </trkpt>
      <trkpt lat="48.26227" lon="-3.40628">
        <ele>183.39999389648</ele>
        <time>2020-10-18T11:03:01.000Z</time>
      </trkpt>
      <trkpt lat="48.26227" lon="-3.40628">
        <ele>183.39999389648</ele>
        <time>2020-10-18T11:03:02.000Z</time>
      </trkpt>
      <trkpt lat="48.26227" lon="-3.40628">
        <ele>183.39999389648</ele>
        <time>2020-10-18T11:03:03.000Z</time>
      </trkpt>
      <trkpt lat="48.26227" lon="-3.40628">
        <ele>183.39999389648</ele>
        <time>2020-10-18T11:03:04.000Z</time>
      </trkpt>
      <trkpt lat="48.26227" lon="-3.40628">
        <ele>183.39999389648</ele>
        <time>2020-10-18T11:03:05.000Z</time>
      </trkpt>
      <trkpt lat="48.26227" lon="-3.40628">
        <ele>183.39999389648</ele>
        <time>2020-10-18T11:03:06.000Z</time>
      </trkpt>
      <trkpt lat="48.26227" lon="-3.40628">
        <ele>183.39999389648</ele>
        <time>2020-10-18T11:03:07.000Z</time>
      </trkpt>
      <trkpt lat="48.26227" lon="-3.40628">
        <ele>183.39999389648</ele>
        <time>2020-10-18T11:03:08.000Z</time>
      </trkpt>
      <trkpt lat="48.26227" lon="-3.40628">
        <ele>183.39999389648</ele>
        <time>2020-10-18T11:03:09.000Z</time>
      </trkpt>
      <trkpt lat="48.26227" lon="-3.40628">
        <ele>183.39999389648</ele>
        <time>2020-10-18T11:03:10.000Z</time>
      </trkpt>
      <trkpt lat="48.26227" lon="-3.40628">
        <ele>183.39999389648</ele>
        <time>2020-10-18T11:03:11.000Z</time>
      </trkpt>
      <trkpt lat="48.26227" lon="-3.40628">
        <ele>183.39999389648</ele>
        <time>2020-10-18T11:03:12.000Z</time>
      </trkpt>
      <trkpt lat="48.26227" lon="-3.40628">
        <ele>183.39999389648</ele>
        <time>2020-10-18T11:03:13.000Z</time>
      </trkpt>
      <trkpt lat="48.26227" lon="-3.40628">
        <ele>183.39999389648</ele>
        <time>2020-10-18T11:03:14.000Z</time>
      </trkpt>
      <trkpt lat="48.26227" lon="-3.40628">
        <ele>183.39999389648</ele>
        <time>2020-10-18T11:03:15.000Z</time>
      </trkpt>
      <trkpt lat="48.26227" lon="-3.40628">
        <ele>183.39999389648</ele>
        <time>2020-10-18T11:03:16.000Z</time>
      </trkpt>
      <trkpt lat="48.26227" lon="-3.40628">
        <ele>183.39999389648</ele>
        <time>2020-10-18T11:03:17.000Z</time>
      </trkpt>
      <trkpt lat="48.26227" lon="-3.40628">
        <ele>183.39999389648</ele>
        <time>2020-10-18T11:03:18.000Z</time>
      </trkpt>
      <trkpt lat="48.26227" lon="-3.40628">
        <ele>183.39999389648</ele>
        <time>2020-10-18T11:03:19.000Z</time>
      </trkpt>
      <trkpt lat="48.26227" lon="-3.40628">
        <ele>183.39999389648</ele>
        <time>2020-10-18T11:03:20.000Z</time>
      </trkpt>
      <trkpt lat="48.26227" lon="-3.40628">
        <ele>183.39999389648</ele>
        <time>2020-10-18T11:03:21.000Z</time>
      </trkpt>
      <trkpt lat="48.26227" lon="-3.40628">
        <ele>183.39999389648</ele>
        <time>2020-10-18T11:03:22.000Z</time>
      </trkpt>
      <trkpt lat="48.26227" lon="-3.40628">
        <ele>183.39999389648</ele>
        <time>2020-10-18T11:03:23.000Z</time>
      </trkpt>
      <trkpt lat="48.26227" lon="-3.40628">
        <ele>183.39999389648</ele>
        <time>2020-10-18T11:03:24.000Z</time>
      </trkpt>
      <trkpt lat="48.26227" lon="-3.40628">
        <ele>183.39999389648</ele>
        <time>2020-10-18T11:03:25.000Z</time>
      </trkpt>
      <trkpt lat="48.26227" lon="-3.40628">
        <ele>183.39999389648</ele>
        <time>2020-10-18T11:03:26.000Z</time>
      </trkpt>
      <trkpt lat="48.26227" lon="-3.40628">
        <ele>183.39999389648</ele>
        <time>2020-10-18T11:03:27.000Z</time>
      </trkpt>
      <trkpt lat="48.26227" lon="-3.40628">
        <ele>183.39999389648</ele>
        <time>2020-10-18T11:03:28.000Z</time>
      </trkpt>
      <trkpt lat="48.26227" lon="-3.40628">
        <ele>183.39999389648</ele>
        <time>2020-10-18T11:03:29.000Z</time>
      </trkpt>
      <trkpt lat="48.26227" lon="-3.40628">
        <ele>183.39999389648</ele>
        <time>2020-10-18T11:03:30.000Z</time>
      </trkpt>
      <trkpt lat="48.26227" lon="-3.40628">
        <ele>183.39999389648</ele>
        <time>2020-10-18T11:03:31.000Z</time>
      </trkpt>
      <trkpt lat="48.26227" lon="-3.40628">
        <ele>183.39999389648</ele>
        <time>2020-10-18T11:03:32.000Z</time>
      </trkpt>
      <trkpt lat="48.26227" lon="-3.40628">
        <ele>183.39999389648</ele>
        <time>2020-10-18T11:03:33.000Z</time>
      </trkpt>
      <trkpt lat="48.26227" lon="-3.40628">
        <ele>183.39999389648</ele>
        <time>2020-10-18T11:03:34.000Z</time>
      </trkpt>
      <trkpt lat="48.26227" lon="-3.40628">
        <ele>183.39999389648</ele>
        <time>2020-10-18T11:03:35.000Z</time>
      </trkpt>
      <trkpt lat="48.26225" lon="-3.40628">
        <ele>183.39999389648</ele>
        <time>2020-10-18T11:03:36.000Z</time>
      </trkpt>
      <trkpt lat="48.26225" lon="-3.40628">
        <ele>183.39999389648</ele>
        <time>2020-10-18T11:03:37.000Z</time>
      </trkpt>
      <trkpt lat="48.26222" lon="-3.40627">
        <ele>183.39999389648</ele>
        <time>2020-10-18T11:03:38.000Z</time>
      </trkpt>
      <trkpt lat="48.26222" lon="-3.40627">
        <ele>183.39999389648</ele>
        <time>2020-10-18T11:03:39.000Z</time>
      </trkpt>
      <trkpt lat="48.2622" lon="-3.40625">
        <ele>183.60000610352</ele>
        <time>2020-10-18T11:03:40.000Z</time>
      </trkpt>
      <trkpt lat="48.26217" lon="-3.40619">
        <ele>183.80000305176</ele>
        <time>2020-10-18T11:03:41.000Z</time>
      </trkpt>
      <trkpt lat="48.26217" lon="-3.40619">
        <ele>183.80000305176</ele>
        <time>2020-10-18T11:03:42.000Z</time>
      </trkpt>
      <trkpt lat="48.26215" lon="-3.40617">
        <ele>184</ele>
        <time>2020-10-18T11:03:43.000Z</time>
      </trkpt>
      <trkpt lat="48.26212" lon="-3.40611">
        <ele>184.19999694824</ele>
        <time>2020-10-18T11:03:44.000Z</time>
      </trkpt>
      <trkpt lat="48.26212" lon="-3.40611">
        <ele>184.19999694824</ele>
        <time>2020-10-18T11:03:45.000Z</time>
      </trkpt>
      <trkpt lat="48.26211" lon="-3.40608">
        <ele>184.19999694824</ele>
        <time>2020-10-18T11:03:46.000Z</time>
      </trkpt>
      <trkpt lat="48.26208" lon="-3.40604">
        <ele>184.39999389648</ele>
        <time>2020-10-18T11:03:47.000Z</time>
      </trkpt>
      <trkpt lat="48.26207" lon="-3.40602">
        <ele>184.60000610352</ele>
        <time>2020-10-18T11:03:48.000Z</time>
      </trkpt>
      <trkpt lat="48.26207" lon="-3.40602">
        <ele>184.60000610352</ele>
        <time>2020-10-18T11:03:49.000Z</time>
      </trkpt>
      <trkpt lat="48.26205" lon="-3.406">
        <ele>184.60000610352</ele>
        <time>2020-10-18T11:03:50.000Z</time>
      </trkpt>
      <trkpt lat="48.26202" lon="-3.40594">
        <ele>184.80000305176</ele>
        <time>2020-10-18T11:03:51.000Z</time>
      </trkpt>
      <trkpt lat="48.26202" lon="-3.40594">
        <ele>184.80000305176</ele>
        <time>2020-10-18T11:03:52.000Z</time>
      </trkpt>
      <trkpt lat="48.26198" lon="-3.40587">
        <ele>185</ele>
        <time>2020-10-18T11:03:53.000Z</time>
      </trkpt>
      <trkpt lat="48.26198" lon="-3.40587">
        <ele>185</ele>
        <time>2020-10-18T11:03:54.000Z</time>
      </trkpt>
      <trkpt lat="48.26195" lon="-3.40583">
        <ele>185</ele>
        <time>2020-10-18T11:03:55.000Z</time>
      </trkpt>
      <trkpt lat="48.26193" lon="-3.40579">
        <ele>185.19999694824</ele>
        <time>2020-10-18T11:03:56.000Z</time>
      </trkpt>
      <trkpt lat="48.26191" lon="-3.40576">
        <ele>185.19999694824</ele>
        <time>2020-10-18T11:03:57.000Z</time>
      </trkpt>
      <trkpt lat="48.26187" lon="-3.40568">
        <ele>185.60000610352</ele>
        <time>2020-10-18T11:03:58.000Z</time>
      </trkpt>
      <trkpt lat="48.26187" lon="-3.40568">
        <ele>185.60000610352</ele>
        <time>2020-10-18T11:03:59.000Z</time>
      </trkpt>
      <trkpt lat="48.26185" lon="-3.40564">
        <ele>185.60000610352</ele>
        <time>2020-10-18T11:04:00.000Z</time>
      </trkpt>
      <trkpt lat="48.26181" lon="-3.40558">
        <ele>186</ele>
        <time>2020-10-18T11:04:01.000Z</time>
      </trkpt>
      <trkpt lat="48.26181" lon="-3.40558">
        <ele>186</ele>
        <time>2020-10-18T11:04:02.000Z</time>
      </trkpt>
      <trkpt lat="48.26179" lon="-3.40554">
        <ele>186</ele>
        <time>2020-10-18T11:04:03.000Z</time>
      </trkpt>
      <trkpt lat="48.26175" lon="-3.40547">
        <ele>186.19999694824</ele>
        <time>2020-10-18T11:04:04.000Z</time>
      </trkpt>
      <trkpt lat="48.26175" lon="-3.40547">
        <ele>186.19999694824</ele>
        <time>2020-10-18T11:04:05.000Z</time>
      </trkpt>
      <trkpt lat="48.26173" lon="-3.40544">
        <ele>186.39999389648</ele>
        <time>2020-10-18T11:04:06.000Z</time>
      </trkpt>
      <trkpt lat="48.26169" lon="-3.40537">
        <ele>186.60000610352</ele>
        <time>2020-10-18T11:04:07.000Z</time>
      </trkpt>
      <trkpt lat="48.26169" lon="-3.40537">
        <ele>186.60000610352</ele>
        <time>2020-10-18T11:04:08.000Z</time>
      </trkpt>
      <trkpt lat="48.26166" lon="-3.4053">
        <ele>186.80000305176</ele>
        <time>2020-10-18T11:04:09.000Z</time>
      </trkpt>
      <trkpt lat="48.26166" lon="-3.4053">
        <ele>186.80000305176</ele>
        <time>2020-10-18T11:04:10.000Z</time>
      </trkpt>
      <trkpt lat="48.26164" lon="-3.40527">
        <ele>187</ele>
        <time>2020-10-18T11:04:11.000Z</time>
      </trkpt>
      <trkpt lat="48.2616" lon="-3.4052">
        <ele>187.60000610352</ele>
        <time>2020-10-18T11:04:12.000Z</time>
      </trkpt>
      <trkpt lat="48.2616" lon="-3.4052">
        <ele>187.60000610352</ele>
        <time>2020-10-18T11:04:13.000Z</time>
      </trkpt>
      <trkpt lat="48.26158" lon="-3.40517">
        <ele>188</ele>
        <time>2020-10-18T11:04:14.000Z</time>
      </trkpt>
      <trkpt lat="48.26154" lon="-3.4051">
        <ele>188.39999389648</ele>
        <time>2020-10-18T11:04:15.000Z</time>
      </trkpt>
      <trkpt lat="48.26154" lon="-3.4051">
        <ele>188.39999389648</ele>
        <time>2020-10-18T11:04:16.000Z</time>
      </trkpt>
      <trkpt lat="48.26152" lon="-3.40507">
        <ele>188.60000610352</ele>
        <time>2020-10-18T11:04:17.000Z</time>
      </trkpt>
      <trkpt lat="48.26149" lon="-3.405">
        <ele>189</ele>
        <time>2020-10-18T11:04:18.000Z</time>
      </trkpt>
      <trkpt lat="48.26149" lon="-3.405">
        <ele>189</ele>
        <time>2020-10-18T11:04:19.000Z</time>
      </trkpt>
      <trkpt lat="48.26147" lon="-3.40496">
        <ele>189.19999694824</ele>
        <time>2020-10-18T11:04:20.000Z</time>
      </trkpt>
      <trkpt lat="48.26143" lon="-3.4049">
        <ele>189.60000610352</ele>
        <time>2020-10-18T11:04:21.000Z</time>
      </trkpt>
      <trkpt lat="48.26143" lon="-3.4049">
        <ele>189.60000610352</ele>
        <time>2020-10-18T11:04:22.000Z</time>
      </trkpt>
      <trkpt lat="48.26142" lon="-3.40487">
        <ele>189.80000305176</ele>
        <time>2020-10-18T11:04:23.000Z</time>
      </trkpt>
      <trkpt lat="48.26138" lon="-3.40481">
        <ele>190.19999694824</ele>
        <time>2020-10-18T11:04:24.000Z</time>
      </trkpt>
      <trkpt lat="48.26138" lon="-3.40481">
        <ele>190.19999694824</ele>
        <time>2020-10-18T11:04:25.000Z</time>
      </trkpt>
      <trkpt lat="48.26137" lon="-3.40478">
        <ele>190.39999389648</ele>
        <time>2020-10-18T11:04:26.000Z</time>
      </trkpt>
      <trkpt lat="48.26133" lon="-3.40472">
        <ele>190.80000305176</ele>
        <time>2020-10-18T11:04:27.000Z</time>
      </trkpt>
      <trkpt lat="48.26133" lon="-3.40472">
        <ele>190.80000305176</ele>
        <time>2020-10-18T11:04:28.000Z</time>
      </trkpt>
      <trkpt lat="48.2613" lon="-3.40466">
        <ele>191.19999694824</ele>
        <time>2020-10-18T11:04:29.000Z</time>
      </trkpt>
      <trkpt lat="48.2613" lon="-3.40466">
        <ele>191.19999694824</ele>
        <time>2020-10-18T11:04:30.000Z</time>
      </trkpt>
      <trkpt lat="48.26127" lon="-3.4046">
        <ele>191.60000610352</ele>
        <time>2020-10-18T11:04:31.000Z</time>
      </trkpt>
      <trkpt lat="48.26127" lon="-3.4046">
        <ele>191.60000610352</ele>
        <time>2020-10-18T11:04:32.000Z</time>
      </trkpt>
      <trkpt lat="48.26123" lon="-3.40454">
        <ele>191.80000305176</ele>
        <time>2020-10-18T11:04:33.000Z</time>
      </trkpt>
      <trkpt lat="48.26123" lon="-3.40454">
        <ele>191.80000305176</ele>
        <time>2020-10-18T11:04:34.000Z</time>
      </trkpt>
      <trkpt lat="48.26121" lon="-3.40451">
        <ele>192</ele>
        <time>2020-10-18T11:04:35.000Z</time>
      </trkpt>
      <trkpt lat="48.26118" lon="-3.40445">
        <ele>192.39999389648</ele>
        <time>2020-10-18T11:04:36.000Z</time>
      </trkpt>
      <trkpt lat="48.26118" lon="-3.40445">
        <ele>192.39999389648</ele>
        <time>2020-10-18T11:04:37.000Z</time>
      </trkpt>
      <trkpt lat="48.26116" lon="-3.40442">
        <ele>192.60000610352</ele>
        <time>2020-10-18T11:04:38.000Z</time>
      </trkpt>
      <trkpt lat="48.26112" lon="-3.40436">
        <ele>193</ele>
        <time>2020-10-18T11:04:39.000Z</time>
      </trkpt>
      <trkpt lat="48.26112" lon="-3.40436">
        <ele>193</ele>
        <time>2020-10-18T11:04:40.000Z</time>
      </trkpt>
      <trkpt lat="48.26111" lon="-3.40434">
        <ele>193.19999694824</ele>
        <time>2020-10-18T11:04:41.000Z</time>
      </trkpt>
      <trkpt lat="48.26108" lon="-3.40429">
        <ele>193.60000610352</ele>
        <time>2020-10-18T11:04:42.000Z</time>
      </trkpt>
      <trkpt lat="48.26108" lon="-3.40429">
        <ele>193.60000610352</ele>
        <time>2020-10-18T11:04:43.000Z</time>
      </trkpt>
      <trkpt lat="48.26106" lon="-3.40426">
        <ele>193.80000305176</ele>
        <time>2020-10-18T11:04:44.000Z</time>
      </trkpt>
      <trkpt lat="48.26103" lon="-3.4042">
        <ele>194.19999694824</ele>
        <time>2020-10-18T11:04:45.000Z</time>
      </trkpt>
      <trkpt lat="48.26103" lon="-3.4042">
        <ele>194.19999694824</ele>
        <time>2020-10-18T11:04:46.000Z</time>
      </trkpt>
      <trkpt lat="48.26102" lon="-3.40417">
        <ele>194.39999389648</ele>
        <time>2020-10-18T11:04:47.000Z</time>
      </trkpt>
      <trkpt lat="48.26099" lon="-3.40412">
        <ele>194.60000610352</ele>
        <time>2020-10-18T11:04:48.000Z</time>
      </trkpt>
      <trkpt lat="48.26099" lon="-3.40412">
        <ele>194.60000610352</ele>
        <time>2020-10-18T11:04:49.000Z</time>
      </trkpt>
      <trkpt lat="48.26098" lon="-3.40409">
        <ele>194.80000305176</ele>
        <time>2020-10-18T11:04:50.000Z</time>
      </trkpt>
      <trkpt lat="48.26095" lon="-3.40403">
        <ele>195</ele>
        <time>2020-10-18T11:04:51.000Z</time>
      </trkpt>
      <trkpt lat="48.26095" lon="-3.40403">
        <ele>195</ele>
        <time>2020-10-18T11:04:52.000Z</time>
      </trkpt>
      <trkpt lat="48.26093" lon="-3.404">
        <ele>195</ele>
        <time>2020-10-18T11:04:53.000Z</time>
      </trkpt>
      <trkpt lat="48.26091" lon="-3.40395">
        <ele>195.19999694824</ele>
        <time>2020-10-18T11:04:54.000Z</time>
      </trkpt>
      <trkpt lat="48.26091" lon="-3.40395">
        <ele>195.19999694824</ele>
        <time>2020-10-18T11:04:55.000Z</time>
      </trkpt>
      <trkpt lat="48.2609" lon="-3.40392">
        <ele>195.19999694824</ele>
        <time>2020-10-18T11:04:56.000Z</time>
      </trkpt>
      <trkpt lat="48.26087" lon="-3.40386">
        <ele>195.39999389648</ele>
        <time>2020-10-18T11:04:57.000Z</time>
      </trkpt>
      <trkpt lat="48.26087" lon="-3.40386">
        <ele>195.39999389648</ele>
        <time>2020-10-18T11:04:58.000Z</time>
      </trkpt>
      <trkpt lat="48.26086" lon="-3.40382">
        <ele>195.60000610352</ele>
        <time>2020-10-18T11:04:59.000Z</time>
      </trkpt>
      <trkpt lat="48.26083" lon="-3.40375">
        <ele>195.80000305176</ele>
        <time>2020-10-18T11:05:00.000Z</time>
      </trkpt>
      <trkpt lat="48.26083" lon="-3.40375">
        <ele>195.80000305176</ele>
        <time>2020-10-18T11:05:01.000Z</time>
      </trkpt>
      <trkpt lat="48.26082" lon="-3.40372">
        <ele>195.80000305176</ele>
        <time>2020-10-18T11:05:02.000Z</time>
      </trkpt>
      <trkpt lat="48.26079" lon="-3.40365">
        <ele>196</ele>
        <time>2020-10-18T11:05:03.000Z</time>
      </trkpt>
      <trkpt lat="48.26079" lon="-3.40365">
        <ele>196</ele>
        <time>2020-10-18T11:05:04.000Z</time>
      </trkpt>
      <trkpt lat="48.26077" lon="-3.40358">
        <ele>196.19999694824</ele>
        <time>2020-10-18T11:05:05.000Z</time>
      </trkpt>
      <trkpt lat="48.26076" lon="-3.40354">
        <ele>196.39999389648</ele>
        <time>2020-10-18T11:05:06.000Z</time>
      </trkpt>
      <trkpt lat="48.26076" lon="-3.40354">
        <ele>196.39999389648</ele>
        <time>2020-10-18T11:05:07.000Z</time>
      </trkpt>
      <trkpt lat="48.26073" lon="-3.40346">
        <ele>196.60000610352</ele>
        <time>2020-10-18T11:05:08.000Z</time>
      </trkpt>
      <trkpt lat="48.26073" lon="-3.40346">
        <ele>196.60000610352</ele>
        <time>2020-10-18T11:05:09.000Z</time>
      </trkpt>
      <trkpt lat="48.26072" lon="-3.40342">
        <ele>196.80000305176</ele>
        <time>2020-10-18T11:05:10.000Z</time>
      </trkpt>
      <trkpt lat="48.2607" lon="-3.40334">
        <ele>197</ele>
        <time>2020-10-18T11:05:11.000Z</time>
      </trkpt>
      <trkpt lat="48.2607" lon="-3.40334">
        <ele>197</ele>
        <time>2020-10-18T11:05:12.000Z</time>
      </trkpt>
      <trkpt lat="48.26069" lon="-3.40327">
        <ele>197.39999389648</ele>
        <time>2020-10-18T11:05:13.000Z</time>
      </trkpt>
      <trkpt lat="48.26069" lon="-3.40327">
        <ele>197.39999389648</ele>
        <time>2020-10-18T11:05:14.000Z</time>
      </trkpt>
      <trkpt lat="48.26068" lon="-3.40319">
        <ele>197.80000305176</ele>
        <time>2020-10-18T11:05:15.000Z</time>
      </trkpt>
      <trkpt lat="48.26068" lon="-3.40319">
        <ele>197.80000305176</ele>
        <time>2020-10-18T11:05:16.000Z</time>
      </trkpt>
      <trkpt lat="48.26068" lon="-3.40315">
        <ele>198</ele>
        <time>2020-10-18T11:05:17.000Z</time>
      </trkpt>
      <trkpt lat="48.26067" lon="-3.40307">
        <ele>198.19999694824</ele>
        <time>2020-10-18T11:05:18.000Z</time>
      </trkpt>
      <trkpt lat="48.26067" lon="-3.40307">
        <ele>198.19999694824</ele>
        <time>2020-10-18T11:05:19.000Z</time>
      </trkpt>
      <trkpt lat="48.26066" lon="-3.40303">
        <ele>198.39999389648</ele>
        <time>2020-10-18T11:05:20.000Z</time>
      </trkpt>
      <trkpt lat="48.26065" lon="-3.40295">
        <ele>198.80000305176</ele>
        <time>2020-10-18T11:05:21.000Z</time>
      </trkpt>
      <trkpt lat="48.26065" lon="-3.40295">
        <ele>198.80000305176</ele>
        <time>2020-10-18T11:05:22.000Z</time>
      </trkpt>
      <trkpt lat="48.26064" lon="-3.40287">
        <ele>199.19999694824</ele>
        <time>2020-10-18T11:05:23.000Z</time>
      </trkpt>
      <trkpt lat="48.26064" lon="-3.40287">
        <ele>199.19999694824</ele>
        <time>2020-10-18T11:05:24.000Z</time>
      </trkpt>
      <trkpt lat="48.26064" lon="-3.40279">
        <ele>199.80000305176</ele>
        <time>2020-10-18T11:05:25.000Z</time>
      </trkpt>
      <trkpt lat="48.26064" lon="-3.40274">
        <ele>200</ele>
        <time>2020-10-18T11:05:26.000Z</time>
      </trkpt>
      <trkpt lat="48.26064" lon="-3.40274">
        <ele>200</ele>
        <time>2020-10-18T11:05:27.000Z</time>
      </trkpt>
      <trkpt lat="48.26063" lon="-3.40265">
        <ele>200.60000610352</ele>
        <time>2020-10-18T11:05:28.000Z</time>
      </trkpt>
      <trkpt lat="48.26063" lon="-3.40265">
        <ele>200.60000610352</ele>
        <time>2020-10-18T11:05:29.000Z</time>
      </trkpt>
      <trkpt lat="48.26062" lon="-3.40257">
        <ele>201</ele>
        <time>2020-10-18T11:05:30.000Z</time>
      </trkpt>
      <trkpt lat="48.26062" lon="-3.40257">
        <ele>201</ele>
        <time>2020-10-18T11:05:31.000Z</time>
      </trkpt>
      <trkpt lat="48.26062" lon="-3.40248">
        <ele>201.39999389648</ele>
        <time>2020-10-18T11:05:32.000Z</time>
      </trkpt>
      <trkpt lat="48.26062" lon="-3.40248">
        <ele>201.39999389648</ele>
        <time>2020-10-18T11:05:33.000Z</time>
      </trkpt>
      <trkpt lat="48.26061" lon="-3.4024">
        <ele>201.80000305176</ele>
        <time>2020-10-18T11:05:34.000Z</time>
      </trkpt>
      <trkpt lat="48.26061" lon="-3.4024">
        <ele>201.80000305176</ele>
        <time>2020-10-18T11:05:35.000Z</time>
      </trkpt>
      <trkpt lat="48.26061" lon="-3.40236">
        <ele>202</ele>
        <time>2020-10-18T11:05:36.000Z</time>
      </trkpt>
      <trkpt lat="48.2606" lon="-3.40227">
        <ele>202.39999389648</ele>
        <time>2020-10-18T11:05:37.000Z</time>
      </trkpt>
      <trkpt lat="48.2606" lon="-3.40227">
        <ele>202.39999389648</ele>
        <time>2020-10-18T11:05:38.000Z</time>
      </trkpt>
      <trkpt lat="48.2606" lon="-3.40219">
        <ele>202.80000305176</ele>
        <time>2020-10-18T11:05:39.000Z</time>
      </trkpt>
      <trkpt lat="48.2606" lon="-3.40219">
        <ele>202.80000305176</ele>
        <time>2020-10-18T11:05:40.000Z</time>
      </trkpt>
      <trkpt lat="48.26059" lon="-3.4021">
        <ele>203.19999694824</ele>
        <time>2020-10-18T11:05:41.000Z</time>
      </trkpt>
      <trkpt lat="48.26059" lon="-3.4021">
        <ele>203.19999694824</ele>
        <time>2020-10-18T11:05:42.000Z</time>
      </trkpt>
      <trkpt lat="48.26059" lon="-3.40202">
        <ele>203.60000610352</ele>
        <time>2020-10-18T11:05:43.000Z</time>
      </trkpt>
      <trkpt lat="48.26059" lon="-3.40202">
        <ele>203.60000610352</ele>
        <time>2020-10-18T11:05:44.000Z</time>
      </trkpt>
      <trkpt lat="48.26058" lon="-3.40194">
        <ele>204</ele>
        <time>2020-10-18T11:05:45.000Z</time>
      </trkpt>
      <trkpt lat="48.26058" lon="-3.4019">
        <ele>204.19999694824</ele>
        <time>2020-10-18T11:05:46.000Z</time>
      </trkpt>
      <trkpt lat="48.26057" lon="-3.40185">
        <ele>204.39999389648</ele>
        <time>2020-10-18T11:05:47.000Z</time>
      </trkpt>
      <trkpt lat="48.26057" lon="-3.40181">
        <ele>204.60000610352</ele>
        <time>2020-10-18T11:05:48.000Z</time>
      </trkpt>
      <trkpt lat="48.26057" lon="-3.40181">
        <ele>204.60000610352</ele>
        <time>2020-10-18T11:05:49.000Z</time>
      </trkpt>
      <trkpt lat="48.26056" lon="-3.40176">
        <ele>204.60000610352</ele>
        <time>2020-10-18T11:05:50.000Z</time>
      </trkpt>
      <trkpt lat="48.26055" lon="-3.40167">
        <ele>204.80000305176</ele>
        <time>2020-10-18T11:05:51.000Z</time>
      </trkpt>
      <trkpt lat="48.26055" lon="-3.40167">
        <ele>204.80000305176</ele>
        <time>2020-10-18T11:05:52.000Z</time>
      </trkpt>
      <trkpt lat="48.26054" lon="-3.40158">
        <ele>205</ele>
        <time>2020-10-18T11:05:53.000Z</time>
      </trkpt>
      <trkpt lat="48.26054" lon="-3.40158">
        <ele>205</ele>
        <time>2020-10-18T11:05:54.000Z</time>
      </trkpt>
      <trkpt lat="48.26052" lon="-3.40148">
        <ele>205.19999694824</ele>
        <time>2020-10-18T11:05:55.000Z</time>
      </trkpt>
      <trkpt lat="48.26052" lon="-3.40148">
        <ele>205.19999694824</ele>
        <time>2020-10-18T11:05:56.000Z</time>
      </trkpt>
      <trkpt lat="48.26052" lon="-3.40143">
        <ele>205.39999389648</ele>
        <time>2020-10-18T11:05:57.000Z</time>
      </trkpt>
      <trkpt lat="48.2605" lon="-3.40134">
        <ele>205.60000610352</ele>
        <time>2020-10-18T11:05:58.000Z</time>
      </trkpt>
      <trkpt lat="48.2605" lon="-3.40134">
        <ele>205.60000610352</ele>
        <time>2020-10-18T11:05:59.000Z</time>
      </trkpt>
      <trkpt lat="48.2605" lon="-3.4013">
        <ele>205.60000610352</ele>
        <time>2020-10-18T11:06:00.000Z</time>
      </trkpt>
      <trkpt lat="48.26049" lon="-3.40121">
        <ele>205.80000305176</ele>
        <time>2020-10-18T11:06:01.000Z</time>
      </trkpt>
      <trkpt lat="48.26049" lon="-3.40121">
        <ele>205.80000305176</ele>
        <time>2020-10-18T11:06:02.000Z</time>
      </trkpt>
      <trkpt lat="48.26048" lon="-3.40117">
        <ele>206</ele>
        <time>2020-10-18T11:06:03.000Z</time>
      </trkpt>
      <trkpt lat="48.26048" lon="-3.40108">
        <ele>206.19999694824</ele>
        <time>2020-10-18T11:06:04.000Z</time>
      </trkpt>
      <trkpt lat="48.26048" lon="-3.40104">
        <ele>206.19999694824</ele>
        <time>2020-10-18T11:06:05.000Z</time>
      </trkpt>
      <trkpt lat="48.26048" lon="-3.40104">
        <ele>206.19999694824</ele>
        <time>2020-10-18T11:06:06.000Z</time>
      </trkpt>
      <trkpt lat="48.26048" lon="-3.40095">
        <ele>206.39999389648</ele>
        <time>2020-10-18T11:06:07.000Z</time>
      </trkpt>
      <trkpt lat="48.26048" lon="-3.40095">
        <ele>206.39999389648</ele>
        <time>2020-10-18T11:06:08.000Z</time>
      </trkpt>
      <trkpt lat="48.26048" lon="-3.40087">
        <ele>206.60000610352</ele>
        <time>2020-10-18T11:06:09.000Z</time>
      </trkpt>
      <trkpt lat="48.26048" lon="-3.40087">
        <ele>206.60000610352</ele>
        <time>2020-10-18T11:06:10.000Z</time>
      </trkpt>
      <trkpt lat="48.26047" lon="-3.40082">
        <ele>206.80000305176</ele>
        <time>2020-10-18T11:06:11.000Z</time>
      </trkpt>
      <trkpt lat="48.26047" lon="-3.40073">
        <ele>207</ele>
        <time>2020-10-18T11:06:12.000Z</time>
      </trkpt>
      <trkpt lat="48.26047" lon="-3.40073">
        <ele>207</ele>
        <time>2020-10-18T11:06:13.000Z</time>
      </trkpt>
      <trkpt lat="48.26046" lon="-3.40065">
        <ele>207.19999694824</ele>
        <time>2020-10-18T11:06:14.000Z</time>
      </trkpt>
      <trkpt lat="48.26046" lon="-3.40065">
        <ele>207.19999694824</ele>
        <time>2020-10-18T11:06:15.000Z</time>
      </trkpt>
      <trkpt lat="48.26046" lon="-3.4006">
        <ele>207.39999389648</ele>
        <time>2020-10-18T11:06:16.000Z</time>
      </trkpt>
      <trkpt lat="48.26045" lon="-3.40051">
        <ele>207.60000610352</ele>
        <time>2020-10-18T11:06:17.000Z</time>
      </trkpt>
      <trkpt lat="48.26045" lon="-3.40051">
        <ele>207.60000610352</ele>
        <time>2020-10-18T11:06:18.000Z</time>
      </trkpt>
      <trkpt lat="48.26045" lon="-3.40046">
        <ele>207.60000610352</ele>
        <time>2020-10-18T11:06:19.000Z</time>
      </trkpt>
      <trkpt lat="48.26043" lon="-3.40037">
        <ele>207.80000305176</ele>
        <time>2020-10-18T11:06:20.000Z</time>
      </trkpt>
      <trkpt lat="48.26043" lon="-3.40037">
        <ele>207.80000305176</ele>
        <time>2020-10-18T11:06:21.000Z</time>
      </trkpt>
      <trkpt lat="48.26042" lon="-3.40029">
        <ele>208</ele>
        <time>2020-10-18T11:06:22.000Z</time>
      </trkpt>
      <trkpt lat="48.26042" lon="-3.40029">
        <ele>208</ele>
        <time>2020-10-18T11:06:23.000Z</time>
      </trkpt>
      <trkpt lat="48.26042" lon="-3.40021">
        <ele>208.19999694824</ele>
        <time>2020-10-18T11:06:24.000Z</time>
      </trkpt>
      <trkpt lat="48.26042" lon="-3.40016">
        <ele>208.39999389648</ele>
        <time>2020-10-18T11:06:25.000Z</time>
      </trkpt>
      <trkpt lat="48.26042" lon="-3.40016">
        <ele>208.39999389648</ele>
        <time>2020-10-18T11:06:26.000Z</time>
      </trkpt>
      <trkpt lat="48.26042" lon="-3.40011">
        <ele>208.39999389648</ele>
        <time>2020-10-18T11:06:27.000Z</time>
      </trkpt>
      <trkpt lat="48.26043" lon="-3.40003">
        <ele>208.60000610352</ele>
        <time>2020-10-18T11:06:28.000Z</time>
      </trkpt>
      <trkpt lat="48.26043" lon="-3.40003">
        <ele>208.60000610352</ele>
        <time>2020-10-18T11:06:29.000Z</time>
      </trkpt>
      <trkpt lat="48.26043" lon="-3.39994">
        <ele>208.60000610352</ele>
        <time>2020-10-18T11:06:30.000Z</time>
      </trkpt>
      <trkpt lat="48.26043" lon="-3.39994">
        <ele>208.60000610352</ele>
        <time>2020-10-18T11:06:31.000Z</time>
      </trkpt>
      <trkpt lat="48.26043" lon="-3.39985">
        <ele>208.80000305176</ele>
        <time>2020-10-18T11:06:32.000Z</time>
      </trkpt>
      <trkpt lat="48.26043" lon="-3.39985">
        <ele>208.80000305176</ele>
        <time>2020-10-18T11:06:33.000Z</time>
      </trkpt>
      <trkpt lat="48.26042" lon="-3.3998">
        <ele>208.80000305176</ele>
        <time>2020-10-18T11:06:34.000Z</time>
      </trkpt>
      <trkpt lat="48.26041" lon="-3.39971">
        <ele>208.80000305176</ele>
        <time>2020-10-18T11:06:35.000Z</time>
      </trkpt>
      <trkpt lat="48.26041" lon="-3.39971">
        <ele>208.80000305176</ele>
        <time>2020-10-18T11:06:36.000Z</time>
      </trkpt>
      <trkpt lat="48.2604" lon="-3.39967">
        <ele>209</ele>
        <time>2020-10-18T11:06:37.000Z</time>
      </trkpt>
      <trkpt lat="48.26038" lon="-3.39957">
        <ele>209</ele>
        <time>2020-10-18T11:06:38.000Z</time>
      </trkpt>
      <trkpt lat="48.26038" lon="-3.39957">
        <ele>209</ele>
        <time>2020-10-18T11:06:39.000Z</time>
      </trkpt>
      <trkpt lat="48.26036" lon="-3.39948">
        <ele>209</ele>
        <time>2020-10-18T11:06:40.000Z</time>
      </trkpt>
      <trkpt lat="48.26036" lon="-3.39948">
        <ele>209</ele>
        <time>2020-10-18T11:06:41.000Z</time>
      </trkpt>
      <trkpt lat="48.26034" lon="-3.39943">
        <ele>209.19999694824</ele>
        <time>2020-10-18T11:06:42.000Z</time>
      </trkpt>
      <trkpt lat="48.26031" lon="-3.39933">
        <ele>209.19999694824</ele>
        <time>2020-10-18T11:06:43.000Z</time>
      </trkpt>
      <trkpt lat="48.26031" lon="-3.39933">
        <ele>209.19999694824</ele>
        <time>2020-10-18T11:06:44.000Z</time>
      </trkpt>
      <trkpt lat="48.2603" lon="-3.39928">
        <ele>209.19999694824</ele>
        <time>2020-10-18T11:06:45.000Z</time>
      </trkpt>
      <trkpt lat="48.26028" lon="-3.39916">
        <ele>209.39999389648</ele>
        <time>2020-10-18T11:06:46.000Z</time>
      </trkpt>
      <trkpt lat="48.26028" lon="-3.39916">
        <ele>209.39999389648</ele>
        <time>2020-10-18T11:06:47.000Z</time>
      </trkpt>
      <trkpt lat="48.26025" lon="-3.39904">
        <ele>209.60000610352</ele>
        <time>2020-10-18T11:06:48.000Z</time>
      </trkpt>
      <trkpt lat="48.26025" lon="-3.39904">
        <ele>209.60000610352</ele>
        <time>2020-10-18T11:06:49.000Z</time>
      </trkpt>
      <trkpt lat="48.26024" lon="-3.39898">
        <ele>209.80000305176</ele>
        <time>2020-10-18T11:06:50.000Z</time>
      </trkpt>
      <trkpt lat="48.26022" lon="-3.39886">
        <ele>210</ele>
        <time>2020-10-18T11:06:51.000Z</time>
      </trkpt>
      <trkpt lat="48.26022" lon="-3.39886">
        <ele>210</ele>
        <time>2020-10-18T11:06:52.000Z</time>
      </trkpt>
      <trkpt lat="48.26021" lon="-3.3988">
        <ele>210.19999694824</ele>
        <time>2020-10-18T11:06:53.000Z</time>
      </trkpt>
      <trkpt lat="48.2602" lon="-3.39867">
        <ele>210.60000610352</ele>
        <time>2020-10-18T11:06:54.000Z</time>
      </trkpt>
      <trkpt lat="48.2602" lon="-3.39867">
        <ele>210.60000610352</ele>
        <time>2020-10-18T11:06:55.000Z</time>
      </trkpt>
      <trkpt lat="48.2602" lon="-3.3986">
        <ele>210.80000305176</ele>
        <time>2020-10-18T11:06:56.000Z</time>
      </trkpt>
      <trkpt lat="48.2602" lon="-3.39846">
        <ele>211</ele>
        <time>2020-10-18T11:06:57.000Z</time>
      </trkpt>
      <trkpt lat="48.2602" lon="-3.39846">
        <ele>211</ele>
        <time>2020-10-18T11:06:58.000Z</time>
      </trkpt>
      <trkpt lat="48.26021" lon="-3.39832">
        <ele>211.19999694824</ele>
        <time>2020-10-18T11:06:59.000Z</time>
      </trkpt>
      <trkpt lat="48.26021" lon="-3.39832">
        <ele>211.19999694824</ele>
        <time>2020-10-18T11:07:00.000Z</time>
      </trkpt>
      <trkpt lat="48.26022" lon="-3.39825">
        <ele>211.19999694824</ele>
        <time>2020-10-18T11:07:01.000Z</time>
      </trkpt>
      <trkpt lat="48.26024" lon="-3.39811">
        <ele>211.19999694824</ele>
        <time>2020-10-18T11:07:02.000Z</time>
      </trkpt>
      <trkpt lat="48.26024" lon="-3.39811">
        <ele>211.19999694824</ele>
        <time>2020-10-18T11:07:03.000Z</time>
      </trkpt>
      <trkpt lat="48.26024" lon="-3.39804">
        <ele>211.19999694824</ele>
        <time>2020-10-18T11:07:04.000Z</time>
      </trkpt>
      <trkpt lat="48.26024" lon="-3.39789">
        <ele>211.19999694824</ele>
        <time>2020-10-18T11:07:05.000Z</time>
      </trkpt>
      <trkpt lat="48.26024" lon="-3.39789">
        <ele>211.19999694824</ele>
        <time>2020-10-18T11:07:06.000Z</time>
      </trkpt>
      <trkpt lat="48.26024" lon="-3.39782">
        <ele>211.19999694824</ele>
        <time>2020-10-18T11:07:07.000Z</time>
      </trkpt>
      <trkpt lat="48.26021" lon="-3.39769">
        <ele>211.19999694824</ele>
        <time>2020-10-18T11:07:08.000Z</time>
      </trkpt>
      <trkpt lat="48.26021" lon="-3.39769">
        <ele>211.19999694824</ele>
        <time>2020-10-18T11:07:09.000Z</time>
      </trkpt>
      <trkpt lat="48.26019" lon="-3.39762">
        <ele>211</ele>
        <time>2020-10-18T11:07:10.000Z</time>
      </trkpt>
      <trkpt lat="48.26013" lon="-3.39751">
        <ele>210.60000610352</ele>
        <time>2020-10-18T11:07:11.000Z</time>
      </trkpt>
      <trkpt lat="48.26013" lon="-3.39751">
        <ele>210.60000610352</ele>
        <time>2020-10-18T11:07:12.000Z</time>
      </trkpt>
      <trkpt lat="48.26009" lon="-3.39747">
        <ele>210.60000610352</ele>
        <time>2020-10-18T11:07:13.000Z</time>
      </trkpt>
      <trkpt lat="48.26001" lon="-3.39739">
        <ele>210.80000305176</ele>
        <time>2020-10-18T11:07:14.000Z</time>
      </trkpt>
      <trkpt lat="48.26001" lon="-3.39739">
        <ele>210.80000305176</ele>
        <time>2020-10-18T11:07:15.000Z</time>
      </trkpt>
      <trkpt lat="48.25997" lon="-3.39735">
        <ele>210.80000305176</ele>
        <time>2020-10-18T11:07:16.000Z</time>
      </trkpt>
      <trkpt lat="48.25988" lon="-3.39725">
        <ele>211</ele>
        <time>2020-10-18T11:07:17.000Z</time>
      </trkpt>
      <trkpt lat="48.25988" lon="-3.39725">
        <ele>211</ele>
        <time>2020-10-18T11:07:18.000Z</time>
      </trkpt>
      <trkpt lat="48.25985" lon="-3.3972">
        <ele>211</ele>
        <time>2020-10-18T11:07:19.000Z</time>
      </trkpt>
      <trkpt lat="48.25979" lon="-3.39708">
        <ele>211</ele>
        <time>2020-10-18T11:07:20.000Z</time>
      </trkpt>
      <trkpt lat="48.25979" lon="-3.39708">
        <ele>211</ele>
        <time>2020-10-18T11:07:21.000Z</time>
      </trkpt>
      <trkpt lat="48.25976" lon="-3.39701">
        <ele>211</ele>
        <time>2020-10-18T11:07:22.000Z</time>
      </trkpt>
      <trkpt lat="48.25972" lon="-3.39687">
        <ele>211</ele>
        <time>2020-10-18T11:07:23.000Z</time>
      </trkpt>
      <trkpt lat="48.25971" lon="-3.39681">
        <ele>211</ele>
        <time>2020-10-18T11:07:24.000Z</time>
      </trkpt>
      <trkpt lat="48.25971" lon="-3.39681">
        <ele>211</ele>
        <time>2020-10-18T11:07:25.000Z</time>
      </trkpt>
      <trkpt lat="48.2597" lon="-3.39674">
        <ele>210.60000610352</ele>
        <time>2020-10-18T11:07:26.000Z</time>
      </trkpt>
      <trkpt lat="48.25969" lon="-3.39663">
        <ele>210</ele>
        <time>2020-10-18T11:07:27.000Z</time>
      </trkpt>
      <trkpt lat="48.25969" lon="-3.39663">
        <ele>210</ele>
        <time>2020-10-18T11:07:28.000Z</time>
      </trkpt>
      <trkpt lat="48.25969" lon="-3.39659">
        <ele>209.80000305176</ele>
        <time>2020-10-18T11:07:29.000Z</time>
      </trkpt>
      <trkpt lat="48.25971" lon="-3.39654">
        <ele>209.39999389648</ele>
        <time>2020-10-18T11:07:30.000Z</time>
      </trkpt>
      <trkpt lat="48.25971" lon="-3.39654">
        <ele>209.39999389648</ele>
        <time>2020-10-18T11:07:31.000Z</time>
      </trkpt>
      <trkpt lat="48.25972" lon="-3.39652">
        <ele>209.19999694824</ele>
        <time>2020-10-18T11:07:32.000Z</time>
      </trkpt>
      <trkpt lat="48.25973" lon="-3.39652">
        <ele>209.19999694824</ele>
        <time>2020-10-18T11:07:33.000Z</time>
      </trkpt>
      <trkpt lat="48.25973" lon="-3.39652">
        <ele>209.19999694824</ele>
        <time>2020-10-18T11:07:34.000Z</time>
      </trkpt>
      <trkpt lat="48.25973" lon="-3.39652">
        <ele>209.19999694824</ele>
        <time>2020-10-18T11:07:35.000Z</time>
      </trkpt>
      <trkpt lat="48.25973" lon="-3.39653">
        <ele>209.19999694824</ele>
        <time>2020-10-18T11:07:36.000Z</time>
      </trkpt>
      <trkpt lat="48.25973" lon="-3.39653">
        <ele>209.19999694824</ele>
        <time>2020-10-18T11:07:37.000Z</time>
      </trkpt>
      <trkpt lat="48.25973" lon="-3.39653">
        <ele>209.19999694824</ele>
        <time>2020-10-18T11:07:38.000Z</time>
      </trkpt>
      <trkpt lat="48.25973" lon="-3.39653">
        <ele>209.19999694824</ele>
        <time>2020-10-18T11:07:39.000Z</time>
      </trkpt>
      <trkpt lat="48.25973" lon="-3.39653">
        <ele>209.19999694824</ele>
        <time>2020-10-18T11:07:40.000Z</time>
      </trkpt>
      <trkpt lat="48.25973" lon="-3.39653">
        <ele>209.19999694824</ele>
        <time>2020-10-18T11:07:41.000Z</time>
      </trkpt>
      <trkpt lat="48.25973" lon="-3.39653">
        <ele>209.19999694824</ele>
        <time>2020-10-18T11:07:42.000Z</time>
      </trkpt>
      <trkpt lat="48.25973" lon="-3.39653">
        <ele>209.19999694824</ele>
        <time>2020-10-18T11:07:43.000Z</time>
      </trkpt>
      <trkpt lat="48.25973" lon="-3.39653">
        <ele>209.19999694824</ele>
        <time>2020-10-18T11:07:44.000Z</time>
      </trkpt>
      <trkpt lat="48.25973" lon="-3.39653">
        <ele>209.19999694824</ele>
        <time>2020-10-18T11:07:45.000Z</time>
      </trkpt>
      <trkpt lat="48.25973" lon="-3.39653">
        <ele>209.19999694824</ele>
        <time>2020-10-18T11:07:46.000Z</time>
      </trkpt>
      <trkpt lat="48.25973" lon="-3.39653">
        <ele>209.19999694824</ele>
        <time>2020-10-18T11:07:47.000Z</time>
      </trkpt>
      <trkpt lat="48.25973" lon="-3.39653">
        <ele>209.19999694824</ele>
        <time>2020-10-18T11:07:48.000Z</time>
      </trkpt>
      <trkpt lat="48.25973" lon="-3.39653">
        <ele>209.19999694824</ele>
        <time>2020-10-18T11:07:49.000Z</time>
      </trkpt>
      <trkpt lat="48.25973" lon="-3.39653">
        <ele>209.19999694824</ele>
        <time>2020-10-18T11:07:50.000Z</time>
      </trkpt>
      <trkpt lat="48.25973" lon="-3.39653">
        <ele>209.19999694824</ele>
        <time>2020-10-18T11:07:51.000Z</time>
      </trkpt>
      <trkpt lat="48.25973" lon="-3.39653">
        <ele>209.19999694824</ele>
        <time>2020-10-18T11:07:52.000Z</time>
      </trkpt>
      <trkpt lat="48.25973" lon="-3.39653">
        <ele>209.19999694824</ele>
        <time>2020-10-18T11:07:53.000Z</time>
      </trkpt>
      <trkpt lat="48.25973" lon="-3.39653">
        <ele>209.19999694824</ele>
        <time>2020-10-18T11:07:54.000Z</time>
      </trkpt>
      <trkpt lat="48.25973" lon="-3.39653">
        <ele>209.19999694824</ele>
        <time>2020-10-18T11:07:55.000Z</time>
      </trkpt>
      <trkpt lat="48.25973" lon="-3.39653">
        <ele>209.19999694824</ele>
        <time>2020-10-18T11:07:56.000Z</time>
      </trkpt>
      <trkpt lat="48.25973" lon="-3.39653">
        <ele>209.19999694824</ele>
        <time>2020-10-18T11:07:57.000Z</time>
      </trkpt>
      <trkpt lat="48.25973" lon="-3.39653">
        <ele>209.19999694824</ele>
        <time>2020-10-18T11:07:58.000Z</time>
      </trkpt>
      <trkpt lat="48.25973" lon="-3.39653">
        <ele>209.19999694824</ele>
        <time>2020-10-18T11:07:59.000Z</time>
      </trkpt>
      <trkpt lat="48.25973" lon="-3.39653">
        <ele>209.19999694824</ele>
        <time>2020-10-18T11:08:00.000Z</time>
      </trkpt>
      <trkpt lat="48.25973" lon="-3.39653">
        <ele>209.19999694824</ele>
        <time>2020-10-18T11:08:01.000Z</time>
      </trkpt>
      <trkpt lat="48.25973" lon="-3.39653">
        <ele>209.19999694824</ele>
        <time>2020-10-18T11:08:02.000Z</time>
      </trkpt>
      <trkpt lat="48.25973" lon="-3.39653">
        <ele>209.19999694824</ele>
        <time>2020-10-18T11:08:03.000Z</time>
      </trkpt>
      <trkpt lat="48.25973" lon="-3.39653">
        <ele>209.19999694824</ele>
        <time>2020-10-18T11:08:04.000Z</time>
      </trkpt>
      <trkpt lat="48.25973" lon="-3.39653">
        <ele>209.19999694824</ele>
        <time>2020-10-18T11:08:05.000Z</time>
      </trkpt>
      <trkpt lat="48.25973" lon="-3.39653">
        <ele>209.19999694824</ele>
        <time>2020-10-18T11:08:06.000Z</time>
      </trkpt>
      <trkpt lat="48.25973" lon="-3.39653">
        <ele>209.19999694824</ele>
        <time>2020-10-18T11:08:07.000Z</time>
      </trkpt>
      <trkpt lat="48.25973" lon="-3.39653">
        <ele>209.19999694824</ele>
        <time>2020-10-18T11:08:08.000Z</time>
      </trkpt>
      <trkpt lat="48.25973" lon="-3.39653">
        <ele>209.19999694824</ele>
        <time>2020-10-18T11:08:09.000Z</time>
      </trkpt>
      <trkpt lat="48.25973" lon="-3.39653">
        <ele>209.19999694824</ele>
        <time>2020-10-18T11:08:10.000Z</time>
      </trkpt>
      <trkpt lat="48.25973" lon="-3.39653">
        <ele>209.19999694824</ele>
        <time>2020-10-18T11:08:11.000Z</time>
      </trkpt>
      <trkpt lat="48.25973" lon="-3.39653">
        <ele>209.19999694824</ele>
        <time>2020-10-18T11:08:12.000Z</time>
      </trkpt>
      <trkpt lat="48.25973" lon="-3.39653">
        <ele>209.19999694824</ele>
        <time>2020-10-18T11:08:13.000Z</time>
      </trkpt>
      <trkpt lat="48.25973" lon="-3.39653">
        <ele>209.19999694824</ele>
        <time>2020-10-18T11:08:14.000Z</time>
      </trkpt>
      <trkpt lat="48.25973" lon="-3.39653">
        <ele>209.19999694824</ele>
        <time>2020-10-18T11:08:15.000Z</time>
      </trkpt>
      <trkpt lat="48.25973" lon="-3.39653">
        <ele>209.19999694824</ele>
        <time>2020-10-18T11:08:16.000Z</time>
      </trkpt>
      <trkpt lat="48.25973" lon="-3.39653">
        <ele>209.19999694824</ele>
        <time>2020-10-18T11:08:17.000Z</time>
      </trkpt>
      <trkpt lat="48.25973" lon="-3.39653">
        <ele>209.19999694824</ele>
        <time>2020-10-18T11:08:18.000Z</time>
      </trkpt>
      <trkpt lat="48.25973" lon="-3.39653">
        <ele>209.19999694824</ele>
        <time>2020-10-18T11:08:19.000Z</time>
      </trkpt>
      <trkpt lat="48.25973" lon="-3.39653">
        <ele>209.19999694824</ele>
        <time>2020-10-18T11:08:20.000Z</time>
      </trkpt>
      <trkpt lat="48.25973" lon="-3.39653">
        <ele>209.19999694824</ele>
        <time>2020-10-18T11:08:21.000Z</time>
      </trkpt>
      <trkpt lat="48.25973" lon="-3.39653">
        <ele>209.19999694824</ele>
        <time>2020-10-18T11:08:22.000Z</time>
      </trkpt>
      <trkpt lat="48.25973" lon="-3.39653">
        <ele>209.19999694824</ele>
        <time>2020-10-18T11:08:23.000Z</time>
      </trkpt>
      <trkpt lat="48.25973" lon="-3.39653">
        <ele>209.19999694824</ele>
        <time>2020-10-18T11:08:24.000Z</time>
      </trkpt>
      <trkpt lat="48.25973" lon="-3.39653">
        <ele>209.19999694824</ele>
        <time>2020-10-18T11:08:25.000Z</time>
      </trkpt>
      <trkpt lat="48.25973" lon="-3.39653">
        <ele>209.19999694824</ele>
        <time>2020-10-18T11:08:26.000Z</time>
      </trkpt>
      <trkpt lat="48.25973" lon="-3.39653">
        <ele>209.19999694824</ele>
        <time>2020-10-18T11:08:27.000Z</time>
      </trkpt>
      <trkpt lat="48.25973" lon="-3.39653">
        <ele>209.19999694824</ele>
        <time>2020-10-18T11:08:28.000Z</time>
      </trkpt>
      <trkpt lat="48.25973" lon="-3.39653">
        <ele>209.19999694824</ele>
        <time>2020-10-18T11:08:29.000Z</time>
      </trkpt>
      <trkpt lat="48.25973" lon="-3.39653">
        <ele>209.19999694824</ele>
        <time>2020-10-18T11:08:30.000Z</time>
      </trkpt>
      <trkpt lat="48.25973" lon="-3.39653">
        <ele>209.19999694824</ele>
        <time>2020-10-18T11:08:31.000Z</time>
      </trkpt>
      <trkpt lat="48.25973" lon="-3.39653">
        <ele>209.19999694824</ele>
        <time>2020-10-18T11:08:32.000Z</time>
      </trkpt>
      <trkpt lat="48.25973" lon="-3.39653">
        <ele>209.19999694824</ele>
        <time>2020-10-18T11:08:33.000Z</time>
      </trkpt>
      <trkpt lat="48.25973" lon="-3.39653">
        <ele>209.19999694824</ele>
        <time>2020-10-18T11:08:34.000Z</time>
      </trkpt>
      <trkpt lat="48.25973" lon="-3.39653">
        <ele>209.19999694824</ele>
        <time>2020-10-18T11:08:35.000Z</time>
      </trkpt>
      <trkpt lat="48.25973" lon="-3.39653">
        <ele>209.19999694824</ele>
        <time>2020-10-18T11:08:36.000Z</time>
      </trkpt>
      <trkpt lat="48.25973" lon="-3.39653">
        <ele>209.19999694824</ele>
        <time>2020-10-18T11:08:37.000Z</time>
      </trkpt>
      <trkpt lat="48.25973" lon="-3.39653">
        <ele>209.19999694824</ele>
        <time>2020-10-18T11:08:38.000Z</time>
      </trkpt>
      <trkpt lat="48.25973" lon="-3.39653">
        <ele>209.19999694824</ele>
        <time>2020-10-18T11:08:39.000Z</time>
      </trkpt>
      <trkpt lat="48.25973" lon="-3.39653">
        <ele>209.19999694824</ele>
        <time>2020-10-18T11:08:40.000Z</time>
      </trkpt>
      <trkpt lat="48.25973" lon="-3.39653">
        <ele>209.19999694824</ele>
        <time>2020-10-18T11:08:41.000Z</time>
      </trkpt>
      <trkpt lat="48.25973" lon="-3.39653">
        <ele>209.19999694824</ele>
        <time>2020-10-18T11:08:42.000Z</time>
      </trkpt>
      <trkpt lat="48.25973" lon="-3.39653">
        <ele>209.19999694824</ele>
        <time>2020-10-18T11:08:43.000Z</time>
      </trkpt>
      <trkpt lat="48.25973" lon="-3.39653">
        <ele>209.19999694824</ele>
        <time>2020-10-18T11:08:44.000Z</time>
      </trkpt>
      <trkpt lat="48.25973" lon="-3.39653">
        <ele>209.19999694824</ele>
        <time>2020-10-18T11:08:45.000Z</time>
      </trkpt>
      <trkpt lat="48.25973" lon="-3.39653">
        <ele>209.19999694824</ele>
        <time>2020-10-18T11:08:46.000Z</time>
      </trkpt>
      <trkpt lat="48.25973" lon="-3.39653">
        <ele>209.19999694824</ele>
        <time>2020-10-18T11:08:47.000Z</time>
      </trkpt>
      <trkpt lat="48.25973" lon="-3.39653">
        <ele>209.19999694824</ele>
        <time>2020-10-18T11:08:48.000Z</time>
      </trkpt>
      <trkpt lat="48.25973" lon="-3.39653">
        <ele>209.19999694824</ele>
        <time>2020-10-18T11:08:49.000Z</time>
      </trkpt>
      <trkpt lat="48.25973" lon="-3.39653">
        <ele>209.19999694824</ele>
        <time>2020-10-18T11:08:50.000Z</time>
      </trkpt>
      <trkpt lat="48.25973" lon="-3.39653">
        <ele>209.19999694824</ele>
        <time>2020-10-18T11:08:51.000Z</time>
      </trkpt>
      <trkpt lat="48.25973" lon="-3.39653">
        <ele>209.19999694824</ele>
        <time>2020-10-18T11:08:52.000Z</time>
      </trkpt>
      <trkpt lat="48.25973" lon="-3.39653">
        <ele>209.19999694824</ele>
        <time>2020-10-18T11:08:53.000Z</time>
      </trkpt>
      <trkpt lat="48.25976" lon="-3.39653">
        <ele>209</ele>
        <time>2020-10-18T11:08:54.000Z</time>
      </trkpt>
      <trkpt lat="48.25976" lon="-3.39653">
        <ele>209</ele>
        <time>2020-10-18T11:08:55.000Z</time>
      </trkpt>
      <trkpt lat="48.25978" lon="-3.39653">
        <ele>209</ele>
        <time>2020-10-18T11:08:56.000Z</time>
      </trkpt>
      <trkpt lat="48.25982" lon="-3.39652">
        <ele>208.80000305176</ele>
        <time>2020-10-18T11:08:57.000Z</time>
      </trkpt>
      <trkpt lat="48.25982" lon="-3.39652">
        <ele>208.80000305176</ele>
        <time>2020-10-18T11:08:58.000Z</time>
      </trkpt>
      <trkpt lat="48.25985" lon="-3.39652">
        <ele>208.60000610352</ele>
        <time>2020-10-18T11:08:59.000Z</time>
      </trkpt>
      <trkpt lat="48.25992" lon="-3.39652">
        <ele>208.19999694824</ele>
        <time>2020-10-18T11:09:00.000Z</time>
      </trkpt>
      <trkpt lat="48.25992" lon="-3.39652">
        <ele>208.19999694824</ele>
        <time>2020-10-18T11:09:01.000Z</time>
      </trkpt>
      <trkpt lat="48.25996" lon="-3.39652">
        <ele>208</ele>
        <time>2020-10-18T11:09:02.000Z</time>
      </trkpt>
      <trkpt lat="48.26004" lon="-3.39652">
        <ele>207.60000610352</ele>
        <time>2020-10-18T11:09:03.000Z</time>
      </trkpt>
      <trkpt lat="48.26004" lon="-3.39652">
        <ele>207.60000610352</ele>
        <time>2020-10-18T11:09:04.000Z</time>
      </trkpt>
      <trkpt lat="48.26008" lon="-3.39652">
        <ele>207.39999389648</ele>
        <time>2020-10-18T11:09:05.000Z</time>
      </trkpt>
      <trkpt lat="48.26015" lon="-3.39652">
        <ele>207.19999694824</ele>
        <time>2020-10-18T11:09:06.000Z</time>
      </trkpt>
      <trkpt lat="48.26015" lon="-3.39652">
        <ele>207.19999694824</ele>
        <time>2020-10-18T11:09:07.000Z</time>
      </trkpt>
      <trkpt lat="48.26019" lon="-3.39652">
        <ele>207.19999694824</ele>
        <time>2020-10-18T11:09:08.000Z</time>
      </trkpt>
      <trkpt lat="48.26026" lon="-3.39652">
        <ele>207</ele>
        <time>2020-10-18T11:09:09.000Z</time>
      </trkpt>
      <trkpt lat="48.26026" lon="-3.39652">
        <ele>207</ele>
        <time>2020-10-18T11:09:10.000Z</time>
      </trkpt>
      <trkpt lat="48.26034" lon="-3.39652">
        <ele>207</ele>
        <time>2020-10-18T11:09:11.000Z</time>
      </trkpt>
      <trkpt lat="48.26034" lon="-3.39652">
        <ele>207</ele>
        <time>2020-10-18T11:09:12.000Z</time>
      </trkpt>
      <trkpt lat="48.26037" lon="-3.39652">
        <ele>207</ele>
        <time>2020-10-18T11:09:13.000Z</time>
      </trkpt>
      <trkpt lat="48.26044" lon="-3.39652">
        <ele>206.80000305176</ele>
        <time>2020-10-18T11:09:14.000Z</time>
      </trkpt>
      <trkpt lat="48.26044" lon="-3.39652">
        <ele>206.80000305176</ele>
        <time>2020-10-18T11:09:15.000Z</time>
      </trkpt>
      <trkpt lat="48.26048" lon="-3.39652">
        <ele>206.80000305176</ele>
        <time>2020-10-18T11:09:16.000Z</time>
      </trkpt>
      <trkpt lat="48.26055" lon="-3.39652">
        <ele>206.80000305176</ele>
        <time>2020-10-18T11:09:17.000Z</time>
      </trkpt>
      <trkpt lat="48.26055" lon="-3.39652">
        <ele>206.80000305176</ele>
        <time>2020-10-18T11:09:18.000Z</time>
      </trkpt>
      <trkpt lat="48.26058" lon="-3.39652">
        <ele>206.80000305176</ele>
        <time>2020-10-18T11:09:19.000Z</time>
      </trkpt>
      <trkpt lat="48.26066" lon="-3.39652">
        <ele>206.80000305176</ele>
        <time>2020-10-18T11:09:20.000Z</time>
      </trkpt>
      <trkpt lat="48.26066" lon="-3.39652">
        <ele>206.80000305176</ele>
        <time>2020-10-18T11:09:21.000Z</time>
      </trkpt>
      <trkpt lat="48.2607" lon="-3.39652">
        <ele>206.80000305176</ele>
        <time>2020-10-18T11:09:22.000Z</time>
      </trkpt>
      <trkpt lat="48.26078" lon="-3.39652">
        <ele>206.80000305176</ele>
        <time>2020-10-18T11:09:23.000Z</time>
      </trkpt>
      <trkpt lat="48.26078" lon="-3.39652">
        <ele>206.80000305176</ele>
        <time>2020-10-18T11:09:24.000Z</time>
      </trkpt>
      <trkpt lat="48.26082" lon="-3.39652">
        <ele>206.80000305176</ele>
        <time>2020-10-18T11:09:25.000Z</time>
      </trkpt>
      <trkpt lat="48.2609" lon="-3.39652">
        <ele>206.80000305176</ele>
        <time>2020-10-18T11:09:26.000Z</time>
      </trkpt>
      <trkpt lat="48.2609" lon="-3.39652">
        <ele>206.80000305176</ele>
        <time>2020-10-18T11:09:27.000Z</time>
      </trkpt>
      <trkpt lat="48.26094" lon="-3.39652">
        <ele>206.80000305176</ele>
        <time>2020-10-18T11:09:28.000Z</time>
      </trkpt>
      <trkpt lat="48.26102" lon="-3.39652">
        <ele>206.80000305176</ele>
        <time>2020-10-18T11:09:29.000Z</time>
      </trkpt>
      <trkpt lat="48.26102" lon="-3.39652">
        <ele>206.80000305176</ele>
        <time>2020-10-18T11:09:30.000Z</time>
      </trkpt>
      <trkpt lat="48.26107" lon="-3.39652">
        <ele>206.60000610352</ele>
        <time>2020-10-18T11:09:31.000Z</time>
      </trkpt>
      <trkpt lat="48.26115" lon="-3.39652">
        <ele>206.39999389648</ele>
        <time>2020-10-18T11:09:32.000Z</time>
      </trkpt>
      <trkpt lat="48.26115" lon="-3.39652">
        <ele>206.39999389648</ele>
        <time>2020-10-18T11:09:33.000Z</time>
      </trkpt>
      <trkpt lat="48.26123" lon="-3.39652">
        <ele>206.19999694824</ele>
        <time>2020-10-18T11:09:34.000Z</time>
      </trkpt>
      <trkpt lat="48.26123" lon="-3.39652">
        <ele>206.19999694824</ele>
        <time>2020-10-18T11:09:35.000Z</time>
      </trkpt>
      <trkpt lat="48.26126" lon="-3.39653">
        <ele>206.19999694824</ele>
        <time>2020-10-18T11:09:36.000Z</time>
      </trkpt>
      <trkpt lat="48.26134" lon="-3.39653">
        <ele>206</ele>
        <time>2020-10-18T11:09:37.000Z</time>
      </trkpt>
      <trkpt lat="48.26134" lon="-3.39653">
        <ele>206</ele>
        <time>2020-10-18T11:09:38.000Z</time>
      </trkpt>
      <trkpt lat="48.26137" lon="-3.39653">
        <ele>205.80000305176</ele>
        <time>2020-10-18T11:09:39.000Z</time>
      </trkpt>
      <trkpt lat="48.26145" lon="-3.39653">
        <ele>205.60000610352</ele>
        <time>2020-10-18T11:09:40.000Z</time>
      </trkpt>
      <trkpt lat="48.26145" lon="-3.39653">
        <ele>205.60000610352</ele>
        <time>2020-10-18T11:09:41.000Z</time>
      </trkpt>
      <trkpt lat="48.26149" lon="-3.39653">
        <ele>205.39999389648</ele>
        <time>2020-10-18T11:09:42.000Z</time>
      </trkpt>
      <trkpt lat="48.26157" lon="-3.39654">
        <ele>205.19999694824</ele>
        <time>2020-10-18T11:09:43.000Z</time>
      </trkpt>
      <trkpt lat="48.26157" lon="-3.39654">
        <ele>205.19999694824</ele>
        <time>2020-10-18T11:09:44.000Z</time>
      </trkpt>
      <trkpt lat="48.26161" lon="-3.39653">
        <ele>205</ele>
        <time>2020-10-18T11:09:45.000Z</time>
      </trkpt>
      <trkpt lat="48.26168" lon="-3.39653">
        <ele>204.60000610352</ele>
        <time>2020-10-18T11:09:46.000Z</time>
      </trkpt>
      <trkpt lat="48.26172" lon="-3.39653">
        <ele>204.60000610352</ele>
        <time>2020-10-18T11:09:47.000Z</time>
      </trkpt>
      <trkpt lat="48.26176" lon="-3.39653">
        <ele>204.39999389648</ele>
        <time>2020-10-18T11:09:48.000Z</time>
      </trkpt>
      <trkpt lat="48.26176" lon="-3.39653">
        <ele>204.39999389648</ele>
        <time>2020-10-18T11:09:49.000Z</time>
      </trkpt>
      <trkpt lat="48.2618" lon="-3.39653">
        <ele>204.19999694824</ele>
        <time>2020-10-18T11:09:50.000Z</time>
      </trkpt>
      <trkpt lat="48.26188" lon="-3.39654">
        <ele>204</ele>
        <time>2020-10-18T11:09:51.000Z</time>
      </trkpt>
      <trkpt lat="48.26188" lon="-3.39654">
        <ele>204</ele>
        <time>2020-10-18T11:09:52.000Z</time>
      </trkpt>
      <trkpt lat="48.26196" lon="-3.39654">
        <ele>203.80000305176</ele>
        <time>2020-10-18T11:09:53.000Z</time>
      </trkpt>
      <trkpt lat="48.26196" lon="-3.39654">
        <ele>203.80000305176</ele>
        <time>2020-10-18T11:09:54.000Z</time>
      </trkpt>
      <trkpt lat="48.262" lon="-3.39655">
        <ele>203.60000610352</ele>
        <time>2020-10-18T11:09:55.000Z</time>
      </trkpt>
      <trkpt lat="48.26208" lon="-3.39655">
        <ele>203.39999389648</ele>
        <time>2020-10-18T11:09:56.000Z</time>
      </trkpt>
      <trkpt lat="48.26208" lon="-3.39655">
        <ele>203.39999389648</ele>
        <time>2020-10-18T11:09:57.000Z</time>
      </trkpt>
      <trkpt lat="48.26212" lon="-3.39655">
        <ele>203.19999694824</ele>
        <time>2020-10-18T11:09:58.000Z</time>
      </trkpt>
      <trkpt lat="48.2622" lon="-3.39655">
        <ele>203</ele>
        <time>2020-10-18T11:09:59.000Z</time>
      </trkpt>
      <trkpt lat="48.2622" lon="-3.39655">
        <ele>203</ele>
        <time>2020-10-18T11:10:00.000Z</time>
      </trkpt>
      <trkpt lat="48.26223" lon="-3.39655">
        <ele>202.80000305176</ele>
        <time>2020-10-18T11:10:01.000Z</time>
      </trkpt>
      <trkpt lat="48.26231" lon="-3.39654">
        <ele>202.60000610352</ele>
        <time>2020-10-18T11:10:02.000Z</time>
      </trkpt>
      <trkpt lat="48.26231" lon="-3.39654">
        <ele>202.60000610352</ele>
        <time>2020-10-18T11:10:03.000Z</time>
      </trkpt>
      <trkpt lat="48.26238" lon="-3.39655">
        <ele>202.19999694824</ele>
        <time>2020-10-18T11:10:04.000Z</time>
      </trkpt>
      <trkpt lat="48.26238" lon="-3.39655">
        <ele>202.19999694824</ele>
        <time>2020-10-18T11:10:05.000Z</time>
      </trkpt>
      <trkpt lat="48.26242" lon="-3.39655">
        <ele>202.19999694824</ele>
        <time>2020-10-18T11:10:06.000Z</time>
      </trkpt>
      <trkpt lat="48.2625" lon="-3.39655">
        <ele>201.80000305176</ele>
        <time>2020-10-18T11:10:07.000Z</time>
      </trkpt>
      <trkpt lat="48.2625" lon="-3.39655">
        <ele>201.80000305176</ele>
        <time>2020-10-18T11:10:08.000Z</time>
      </trkpt>
      <trkpt lat="48.26254" lon="-3.39655">
        <ele>201.80000305176</ele>
        <time>2020-10-18T11:10:09.000Z</time>
      </trkpt>
      <trkpt lat="48.26263" lon="-3.39655">
        <ele>201.39999389648</ele>
        <time>2020-10-18T11:10:10.000Z</time>
      </trkpt>
      <trkpt lat="48.26263" lon="-3.39655">
        <ele>201.39999389648</ele>
        <time>2020-10-18T11:10:11.000Z</time>
      </trkpt>
      <trkpt lat="48.26267" lon="-3.39655">
        <ele>201.19999694824</ele>
        <time>2020-10-18T11:10:12.000Z</time>
      </trkpt>
      <trkpt lat="48.26274" lon="-3.39655">
        <ele>200.80000305176</ele>
        <time>2020-10-18T11:10:13.000Z</time>
      </trkpt>
      <trkpt lat="48.26274" lon="-3.39655">
        <ele>200.80000305176</ele>
        <time>2020-10-18T11:10:14.000Z</time>
      </trkpt>
      <trkpt lat="48.26278" lon="-3.39655">
        <ele>200.39999389648</ele>
        <time>2020-10-18T11:10:15.000Z</time>
      </trkpt>
      <trkpt lat="48.26286" lon="-3.39655">
        <ele>200</ele>
        <time>2020-10-18T11:10:16.000Z</time>
      </trkpt>
      <trkpt lat="48.26286" lon="-3.39655">
        <ele>200</ele>
        <time>2020-10-18T11:10:17.000Z</time>
      </trkpt>
      <trkpt lat="48.2629" lon="-3.39655">
        <ele>199.80000305176</ele>
        <time>2020-10-18T11:10:18.000Z</time>
      </trkpt>
      <trkpt lat="48.26298" lon="-3.39655">
        <ele>199.19999694824</ele>
        <time>2020-10-18T11:10:19.000Z</time>
      </trkpt>
      <trkpt lat="48.26298" lon="-3.39655">
        <ele>199.19999694824</ele>
        <time>2020-10-18T11:10:20.000Z</time>
      </trkpt>
      <trkpt lat="48.26302" lon="-3.39655">
        <ele>199</ele>
        <time>2020-10-18T11:10:21.000Z</time>
      </trkpt>
      <trkpt lat="48.26306" lon="-3.39655">
        <ele>198.80000305176</ele>
        <time>2020-10-18T11:10:22.000Z</time>
      </trkpt>
      <trkpt lat="48.26311" lon="-3.39655">
        <ele>198.60000610352</ele>
        <time>2020-10-18T11:10:23.000Z</time>
      </trkpt>
      <trkpt lat="48.2632" lon="-3.39656">
        <ele>198</ele>
        <time>2020-10-18T11:10:24.000Z</time>
      </trkpt>
      <trkpt lat="48.2632" lon="-3.39656">
        <ele>198</ele>
        <time>2020-10-18T11:10:25.000Z</time>
      </trkpt>
      <trkpt lat="48.26324" lon="-3.39656">
        <ele>197.80000305176</ele>
        <time>2020-10-18T11:10:26.000Z</time>
      </trkpt>
      <trkpt lat="48.26333" lon="-3.39656">
        <ele>197.19999694824</ele>
        <time>2020-10-18T11:10:27.000Z</time>
      </trkpt>
      <trkpt lat="48.26333" lon="-3.39656">
        <ele>197.19999694824</ele>
        <time>2020-10-18T11:10:28.000Z</time>
      </trkpt>
      <trkpt lat="48.26337" lon="-3.39657">
        <ele>197</ele>
        <time>2020-10-18T11:10:29.000Z</time>
      </trkpt>
      <trkpt lat="48.26346" lon="-3.39657">
        <ele>196.60000610352</ele>
        <time>2020-10-18T11:10:30.000Z</time>
      </trkpt>
      <trkpt lat="48.26346" lon="-3.39657">
        <ele>196.60000610352</ele>
        <time>2020-10-18T11:10:31.000Z</time>
      </trkpt>
      <trkpt lat="48.2635" lon="-3.39657">
        <ele>196.39999389648</ele>
        <time>2020-10-18T11:10:32.000Z</time>
      </trkpt>
      <trkpt lat="48.26359" lon="-3.39657">
        <ele>196.39999389648</ele>
        <time>2020-10-18T11:10:33.000Z</time>
      </trkpt>
      <trkpt lat="48.26359" lon="-3.39657">
        <ele>196.39999389648</ele>
        <time>2020-10-18T11:10:34.000Z</time>
      </trkpt>
      <trkpt lat="48.26364" lon="-3.39657">
        <ele>196.39999389648</ele>
        <time>2020-10-18T11:10:35.000Z</time>
      </trkpt>
      <trkpt lat="48.26373" lon="-3.39657">
        <ele>196.19999694824</ele>
        <time>2020-10-18T11:10:36.000Z</time>
      </trkpt>
      <trkpt lat="48.26373" lon="-3.39657">
        <ele>196.19999694824</ele>
        <time>2020-10-18T11:10:37.000Z</time>
      </trkpt>
      <trkpt lat="48.26383" lon="-3.39657">
        <ele>196</ele>
        <time>2020-10-18T11:10:38.000Z</time>
      </trkpt>
      <trkpt lat="48.26383" lon="-3.39657">
        <ele>196</ele>
        <time>2020-10-18T11:10:39.000Z</time>
      </trkpt>
      <trkpt lat="48.26388" lon="-3.39657">
        <ele>195.80000305176</ele>
        <time>2020-10-18T11:10:40.000Z</time>
      </trkpt>
      <trkpt lat="48.26398" lon="-3.39658">
        <ele>195.60000610352</ele>
        <time>2020-10-18T11:10:41.000Z</time>
      </trkpt>
      <trkpt lat="48.26398" lon="-3.39658">
        <ele>195.60000610352</ele>
        <time>2020-10-18T11:10:42.000Z</time>
      </trkpt>
      <trkpt lat="48.26403" lon="-3.39658">
        <ele>195.39999389648</ele>
        <time>2020-10-18T11:10:43.000Z</time>
      </trkpt>
      <trkpt lat="48.26413" lon="-3.39658">
        <ele>195.19999694824</ele>
        <time>2020-10-18T11:10:44.000Z</time>
      </trkpt>
      <trkpt lat="48.26413" lon="-3.39658">
        <ele>195.19999694824</ele>
        <time>2020-10-18T11:10:45.000Z</time>
      </trkpt>
      <trkpt lat="48.26418" lon="-3.39658">
        <ele>195.19999694824</ele>
        <time>2020-10-18T11:10:46.000Z</time>
      </trkpt>
      <trkpt lat="48.26424" lon="-3.39658">
        <ele>195</ele>
        <time>2020-10-18T11:10:47.000Z</time>
      </trkpt>
      <trkpt lat="48.26429" lon="-3.39658">
        <ele>194.80000305176</ele>
        <time>2020-10-18T11:10:48.000Z</time>
      </trkpt>
      <trkpt lat="48.26439" lon="-3.39658">
        <ele>194.60000610352</ele>
        <time>2020-10-18T11:10:49.000Z</time>
      </trkpt>
      <trkpt lat="48.26439" lon="-3.39658">
        <ele>194.60000610352</ele>
        <time>2020-10-18T11:10:50.000Z</time>
      </trkpt>
      <trkpt lat="48.26449" lon="-3.39657">
        <ele>194.39999389648</ele>
        <time>2020-10-18T11:10:51.000Z</time>
      </trkpt>
      <trkpt lat="48.26449" lon="-3.39657">
        <ele>194.39999389648</ele>
        <time>2020-10-18T11:10:52.000Z</time>
      </trkpt>
      <trkpt lat="48.26453" lon="-3.39658">
        <ele>194.19999694824</ele>
        <time>2020-10-18T11:10:53.000Z</time>
      </trkpt>
      <trkpt lat="48.26462" lon="-3.39658">
        <ele>194</ele>
        <time>2020-10-18T11:10:54.000Z</time>
      </trkpt>
      <trkpt lat="48.26462" lon="-3.39658">
        <ele>194</ele>
        <time>2020-10-18T11:10:55.000Z</time>
      </trkpt>
      <trkpt lat="48.26467" lon="-3.39658">
        <ele>193.80000305176</ele>
        <time>2020-10-18T11:10:56.000Z</time>
      </trkpt>
      <trkpt lat="48.26475" lon="-3.39658">
        <ele>193.60000610352</ele>
        <time>2020-10-18T11:10:57.000Z</time>
      </trkpt>
      <trkpt lat="48.26475" lon="-3.39658">
        <ele>193.60000610352</ele>
        <time>2020-10-18T11:10:58.000Z</time>
      </trkpt>
      <trkpt lat="48.26479" lon="-3.39658">
        <ele>193.39999389648</ele>
        <time>2020-10-18T11:10:59.000Z</time>
      </trkpt>
      <trkpt lat="48.26487" lon="-3.39658">
        <ele>193</ele>
        <time>2020-10-18T11:11:00.000Z</time>
      </trkpt>
      <trkpt lat="48.26487" lon="-3.39658">
        <ele>193</ele>
        <time>2020-10-18T11:11:01.000Z</time>
      </trkpt>
      <trkpt lat="48.26491" lon="-3.39658">
        <ele>193</ele>
        <time>2020-10-18T11:11:02.000Z</time>
      </trkpt>
      <trkpt lat="48.265" lon="-3.39657">
        <ele>192.60000610352</ele>
        <time>2020-10-18T11:11:03.000Z</time>
      </trkpt>
      <trkpt lat="48.265" lon="-3.39657">
        <ele>192.60000610352</ele>
        <time>2020-10-18T11:11:04.000Z</time>
      </trkpt>
      <trkpt lat="48.26504" lon="-3.39657">
        <ele>192.39999389648</ele>
        <time>2020-10-18T11:11:05.000Z</time>
      </trkpt>
      <trkpt lat="48.26512" lon="-3.39657">
        <ele>192.19999694824</ele>
        <time>2020-10-18T11:11:06.000Z</time>
      </trkpt>
      <trkpt lat="48.26512" lon="-3.39657">
        <ele>192.19999694824</ele>
        <time>2020-10-18T11:11:07.000Z</time>
      </trkpt>
      <trkpt lat="48.26516" lon="-3.39657">
        <ele>192.19999694824</ele>
        <time>2020-10-18T11:11:08.000Z</time>
      </trkpt>
      <trkpt lat="48.26524" lon="-3.39658">
        <ele>192.19999694824</ele>
        <time>2020-10-18T11:11:09.000Z</time>
      </trkpt>
      <trkpt lat="48.26524" lon="-3.39658">
        <ele>192.19999694824</ele>
        <time>2020-10-18T11:11:10.000Z</time>
      </trkpt>
      <trkpt lat="48.26528" lon="-3.39658">
        <ele>192.19999694824</ele>
        <time>2020-10-18T11:11:11.000Z</time>
      </trkpt>
      <trkpt lat="48.26536" lon="-3.39658">
        <ele>192.19999694824</ele>
        <time>2020-10-18T11:11:12.000Z</time>
      </trkpt>
      <trkpt lat="48.26536" lon="-3.39658">
        <ele>192.19999694824</ele>
        <time>2020-10-18T11:11:13.000Z</time>
      </trkpt>
      <trkpt lat="48.2654" lon="-3.39658">
        <ele>192.19999694824</ele>
        <time>2020-10-18T11:11:14.000Z</time>
      </trkpt>
      <trkpt lat="48.26548" lon="-3.39658">
        <ele>192</ele>
        <time>2020-10-18T11:11:15.000Z</time>
      </trkpt>
      <trkpt lat="48.26548" lon="-3.39658">
        <ele>192</ele>
        <time>2020-10-18T11:11:16.000Z</time>
      </trkpt>
      <trkpt lat="48.26552" lon="-3.39658">
        <ele>192</ele>
        <time>2020-10-18T11:11:17.000Z</time>
      </trkpt>
      <trkpt lat="48.2656" lon="-3.39658">
        <ele>191.80000305176</ele>
        <time>2020-10-18T11:11:18.000Z</time>
      </trkpt>
      <trkpt lat="48.2656" lon="-3.39658">
        <ele>191.80000305176</ele>
        <time>2020-10-18T11:11:19.000Z</time>
      </trkpt>
      <trkpt lat="48.26564" lon="-3.39658">
        <ele>191.80000305176</ele>
        <time>2020-10-18T11:11:20.000Z</time>
      </trkpt>
      <trkpt lat="48.26573" lon="-3.39658">
        <ele>191.80000305176</ele>
        <time>2020-10-18T11:11:21.000Z</time>
      </trkpt>
      <trkpt lat="48.26573" lon="-3.39658">
        <ele>191.80000305176</ele>
        <time>2020-10-18T11:11:22.000Z</time>
      </trkpt>
      <trkpt lat="48.26582" lon="-3.39659">
        <ele>191.60000610352</ele>
        <time>2020-10-18T11:11:23.000Z</time>
      </trkpt>
      <trkpt lat="48.26582" lon="-3.39659">
        <ele>191.60000610352</ele>
        <time>2020-10-18T11:11:24.000Z</time>
      </trkpt>
      <trkpt lat="48.26587" lon="-3.39658">
        <ele>191.60000610352</ele>
        <time>2020-10-18T11:11:25.000Z</time>
      </trkpt>
      <trkpt lat="48.26596" lon="-3.39658">
        <ele>191.39999389648</ele>
        <time>2020-10-18T11:11:26.000Z</time>
      </trkpt>
      <trkpt lat="48.26596" lon="-3.39658">
        <ele>191.39999389648</ele>
        <time>2020-10-18T11:11:27.000Z</time>
      </trkpt>
      <trkpt lat="48.26602" lon="-3.39658">
        <ele>191.19999694824</ele>
        <time>2020-10-18T11:11:28.000Z</time>
      </trkpt>
      <trkpt lat="48.26612" lon="-3.39658">
        <ele>190.80000305176</ele>
        <time>2020-10-18T11:11:29.000Z</time>
      </trkpt>
      <trkpt lat="48.26612" lon="-3.39658">
        <ele>190.80000305176</ele>
        <time>2020-10-18T11:11:30.000Z</time>
      </trkpt>
      <trkpt lat="48.26618" lon="-3.39658">
        <ele>190.60000610352</ele>
        <time>2020-10-18T11:11:31.000Z</time>
      </trkpt>
      <trkpt lat="48.26628" lon="-3.39658">
        <ele>190</ele>
        <time>2020-10-18T11:11:32.000Z</time>
      </trkpt>
      <trkpt lat="48.26628" lon="-3.39658">
        <ele>190</ele>
        <time>2020-10-18T11:11:33.000Z</time>
      </trkpt>
      <trkpt lat="48.26633" lon="-3.39659">
        <ele>189.80000305176</ele>
        <time>2020-10-18T11:11:34.000Z</time>
      </trkpt>
      <trkpt lat="48.26644" lon="-3.39658">
        <ele>189.19999694824</ele>
        <time>2020-10-18T11:11:35.000Z</time>
      </trkpt>
      <trkpt lat="48.26644" lon="-3.39658">
        <ele>189.19999694824</ele>
        <time>2020-10-18T11:11:36.000Z</time>
      </trkpt>
      <trkpt lat="48.2665" lon="-3.39658">
        <ele>188.80000305176</ele>
        <time>2020-10-18T11:11:37.000Z</time>
      </trkpt>
      <trkpt lat="48.26662" lon="-3.39658">
        <ele>188</ele>
        <time>2020-10-18T11:11:38.000Z</time>
      </trkpt>
      <trkpt lat="48.26662" lon="-3.39658">
        <ele>188</ele>
        <time>2020-10-18T11:11:39.000Z</time>
      </trkpt>
      <trkpt lat="48.26668" lon="-3.39658">
        <ele>187.60000610352</ele>
        <time>2020-10-18T11:11:40.000Z</time>
      </trkpt>
      <trkpt lat="48.26679" lon="-3.39658">
        <ele>187</ele>
        <time>2020-10-18T11:11:41.000Z</time>
      </trkpt>
      <trkpt lat="48.26679" lon="-3.39658">
        <ele>187</ele>
        <time>2020-10-18T11:11:42.000Z</time>
      </trkpt>
      <trkpt lat="48.26684" lon="-3.39658">
        <ele>186.80000305176</ele>
        <time>2020-10-18T11:11:43.000Z</time>
      </trkpt>
      <trkpt lat="48.26695" lon="-3.39658">
        <ele>186.39999389648</ele>
        <time>2020-10-18T11:11:44.000Z</time>
      </trkpt>
      <trkpt lat="48.26695" lon="-3.39658">
        <ele>186.39999389648</ele>
        <time>2020-10-18T11:11:45.000Z</time>
      </trkpt>
      <trkpt lat="48.267" lon="-3.39658">
        <ele>186.19999694824</ele>
        <time>2020-10-18T11:11:46.000Z</time>
      </trkpt>
      <trkpt lat="48.26709" lon="-3.39659">
        <ele>185.80000305176</ele>
        <time>2020-10-18T11:11:47.000Z</time>
      </trkpt>
      <trkpt lat="48.26709" lon="-3.39659">
        <ele>185.80000305176</ele>
        <time>2020-10-18T11:11:48.000Z</time>
      </trkpt>
      <trkpt lat="48.26719" lon="-3.39659">
        <ele>185.39999389648</ele>
        <time>2020-10-18T11:11:49.000Z</time>
      </trkpt>
      <trkpt lat="48.26719" lon="-3.39659">
        <ele>185.39999389648</ele>
        <time>2020-10-18T11:11:50.000Z</time>
      </trkpt>
      <trkpt lat="48.26723" lon="-3.39659">
        <ele>185.19999694824</ele>
        <time>2020-10-18T11:11:51.000Z</time>
      </trkpt>
      <trkpt lat="48.26733" lon="-3.39661">
        <ele>184.60000610352</ele>
        <time>2020-10-18T11:11:52.000Z</time>
      </trkpt>
      <trkpt lat="48.26733" lon="-3.39661">
        <ele>184.60000610352</ele>
        <time>2020-10-18T11:11:53.000Z</time>
      </trkpt>
      <trkpt lat="48.26742" lon="-3.39662">
        <ele>184.19999694824</ele>
        <time>2020-10-18T11:11:54.000Z</time>
      </trkpt>
      <trkpt lat="48.26742" lon="-3.39662">
        <ele>184.19999694824</ele>
        <time>2020-10-18T11:11:55.000Z</time>
      </trkpt>
      <trkpt lat="48.26748" lon="-3.39662">
        <ele>184</ele>
        <time>2020-10-18T11:11:56.000Z</time>
      </trkpt>
      <trkpt lat="48.26758" lon="-3.39662">
        <ele>183.39999389648</ele>
        <time>2020-10-18T11:11:57.000Z</time>
      </trkpt>
      <trkpt lat="48.26758" lon="-3.39662">
        <ele>183.39999389648</ele>
        <time>2020-10-18T11:11:58.000Z</time>
      </trkpt>
      <trkpt lat="48.26762" lon="-3.39662">
        <ele>183.19999694824</ele>
        <time>2020-10-18T11:11:59.000Z</time>
      </trkpt>
      <trkpt lat="48.26772" lon="-3.39663">
        <ele>183.19999694824</ele>
        <time>2020-10-18T11:12:00.000Z</time>
      </trkpt>
      <trkpt lat="48.26772" lon="-3.39663">
        <ele>183.19999694824</ele>
        <time>2020-10-18T11:12:01.000Z</time>
      </trkpt>
      <trkpt lat="48.26777" lon="-3.39663">
        <ele>183</ele>
        <time>2020-10-18T11:12:02.000Z</time>
      </trkpt>
      <trkpt lat="48.26786" lon="-3.39664">
        <ele>183</ele>
        <time>2020-10-18T11:12:03.000Z</time>
      </trkpt>
      <trkpt lat="48.26786" lon="-3.39664">
        <ele>183</ele>
        <time>2020-10-18T11:12:04.000Z</time>
      </trkpt>
      <trkpt lat="48.2679" lon="-3.39664">
        <ele>182.80000305176</ele>
        <time>2020-10-18T11:12:05.000Z</time>
      </trkpt>
      <trkpt lat="48.26798" lon="-3.39664">
        <ele>182.80000305176</ele>
        <time>2020-10-18T11:12:06.000Z</time>
      </trkpt>
      <trkpt lat="48.26798" lon="-3.39664">
        <ele>182.80000305176</ele>
        <time>2020-10-18T11:12:07.000Z</time>
      </trkpt>
      <trkpt lat="48.26802" lon="-3.39664">
        <ele>182.80000305176</ele>
        <time>2020-10-18T11:12:08.000Z</time>
      </trkpt>
      <trkpt lat="48.2681" lon="-3.39663">
        <ele>182.60000610352</ele>
        <time>2020-10-18T11:12:09.000Z</time>
      </trkpt>
      <trkpt lat="48.2681" lon="-3.39663">
        <ele>182.60000610352</ele>
        <time>2020-10-18T11:12:10.000Z</time>
      </trkpt>
      <trkpt lat="48.26814" lon="-3.39662">
        <ele>182.60000610352</ele>
        <time>2020-10-18T11:12:11.000Z</time>
      </trkpt>
      <trkpt lat="48.26821" lon="-3.39661">
        <ele>182.60000610352</ele>
        <time>2020-10-18T11:12:12.000Z</time>
      </trkpt>
      <trkpt lat="48.26821" lon="-3.39661">
        <ele>182.60000610352</ele>
        <time>2020-10-18T11:12:13.000Z</time>
      </trkpt>
      <trkpt lat="48.26824" lon="-3.3966">
        <ele>182.60000610352</ele>
        <time>2020-10-18T11:12:14.000Z</time>
      </trkpt>
      <trkpt lat="48.26831" lon="-3.39661">
        <ele>182.39999389648</ele>
        <time>2020-10-18T11:12:15.000Z</time>
      </trkpt>
      <trkpt lat="48.26831" lon="-3.39661">
        <ele>182.39999389648</ele>
        <time>2020-10-18T11:12:16.000Z</time>
      </trkpt>
      <trkpt lat="48.26835" lon="-3.39661">
        <ele>182.39999389648</ele>
        <time>2020-10-18T11:12:17.000Z</time>
      </trkpt>
      <trkpt lat="48.26841" lon="-3.39661">
        <ele>182.39999389648</ele>
        <time>2020-10-18T11:12:18.000Z</time>
      </trkpt>
      <trkpt lat="48.26845" lon="-3.39661">
        <ele>182.19999694824</ele>
        <time>2020-10-18T11:12:19.000Z</time>
      </trkpt>
      <trkpt lat="48.26845" lon="-3.39661">
        <ele>182.19999694824</ele>
        <time>2020-10-18T11:12:20.000Z</time>
      </trkpt>
      <trkpt lat="48.26848" lon="-3.39661">
        <ele>182.39999389648</ele>
        <time>2020-10-18T11:12:21.000Z</time>
      </trkpt>
      <trkpt lat="48.26855" lon="-3.39661">
        <ele>182.60000610352</ele>
        <time>2020-10-18T11:12:22.000Z</time>
      </trkpt>
      <trkpt lat="48.26855" lon="-3.39661">
        <ele>182.60000610352</ele>
        <time>2020-10-18T11:12:23.000Z</time>
      </trkpt>
      <trkpt lat="48.26857" lon="-3.39661">
        <ele>182.80000305176</ele>
        <time>2020-10-18T11:12:24.000Z</time>
      </trkpt>
      <trkpt lat="48.26863" lon="-3.39661">
        <ele>183</ele>
        <time>2020-10-18T11:12:25.000Z</time>
      </trkpt>
      <trkpt lat="48.26863" lon="-3.39661">
        <ele>183</ele>
        <time>2020-10-18T11:12:26.000Z</time>
      </trkpt>
      <trkpt lat="48.26866" lon="-3.39661">
        <ele>183.19999694824</ele>
        <time>2020-10-18T11:12:27.000Z</time>
      </trkpt>
      <trkpt lat="48.26872" lon="-3.39661">
        <ele>183.39999389648</ele>
        <time>2020-10-18T11:12:28.000Z</time>
      </trkpt>
      <trkpt lat="48.26872" lon="-3.39661">
        <ele>183.39999389648</ele>
        <time>2020-10-18T11:12:29.000Z</time>
      </trkpt>
      <trkpt lat="48.26875" lon="-3.39661">
        <ele>183.60000610352</ele>
        <time>2020-10-18T11:12:30.000Z</time>
      </trkpt>
      <trkpt lat="48.2688" lon="-3.39661">
        <ele>183.80000305176</ele>
        <time>2020-10-18T11:12:31.000Z</time>
      </trkpt>
      <trkpt lat="48.2688" lon="-3.39661">
        <ele>183.80000305176</ele>
        <time>2020-10-18T11:12:32.000Z</time>
      </trkpt>
      <trkpt lat="48.26883" lon="-3.39661">
        <ele>184</ele>
        <time>2020-10-18T11:12:33.000Z</time>
      </trkpt>
      <trkpt lat="48.26888" lon="-3.3966">
        <ele>184.19999694824</ele>
        <time>2020-10-18T11:12:34.000Z</time>
      </trkpt>
      <trkpt lat="48.26888" lon="-3.3966">
        <ele>184.19999694824</ele>
        <time>2020-10-18T11:12:35.000Z</time>
      </trkpt>
      <trkpt lat="48.26891" lon="-3.39661">
        <ele>184.39999389648</ele>
        <time>2020-10-18T11:12:36.000Z</time>
      </trkpt>
      <trkpt lat="48.26896" lon="-3.39661">
        <ele>184.60000610352</ele>
        <time>2020-10-18T11:12:37.000Z</time>
      </trkpt>
      <trkpt lat="48.26896" lon="-3.39661">
        <ele>184.60000610352</ele>
        <time>2020-10-18T11:12:38.000Z</time>
      </trkpt>
      <trkpt lat="48.26902" lon="-3.39661">
        <ele>185</ele>
        <time>2020-10-18T11:12:39.000Z</time>
      </trkpt>
      <trkpt lat="48.26902" lon="-3.39661">
        <ele>185</ele>
        <time>2020-10-18T11:12:40.000Z</time>
      </trkpt>
      <trkpt lat="48.26905" lon="-3.39661">
        <ele>185</ele>
        <time>2020-10-18T11:12:41.000Z</time>
      </trkpt>
      <trkpt lat="48.26911" lon="-3.39661">
        <ele>185.39999389648</ele>
        <time>2020-10-18T11:12:42.000Z</time>
      </trkpt>
      <trkpt lat="48.26911" lon="-3.39661">
        <ele>185.39999389648</ele>
        <time>2020-10-18T11:12:43.000Z</time>
      </trkpt>
      <trkpt lat="48.26914" lon="-3.39661">
        <ele>185.60000610352</ele>
        <time>2020-10-18T11:12:44.000Z</time>
      </trkpt>
      <trkpt lat="48.2692" lon="-3.39661">
        <ele>185.80000305176</ele>
        <time>2020-10-18T11:12:45.000Z</time>
      </trkpt>
      <trkpt lat="48.2692" lon="-3.39661">
        <ele>185.80000305176</ele>
        <time>2020-10-18T11:12:46.000Z</time>
      </trkpt>
      <trkpt lat="48.26926" lon="-3.39661">
        <ele>186</ele>
        <time>2020-10-18T11:12:47.000Z</time>
      </trkpt>
      <trkpt lat="48.26926" lon="-3.39661">
        <ele>186</ele>
        <time>2020-10-18T11:12:48.000Z</time>
      </trkpt>
      <trkpt lat="48.26932" lon="-3.39661">
        <ele>186.39999389648</ele>
        <time>2020-10-18T11:12:49.000Z</time>
      </trkpt>
      <trkpt lat="48.26932" lon="-3.39661">
        <ele>186.39999389648</ele>
        <time>2020-10-18T11:12:50.000Z</time>
      </trkpt>
      <trkpt lat="48.26934" lon="-3.39661">
        <ele>186.60000610352</ele>
        <time>2020-10-18T11:12:51.000Z</time>
      </trkpt>
      <trkpt lat="48.26941" lon="-3.39661">
        <ele>187</ele>
        <time>2020-10-18T11:12:52.000Z</time>
      </trkpt>
      <trkpt lat="48.26941" lon="-3.39661">
        <ele>187</ele>
        <time>2020-10-18T11:12:53.000Z</time>
      </trkpt>
      <trkpt lat="48.26946" lon="-3.39661">
        <ele>187.19999694824</ele>
        <time>2020-10-18T11:12:54.000Z</time>
      </trkpt>
      <trkpt lat="48.26946" lon="-3.39661">
        <ele>187.19999694824</ele>
        <time>2020-10-18T11:12:55.000Z</time>
      </trkpt>
      <trkpt lat="48.26949" lon="-3.39661">
        <ele>187.39999389648</ele>
        <time>2020-10-18T11:12:56.000Z</time>
      </trkpt>
      <trkpt lat="48.26955" lon="-3.39662">
        <ele>187.80000305176</ele>
        <time>2020-10-18T11:12:57.000Z</time>
      </trkpt>
      <trkpt lat="48.26955" lon="-3.39662">
        <ele>187.80000305176</ele>
        <time>2020-10-18T11:12:58.000Z</time>
      </trkpt>
      <trkpt lat="48.2696" lon="-3.39662">
        <ele>188.19999694824</ele>
        <time>2020-10-18T11:12:59.000Z</time>
      </trkpt>
      <trkpt lat="48.2696" lon="-3.39662">
        <ele>188.19999694824</ele>
        <time>2020-10-18T11:13:00.000Z</time>
      </trkpt>
      <trkpt lat="48.26963" lon="-3.39662">
        <ele>188.39999389648</ele>
        <time>2020-10-18T11:13:01.000Z</time>
      </trkpt>
      <trkpt lat="48.26968" lon="-3.39662">
        <ele>188.80000305176</ele>
        <time>2020-10-18T11:13:02.000Z</time>
      </trkpt>
      <trkpt lat="48.26968" lon="-3.39662">
        <ele>188.80000305176</ele>
        <time>2020-10-18T11:13:03.000Z</time>
      </trkpt>
      <trkpt lat="48.26973" lon="-3.39662">
        <ele>189.19999694824</ele>
        <time>2020-10-18T11:13:04.000Z</time>
      </trkpt>
      <trkpt lat="48.26973" lon="-3.39662">
        <ele>189.19999694824</ele>
        <time>2020-10-18T11:13:05.000Z</time>
      </trkpt>
      <trkpt lat="48.26975" lon="-3.39662">
        <ele>189.19999694824</ele>
        <time>2020-10-18T11:13:06.000Z</time>
      </trkpt>
      <trkpt lat="48.2698" lon="-3.39663">
        <ele>189.60000610352</ele>
        <time>2020-10-18T11:13:07.000Z</time>
      </trkpt>
      <trkpt lat="48.2698" lon="-3.39663">
        <ele>189.60000610352</ele>
        <time>2020-10-18T11:13:08.000Z</time>
      </trkpt>
      <trkpt lat="48.26983" lon="-3.39663">
        <ele>189.80000305176</ele>
        <time>2020-10-18T11:13:09.000Z</time>
      </trkpt>
      <trkpt lat="48.26987" lon="-3.39662">
        <ele>190.19999694824</ele>
        <time>2020-10-18T11:13:10.000Z</time>
      </trkpt>
      <trkpt lat="48.26987" lon="-3.39662">
        <ele>190.19999694824</ele>
        <time>2020-10-18T11:13:11.000Z</time>
      </trkpt>
      <trkpt lat="48.2699" lon="-3.39662">
        <ele>190.39999389648</ele>
        <time>2020-10-18T11:13:12.000Z</time>
      </trkpt>
      <trkpt lat="48.26994" lon="-3.39663">
        <ele>190.60000610352</ele>
        <time>2020-10-18T11:13:13.000Z</time>
      </trkpt>
      <trkpt lat="48.26994" lon="-3.39663">
        <ele>190.60000610352</ele>
        <time>2020-10-18T11:13:14.000Z</time>
      </trkpt>
      <trkpt lat="48.26997" lon="-3.39663">
        <ele>190.80000305176</ele>
        <time>2020-10-18T11:13:15.000Z</time>
      </trkpt>
      <trkpt lat="48.26999" lon="-3.39663">
        <ele>191</ele>
        <time>2020-10-18T11:13:16.000Z</time>
      </trkpt>
      <trkpt lat="48.27004" lon="-3.39663">
        <ele>191.39999389648</ele>
        <time>2020-10-18T11:13:17.000Z</time>
      </trkpt>
      <trkpt lat="48.27006" lon="-3.39663">
        <ele>191.60000610352</ele>
        <time>2020-10-18T11:13:18.000Z</time>
      </trkpt>
      <trkpt lat="48.27006" lon="-3.39663">
        <ele>191.60000610352</ele>
        <time>2020-10-18T11:13:19.000Z</time>
      </trkpt>
      <trkpt lat="48.27009" lon="-3.39663">
        <ele>191.80000305176</ele>
        <time>2020-10-18T11:13:20.000Z</time>
      </trkpt>
      <trkpt lat="48.27014" lon="-3.39663">
        <ele>192</ele>
        <time>2020-10-18T11:13:21.000Z</time>
      </trkpt>
      <trkpt lat="48.27014" lon="-3.39663">
        <ele>192</ele>
        <time>2020-10-18T11:13:22.000Z</time>
      </trkpt>
      <trkpt lat="48.27016" lon="-3.39663">
        <ele>192.19999694824</ele>
        <time>2020-10-18T11:13:23.000Z</time>
      </trkpt>
      <trkpt lat="48.27021" lon="-3.39664">
        <ele>192.60000610352</ele>
        <time>2020-10-18T11:13:24.000Z</time>
      </trkpt>
      <trkpt lat="48.27021" lon="-3.39664">
        <ele>192.60000610352</ele>
        <time>2020-10-18T11:13:25.000Z</time>
      </trkpt>
      <trkpt lat="48.27026" lon="-3.39664">
        <ele>193</ele>
        <time>2020-10-18T11:13:26.000Z</time>
      </trkpt>
      <trkpt lat="48.27026" lon="-3.39664">
        <ele>193</ele>
        <time>2020-10-18T11:13:27.000Z</time>
      </trkpt>
      <trkpt lat="48.27031" lon="-3.39664">
        <ele>193.19999694824</ele>
        <time>2020-10-18T11:13:28.000Z</time>
      </trkpt>
      <trkpt lat="48.27031" lon="-3.39664">
        <ele>193.19999694824</ele>
        <time>2020-10-18T11:13:29.000Z</time>
      </trkpt>
      <trkpt lat="48.27033" lon="-3.39664">
        <ele>193.39999389648</ele>
        <time>2020-10-18T11:13:30.000Z</time>
      </trkpt>
      <trkpt lat="48.27038" lon="-3.39664">
        <ele>193.60000610352</ele>
        <time>2020-10-18T11:13:31.000Z</time>
      </trkpt>
      <trkpt lat="48.27038" lon="-3.39664">
        <ele>193.60000610352</ele>
        <time>2020-10-18T11:13:32.000Z</time>
      </trkpt>
      <trkpt lat="48.27042" lon="-3.39664">
        <ele>193.80000305176</ele>
        <time>2020-10-18T11:13:33.000Z</time>
      </trkpt>
      <trkpt lat="48.27042" lon="-3.39664">
        <ele>193.80000305176</ele>
        <time>2020-10-18T11:13:34.000Z</time>
      </trkpt>
      <trkpt lat="48.27047" lon="-3.39664">
        <ele>194</ele>
        <time>2020-10-18T11:13:35.000Z</time>
      </trkpt>
      <trkpt lat="48.27047" lon="-3.39664">
        <ele>194</ele>
        <time>2020-10-18T11:13:36.000Z</time>
      </trkpt>
      <trkpt lat="48.27049" lon="-3.39664">
        <ele>194.19999694824</ele>
        <time>2020-10-18T11:13:37.000Z</time>
      </trkpt>
      <trkpt lat="48.27053" lon="-3.39664">
        <ele>194.39999389648</ele>
        <time>2020-10-18T11:13:38.000Z</time>
      </trkpt>
      <trkpt lat="48.27053" lon="-3.39664">
        <ele>194.39999389648</ele>
        <time>2020-10-18T11:13:39.000Z</time>
      </trkpt>
      <trkpt lat="48.27056" lon="-3.39664">
        <ele>194.39999389648</ele>
        <time>2020-10-18T11:13:40.000Z</time>
      </trkpt>
      <trkpt lat="48.2706" lon="-3.39664">
        <ele>194.80000305176</ele>
        <time>2020-10-18T11:13:41.000Z</time>
      </trkpt>
      <trkpt lat="48.2706" lon="-3.39664">
        <ele>194.80000305176</ele>
        <time>2020-10-18T11:13:42.000Z</time>
      </trkpt>
      <trkpt lat="48.27065" lon="-3.39664">
        <ele>195</ele>
        <time>2020-10-18T11:13:43.000Z</time>
      </trkpt>
      <trkpt lat="48.27065" lon="-3.39664">
        <ele>195</ele>
        <time>2020-10-18T11:13:44.000Z</time>
      </trkpt>
      <trkpt lat="48.27069" lon="-3.39664">
        <ele>195.19999694824</ele>
        <time>2020-10-18T11:13:45.000Z</time>
      </trkpt>
      <trkpt lat="48.27069" lon="-3.39664">
        <ele>195.19999694824</ele>
        <time>2020-10-18T11:13:46.000Z</time>
      </trkpt>
      <trkpt lat="48.27074" lon="-3.39664">
        <ele>195.39999389648</ele>
        <time>2020-10-18T11:13:47.000Z</time>
      </trkpt>
      <trkpt lat="48.27074" lon="-3.39664">
        <ele>195.39999389648</ele>
        <time>2020-10-18T11:13:48.000Z</time>
      </trkpt>
      <trkpt lat="48.27079" lon="-3.39664">
        <ele>195.60000610352</ele>
        <time>2020-10-18T11:13:49.000Z</time>
      </trkpt>
      <trkpt lat="48.27079" lon="-3.39664">
        <ele>195.60000610352</ele>
        <time>2020-10-18T11:13:50.000Z</time>
      </trkpt>
      <trkpt lat="48.27081" lon="-3.39664">
        <ele>195.80000305176</ele>
        <time>2020-10-18T11:13:51.000Z</time>
      </trkpt>
      <trkpt lat="48.27086" lon="-3.39664">
        <ele>196</ele>
        <time>2020-10-18T11:13:52.000Z</time>
      </trkpt>
      <trkpt lat="48.27086" lon="-3.39664">
        <ele>196</ele>
        <time>2020-10-18T11:13:53.000Z</time>
      </trkpt>
      <trkpt lat="48.27089" lon="-3.39664">
        <ele>196</ele>
        <time>2020-10-18T11:13:54.000Z</time>
      </trkpt>
      <trkpt lat="48.27093" lon="-3.39665">
        <ele>196.19999694824</ele>
        <time>2020-10-18T11:13:55.000Z</time>
      </trkpt>
      <trkpt lat="48.27093" lon="-3.39665">
        <ele>196.19999694824</ele>
        <time>2020-10-18T11:13:56.000Z</time>
      </trkpt>
      <trkpt lat="48.27098" lon="-3.39665">
        <ele>196.60000610352</ele>
        <time>2020-10-18T11:13:57.000Z</time>
      </trkpt>
      <trkpt lat="48.27098" lon="-3.39665">
        <ele>196.60000610352</ele>
        <time>2020-10-18T11:13:58.000Z</time>
      </trkpt>
      <trkpt lat="48.271" lon="-3.39665">
        <ele>196.60000610352</ele>
        <time>2020-10-18T11:13:59.000Z</time>
      </trkpt>
      <trkpt lat="48.27105" lon="-3.39664">
        <ele>197</ele>
        <time>2020-10-18T11:14:00.000Z</time>
      </trkpt>
      <trkpt lat="48.27105" lon="-3.39664">
        <ele>197</ele>
        <time>2020-10-18T11:14:01.000Z</time>
      </trkpt>
      <trkpt lat="48.27107" lon="-3.39664">
        <ele>197</ele>
        <time>2020-10-18T11:14:02.000Z</time>
      </trkpt>
      <trkpt lat="48.27112" lon="-3.39663">
        <ele>197.39999389648</ele>
        <time>2020-10-18T11:14:03.000Z</time>
      </trkpt>
      <trkpt lat="48.27112" lon="-3.39663">
        <ele>197.39999389648</ele>
        <time>2020-10-18T11:14:04.000Z</time>
      </trkpt>
      <trkpt lat="48.27117" lon="-3.39663">
        <ele>197.60000610352</ele>
        <time>2020-10-18T11:14:05.000Z</time>
      </trkpt>
      <trkpt lat="48.27117" lon="-3.39663">
        <ele>197.60000610352</ele>
        <time>2020-10-18T11:14:06.000Z</time>
      </trkpt>
      <trkpt lat="48.27119" lon="-3.39663">
        <ele>197.80000305176</ele>
        <time>2020-10-18T11:14:07.000Z</time>
      </trkpt>
      <trkpt lat="48.27125" lon="-3.39663">
        <ele>198.19999694824</ele>
        <time>2020-10-18T11:14:08.000Z</time>
      </trkpt>
      <trkpt lat="48.27125" lon="-3.39663">
        <ele>198.19999694824</ele>
        <time>2020-10-18T11:14:09.000Z</time>
      </trkpt>
      <trkpt lat="48.2713" lon="-3.39663">
        <ele>198.39999389648</ele>
        <time>2020-10-18T11:14:10.000Z</time>
      </trkpt>
      <trkpt lat="48.2713" lon="-3.39663">
        <ele>198.39999389648</ele>
        <time>2020-10-18T11:14:11.000Z</time>
      </trkpt>
      <trkpt lat="48.27133" lon="-3.39663">
        <ele>198.60000610352</ele>
        <time>2020-10-18T11:14:12.000Z</time>
      </trkpt>
      <trkpt lat="48.27137" lon="-3.3966">
        <ele>199</ele>
        <time>2020-10-18T11:14:13.000Z</time>
      </trkpt>
      <trkpt lat="48.27137" lon="-3.3966">
        <ele>199</ele>
        <time>2020-10-18T11:14:14.000Z</time>
      </trkpt>
      <trkpt lat="48.27142" lon="-3.39655">
        <ele>199.39999389648</ele>
        <time>2020-10-18T11:14:15.000Z</time>
      </trkpt>
      <trkpt lat="48.27142" lon="-3.39655">
        <ele>199.39999389648</ele>
        <time>2020-10-18T11:14:16.000Z</time>
      </trkpt>
      <trkpt lat="48.27143" lon="-3.39652">
        <ele>199.60000610352</ele>
        <time>2020-10-18T11:14:17.000Z</time>
      </trkpt>
      <trkpt lat="48.27144" lon="-3.39645">
        <ele>199.80000305176</ele>
        <time>2020-10-18T11:14:18.000Z</time>
      </trkpt>
      <trkpt lat="48.27144" lon="-3.39645">
        <ele>199.80000305176</ele>
        <time>2020-10-18T11:14:19.000Z</time>
      </trkpt>
      <trkpt lat="48.27145" lon="-3.39638">
        <ele>200</ele>
        <time>2020-10-18T11:14:20.000Z</time>
      </trkpt>
      <trkpt lat="48.27145" lon="-3.39638">
        <ele>200</ele>
        <time>2020-10-18T11:14:21.000Z</time>
      </trkpt>
      <trkpt lat="48.27147" lon="-3.3963">
        <ele>200.39999389648</ele>
        <time>2020-10-18T11:14:22.000Z</time>
      </trkpt>
      <trkpt lat="48.27147" lon="-3.3963">
        <ele>200.39999389648</ele>
        <time>2020-10-18T11:14:23.000Z</time>
      </trkpt>
      <trkpt lat="48.27149" lon="-3.39622">
        <ele>200.60000610352</ele>
        <time>2020-10-18T11:14:24.000Z</time>
      </trkpt>
      <trkpt lat="48.27149" lon="-3.39622">
        <ele>200.60000610352</ele>
        <time>2020-10-18T11:14:25.000Z</time>
      </trkpt>
      <trkpt lat="48.27151" lon="-3.39614">
        <ele>201</ele>
        <time>2020-10-18T11:14:26.000Z</time>
      </trkpt>
      <trkpt lat="48.27151" lon="-3.39614">
        <ele>201</ele>
        <time>2020-10-18T11:14:27.000Z</time>
      </trkpt>
      <trkpt lat="48.27153" lon="-3.39605">
        <ele>201.19999694824</ele>
        <time>2020-10-18T11:14:28.000Z</time>
      </trkpt>
      <trkpt lat="48.27153" lon="-3.39605">
        <ele>201.19999694824</ele>
        <time>2020-10-18T11:14:29.000Z</time>
      </trkpt>
      <trkpt lat="48.27156" lon="-3.39596">
        <ele>201.60000610352</ele>
        <time>2020-10-18T11:14:30.000Z</time>
      </trkpt>
      <trkpt lat="48.27156" lon="-3.39596">
        <ele>201.60000610352</ele>
        <time>2020-10-18T11:14:31.000Z</time>
      </trkpt>
      <trkpt lat="48.27157" lon="-3.39592">
        <ele>201.60000610352</ele>
        <time>2020-10-18T11:14:32.000Z</time>
      </trkpt>
      <trkpt lat="48.27159" lon="-3.39583">
        <ele>201.80000305176</ele>
        <time>2020-10-18T11:14:33.000Z</time>
      </trkpt>
      <trkpt lat="48.27159" lon="-3.39583">
        <ele>201.80000305176</ele>
        <time>2020-10-18T11:14:34.000Z</time>
      </trkpt>
      <trkpt lat="48.27161" lon="-3.39578">
        <ele>201.80000305176</ele>
        <time>2020-10-18T11:14:35.000Z</time>
      </trkpt>
      <trkpt lat="48.27163" lon="-3.39569">
        <ele>202</ele>
        <time>2020-10-18T11:14:36.000Z</time>
      </trkpt>
      <trkpt lat="48.27164" lon="-3.39565">
        <ele>202</ele>
        <time>2020-10-18T11:14:37.000Z</time>
      </trkpt>
      <trkpt lat="48.27164" lon="-3.39565">
        <ele>202</ele>
        <time>2020-10-18T11:14:38.000Z</time>
      </trkpt>
      <trkpt lat="48.27166" lon="-3.39556">
        <ele>202.19999694824</ele>
        <time>2020-10-18T11:14:39.000Z</time>
      </trkpt>
      <trkpt lat="48.27166" lon="-3.39556">
        <ele>202.19999694824</ele>
        <time>2020-10-18T11:14:40.000Z</time>
      </trkpt>
      <trkpt lat="48.27168" lon="-3.39548">
        <ele>202.39999389648</ele>
        <time>2020-10-18T11:14:41.000Z</time>
      </trkpt>
      <trkpt lat="48.27168" lon="-3.39548">
        <ele>202.39999389648</ele>
        <time>2020-10-18T11:14:42.000Z</time>
      </trkpt>
      <trkpt lat="48.27169" lon="-3.39544">
        <ele>202.39999389648</ele>
        <time>2020-10-18T11:14:43.000Z</time>
      </trkpt>
      <trkpt lat="48.27171" lon="-3.39536">
        <ele>202.60000610352</ele>
        <time>2020-10-18T11:14:44.000Z</time>
      </trkpt>
      <trkpt lat="48.27171" lon="-3.39536">
        <ele>202.60000610352</ele>
        <time>2020-10-18T11:14:45.000Z</time>
      </trkpt>
      <trkpt lat="48.27172" lon="-3.39532">
        <ele>202.60000610352</ele>
        <time>2020-10-18T11:14:46.000Z</time>
      </trkpt>
      <trkpt lat="48.27174" lon="-3.39527">
        <ele>202.60000610352</ele>
        <time>2020-10-18T11:14:47.000Z</time>
      </trkpt>
      <trkpt lat="48.27174" lon="-3.39527">
        <ele>202.60000610352</ele>
        <time>2020-10-18T11:14:48.000Z</time>
      </trkpt>
      <trkpt lat="48.27175" lon="-3.39523">
        <ele>202.80000305176</ele>
        <time>2020-10-18T11:14:49.000Z</time>
      </trkpt>
      <trkpt lat="48.27175" lon="-3.39523">
        <ele>202.80000305176</ele>
        <time>2020-10-18T11:14:50.000Z</time>
      </trkpt>
      <trkpt lat="48.27175" lon="-3.39522">
        <ele>202.80000305176</ele>
        <time>2020-10-18T11:14:51.000Z</time>
      </trkpt>
      <trkpt lat="48.27175" lon="-3.39522">
        <ele>202.80000305176</ele>
        <time>2020-10-18T11:14:52.000Z</time>
      </trkpt>
      <trkpt lat="48.27175" lon="-3.39522">
        <ele>202.80000305176</ele>
        <time>2020-10-18T11:14:53.000Z</time>
      </trkpt>
      <trkpt lat="48.27175" lon="-3.39522">
        <ele>202.80000305176</ele>
        <time>2020-10-18T11:14:54.000Z</time>
      </trkpt>
      <trkpt lat="48.27175" lon="-3.39522">
        <ele>202.80000305176</ele>
        <time>2020-10-18T11:14:55.000Z</time>
      </trkpt>
      <trkpt lat="48.27175" lon="-3.39522">
        <ele>202.80000305176</ele>
        <time>2020-10-18T11:14:56.000Z</time>
      </trkpt>
      <trkpt lat="48.27175" lon="-3.39522">
        <ele>202.80000305176</ele>
        <time>2020-10-18T11:14:57.000Z</time>
      </trkpt>
      <trkpt lat="48.27175" lon="-3.39522">
        <ele>202.80000305176</ele>
        <time>2020-10-18T11:14:58.000Z</time>
      </trkpt>
      <trkpt lat="48.27175" lon="-3.39522">
        <ele>202.80000305176</ele>
        <time>2020-10-18T11:14:59.000Z</time>
      </trkpt>
      <trkpt lat="48.27175" lon="-3.39522">
        <ele>202.80000305176</ele>
        <time>2020-10-18T11:15:00.000Z</time>
      </trkpt>
      <trkpt lat="48.27175" lon="-3.39522">
        <ele>202.80000305176</ele>
        <time>2020-10-18T11:15:01.000Z</time>
      </trkpt>
      <trkpt lat="48.27176" lon="-3.39522">
        <ele>202.80000305176</ele>
        <time>2020-10-18T11:15:02.000Z</time>
      </trkpt>
      <trkpt lat="48.27176" lon="-3.39522">
        <ele>202.80000305176</ele>
        <time>2020-10-18T11:15:03.000Z</time>
      </trkpt>
      <trkpt lat="48.27177" lon="-3.39524">
        <ele>202.80000305176</ele>
        <time>2020-10-18T11:15:04.000Z</time>
      </trkpt>
      <trkpt lat="48.27177" lon="-3.39524">
        <ele>202.80000305176</ele>
        <time>2020-10-18T11:15:05.000Z</time>
      </trkpt>
      <trkpt lat="48.27177" lon="-3.39525">
        <ele>202.80000305176</ele>
        <time>2020-10-18T11:15:06.000Z</time>
      </trkpt>
      <trkpt lat="48.27181" lon="-3.39528">
        <ele>203</ele>
        <time>2020-10-18T11:15:07.000Z</time>
      </trkpt>
      <trkpt lat="48.27181" lon="-3.39528">
        <ele>203</ele>
        <time>2020-10-18T11:15:08.000Z</time>
      </trkpt>
      <trkpt lat="48.27183" lon="-3.39529">
        <ele>203.19999694824</ele>
        <time>2020-10-18T11:15:09.000Z</time>
      </trkpt>
      <trkpt lat="48.27188" lon="-3.39532">
        <ele>203.60000610352</ele>
        <time>2020-10-18T11:15:10.000Z</time>
      </trkpt>
      <trkpt lat="48.27188" lon="-3.39532">
        <ele>203.60000610352</ele>
        <time>2020-10-18T11:15:11.000Z</time>
      </trkpt>
      <trkpt lat="48.27191" lon="-3.39533">
        <ele>203.60000610352</ele>
        <time>2020-10-18T11:15:12.000Z</time>
      </trkpt>
      <trkpt lat="48.27196" lon="-3.39535">
        <ele>204</ele>
        <time>2020-10-18T11:15:13.000Z</time>
      </trkpt>
      <trkpt lat="48.27196" lon="-3.39535">
        <ele>204</ele>
        <time>2020-10-18T11:15:14.000Z</time>
      </trkpt>
      <trkpt lat="48.27198" lon="-3.39536">
        <ele>204.19999694824</ele>
        <time>2020-10-18T11:15:15.000Z</time>
      </trkpt>
      <trkpt lat="48.27203" lon="-3.39536">
        <ele>204.39999389648</ele>
        <time>2020-10-18T11:15:16.000Z</time>
      </trkpt>
      <trkpt lat="48.27203" lon="-3.39536">
        <ele>204.39999389648</ele>
        <time>2020-10-18T11:15:17.000Z</time>
      </trkpt>
      <trkpt lat="48.27206" lon="-3.39537">
        <ele>204.60000610352</ele>
        <time>2020-10-18T11:15:18.000Z</time>
      </trkpt>
      <trkpt lat="48.27211" lon="-3.39536">
        <ele>204.80000305176</ele>
        <time>2020-10-18T11:15:19.000Z</time>
      </trkpt>
      <trkpt lat="48.27211" lon="-3.39536">
        <ele>204.80000305176</ele>
        <time>2020-10-18T11:15:20.000Z</time>
      </trkpt>
      <trkpt lat="48.27216" lon="-3.39537">
        <ele>205.19999694824</ele>
        <time>2020-10-18T11:15:21.000Z</time>
      </trkpt>
      <trkpt lat="48.27216" lon="-3.39537">
        <ele>205.19999694824</ele>
        <time>2020-10-18T11:15:22.000Z</time>
      </trkpt>
      <trkpt lat="48.27218" lon="-3.39537">
        <ele>205.39999389648</ele>
        <time>2020-10-18T11:15:23.000Z</time>
      </trkpt>
      <trkpt lat="48.27224" lon="-3.39538">
        <ele>205.60000610352</ele>
        <time>2020-10-18T11:15:24.000Z</time>
      </trkpt>
      <trkpt lat="48.27224" lon="-3.39538">
        <ele>205.60000610352</ele>
        <time>2020-10-18T11:15:25.000Z</time>
      </trkpt>
      <trkpt lat="48.2723" lon="-3.39537">
        <ele>206</ele>
        <time>2020-10-18T11:15:26.000Z</time>
      </trkpt>
      <trkpt lat="48.2723" lon="-3.39537">
        <ele>206</ele>
        <time>2020-10-18T11:15:27.000Z</time>
      </trkpt>
      <trkpt lat="48.27233" lon="-3.39536">
        <ele>206.19999694824</ele>
        <time>2020-10-18T11:15:28.000Z</time>
      </trkpt>
      <trkpt lat="48.27239" lon="-3.39536">
        <ele>206.60000610352</ele>
        <time>2020-10-18T11:15:29.000Z</time>
      </trkpt>
      <trkpt lat="48.27239" lon="-3.39536">
        <ele>206.60000610352</ele>
        <time>2020-10-18T11:15:30.000Z</time>
      </trkpt>
      <trkpt lat="48.27244" lon="-3.39534">
        <ele>206.80000305176</ele>
        <time>2020-10-18T11:15:31.000Z</time>
      </trkpt>
      <trkpt lat="48.27244" lon="-3.39534">
        <ele>206.80000305176</ele>
        <time>2020-10-18T11:15:32.000Z</time>
      </trkpt>
      <trkpt lat="48.27249" lon="-3.39532">
        <ele>207.19999694824</ele>
        <time>2020-10-18T11:15:33.000Z</time>
      </trkpt>
      <trkpt lat="48.27249" lon="-3.39532">
        <ele>207.19999694824</ele>
        <time>2020-10-18T11:15:34.000Z</time>
      </trkpt>
      <trkpt lat="48.27252" lon="-3.39531">
        <ele>207.19999694824</ele>
        <time>2020-10-18T11:15:35.000Z</time>
      </trkpt>
      <trkpt lat="48.27257" lon="-3.39529">
        <ele>207.60000610352</ele>
        <time>2020-10-18T11:15:36.000Z</time>
      </trkpt>
      <trkpt lat="48.27257" lon="-3.39529">
        <ele>207.60000610352</ele>
        <time>2020-10-18T11:15:37.000Z</time>
      </trkpt>
      <trkpt lat="48.27259" lon="-3.39529">
        <ele>207.60000610352</ele>
        <time>2020-10-18T11:15:38.000Z</time>
      </trkpt>
      <trkpt lat="48.27264" lon="-3.39527">
        <ele>207.80000305176</ele>
        <time>2020-10-18T11:15:39.000Z</time>
      </trkpt>
      <trkpt lat="48.27264" lon="-3.39527">
        <ele>207.80000305176</ele>
        <time>2020-10-18T11:15:40.000Z</time>
      </trkpt>
      <trkpt lat="48.27266" lon="-3.39526">
        <ele>208</ele>
        <time>2020-10-18T11:15:41.000Z</time>
      </trkpt>
      <trkpt lat="48.27271" lon="-3.39524">
        <ele>208</ele>
        <time>2020-10-18T11:15:42.000Z</time>
      </trkpt>
      <trkpt lat="48.27271" lon="-3.39524">
        <ele>208</ele>
        <time>2020-10-18T11:15:43.000Z</time>
      </trkpt>
      <trkpt lat="48.27273" lon="-3.39523">
        <ele>208.19999694824</ele>
        <time>2020-10-18T11:15:44.000Z</time>
      </trkpt>
      <trkpt lat="48.27279" lon="-3.39522">
        <ele>208.19999694824</ele>
        <time>2020-10-18T11:15:45.000Z</time>
      </trkpt>
      <trkpt lat="48.27279" lon="-3.39522">
        <ele>208.19999694824</ele>
        <time>2020-10-18T11:15:46.000Z</time>
      </trkpt>
      <trkpt lat="48.27284" lon="-3.3952">
        <ele>208.39999389648</ele>
        <time>2020-10-18T11:15:47.000Z</time>
      </trkpt>
      <trkpt lat="48.27284" lon="-3.3952">
        <ele>208.39999389648</ele>
        <time>2020-10-18T11:15:48.000Z</time>
      </trkpt>
      <trkpt lat="48.27289" lon="-3.39519">
        <ele>208.60000610352</ele>
        <time>2020-10-18T11:15:49.000Z</time>
      </trkpt>
      <trkpt lat="48.27289" lon="-3.39519">
        <ele>208.60000610352</ele>
        <time>2020-10-18T11:15:50.000Z</time>
      </trkpt>
      <trkpt lat="48.27292" lon="-3.39518">
        <ele>208.60000610352</ele>
        <time>2020-10-18T11:15:51.000Z</time>
      </trkpt>
      <trkpt lat="48.27297" lon="-3.39516">
        <ele>208.80000305176</ele>
        <time>2020-10-18T11:15:52.000Z</time>
      </trkpt>
      <trkpt lat="48.27297" lon="-3.39516">
        <ele>208.80000305176</ele>
        <time>2020-10-18T11:15:53.000Z</time>
      </trkpt>
      <trkpt lat="48.273" lon="-3.39516">
        <ele>208.80000305176</ele>
        <time>2020-10-18T11:15:54.000Z</time>
      </trkpt>
      <trkpt lat="48.27305" lon="-3.39514">
        <ele>209</ele>
        <time>2020-10-18T11:15:55.000Z</time>
      </trkpt>
      <trkpt lat="48.27305" lon="-3.39514">
        <ele>209</ele>
        <time>2020-10-18T11:15:56.000Z</time>
      </trkpt>
      <trkpt lat="48.27308" lon="-3.39513">
        <ele>209</ele>
        <time>2020-10-18T11:15:57.000Z</time>
      </trkpt>
      <trkpt lat="48.27313" lon="-3.39511">
        <ele>209.19999694824</ele>
        <time>2020-10-18T11:15:58.000Z</time>
      </trkpt>
      <trkpt lat="48.27313" lon="-3.39511">
        <ele>209.19999694824</ele>
        <time>2020-10-18T11:15:59.000Z</time>
      </trkpt>
      <trkpt lat="48.27316" lon="-3.3951">
        <ele>209.39999389648</ele>
        <time>2020-10-18T11:16:00.000Z</time>
      </trkpt>
      <trkpt lat="48.2732" lon="-3.39509">
        <ele>209.39999389648</ele>
        <time>2020-10-18T11:16:01.000Z</time>
      </trkpt>
      <trkpt lat="48.2732" lon="-3.39509">
        <ele>209.39999389648</ele>
        <time>2020-10-18T11:16:02.000Z</time>
      </trkpt>
      <trkpt lat="48.27323" lon="-3.39508">
        <ele>209.60000610352</ele>
        <time>2020-10-18T11:16:03.000Z</time>
      </trkpt>
      <trkpt lat="48.27328" lon="-3.39506">
        <ele>209.60000610352</ele>
        <time>2020-10-18T11:16:04.000Z</time>
      </trkpt>
      <trkpt lat="48.27328" lon="-3.39506">
        <ele>209.60000610352</ele>
        <time>2020-10-18T11:16:05.000Z</time>
      </trkpt>
      <trkpt lat="48.27333" lon="-3.39504">
        <ele>209.80000305176</ele>
        <time>2020-10-18T11:16:06.000Z</time>
      </trkpt>
      <trkpt lat="48.27333" lon="-3.39504">
        <ele>209.80000305176</ele>
        <time>2020-10-18T11:16:07.000Z</time>
      </trkpt>
      <trkpt lat="48.27336" lon="-3.39503">
        <ele>210</ele>
        <time>2020-10-18T11:16:08.000Z</time>
      </trkpt>
      <trkpt lat="48.27342" lon="-3.39502">
        <ele>210</ele>
        <time>2020-10-18T11:16:09.000Z</time>
      </trkpt>
      <trkpt lat="48.27342" lon="-3.39502">
        <ele>210</ele>
        <time>2020-10-18T11:16:10.000Z</time>
      </trkpt>
      <trkpt lat="48.27345" lon="-3.39501">
        <ele>210.19999694824</ele>
        <time>2020-10-18T11:16:11.000Z</time>
      </trkpt>
      <trkpt lat="48.27351" lon="-3.395">
        <ele>210.19999694824</ele>
        <time>2020-10-18T11:16:12.000Z</time>
      </trkpt>
      <trkpt lat="48.27351" lon="-3.395">
        <ele>210.19999694824</ele>
        <time>2020-10-18T11:16:13.000Z</time>
      </trkpt>
      <trkpt lat="48.27354" lon="-3.39499">
        <ele>210.19999694824</ele>
        <time>2020-10-18T11:16:14.000Z</time>
      </trkpt>
      <trkpt lat="48.27358" lon="-3.39498">
        <ele>210.19999694824</ele>
        <time>2020-10-18T11:16:15.000Z</time>
      </trkpt>
      <trkpt lat="48.27358" lon="-3.39498">
        <ele>210.19999694824</ele>
        <time>2020-10-18T11:16:16.000Z</time>
      </trkpt>
      <trkpt lat="48.2736" lon="-3.39497">
        <ele>210.19999694824</ele>
        <time>2020-10-18T11:16:17.000Z</time>
      </trkpt>
      <trkpt lat="48.27365" lon="-3.39496">
        <ele>210.19999694824</ele>
        <time>2020-10-18T11:16:18.000Z</time>
      </trkpt>
      <trkpt lat="48.27365" lon="-3.39496">
        <ele>210.19999694824</ele>
        <time>2020-10-18T11:16:19.000Z</time>
      </trkpt>
      <trkpt lat="48.27367" lon="-3.39495">
        <ele>210.19999694824</ele>
        <time>2020-10-18T11:16:20.000Z</time>
      </trkpt>
      <trkpt lat="48.2737" lon="-3.39495">
        <ele>210.19999694824</ele>
        <time>2020-10-18T11:16:21.000Z</time>
      </trkpt>
      <trkpt lat="48.2737" lon="-3.39495">
        <ele>210.19999694824</ele>
        <time>2020-10-18T11:16:22.000Z</time>
      </trkpt>
      <trkpt lat="48.27371" lon="-3.39495">
        <ele>210.19999694824</ele>
        <time>2020-10-18T11:16:23.000Z</time>
      </trkpt>
      <trkpt lat="48.27371" lon="-3.39494">
        <ele>210.19999694824</ele>
        <time>2020-10-18T11:16:24.000Z</time>
      </trkpt>
      <trkpt lat="48.27371" lon="-3.39494">
        <ele>210.19999694824</ele>
        <time>2020-10-18T11:16:25.000Z</time>
      </trkpt>
      <trkpt lat="48.27371" lon="-3.39493">
        <ele>210.19999694824</ele>
        <time>2020-10-18T11:16:26.000Z</time>
      </trkpt>
      <trkpt lat="48.27371" lon="-3.39493">
        <ele>210.19999694824</ele>
        <time>2020-10-18T11:16:27.000Z</time>
      </trkpt>
      <trkpt lat="48.27371" lon="-3.39493">
        <ele>210.19999694824</ele>
        <time>2020-10-18T11:16:28.000Z</time>
      </trkpt>
      <trkpt lat="48.27371" lon="-3.39493">
        <ele>210.19999694824</ele>
        <time>2020-10-18T11:16:29.000Z</time>
      </trkpt>
      <trkpt lat="48.27371" lon="-3.39493">
        <ele>210.19999694824</ele>
        <time>2020-10-18T11:16:30.000Z</time>
      </trkpt>
      <trkpt lat="48.27371" lon="-3.39493">
        <ele>210.19999694824</ele>
        <time>2020-10-18T11:16:31.000Z</time>
      </trkpt>
      <trkpt lat="48.27371" lon="-3.39493">
        <ele>210.19999694824</ele>
        <time>2020-10-18T11:16:32.000Z</time>
      </trkpt>
      <trkpt lat="48.27371" lon="-3.39493">
        <ele>210.19999694824</ele>
        <time>2020-10-18T11:16:33.000Z</time>
      </trkpt>
      <trkpt lat="48.27371" lon="-3.39493">
        <ele>210.19999694824</ele>
        <time>2020-10-18T11:16:34.000Z</time>
      </trkpt>
      <trkpt lat="48.27371" lon="-3.39493">
        <ele>210.19999694824</ele>
        <time>2020-10-18T11:16:35.000Z</time>
      </trkpt>
      <trkpt lat="48.27371" lon="-3.39493">
        <ele>210.19999694824</ele>
        <time>2020-10-18T11:16:36.000Z</time>
      </trkpt>
      <trkpt lat="48.27371" lon="-3.39493">
        <ele>210.19999694824</ele>
        <time>2020-10-18T11:16:37.000Z</time>
      </trkpt>
      <trkpt lat="48.27371" lon="-3.39493">
        <ele>210.19999694824</ele>
        <time>2020-10-18T11:16:38.000Z</time>
      </trkpt>
      <trkpt lat="48.27371" lon="-3.39493">
        <ele>210.19999694824</ele>
        <time>2020-10-18T11:16:39.000Z</time>
      </trkpt>
      <trkpt lat="48.27371" lon="-3.39493">
        <ele>210.19999694824</ele>
        <time>2020-10-18T11:16:40.000Z</time>
      </trkpt>
      <trkpt lat="48.27371" lon="-3.39493">
        <ele>210.19999694824</ele>
        <time>2020-10-18T11:16:41.000Z</time>
      </trkpt>
      <trkpt lat="48.27371" lon="-3.39493">
        <ele>210.19999694824</ele>
        <time>2020-10-18T11:16:42.000Z</time>
      </trkpt>
      <trkpt lat="48.27371" lon="-3.39493">
        <ele>210.19999694824</ele>
        <time>2020-10-18T11:16:43.000Z</time>
      </trkpt>
      <trkpt lat="48.27371" lon="-3.39493">
        <ele>210.19999694824</ele>
        <time>2020-10-18T11:16:44.000Z</time>
      </trkpt>
      <trkpt lat="48.27371" lon="-3.39493">
        <ele>210.19999694824</ele>
        <time>2020-10-18T11:16:45.000Z</time>
      </trkpt>
      <trkpt lat="48.27371" lon="-3.39493">
        <ele>210.19999694824</ele>
        <time>2020-10-18T11:16:46.000Z</time>
      </trkpt>
      <trkpt lat="48.27371" lon="-3.39493">
        <ele>210.19999694824</ele>
        <time>2020-10-18T11:16:47.000Z</time>
      </trkpt>
      <trkpt lat="48.27371" lon="-3.39493">
        <ele>210.19999694824</ele>
        <time>2020-10-18T11:16:48.000Z</time>
      </trkpt>
      <trkpt lat="48.27371" lon="-3.39493">
        <ele>210.19999694824</ele>
        <time>2020-10-18T11:16:49.000Z</time>
      </trkpt>
      <trkpt lat="48.27371" lon="-3.39493">
        <ele>210.19999694824</ele>
        <time>2020-10-18T11:16:50.000Z</time>
      </trkpt>
      <trkpt lat="48.27371" lon="-3.39493">
        <ele>210.19999694824</ele>
        <time>2020-10-18T11:16:51.000Z</time>
      </trkpt>
      <trkpt lat="48.27371" lon="-3.39493">
        <ele>210.19999694824</ele>
        <time>2020-10-18T11:16:52.000Z</time>
      </trkpt>
      <trkpt lat="48.27371" lon="-3.39493">
        <ele>210.19999694824</ele>
        <time>2020-10-18T11:16:53.000Z</time>
      </trkpt>
      <trkpt lat="48.27371" lon="-3.39493">
        <ele>210.19999694824</ele>
        <time>2020-10-18T11:16:54.000Z</time>
      </trkpt>
      <trkpt lat="48.27371" lon="-3.39493">
        <ele>210.19999694824</ele>
        <time>2020-10-18T11:16:55.000Z</time>
      </trkpt>
      <trkpt lat="48.27371" lon="-3.39493">
        <ele>210.19999694824</ele>
        <time>2020-10-18T11:16:56.000Z</time>
      </trkpt>
      <trkpt lat="48.27371" lon="-3.39493">
        <ele>210.19999694824</ele>
        <time>2020-10-18T11:16:57.000Z</time>
      </trkpt>
      <trkpt lat="48.27371" lon="-3.39493">
        <ele>210.19999694824</ele>
        <time>2020-10-18T11:16:58.000Z</time>
      </trkpt>
      <trkpt lat="48.27371" lon="-3.39493">
        <ele>210.19999694824</ele>
        <time>2020-10-18T11:16:59.000Z</time>
      </trkpt>
      <trkpt lat="48.27371" lon="-3.39493">
        <ele>210.19999694824</ele>
        <time>2020-10-18T11:17:00.000Z</time>
      </trkpt>
      <trkpt lat="48.27371" lon="-3.39493">
        <ele>210.19999694824</ele>
        <time>2020-10-18T11:17:01.000Z</time>
      </trkpt>
      <trkpt lat="48.27371" lon="-3.39493">
        <ele>210.19999694824</ele>
        <time>2020-10-18T11:17:02.000Z</time>
      </trkpt>
      <trkpt lat="48.27371" lon="-3.39493">
        <ele>210.19999694824</ele>
        <time>2020-10-18T11:17:03.000Z</time>
      </trkpt>
      <trkpt lat="48.27371" lon="-3.39493">
        <ele>210.19999694824</ele>
        <time>2020-10-18T11:17:04.000Z</time>
      </trkpt>
      <trkpt lat="48.27371" lon="-3.39493">
        <ele>210.19999694824</ele>
        <time>2020-10-18T11:17:05.000Z</time>
      </trkpt>
      <trkpt lat="48.27371" lon="-3.39493">
        <ele>210.19999694824</ele>
        <time>2020-10-18T11:17:06.000Z</time>
      </trkpt>
      <trkpt lat="48.27372" lon="-3.39493">
        <ele>210.19999694824</ele>
        <time>2020-10-18T11:17:07.000Z</time>
      </trkpt>
      <trkpt lat="48.27372" lon="-3.39493">
        <ele>210.19999694824</ele>
        <time>2020-10-18T11:17:08.000Z</time>
      </trkpt>
      <trkpt lat="48.27372" lon="-3.39493">
        <ele>210.19999694824</ele>
        <time>2020-10-18T11:17:09.000Z</time>
      </trkpt>
      <trkpt lat="48.27372" lon="-3.39493">
        <ele>210.19999694824</ele>
        <time>2020-10-18T11:17:10.000Z</time>
      </trkpt>
      <trkpt lat="48.27372" lon="-3.39493">
        <ele>210.19999694824</ele>
        <time>2020-10-18T11:17:11.000Z</time>
      </trkpt>
      <trkpt lat="48.27372" lon="-3.39493">
        <ele>210.19999694824</ele>
        <time>2020-10-18T11:17:12.000Z</time>
      </trkpt>
      <trkpt lat="48.27372" lon="-3.39493">
        <ele>210.19999694824</ele>
        <time>2020-10-18T11:17:13.000Z</time>
      </trkpt>
      <trkpt lat="48.27372" lon="-3.39493">
        <ele>210.19999694824</ele>
        <time>2020-10-18T11:17:14.000Z</time>
      </trkpt>
      <trkpt lat="48.27372" lon="-3.39493">
        <ele>210.19999694824</ele>
        <time>2020-10-18T11:17:15.000Z</time>
      </trkpt>
      <trkpt lat="48.27372" lon="-3.39493">
        <ele>210.19999694824</ele>
        <time>2020-10-18T11:17:16.000Z</time>
      </trkpt>
      <trkpt lat="48.27371" lon="-3.39494">
        <ele>210.19999694824</ele>
        <time>2020-10-18T11:17:17.000Z</time>
      </trkpt>
      <trkpt lat="48.27371" lon="-3.39494">
        <ele>210.19999694824</ele>
        <time>2020-10-18T11:17:18.000Z</time>
      </trkpt>
      <trkpt lat="48.27371" lon="-3.39494">
        <ele>210.19999694824</ele>
        <time>2020-10-18T11:17:19.000Z</time>
      </trkpt>
      <trkpt lat="48.2737" lon="-3.39494">
        <ele>210.19999694824</ele>
        <time>2020-10-18T11:17:20.000Z</time>
      </trkpt>
      <trkpt lat="48.27368" lon="-3.39495">
        <ele>210.19999694824</ele>
        <time>2020-10-18T11:17:21.000Z</time>
      </trkpt>
      <trkpt lat="48.27368" lon="-3.39495">
        <ele>210.19999694824</ele>
        <time>2020-10-18T11:17:22.000Z</time>
      </trkpt>
      <trkpt lat="48.27367" lon="-3.39495">
        <ele>210.19999694824</ele>
        <time>2020-10-18T11:17:23.000Z</time>
      </trkpt>
      <trkpt lat="48.27365" lon="-3.39496">
        <ele>210.19999694824</ele>
        <time>2020-10-18T11:17:24.000Z</time>
      </trkpt>
      <trkpt lat="48.27365" lon="-3.39496">
        <ele>210.19999694824</ele>
        <time>2020-10-18T11:17:25.000Z</time>
      </trkpt>
      <trkpt lat="48.27363" lon="-3.39497">
        <ele>210.19999694824</ele>
        <time>2020-10-18T11:17:26.000Z</time>
      </trkpt>
      <trkpt lat="48.27361" lon="-3.39498">
        <ele>210.19999694824</ele>
        <time>2020-10-18T11:17:27.000Z</time>
      </trkpt>
      <trkpt lat="48.27361" lon="-3.39498">
        <ele>210.19999694824</ele>
        <time>2020-10-18T11:17:28.000Z</time>
      </trkpt>
      <trkpt lat="48.27359" lon="-3.39498">
        <ele>210.19999694824</ele>
        <time>2020-10-18T11:17:29.000Z</time>
      </trkpt>
      <trkpt lat="48.27359" lon="-3.39498">
        <ele>210.19999694824</ele>
        <time>2020-10-18T11:17:30.000Z</time>
      </trkpt>
      <trkpt lat="48.27358" lon="-3.39498">
        <ele>210.19999694824</ele>
        <time>2020-10-18T11:17:31.000Z</time>
      </trkpt>
      <trkpt lat="48.27356" lon="-3.39498">
        <ele>210.19999694824</ele>
        <time>2020-10-18T11:17:32.000Z</time>
      </trkpt>
      <trkpt lat="48.27356" lon="-3.39498">
        <ele>210.19999694824</ele>
        <time>2020-10-18T11:17:33.000Z</time>
      </trkpt>
      <trkpt lat="48.27356" lon="-3.39498">
        <ele>210.19999694824</ele>
        <time>2020-10-18T11:17:34.000Z</time>
      </trkpt>
      <trkpt lat="48.27355" lon="-3.39498">
        <ele>210.19999694824</ele>
        <time>2020-10-18T11:17:35.000Z</time>
      </trkpt>
      <trkpt lat="48.27355" lon="-3.39498">
        <ele>210.19999694824</ele>
        <time>2020-10-18T11:17:36.000Z</time>
      </trkpt>
      <trkpt lat="48.27355" lon="-3.39499">
        <ele>210.19999694824</ele>
        <time>2020-10-18T11:17:37.000Z</time>
      </trkpt>
      <trkpt lat="48.27354" lon="-3.39499">
        <ele>210.19999694824</ele>
        <time>2020-10-18T11:17:38.000Z</time>
      </trkpt>
      <trkpt lat="48.27354" lon="-3.39499">
        <ele>210.19999694824</ele>
        <time>2020-10-18T11:17:39.000Z</time>
      </trkpt>
      <trkpt lat="48.27354" lon="-3.39499">
        <ele>210.19999694824</ele>
        <time>2020-10-18T11:17:40.000Z</time>
      </trkpt>
      <trkpt lat="48.27354" lon="-3.39498">
        <ele>210.19999694824</ele>
        <time>2020-10-18T11:17:41.000Z</time>
      </trkpt>
      <trkpt lat="48.27354" lon="-3.39498">
        <ele>210.19999694824</ele>
        <time>2020-10-18T11:17:42.000Z</time>
      </trkpt>
      <trkpt lat="48.27354" lon="-3.39498">
        <ele>210.19999694824</ele>
        <time>2020-10-18T11:17:43.000Z</time>
      </trkpt>
      <trkpt lat="48.27354" lon="-3.39498">
        <ele>210.19999694824</ele>
        <time>2020-10-18T11:17:44.000Z</time>
      </trkpt>
      <trkpt lat="48.27354" lon="-3.39498">
        <ele>210.19999694824</ele>
        <time>2020-10-18T11:17:45.000Z</time>
      </trkpt>
      <trkpt lat="48.27354" lon="-3.39498">
        <ele>210.19999694824</ele>
        <time>2020-10-18T11:17:46.000Z</time>
      </trkpt>
      <trkpt lat="48.27354" lon="-3.39498">
        <ele>210.19999694824</ele>
        <time>2020-10-18T11:17:47.000Z</time>
      </trkpt>
      <trkpt lat="48.27354" lon="-3.39498">
        <ele>210.19999694824</ele>
        <time>2020-10-18T11:17:48.000Z</time>
      </trkpt>
      <trkpt lat="48.27354" lon="-3.39498">
        <ele>210.19999694824</ele>
        <time>2020-10-18T11:17:49.000Z</time>
      </trkpt>
      <trkpt lat="48.27354" lon="-3.39498">
        <ele>210.19999694824</ele>
        <time>2020-10-18T11:17:50.000Z</time>
      </trkpt>
      <trkpt lat="48.27354" lon="-3.39499">
        <ele>210.19999694824</ele>
        <time>2020-10-18T11:17:51.000Z</time>
      </trkpt>
      <trkpt lat="48.27354" lon="-3.39499">
        <ele>210.19999694824</ele>
        <time>2020-10-18T11:17:52.000Z</time>
      </trkpt>
      <trkpt lat="48.27355" lon="-3.39499">
        <ele>210.19999694824</ele>
        <time>2020-10-18T11:17:53.000Z</time>
      </trkpt>
      <trkpt lat="48.27355" lon="-3.39499">
        <ele>210.19999694824</ele>
        <time>2020-10-18T11:17:54.000Z</time>
      </trkpt>
      <trkpt lat="48.27355" lon="-3.39499">
        <ele>210.19999694824</ele>
        <time>2020-10-18T11:17:55.000Z</time>
      </trkpt>
      <trkpt lat="48.27355" lon="-3.39499">
        <ele>210.19999694824</ele>
        <time>2020-10-18T11:17:56.000Z</time>
      </trkpt>
      <trkpt lat="48.27357" lon="-3.39498">
        <ele>210.19999694824</ele>
        <time>2020-10-18T11:17:57.000Z</time>
      </trkpt>
      <trkpt lat="48.27357" lon="-3.39498">
        <ele>210.19999694824</ele>
        <time>2020-10-18T11:17:58.000Z</time>
      </trkpt>
      <trkpt lat="48.27357" lon="-3.39498">
        <ele>210.19999694824</ele>
        <time>2020-10-18T11:17:59.000Z</time>
      </trkpt>
      <trkpt lat="48.27359" lon="-3.39498">
        <ele>210.19999694824</ele>
        <time>2020-10-18T11:18:00.000Z</time>
      </trkpt>
      <trkpt lat="48.27359" lon="-3.39498">
        <ele>210.19999694824</ele>
        <time>2020-10-18T11:18:01.000Z</time>
      </trkpt>
      <trkpt lat="48.27359" lon="-3.39498">
        <ele>210.19999694824</ele>
        <time>2020-10-18T11:18:02.000Z</time>
      </trkpt>
      <trkpt lat="48.2736" lon="-3.39498">
        <ele>210.19999694824</ele>
        <time>2020-10-18T11:18:03.000Z</time>
      </trkpt>
      <trkpt lat="48.2736" lon="-3.39498">
        <ele>210.19999694824</ele>
        <time>2020-10-18T11:18:04.000Z</time>
      </trkpt>
      <trkpt lat="48.27361" lon="-3.39497">
        <ele>210.19999694824</ele>
        <time>2020-10-18T11:18:05.000Z</time>
      </trkpt>
      <trkpt lat="48.27362" lon="-3.39497">
        <ele>210.19999694824</ele>
        <time>2020-10-18T11:18:06.000Z</time>
      </trkpt>
      <trkpt lat="48.27362" lon="-3.39497">
        <ele>210.19999694824</ele>
        <time>2020-10-18T11:18:07.000Z</time>
      </trkpt>
      <trkpt lat="48.27362" lon="-3.39496">
        <ele>210.19999694824</ele>
        <time>2020-10-18T11:18:08.000Z</time>
      </trkpt>
      <trkpt lat="48.27363" lon="-3.39496">
        <ele>210.19999694824</ele>
        <time>2020-10-18T11:18:09.000Z</time>
      </trkpt>
      <trkpt lat="48.27363" lon="-3.39496">
        <ele>210.19999694824</ele>
        <time>2020-10-18T11:18:10.000Z</time>
      </trkpt>
      <trkpt lat="48.27363" lon="-3.39496">
        <ele>210.19999694824</ele>
        <time>2020-10-18T11:18:11.000Z</time>
      </trkpt>
      <trkpt lat="48.27364" lon="-3.39496">
        <ele>210.19999694824</ele>
        <time>2020-10-18T11:18:12.000Z</time>
      </trkpt>
      <trkpt lat="48.27364" lon="-3.39496">
        <ele>210.19999694824</ele>
        <time>2020-10-18T11:18:13.000Z</time>
      </trkpt>
      <trkpt lat="48.27364" lon="-3.39496">
        <ele>210.19999694824</ele>
        <time>2020-10-18T11:18:14.000Z</time>
      </trkpt>
      <trkpt lat="48.27365" lon="-3.39495">
        <ele>210.19999694824</ele>
        <time>2020-10-18T11:18:15.000Z</time>
      </trkpt>
      <trkpt lat="48.27365" lon="-3.39495">
        <ele>210.19999694824</ele>
        <time>2020-10-18T11:18:16.000Z</time>
      </trkpt>
      <trkpt lat="48.27366" lon="-3.39495">
        <ele>210.19999694824</ele>
        <time>2020-10-18T11:18:17.000Z</time>
      </trkpt>
      <trkpt lat="48.27366" lon="-3.39495">
        <ele>210.19999694824</ele>
        <time>2020-10-18T11:18:18.000Z</time>
      </trkpt>
      <trkpt lat="48.27367" lon="-3.39494">
        <ele>210.19999694824</ele>
        <time>2020-10-18T11:18:19.000Z</time>
      </trkpt>
      <trkpt lat="48.27368" lon="-3.39494">
        <ele>210.19999694824</ele>
        <time>2020-10-18T11:18:20.000Z</time>
      </trkpt>
      <trkpt lat="48.27368" lon="-3.39494">
        <ele>210.19999694824</ele>
        <time>2020-10-18T11:18:21.000Z</time>
      </trkpt>
      <trkpt lat="48.27368" lon="-3.39494">
        <ele>210.19999694824</ele>
        <time>2020-10-18T11:18:22.000Z</time>
      </trkpt>
      <trkpt lat="48.27368" lon="-3.39494">
        <ele>210.19999694824</ele>
        <time>2020-10-18T11:18:23.000Z</time>
      </trkpt>
      <trkpt lat="48.27368" lon="-3.39494">
        <ele>210.19999694824</ele>
        <time>2020-10-18T11:18:24.000Z</time>
      </trkpt>
      <trkpt lat="48.27368" lon="-3.39494">
        <ele>210.19999694824</ele>
        <time>2020-10-18T11:18:25.000Z</time>
      </trkpt>
      <trkpt lat="48.27368" lon="-3.39495">
        <ele>210.19999694824</ele>
        <time>2020-10-18T11:18:26.000Z</time>
      </trkpt>
      <trkpt lat="48.27368" lon="-3.39495">
        <ele>210.19999694824</ele>
        <time>2020-10-18T11:18:27.000Z</time>
      </trkpt>
      <trkpt lat="48.27368" lon="-3.39495">
        <ele>210.19999694824</ele>
        <time>2020-10-18T11:18:28.000Z</time>
      </trkpt>
      <trkpt lat="48.27369" lon="-3.39494">
        <ele>210.19999694824</ele>
        <time>2020-10-18T11:18:29.000Z</time>
      </trkpt>
      <trkpt lat="48.27369" lon="-3.39494">
        <ele>210.19999694824</ele>
        <time>2020-10-18T11:18:30.000Z</time>
      </trkpt>
      <trkpt lat="48.2737" lon="-3.39494">
        <ele>210.19999694824</ele>
        <time>2020-10-18T11:18:31.000Z</time>
      </trkpt>
      <trkpt lat="48.2737" lon="-3.39495">
        <ele>210.19999694824</ele>
        <time>2020-10-18T11:18:32.000Z</time>
      </trkpt>
      <trkpt lat="48.2737" lon="-3.39495">
        <ele>210.19999694824</ele>
        <time>2020-10-18T11:18:33.000Z</time>
      </trkpt>
      <trkpt lat="48.2737" lon="-3.39495">
        <ele>210.19999694824</ele>
        <time>2020-10-18T11:18:34.000Z</time>
      </trkpt>
      <trkpt lat="48.27371" lon="-3.39495">
        <ele>210.19999694824</ele>
        <time>2020-10-18T11:18:35.000Z</time>
      </trkpt>
      <trkpt lat="48.27371" lon="-3.39495">
        <ele>210.19999694824</ele>
        <time>2020-10-18T11:18:36.000Z</time>
      </trkpt>
      <trkpt lat="48.27371" lon="-3.39495">
        <ele>210.19999694824</ele>
        <time>2020-10-18T11:18:37.000Z</time>
      </trkpt>
      <trkpt lat="48.27371" lon="-3.39495">
        <ele>210.19999694824</ele>
        <time>2020-10-18T11:18:38.000Z</time>
      </trkpt>
      <trkpt lat="48.27371" lon="-3.39495">
        <ele>210.19999694824</ele>
        <time>2020-10-18T11:18:39.000Z</time>
      </trkpt>
      <trkpt lat="48.27371" lon="-3.39495">
        <ele>210.19999694824</ele>
        <time>2020-10-18T11:18:40.000Z</time>
      </trkpt>
      <trkpt lat="48.27371" lon="-3.39495">
        <ele>210.19999694824</ele>
        <time>2020-10-18T11:18:41.000Z</time>
      </trkpt>
      <trkpt lat="48.27371" lon="-3.39495">
        <ele>210.19999694824</ele>
        <time>2020-10-18T11:18:42.000Z</time>
      </trkpt>
      <trkpt lat="48.27371" lon="-3.39495">
        <ele>210.19999694824</ele>
        <time>2020-10-18T11:18:43.000Z</time>
      </trkpt>
      <trkpt lat="48.2737" lon="-3.39494">
        <ele>210.19999694824</ele>
        <time>2020-10-18T11:18:44.000Z</time>
      </trkpt>
      <trkpt lat="48.2737" lon="-3.39494">
        <ele>210.19999694824</ele>
        <time>2020-10-18T11:18:45.000Z</time>
      </trkpt>
      <trkpt lat="48.2737" lon="-3.39494">
        <ele>210.19999694824</ele>
        <time>2020-10-18T11:18:46.000Z</time>
      </trkpt>
      <trkpt lat="48.2737" lon="-3.39494">
        <ele>210.19999694824</ele>
        <time>2020-10-18T11:18:47.000Z</time>
      </trkpt>
      <trkpt lat="48.2737" lon="-3.39494">
        <ele>210.19999694824</ele>
        <time>2020-10-18T11:18:48.000Z</time>
      </trkpt>
      <trkpt lat="48.2737" lon="-3.39494">
        <ele>210.19999694824</ele>
        <time>2020-10-18T11:18:49.000Z</time>
      </trkpt>
      <trkpt lat="48.2737" lon="-3.39494">
        <ele>210.19999694824</ele>
        <time>2020-10-18T11:18:50.000Z</time>
      </trkpt>
      <trkpt lat="48.2737" lon="-3.39494">
        <ele>210.19999694824</ele>
        <time>2020-10-18T11:18:51.000Z</time>
      </trkpt>
      <trkpt lat="48.2737" lon="-3.39494">
        <ele>210.19999694824</ele>
        <time>2020-10-18T11:18:52.000Z</time>
      </trkpt>
      <trkpt lat="48.2737" lon="-3.39494">
        <ele>210.19999694824</ele>
        <time>2020-10-18T11:18:53.000Z</time>
      </trkpt>
      <trkpt lat="48.2737" lon="-3.39494">
        <ele>210.19999694824</ele>
        <time>2020-10-18T11:18:54.000Z</time>
      </trkpt>
      <trkpt lat="48.2737" lon="-3.39494">
        <ele>210.19999694824</ele>
        <time>2020-10-18T11:18:55.000Z</time>
      </trkpt>
      <trkpt lat="48.2737" lon="-3.39494">
        <ele>210.19999694824</ele>
        <time>2020-10-18T11:18:56.000Z</time>
      </trkpt>
      <trkpt lat="48.2737" lon="-3.39494">
        <ele>210.19999694824</ele>
        <time>2020-10-18T11:18:57.000Z</time>
      </trkpt>
      <trkpt lat="48.2737" lon="-3.39494">
        <ele>210.19999694824</ele>
        <time>2020-10-18T11:18:58.000Z</time>
      </trkpt>
      <trkpt lat="48.2737" lon="-3.39494">
        <ele>210.19999694824</ele>
        <time>2020-10-18T11:18:59.000Z</time>
      </trkpt>
      <trkpt lat="48.2737" lon="-3.39494">
        <ele>210.19999694824</ele>
        <time>2020-10-18T11:19:00.000Z</time>
      </trkpt>
      <trkpt lat="48.2737" lon="-3.39494">
        <ele>210.19999694824</ele>
        <time>2020-10-18T11:19:01.000Z</time>
      </trkpt>
      <trkpt lat="48.2737" lon="-3.39494">
        <ele>210.19999694824</ele>
        <time>2020-10-18T11:19:02.000Z</time>
      </trkpt>
      <trkpt lat="48.2737" lon="-3.39494">
        <ele>210.19999694824</ele>
        <time>2020-10-18T11:19:03.000Z</time>
      </trkpt>
      <trkpt lat="48.2737" lon="-3.39494">
        <ele>210.19999694824</ele>
        <time>2020-10-18T11:19:04.000Z</time>
      </trkpt>
      <trkpt lat="48.2737" lon="-3.39494">
        <ele>210.19999694824</ele>
        <time>2020-10-18T11:19:05.000Z</time>
      </trkpt>
      <trkpt lat="48.2737" lon="-3.39494">
        <ele>210.19999694824</ele>
        <time>2020-10-18T11:19:06.000Z</time>
      </trkpt>
      <trkpt lat="48.2737" lon="-3.39494">
        <ele>210.19999694824</ele>
        <time>2020-10-18T11:19:07.000Z</time>
      </trkpt>
      <trkpt lat="48.2737" lon="-3.39494">
        <ele>210.19999694824</ele>
        <time>2020-10-18T11:19:08.000Z</time>
      </trkpt>
      <trkpt lat="48.2737" lon="-3.39494">
        <ele>210.19999694824</ele>
        <time>2020-10-18T11:19:09.000Z</time>
      </trkpt>
      <trkpt lat="48.2737" lon="-3.39494">
        <ele>210.19999694824</ele>
        <time>2020-10-18T11:19:10.000Z</time>
      </trkpt>
      <trkpt lat="48.2737" lon="-3.39494">
        <ele>210.19999694824</ele>
        <time>2020-10-18T11:19:11.000Z</time>
      </trkpt>
      <trkpt lat="48.2737" lon="-3.39494">
        <ele>210.19999694824</ele>
        <time>2020-10-18T11:19:12.000Z</time>
      </trkpt>
      <trkpt lat="48.2737" lon="-3.39494">
        <ele>210.19999694824</ele>
        <time>2020-10-18T11:19:13.000Z</time>
      </trkpt>
      <trkpt lat="48.2737" lon="-3.39494">
        <ele>210.19999694824</ele>
        <time>2020-10-18T11:19:14.000Z</time>
      </trkpt>
      <trkpt lat="48.2737" lon="-3.39494">
        <ele>210.19999694824</ele>
        <time>2020-10-18T11:19:15.000Z</time>
      </trkpt>
      <trkpt lat="48.2737" lon="-3.39494">
        <ele>210.19999694824</ele>
        <time>2020-10-18T11:19:16.000Z</time>
      </trkpt>
      <trkpt lat="48.2737" lon="-3.39494">
        <ele>210.19999694824</ele>
        <time>2020-10-18T11:19:17.000Z</time>
      </trkpt>
      <trkpt lat="48.2737" lon="-3.39494">
        <ele>210.19999694824</ele>
        <time>2020-10-18T11:19:18.000Z</time>
      </trkpt>
      <trkpt lat="48.2737" lon="-3.39494">
        <ele>210.19999694824</ele>
        <time>2020-10-18T11:19:19.000Z</time>
      </trkpt>
      <trkpt lat="48.2737" lon="-3.39494">
        <ele>210.19999694824</ele>
        <time>2020-10-18T11:19:20.000Z</time>
      </trkpt>
      <trkpt lat="48.2737" lon="-3.39494">
        <ele>210.19999694824</ele>
        <time>2020-10-18T11:19:21.000Z</time>
      </trkpt>
      <trkpt lat="48.2737" lon="-3.39494">
        <ele>210.19999694824</ele>
        <time>2020-10-18T11:19:22.000Z</time>
      </trkpt>
      <trkpt lat="48.2737" lon="-3.39494">
        <ele>210.19999694824</ele>
        <time>2020-10-18T11:19:23.000Z</time>
      </trkpt>
      <trkpt lat="48.2737" lon="-3.39494">
        <ele>210.19999694824</ele>
        <time>2020-10-18T11:19:24.000Z</time>
      </trkpt>
      <trkpt lat="48.2737" lon="-3.39494">
        <ele>210.19999694824</ele>
        <time>2020-10-18T11:19:25.000Z</time>
      </trkpt>
      <trkpt lat="48.2737" lon="-3.39494">
        <ele>210.19999694824</ele>
        <time>2020-10-18T11:19:26.000Z</time>
      </trkpt>
      <trkpt lat="48.2737" lon="-3.39494">
        <ele>210.19999694824</ele>
        <time>2020-10-18T11:19:27.000Z</time>
      </trkpt>
      <trkpt lat="48.2737" lon="-3.39494">
        <ele>210.19999694824</ele>
        <time>2020-10-18T11:19:28.000Z</time>
      </trkpt>
      <trkpt lat="48.2737" lon="-3.39494">
        <ele>210.19999694824</ele>
        <time>2020-10-18T11:19:29.000Z</time>
      </trkpt>
      <trkpt lat="48.2737" lon="-3.39494">
        <ele>210.19999694824</ele>
        <time>2020-10-18T11:19:30.000Z</time>
      </trkpt>
      <trkpt lat="48.2737" lon="-3.39494">
        <ele>210.19999694824</ele>
        <time>2020-10-18T11:19:31.000Z</time>
      </trkpt>
      <trkpt lat="48.2737" lon="-3.39494">
        <ele>210.19999694824</ele>
        <time>2020-10-18T11:19:32.000Z</time>
      </trkpt>
      <trkpt lat="48.2737" lon="-3.39494">
        <ele>210.19999694824</ele>
        <time>2020-10-18T11:19:33.000Z</time>
      </trkpt>
      <trkpt lat="48.2737" lon="-3.39494">
        <ele>210.19999694824</ele>
        <time>2020-10-18T11:19:34.000Z</time>
      </trkpt>
      <trkpt lat="48.2737" lon="-3.39494">
        <ele>210.19999694824</ele>
        <time>2020-10-18T11:19:35.000Z</time>
      </trkpt>
      <trkpt lat="48.2737" lon="-3.39494">
        <ele>210.19999694824</ele>
        <time>2020-10-18T11:19:36.000Z</time>
      </trkpt>
      <trkpt lat="48.2737" lon="-3.39494">
        <ele>210.19999694824</ele>
        <time>2020-10-18T11:19:37.000Z</time>
      </trkpt>
      <trkpt lat="48.2737" lon="-3.39494">
        <ele>210.19999694824</ele>
        <time>2020-10-18T11:19:38.000Z</time>
      </trkpt>
      <trkpt lat="48.2737" lon="-3.39494">
        <ele>210.19999694824</ele>
        <time>2020-10-18T11:19:39.000Z</time>
      </trkpt>
      <trkpt lat="48.2737" lon="-3.39494">
        <ele>210.19999694824</ele>
        <time>2020-10-18T11:19:40.000Z</time>
      </trkpt>
      <trkpt lat="48.2737" lon="-3.39494">
        <ele>210.19999694824</ele>
        <time>2020-10-18T11:19:41.000Z</time>
      </trkpt>
      <trkpt lat="48.2737" lon="-3.39494">
        <ele>210.19999694824</ele>
        <time>2020-10-18T11:19:42.000Z</time>
      </trkpt>
      <trkpt lat="48.2737" lon="-3.39494">
        <ele>210.19999694824</ele>
        <time>2020-10-18T11:19:43.000Z</time>
      </trkpt>
      <trkpt lat="48.2737" lon="-3.39494">
        <ele>210.19999694824</ele>
        <time>2020-10-18T11:19:44.000Z</time>
      </trkpt>
      <trkpt lat="48.2737" lon="-3.39494">
        <ele>210.19999694824</ele>
        <time>2020-10-18T11:19:45.000Z</time>
      </trkpt>
      <trkpt lat="48.2737" lon="-3.39494">
        <ele>210.19999694824</ele>
        <time>2020-10-18T11:19:46.000Z</time>
      </trkpt>
      <trkpt lat="48.2737" lon="-3.39494">
        <ele>210.19999694824</ele>
        <time>2020-10-18T11:19:47.000Z</time>
      </trkpt>
      <trkpt lat="48.2737" lon="-3.39494">
        <ele>210.19999694824</ele>
        <time>2020-10-18T11:19:48.000Z</time>
      </trkpt>
      <trkpt lat="48.2737" lon="-3.39494">
        <ele>210.19999694824</ele>
        <time>2020-10-18T11:19:49.000Z</time>
      </trkpt>
      <trkpt lat="48.2737" lon="-3.39494">
        <ele>210.19999694824</ele>
        <time>2020-10-18T11:19:50.000Z</time>
      </trkpt>
      <trkpt lat="48.2737" lon="-3.39494">
        <ele>210.19999694824</ele>
        <time>2020-10-18T11:19:51.000Z</time>
      </trkpt>
      <trkpt lat="48.2737" lon="-3.39494">
        <ele>210.19999694824</ele>
        <time>2020-10-18T11:19:52.000Z</time>
      </trkpt>
      <trkpt lat="48.2737" lon="-3.39494">
        <ele>210.19999694824</ele>
        <time>2020-10-18T11:19:53.000Z</time>
      </trkpt>
      <trkpt lat="48.2737" lon="-3.39494">
        <ele>210.19999694824</ele>
        <time>2020-10-18T11:19:54.000Z</time>
      </trkpt>
      <trkpt lat="48.2737" lon="-3.39494">
        <ele>210.19999694824</ele>
        <time>2020-10-18T11:19:55.000Z</time>
      </trkpt>
      <trkpt lat="48.2737" lon="-3.39494">
        <ele>210.19999694824</ele>
        <time>2020-10-18T11:19:56.000Z</time>
      </trkpt>
      <trkpt lat="48.2737" lon="-3.39494">
        <ele>210.19999694824</ele>
        <time>2020-10-18T11:19:57.000Z</time>
      </trkpt>
      <trkpt lat="48.2737" lon="-3.39494">
        <ele>210.19999694824</ele>
        <time>2020-10-18T11:19:58.000Z</time>
      </trkpt>
      <trkpt lat="48.2737" lon="-3.39494">
        <ele>210.19999694824</ele>
        <time>2020-10-18T11:19:59.000Z</time>
      </trkpt>
      <trkpt lat="48.2737" lon="-3.39494">
        <ele>210.19999694824</ele>
        <time>2020-10-18T11:20:00.000Z</time>
      </trkpt>
      <trkpt lat="48.2737" lon="-3.39494">
        <ele>210.19999694824</ele>
        <time>2020-10-18T11:20:01.000Z</time>
      </trkpt>
      <trkpt lat="48.2737" lon="-3.39495">
        <ele>210.19999694824</ele>
        <time>2020-10-18T11:20:02.000Z</time>
      </trkpt>
      <trkpt lat="48.2737" lon="-3.39495">
        <ele>210.19999694824</ele>
        <time>2020-10-18T11:20:03.000Z</time>
      </trkpt>
      <trkpt lat="48.27369" lon="-3.39495">
        <ele>210.19999694824</ele>
        <time>2020-10-18T11:20:04.000Z</time>
      </trkpt>
      <trkpt lat="48.27369" lon="-3.39495">
        <ele>210.19999694824</ele>
        <time>2020-10-18T11:20:05.000Z</time>
      </trkpt>
      <trkpt lat="48.27369" lon="-3.39495">
        <ele>210.19999694824</ele>
        <time>2020-10-18T11:20:06.000Z</time>
      </trkpt>
      <trkpt lat="48.27369" lon="-3.39495">
        <ele>210.19999694824</ele>
        <time>2020-10-18T11:20:07.000Z</time>
      </trkpt>
      <trkpt lat="48.27369" lon="-3.39495">
        <ele>210.19999694824</ele>
        <time>2020-10-18T11:20:08.000Z</time>
      </trkpt>
      <trkpt lat="48.27369" lon="-3.39495">
        <ele>210.19999694824</ele>
        <time>2020-10-18T11:20:09.000Z</time>
      </trkpt>
      <trkpt lat="48.27369" lon="-3.39495">
        <ele>210.19999694824</ele>
        <time>2020-10-18T11:20:10.000Z</time>
      </trkpt>
      <trkpt lat="48.27369" lon="-3.39495">
        <ele>210.19999694824</ele>
        <time>2020-10-18T11:20:11.000Z</time>
      </trkpt>
      <trkpt lat="48.27369" lon="-3.39495">
        <ele>210.19999694824</ele>
        <time>2020-10-18T11:20:12.000Z</time>
      </trkpt>
      <trkpt lat="48.27369" lon="-3.39494">
        <ele>210.19999694824</ele>
        <time>2020-10-18T11:20:13.000Z</time>
      </trkpt>
      <trkpt lat="48.27369" lon="-3.39494">
        <ele>210.19999694824</ele>
        <time>2020-10-18T11:20:14.000Z</time>
      </trkpt>
      <trkpt lat="48.27369" lon="-3.39494">
        <ele>210.19999694824</ele>
        <time>2020-10-18T11:20:15.000Z</time>
      </trkpt>
      <trkpt lat="48.27369" lon="-3.39494">
        <ele>210.19999694824</ele>
        <time>2020-10-18T11:20:16.000Z</time>
      </trkpt>
      <trkpt lat="48.27369" lon="-3.39494">
        <ele>210.19999694824</ele>
        <time>2020-10-18T11:20:17.000Z</time>
      </trkpt>
      <trkpt lat="48.27369" lon="-3.39494">
        <ele>210.19999694824</ele>
        <time>2020-10-18T11:20:18.000Z</time>
      </trkpt>
      <trkpt lat="48.27369" lon="-3.39494">
        <ele>210.19999694824</ele>
        <time>2020-10-18T11:20:19.000Z</time>
      </trkpt>
      <trkpt lat="48.27369" lon="-3.39494">
        <ele>210.19999694824</ele>
        <time>2020-10-18T11:20:20.000Z</time>
      </trkpt>
      <trkpt lat="48.27369" lon="-3.39494">
        <ele>210.19999694824</ele>
        <time>2020-10-18T11:20:21.000Z</time>
      </trkpt>
      <trkpt lat="48.27369" lon="-3.39494">
        <ele>210.19999694824</ele>
        <time>2020-10-18T11:20:22.000Z</time>
      </trkpt>
      <trkpt lat="48.27369" lon="-3.39494">
        <ele>210.19999694824</ele>
        <time>2020-10-18T11:20:23.000Z</time>
      </trkpt>
      <trkpt lat="48.27369" lon="-3.39494">
        <ele>210.19999694824</ele>
        <time>2020-10-18T11:20:24.000Z</time>
      </trkpt>
      <trkpt lat="48.2737" lon="-3.39494">
        <ele>210.19999694824</ele>
        <time>2020-10-18T11:20:25.000Z</time>
      </trkpt>
      <trkpt lat="48.2737" lon="-3.39494">
        <ele>210.19999694824</ele>
        <time>2020-10-18T11:20:26.000Z</time>
      </trkpt>
      <trkpt lat="48.2737" lon="-3.39494">
        <ele>210.19999694824</ele>
        <time>2020-10-18T11:20:27.000Z</time>
      </trkpt>
      <trkpt lat="48.2737" lon="-3.39494">
        <ele>210.19999694824</ele>
        <time>2020-10-18T11:20:28.000Z</time>
      </trkpt>
      <trkpt lat="48.2737" lon="-3.39494">
        <ele>210.19999694824</ele>
        <time>2020-10-18T11:20:29.000Z</time>
      </trkpt>
      <trkpt lat="48.27369" lon="-3.39494">
        <ele>210.19999694824</ele>
        <time>2020-10-18T11:20:30.000Z</time>
      </trkpt>
      <trkpt lat="48.27369" lon="-3.39494">
        <ele>210.19999694824</ele>
        <time>2020-10-18T11:20:31.000Z</time>
      </trkpt>
      <trkpt lat="48.27369" lon="-3.39494">
        <ele>210.19999694824</ele>
        <time>2020-10-18T11:20:32.000Z</time>
      </trkpt>
      <trkpt lat="48.27369" lon="-3.39494">
        <ele>210.19999694824</ele>
        <time>2020-10-18T11:20:33.000Z</time>
      </trkpt>
      <trkpt lat="48.27369" lon="-3.39494">
        <ele>210.19999694824</ele>
        <time>2020-10-18T11:20:34.000Z</time>
      </trkpt>
      <trkpt lat="48.27369" lon="-3.39494">
        <ele>210.19999694824</ele>
        <time>2020-10-18T11:20:35.000Z</time>
      </trkpt>
      <trkpt lat="48.27369" lon="-3.39494">
        <ele>210.19999694824</ele>
        <time>2020-10-18T11:20:36.000Z</time>
      </trkpt>
      <trkpt lat="48.27369" lon="-3.39494">
        <ele>210.19999694824</ele>
        <time>2020-10-18T11:20:37.000Z</time>
      </trkpt>
      <trkpt lat="48.27369" lon="-3.39494">
        <ele>210.19999694824</ele>
        <time>2020-10-18T11:20:38.000Z</time>
      </trkpt>
      <trkpt lat="48.27369" lon="-3.39494">
        <ele>210.19999694824</ele>
        <time>2020-10-18T11:20:39.000Z</time>
      </trkpt>
      <trkpt lat="48.27369" lon="-3.39494">
        <ele>210.19999694824</ele>
        <time>2020-10-18T11:20:40.000Z</time>
      </trkpt>
      <trkpt lat="48.27369" lon="-3.39494">
        <ele>210.19999694824</ele>
        <time>2020-10-18T11:20:41.000Z</time>
      </trkpt>
      <trkpt lat="48.27369" lon="-3.39494">
        <ele>210.19999694824</ele>
        <time>2020-10-18T11:20:42.000Z</time>
      </trkpt>
      <trkpt lat="48.27369" lon="-3.39494">
        <ele>210.19999694824</ele>
        <time>2020-10-18T11:20:43.000Z</time>
      </trkpt>
      <trkpt lat="48.27369" lon="-3.39494">
        <ele>210.19999694824</ele>
        <time>2020-10-18T11:20:44.000Z</time>
      </trkpt>
      <trkpt lat="48.27369" lon="-3.39494">
        <ele>210.19999694824</ele>
        <time>2020-10-18T11:20:45.000Z</time>
      </trkpt>
      <trkpt lat="48.27369" lon="-3.39494">
        <ele>210.19999694824</ele>
        <time>2020-10-18T11:20:46.000Z</time>
      </trkpt>
      <trkpt lat="48.27369" lon="-3.39494">
        <ele>210.19999694824</ele>
        <time>2020-10-18T11:20:47.000Z</time>
      </trkpt>
      <trkpt lat="48.27369" lon="-3.39494">
        <ele>210.19999694824</ele>
        <time>2020-10-18T11:20:48.000Z</time>
      </trkpt>
      <trkpt lat="48.27369" lon="-3.39494">
        <ele>210.19999694824</ele>
        <time>2020-10-18T11:20:49.000Z</time>
      </trkpt>
      <trkpt lat="48.27369" lon="-3.39494">
        <ele>210.19999694824</ele>
        <time>2020-10-18T11:20:50.000Z</time>
      </trkpt>
      <trkpt lat="48.27369" lon="-3.39494">
        <ele>210.19999694824</ele>
        <time>2020-10-18T11:20:51.000Z</time>
      </trkpt>
      <trkpt lat="48.27369" lon="-3.39494">
        <ele>210.19999694824</ele>
        <time>2020-10-18T11:20:52.000Z</time>
      </trkpt>
      <trkpt lat="48.27369" lon="-3.39494">
        <ele>210.19999694824</ele>
        <time>2020-10-18T11:20:53.000Z</time>
      </trkpt>
      <trkpt lat="48.27369" lon="-3.39494">
        <ele>210.19999694824</ele>
        <time>2020-10-18T11:20:54.000Z</time>
      </trkpt>
      <trkpt lat="48.27369" lon="-3.39494">
        <ele>210.19999694824</ele>
        <time>2020-10-18T11:20:55.000Z</time>
      </trkpt>
      <trkpt lat="48.27369" lon="-3.39494">
        <ele>210.19999694824</ele>
        <time>2020-10-18T11:20:56.000Z</time>
      </trkpt>
      <trkpt lat="48.27369" lon="-3.39494">
        <ele>210.19999694824</ele>
        <time>2020-10-18T11:20:57.000Z</time>
      </trkpt>
      <trkpt lat="48.27369" lon="-3.39494">
        <ele>210.19999694824</ele>
        <time>2020-10-18T11:20:58.000Z</time>
      </trkpt>
      <trkpt lat="48.27369" lon="-3.39494">
        <ele>210.19999694824</ele>
        <time>2020-10-18T11:20:59.000Z</time>
      </trkpt>
      <trkpt lat="48.27369" lon="-3.39494">
        <ele>210.19999694824</ele>
        <time>2020-10-18T11:21:00.000Z</time>
      </trkpt>
      <trkpt lat="48.27369" lon="-3.39494">
        <ele>210.19999694824</ele>
        <time>2020-10-18T11:21:01.000Z</time>
      </trkpt>
      <trkpt lat="48.27369" lon="-3.39494">
        <ele>210.19999694824</ele>
        <time>2020-10-18T11:21:02.000Z</time>
      </trkpt>
      <trkpt lat="48.2737" lon="-3.39494">
        <ele>210.19999694824</ele>
        <time>2020-10-18T11:21:03.000Z</time>
      </trkpt>
      <trkpt lat="48.2737" lon="-3.39494">
        <ele>210.19999694824</ele>
        <time>2020-10-18T11:21:04.000Z</time>
      </trkpt>
      <trkpt lat="48.27369" lon="-3.39494">
        <ele>210.19999694824</ele>
        <time>2020-10-18T11:21:05.000Z</time>
      </trkpt>
      <trkpt lat="48.27369" lon="-3.39494">
        <ele>210.19999694824</ele>
        <time>2020-10-18T11:21:06.000Z</time>
      </trkpt>
      <trkpt lat="48.27369" lon="-3.39494">
        <ele>210.19999694824</ele>
        <time>2020-10-18T11:21:07.000Z</time>
      </trkpt>
      <trkpt lat="48.27369" lon="-3.39494">
        <ele>210.19999694824</ele>
        <time>2020-10-18T11:21:08.000Z</time>
      </trkpt>
      <trkpt lat="48.27369" lon="-3.39494">
        <ele>210.19999694824</ele>
        <time>2020-10-18T11:21:09.000Z</time>
      </trkpt>
      <trkpt lat="48.27369" lon="-3.39494">
        <ele>210.19999694824</ele>
        <time>2020-10-18T11:21:10.000Z</time>
      </trkpt>
      <trkpt lat="48.27369" lon="-3.39494">
        <ele>210.19999694824</ele>
        <time>2020-10-18T11:21:11.000Z</time>
      </trkpt>
      <trkpt lat="48.27369" lon="-3.39494">
        <ele>210.19999694824</ele>
        <time>2020-10-18T11:21:12.000Z</time>
      </trkpt>
      <trkpt lat="48.2737" lon="-3.39493">
        <ele>210.19999694824</ele>
        <time>2020-10-18T11:21:13.000Z</time>
      </trkpt>
      <trkpt lat="48.2737" lon="-3.39493">
        <ele>210.19999694824</ele>
        <time>2020-10-18T11:21:14.000Z</time>
      </trkpt>
      <trkpt lat="48.27371" lon="-3.39492">
        <ele>210.19999694824</ele>
        <time>2020-10-18T11:21:15.000Z</time>
      </trkpt>
      <trkpt lat="48.27374" lon="-3.3949">
        <ele>210.19999694824</ele>
        <time>2020-10-18T11:21:16.000Z</time>
      </trkpt>
      <trkpt lat="48.27374" lon="-3.3949">
        <ele>210.19999694824</ele>
        <time>2020-10-18T11:21:17.000Z</time>
      </trkpt>
      <trkpt lat="48.27375" lon="-3.3949">
        <ele>210.19999694824</ele>
        <time>2020-10-18T11:21:18.000Z</time>
      </trkpt>
      <trkpt lat="48.27377" lon="-3.39489">
        <ele>210.39999389648</ele>
        <time>2020-10-18T11:21:19.000Z</time>
      </trkpt>
      <trkpt lat="48.27377" lon="-3.39489">
        <ele>210.39999389648</ele>
        <time>2020-10-18T11:21:20.000Z</time>
      </trkpt>
      <trkpt lat="48.27379" lon="-3.39489">
        <ele>210.39999389648</ele>
        <time>2020-10-18T11:21:21.000Z</time>
      </trkpt>
      <trkpt lat="48.27381" lon="-3.39489">
        <ele>210.39999389648</ele>
        <time>2020-10-18T11:21:22.000Z</time>
      </trkpt>
      <trkpt lat="48.27381" lon="-3.39489">
        <ele>210.39999389648</ele>
        <time>2020-10-18T11:21:23.000Z</time>
      </trkpt>
      <trkpt lat="48.27383" lon="-3.39488">
        <ele>210.39999389648</ele>
        <time>2020-10-18T11:21:24.000Z</time>
      </trkpt>
      <trkpt lat="48.27388" lon="-3.39486">
        <ele>210.39999389648</ele>
        <time>2020-10-18T11:21:25.000Z</time>
      </trkpt>
      <trkpt lat="48.27388" lon="-3.39486">
        <ele>210.39999389648</ele>
        <time>2020-10-18T11:21:26.000Z</time>
      </trkpt>
      <trkpt lat="48.2739" lon="-3.39485">
        <ele>210.39999389648</ele>
        <time>2020-10-18T11:21:27.000Z</time>
      </trkpt>
      <trkpt lat="48.27393" lon="-3.39484">
        <ele>210.39999389648</ele>
        <time>2020-10-18T11:21:28.000Z</time>
      </trkpt>
      <trkpt lat="48.27393" lon="-3.39484">
        <ele>210.39999389648</ele>
        <time>2020-10-18T11:21:29.000Z</time>
      </trkpt>
      <trkpt lat="48.27396" lon="-3.39483">
        <ele>210.39999389648</ele>
        <time>2020-10-18T11:21:30.000Z</time>
      </trkpt>
      <trkpt lat="48.27401" lon="-3.39481">
        <ele>210.39999389648</ele>
        <time>2020-10-18T11:21:31.000Z</time>
      </trkpt>
      <trkpt lat="48.27401" lon="-3.39481">
        <ele>210.39999389648</ele>
        <time>2020-10-18T11:21:32.000Z</time>
      </trkpt>
      <trkpt lat="48.27403" lon="-3.3948">
        <ele>210.39999389648</ele>
        <time>2020-10-18T11:21:33.000Z</time>
      </trkpt>
      <trkpt lat="48.27409" lon="-3.39478">
        <ele>210.39999389648</ele>
        <time>2020-10-18T11:21:34.000Z</time>
      </trkpt>
      <trkpt lat="48.27409" lon="-3.39478">
        <ele>210.39999389648</ele>
        <time>2020-10-18T11:21:35.000Z</time>
      </trkpt>
      <trkpt lat="48.27412" lon="-3.39477">
        <ele>210.39999389648</ele>
        <time>2020-10-18T11:21:36.000Z</time>
      </trkpt>
      <trkpt lat="48.27418" lon="-3.39475">
        <ele>210.39999389648</ele>
        <time>2020-10-18T11:21:37.000Z</time>
      </trkpt>
      <trkpt lat="48.27418" lon="-3.39475">
        <ele>210.39999389648</ele>
        <time>2020-10-18T11:21:38.000Z</time>
      </trkpt>
      <trkpt lat="48.27421" lon="-3.39473">
        <ele>210.39999389648</ele>
        <time>2020-10-18T11:21:39.000Z</time>
      </trkpt>
      <trkpt lat="48.27428" lon="-3.39471">
        <ele>210.60000610352</ele>
        <time>2020-10-18T11:21:40.000Z</time>
      </trkpt>
      <trkpt lat="48.27428" lon="-3.39471">
        <ele>210.60000610352</ele>
        <time>2020-10-18T11:21:41.000Z</time>
      </trkpt>
      <trkpt lat="48.27431" lon="-3.3947">
        <ele>210.60000610352</ele>
        <time>2020-10-18T11:21:42.000Z</time>
      </trkpt>
      <trkpt lat="48.27438" lon="-3.39468">
        <ele>210.60000610352</ele>
        <time>2020-10-18T11:21:43.000Z</time>
      </trkpt>
      <trkpt lat="48.27438" lon="-3.39468">
        <ele>210.60000610352</ele>
        <time>2020-10-18T11:21:44.000Z</time>
      </trkpt>
      <trkpt lat="48.27444" lon="-3.39466">
        <ele>210.80000305176</ele>
        <time>2020-10-18T11:21:45.000Z</time>
      </trkpt>
      <trkpt lat="48.27444" lon="-3.39466">
        <ele>210.80000305176</ele>
        <time>2020-10-18T11:21:46.000Z</time>
      </trkpt>
      <trkpt lat="48.27451" lon="-3.39464">
        <ele>210.80000305176</ele>
        <time>2020-10-18T11:21:47.000Z</time>
      </trkpt>
      <trkpt lat="48.27451" lon="-3.39464">
        <ele>210.80000305176</ele>
        <time>2020-10-18T11:21:48.000Z</time>
      </trkpt>
      <trkpt lat="48.27457" lon="-3.39462">
        <ele>211</ele>
        <time>2020-10-18T11:21:49.000Z</time>
      </trkpt>
      <trkpt lat="48.27457" lon="-3.39462">
        <ele>211</ele>
        <time>2020-10-18T11:21:50.000Z</time>
      </trkpt>
      <trkpt lat="48.2746" lon="-3.39461">
        <ele>211</ele>
        <time>2020-10-18T11:21:51.000Z</time>
      </trkpt>
      <trkpt lat="48.27467" lon="-3.39458">
        <ele>211.19999694824</ele>
        <time>2020-10-18T11:21:52.000Z</time>
      </trkpt>
      <trkpt lat="48.27467" lon="-3.39458">
        <ele>211.19999694824</ele>
        <time>2020-10-18T11:21:53.000Z</time>
      </trkpt>
      <trkpt lat="48.2747" lon="-3.39457">
        <ele>211.19999694824</ele>
        <time>2020-10-18T11:21:54.000Z</time>
      </trkpt>
      <trkpt lat="48.27477" lon="-3.39456">
        <ele>211.19999694824</ele>
        <time>2020-10-18T11:21:55.000Z</time>
      </trkpt>
      <trkpt lat="48.27477" lon="-3.39456">
        <ele>211.19999694824</ele>
        <time>2020-10-18T11:21:56.000Z</time>
      </trkpt>
      <trkpt lat="48.2748" lon="-3.39455">
        <ele>211.39999389648</ele>
        <time>2020-10-18T11:21:57.000Z</time>
      </trkpt>
      <trkpt lat="48.27486" lon="-3.39453">
        <ele>211.39999389648</ele>
        <time>2020-10-18T11:21:58.000Z</time>
      </trkpt>
      <trkpt lat="48.27486" lon="-3.39453">
        <ele>211.39999389648</ele>
        <time>2020-10-18T11:21:59.000Z</time>
      </trkpt>
      <trkpt lat="48.2749" lon="-3.39452">
        <ele>211.39999389648</ele>
        <time>2020-10-18T11:22:00.000Z</time>
      </trkpt>
      <trkpt lat="48.27497" lon="-3.39449">
        <ele>211.39999389648</ele>
        <time>2020-10-18T11:22:01.000Z</time>
      </trkpt>
      <trkpt lat="48.27501" lon="-3.39448">
        <ele>211.39999389648</ele>
        <time>2020-10-18T11:22:02.000Z</time>
      </trkpt>
      <trkpt lat="48.27501" lon="-3.39448">
        <ele>211.39999389648</ele>
        <time>2020-10-18T11:22:03.000Z</time>
      </trkpt>
      <trkpt lat="48.27508" lon="-3.39445">
        <ele>211.39999389648</ele>
        <time>2020-10-18T11:22:04.000Z</time>
      </trkpt>
      <trkpt lat="48.27508" lon="-3.39445">
        <ele>211.39999389648</ele>
        <time>2020-10-18T11:22:05.000Z</time>
      </trkpt>
      <trkpt lat="48.27512" lon="-3.39444">
        <ele>211.39999389648</ele>
        <time>2020-10-18T11:22:06.000Z</time>
      </trkpt>
      <trkpt lat="48.27519" lon="-3.39442">
        <ele>211.19999694824</ele>
        <time>2020-10-18T11:22:07.000Z</time>
      </trkpt>
      <trkpt lat="48.27519" lon="-3.39442">
        <ele>211.19999694824</ele>
        <time>2020-10-18T11:22:08.000Z</time>
      </trkpt>
      <trkpt lat="48.27523" lon="-3.39441">
        <ele>211.19999694824</ele>
        <time>2020-10-18T11:22:09.000Z</time>
      </trkpt>
      <trkpt lat="48.2753" lon="-3.39438">
        <ele>211.19999694824</ele>
        <time>2020-10-18T11:22:10.000Z</time>
      </trkpt>
      <trkpt lat="48.2753" lon="-3.39438">
        <ele>211.19999694824</ele>
        <time>2020-10-18T11:22:11.000Z</time>
      </trkpt>
      <trkpt lat="48.27534" lon="-3.39437">
        <ele>211.19999694824</ele>
        <time>2020-10-18T11:22:12.000Z</time>
      </trkpt>
      <trkpt lat="48.27541" lon="-3.39435">
        <ele>211.19999694824</ele>
        <time>2020-10-18T11:22:13.000Z</time>
      </trkpt>
      <trkpt lat="48.27541" lon="-3.39435">
        <ele>211.19999694824</ele>
        <time>2020-10-18T11:22:14.000Z</time>
      </trkpt>
      <trkpt lat="48.27544" lon="-3.39433">
        <ele>211.19999694824</ele>
        <time>2020-10-18T11:22:15.000Z</time>
      </trkpt>
      <trkpt lat="48.27551" lon="-3.39431">
        <ele>211.19999694824</ele>
        <time>2020-10-18T11:22:16.000Z</time>
      </trkpt>
      <trkpt lat="48.27551" lon="-3.39431">
        <ele>211.19999694824</ele>
        <time>2020-10-18T11:22:17.000Z</time>
      </trkpt>
      <trkpt lat="48.27555" lon="-3.3943">
        <ele>211.19999694824</ele>
        <time>2020-10-18T11:22:18.000Z</time>
      </trkpt>
      <trkpt lat="48.27562" lon="-3.39427">
        <ele>211.19999694824</ele>
        <time>2020-10-18T11:22:19.000Z</time>
      </trkpt>
      <trkpt lat="48.27562" lon="-3.39427">
        <ele>211.19999694824</ele>
        <time>2020-10-18T11:22:20.000Z</time>
      </trkpt>
      <trkpt lat="48.27566" lon="-3.39426">
        <ele>211.19999694824</ele>
        <time>2020-10-18T11:22:21.000Z</time>
      </trkpt>
      <trkpt lat="48.27573" lon="-3.39423">
        <ele>211.19999694824</ele>
        <time>2020-10-18T11:22:22.000Z</time>
      </trkpt>
      <trkpt lat="48.27573" lon="-3.39423">
        <ele>211.19999694824</ele>
        <time>2020-10-18T11:22:23.000Z</time>
      </trkpt>
      <trkpt lat="48.27576" lon="-3.39422">
        <ele>211.19999694824</ele>
        <time>2020-10-18T11:22:24.000Z</time>
      </trkpt>
      <trkpt lat="48.27583" lon="-3.3942">
        <ele>211.39999389648</ele>
        <time>2020-10-18T11:22:25.000Z</time>
      </trkpt>
      <trkpt lat="48.27583" lon="-3.3942">
        <ele>211.39999389648</ele>
        <time>2020-10-18T11:22:26.000Z</time>
      </trkpt>
      <trkpt lat="48.27586" lon="-3.39418">
        <ele>211.39999389648</ele>
        <time>2020-10-18T11:22:27.000Z</time>
      </trkpt>
      <trkpt lat="48.27593" lon="-3.39416">
        <ele>211.39999389648</ele>
        <time>2020-10-18T11:22:28.000Z</time>
      </trkpt>
      <trkpt lat="48.27597" lon="-3.39414">
        <ele>211.39999389648</ele>
        <time>2020-10-18T11:22:29.000Z</time>
      </trkpt>
      <trkpt lat="48.27597" lon="-3.39414">
        <ele>211.39999389648</ele>
        <time>2020-10-18T11:22:30.000Z</time>
      </trkpt>
      <trkpt lat="48.276" lon="-3.39413">
        <ele>211.60000610352</ele>
        <time>2020-10-18T11:22:31.000Z</time>
      </trkpt>
      <trkpt lat="48.27607" lon="-3.39411">
        <ele>212.19999694824</ele>
        <time>2020-10-18T11:22:32.000Z</time>
      </trkpt>
      <trkpt lat="48.27607" lon="-3.39411">
        <ele>212.19999694824</ele>
        <time>2020-10-18T11:22:33.000Z</time>
      </trkpt>
      <trkpt lat="48.2761" lon="-3.3941">
        <ele>212.39999389648</ele>
        <time>2020-10-18T11:22:34.000Z</time>
      </trkpt>
      <trkpt lat="48.27616" lon="-3.39408">
        <ele>212.80000305176</ele>
        <time>2020-10-18T11:22:35.000Z</time>
      </trkpt>
      <trkpt lat="48.27616" lon="-3.39408">
        <ele>212.80000305176</ele>
        <time>2020-10-18T11:22:36.000Z</time>
      </trkpt>
      <trkpt lat="48.27619" lon="-3.39406">
        <ele>213</ele>
        <time>2020-10-18T11:22:37.000Z</time>
      </trkpt>
      <trkpt lat="48.27625" lon="-3.39404">
        <ele>213.39999389648</ele>
        <time>2020-10-18T11:22:38.000Z</time>
      </trkpt>
      <trkpt lat="48.27625" lon="-3.39404">
        <ele>213.39999389648</ele>
        <time>2020-10-18T11:22:39.000Z</time>
      </trkpt>
      <trkpt lat="48.27628" lon="-3.39403">
        <ele>213.39999389648</ele>
        <time>2020-10-18T11:22:40.000Z</time>
      </trkpt>
      <trkpt lat="48.27633" lon="-3.39401">
        <ele>213.80000305176</ele>
        <time>2020-10-18T11:22:41.000Z</time>
      </trkpt>
      <trkpt lat="48.27633" lon="-3.39401">
        <ele>213.80000305176</ele>
        <time>2020-10-18T11:22:42.000Z</time>
      </trkpt>
      <trkpt lat="48.27636" lon="-3.394">
        <ele>214</ele>
        <time>2020-10-18T11:22:43.000Z</time>
      </trkpt>
      <trkpt lat="48.27641" lon="-3.39398">
        <ele>214.19999694824</ele>
        <time>2020-10-18T11:22:44.000Z</time>
      </trkpt>
      <trkpt lat="48.27641" lon="-3.39398">
        <ele>214.19999694824</ele>
        <time>2020-10-18T11:22:45.000Z</time>
      </trkpt>
      <trkpt lat="48.27644" lon="-3.39397">
        <ele>214.39999389648</ele>
        <time>2020-10-18T11:22:46.000Z</time>
      </trkpt>
      <trkpt lat="48.27646" lon="-3.39396">
        <ele>214.60000610352</ele>
        <time>2020-10-18T11:22:47.000Z</time>
      </trkpt>
      <trkpt lat="48.27652" lon="-3.39395">
        <ele>214.80000305176</ele>
        <time>2020-10-18T11:22:48.000Z</time>
      </trkpt>
      <trkpt lat="48.27652" lon="-3.39395">
        <ele>214.80000305176</ele>
        <time>2020-10-18T11:22:49.000Z</time>
      </trkpt>
      <trkpt lat="48.27654" lon="-3.39394">
        <ele>215</ele>
        <time>2020-10-18T11:22:50.000Z</time>
      </trkpt>
      <trkpt lat="48.27659" lon="-3.39393">
        <ele>215.19999694824</ele>
        <time>2020-10-18T11:22:51.000Z</time>
      </trkpt>
      <trkpt lat="48.27659" lon="-3.39393">
        <ele>215.19999694824</ele>
        <time>2020-10-18T11:22:52.000Z</time>
      </trkpt>
      <trkpt lat="48.27662" lon="-3.39392">
        <ele>215.39999389648</ele>
        <time>2020-10-18T11:22:53.000Z</time>
      </trkpt>
      <trkpt lat="48.27667" lon="-3.3939">
        <ele>215.60000610352</ele>
        <time>2020-10-18T11:22:54.000Z</time>
      </trkpt>
      <trkpt lat="48.27667" lon="-3.3939">
        <ele>215.60000610352</ele>
        <time>2020-10-18T11:22:55.000Z</time>
      </trkpt>
      <trkpt lat="48.2767" lon="-3.3939">
        <ele>215.80000305176</ele>
        <time>2020-10-18T11:22:56.000Z</time>
      </trkpt>
      <trkpt lat="48.27675" lon="-3.39388">
        <ele>216</ele>
        <time>2020-10-18T11:22:57.000Z</time>
      </trkpt>
      <trkpt lat="48.27675" lon="-3.39388">
        <ele>216</ele>
        <time>2020-10-18T11:22:58.000Z</time>
      </trkpt>
      <trkpt lat="48.27678" lon="-3.39387">
        <ele>216.19999694824</ele>
        <time>2020-10-18T11:22:59.000Z</time>
      </trkpt>
      <trkpt lat="48.27683" lon="-3.39385">
        <ele>216.60000610352</ele>
        <time>2020-10-18T11:23:00.000Z</time>
      </trkpt>
      <trkpt lat="48.27683" lon="-3.39385">
        <ele>216.60000610352</ele>
        <time>2020-10-18T11:23:01.000Z</time>
      </trkpt>
      <trkpt lat="48.27686" lon="-3.39384">
        <ele>216.80000305176</ele>
        <time>2020-10-18T11:23:02.000Z</time>
      </trkpt>
      <trkpt lat="48.2769" lon="-3.39382">
        <ele>217.19999694824</ele>
        <time>2020-10-18T11:23:03.000Z</time>
      </trkpt>
      <trkpt lat="48.2769" lon="-3.39382">
        <ele>217.19999694824</ele>
        <time>2020-10-18T11:23:04.000Z</time>
      </trkpt>
      <trkpt lat="48.27693" lon="-3.39381">
        <ele>217.19999694824</ele>
        <time>2020-10-18T11:23:05.000Z</time>
      </trkpt>
      <trkpt lat="48.27697" lon="-3.39379">
        <ele>217.60000610352</ele>
        <time>2020-10-18T11:23:06.000Z</time>
      </trkpt>
      <trkpt lat="48.27697" lon="-3.39379">
        <ele>217.60000610352</ele>
        <time>2020-10-18T11:23:07.000Z</time>
      </trkpt>
      <trkpt lat="48.277" lon="-3.39378">
        <ele>217.80000305176</ele>
        <time>2020-10-18T11:23:08.000Z</time>
      </trkpt>
      <trkpt lat="48.27704" lon="-3.39377">
        <ele>218.19999694824</ele>
        <time>2020-10-18T11:23:09.000Z</time>
      </trkpt>
      <trkpt lat="48.27704" lon="-3.39377">
        <ele>218.19999694824</ele>
        <time>2020-10-18T11:23:10.000Z</time>
      </trkpt>
      <trkpt lat="48.27707" lon="-3.39376">
        <ele>218.39999389648</ele>
        <time>2020-10-18T11:23:11.000Z</time>
      </trkpt>
      <trkpt lat="48.27712" lon="-3.39374">
        <ele>218.60000610352</ele>
        <time>2020-10-18T11:23:12.000Z</time>
      </trkpt>
      <trkpt lat="48.27712" lon="-3.39374">
        <ele>218.60000610352</ele>
        <time>2020-10-18T11:23:13.000Z</time>
      </trkpt>
      <trkpt lat="48.27714" lon="-3.39374">
        <ele>218.80000305176</ele>
        <time>2020-10-18T11:23:14.000Z</time>
      </trkpt>
      <trkpt lat="48.27719" lon="-3.39372">
        <ele>219.19999694824</ele>
        <time>2020-10-18T11:23:15.000Z</time>
      </trkpt>
      <trkpt lat="48.27719" lon="-3.39372">
        <ele>219.19999694824</ele>
        <time>2020-10-18T11:23:16.000Z</time>
      </trkpt>
      <trkpt lat="48.27721" lon="-3.39371">
        <ele>219.39999389648</ele>
        <time>2020-10-18T11:23:17.000Z</time>
      </trkpt>
      <trkpt lat="48.27725" lon="-3.3937">
        <ele>219.60000610352</ele>
        <time>2020-10-18T11:23:18.000Z</time>
      </trkpt>
      <trkpt lat="48.27725" lon="-3.3937">
        <ele>219.60000610352</ele>
        <time>2020-10-18T11:23:19.000Z</time>
      </trkpt>
      <trkpt lat="48.27728" lon="-3.39369">
        <ele>219.80000305176</ele>
        <time>2020-10-18T11:23:20.000Z</time>
      </trkpt>
      <trkpt lat="48.27732" lon="-3.39368">
        <ele>220</ele>
        <time>2020-10-18T11:23:21.000Z</time>
      </trkpt>
      <trkpt lat="48.27732" lon="-3.39368">
        <ele>220</ele>
        <time>2020-10-18T11:23:22.000Z</time>
      </trkpt>
      <trkpt lat="48.27735" lon="-3.39367">
        <ele>220.19999694824</ele>
        <time>2020-10-18T11:23:23.000Z</time>
      </trkpt>
      <trkpt lat="48.27739" lon="-3.39365">
        <ele>220.39999389648</ele>
        <time>2020-10-18T11:23:24.000Z</time>
      </trkpt>
      <trkpt lat="48.27739" lon="-3.39365">
        <ele>220.39999389648</ele>
        <time>2020-10-18T11:23:25.000Z</time>
      </trkpt>
      <trkpt lat="48.27743" lon="-3.39363">
        <ele>220.80000305176</ele>
        <time>2020-10-18T11:23:26.000Z</time>
      </trkpt>
      <trkpt lat="48.27745" lon="-3.39363">
        <ele>221</ele>
        <time>2020-10-18T11:23:27.000Z</time>
      </trkpt>
      <trkpt lat="48.27745" lon="-3.39363">
        <ele>221</ele>
        <time>2020-10-18T11:23:28.000Z</time>
      </trkpt>
      <trkpt lat="48.27747" lon="-3.39362">
        <ele>221.19999694824</ele>
        <time>2020-10-18T11:23:29.000Z</time>
      </trkpt>
      <trkpt lat="48.27751" lon="-3.3936">
        <ele>221.39999389648</ele>
        <time>2020-10-18T11:23:30.000Z</time>
      </trkpt>
      <trkpt lat="48.27751" lon="-3.3936">
        <ele>221.39999389648</ele>
        <time>2020-10-18T11:23:31.000Z</time>
      </trkpt>
      <trkpt lat="48.27754" lon="-3.3936">
        <ele>221.60000610352</ele>
        <time>2020-10-18T11:23:32.000Z</time>
      </trkpt>
      <trkpt lat="48.27758" lon="-3.39357">
        <ele>222</ele>
        <time>2020-10-18T11:23:33.000Z</time>
      </trkpt>
      <trkpt lat="48.27758" lon="-3.39357">
        <ele>222</ele>
        <time>2020-10-18T11:23:34.000Z</time>
      </trkpt>
      <trkpt lat="48.27763" lon="-3.39355">
        <ele>222.39999389648</ele>
        <time>2020-10-18T11:23:35.000Z</time>
      </trkpt>
      <trkpt lat="48.27763" lon="-3.39355">
        <ele>222.39999389648</ele>
        <time>2020-10-18T11:23:36.000Z</time>
      </trkpt>
      <trkpt lat="48.27768" lon="-3.39354">
        <ele>222.60000610352</ele>
        <time>2020-10-18T11:23:37.000Z</time>
      </trkpt>
      <trkpt lat="48.27768" lon="-3.39354">
        <ele>222.60000610352</ele>
        <time>2020-10-18T11:23:38.000Z</time>
      </trkpt>
      <trkpt lat="48.2777" lon="-3.39353">
        <ele>222.60000610352</ele>
        <time>2020-10-18T11:23:39.000Z</time>
      </trkpt>
      <trkpt lat="48.27775" lon="-3.39351">
        <ele>222.80000305176</ele>
        <time>2020-10-18T11:23:40.000Z</time>
      </trkpt>
      <trkpt lat="48.27775" lon="-3.39351">
        <ele>222.80000305176</ele>
        <time>2020-10-18T11:23:41.000Z</time>
      </trkpt>
      <trkpt lat="48.27777" lon="-3.39351">
        <ele>223</ele>
        <time>2020-10-18T11:23:42.000Z</time>
      </trkpt>
      <trkpt lat="48.27782" lon="-3.39349">
        <ele>223.19999694824</ele>
        <time>2020-10-18T11:23:43.000Z</time>
      </trkpt>
      <trkpt lat="48.27782" lon="-3.39349">
        <ele>223.19999694824</ele>
        <time>2020-10-18T11:23:44.000Z</time>
      </trkpt>
      <trkpt lat="48.27786" lon="-3.39348">
        <ele>223.19999694824</ele>
        <time>2020-10-18T11:23:45.000Z</time>
      </trkpt>
      <trkpt lat="48.27786" lon="-3.39348">
        <ele>223.19999694824</ele>
        <time>2020-10-18T11:23:46.000Z</time>
      </trkpt>
      <trkpt lat="48.27788" lon="-3.39347">
        <ele>223.19999694824</ele>
        <time>2020-10-18T11:23:47.000Z</time>
      </trkpt>
      <trkpt lat="48.27791" lon="-3.39344">
        <ele>223.39999389648</ele>
        <time>2020-10-18T11:23:48.000Z</time>
      </trkpt>
      <trkpt lat="48.27791" lon="-3.39344">
        <ele>223.39999389648</ele>
        <time>2020-10-18T11:23:49.000Z</time>
      </trkpt>
      <trkpt lat="48.27794" lon="-3.39344">
        <ele>223.39999389648</ele>
        <time>2020-10-18T11:23:50.000Z</time>
      </trkpt>
      <trkpt lat="48.27794" lon="-3.39344">
        <ele>223.39999389648</ele>
        <time>2020-10-18T11:23:51.000Z</time>
      </trkpt>
      <trkpt lat="48.27796" lon="-3.39344">
        <ele>223.39999389648</ele>
        <time>2020-10-18T11:23:52.000Z</time>
      </trkpt>
      <trkpt lat="48.278" lon="-3.39345">
        <ele>223.39999389648</ele>
        <time>2020-10-18T11:23:53.000Z</time>
      </trkpt>
      <trkpt lat="48.278" lon="-3.39345">
        <ele>223.39999389648</ele>
        <time>2020-10-18T11:23:54.000Z</time>
      </trkpt>
      <trkpt lat="48.27803" lon="-3.39346">
        <ele>223.39999389648</ele>
        <time>2020-10-18T11:23:55.000Z</time>
      </trkpt>
      <trkpt lat="48.27809" lon="-3.39349">
        <ele>223.39999389648</ele>
        <time>2020-10-18T11:23:56.000Z</time>
      </trkpt>
      <trkpt lat="48.27809" lon="-3.39349">
        <ele>223.39999389648</ele>
        <time>2020-10-18T11:23:57.000Z</time>
      </trkpt>
      <trkpt lat="48.27814" lon="-3.39354">
        <ele>223.19999694824</ele>
        <time>2020-10-18T11:23:58.000Z</time>
      </trkpt>
      <trkpt lat="48.27814" lon="-3.39354">
        <ele>223.19999694824</ele>
        <time>2020-10-18T11:23:59.000Z</time>
      </trkpt>
      <trkpt lat="48.27817" lon="-3.39356">
        <ele>223</ele>
        <time>2020-10-18T11:24:00.000Z</time>
      </trkpt>
      <trkpt lat="48.27822" lon="-3.39358">
        <ele>222.80000305176</ele>
        <time>2020-10-18T11:24:01.000Z</time>
      </trkpt>
      <trkpt lat="48.27824" lon="-3.39358">
        <ele>222.80000305176</ele>
        <time>2020-10-18T11:24:02.000Z</time>
      </trkpt>
      <trkpt lat="48.27825" lon="-3.39358">
        <ele>223</ele>
        <time>2020-10-18T11:24:03.000Z</time>
      </trkpt>
      <trkpt lat="48.27825" lon="-3.39358">
        <ele>223</ele>
        <time>2020-10-18T11:24:04.000Z</time>
      </trkpt>
      <trkpt lat="48.27825" lon="-3.39358">
        <ele>222.80000305176</ele>
        <time>2020-10-18T11:24:05.000Z</time>
      </trkpt>
      <trkpt lat="48.27825" lon="-3.39358">
        <ele>222.80000305176</ele>
        <time>2020-10-18T11:24:06.000Z</time>
      </trkpt>
      <trkpt lat="48.27825" lon="-3.39359">
        <ele>222.80000305176</ele>
        <time>2020-10-18T11:24:07.000Z</time>
      </trkpt>
      <trkpt lat="48.27825" lon="-3.39359">
        <ele>222.80000305176</ele>
        <time>2020-10-18T11:24:08.000Z</time>
      </trkpt>
      <trkpt lat="48.27824" lon="-3.39359">
        <ele>222.80000305176</ele>
        <time>2020-10-18T11:24:09.000Z</time>
      </trkpt>
      <trkpt lat="48.27824" lon="-3.39359">
        <ele>222.80000305176</ele>
        <time>2020-10-18T11:24:10.000Z</time>
      </trkpt>
      <trkpt lat="48.27824" lon="-3.39359">
        <ele>222.80000305176</ele>
        <time>2020-10-18T11:24:11.000Z</time>
      </trkpt>
      <trkpt lat="48.27824" lon="-3.39359">
        <ele>222.80000305176</ele>
        <time>2020-10-18T11:24:12.000Z</time>
      </trkpt>
      <trkpt lat="48.27824" lon="-3.39359">
        <ele>222.80000305176</ele>
        <time>2020-10-18T11:24:13.000Z</time>
      </trkpt>
      <trkpt lat="48.27824" lon="-3.39359">
        <ele>222.80000305176</ele>
        <time>2020-10-18T11:24:14.000Z</time>
      </trkpt>
      <trkpt lat="48.27824" lon="-3.39359">
        <ele>222.80000305176</ele>
        <time>2020-10-18T11:24:15.000Z</time>
      </trkpt>
      <trkpt lat="48.27824" lon="-3.39359">
        <ele>222.80000305176</ele>
        <time>2020-10-18T11:24:16.000Z</time>
      </trkpt>
      <trkpt lat="48.27824" lon="-3.39359">
        <ele>222.80000305176</ele>
        <time>2020-10-18T11:24:17.000Z</time>
      </trkpt>
      <trkpt lat="48.27824" lon="-3.39359">
        <ele>222.80000305176</ele>
        <time>2020-10-18T11:24:18.000Z</time>
      </trkpt>
      <trkpt lat="48.27824" lon="-3.39359">
        <ele>222.80000305176</ele>
        <time>2020-10-18T11:24:19.000Z</time>
      </trkpt>
      <trkpt lat="48.27824" lon="-3.39359">
        <ele>222.80000305176</ele>
        <time>2020-10-18T11:24:20.000Z</time>
      </trkpt>
      <trkpt lat="48.27824" lon="-3.39359">
        <ele>222.80000305176</ele>
        <time>2020-10-18T11:24:21.000Z</time>
      </trkpt>
      <trkpt lat="48.27824" lon="-3.39359">
        <ele>222.80000305176</ele>
        <time>2020-10-18T11:24:22.000Z</time>
      </trkpt>
      <trkpt lat="48.27824" lon="-3.39359">
        <ele>222.80000305176</ele>
        <time>2020-10-18T11:24:23.000Z</time>
      </trkpt>
      <trkpt lat="48.27824" lon="-3.39359">
        <ele>222.80000305176</ele>
        <time>2020-10-18T11:24:24.000Z</time>
      </trkpt>
      <trkpt lat="48.27824" lon="-3.39359">
        <ele>222.80000305176</ele>
        <time>2020-10-18T11:24:25.000Z</time>
      </trkpt>
      <trkpt lat="48.27824" lon="-3.39359">
        <ele>222.80000305176</ele>
        <time>2020-10-18T11:24:26.000Z</time>
      </trkpt>
      <trkpt lat="48.27824" lon="-3.39359">
        <ele>222.80000305176</ele>
        <time>2020-10-18T11:24:27.000Z</time>
      </trkpt>
      <trkpt lat="48.27824" lon="-3.39359">
        <ele>222.80000305176</ele>
        <time>2020-10-18T11:24:28.000Z</time>
      </trkpt>
      <trkpt lat="48.27824" lon="-3.39359">
        <ele>222.80000305176</ele>
        <time>2020-10-18T11:24:29.000Z</time>
      </trkpt>
      <trkpt lat="48.27824" lon="-3.39359">
        <ele>222.80000305176</ele>
        <time>2020-10-18T11:24:30.000Z</time>
      </trkpt>
      <trkpt lat="48.27824" lon="-3.39359">
        <ele>222.80000305176</ele>
        <time>2020-10-18T11:24:31.000Z</time>
      </trkpt>
      <trkpt lat="48.27824" lon="-3.39359">
        <ele>222.80000305176</ele>
        <time>2020-10-18T11:24:32.000Z</time>
      </trkpt>
      <trkpt lat="48.27824" lon="-3.39359">
        <ele>222.80000305176</ele>
        <time>2020-10-18T11:24:33.000Z</time>
      </trkpt>
      <trkpt lat="48.27824" lon="-3.39359">
        <ele>222.80000305176</ele>
        <time>2020-10-18T11:24:34.000Z</time>
      </trkpt>
      <trkpt lat="48.27824" lon="-3.39359">
        <ele>222.80000305176</ele>
        <time>2020-10-18T11:24:35.000Z</time>
      </trkpt>
      <trkpt lat="48.27824" lon="-3.39359">
        <ele>222.80000305176</ele>
        <time>2020-10-18T11:24:36.000Z</time>
      </trkpt>
      <trkpt lat="48.27824" lon="-3.3936">
        <ele>222.80000305176</ele>
        <time>2020-10-18T11:24:37.000Z</time>
      </trkpt>
      <trkpt lat="48.27824" lon="-3.3936">
        <ele>222.80000305176</ele>
        <time>2020-10-18T11:24:38.000Z</time>
      </trkpt>
      <trkpt lat="48.27824" lon="-3.3936">
        <ele>222.80000305176</ele>
        <time>2020-10-18T11:24:39.000Z</time>
      </trkpt>
      <trkpt lat="48.27824" lon="-3.3936">
        <ele>222.80000305176</ele>
        <time>2020-10-18T11:24:40.000Z</time>
      </trkpt>
      <trkpt lat="48.27824" lon="-3.3936">
        <ele>222.80000305176</ele>
        <time>2020-10-18T11:24:41.000Z</time>
      </trkpt>
      <trkpt lat="48.27824" lon="-3.3936">
        <ele>222.80000305176</ele>
        <time>2020-10-18T11:24:42.000Z</time>
      </trkpt>
      <trkpt lat="48.27824" lon="-3.3936">
        <ele>222.80000305176</ele>
        <time>2020-10-18T11:24:43.000Z</time>
      </trkpt>
      <trkpt lat="48.27824" lon="-3.3936">
        <ele>222.80000305176</ele>
        <time>2020-10-18T11:24:44.000Z</time>
      </trkpt>
      <trkpt lat="48.27824" lon="-3.3936">
        <ele>222.80000305176</ele>
        <time>2020-10-18T11:24:45.000Z</time>
      </trkpt>
      <trkpt lat="48.27824" lon="-3.3936">
        <ele>222.80000305176</ele>
        <time>2020-10-18T11:24:46.000Z</time>
      </trkpt>
      <trkpt lat="48.27824" lon="-3.3936">
        <ele>222.80000305176</ele>
        <time>2020-10-18T11:24:47.000Z</time>
      </trkpt>
      <trkpt lat="48.27824" lon="-3.3936">
        <ele>222.80000305176</ele>
        <time>2020-10-18T11:24:48.000Z</time>
      </trkpt>
      <trkpt lat="48.27824" lon="-3.3936">
        <ele>222.80000305176</ele>
        <time>2020-10-18T11:24:49.000Z</time>
      </trkpt>
      <trkpt lat="48.27826" lon="-3.3936">
        <ele>222.80000305176</ele>
        <time>2020-10-18T11:24:50.000Z</time>
      </trkpt>
      <trkpt lat="48.27829" lon="-3.3936">
        <ele>222.80000305176</ele>
        <time>2020-10-18T11:24:51.000Z</time>
      </trkpt>
      <trkpt lat="48.27829" lon="-3.3936">
        <ele>222.80000305176</ele>
        <time>2020-10-18T11:24:52.000Z</time>
      </trkpt>
      <trkpt lat="48.27831" lon="-3.3936">
        <ele>222.80000305176</ele>
        <time>2020-10-18T11:24:53.000Z</time>
      </trkpt>
      <trkpt lat="48.27835" lon="-3.3936">
        <ele>223</ele>
        <time>2020-10-18T11:24:54.000Z</time>
      </trkpt>
      <trkpt lat="48.27835" lon="-3.3936">
        <ele>223</ele>
        <time>2020-10-18T11:24:55.000Z</time>
      </trkpt>
      <trkpt lat="48.2784" lon="-3.3936">
        <ele>223.39999389648</ele>
        <time>2020-10-18T11:24:56.000Z</time>
      </trkpt>
      <trkpt lat="48.2784" lon="-3.3936">
        <ele>223.39999389648</ele>
        <time>2020-10-18T11:24:57.000Z</time>
      </trkpt>
      <trkpt lat="48.27843" lon="-3.39359">
        <ele>223.60000610352</ele>
        <time>2020-10-18T11:24:58.000Z</time>
      </trkpt>
      <trkpt lat="48.27849" lon="-3.39358">
        <ele>223.80000305176</ele>
        <time>2020-10-18T11:24:59.000Z</time>
      </trkpt>
      <trkpt lat="48.27849" lon="-3.39358">
        <ele>223.80000305176</ele>
        <time>2020-10-18T11:25:00.000Z</time>
      </trkpt>
      <trkpt lat="48.27854" lon="-3.39358">
        <ele>223.60000610352</ele>
        <time>2020-10-18T11:25:01.000Z</time>
      </trkpt>
      <trkpt lat="48.27854" lon="-3.39358">
        <ele>223.60000610352</ele>
        <time>2020-10-18T11:25:02.000Z</time>
      </trkpt>
      <trkpt lat="48.2786" lon="-3.39358">
        <ele>223.60000610352</ele>
        <time>2020-10-18T11:25:03.000Z</time>
      </trkpt>
      <trkpt lat="48.2786" lon="-3.39358">
        <ele>223.60000610352</ele>
        <time>2020-10-18T11:25:04.000Z</time>
      </trkpt>
      <trkpt lat="48.27866" lon="-3.39358">
        <ele>223.39999389648</ele>
        <time>2020-10-18T11:25:05.000Z</time>
      </trkpt>
      <trkpt lat="48.2787" lon="-3.39358">
        <ele>223.39999389648</ele>
        <time>2020-10-18T11:25:06.000Z</time>
      </trkpt>
      <trkpt lat="48.2787" lon="-3.39358">
        <ele>223.39999389648</ele>
        <time>2020-10-18T11:25:07.000Z</time>
      </trkpt>
      <trkpt lat="48.27873" lon="-3.39358">
        <ele>223.19999694824</ele>
        <time>2020-10-18T11:25:08.000Z</time>
      </trkpt>
      <trkpt lat="48.2788" lon="-3.39357">
        <ele>223</ele>
        <time>2020-10-18T11:25:09.000Z</time>
      </trkpt>
      <trkpt lat="48.2788" lon="-3.39357">
        <ele>223</ele>
        <time>2020-10-18T11:25:10.000Z</time>
      </trkpt>
      <trkpt lat="48.27883" lon="-3.39357">
        <ele>223</ele>
        <time>2020-10-18T11:25:11.000Z</time>
      </trkpt>
      <trkpt lat="48.27892" lon="-3.39356">
        <ele>222.80000305176</ele>
        <time>2020-10-18T11:25:12.000Z</time>
      </trkpt>
      <trkpt lat="48.27892" lon="-3.39356">
        <ele>222.80000305176</ele>
        <time>2020-10-18T11:25:13.000Z</time>
      </trkpt>
      <trkpt lat="48.27896" lon="-3.39356">
        <ele>222.80000305176</ele>
        <time>2020-10-18T11:25:14.000Z</time>
      </trkpt>
      <trkpt lat="48.27904" lon="-3.39355">
        <ele>222.60000610352</ele>
        <time>2020-10-18T11:25:15.000Z</time>
      </trkpt>
      <trkpt lat="48.27904" lon="-3.39355">
        <ele>222.60000610352</ele>
        <time>2020-10-18T11:25:16.000Z</time>
      </trkpt>
      <trkpt lat="48.27908" lon="-3.39355">
        <ele>222.39999389648</ele>
        <time>2020-10-18T11:25:17.000Z</time>
      </trkpt>
      <trkpt lat="48.27916" lon="-3.39356">
        <ele>222.19999694824</ele>
        <time>2020-10-18T11:25:18.000Z</time>
      </trkpt>
      <trkpt lat="48.27916" lon="-3.39356">
        <ele>222.19999694824</ele>
        <time>2020-10-18T11:25:19.000Z</time>
      </trkpt>
      <trkpt lat="48.2792" lon="-3.39357">
        <ele>222.19999694824</ele>
        <time>2020-10-18T11:25:20.000Z</time>
      </trkpt>
      <trkpt lat="48.27927" lon="-3.39363">
        <ele>222.39999389648</ele>
        <time>2020-10-18T11:25:21.000Z</time>
      </trkpt>
      <trkpt lat="48.27927" lon="-3.39363">
        <ele>222.39999389648</ele>
        <time>2020-10-18T11:25:22.000Z</time>
      </trkpt>
      <trkpt lat="48.2793" lon="-3.39366">
        <ele>222.39999389648</ele>
        <time>2020-10-18T11:25:23.000Z</time>
      </trkpt>
      <trkpt lat="48.27936" lon="-3.39374">
        <ele>222.19999694824</ele>
        <time>2020-10-18T11:25:24.000Z</time>
      </trkpt>
      <trkpt lat="48.27936" lon="-3.39374">
        <ele>222.19999694824</ele>
        <time>2020-10-18T11:25:25.000Z</time>
      </trkpt>
      <trkpt lat="48.27938" lon="-3.39377">
        <ele>222</ele>
        <time>2020-10-18T11:25:26.000Z</time>
      </trkpt>
      <trkpt lat="48.27943" lon="-3.39384">
        <ele>222</ele>
        <time>2020-10-18T11:25:27.000Z</time>
      </trkpt>
      <trkpt lat="48.27943" lon="-3.39384">
        <ele>222</ele>
        <time>2020-10-18T11:25:28.000Z</time>
      </trkpt>
      <trkpt lat="48.27945" lon="-3.39387">
        <ele>221.80000305176</ele>
        <time>2020-10-18T11:25:29.000Z</time>
      </trkpt>
      <trkpt lat="48.2795" lon="-3.39395">
        <ele>221.60000610352</ele>
        <time>2020-10-18T11:25:30.000Z</time>
      </trkpt>
      <trkpt lat="48.2795" lon="-3.39395">
        <ele>221.60000610352</ele>
        <time>2020-10-18T11:25:31.000Z</time>
      </trkpt>
      <trkpt lat="48.27953" lon="-3.394">
        <ele>221.60000610352</ele>
        <time>2020-10-18T11:25:32.000Z</time>
      </trkpt>
      <trkpt lat="48.27959" lon="-3.39408">
        <ele>221.39999389648</ele>
        <time>2020-10-18T11:25:33.000Z</time>
      </trkpt>
      <trkpt lat="48.27959" lon="-3.39408">
        <ele>221.39999389648</ele>
        <time>2020-10-18T11:25:34.000Z</time>
      </trkpt>
      <trkpt lat="48.27962" lon="-3.39412">
        <ele>221.60000610352</ele>
        <time>2020-10-18T11:25:35.000Z</time>
      </trkpt>
      <trkpt lat="48.27968" lon="-3.39421">
        <ele>221.60000610352</ele>
        <time>2020-10-18T11:25:36.000Z</time>
      </trkpt>
      <trkpt lat="48.27968" lon="-3.39421">
        <ele>221.60000610352</ele>
        <time>2020-10-18T11:25:37.000Z</time>
      </trkpt>
      <trkpt lat="48.27972" lon="-3.39426">
        <ele>221.80000305176</ele>
        <time>2020-10-18T11:25:38.000Z</time>
      </trkpt>
      <trkpt lat="48.27979" lon="-3.39436">
        <ele>221.60000610352</ele>
        <time>2020-10-18T11:25:39.000Z</time>
      </trkpt>
      <trkpt lat="48.27979" lon="-3.39436">
        <ele>221.60000610352</ele>
        <time>2020-10-18T11:25:40.000Z</time>
      </trkpt>
      <trkpt lat="48.27982" lon="-3.39441">
        <ele>221.39999389648</ele>
        <time>2020-10-18T11:25:41.000Z</time>
      </trkpt>
      <trkpt lat="48.27989" lon="-3.3945">
        <ele>221.19999694824</ele>
        <time>2020-10-18T11:25:42.000Z</time>
      </trkpt>
      <trkpt lat="48.27989" lon="-3.3945">
        <ele>221.19999694824</ele>
        <time>2020-10-18T11:25:43.000Z</time>
      </trkpt>
      <trkpt lat="48.27992" lon="-3.39455">
        <ele>221.19999694824</ele>
        <time>2020-10-18T11:25:44.000Z</time>
      </trkpt>
      <trkpt lat="48.27998" lon="-3.39465">
        <ele>221.60000610352</ele>
        <time>2020-10-18T11:25:45.000Z</time>
      </trkpt>
      <trkpt lat="48.27998" lon="-3.39465">
        <ele>221.60000610352</ele>
        <time>2020-10-18T11:25:46.000Z</time>
      </trkpt>
      <trkpt lat="48.28005" lon="-3.39475">
        <ele>222</ele>
        <time>2020-10-18T11:25:47.000Z</time>
      </trkpt>
      <trkpt lat="48.28005" lon="-3.39475">
        <ele>222</ele>
        <time>2020-10-18T11:25:48.000Z</time>
      </trkpt>
      <trkpt lat="48.28011" lon="-3.39485">
        <ele>222.60000610352</ele>
        <time>2020-10-18T11:25:49.000Z</time>
      </trkpt>
      <trkpt lat="48.28011" lon="-3.39485">
        <ele>222.60000610352</ele>
        <time>2020-10-18T11:25:50.000Z</time>
      </trkpt>
      <trkpt lat="48.28014" lon="-3.3949">
        <ele>222.80000305176</ele>
        <time>2020-10-18T11:25:51.000Z</time>
      </trkpt>
      <trkpt lat="48.2802" lon="-3.39499">
        <ele>222.39999389648</ele>
        <time>2020-10-18T11:25:52.000Z</time>
      </trkpt>
      <trkpt lat="48.2802" lon="-3.39499">
        <ele>222.39999389648</ele>
        <time>2020-10-18T11:25:53.000Z</time>
      </trkpt>
      <trkpt lat="48.28023" lon="-3.39503">
        <ele>222.39999389648</ele>
        <time>2020-10-18T11:25:54.000Z</time>
      </trkpt>
      <trkpt lat="48.2803" lon="-3.39512">
        <ele>222.39999389648</ele>
        <time>2020-10-18T11:25:55.000Z</time>
      </trkpt>
      <trkpt lat="48.2803" lon="-3.39512">
        <ele>222.39999389648</ele>
        <time>2020-10-18T11:25:56.000Z</time>
      </trkpt>
      <trkpt lat="48.28037" lon="-3.39522">
        <ele>222</ele>
        <time>2020-10-18T11:25:57.000Z</time>
      </trkpt>
      <trkpt lat="48.28037" lon="-3.39522">
        <ele>222</ele>
        <time>2020-10-18T11:25:58.000Z</time>
      </trkpt>
      <trkpt lat="48.2804" lon="-3.39526">
        <ele>221.80000305176</ele>
        <time>2020-10-18T11:25:59.000Z</time>
      </trkpt>
      <trkpt lat="48.28047" lon="-3.39535">
        <ele>221.39999389648</ele>
        <time>2020-10-18T11:26:00.000Z</time>
      </trkpt>
      <trkpt lat="48.28047" lon="-3.39535">
        <ele>221.39999389648</ele>
        <time>2020-10-18T11:26:01.000Z</time>
      </trkpt>
      <trkpt lat="48.2805" lon="-3.39539">
        <ele>221.19999694824</ele>
        <time>2020-10-18T11:26:02.000Z</time>
      </trkpt>
      <trkpt lat="48.28056" lon="-3.39548">
        <ele>220.80000305176</ele>
        <time>2020-10-18T11:26:03.000Z</time>
      </trkpt>
      <trkpt lat="48.28056" lon="-3.39548">
        <ele>220.80000305176</ele>
        <time>2020-10-18T11:26:04.000Z</time>
      </trkpt>
      <trkpt lat="48.28059" lon="-3.39552">
        <ele>220.60000610352</ele>
        <time>2020-10-18T11:26:05.000Z</time>
      </trkpt>
      <trkpt lat="48.28064" lon="-3.39561">
        <ele>221.19999694824</ele>
        <time>2020-10-18T11:26:06.000Z</time>
      </trkpt>
      <trkpt lat="48.28064" lon="-3.39561">
        <ele>221.19999694824</ele>
        <time>2020-10-18T11:26:07.000Z</time>
      </trkpt>
      <trkpt lat="48.28068" lon="-3.39571">
        <ele>222</ele>
        <time>2020-10-18T11:26:08.000Z</time>
      </trkpt>
      <trkpt lat="48.28068" lon="-3.39571">
        <ele>222</ele>
        <time>2020-10-18T11:26:09.000Z</time>
      </trkpt>
      <trkpt lat="48.2807" lon="-3.39576">
        <ele>222.39999389648</ele>
        <time>2020-10-18T11:26:10.000Z</time>
      </trkpt>
      <trkpt lat="48.28074" lon="-3.39586">
        <ele>223.19999694824</ele>
        <time>2020-10-18T11:26:11.000Z</time>
      </trkpt>
      <trkpt lat="48.28074" lon="-3.39586">
        <ele>223.19999694824</ele>
        <time>2020-10-18T11:26:12.000Z</time>
      </trkpt>
      <trkpt lat="48.28076" lon="-3.39591">
        <ele>223.60000610352</ele>
        <time>2020-10-18T11:26:13.000Z</time>
      </trkpt>
      <trkpt lat="48.28079" lon="-3.39601">
        <ele>224.19999694824</ele>
        <time>2020-10-18T11:26:14.000Z</time>
      </trkpt>
      <trkpt lat="48.28079" lon="-3.39601">
        <ele>224.19999694824</ele>
        <time>2020-10-18T11:26:15.000Z</time>
      </trkpt>
      <trkpt lat="48.28081" lon="-3.39605">
        <ele>224.19999694824</ele>
        <time>2020-10-18T11:26:16.000Z</time>
      </trkpt>
      <trkpt lat="48.28085" lon="-3.39617">
        <ele>224.39999389648</ele>
        <time>2020-10-18T11:26:17.000Z</time>
      </trkpt>
      <trkpt lat="48.28085" lon="-3.39617">
        <ele>224.39999389648</ele>
        <time>2020-10-18T11:26:18.000Z</time>
      </trkpt>
      <trkpt lat="48.28087" lon="-3.39623">
        <ele>224.60000610352</ele>
        <time>2020-10-18T11:26:19.000Z</time>
      </trkpt>
      <trkpt lat="48.28091" lon="-3.39635">
        <ele>225.19999694824</ele>
        <time>2020-10-18T11:26:20.000Z</time>
      </trkpt>
      <trkpt lat="48.28091" lon="-3.39635">
        <ele>225.19999694824</ele>
        <time>2020-10-18T11:26:21.000Z</time>
      </trkpt>
      <trkpt lat="48.28092" lon="-3.39641">
        <ele>225.39999389648</ele>
        <time>2020-10-18T11:26:22.000Z</time>
      </trkpt>
      <trkpt lat="48.28096" lon="-3.39654">
        <ele>226</ele>
        <time>2020-10-18T11:26:23.000Z</time>
      </trkpt>
      <trkpt lat="48.28096" lon="-3.39654">
        <ele>226</ele>
        <time>2020-10-18T11:26:24.000Z</time>
      </trkpt>
      <trkpt lat="48.28098" lon="-3.39661">
        <ele>226</ele>
        <time>2020-10-18T11:26:25.000Z</time>
      </trkpt>
      <trkpt lat="48.28101" lon="-3.39676">
        <ele>226.19999694824</ele>
        <time>2020-10-18T11:26:26.000Z</time>
      </trkpt>
      <trkpt lat="48.28101" lon="-3.39676">
        <ele>226.19999694824</ele>
        <time>2020-10-18T11:26:27.000Z</time>
      </trkpt>
      <trkpt lat="48.28103" lon="-3.39683">
        <ele>226.39999389648</ele>
        <time>2020-10-18T11:26:28.000Z</time>
      </trkpt>
      <trkpt lat="48.28105" lon="-3.39698">
        <ele>225.39999389648</ele>
        <time>2020-10-18T11:26:29.000Z</time>
      </trkpt>
      <trkpt lat="48.28105" lon="-3.39698">
        <ele>225.39999389648</ele>
        <time>2020-10-18T11:26:30.000Z</time>
      </trkpt>
      <trkpt lat="48.28107" lon="-3.39705">
        <ele>225</ele>
        <time>2020-10-18T11:26:31.000Z</time>
      </trkpt>
      <trkpt lat="48.28109" lon="-3.39718">
        <ele>224.19999694824</ele>
        <time>2020-10-18T11:26:32.000Z</time>
      </trkpt>
      <trkpt lat="48.28109" lon="-3.39718">
        <ele>224.19999694824</ele>
        <time>2020-10-18T11:26:33.000Z</time>
      </trkpt>
      <trkpt lat="48.2811" lon="-3.39726">
        <ele>223.80000305176</ele>
        <time>2020-10-18T11:26:34.000Z</time>
      </trkpt>
      <trkpt lat="48.28112" lon="-3.3974">
        <ele>222.80000305176</ele>
        <time>2020-10-18T11:26:35.000Z</time>
      </trkpt>
      <trkpt lat="48.28112" lon="-3.3974">
        <ele>222.80000305176</ele>
        <time>2020-10-18T11:26:36.000Z</time>
      </trkpt>
      <trkpt lat="48.28113" lon="-3.39747">
        <ele>222.39999389648</ele>
        <time>2020-10-18T11:26:37.000Z</time>
      </trkpt>
      <trkpt lat="48.28113" lon="-3.39762">
        <ele>222.80000305176</ele>
        <time>2020-10-18T11:26:38.000Z</time>
      </trkpt>
      <trkpt lat="48.28113" lon="-3.39762">
        <ele>222.80000305176</ele>
        <time>2020-10-18T11:26:39.000Z</time>
      </trkpt>
      <trkpt lat="48.28114" lon="-3.39769">
        <ele>222.60000610352</ele>
        <time>2020-10-18T11:26:40.000Z</time>
      </trkpt>
      <trkpt lat="48.28114" lon="-3.39785">
        <ele>221.80000305176</ele>
        <time>2020-10-18T11:26:41.000Z</time>
      </trkpt>
      <trkpt lat="48.28114" lon="-3.39785">
        <ele>221.80000305176</ele>
        <time>2020-10-18T11:26:42.000Z</time>
      </trkpt>
      <trkpt lat="48.28115" lon="-3.39793">
        <ele>221.39999389648</ele>
        <time>2020-10-18T11:26:43.000Z</time>
      </trkpt>
      <trkpt lat="48.28114" lon="-3.39808">
        <ele>220.60000610352</ele>
        <time>2020-10-18T11:26:44.000Z</time>
      </trkpt>
      <trkpt lat="48.28114" lon="-3.39808">
        <ele>220.60000610352</ele>
        <time>2020-10-18T11:26:45.000Z</time>
      </trkpt>
      <trkpt lat="48.28114" lon="-3.39815">
        <ele>220.39999389648</ele>
        <time>2020-10-18T11:26:46.000Z</time>
      </trkpt>
      <trkpt lat="48.28113" lon="-3.39823">
        <ele>220</ele>
        <time>2020-10-18T11:26:47.000Z</time>
      </trkpt>
      <trkpt lat="48.28114" lon="-3.39831">
        <ele>219.60000610352</ele>
        <time>2020-10-18T11:26:48.000Z</time>
      </trkpt>
      <trkpt lat="48.28112" lon="-3.39847">
        <ele>219.39999389648</ele>
        <time>2020-10-18T11:26:49.000Z</time>
      </trkpt>
      <trkpt lat="48.28112" lon="-3.39847">
        <ele>219.39999389648</ele>
        <time>2020-10-18T11:26:50.000Z</time>
      </trkpt>
      <trkpt lat="48.28112" lon="-3.39855">
        <ele>219.19999694824</ele>
        <time>2020-10-18T11:26:51.000Z</time>
      </trkpt>
      <trkpt lat="48.2811" lon="-3.39871">
        <ele>218.60000610352</ele>
        <time>2020-10-18T11:26:52.000Z</time>
      </trkpt>
      <trkpt lat="48.2811" lon="-3.39871">
        <ele>218.60000610352</ele>
        <time>2020-10-18T11:26:53.000Z</time>
      </trkpt>
      <trkpt lat="48.2811" lon="-3.39879">
        <ele>218.19999694824</ele>
        <time>2020-10-18T11:26:54.000Z</time>
      </trkpt>
      <trkpt lat="48.28107" lon="-3.39895">
        <ele>217.60000610352</ele>
        <time>2020-10-18T11:26:55.000Z</time>
      </trkpt>
      <trkpt lat="48.28107" lon="-3.39895">
        <ele>217.60000610352</ele>
        <time>2020-10-18T11:26:56.000Z</time>
      </trkpt>
      <trkpt lat="48.28106" lon="-3.39902">
        <ele>217.19999694824</ele>
        <time>2020-10-18T11:26:57.000Z</time>
      </trkpt>
      <trkpt lat="48.28104" lon="-3.39917">
        <ele>216.60000610352</ele>
        <time>2020-10-18T11:26:58.000Z</time>
      </trkpt>
      <trkpt lat="48.28104" lon="-3.39917">
        <ele>216.60000610352</ele>
        <time>2020-10-18T11:26:59.000Z</time>
      </trkpt>
      <trkpt lat="48.28103" lon="-3.39924">
        <ele>216.39999389648</ele>
        <time>2020-10-18T11:27:00.000Z</time>
      </trkpt>
      <trkpt lat="48.28101" lon="-3.39939">
        <ele>216</ele>
        <time>2020-10-18T11:27:01.000Z</time>
      </trkpt>
      <trkpt lat="48.28101" lon="-3.39939">
        <ele>216</ele>
        <time>2020-10-18T11:27:02.000Z</time>
      </trkpt>
      <trkpt lat="48.281" lon="-3.39946">
        <ele>215.80000305176</ele>
        <time>2020-10-18T11:27:03.000Z</time>
      </trkpt>
      <trkpt lat="48.28097" lon="-3.39961">
        <ele>215.39999389648</ele>
        <time>2020-10-18T11:27:04.000Z</time>
      </trkpt>
      <trkpt lat="48.28097" lon="-3.39961">
        <ele>215.39999389648</ele>
        <time>2020-10-18T11:27:05.000Z</time>
      </trkpt>
      <trkpt lat="48.28096" lon="-3.39968">
        <ele>215.19999694824</ele>
        <time>2020-10-18T11:27:06.000Z</time>
      </trkpt>
      <trkpt lat="48.28093" lon="-3.39984">
        <ele>214.60000610352</ele>
        <time>2020-10-18T11:27:07.000Z</time>
      </trkpt>
      <trkpt lat="48.28093" lon="-3.39984">
        <ele>214.60000610352</ele>
        <time>2020-10-18T11:27:08.000Z</time>
      </trkpt>
      <trkpt lat="48.28092" lon="-3.39992">
        <ele>214.39999389648</ele>
        <time>2020-10-18T11:27:09.000Z</time>
      </trkpt>
      <trkpt lat="48.28089" lon="-3.40008">
        <ele>213.80000305176</ele>
        <time>2020-10-18T11:27:10.000Z</time>
      </trkpt>
      <trkpt lat="48.28089" lon="-3.40008">
        <ele>213.80000305176</ele>
        <time>2020-10-18T11:27:11.000Z</time>
      </trkpt>
      <trkpt lat="48.28087" lon="-3.40016">
        <ele>213.60000610352</ele>
        <time>2020-10-18T11:27:12.000Z</time>
      </trkpt>
      <trkpt lat="48.28084" lon="-3.40033">
        <ele>213.39999389648</ele>
        <time>2020-10-18T11:27:13.000Z</time>
      </trkpt>
      <trkpt lat="48.28084" lon="-3.40033">
        <ele>213.39999389648</ele>
        <time>2020-10-18T11:27:14.000Z</time>
      </trkpt>
      <trkpt lat="48.28083" lon="-3.40042">
        <ele>213.39999389648</ele>
        <time>2020-10-18T11:27:15.000Z</time>
      </trkpt>
      <trkpt lat="48.2808" lon="-3.40059">
        <ele>213.19999694824</ele>
        <time>2020-10-18T11:27:16.000Z</time>
      </trkpt>
      <trkpt lat="48.2808" lon="-3.40059">
        <ele>213.19999694824</ele>
        <time>2020-10-18T11:27:17.000Z</time>
      </trkpt>
      <trkpt lat="48.28078" lon="-3.40067">
        <ele>213.19999694824</ele>
        <time>2020-10-18T11:27:18.000Z</time>
      </trkpt>
      <trkpt lat="48.28075" lon="-3.40082">
        <ele>213</ele>
        <time>2020-10-18T11:27:19.000Z</time>
      </trkpt>
      <trkpt lat="48.28075" lon="-3.40082">
        <ele>213</ele>
        <time>2020-10-18T11:27:20.000Z</time>
      </trkpt>
      <trkpt lat="48.28074" lon="-3.40091">
        <ele>213</ele>
        <time>2020-10-18T11:27:21.000Z</time>
      </trkpt>
      <trkpt lat="48.28071" lon="-3.40107">
        <ele>212.80000305176</ele>
        <time>2020-10-18T11:27:22.000Z</time>
      </trkpt>
      <trkpt lat="48.28071" lon="-3.40107">
        <ele>212.80000305176</ele>
        <time>2020-10-18T11:27:23.000Z</time>
      </trkpt>
      <trkpt lat="48.2807" lon="-3.40116">
        <ele>213</ele>
        <time>2020-10-18T11:27:24.000Z</time>
      </trkpt>
      <trkpt lat="48.28066" lon="-3.40134">
        <ele>212.80000305176</ele>
        <time>2020-10-18T11:27:25.000Z</time>
      </trkpt>
      <trkpt lat="48.28066" lon="-3.40134">
        <ele>212.80000305176</ele>
        <time>2020-10-18T11:27:26.000Z</time>
      </trkpt>
      <trkpt lat="48.28065" lon="-3.40143">
        <ele>212.60000610352</ele>
        <time>2020-10-18T11:27:27.000Z</time>
      </trkpt>
      <trkpt lat="48.28062" lon="-3.40161">
        <ele>212</ele>
        <time>2020-10-18T11:27:28.000Z</time>
      </trkpt>
      <trkpt lat="48.28062" lon="-3.40161">
        <ele>212</ele>
        <time>2020-10-18T11:27:29.000Z</time>
      </trkpt>
      <trkpt lat="48.28059" lon="-3.4017">
        <ele>211.80000305176</ele>
        <time>2020-10-18T11:27:30.000Z</time>
      </trkpt>
      <trkpt lat="48.28056" lon="-3.40189">
        <ele>211.60000610352</ele>
        <time>2020-10-18T11:27:31.000Z</time>
      </trkpt>
      <trkpt lat="48.28056" lon="-3.40189">
        <ele>211.60000610352</ele>
        <time>2020-10-18T11:27:32.000Z</time>
      </trkpt>
      <trkpt lat="48.28054" lon="-3.40197">
        <ele>211.80000305176</ele>
        <time>2020-10-18T11:27:33.000Z</time>
      </trkpt>
      <trkpt lat="48.28051" lon="-3.40215">
        <ele>212.19999694824</ele>
        <time>2020-10-18T11:27:34.000Z</time>
      </trkpt>
      <trkpt lat="48.28051" lon="-3.40215">
        <ele>212.19999694824</ele>
        <time>2020-10-18T11:27:35.000Z</time>
      </trkpt>
      <trkpt lat="48.2805" lon="-3.40223">
        <ele>212.39999389648</ele>
        <time>2020-10-18T11:27:36.000Z</time>
      </trkpt>
      <trkpt lat="48.28047" lon="-3.4024">
        <ele>212.39999389648</ele>
        <time>2020-10-18T11:27:37.000Z</time>
      </trkpt>
      <trkpt lat="48.28047" lon="-3.4024">
        <ele>212.39999389648</ele>
        <time>2020-10-18T11:27:38.000Z</time>
      </trkpt>
      <trkpt lat="48.28046" lon="-3.40248">
        <ele>212.39999389648</ele>
        <time>2020-10-18T11:27:39.000Z</time>
      </trkpt>
      <trkpt lat="48.28042" lon="-3.40265">
        <ele>212.19999694824</ele>
        <time>2020-10-18T11:27:40.000Z</time>
      </trkpt>
      <trkpt lat="48.28042" lon="-3.40265">
        <ele>212.19999694824</ele>
        <time>2020-10-18T11:27:41.000Z</time>
      </trkpt>
      <trkpt lat="48.28041" lon="-3.40274">
        <ele>212.19999694824</ele>
        <time>2020-10-18T11:27:42.000Z</time>
      </trkpt>
      <trkpt lat="48.28039" lon="-3.40292">
        <ele>211.80000305176</ele>
        <time>2020-10-18T11:27:43.000Z</time>
      </trkpt>
      <trkpt lat="48.28039" lon="-3.40292">
        <ele>211.80000305176</ele>
        <time>2020-10-18T11:27:44.000Z</time>
      </trkpt>
      <trkpt lat="48.28037" lon="-3.40301">
        <ele>211.60000610352</ele>
        <time>2020-10-18T11:27:45.000Z</time>
      </trkpt>
      <trkpt lat="48.28034" lon="-3.40319">
        <ele>211.19999694824</ele>
        <time>2020-10-18T11:27:46.000Z</time>
      </trkpt>
      <trkpt lat="48.28032" lon="-3.40327">
        <ele>211</ele>
        <time>2020-10-18T11:27:47.000Z</time>
      </trkpt>
      <trkpt lat="48.2803" lon="-3.40335">
        <ele>210.80000305176</ele>
        <time>2020-10-18T11:27:48.000Z</time>
      </trkpt>
      <trkpt lat="48.2803" lon="-3.40335">
        <ele>210.80000305176</ele>
        <time>2020-10-18T11:27:49.000Z</time>
      </trkpt>
      <trkpt lat="48.28029" lon="-3.40342">
        <ele>210.80000305176</ele>
        <time>2020-10-18T11:27:50.000Z</time>
      </trkpt>
      <trkpt lat="48.28027" lon="-3.40354">
        <ele>210.60000610352</ele>
        <time>2020-10-18T11:27:51.000Z</time>
      </trkpt>
      <trkpt lat="48.28027" lon="-3.40354">
        <ele>210.60000610352</ele>
        <time>2020-10-18T11:27:52.000Z</time>
      </trkpt>
      <trkpt lat="48.28026" lon="-3.40359">
        <ele>210.60000610352</ele>
        <time>2020-10-18T11:27:53.000Z</time>
      </trkpt>
      <trkpt lat="48.28025" lon="-3.40367">
        <ele>210.80000305176</ele>
        <time>2020-10-18T11:27:54.000Z</time>
      </trkpt>
      <trkpt lat="48.28025" lon="-3.40367">
        <ele>210.80000305176</ele>
        <time>2020-10-18T11:27:55.000Z</time>
      </trkpt>
      <trkpt lat="48.28025" lon="-3.40371">
        <ele>210.80000305176</ele>
        <time>2020-10-18T11:27:56.000Z</time>
      </trkpt>
      <trkpt lat="48.28024" lon="-3.4038">
        <ele>210.80000305176</ele>
        <time>2020-10-18T11:27:57.000Z</time>
      </trkpt>
      <trkpt lat="48.28024" lon="-3.4038">
        <ele>210.80000305176</ele>
        <time>2020-10-18T11:27:58.000Z</time>
      </trkpt>
      <trkpt lat="48.28024" lon="-3.40386">
        <ele>210.80000305176</ele>
        <time>2020-10-18T11:27:59.000Z</time>
      </trkpt>
      <trkpt lat="48.28022" lon="-3.40397">
        <ele>210.80000305176</ele>
        <time>2020-10-18T11:28:00.000Z</time>
      </trkpt>
      <trkpt lat="48.28022" lon="-3.40397">
        <ele>210.80000305176</ele>
        <time>2020-10-18T11:28:01.000Z</time>
      </trkpt>
      <trkpt lat="48.28021" lon="-3.40403">
        <ele>210.80000305176</ele>
        <time>2020-10-18T11:28:02.000Z</time>
      </trkpt>
      <trkpt lat="48.28018" lon="-3.40417">
        <ele>210.80000305176</ele>
        <time>2020-10-18T11:28:03.000Z</time>
      </trkpt>
      <trkpt lat="48.28018" lon="-3.40417">
        <ele>210.80000305176</ele>
        <time>2020-10-18T11:28:04.000Z</time>
      </trkpt>
      <trkpt lat="48.28017" lon="-3.40424">
        <ele>211</ele>
        <time>2020-10-18T11:28:05.000Z</time>
      </trkpt>
      <trkpt lat="48.28014" lon="-3.40438">
        <ele>211</ele>
        <time>2020-10-18T11:28:06.000Z</time>
      </trkpt>
      <trkpt lat="48.28014" lon="-3.40438">
        <ele>211</ele>
        <time>2020-10-18T11:28:07.000Z</time>
      </trkpt>
      <trkpt lat="48.28013" lon="-3.40445">
        <ele>211.19999694824</ele>
        <time>2020-10-18T11:28:08.000Z</time>
      </trkpt>
      <trkpt lat="48.2801" lon="-3.40459">
        <ele>211.39999389648</ele>
        <time>2020-10-18T11:28:09.000Z</time>
      </trkpt>
      <trkpt lat="48.2801" lon="-3.40459">
        <ele>211.39999389648</ele>
        <time>2020-10-18T11:28:10.000Z</time>
      </trkpt>
      <trkpt lat="48.28007" lon="-3.40474">
        <ele>211.80000305176</ele>
        <time>2020-10-18T11:28:11.000Z</time>
      </trkpt>
      <trkpt lat="48.28007" lon="-3.40474">
        <ele>211.80000305176</ele>
        <time>2020-10-18T11:28:12.000Z</time>
      </trkpt>
      <trkpt lat="48.28006" lon="-3.40481">
        <ele>211.80000305176</ele>
        <time>2020-10-18T11:28:13.000Z</time>
      </trkpt>
      <trkpt lat="48.28003" lon="-3.40495">
        <ele>212.19999694824</ele>
        <time>2020-10-18T11:28:14.000Z</time>
      </trkpt>
      <trkpt lat="48.28003" lon="-3.40495">
        <ele>212.19999694824</ele>
        <time>2020-10-18T11:28:15.000Z</time>
      </trkpt>
      <trkpt lat="48.28002" lon="-3.40503">
        <ele>212.19999694824</ele>
        <time>2020-10-18T11:28:16.000Z</time>
      </trkpt>
      <trkpt lat="48.28001" lon="-3.4051">
        <ele>212.39999389648</ele>
        <time>2020-10-18T11:28:17.000Z</time>
      </trkpt>
      <trkpt lat="48.27998" lon="-3.40524">
        <ele>212.60000610352</ele>
        <time>2020-10-18T11:28:18.000Z</time>
      </trkpt>
      <trkpt lat="48.27998" lon="-3.40524">
        <ele>212.60000610352</ele>
        <time>2020-10-18T11:28:19.000Z</time>
      </trkpt>
      <trkpt lat="48.27996" lon="-3.40531">
        <ele>212.60000610352</ele>
        <time>2020-10-18T11:28:20.000Z</time>
      </trkpt>
      <trkpt lat="48.27994" lon="-3.40545">
        <ele>212.60000610352</ele>
        <time>2020-10-18T11:28:21.000Z</time>
      </trkpt>
      <trkpt lat="48.27993" lon="-3.40553">
        <ele>212.60000610352</ele>
        <time>2020-10-18T11:28:22.000Z</time>
      </trkpt>
      <trkpt lat="48.27993" lon="-3.40553">
        <ele>212.60000610352</ele>
        <time>2020-10-18T11:28:23.000Z</time>
      </trkpt>
      <trkpt lat="48.27991" lon="-3.40567">
        <ele>212.39999389648</ele>
        <time>2020-10-18T11:28:24.000Z</time>
      </trkpt>
      <trkpt lat="48.27991" lon="-3.40567">
        <ele>212.39999389648</ele>
        <time>2020-10-18T11:28:25.000Z</time>
      </trkpt>
      <trkpt lat="48.27989" lon="-3.40583">
        <ele>212.39999389648</ele>
        <time>2020-10-18T11:28:26.000Z</time>
      </trkpt>
      <trkpt lat="48.27989" lon="-3.40583">
        <ele>212.39999389648</ele>
        <time>2020-10-18T11:28:27.000Z</time>
      </trkpt>
      <trkpt lat="48.27987" lon="-3.40598">
        <ele>212.19999694824</ele>
        <time>2020-10-18T11:28:28.000Z</time>
      </trkpt>
      <trkpt lat="48.27987" lon="-3.40598">
        <ele>212.19999694824</ele>
        <time>2020-10-18T11:28:29.000Z</time>
      </trkpt>
      <trkpt lat="48.27987" lon="-3.40613">
        <ele>212</ele>
        <time>2020-10-18T11:28:30.000Z</time>
      </trkpt>
      <trkpt lat="48.27987" lon="-3.40613">
        <ele>212</ele>
        <time>2020-10-18T11:28:31.000Z</time>
      </trkpt>
      <trkpt lat="48.27986" lon="-3.40629">
        <ele>212</ele>
        <time>2020-10-18T11:28:32.000Z</time>
      </trkpt>
      <trkpt lat="48.27986" lon="-3.40629">
        <ele>212</ele>
        <time>2020-10-18T11:28:33.000Z</time>
      </trkpt>
      <trkpt lat="48.27985" lon="-3.40644">
        <ele>212</ele>
        <time>2020-10-18T11:28:34.000Z</time>
      </trkpt>
      <trkpt lat="48.27985" lon="-3.40644">
        <ele>212</ele>
        <time>2020-10-18T11:28:35.000Z</time>
      </trkpt>
      <trkpt lat="48.27984" lon="-3.40658">
        <ele>212</ele>
        <time>2020-10-18T11:28:36.000Z</time>
      </trkpt>
      <trkpt lat="48.27984" lon="-3.40658">
        <ele>212</ele>
        <time>2020-10-18T11:28:37.000Z</time>
      </trkpt>
      <trkpt lat="48.27985" lon="-3.40672">
        <ele>212</ele>
        <time>2020-10-18T11:28:38.000Z</time>
      </trkpt>
      <trkpt lat="48.27985" lon="-3.40672">
        <ele>212</ele>
        <time>2020-10-18T11:28:39.000Z</time>
      </trkpt>
      <trkpt lat="48.27986" lon="-3.40685">
        <ele>212</ele>
        <time>2020-10-18T11:28:40.000Z</time>
      </trkpt>
      <trkpt lat="48.27986" lon="-3.40685">
        <ele>212</ele>
        <time>2020-10-18T11:28:41.000Z</time>
      </trkpt>
      <trkpt lat="48.27987" lon="-3.40698">
        <ele>212.39999389648</ele>
        <time>2020-10-18T11:28:42.000Z</time>
      </trkpt>
      <trkpt lat="48.27987" lon="-3.40698">
        <ele>212.39999389648</ele>
        <time>2020-10-18T11:28:43.000Z</time>
      </trkpt>
      <trkpt lat="48.27988" lon="-3.40711">
        <ele>212.60000610352</ele>
        <time>2020-10-18T11:28:44.000Z</time>
      </trkpt>
      <trkpt lat="48.27988" lon="-3.40711">
        <ele>212.60000610352</ele>
        <time>2020-10-18T11:28:45.000Z</time>
      </trkpt>
      <trkpt lat="48.2799" lon="-3.40723">
        <ele>212.60000610352</ele>
        <time>2020-10-18T11:28:46.000Z</time>
      </trkpt>
      <trkpt lat="48.2799" lon="-3.40723">
        <ele>212.60000610352</ele>
        <time>2020-10-18T11:28:47.000Z</time>
      </trkpt>
      <trkpt lat="48.27993" lon="-3.40736">
        <ele>212.60000610352</ele>
        <time>2020-10-18T11:28:48.000Z</time>
      </trkpt>
      <trkpt lat="48.27993" lon="-3.40736">
        <ele>212.60000610352</ele>
        <time>2020-10-18T11:28:49.000Z</time>
      </trkpt>
      <trkpt lat="48.27996" lon="-3.4075">
        <ele>212.60000610352</ele>
        <time>2020-10-18T11:28:50.000Z</time>
      </trkpt>
      <trkpt lat="48.27996" lon="-3.4075">
        <ele>212.60000610352</ele>
        <time>2020-10-18T11:28:51.000Z</time>
      </trkpt>
      <trkpt lat="48.27998" lon="-3.40762">
        <ele>212.60000610352</ele>
        <time>2020-10-18T11:28:52.000Z</time>
      </trkpt>
      <trkpt lat="48.27998" lon="-3.40762">
        <ele>212.60000610352</ele>
        <time>2020-10-18T11:28:53.000Z</time>
      </trkpt>
      <trkpt lat="48.27999" lon="-3.40767">
        <ele>212.60000610352</ele>
        <time>2020-10-18T11:28:54.000Z</time>
      </trkpt>
      <trkpt lat="48.28002" lon="-3.40776">
        <ele>212.60000610352</ele>
        <time>2020-10-18T11:28:55.000Z</time>
      </trkpt>
      <trkpt lat="48.28002" lon="-3.40776">
        <ele>212.60000610352</ele>
        <time>2020-10-18T11:28:56.000Z</time>
      </trkpt>
      <trkpt lat="48.28004" lon="-3.40786">
        <ele>212.60000610352</ele>
        <time>2020-10-18T11:28:57.000Z</time>
      </trkpt>
      <trkpt lat="48.28004" lon="-3.40786">
        <ele>212.60000610352</ele>
        <time>2020-10-18T11:28:58.000Z</time>
      </trkpt>
      <trkpt lat="48.28007" lon="-3.40798">
        <ele>212.60000610352</ele>
        <time>2020-10-18T11:28:59.000Z</time>
      </trkpt>
      <trkpt lat="48.28007" lon="-3.40798">
        <ele>212.60000610352</ele>
        <time>2020-10-18T11:29:00.000Z</time>
      </trkpt>
      <trkpt lat="48.28009" lon="-3.40809">
        <ele>212.60000610352</ele>
        <time>2020-10-18T11:29:01.000Z</time>
      </trkpt>
      <trkpt lat="48.28011" lon="-3.40815">
        <ele>212.60000610352</ele>
        <time>2020-10-18T11:29:02.000Z</time>
      </trkpt>
      <trkpt lat="48.28011" lon="-3.40815">
        <ele>212.60000610352</ele>
        <time>2020-10-18T11:29:03.000Z</time>
      </trkpt>
      <trkpt lat="48.28014" lon="-3.40828">
        <ele>212.80000305176</ele>
        <time>2020-10-18T11:29:04.000Z</time>
      </trkpt>
      <trkpt lat="48.28014" lon="-3.40828">
        <ele>212.80000305176</ele>
        <time>2020-10-18T11:29:05.000Z</time>
      </trkpt>
      <trkpt lat="48.28015" lon="-3.4084">
        <ele>212.80000305176</ele>
        <time>2020-10-18T11:29:06.000Z</time>
      </trkpt>
      <trkpt lat="48.28015" lon="-3.4084">
        <ele>212.80000305176</ele>
        <time>2020-10-18T11:29:07.000Z</time>
      </trkpt>
      <trkpt lat="48.28017" lon="-3.40852">
        <ele>212.80000305176</ele>
        <time>2020-10-18T11:29:08.000Z</time>
      </trkpt>
      <trkpt lat="48.28017" lon="-3.40852">
        <ele>212.80000305176</ele>
        <time>2020-10-18T11:29:09.000Z</time>
      </trkpt>
      <trkpt lat="48.28021" lon="-3.40869">
        <ele>212.80000305176</ele>
        <time>2020-10-18T11:29:10.000Z</time>
      </trkpt>
      <trkpt lat="48.28021" lon="-3.40869">
        <ele>212.80000305176</ele>
        <time>2020-10-18T11:29:11.000Z</time>
      </trkpt>
      <trkpt lat="48.28024" lon="-3.40885">
        <ele>212.80000305176</ele>
        <time>2020-10-18T11:29:12.000Z</time>
      </trkpt>
      <trkpt lat="48.28024" lon="-3.40885">
        <ele>212.80000305176</ele>
        <time>2020-10-18T11:29:13.000Z</time>
      </trkpt>
      <trkpt lat="48.28025" lon="-3.40893">
        <ele>212.80000305176</ele>
        <time>2020-10-18T11:29:14.000Z</time>
      </trkpt>
      <trkpt lat="48.28028" lon="-3.40907">
        <ele>212.80000305176</ele>
        <time>2020-10-18T11:29:15.000Z</time>
      </trkpt>
      <trkpt lat="48.28028" lon="-3.40907">
        <ele>212.80000305176</ele>
        <time>2020-10-18T11:29:16.000Z</time>
      </trkpt>
      <trkpt lat="48.2803" lon="-3.40921">
        <ele>213</ele>
        <time>2020-10-18T11:29:17.000Z</time>
      </trkpt>
      <trkpt lat="48.2803" lon="-3.40921">
        <ele>213</ele>
        <time>2020-10-18T11:29:18.000Z</time>
      </trkpt>
      <trkpt lat="48.28032" lon="-3.40933">
        <ele>213</ele>
        <time>2020-10-18T11:29:19.000Z</time>
      </trkpt>
      <trkpt lat="48.28032" lon="-3.40933">
        <ele>213</ele>
        <time>2020-10-18T11:29:20.000Z</time>
      </trkpt>
      <trkpt lat="48.28035" lon="-3.40946">
        <ele>213.19999694824</ele>
        <time>2020-10-18T11:29:21.000Z</time>
      </trkpt>
      <trkpt lat="48.28035" lon="-3.40946">
        <ele>213.19999694824</ele>
        <time>2020-10-18T11:29:22.000Z</time>
      </trkpt>
      <trkpt lat="48.28036" lon="-3.40952">
        <ele>213.19999694824</ele>
        <time>2020-10-18T11:29:23.000Z</time>
      </trkpt>
      <trkpt lat="48.28038" lon="-3.40964">
        <ele>213.19999694824</ele>
        <time>2020-10-18T11:29:24.000Z</time>
      </trkpt>
      <trkpt lat="48.28038" lon="-3.40964">
        <ele>213.19999694824</ele>
        <time>2020-10-18T11:29:25.000Z</time>
      </trkpt>
      <trkpt lat="48.28039" lon="-3.40971">
        <ele>213.19999694824</ele>
        <time>2020-10-18T11:29:26.000Z</time>
      </trkpt>
      <trkpt lat="48.28039" lon="-3.40983">
        <ele>213.39999389648</ele>
        <time>2020-10-18T11:29:27.000Z</time>
      </trkpt>
      <trkpt lat="48.28039" lon="-3.40983">
        <ele>213.39999389648</ele>
        <time>2020-10-18T11:29:28.000Z</time>
      </trkpt>
      <trkpt lat="48.2804" lon="-3.40996">
        <ele>213.60000610352</ele>
        <time>2020-10-18T11:29:29.000Z</time>
      </trkpt>
      <trkpt lat="48.2804" lon="-3.40996">
        <ele>213.60000610352</ele>
        <time>2020-10-18T11:29:30.000Z</time>
      </trkpt>
      <trkpt lat="48.2804" lon="-3.41002">
        <ele>213.80000305176</ele>
        <time>2020-10-18T11:29:31.000Z</time>
      </trkpt>
      <trkpt lat="48.28042" lon="-3.41015">
        <ele>214</ele>
        <time>2020-10-18T11:29:32.000Z</time>
      </trkpt>
      <trkpt lat="48.28042" lon="-3.41015">
        <ele>214</ele>
        <time>2020-10-18T11:29:33.000Z</time>
      </trkpt>
      <trkpt lat="48.28044" lon="-3.41022">
        <ele>214</ele>
        <time>2020-10-18T11:29:34.000Z</time>
      </trkpt>
      <trkpt lat="48.28047" lon="-3.41034">
        <ele>214.19999694824</ele>
        <time>2020-10-18T11:29:35.000Z</time>
      </trkpt>
      <trkpt lat="48.28047" lon="-3.41034">
        <ele>214.19999694824</ele>
        <time>2020-10-18T11:29:36.000Z</time>
      </trkpt>
      <trkpt lat="48.28049" lon="-3.41042">
        <ele>214.39999389648</ele>
        <time>2020-10-18T11:29:37.000Z</time>
      </trkpt>
      <trkpt lat="48.28051" lon="-3.41057">
        <ele>214.60000610352</ele>
        <time>2020-10-18T11:29:38.000Z</time>
      </trkpt>
      <trkpt lat="48.28051" lon="-3.41057">
        <ele>214.60000610352</ele>
        <time>2020-10-18T11:29:39.000Z</time>
      </trkpt>
      <trkpt lat="48.28052" lon="-3.41064">
        <ele>214.60000610352</ele>
        <time>2020-10-18T11:29:40.000Z</time>
      </trkpt>
      <trkpt lat="48.28054" lon="-3.41078">
        <ele>214.19999694824</ele>
        <time>2020-10-18T11:29:41.000Z</time>
      </trkpt>
      <trkpt lat="48.28054" lon="-3.41078">
        <ele>214.19999694824</ele>
        <time>2020-10-18T11:29:42.000Z</time>
      </trkpt>
      <trkpt lat="48.28055" lon="-3.41085">
        <ele>214.19999694824</ele>
        <time>2020-10-18T11:29:43.000Z</time>
      </trkpt>
      <trkpt lat="48.28059" lon="-3.41101">
        <ele>213.60000610352</ele>
        <time>2020-10-18T11:29:44.000Z</time>
      </trkpt>
      <trkpt lat="48.28059" lon="-3.41101">
        <ele>213.60000610352</ele>
        <time>2020-10-18T11:29:45.000Z</time>
      </trkpt>
      <trkpt lat="48.28061" lon="-3.41109">
        <ele>213.60000610352</ele>
        <time>2020-10-18T11:29:46.000Z</time>
      </trkpt>
      <trkpt lat="48.28065" lon="-3.41125">
        <ele>213.19999694824</ele>
        <time>2020-10-18T11:29:47.000Z</time>
      </trkpt>
      <trkpt lat="48.28065" lon="-3.41125">
        <ele>213.19999694824</ele>
        <time>2020-10-18T11:29:48.000Z</time>
      </trkpt>
      <trkpt lat="48.28068" lon="-3.41142">
        <ele>212.60000610352</ele>
        <time>2020-10-18T11:29:49.000Z</time>
      </trkpt>
      <trkpt lat="48.28068" lon="-3.41142">
        <ele>212.60000610352</ele>
        <time>2020-10-18T11:29:50.000Z</time>
      </trkpt>
      <trkpt lat="48.28069" lon="-3.41149">
        <ele>212.39999389648</ele>
        <time>2020-10-18T11:29:51.000Z</time>
      </trkpt>
      <trkpt lat="48.28071" lon="-3.41164">
        <ele>211.80000305176</ele>
        <time>2020-10-18T11:29:52.000Z</time>
      </trkpt>
      <trkpt lat="48.28071" lon="-3.41164">
        <ele>211.80000305176</ele>
        <time>2020-10-18T11:29:53.000Z</time>
      </trkpt>
      <trkpt lat="48.28072" lon="-3.41171">
        <ele>211.60000610352</ele>
        <time>2020-10-18T11:29:54.000Z</time>
      </trkpt>
      <trkpt lat="48.28075" lon="-3.41186">
        <ele>211</ele>
        <time>2020-10-18T11:29:55.000Z</time>
      </trkpt>
      <trkpt lat="48.28075" lon="-3.41186">
        <ele>211</ele>
        <time>2020-10-18T11:29:56.000Z</time>
      </trkpt>
      <trkpt lat="48.28077" lon="-3.41201">
        <ele>210.19999694824</ele>
        <time>2020-10-18T11:29:57.000Z</time>
      </trkpt>
      <trkpt lat="48.28077" lon="-3.41201">
        <ele>210.19999694824</ele>
        <time>2020-10-18T11:29:58.000Z</time>
      </trkpt>
      <trkpt lat="48.28079" lon="-3.41209">
        <ele>210</ele>
        <time>2020-10-18T11:29:59.000Z</time>
      </trkpt>
      <trkpt lat="48.28081" lon="-3.41224">
        <ele>210</ele>
        <time>2020-10-18T11:30:00.000Z</time>
      </trkpt>
      <trkpt lat="48.28083" lon="-3.41233">
        <ele>209.80000305176</ele>
        <time>2020-10-18T11:30:01.000Z</time>
      </trkpt>
      <trkpt lat="48.28086" lon="-3.41241">
        <ele>209.60000610352</ele>
        <time>2020-10-18T11:30:02.000Z</time>
      </trkpt>
      <trkpt lat="48.28086" lon="-3.41241">
        <ele>209.60000610352</ele>
        <time>2020-10-18T11:30:03.000Z</time>
      </trkpt>
      <trkpt lat="48.28091" lon="-3.41256">
        <ele>209.39999389648</ele>
        <time>2020-10-18T11:30:04.000Z</time>
      </trkpt>
      <trkpt lat="48.28091" lon="-3.41256">
        <ele>209.39999389648</ele>
        <time>2020-10-18T11:30:05.000Z</time>
      </trkpt>
      <trkpt lat="48.28093" lon="-3.41263">
        <ele>209.19999694824</ele>
        <time>2020-10-18T11:30:06.000Z</time>
      </trkpt>
      <trkpt lat="48.28097" lon="-3.41277">
        <ele>209.19999694824</ele>
        <time>2020-10-18T11:30:07.000Z</time>
      </trkpt>
      <trkpt lat="48.28097" lon="-3.41277">
        <ele>209.19999694824</ele>
        <time>2020-10-18T11:30:08.000Z</time>
      </trkpt>
      <trkpt lat="48.28099" lon="-3.41284">
        <ele>209.19999694824</ele>
        <time>2020-10-18T11:30:09.000Z</time>
      </trkpt>
      <trkpt lat="48.28103" lon="-3.41295">
        <ele>209</ele>
        <time>2020-10-18T11:30:10.000Z</time>
      </trkpt>
      <trkpt lat="48.28103" lon="-3.41295">
        <ele>209</ele>
        <time>2020-10-18T11:30:11.000Z</time>
      </trkpt>
      <trkpt lat="48.28109" lon="-3.41306">
        <ele>208.80000305176</ele>
        <time>2020-10-18T11:30:12.000Z</time>
      </trkpt>
      <trkpt lat="48.28109" lon="-3.41306">
        <ele>208.80000305176</ele>
        <time>2020-10-18T11:30:13.000Z</time>
      </trkpt>
      <trkpt lat="48.28111" lon="-3.41311">
        <ele>208.80000305176</ele>
        <time>2020-10-18T11:30:14.000Z</time>
      </trkpt>
      <trkpt lat="48.28117" lon="-3.41322">
        <ele>208.60000610352</ele>
        <time>2020-10-18T11:30:15.000Z</time>
      </trkpt>
      <trkpt lat="48.28117" lon="-3.41322">
        <ele>208.60000610352</ele>
        <time>2020-10-18T11:30:16.000Z</time>
      </trkpt>
      <trkpt lat="48.2812" lon="-3.41327">
        <ele>208.60000610352</ele>
        <time>2020-10-18T11:30:17.000Z</time>
      </trkpt>
      <trkpt lat="48.28127" lon="-3.41338">
        <ele>208.60000610352</ele>
        <time>2020-10-18T11:30:18.000Z</time>
      </trkpt>
      <trkpt lat="48.28127" lon="-3.41338">
        <ele>208.60000610352</ele>
        <time>2020-10-18T11:30:19.000Z</time>
      </trkpt>
      <trkpt lat="48.2813" lon="-3.41344">
        <ele>208.60000610352</ele>
        <time>2020-10-18T11:30:20.000Z</time>
      </trkpt>
      <trkpt lat="48.28136" lon="-3.41354">
        <ele>208.60000610352</ele>
        <time>2020-10-18T11:30:21.000Z</time>
      </trkpt>
      <trkpt lat="48.28136" lon="-3.41354">
        <ele>208.60000610352</ele>
        <time>2020-10-18T11:30:22.000Z</time>
      </trkpt>
      <trkpt lat="48.2814" lon="-3.41359">
        <ele>208.39999389648</ele>
        <time>2020-10-18T11:30:23.000Z</time>
      </trkpt>
      <trkpt lat="48.28146" lon="-3.41368">
        <ele>208.19999694824</ele>
        <time>2020-10-18T11:30:24.000Z</time>
      </trkpt>
      <trkpt lat="48.28146" lon="-3.41368">
        <ele>208.19999694824</ele>
        <time>2020-10-18T11:30:25.000Z</time>
      </trkpt>
      <trkpt lat="48.2815" lon="-3.41372">
        <ele>208</ele>
        <time>2020-10-18T11:30:26.000Z</time>
      </trkpt>
      <trkpt lat="48.28156" lon="-3.41381">
        <ele>208</ele>
        <time>2020-10-18T11:30:27.000Z</time>
      </trkpt>
      <trkpt lat="48.28156" lon="-3.41381">
        <ele>208</ele>
        <time>2020-10-18T11:30:28.000Z</time>
      </trkpt>
      <trkpt lat="48.2816" lon="-3.41386">
        <ele>208.19999694824</ele>
        <time>2020-10-18T11:30:29.000Z</time>
      </trkpt>
      <trkpt lat="48.28166" lon="-3.41395">
        <ele>208.19999694824</ele>
        <time>2020-10-18T11:30:30.000Z</time>
      </trkpt>
      <trkpt lat="48.28166" lon="-3.41395">
        <ele>208.19999694824</ele>
        <time>2020-10-18T11:30:31.000Z</time>
      </trkpt>
      <trkpt lat="48.2817" lon="-3.41399">
        <ele>208.39999389648</ele>
        <time>2020-10-18T11:30:32.000Z</time>
      </trkpt>
      <trkpt lat="48.28178" lon="-3.41408">
        <ele>208.39999389648</ele>
        <time>2020-10-18T11:30:33.000Z</time>
      </trkpt>
      <trkpt lat="48.28178" lon="-3.41408">
        <ele>208.39999389648</ele>
        <time>2020-10-18T11:30:34.000Z</time>
      </trkpt>
      <trkpt lat="48.28182" lon="-3.41413">
        <ele>208.60000610352</ele>
        <time>2020-10-18T11:30:35.000Z</time>
      </trkpt>
      <trkpt lat="48.28189" lon="-3.41423">
        <ele>208.80000305176</ele>
        <time>2020-10-18T11:30:36.000Z</time>
      </trkpt>
      <trkpt lat="48.28189" lon="-3.41423">
        <ele>208.80000305176</ele>
        <time>2020-10-18T11:30:37.000Z</time>
      </trkpt>
      <trkpt lat="48.28192" lon="-3.41428">
        <ele>209</ele>
        <time>2020-10-18T11:30:38.000Z</time>
      </trkpt>
      <trkpt lat="48.28199" lon="-3.41438">
        <ele>209</ele>
        <time>2020-10-18T11:30:39.000Z</time>
      </trkpt>
      <trkpt lat="48.28202" lon="-3.41442">
        <ele>209.19999694824</ele>
        <time>2020-10-18T11:30:40.000Z</time>
      </trkpt>
      <trkpt lat="48.28202" lon="-3.41442">
        <ele>209.19999694824</ele>
        <time>2020-10-18T11:30:41.000Z</time>
      </trkpt>
      <trkpt lat="48.28206" lon="-3.41447">
        <ele>209.19999694824</ele>
        <time>2020-10-18T11:30:42.000Z</time>
      </trkpt>
      <trkpt lat="48.28213" lon="-3.41456">
        <ele>209.19999694824</ele>
        <time>2020-10-18T11:30:43.000Z</time>
      </trkpt>
      <trkpt lat="48.28213" lon="-3.41456">
        <ele>209.19999694824</ele>
        <time>2020-10-18T11:30:44.000Z</time>
      </trkpt>
      <trkpt lat="48.28216" lon="-3.41461">
        <ele>209.39999389648</ele>
        <time>2020-10-18T11:30:45.000Z</time>
      </trkpt>
      <trkpt lat="48.28223" lon="-3.4147">
        <ele>209.39999389648</ele>
        <time>2020-10-18T11:30:46.000Z</time>
      </trkpt>
      <trkpt lat="48.28223" lon="-3.4147">
        <ele>209.39999389648</ele>
        <time>2020-10-18T11:30:47.000Z</time>
      </trkpt>
      <trkpt lat="48.2823" lon="-3.41479">
        <ele>209.60000610352</ele>
        <time>2020-10-18T11:30:48.000Z</time>
      </trkpt>
      <trkpt lat="48.2823" lon="-3.41479">
        <ele>209.60000610352</ele>
        <time>2020-10-18T11:30:49.000Z</time>
      </trkpt>
      <trkpt lat="48.28234" lon="-3.41484">
        <ele>209.60000610352</ele>
        <time>2020-10-18T11:30:50.000Z</time>
      </trkpt>
      <trkpt lat="48.28241" lon="-3.41492">
        <ele>209.80000305176</ele>
        <time>2020-10-18T11:30:51.000Z</time>
      </trkpt>
      <trkpt lat="48.28241" lon="-3.41492">
        <ele>209.80000305176</ele>
        <time>2020-10-18T11:30:52.000Z</time>
      </trkpt>
      <trkpt lat="48.28245" lon="-3.41496">
        <ele>209.80000305176</ele>
        <time>2020-10-18T11:30:53.000Z</time>
      </trkpt>
      <trkpt lat="48.28251" lon="-3.41504">
        <ele>209.80000305176</ele>
        <time>2020-10-18T11:30:54.000Z</time>
      </trkpt>
      <trkpt lat="48.28251" lon="-3.41504">
        <ele>209.80000305176</ele>
        <time>2020-10-18T11:30:55.000Z</time>
      </trkpt>
      <trkpt lat="48.28254" lon="-3.41508">
        <ele>210</ele>
        <time>2020-10-18T11:30:56.000Z</time>
      </trkpt>
      <trkpt lat="48.28261" lon="-3.41517">
        <ele>210</ele>
        <time>2020-10-18T11:30:57.000Z</time>
      </trkpt>
      <trkpt lat="48.28261" lon="-3.41517">
        <ele>210</ele>
        <time>2020-10-18T11:30:58.000Z</time>
      </trkpt>
      <trkpt lat="48.28265" lon="-3.41521">
        <ele>210</ele>
        <time>2020-10-18T11:30:59.000Z</time>
      </trkpt>
      <trkpt lat="48.28271" lon="-3.4153">
        <ele>209.80000305176</ele>
        <time>2020-10-18T11:31:00.000Z</time>
      </trkpt>
      <trkpt lat="48.28271" lon="-3.4153">
        <ele>209.80000305176</ele>
        <time>2020-10-18T11:31:01.000Z</time>
      </trkpt>
      <trkpt lat="48.28274" lon="-3.41535">
        <ele>209.80000305176</ele>
        <time>2020-10-18T11:31:02.000Z</time>
      </trkpt>
      <trkpt lat="48.28281" lon="-3.41545">
        <ele>209.60000610352</ele>
        <time>2020-10-18T11:31:03.000Z</time>
      </trkpt>
      <trkpt lat="48.28281" lon="-3.41545">
        <ele>209.60000610352</ele>
        <time>2020-10-18T11:31:04.000Z</time>
      </trkpt>
      <trkpt lat="48.28285" lon="-3.41549">
        <ele>209.60000610352</ele>
        <time>2020-10-18T11:31:05.000Z</time>
      </trkpt>
      <trkpt lat="48.28291" lon="-3.41558">
        <ele>209.39999389648</ele>
        <time>2020-10-18T11:31:06.000Z</time>
      </trkpt>
      <trkpt lat="48.28291" lon="-3.41558">
        <ele>209.39999389648</ele>
        <time>2020-10-18T11:31:07.000Z</time>
      </trkpt>
      <trkpt lat="48.28295" lon="-3.41562">
        <ele>209.39999389648</ele>
        <time>2020-10-18T11:31:08.000Z</time>
      </trkpt>
      <trkpt lat="48.28303" lon="-3.41572">
        <ele>209.60000610352</ele>
        <time>2020-10-18T11:31:09.000Z</time>
      </trkpt>
      <trkpt lat="48.28303" lon="-3.41572">
        <ele>209.60000610352</ele>
        <time>2020-10-18T11:31:10.000Z</time>
      </trkpt>
      <trkpt lat="48.28306" lon="-3.41576">
        <ele>209.80000305176</ele>
        <time>2020-10-18T11:31:11.000Z</time>
      </trkpt>
      <trkpt lat="48.28313" lon="-3.41585">
        <ele>210</ele>
        <time>2020-10-18T11:31:12.000Z</time>
      </trkpt>
      <trkpt lat="48.28313" lon="-3.41585">
        <ele>210</ele>
        <time>2020-10-18T11:31:13.000Z</time>
      </trkpt>
      <trkpt lat="48.28317" lon="-3.41589">
        <ele>210.19999694824</ele>
        <time>2020-10-18T11:31:14.000Z</time>
      </trkpt>
      <trkpt lat="48.28323" lon="-3.41601">
        <ele>210.39999389648</ele>
        <time>2020-10-18T11:31:15.000Z</time>
      </trkpt>
      <trkpt lat="48.28323" lon="-3.41601">
        <ele>210.39999389648</ele>
        <time>2020-10-18T11:31:16.000Z</time>
      </trkpt>
      <trkpt lat="48.28326" lon="-3.41606">
        <ele>210.39999389648</ele>
        <time>2020-10-18T11:31:17.000Z</time>
      </trkpt>
      <trkpt lat="48.28333" lon="-3.41616">
        <ele>210.39999389648</ele>
        <time>2020-10-18T11:31:18.000Z</time>
      </trkpt>
      <trkpt lat="48.28333" lon="-3.41616">
        <ele>210.39999389648</ele>
        <time>2020-10-18T11:31:19.000Z</time>
      </trkpt>
      <trkpt lat="48.28337" lon="-3.41622">
        <ele>210.39999389648</ele>
        <time>2020-10-18T11:31:20.000Z</time>
      </trkpt>
      <trkpt lat="48.28343" lon="-3.41631">
        <ele>210.39999389648</ele>
        <time>2020-10-18T11:31:21.000Z</time>
      </trkpt>
      <trkpt lat="48.28343" lon="-3.41631">
        <ele>210.39999389648</ele>
        <time>2020-10-18T11:31:22.000Z</time>
      </trkpt>
      <trkpt lat="48.28346" lon="-3.41636">
        <ele>210.60000610352</ele>
        <time>2020-10-18T11:31:23.000Z</time>
      </trkpt>
      <trkpt lat="48.28352" lon="-3.41645">
        <ele>210.39999389648</ele>
        <time>2020-10-18T11:31:24.000Z</time>
      </trkpt>
      <trkpt lat="48.28352" lon="-3.41645">
        <ele>210.39999389648</ele>
        <time>2020-10-18T11:31:25.000Z</time>
      </trkpt>
      <trkpt lat="48.28355" lon="-3.4165">
        <ele>210.19999694824</ele>
        <time>2020-10-18T11:31:26.000Z</time>
      </trkpt>
      <trkpt lat="48.28362" lon="-3.41658">
        <ele>210</ele>
        <time>2020-10-18T11:31:27.000Z</time>
      </trkpt>
      <trkpt lat="48.28362" lon="-3.41658">
        <ele>210</ele>
        <time>2020-10-18T11:31:28.000Z</time>
      </trkpt>
      <trkpt lat="48.28365" lon="-3.41663">
        <ele>209.80000305176</ele>
        <time>2020-10-18T11:31:29.000Z</time>
      </trkpt>
      <trkpt lat="48.28373" lon="-3.41673">
        <ele>209.39999389648</ele>
        <time>2020-10-18T11:31:30.000Z</time>
      </trkpt>
      <trkpt lat="48.28373" lon="-3.41673">
        <ele>209.39999389648</ele>
        <time>2020-10-18T11:31:31.000Z</time>
      </trkpt>
      <trkpt lat="48.28377" lon="-3.41679">
        <ele>209.39999389648</ele>
        <time>2020-10-18T11:31:32.000Z</time>
      </trkpt>
      <trkpt lat="48.28385" lon="-3.41689">
        <ele>208.80000305176</ele>
        <time>2020-10-18T11:31:33.000Z</time>
      </trkpt>
      <trkpt lat="48.28385" lon="-3.41689">
        <ele>208.80000305176</ele>
        <time>2020-10-18T11:31:34.000Z</time>
      </trkpt>
      <trkpt lat="48.28389" lon="-3.41694">
        <ele>208.39999389648</ele>
        <time>2020-10-18T11:31:35.000Z</time>
      </trkpt>
      <trkpt lat="48.28397" lon="-3.41703">
        <ele>207.80000305176</ele>
        <time>2020-10-18T11:31:36.000Z</time>
      </trkpt>
      <trkpt lat="48.28397" lon="-3.41703">
        <ele>207.80000305176</ele>
        <time>2020-10-18T11:31:37.000Z</time>
      </trkpt>
      <trkpt lat="48.28401" lon="-3.41708">
        <ele>207.39999389648</ele>
        <time>2020-10-18T11:31:38.000Z</time>
      </trkpt>
      <trkpt lat="48.28408" lon="-3.41719">
        <ele>207.39999389648</ele>
        <time>2020-10-18T11:31:39.000Z</time>
      </trkpt>
      <trkpt lat="48.28408" lon="-3.41719">
        <ele>207.39999389648</ele>
        <time>2020-10-18T11:31:40.000Z</time>
      </trkpt>
      <trkpt lat="48.28412" lon="-3.41724">
        <ele>207.60000610352</ele>
        <time>2020-10-18T11:31:41.000Z</time>
      </trkpt>
      <trkpt lat="48.28419" lon="-3.41734">
        <ele>207.80000305176</ele>
        <time>2020-10-18T11:31:42.000Z</time>
      </trkpt>
      <trkpt lat="48.28419" lon="-3.41734">
        <ele>207.80000305176</ele>
        <time>2020-10-18T11:31:43.000Z</time>
      </trkpt>
      <trkpt lat="48.28422" lon="-3.4174">
        <ele>207.80000305176</ele>
        <time>2020-10-18T11:31:44.000Z</time>
      </trkpt>
      <trkpt lat="48.2843" lon="-3.4175">
        <ele>208</ele>
        <time>2020-10-18T11:31:45.000Z</time>
      </trkpt>
      <trkpt lat="48.2843" lon="-3.4175">
        <ele>208</ele>
        <time>2020-10-18T11:31:46.000Z</time>
      </trkpt>
      <trkpt lat="48.28438" lon="-3.4176">
        <ele>208</ele>
        <time>2020-10-18T11:31:47.000Z</time>
      </trkpt>
      <trkpt lat="48.28438" lon="-3.4176">
        <ele>208</ele>
        <time>2020-10-18T11:31:48.000Z</time>
      </trkpt>
      <trkpt lat="48.28445" lon="-3.41772">
        <ele>208</ele>
        <time>2020-10-18T11:31:49.000Z</time>
      </trkpt>
      <trkpt lat="48.28445" lon="-3.41772">
        <ele>208</ele>
        <time>2020-10-18T11:31:50.000Z</time>
      </trkpt>
      <trkpt lat="48.28449" lon="-3.41777">
        <ele>208</ele>
        <time>2020-10-18T11:31:51.000Z</time>
      </trkpt>
      <trkpt lat="48.28456" lon="-3.41788">
        <ele>207.80000305176</ele>
        <time>2020-10-18T11:31:52.000Z</time>
      </trkpt>
      <trkpt lat="48.28456" lon="-3.41788">
        <ele>207.80000305176</ele>
        <time>2020-10-18T11:31:53.000Z</time>
      </trkpt>
      <trkpt lat="48.28459" lon="-3.41794">
        <ele>207.60000610352</ele>
        <time>2020-10-18T11:31:54.000Z</time>
      </trkpt>
      <trkpt lat="48.28466" lon="-3.41807">
        <ele>207.39999389648</ele>
        <time>2020-10-18T11:31:55.000Z</time>
      </trkpt>
      <trkpt lat="48.28466" lon="-3.41807">
        <ele>207.39999389648</ele>
        <time>2020-10-18T11:31:56.000Z</time>
      </trkpt>
      <trkpt lat="48.28473" lon="-3.41819">
        <ele>207.80000305176</ele>
        <time>2020-10-18T11:31:57.000Z</time>
      </trkpt>
      <trkpt lat="48.28473" lon="-3.41819">
        <ele>207.80000305176</ele>
        <time>2020-10-18T11:31:58.000Z</time>
      </trkpt>
      <trkpt lat="48.28476" lon="-3.41826">
        <ele>208</ele>
        <time>2020-10-18T11:31:59.000Z</time>
      </trkpt>
      <trkpt lat="48.28483" lon="-3.41838">
        <ele>208.39999389648</ele>
        <time>2020-10-18T11:32:00.000Z</time>
      </trkpt>
      <trkpt lat="48.28483" lon="-3.41838">
        <ele>208.39999389648</ele>
        <time>2020-10-18T11:32:01.000Z</time>
      </trkpt>
      <trkpt lat="48.28486" lon="-3.41845">
        <ele>208.60000610352</ele>
        <time>2020-10-18T11:32:02.000Z</time>
      </trkpt>
      <trkpt lat="48.28492" lon="-3.41857">
        <ele>208.80000305176</ele>
        <time>2020-10-18T11:32:03.000Z</time>
      </trkpt>
      <trkpt lat="48.28492" lon="-3.41857">
        <ele>208.80000305176</ele>
        <time>2020-10-18T11:32:04.000Z</time>
      </trkpt>
      <trkpt lat="48.28495" lon="-3.41863">
        <ele>209</ele>
        <time>2020-10-18T11:32:05.000Z</time>
      </trkpt>
      <trkpt lat="48.285" lon="-3.41876">
        <ele>209.19999694824</ele>
        <time>2020-10-18T11:32:06.000Z</time>
      </trkpt>
      <trkpt lat="48.285" lon="-3.41876">
        <ele>209.19999694824</ele>
        <time>2020-10-18T11:32:07.000Z</time>
      </trkpt>
      <trkpt lat="48.28503" lon="-3.41883">
        <ele>209.39999389648</ele>
        <time>2020-10-18T11:32:08.000Z</time>
      </trkpt>
      <trkpt lat="48.28508" lon="-3.41896">
        <ele>209.80000305176</ele>
        <time>2020-10-18T11:32:09.000Z</time>
      </trkpt>
      <trkpt lat="48.28508" lon="-3.41896">
        <ele>209.80000305176</ele>
        <time>2020-10-18T11:32:10.000Z</time>
      </trkpt>
      <trkpt lat="48.28511" lon="-3.41902">
        <ele>209.80000305176</ele>
        <time>2020-10-18T11:32:11.000Z</time>
      </trkpt>
      <trkpt lat="48.28516" lon="-3.41915">
        <ele>210</ele>
        <time>2020-10-18T11:32:12.000Z</time>
      </trkpt>
      <trkpt lat="48.28516" lon="-3.41915">
        <ele>210</ele>
        <time>2020-10-18T11:32:13.000Z</time>
      </trkpt>
      <trkpt lat="48.28518" lon="-3.4192">
        <ele>210.19999694824</ele>
        <time>2020-10-18T11:32:14.000Z</time>
      </trkpt>
      <trkpt lat="48.28522" lon="-3.41933">
        <ele>210.39999389648</ele>
        <time>2020-10-18T11:32:15.000Z</time>
      </trkpt>
      <trkpt lat="48.28522" lon="-3.41933">
        <ele>210.39999389648</ele>
        <time>2020-10-18T11:32:16.000Z</time>
      </trkpt>
      <trkpt lat="48.28525" lon="-3.41939">
        <ele>210.19999694824</ele>
        <time>2020-10-18T11:32:17.000Z</time>
      </trkpt>
      <trkpt lat="48.28529" lon="-3.41952">
        <ele>210</ele>
        <time>2020-10-18T11:32:18.000Z</time>
      </trkpt>
      <trkpt lat="48.28531" lon="-3.41959">
        <ele>210</ele>
        <time>2020-10-18T11:32:19.000Z</time>
      </trkpt>
      <trkpt lat="48.28531" lon="-3.41959">
        <ele>210</ele>
        <time>2020-10-18T11:32:20.000Z</time>
      </trkpt>
      <trkpt lat="48.28533" lon="-3.41965">
        <ele>210</ele>
        <time>2020-10-18T11:32:21.000Z</time>
      </trkpt>
      <trkpt lat="48.28538" lon="-3.41978">
        <ele>209.80000305176</ele>
        <time>2020-10-18T11:32:22.000Z</time>
      </trkpt>
      <trkpt lat="48.28538" lon="-3.41978">
        <ele>209.80000305176</ele>
        <time>2020-10-18T11:32:23.000Z</time>
      </trkpt>
      <trkpt lat="48.2854" lon="-3.41984">
        <ele>209.80000305176</ele>
        <time>2020-10-18T11:32:24.000Z</time>
      </trkpt>
      <trkpt lat="48.28543" lon="-3.41994">
        <ele>209.39999389648</ele>
        <time>2020-10-18T11:32:25.000Z</time>
      </trkpt>
      <trkpt lat="48.28543" lon="-3.41994">
        <ele>209.39999389648</ele>
        <time>2020-10-18T11:32:26.000Z</time>
      </trkpt>
      <trkpt lat="48.28545" lon="-3.41998">
        <ele>209.39999389648</ele>
        <time>2020-10-18T11:32:27.000Z</time>
      </trkpt>
      <trkpt lat="48.28548" lon="-3.42005">
        <ele>209.19999694824</ele>
        <time>2020-10-18T11:32:28.000Z</time>
      </trkpt>
      <trkpt lat="48.28548" lon="-3.42005">
        <ele>209.19999694824</ele>
        <time>2020-10-18T11:32:29.000Z</time>
      </trkpt>
      <trkpt lat="48.2855" lon="-3.42008">
        <ele>209.19999694824</ele>
        <time>2020-10-18T11:32:30.000Z</time>
      </trkpt>
      <trkpt lat="48.28553" lon="-3.42016">
        <ele>209</ele>
        <time>2020-10-18T11:32:31.000Z</time>
      </trkpt>
      <trkpt lat="48.28553" lon="-3.42016">
        <ele>209</ele>
        <time>2020-10-18T11:32:32.000Z</time>
      </trkpt>
      <trkpt lat="48.28554" lon="-3.4202">
        <ele>209</ele>
        <time>2020-10-18T11:32:33.000Z</time>
      </trkpt>
      <trkpt lat="48.28557" lon="-3.42029">
        <ele>209</ele>
        <time>2020-10-18T11:32:34.000Z</time>
      </trkpt>
      <trkpt lat="48.28557" lon="-3.42029">
        <ele>209</ele>
        <time>2020-10-18T11:32:35.000Z</time>
      </trkpt>
      <trkpt lat="48.28559" lon="-3.42033">
        <ele>209</ele>
        <time>2020-10-18T11:32:36.000Z</time>
      </trkpt>
      <trkpt lat="48.28562" lon="-3.42042">
        <ele>209.19999694824</ele>
        <time>2020-10-18T11:32:37.000Z</time>
      </trkpt>
      <trkpt lat="48.28563" lon="-3.42047">
        <ele>209.19999694824</ele>
        <time>2020-10-18T11:32:38.000Z</time>
      </trkpt>
      <trkpt lat="48.28563" lon="-3.42047">
        <ele>209.19999694824</ele>
        <time>2020-10-18T11:32:39.000Z</time>
      </trkpt>
      <trkpt lat="48.28564" lon="-3.42051">
        <ele>209.19999694824</ele>
        <time>2020-10-18T11:32:40.000Z</time>
      </trkpt>
      <trkpt lat="48.28567" lon="-3.42061">
        <ele>209.39999389648</ele>
        <time>2020-10-18T11:32:41.000Z</time>
      </trkpt>
      <trkpt lat="48.28567" lon="-3.42061">
        <ele>209.39999389648</ele>
        <time>2020-10-18T11:32:42.000Z</time>
      </trkpt>
      <trkpt lat="48.28569" lon="-3.42066">
        <ele>209.60000610352</ele>
        <time>2020-10-18T11:32:43.000Z</time>
      </trkpt>
      <trkpt lat="48.28572" lon="-3.42076">
        <ele>209.80000305176</ele>
        <time>2020-10-18T11:32:44.000Z</time>
      </trkpt>
      <trkpt lat="48.28572" lon="-3.42076">
        <ele>209.80000305176</ele>
        <time>2020-10-18T11:32:45.000Z</time>
      </trkpt>
      <trkpt lat="48.28573" lon="-3.42081">
        <ele>210</ele>
        <time>2020-10-18T11:32:46.000Z</time>
      </trkpt>
      <trkpt lat="48.28575" lon="-3.42087">
        <ele>210</ele>
        <time>2020-10-18T11:32:47.000Z</time>
      </trkpt>
      <trkpt lat="48.28577" lon="-3.42092">
        <ele>210.19999694824</ele>
        <time>2020-10-18T11:32:48.000Z</time>
      </trkpt>
      <trkpt lat="48.28581" lon="-3.42104">
        <ele>210.39999389648</ele>
        <time>2020-10-18T11:32:49.000Z</time>
      </trkpt>
      <trkpt lat="48.28581" lon="-3.42104">
        <ele>210.39999389648</ele>
        <time>2020-10-18T11:32:50.000Z</time>
      </trkpt>
      <trkpt lat="48.28583" lon="-3.4211">
        <ele>210.39999389648</ele>
        <time>2020-10-18T11:32:51.000Z</time>
      </trkpt>
      <trkpt lat="48.28587" lon="-3.42122">
        <ele>210.39999389648</ele>
        <time>2020-10-18T11:32:52.000Z</time>
      </trkpt>
      <trkpt lat="48.28587" lon="-3.42122">
        <ele>210.39999389648</ele>
        <time>2020-10-18T11:32:53.000Z</time>
      </trkpt>
      <trkpt lat="48.28589" lon="-3.42128">
        <ele>210.39999389648</ele>
        <time>2020-10-18T11:32:54.000Z</time>
      </trkpt>
      <trkpt lat="48.28593" lon="-3.4214">
        <ele>210.39999389648</ele>
        <time>2020-10-18T11:32:55.000Z</time>
      </trkpt>
      <trkpt lat="48.28593" lon="-3.4214">
        <ele>210.39999389648</ele>
        <time>2020-10-18T11:32:56.000Z</time>
      </trkpt>
      <trkpt lat="48.28595" lon="-3.42146">
        <ele>210.39999389648</ele>
        <time>2020-10-18T11:32:57.000Z</time>
      </trkpt>
      <trkpt lat="48.28599" lon="-3.42158">
        <ele>210.19999694824</ele>
        <time>2020-10-18T11:32:58.000Z</time>
      </trkpt>
      <trkpt lat="48.28599" lon="-3.42158">
        <ele>210.19999694824</ele>
        <time>2020-10-18T11:32:59.000Z</time>
      </trkpt>
      <trkpt lat="48.286" lon="-3.42164">
        <ele>210.19999694824</ele>
        <time>2020-10-18T11:33:00.000Z</time>
      </trkpt>
      <trkpt lat="48.28605" lon="-3.42177">
        <ele>210</ele>
        <time>2020-10-18T11:33:01.000Z</time>
      </trkpt>
      <trkpt lat="48.28605" lon="-3.42177">
        <ele>210</ele>
        <time>2020-10-18T11:33:02.000Z</time>
      </trkpt>
      <trkpt lat="48.28608" lon="-3.42183">
        <ele>210</ele>
        <time>2020-10-18T11:33:03.000Z</time>
      </trkpt>
      <trkpt lat="48.28612" lon="-3.42196">
        <ele>209.80000305176</ele>
        <time>2020-10-18T11:33:04.000Z</time>
      </trkpt>
      <trkpt lat="48.28612" lon="-3.42196">
        <ele>209.80000305176</ele>
        <time>2020-10-18T11:33:05.000Z</time>
      </trkpt>
      <trkpt lat="48.28614" lon="-3.42202">
        <ele>209.80000305176</ele>
        <time>2020-10-18T11:33:06.000Z</time>
      </trkpt>
      <trkpt lat="48.28619" lon="-3.42215">
        <ele>209.60000610352</ele>
        <time>2020-10-18T11:33:07.000Z</time>
      </trkpt>
      <trkpt lat="48.28619" lon="-3.42215">
        <ele>209.60000610352</ele>
        <time>2020-10-18T11:33:08.000Z</time>
      </trkpt>
      <trkpt lat="48.28621" lon="-3.42222">
        <ele>209.60000610352</ele>
        <time>2020-10-18T11:33:09.000Z</time>
      </trkpt>
      <trkpt lat="48.28625" lon="-3.42235">
        <ele>209.39999389648</ele>
        <time>2020-10-18T11:33:10.000Z</time>
      </trkpt>
      <trkpt lat="48.28625" lon="-3.42235">
        <ele>209.39999389648</ele>
        <time>2020-10-18T11:33:11.000Z</time>
      </trkpt>
      <trkpt lat="48.28627" lon="-3.42241">
        <ele>209.19999694824</ele>
        <time>2020-10-18T11:33:12.000Z</time>
      </trkpt>
      <trkpt lat="48.28631" lon="-3.42253">
        <ele>209.19999694824</ele>
        <time>2020-10-18T11:33:13.000Z</time>
      </trkpt>
      <trkpt lat="48.28631" lon="-3.42253">
        <ele>209.19999694824</ele>
        <time>2020-10-18T11:33:14.000Z</time>
      </trkpt>
      <trkpt lat="48.28633" lon="-3.4226">
        <ele>209</ele>
        <time>2020-10-18T11:33:15.000Z</time>
      </trkpt>
      <trkpt lat="48.28635" lon="-3.42266">
        <ele>209</ele>
        <time>2020-10-18T11:33:16.000Z</time>
      </trkpt>
      <trkpt lat="48.28638" lon="-3.42277">
        <ele>208.80000305176</ele>
        <time>2020-10-18T11:33:17.000Z</time>
      </trkpt>
      <trkpt lat="48.2864" lon="-3.42283">
        <ele>208.80000305176</ele>
        <time>2020-10-18T11:33:18.000Z</time>
      </trkpt>
      <trkpt lat="48.2864" lon="-3.42283">
        <ele>208.80000305176</ele>
        <time>2020-10-18T11:33:19.000Z</time>
      </trkpt>
      <trkpt lat="48.28642" lon="-3.42289">
        <ele>208.80000305176</ele>
        <time>2020-10-18T11:33:20.000Z</time>
      </trkpt>
      <trkpt lat="48.28646" lon="-3.42301">
        <ele>208.60000610352</ele>
        <time>2020-10-18T11:33:21.000Z</time>
      </trkpt>
      <trkpt lat="48.28646" lon="-3.42301">
        <ele>208.60000610352</ele>
        <time>2020-10-18T11:33:22.000Z</time>
      </trkpt>
      <trkpt lat="48.28648" lon="-3.42307">
        <ele>208.60000610352</ele>
        <time>2020-10-18T11:33:23.000Z</time>
      </trkpt>
      <trkpt lat="48.28652" lon="-3.42318">
        <ele>208.39999389648</ele>
        <time>2020-10-18T11:33:24.000Z</time>
      </trkpt>
      <trkpt lat="48.28652" lon="-3.42318">
        <ele>208.39999389648</ele>
        <time>2020-10-18T11:33:25.000Z</time>
      </trkpt>
      <trkpt lat="48.28654" lon="-3.42324">
        <ele>208.39999389648</ele>
        <time>2020-10-18T11:33:26.000Z</time>
      </trkpt>
      <trkpt lat="48.28659" lon="-3.42336">
        <ele>208.19999694824</ele>
        <time>2020-10-18T11:33:27.000Z</time>
      </trkpt>
      <trkpt lat="48.28659" lon="-3.42336">
        <ele>208.19999694824</ele>
        <time>2020-10-18T11:33:28.000Z</time>
      </trkpt>
      <trkpt lat="48.28661" lon="-3.42342">
        <ele>208</ele>
        <time>2020-10-18T11:33:29.000Z</time>
      </trkpt>
      <trkpt lat="48.28666" lon="-3.42355">
        <ele>208</ele>
        <time>2020-10-18T11:33:30.000Z</time>
      </trkpt>
      <trkpt lat="48.28666" lon="-3.42355">
        <ele>208</ele>
        <time>2020-10-18T11:33:31.000Z</time>
      </trkpt>
      <trkpt lat="48.28668" lon="-3.42361">
        <ele>208</ele>
        <time>2020-10-18T11:33:32.000Z</time>
      </trkpt>
      <trkpt lat="48.28673" lon="-3.42372">
        <ele>208</ele>
        <time>2020-10-18T11:33:33.000Z</time>
      </trkpt>
      <trkpt lat="48.28673" lon="-3.42372">
        <ele>208</ele>
        <time>2020-10-18T11:33:34.000Z</time>
      </trkpt>
      <trkpt lat="48.28676" lon="-3.42378">
        <ele>208</ele>
        <time>2020-10-18T11:33:35.000Z</time>
      </trkpt>
      <trkpt lat="48.28681" lon="-3.42389">
        <ele>208</ele>
        <time>2020-10-18T11:33:36.000Z</time>
      </trkpt>
      <trkpt lat="48.28684" lon="-3.42394">
        <ele>208.19999694824</ele>
        <time>2020-10-18T11:33:37.000Z</time>
      </trkpt>
      <trkpt lat="48.28684" lon="-3.42394">
        <ele>208.19999694824</ele>
        <time>2020-10-18T11:33:38.000Z</time>
      </trkpt>
      <trkpt lat="48.28688" lon="-3.42399">
        <ele>208.19999694824</ele>
        <time>2020-10-18T11:33:39.000Z</time>
      </trkpt>
      <trkpt lat="48.28696" lon="-3.42409">
        <ele>208.39999389648</ele>
        <time>2020-10-18T11:33:40.000Z</time>
      </trkpt>
      <trkpt lat="48.28696" lon="-3.42409">
        <ele>208.39999389648</ele>
        <time>2020-10-18T11:33:41.000Z</time>
      </trkpt>
      <trkpt lat="48.287" lon="-3.42414">
        <ele>208.39999389648</ele>
        <time>2020-10-18T11:33:42.000Z</time>
      </trkpt>
      <trkpt lat="48.28709" lon="-3.42424">
        <ele>208.60000610352</ele>
        <time>2020-10-18T11:33:43.000Z</time>
      </trkpt>
      <trkpt lat="48.28709" lon="-3.42424">
        <ele>208.60000610352</ele>
        <time>2020-10-18T11:33:44.000Z</time>
      </trkpt>
      <trkpt lat="48.28713" lon="-3.42428">
        <ele>208.80000305176</ele>
        <time>2020-10-18T11:33:45.000Z</time>
      </trkpt>
      <trkpt lat="48.28722" lon="-3.42436">
        <ele>208.80000305176</ele>
        <time>2020-10-18T11:33:46.000Z</time>
      </trkpt>
      <trkpt lat="48.28727" lon="-3.42439">
        <ele>208.80000305176</ele>
        <time>2020-10-18T11:33:47.000Z</time>
      </trkpt>
      <trkpt lat="48.28732" lon="-3.42443">
        <ele>208.80000305176</ele>
        <time>2020-10-18T11:33:48.000Z</time>
      </trkpt>
      <trkpt lat="48.28732" lon="-3.42443">
        <ele>208.80000305176</ele>
        <time>2020-10-18T11:33:49.000Z</time>
      </trkpt>
      <trkpt lat="48.28737" lon="-3.42446">
        <ele>208.80000305176</ele>
        <time>2020-10-18T11:33:50.000Z</time>
      </trkpt>
      <trkpt lat="48.28746" lon="-3.42452">
        <ele>208.80000305176</ele>
        <time>2020-10-18T11:33:51.000Z</time>
      </trkpt>
      <trkpt lat="48.28746" lon="-3.42452">
        <ele>208.80000305176</ele>
        <time>2020-10-18T11:33:52.000Z</time>
      </trkpt>
      <trkpt lat="48.28751" lon="-3.42455">
        <ele>208.80000305176</ele>
        <time>2020-10-18T11:33:53.000Z</time>
      </trkpt>
      <trkpt lat="48.28761" lon="-3.42462">
        <ele>208.60000610352</ele>
        <time>2020-10-18T11:33:54.000Z</time>
      </trkpt>
      <trkpt lat="48.28761" lon="-3.42462">
        <ele>208.60000610352</ele>
        <time>2020-10-18T11:33:55.000Z</time>
      </trkpt>
      <trkpt lat="48.28766" lon="-3.42465">
        <ele>208.39999389648</ele>
        <time>2020-10-18T11:33:56.000Z</time>
      </trkpt>
      <trkpt lat="48.28776" lon="-3.42469">
        <ele>207.80000305176</ele>
        <time>2020-10-18T11:33:57.000Z</time>
      </trkpt>
      <trkpt lat="48.28776" lon="-3.42469">
        <ele>207.80000305176</ele>
        <time>2020-10-18T11:33:58.000Z</time>
      </trkpt>
      <trkpt lat="48.28781" lon="-3.42471">
        <ele>207.39999389648</ele>
        <time>2020-10-18T11:33:59.000Z</time>
      </trkpt>
      <trkpt lat="48.28791" lon="-3.42475">
        <ele>207</ele>
        <time>2020-10-18T11:34:00.000Z</time>
      </trkpt>
      <trkpt lat="48.28791" lon="-3.42475">
        <ele>207</ele>
        <time>2020-10-18T11:34:01.000Z</time>
      </trkpt>
      <trkpt lat="48.28796" lon="-3.42476">
        <ele>206.80000305176</ele>
        <time>2020-10-18T11:34:02.000Z</time>
      </trkpt>
      <trkpt lat="48.28807" lon="-3.42477">
        <ele>206.39999389648</ele>
        <time>2020-10-18T11:34:03.000Z</time>
      </trkpt>
      <trkpt lat="48.28807" lon="-3.42477">
        <ele>206.39999389648</ele>
        <time>2020-10-18T11:34:04.000Z</time>
      </trkpt>
      <trkpt lat="48.28812" lon="-3.42477">
        <ele>206.19999694824</ele>
        <time>2020-10-18T11:34:05.000Z</time>
      </trkpt>
      <trkpt lat="48.28822" lon="-3.42476">
        <ele>206</ele>
        <time>2020-10-18T11:34:06.000Z</time>
      </trkpt>
      <trkpt lat="48.28822" lon="-3.42476">
        <ele>206</ele>
        <time>2020-10-18T11:34:07.000Z</time>
      </trkpt>
      <trkpt lat="48.28833" lon="-3.42475">
        <ele>205.80000305176</ele>
        <time>2020-10-18T11:34:08.000Z</time>
      </trkpt>
      <trkpt lat="48.28833" lon="-3.42475">
        <ele>205.80000305176</ele>
        <time>2020-10-18T11:34:09.000Z</time>
      </trkpt>
      <trkpt lat="48.28838" lon="-3.42475">
        <ele>205.60000610352</ele>
        <time>2020-10-18T11:34:10.000Z</time>
      </trkpt>
      <trkpt lat="48.2885" lon="-3.42475">
        <ele>205.39999389648</ele>
        <time>2020-10-18T11:34:11.000Z</time>
      </trkpt>
      <trkpt lat="48.2885" lon="-3.42475">
        <ele>205.39999389648</ele>
        <time>2020-10-18T11:34:12.000Z</time>
      </trkpt>
      <trkpt lat="48.28855" lon="-3.42474">
        <ele>205</ele>
        <time>2020-10-18T11:34:13.000Z</time>
      </trkpt>
      <trkpt lat="48.28867" lon="-3.42473">
        <ele>204.60000610352</ele>
        <time>2020-10-18T11:34:14.000Z</time>
      </trkpt>
      <trkpt lat="48.28867" lon="-3.42473">
        <ele>204.60000610352</ele>
        <time>2020-10-18T11:34:15.000Z</time>
      </trkpt>
      <trkpt lat="48.28872" lon="-3.42473">
        <ele>204.19999694824</ele>
        <time>2020-10-18T11:34:16.000Z</time>
      </trkpt>
      <trkpt lat="48.28883" lon="-3.42474">
        <ele>203.80000305176</ele>
        <time>2020-10-18T11:34:17.000Z</time>
      </trkpt>
      <trkpt lat="48.28883" lon="-3.42474">
        <ele>203.80000305176</ele>
        <time>2020-10-18T11:34:18.000Z</time>
      </trkpt>
      <trkpt lat="48.28889" lon="-3.42474">
        <ele>203.39999389648</ele>
        <time>2020-10-18T11:34:19.000Z</time>
      </trkpt>
      <trkpt lat="48.289" lon="-3.42476">
        <ele>203.19999694824</ele>
        <time>2020-10-18T11:34:20.000Z</time>
      </trkpt>
      <trkpt lat="48.289" lon="-3.42476">
        <ele>203.19999694824</ele>
        <time>2020-10-18T11:34:21.000Z</time>
      </trkpt>
      <trkpt lat="48.28906" lon="-3.42477">
        <ele>203</ele>
        <time>2020-10-18T11:34:22.000Z</time>
      </trkpt>
      <trkpt lat="48.28918" lon="-3.4248">
        <ele>202.80000305176</ele>
        <time>2020-10-18T11:34:23.000Z</time>
      </trkpt>
      <trkpt lat="48.28918" lon="-3.4248">
        <ele>202.80000305176</ele>
        <time>2020-10-18T11:34:24.000Z</time>
      </trkpt>
      <trkpt lat="48.28923" lon="-3.42482">
        <ele>202.60000610352</ele>
        <time>2020-10-18T11:34:25.000Z</time>
      </trkpt>
      <trkpt lat="48.28934" lon="-3.42486">
        <ele>202.39999389648</ele>
        <time>2020-10-18T11:34:26.000Z</time>
      </trkpt>
      <trkpt lat="48.28934" lon="-3.42486">
        <ele>202.39999389648</ele>
        <time>2020-10-18T11:34:27.000Z</time>
      </trkpt>
      <trkpt lat="48.28939" lon="-3.42489">
        <ele>202.39999389648</ele>
        <time>2020-10-18T11:34:28.000Z</time>
      </trkpt>
      <trkpt lat="48.2895" lon="-3.42493">
        <ele>202.60000610352</ele>
        <time>2020-10-18T11:34:29.000Z</time>
      </trkpt>
      <trkpt lat="48.2895" lon="-3.42493">
        <ele>202.60000610352</ele>
        <time>2020-10-18T11:34:30.000Z</time>
      </trkpt>
      <trkpt lat="48.28955" lon="-3.42495">
        <ele>202.60000610352</ele>
        <time>2020-10-18T11:34:31.000Z</time>
      </trkpt>
      <trkpt lat="48.28964" lon="-3.42501">
        <ele>202.60000610352</ele>
        <time>2020-10-18T11:34:32.000Z</time>
      </trkpt>
      <trkpt lat="48.28964" lon="-3.42501">
        <ele>202.60000610352</ele>
        <time>2020-10-18T11:34:33.000Z</time>
      </trkpt>
      <trkpt lat="48.28969" lon="-3.42505">
        <ele>202.60000610352</ele>
        <time>2020-10-18T11:34:34.000Z</time>
      </trkpt>
      <trkpt lat="48.28979" lon="-3.42513">
        <ele>202.60000610352</ele>
        <time>2020-10-18T11:34:35.000Z</time>
      </trkpt>
      <trkpt lat="48.28984" lon="-3.42517">
        <ele>202.60000610352</ele>
        <time>2020-10-18T11:34:36.000Z</time>
      </trkpt>
      <trkpt lat="48.28984" lon="-3.42517">
        <ele>202.60000610352</ele>
        <time>2020-10-18T11:34:37.000Z</time>
      </trkpt>
      <trkpt lat="48.28988" lon="-3.42522">
        <ele>202.39999389648</ele>
        <time>2020-10-18T11:34:38.000Z</time>
      </trkpt>
      <trkpt lat="48.28997" lon="-3.42532">
        <ele>202.19999694824</ele>
        <time>2020-10-18T11:34:39.000Z</time>
      </trkpt>
      <trkpt lat="48.28997" lon="-3.42532">
        <ele>202.19999694824</ele>
        <time>2020-10-18T11:34:40.000Z</time>
      </trkpt>
      <trkpt lat="48.29002" lon="-3.42537">
        <ele>202.19999694824</ele>
        <time>2020-10-18T11:34:41.000Z</time>
      </trkpt>
      <trkpt lat="48.2901" lon="-3.42548">
        <ele>202.19999694824</ele>
        <time>2020-10-18T11:34:42.000Z</time>
      </trkpt>
      <trkpt lat="48.2901" lon="-3.42548">
        <ele>202.19999694824</ele>
        <time>2020-10-18T11:34:43.000Z</time>
      </trkpt>
      <trkpt lat="48.29017" lon="-3.42561">
        <ele>202</ele>
        <time>2020-10-18T11:34:44.000Z</time>
      </trkpt>
      <trkpt lat="48.29017" lon="-3.42561">
        <ele>202</ele>
        <time>2020-10-18T11:34:45.000Z</time>
      </trkpt>
      <trkpt lat="48.29021" lon="-3.42568">
        <ele>202</ele>
        <time>2020-10-18T11:34:46.000Z</time>
      </trkpt>
      <trkpt lat="48.29024" lon="-3.42574">
        <ele>201.80000305176</ele>
        <time>2020-10-18T11:34:47.000Z</time>
      </trkpt>
      <trkpt lat="48.29028" lon="-3.42581">
        <ele>201.80000305176</ele>
        <time>2020-10-18T11:34:48.000Z</time>
      </trkpt>
      <trkpt lat="48.29034" lon="-3.42595">
        <ele>201.60000610352</ele>
        <time>2020-10-18T11:34:49.000Z</time>
      </trkpt>
      <trkpt lat="48.29034" lon="-3.42595">
        <ele>201.60000610352</ele>
        <time>2020-10-18T11:34:50.000Z</time>
      </trkpt>
      <trkpt lat="48.29037" lon="-3.42602">
        <ele>201.60000610352</ele>
        <time>2020-10-18T11:34:51.000Z</time>
      </trkpt>
      <trkpt lat="48.29043" lon="-3.42616">
        <ele>201.60000610352</ele>
        <time>2020-10-18T11:34:52.000Z</time>
      </trkpt>
      <trkpt lat="48.29043" lon="-3.42616">
        <ele>201.60000610352</ele>
        <time>2020-10-18T11:34:53.000Z</time>
      </trkpt>
      <trkpt lat="48.29049" lon="-3.42629">
        <ele>201.39999389648</ele>
        <time>2020-10-18T11:34:54.000Z</time>
      </trkpt>
      <trkpt lat="48.29049" lon="-3.42629">
        <ele>201.39999389648</ele>
        <time>2020-10-18T11:34:55.000Z</time>
      </trkpt>
      <trkpt lat="48.29052" lon="-3.42636">
        <ele>201.39999389648</ele>
        <time>2020-10-18T11:34:56.000Z</time>
      </trkpt>
      <trkpt lat="48.29058" lon="-3.42648">
        <ele>201.39999389648</ele>
        <time>2020-10-18T11:34:57.000Z</time>
      </trkpt>
      <trkpt lat="48.29058" lon="-3.42648">
        <ele>201.39999389648</ele>
        <time>2020-10-18T11:34:58.000Z</time>
      </trkpt>
      <trkpt lat="48.2906" lon="-3.42654">
        <ele>201.19999694824</ele>
        <time>2020-10-18T11:34:59.000Z</time>
      </trkpt>
      <trkpt lat="48.29065" lon="-3.42666">
        <ele>201</ele>
        <time>2020-10-18T11:35:00.000Z</time>
      </trkpt>
      <trkpt lat="48.29065" lon="-3.42666">
        <ele>201</ele>
        <time>2020-10-18T11:35:01.000Z</time>
      </trkpt>
      <trkpt lat="48.29067" lon="-3.42672">
        <ele>200.80000305176</ele>
        <time>2020-10-18T11:35:02.000Z</time>
      </trkpt>
      <trkpt lat="48.29073" lon="-3.42685">
        <ele>200.60000610352</ele>
        <time>2020-10-18T11:35:03.000Z</time>
      </trkpt>
      <trkpt lat="48.29073" lon="-3.42685">
        <ele>200.60000610352</ele>
        <time>2020-10-18T11:35:04.000Z</time>
      </trkpt>
      <trkpt lat="48.29076" lon="-3.42691">
        <ele>200.60000610352</ele>
        <time>2020-10-18T11:35:05.000Z</time>
      </trkpt>
      <trkpt lat="48.29081" lon="-3.42703">
        <ele>200.39999389648</ele>
        <time>2020-10-18T11:35:06.000Z</time>
      </trkpt>
      <trkpt lat="48.29081" lon="-3.42703">
        <ele>200.39999389648</ele>
        <time>2020-10-18T11:35:07.000Z</time>
      </trkpt>
      <trkpt lat="48.29084" lon="-3.42709">
        <ele>200.60000610352</ele>
        <time>2020-10-18T11:35:08.000Z</time>
      </trkpt>
      <trkpt lat="48.29089" lon="-3.42721">
        <ele>200.80000305176</ele>
        <time>2020-10-18T11:35:09.000Z</time>
      </trkpt>
      <trkpt lat="48.29089" lon="-3.42721">
        <ele>200.80000305176</ele>
        <time>2020-10-18T11:35:10.000Z</time>
      </trkpt>
      <trkpt lat="48.29091" lon="-3.42726">
        <ele>200.80000305176</ele>
        <time>2020-10-18T11:35:11.000Z</time>
      </trkpt>
      <trkpt lat="48.29094" lon="-3.42734">
        <ele>201</ele>
        <time>2020-10-18T11:35:12.000Z</time>
      </trkpt>
      <trkpt lat="48.29094" lon="-3.42734">
        <ele>201</ele>
        <time>2020-10-18T11:35:13.000Z</time>
      </trkpt>
      <trkpt lat="48.29095" lon="-3.42737">
        <ele>201</ele>
        <time>2020-10-18T11:35:14.000Z</time>
      </trkpt>
      <trkpt lat="48.29098" lon="-3.42741">
        <ele>201</ele>
        <time>2020-10-18T11:35:15.000Z</time>
      </trkpt>
      <trkpt lat="48.29098" lon="-3.42741">
        <ele>201</ele>
        <time>2020-10-18T11:35:16.000Z</time>
      </trkpt>
      <trkpt lat="48.29099" lon="-3.42744">
        <ele>201</ele>
        <time>2020-10-18T11:35:17.000Z</time>
      </trkpt>
      <trkpt lat="48.29101" lon="-3.42748">
        <ele>201</ele>
        <time>2020-10-18T11:35:18.000Z</time>
      </trkpt>
      <trkpt lat="48.29101" lon="-3.42748">
        <ele>201</ele>
        <time>2020-10-18T11:35:19.000Z</time>
      </trkpt>
      <trkpt lat="48.29102" lon="-3.42751">
        <ele>201</ele>
        <time>2020-10-18T11:35:20.000Z</time>
      </trkpt>
      <trkpt lat="48.29106" lon="-3.42757">
        <ele>201.19999694824</ele>
        <time>2020-10-18T11:35:21.000Z</time>
      </trkpt>
      <trkpt lat="48.29106" lon="-3.42757">
        <ele>201.19999694824</ele>
        <time>2020-10-18T11:35:22.000Z</time>
      </trkpt>
      <trkpt lat="48.29107" lon="-3.4276">
        <ele>201.19999694824</ele>
        <time>2020-10-18T11:35:23.000Z</time>
      </trkpt>
      <trkpt lat="48.29111" lon="-3.42768">
        <ele>201.19999694824</ele>
        <time>2020-10-18T11:35:24.000Z</time>
      </trkpt>
      <trkpt lat="48.29111" lon="-3.42768">
        <ele>201.19999694824</ele>
        <time>2020-10-18T11:35:25.000Z</time>
      </trkpt>
      <trkpt lat="48.29113" lon="-3.42772">
        <ele>201</ele>
        <time>2020-10-18T11:35:26.000Z</time>
      </trkpt>
      <trkpt lat="48.29116" lon="-3.42778">
        <ele>201</ele>
        <time>2020-10-18T11:35:27.000Z</time>
      </trkpt>
      <trkpt lat="48.29116" lon="-3.42778">
        <ele>201</ele>
        <time>2020-10-18T11:35:28.000Z</time>
      </trkpt>
      <trkpt lat="48.29119" lon="-3.42784">
        <ele>200.80000305176</ele>
        <time>2020-10-18T11:35:29.000Z</time>
      </trkpt>
      <trkpt lat="48.29119" lon="-3.42784">
        <ele>200.80000305176</ele>
        <time>2020-10-18T11:35:30.000Z</time>
      </trkpt>
      <trkpt lat="48.2912" lon="-3.42788">
        <ele>200.80000305176</ele>
        <time>2020-10-18T11:35:31.000Z</time>
      </trkpt>
      <trkpt lat="48.29124" lon="-3.42796">
        <ele>200.60000610352</ele>
        <time>2020-10-18T11:35:32.000Z</time>
      </trkpt>
      <trkpt lat="48.29124" lon="-3.42796">
        <ele>200.60000610352</ele>
        <time>2020-10-18T11:35:33.000Z</time>
      </trkpt>
      <trkpt lat="48.29126" lon="-3.42801">
        <ele>200.60000610352</ele>
        <time>2020-10-18T11:35:34.000Z</time>
      </trkpt>
      <trkpt lat="48.29128" lon="-3.4281">
        <ele>200.39999389648</ele>
        <time>2020-10-18T11:35:35.000Z</time>
      </trkpt>
      <trkpt lat="48.29128" lon="-3.4281">
        <ele>200.39999389648</ele>
        <time>2020-10-18T11:35:36.000Z</time>
      </trkpt>
      <trkpt lat="48.2913" lon="-3.42814">
        <ele>200.19999694824</ele>
        <time>2020-10-18T11:35:37.000Z</time>
      </trkpt>
      <trkpt lat="48.29135" lon="-3.42826">
        <ele>200</ele>
        <time>2020-10-18T11:35:38.000Z</time>
      </trkpt>
      <trkpt lat="48.29135" lon="-3.42826">
        <ele>200</ele>
        <time>2020-10-18T11:35:39.000Z</time>
      </trkpt>
      <trkpt lat="48.29137" lon="-3.42831">
        <ele>200</ele>
        <time>2020-10-18T11:35:40.000Z</time>
      </trkpt>
      <trkpt lat="48.29142" lon="-3.42842">
        <ele>199.80000305176</ele>
        <time>2020-10-18T11:35:41.000Z</time>
      </trkpt>
      <trkpt lat="48.29142" lon="-3.42842">
        <ele>199.80000305176</ele>
        <time>2020-10-18T11:35:42.000Z</time>
      </trkpt>
      <trkpt lat="48.29145" lon="-3.42847">
        <ele>199.60000610352</ele>
        <time>2020-10-18T11:35:43.000Z</time>
      </trkpt>
      <trkpt lat="48.2915" lon="-3.42858">
        <ele>199.39999389648</ele>
        <time>2020-10-18T11:35:44.000Z</time>
      </trkpt>
      <trkpt lat="48.2915" lon="-3.42858">
        <ele>199.39999389648</ele>
        <time>2020-10-18T11:35:45.000Z</time>
      </trkpt>
      <trkpt lat="48.29152" lon="-3.42863">
        <ele>199.19999694824</ele>
        <time>2020-10-18T11:35:46.000Z</time>
      </trkpt>
      <trkpt lat="48.29158" lon="-3.42875">
        <ele>198.80000305176</ele>
        <time>2020-10-18T11:35:47.000Z</time>
      </trkpt>
      <trkpt lat="48.29158" lon="-3.42875">
        <ele>198.80000305176</ele>
        <time>2020-10-18T11:35:48.000Z</time>
      </trkpt>
      <trkpt lat="48.29162" lon="-3.42888">
        <ele>198.39999389648</ele>
        <time>2020-10-18T11:35:49.000Z</time>
      </trkpt>
      <trkpt lat="48.29162" lon="-3.42888">
        <ele>198.39999389648</ele>
        <time>2020-10-18T11:35:50.000Z</time>
      </trkpt>
      <trkpt lat="48.29165" lon="-3.42894">
        <ele>198.19999694824</ele>
        <time>2020-10-18T11:35:51.000Z</time>
      </trkpt>
      <trkpt lat="48.2917" lon="-3.42907">
        <ele>197.80000305176</ele>
        <time>2020-10-18T11:35:52.000Z</time>
      </trkpt>
      <trkpt lat="48.2917" lon="-3.42907">
        <ele>197.80000305176</ele>
        <time>2020-10-18T11:35:53.000Z</time>
      </trkpt>
      <trkpt lat="48.29172" lon="-3.42912">
        <ele>197.60000610352</ele>
        <time>2020-10-18T11:35:54.000Z</time>
      </trkpt>
      <trkpt lat="48.29178" lon="-3.42926">
        <ele>197.19999694824</ele>
        <time>2020-10-18T11:35:55.000Z</time>
      </trkpt>
      <trkpt lat="48.29178" lon="-3.42926">
        <ele>197.19999694824</ele>
        <time>2020-10-18T11:35:56.000Z</time>
      </trkpt>
      <trkpt lat="48.29183" lon="-3.42938">
        <ele>196.80000305176</ele>
        <time>2020-10-18T11:35:57.000Z</time>
      </trkpt>
      <trkpt lat="48.29183" lon="-3.42938">
        <ele>196.80000305176</ele>
        <time>2020-10-18T11:35:58.000Z</time>
      </trkpt>
      <trkpt lat="48.29186" lon="-3.42944">
        <ele>196.60000610352</ele>
        <time>2020-10-18T11:35:59.000Z</time>
      </trkpt>
      <trkpt lat="48.29191" lon="-3.42955">
        <ele>196.39999389648</ele>
        <time>2020-10-18T11:36:00.000Z</time>
      </trkpt>
      <trkpt lat="48.29191" lon="-3.42955">
        <ele>196.39999389648</ele>
        <time>2020-10-18T11:36:01.000Z</time>
      </trkpt>
      <trkpt lat="48.29194" lon="-3.4296">
        <ele>196.19999694824</ele>
        <time>2020-10-18T11:36:02.000Z</time>
      </trkpt>
      <trkpt lat="48.29199" lon="-3.42972">
        <ele>195.80000305176</ele>
        <time>2020-10-18T11:36:03.000Z</time>
      </trkpt>
      <trkpt lat="48.29199" lon="-3.42972">
        <ele>195.80000305176</ele>
        <time>2020-10-18T11:36:04.000Z</time>
      </trkpt>
      <trkpt lat="48.29202" lon="-3.42978">
        <ele>195.60000610352</ele>
        <time>2020-10-18T11:36:05.000Z</time>
      </trkpt>
      <trkpt lat="48.29206" lon="-3.42989">
        <ele>195.39999389648</ele>
        <time>2020-10-18T11:36:06.000Z</time>
      </trkpt>
      <trkpt lat="48.29206" lon="-3.42989">
        <ele>195.39999389648</ele>
        <time>2020-10-18T11:36:07.000Z</time>
      </trkpt>
      <trkpt lat="48.29209" lon="-3.42995">
        <ele>195.39999389648</ele>
        <time>2020-10-18T11:36:08.000Z</time>
      </trkpt>
      <trkpt lat="48.29214" lon="-3.43008">
        <ele>195.39999389648</ele>
        <time>2020-10-18T11:36:09.000Z</time>
      </trkpt>
      <trkpt lat="48.29214" lon="-3.43008">
        <ele>195.39999389648</ele>
        <time>2020-10-18T11:36:10.000Z</time>
      </trkpt>
      <trkpt lat="48.29216" lon="-3.43015">
        <ele>195.39999389648</ele>
        <time>2020-10-18T11:36:11.000Z</time>
      </trkpt>
      <trkpt lat="48.29222" lon="-3.43028">
        <ele>195.39999389648</ele>
        <time>2020-10-18T11:36:12.000Z</time>
      </trkpt>
      <trkpt lat="48.29222" lon="-3.43028">
        <ele>195.39999389648</ele>
        <time>2020-10-18T11:36:13.000Z</time>
      </trkpt>
      <trkpt lat="48.29225" lon="-3.43035">
        <ele>195.39999389648</ele>
        <time>2020-10-18T11:36:14.000Z</time>
      </trkpt>
      <trkpt lat="48.29231" lon="-3.43049">
        <ele>195.19999694824</ele>
        <time>2020-10-18T11:36:15.000Z</time>
      </trkpt>
      <trkpt lat="48.29231" lon="-3.43049">
        <ele>195.19999694824</ele>
        <time>2020-10-18T11:36:16.000Z</time>
      </trkpt>
      <trkpt lat="48.29234" lon="-3.43056">
        <ele>195.39999389648</ele>
        <time>2020-10-18T11:36:17.000Z</time>
      </trkpt>
      <trkpt lat="48.29241" lon="-3.4307">
        <ele>195.39999389648</ele>
        <time>2020-10-18T11:36:18.000Z</time>
      </trkpt>
      <trkpt lat="48.29241" lon="-3.4307">
        <ele>195.39999389648</ele>
        <time>2020-10-18T11:36:19.000Z</time>
      </trkpt>
      <trkpt lat="48.29244" lon="-3.43078">
        <ele>195.60000610352</ele>
        <time>2020-10-18T11:36:20.000Z</time>
      </trkpt>
      <trkpt lat="48.29251" lon="-3.43093">
        <ele>195.60000610352</ele>
        <time>2020-10-18T11:36:21.000Z</time>
      </trkpt>
      <trkpt lat="48.29251" lon="-3.43093">
        <ele>195.60000610352</ele>
        <time>2020-10-18T11:36:22.000Z</time>
      </trkpt>
      <trkpt lat="48.29254" lon="-3.431">
        <ele>195.80000305176</ele>
        <time>2020-10-18T11:36:23.000Z</time>
      </trkpt>
      <trkpt lat="48.29261" lon="-3.43116">
        <ele>195.80000305176</ele>
        <time>2020-10-18T11:36:24.000Z</time>
      </trkpt>
      <trkpt lat="48.29261" lon="-3.43116">
        <ele>195.80000305176</ele>
        <time>2020-10-18T11:36:25.000Z</time>
      </trkpt>
      <trkpt lat="48.29264" lon="-3.43123">
        <ele>195.60000610352</ele>
        <time>2020-10-18T11:36:26.000Z</time>
      </trkpt>
      <trkpt lat="48.29271" lon="-3.43138">
        <ele>195.19999694824</ele>
        <time>2020-10-18T11:36:27.000Z</time>
      </trkpt>
      <trkpt lat="48.29271" lon="-3.43138">
        <ele>195.19999694824</ele>
        <time>2020-10-18T11:36:28.000Z</time>
      </trkpt>
      <trkpt lat="48.29274" lon="-3.43146">
        <ele>195</ele>
        <time>2020-10-18T11:36:29.000Z</time>
      </trkpt>
      <trkpt lat="48.2928" lon="-3.43161">
        <ele>194.39999389648</ele>
        <time>2020-10-18T11:36:30.000Z</time>
      </trkpt>
      <trkpt lat="48.2928" lon="-3.43161">
        <ele>194.39999389648</ele>
        <time>2020-10-18T11:36:31.000Z</time>
      </trkpt>
      <trkpt lat="48.29283" lon="-3.43169">
        <ele>194.39999389648</ele>
        <time>2020-10-18T11:36:32.000Z</time>
      </trkpt>
      <trkpt lat="48.2929" lon="-3.43186">
        <ele>194.60000610352</ele>
        <time>2020-10-18T11:36:33.000Z</time>
      </trkpt>
      <trkpt lat="48.29293" lon="-3.43194">
        <ele>194.39999389648</ele>
        <time>2020-10-18T11:36:34.000Z</time>
      </trkpt>
      <trkpt lat="48.29293" lon="-3.43194">
        <ele>194.39999389648</ele>
        <time>2020-10-18T11:36:35.000Z</time>
      </trkpt>
      <trkpt lat="48.29296" lon="-3.43203">
        <ele>194.19999694824</ele>
        <time>2020-10-18T11:36:36.000Z</time>
      </trkpt>
      <trkpt lat="48.29301" lon="-3.4322">
        <ele>193.60000610352</ele>
        <time>2020-10-18T11:36:37.000Z</time>
      </trkpt>
      <trkpt lat="48.29301" lon="-3.4322">
        <ele>193.60000610352</ele>
        <time>2020-10-18T11:36:38.000Z</time>
      </trkpt>
      <trkpt lat="48.29304" lon="-3.43228">
        <ele>193.39999389648</ele>
        <time>2020-10-18T11:36:39.000Z</time>
      </trkpt>
      <trkpt lat="48.29308" lon="-3.43244">
        <ele>193.60000610352</ele>
        <time>2020-10-18T11:36:40.000Z</time>
      </trkpt>
      <trkpt lat="48.29308" lon="-3.43244">
        <ele>193.60000610352</ele>
        <time>2020-10-18T11:36:41.000Z</time>
      </trkpt>
      <trkpt lat="48.29311" lon="-3.43252">
        <ele>193.60000610352</ele>
        <time>2020-10-18T11:36:42.000Z</time>
      </trkpt>
      <trkpt lat="48.29315" lon="-3.43269">
        <ele>193.60000610352</ele>
        <time>2020-10-18T11:36:43.000Z</time>
      </trkpt>
      <trkpt lat="48.29315" lon="-3.43269">
        <ele>193.60000610352</ele>
        <time>2020-10-18T11:36:44.000Z</time>
      </trkpt>
      <trkpt lat="48.29316" lon="-3.43277">
        <ele>193.60000610352</ele>
        <time>2020-10-18T11:36:45.000Z</time>
      </trkpt>
      <trkpt lat="48.29319" lon="-3.43293">
        <ele>193.60000610352</ele>
        <time>2020-10-18T11:36:46.000Z</time>
      </trkpt>
      <trkpt lat="48.29319" lon="-3.43293">
        <ele>193.60000610352</ele>
        <time>2020-10-18T11:36:47.000Z</time>
      </trkpt>
      <trkpt lat="48.29322" lon="-3.4331">
        <ele>193.60000610352</ele>
        <time>2020-10-18T11:36:48.000Z</time>
      </trkpt>
      <trkpt lat="48.29322" lon="-3.4331">
        <ele>193.60000610352</ele>
        <time>2020-10-18T11:36:49.000Z</time>
      </trkpt>
      <trkpt lat="48.29323" lon="-3.43319">
        <ele>193.80000305176</ele>
        <time>2020-10-18T11:36:50.000Z</time>
      </trkpt>
      <trkpt lat="48.29326" lon="-3.43335">
        <ele>193.80000305176</ele>
        <time>2020-10-18T11:36:51.000Z</time>
      </trkpt>
      <trkpt lat="48.29326" lon="-3.43335">
        <ele>193.80000305176</ele>
        <time>2020-10-18T11:36:52.000Z</time>
      </trkpt>
      <trkpt lat="48.29327" lon="-3.43344">
        <ele>193.80000305176</ele>
        <time>2020-10-18T11:36:53.000Z</time>
      </trkpt>
      <trkpt lat="48.2933" lon="-3.43362">
        <ele>193.39999389648</ele>
        <time>2020-10-18T11:36:54.000Z</time>
      </trkpt>
      <trkpt lat="48.2933" lon="-3.43362">
        <ele>193.39999389648</ele>
        <time>2020-10-18T11:36:55.000Z</time>
      </trkpt>
      <trkpt lat="48.29332" lon="-3.4337">
        <ele>193.39999389648</ele>
        <time>2020-10-18T11:36:56.000Z</time>
      </trkpt>
      <trkpt lat="48.29335" lon="-3.43388">
        <ele>193.60000610352</ele>
        <time>2020-10-18T11:36:57.000Z</time>
      </trkpt>
      <trkpt lat="48.29335" lon="-3.43388">
        <ele>193.60000610352</ele>
        <time>2020-10-18T11:36:58.000Z</time>
      </trkpt>
      <trkpt lat="48.29336" lon="-3.43396">
        <ele>193.60000610352</ele>
        <time>2020-10-18T11:36:59.000Z</time>
      </trkpt>
      <trkpt lat="48.29337" lon="-3.43411">
        <ele>193.60000610352</ele>
        <time>2020-10-18T11:37:00.000Z</time>
      </trkpt>
      <trkpt lat="48.29337" lon="-3.43411">
        <ele>193.60000610352</ele>
        <time>2020-10-18T11:37:01.000Z</time>
      </trkpt>
      <trkpt lat="48.29338" lon="-3.43419">
        <ele>193.60000610352</ele>
        <time>2020-10-18T11:37:02.000Z</time>
      </trkpt>
      <trkpt lat="48.2934" lon="-3.43433">
        <ele>193.80000305176</ele>
        <time>2020-10-18T11:37:03.000Z</time>
      </trkpt>
      <trkpt lat="48.2934" lon="-3.43433">
        <ele>193.80000305176</ele>
        <time>2020-10-18T11:37:04.000Z</time>
      </trkpt>
      <trkpt lat="48.29341" lon="-3.43441">
        <ele>193.60000610352</ele>
        <time>2020-10-18T11:37:05.000Z</time>
      </trkpt>
      <trkpt lat="48.29344" lon="-3.43456">
        <ele>193.39999389648</ele>
        <time>2020-10-18T11:37:06.000Z</time>
      </trkpt>
      <trkpt lat="48.29344" lon="-3.43456">
        <ele>193.39999389648</ele>
        <time>2020-10-18T11:37:07.000Z</time>
      </trkpt>
      <trkpt lat="48.29345" lon="-3.43464">
        <ele>193.19999694824</ele>
        <time>2020-10-18T11:37:08.000Z</time>
      </trkpt>
      <trkpt lat="48.29348" lon="-3.4348">
        <ele>192.80000305176</ele>
        <time>2020-10-18T11:37:09.000Z</time>
      </trkpt>
      <trkpt lat="48.29348" lon="-3.4348">
        <ele>192.80000305176</ele>
        <time>2020-10-18T11:37:10.000Z</time>
      </trkpt>
      <trkpt lat="48.29349" lon="-3.43487">
        <ele>192.60000610352</ele>
        <time>2020-10-18T11:37:11.000Z</time>
      </trkpt>
      <trkpt lat="48.29352" lon="-3.43503">
        <ele>192.19999694824</ele>
        <time>2020-10-18T11:37:12.000Z</time>
      </trkpt>
      <trkpt lat="48.29352" lon="-3.43503">
        <ele>192.19999694824</ele>
        <time>2020-10-18T11:37:13.000Z</time>
      </trkpt>
      <trkpt lat="48.29356" lon="-3.43518">
        <ele>191.80000305176</ele>
        <time>2020-10-18T11:37:14.000Z</time>
      </trkpt>
      <trkpt lat="48.29357" lon="-3.43525">
        <ele>191.60000610352</ele>
        <time>2020-10-18T11:37:15.000Z</time>
      </trkpt>
      <trkpt lat="48.29357" lon="-3.43525">
        <ele>191.60000610352</ele>
        <time>2020-10-18T11:37:16.000Z</time>
      </trkpt>
      <trkpt lat="48.29361" lon="-3.43539">
        <ele>191.39999389648</ele>
        <time>2020-10-18T11:37:17.000Z</time>
      </trkpt>
      <trkpt lat="48.29361" lon="-3.43539">
        <ele>191.39999389648</ele>
        <time>2020-10-18T11:37:18.000Z</time>
      </trkpt>
      <trkpt lat="48.29364" lon="-3.43552">
        <ele>191.19999694824</ele>
        <time>2020-10-18T11:37:19.000Z</time>
      </trkpt>
      <trkpt lat="48.29364" lon="-3.43552">
        <ele>191.19999694824</ele>
        <time>2020-10-18T11:37:20.000Z</time>
      </trkpt>
      <trkpt lat="48.29368" lon="-3.43565">
        <ele>191</ele>
        <time>2020-10-18T11:37:21.000Z</time>
      </trkpt>
      <trkpt lat="48.29368" lon="-3.43565">
        <ele>191</ele>
        <time>2020-10-18T11:37:22.000Z</time>
      </trkpt>
      <trkpt lat="48.2937" lon="-3.4358">
        <ele>190.80000305176</ele>
        <time>2020-10-18T11:37:23.000Z</time>
      </trkpt>
      <trkpt lat="48.2937" lon="-3.4358">
        <ele>190.80000305176</ele>
        <time>2020-10-18T11:37:24.000Z</time>
      </trkpt>
      <trkpt lat="48.2937" lon="-3.43594">
        <ele>191</ele>
        <time>2020-10-18T11:37:25.000Z</time>
      </trkpt>
      <trkpt lat="48.2937" lon="-3.43594">
        <ele>191</ele>
        <time>2020-10-18T11:37:26.000Z</time>
      </trkpt>
      <trkpt lat="48.29371" lon="-3.43606">
        <ele>191</ele>
        <time>2020-10-18T11:37:27.000Z</time>
      </trkpt>
      <trkpt lat="48.29371" lon="-3.43606">
        <ele>191</ele>
        <time>2020-10-18T11:37:28.000Z</time>
      </trkpt>
      <trkpt lat="48.29371" lon="-3.43615">
        <ele>191</ele>
        <time>2020-10-18T11:37:29.000Z</time>
      </trkpt>
      <trkpt lat="48.29371" lon="-3.43615">
        <ele>191</ele>
        <time>2020-10-18T11:37:30.000Z</time>
      </trkpt>
      <trkpt lat="48.2937" lon="-3.43622">
        <ele>191</ele>
        <time>2020-10-18T11:37:31.000Z</time>
      </trkpt>
      <trkpt lat="48.2937" lon="-3.43622">
        <ele>191</ele>
        <time>2020-10-18T11:37:32.000Z</time>
      </trkpt>
      <trkpt lat="48.2937" lon="-3.43629">
        <ele>191</ele>
        <time>2020-10-18T11:37:33.000Z</time>
      </trkpt>
      <trkpt lat="48.2937" lon="-3.43629">
        <ele>191</ele>
        <time>2020-10-18T11:37:34.000Z</time>
      </trkpt>
      <trkpt lat="48.2937" lon="-3.43638">
        <ele>191</ele>
        <time>2020-10-18T11:37:35.000Z</time>
      </trkpt>
      <trkpt lat="48.2937" lon="-3.43638">
        <ele>191</ele>
        <time>2020-10-18T11:37:36.000Z</time>
      </trkpt>
      <trkpt lat="48.29371" lon="-3.4365">
        <ele>191</ele>
        <time>2020-10-18T11:37:37.000Z</time>
      </trkpt>
      <trkpt lat="48.29371" lon="-3.4365">
        <ele>191</ele>
        <time>2020-10-18T11:37:38.000Z</time>
      </trkpt>
      <trkpt lat="48.2937" lon="-3.43662">
        <ele>191</ele>
        <time>2020-10-18T11:37:39.000Z</time>
      </trkpt>
      <trkpt lat="48.2937" lon="-3.43662">
        <ele>191</ele>
        <time>2020-10-18T11:37:40.000Z</time>
      </trkpt>
      <trkpt lat="48.29371" lon="-3.43676">
        <ele>191.39999389648</ele>
        <time>2020-10-18T11:37:41.000Z</time>
      </trkpt>
      <trkpt lat="48.29371" lon="-3.43676">
        <ele>191.39999389648</ele>
        <time>2020-10-18T11:37:42.000Z</time>
      </trkpt>
      <trkpt lat="48.29371" lon="-3.43689">
        <ele>191.60000610352</ele>
        <time>2020-10-18T11:37:43.000Z</time>
      </trkpt>
      <trkpt lat="48.29371" lon="-3.43689">
        <ele>191.60000610352</ele>
        <time>2020-10-18T11:37:44.000Z</time>
      </trkpt>
      <trkpt lat="48.2937" lon="-3.43702">
        <ele>191.60000610352</ele>
        <time>2020-10-18T11:37:45.000Z</time>
      </trkpt>
      <trkpt lat="48.2937" lon="-3.43702">
        <ele>191.60000610352</ele>
        <time>2020-10-18T11:37:46.000Z</time>
      </trkpt>
      <trkpt lat="48.29371" lon="-3.43717">
        <ele>191.60000610352</ele>
        <time>2020-10-18T11:37:47.000Z</time>
      </trkpt>
      <trkpt lat="48.29371" lon="-3.43717">
        <ele>191.60000610352</ele>
        <time>2020-10-18T11:37:48.000Z</time>
      </trkpt>
      <trkpt lat="48.29371" lon="-3.43732">
        <ele>191.60000610352</ele>
        <time>2020-10-18T11:37:49.000Z</time>
      </trkpt>
      <trkpt lat="48.29371" lon="-3.43732">
        <ele>191.60000610352</ele>
        <time>2020-10-18T11:37:50.000Z</time>
      </trkpt>
      <trkpt lat="48.29372" lon="-3.43748">
        <ele>191.60000610352</ele>
        <time>2020-10-18T11:37:51.000Z</time>
      </trkpt>
      <trkpt lat="48.29372" lon="-3.43748">
        <ele>191.60000610352</ele>
        <time>2020-10-18T11:37:52.000Z</time>
      </trkpt>
      <trkpt lat="48.29375" lon="-3.43763">
        <ele>191.60000610352</ele>
        <time>2020-10-18T11:37:53.000Z</time>
      </trkpt>
      <trkpt lat="48.29375" lon="-3.43763">
        <ele>191.60000610352</ele>
        <time>2020-10-18T11:37:54.000Z</time>
      </trkpt>
      <trkpt lat="48.29376" lon="-3.43778">
        <ele>191.80000305176</ele>
        <time>2020-10-18T11:37:55.000Z</time>
      </trkpt>
      <trkpt lat="48.29376" lon="-3.43778">
        <ele>191.80000305176</ele>
        <time>2020-10-18T11:37:56.000Z</time>
      </trkpt>
      <trkpt lat="48.29377" lon="-3.43793">
        <ele>191.80000305176</ele>
        <time>2020-10-18T11:37:57.000Z</time>
      </trkpt>
      <trkpt lat="48.29377" lon="-3.43793">
        <ele>191.80000305176</ele>
        <time>2020-10-18T11:37:58.000Z</time>
      </trkpt>
      <trkpt lat="48.29378" lon="-3.43809">
        <ele>191.80000305176</ele>
        <time>2020-10-18T11:37:59.000Z</time>
      </trkpt>
      <trkpt lat="48.29378" lon="-3.43809">
        <ele>191.80000305176</ele>
        <time>2020-10-18T11:38:00.000Z</time>
      </trkpt>
      <trkpt lat="48.29379" lon="-3.43826">
        <ele>191.60000610352</ele>
        <time>2020-10-18T11:38:01.000Z</time>
      </trkpt>
      <trkpt lat="48.29379" lon="-3.43834">
        <ele>191.60000610352</ele>
        <time>2020-10-18T11:38:02.000Z</time>
      </trkpt>
      <trkpt lat="48.2938" lon="-3.43842">
        <ele>191.39999389648</ele>
        <time>2020-10-18T11:38:03.000Z</time>
      </trkpt>
      <trkpt lat="48.2938" lon="-3.43842">
        <ele>191.39999389648</ele>
        <time>2020-10-18T11:38:04.000Z</time>
      </trkpt>
      <trkpt lat="48.29381" lon="-3.43858">
        <ele>191.39999389648</ele>
        <time>2020-10-18T11:38:05.000Z</time>
      </trkpt>
      <trkpt lat="48.29381" lon="-3.43858">
        <ele>191.39999389648</ele>
        <time>2020-10-18T11:38:06.000Z</time>
      </trkpt>
      <trkpt lat="48.29381" lon="-3.43873">
        <ele>191.19999694824</ele>
        <time>2020-10-18T11:38:07.000Z</time>
      </trkpt>
      <trkpt lat="48.29381" lon="-3.43873">
        <ele>191.19999694824</ele>
        <time>2020-10-18T11:38:08.000Z</time>
      </trkpt>
      <trkpt lat="48.29383" lon="-3.43886">
        <ele>191</ele>
        <time>2020-10-18T11:38:09.000Z</time>
      </trkpt>
      <trkpt lat="48.29383" lon="-3.43886">
        <ele>191</ele>
        <time>2020-10-18T11:38:10.000Z</time>
      </trkpt>
      <trkpt lat="48.29385" lon="-3.439">
        <ele>190.80000305176</ele>
        <time>2020-10-18T11:38:11.000Z</time>
      </trkpt>
      <trkpt lat="48.29385" lon="-3.439">
        <ele>190.80000305176</ele>
        <time>2020-10-18T11:38:12.000Z</time>
      </trkpt>
      <trkpt lat="48.29386" lon="-3.43912">
        <ele>190.39999389648</ele>
        <time>2020-10-18T11:38:13.000Z</time>
      </trkpt>
      <trkpt lat="48.29386" lon="-3.43912">
        <ele>190.39999389648</ele>
        <time>2020-10-18T11:38:14.000Z</time>
      </trkpt>
      <trkpt lat="48.29387" lon="-3.43922">
        <ele>190.19999694824</ele>
        <time>2020-10-18T11:38:15.000Z</time>
      </trkpt>
      <trkpt lat="48.29387" lon="-3.43922">
        <ele>190.19999694824</ele>
        <time>2020-10-18T11:38:16.000Z</time>
      </trkpt>
      <trkpt lat="48.29387" lon="-3.43929">
        <ele>190</ele>
        <time>2020-10-18T11:38:17.000Z</time>
      </trkpt>
      <trkpt lat="48.29386" lon="-3.43942">
        <ele>189.80000305176</ele>
        <time>2020-10-18T11:38:18.000Z</time>
      </trkpt>
      <trkpt lat="48.29386" lon="-3.43942">
        <ele>189.80000305176</ele>
        <time>2020-10-18T11:38:19.000Z</time>
      </trkpt>
      <trkpt lat="48.29385" lon="-3.43956">
        <ele>189.80000305176</ele>
        <time>2020-10-18T11:38:20.000Z</time>
      </trkpt>
      <trkpt lat="48.29385" lon="-3.43956">
        <ele>189.80000305176</ele>
        <time>2020-10-18T11:38:21.000Z</time>
      </trkpt>
      <trkpt lat="48.29384" lon="-3.43969">
        <ele>189.60000610352</ele>
        <time>2020-10-18T11:38:22.000Z</time>
      </trkpt>
      <trkpt lat="48.29384" lon="-3.43969">
        <ele>189.60000610352</ele>
        <time>2020-10-18T11:38:23.000Z</time>
      </trkpt>
      <trkpt lat="48.29384" lon="-3.43983">
        <ele>189.39999389648</ele>
        <time>2020-10-18T11:38:24.000Z</time>
      </trkpt>
      <trkpt lat="48.29384" lon="-3.43983">
        <ele>189.39999389648</ele>
        <time>2020-10-18T11:38:25.000Z</time>
      </trkpt>
      <trkpt lat="48.29384" lon="-3.43998">
        <ele>189.39999389648</ele>
        <time>2020-10-18T11:38:26.000Z</time>
      </trkpt>
      <trkpt lat="48.29384" lon="-3.43998">
        <ele>189.39999389648</ele>
        <time>2020-10-18T11:38:27.000Z</time>
      </trkpt>
      <trkpt lat="48.29383" lon="-3.44014">
        <ele>189.39999389648</ele>
        <time>2020-10-18T11:38:28.000Z</time>
      </trkpt>
      <trkpt lat="48.29383" lon="-3.44014">
        <ele>189.39999389648</ele>
        <time>2020-10-18T11:38:29.000Z</time>
      </trkpt>
      <trkpt lat="48.29382" lon="-3.44029">
        <ele>189.39999389648</ele>
        <time>2020-10-18T11:38:30.000Z</time>
      </trkpt>
      <trkpt lat="48.29382" lon="-3.44029">
        <ele>189.39999389648</ele>
        <time>2020-10-18T11:38:31.000Z</time>
      </trkpt>
      <trkpt lat="48.29381" lon="-3.44044">
        <ele>189.39999389648</ele>
        <time>2020-10-18T11:38:32.000Z</time>
      </trkpt>
      <trkpt lat="48.29381" lon="-3.44044">
        <ele>189.39999389648</ele>
        <time>2020-10-18T11:38:33.000Z</time>
      </trkpt>
      <trkpt lat="48.2938" lon="-3.4406">
        <ele>189.39999389648</ele>
        <time>2020-10-18T11:38:34.000Z</time>
      </trkpt>
      <trkpt lat="48.2938" lon="-3.4406">
        <ele>189.39999389648</ele>
        <time>2020-10-18T11:38:35.000Z</time>
      </trkpt>
      <trkpt lat="48.29379" lon="-3.44075">
        <ele>189.39999389648</ele>
        <time>2020-10-18T11:38:36.000Z</time>
      </trkpt>
      <trkpt lat="48.29379" lon="-3.44075">
        <ele>189.39999389648</ele>
        <time>2020-10-18T11:38:37.000Z</time>
      </trkpt>
      <trkpt lat="48.29378" lon="-3.4409">
        <ele>189.39999389648</ele>
        <time>2020-10-18T11:38:38.000Z</time>
      </trkpt>
      <trkpt lat="48.29378" lon="-3.4409">
        <ele>189.39999389648</ele>
        <time>2020-10-18T11:38:39.000Z</time>
      </trkpt>
      <trkpt lat="48.29377" lon="-3.44106">
        <ele>189.39999389648</ele>
        <time>2020-10-18T11:38:40.000Z</time>
      </trkpt>
      <trkpt lat="48.29377" lon="-3.44106">
        <ele>189.39999389648</ele>
        <time>2020-10-18T11:38:41.000Z</time>
      </trkpt>
      <trkpt lat="48.29377" lon="-3.44122">
        <ele>189.39999389648</ele>
        <time>2020-10-18T11:38:42.000Z</time>
      </trkpt>
      <trkpt lat="48.29377" lon="-3.44122">
        <ele>189.39999389648</ele>
        <time>2020-10-18T11:38:43.000Z</time>
      </trkpt>
      <trkpt lat="48.29376" lon="-3.44137">
        <ele>189.39999389648</ele>
        <time>2020-10-18T11:38:44.000Z</time>
      </trkpt>
      <trkpt lat="48.29376" lon="-3.44137">
        <ele>189.39999389648</ele>
        <time>2020-10-18T11:38:45.000Z</time>
      </trkpt>
      <trkpt lat="48.29375" lon="-3.44153">
        <ele>189.39999389648</ele>
        <time>2020-10-18T11:38:46.000Z</time>
      </trkpt>
      <trkpt lat="48.29375" lon="-3.44153">
        <ele>189.39999389648</ele>
        <time>2020-10-18T11:38:47.000Z</time>
      </trkpt>
      <trkpt lat="48.29374" lon="-3.44168">
        <ele>189.60000610352</ele>
        <time>2020-10-18T11:38:48.000Z</time>
      </trkpt>
      <trkpt lat="48.29374" lon="-3.44168">
        <ele>189.60000610352</ele>
        <time>2020-10-18T11:38:49.000Z</time>
      </trkpt>
      <trkpt lat="48.29374" lon="-3.44183">
        <ele>189.60000610352</ele>
        <time>2020-10-18T11:38:50.000Z</time>
      </trkpt>
      <trkpt lat="48.29374" lon="-3.44183">
        <ele>189.60000610352</ele>
        <time>2020-10-18T11:38:51.000Z</time>
      </trkpt>
      <trkpt lat="48.29374" lon="-3.44197">
        <ele>189.39999389648</ele>
        <time>2020-10-18T11:38:52.000Z</time>
      </trkpt>
      <trkpt lat="48.29374" lon="-3.44197">
        <ele>189.39999389648</ele>
        <time>2020-10-18T11:38:53.000Z</time>
      </trkpt>
      <trkpt lat="48.29374" lon="-3.44209">
        <ele>189.39999389648</ele>
        <time>2020-10-18T11:38:54.000Z</time>
      </trkpt>
      <trkpt lat="48.29374" lon="-3.44209">
        <ele>189.39999389648</ele>
        <time>2020-10-18T11:38:55.000Z</time>
      </trkpt>
      <trkpt lat="48.29374" lon="-3.44221">
        <ele>189.19999694824</ele>
        <time>2020-10-18T11:38:56.000Z</time>
      </trkpt>
      <trkpt lat="48.29374" lon="-3.44221">
        <ele>189.19999694824</ele>
        <time>2020-10-18T11:38:57.000Z</time>
      </trkpt>
      <trkpt lat="48.29375" lon="-3.44232">
        <ele>189</ele>
        <time>2020-10-18T11:38:58.000Z</time>
      </trkpt>
      <trkpt lat="48.29375" lon="-3.44232">
        <ele>189</ele>
        <time>2020-10-18T11:38:59.000Z</time>
      </trkpt>
      <trkpt lat="48.29375" lon="-3.44243">
        <ele>189</ele>
        <time>2020-10-18T11:39:00.000Z</time>
      </trkpt>
      <trkpt lat="48.29375" lon="-3.44243">
        <ele>189</ele>
        <time>2020-10-18T11:39:01.000Z</time>
      </trkpt>
      <trkpt lat="48.29373" lon="-3.44254">
        <ele>189</ele>
        <time>2020-10-18T11:39:02.000Z</time>
      </trkpt>
      <trkpt lat="48.29373" lon="-3.44254">
        <ele>189</ele>
        <time>2020-10-18T11:39:03.000Z</time>
      </trkpt>
      <trkpt lat="48.29373" lon="-3.44264">
        <ele>189</ele>
        <time>2020-10-18T11:39:04.000Z</time>
      </trkpt>
      <trkpt lat="48.29373" lon="-3.44264">
        <ele>189</ele>
        <time>2020-10-18T11:39:05.000Z</time>
      </trkpt>
      <trkpt lat="48.29373" lon="-3.44274">
        <ele>189.19999694824</ele>
        <time>2020-10-18T11:39:06.000Z</time>
      </trkpt>
      <trkpt lat="48.29373" lon="-3.44274">
        <ele>189.19999694824</ele>
        <time>2020-10-18T11:39:07.000Z</time>
      </trkpt>
      <trkpt lat="48.29373" lon="-3.44282">
        <ele>189.39999389648</ele>
        <time>2020-10-18T11:39:08.000Z</time>
      </trkpt>
      <trkpt lat="48.29373" lon="-3.44282">
        <ele>189.39999389648</ele>
        <time>2020-10-18T11:39:09.000Z</time>
      </trkpt>
      <trkpt lat="48.29372" lon="-3.44291">
        <ele>189.60000610352</ele>
        <time>2020-10-18T11:39:10.000Z</time>
      </trkpt>
      <trkpt lat="48.29372" lon="-3.44296">
        <ele>189.60000610352</ele>
        <time>2020-10-18T11:39:11.000Z</time>
      </trkpt>
      <trkpt lat="48.29372" lon="-3.44296">
        <ele>189.60000610352</ele>
        <time>2020-10-18T11:39:12.000Z</time>
      </trkpt>
      <trkpt lat="48.2937" lon="-3.44306">
        <ele>189.80000305176</ele>
        <time>2020-10-18T11:39:13.000Z</time>
      </trkpt>
      <trkpt lat="48.2937" lon="-3.44306">
        <ele>189.80000305176</ele>
        <time>2020-10-18T11:39:14.000Z</time>
      </trkpt>
      <trkpt lat="48.29368" lon="-3.44315">
        <ele>190</ele>
        <time>2020-10-18T11:39:15.000Z</time>
      </trkpt>
      <trkpt lat="48.29368" lon="-3.44315">
        <ele>190</ele>
        <time>2020-10-18T11:39:16.000Z</time>
      </trkpt>
      <trkpt lat="48.29367" lon="-3.44324">
        <ele>190.19999694824</ele>
        <time>2020-10-18T11:39:17.000Z</time>
      </trkpt>
      <trkpt lat="48.29367" lon="-3.44324">
        <ele>190.19999694824</ele>
        <time>2020-10-18T11:39:18.000Z</time>
      </trkpt>
      <trkpt lat="48.29369" lon="-3.44334">
        <ele>190.39999389648</ele>
        <time>2020-10-18T11:39:19.000Z</time>
      </trkpt>
      <trkpt lat="48.29369" lon="-3.44334">
        <ele>190.39999389648</ele>
        <time>2020-10-18T11:39:20.000Z</time>
      </trkpt>
      <trkpt lat="48.29369" lon="-3.44344">
        <ele>190.39999389648</ele>
        <time>2020-10-18T11:39:21.000Z</time>
      </trkpt>
      <trkpt lat="48.29369" lon="-3.44344">
        <ele>190.39999389648</ele>
        <time>2020-10-18T11:39:22.000Z</time>
      </trkpt>
      <trkpt lat="48.29368" lon="-3.44354">
        <ele>190.60000610352</ele>
        <time>2020-10-18T11:39:23.000Z</time>
      </trkpt>
      <trkpt lat="48.29368" lon="-3.44354">
        <ele>190.60000610352</ele>
        <time>2020-10-18T11:39:24.000Z</time>
      </trkpt>
      <trkpt lat="48.29367" lon="-3.44366">
        <ele>190.39999389648</ele>
        <time>2020-10-18T11:39:25.000Z</time>
      </trkpt>
      <trkpt lat="48.29367" lon="-3.44366">
        <ele>190.39999389648</ele>
        <time>2020-10-18T11:39:26.000Z</time>
      </trkpt>
      <trkpt lat="48.29366" lon="-3.44372">
        <ele>190.39999389648</ele>
        <time>2020-10-18T11:39:27.000Z</time>
      </trkpt>
      <trkpt lat="48.29366" lon="-3.44377">
        <ele>190.39999389648</ele>
        <time>2020-10-18T11:39:28.000Z</time>
      </trkpt>
      <trkpt lat="48.29366" lon="-3.4439">
        <ele>190.39999389648</ele>
        <time>2020-10-18T11:39:29.000Z</time>
      </trkpt>
      <trkpt lat="48.29366" lon="-3.4439">
        <ele>190.39999389648</ele>
        <time>2020-10-18T11:39:30.000Z</time>
      </trkpt>
      <trkpt lat="48.29365" lon="-3.44403">
        <ele>190.39999389648</ele>
        <time>2020-10-18T11:39:31.000Z</time>
      </trkpt>
      <trkpt lat="48.29365" lon="-3.44403">
        <ele>190.39999389648</ele>
        <time>2020-10-18T11:39:32.000Z</time>
      </trkpt>
      <trkpt lat="48.29365" lon="-3.44409">
        <ele>190.39999389648</ele>
        <time>2020-10-18T11:39:33.000Z</time>
      </trkpt>
      <trkpt lat="48.29364" lon="-3.44422">
        <ele>190.19999694824</ele>
        <time>2020-10-18T11:39:34.000Z</time>
      </trkpt>
      <trkpt lat="48.29364" lon="-3.44422">
        <ele>190.19999694824</ele>
        <time>2020-10-18T11:39:35.000Z</time>
      </trkpt>
      <trkpt lat="48.29363" lon="-3.44428">
        <ele>190</ele>
        <time>2020-10-18T11:39:36.000Z</time>
      </trkpt>
      <trkpt lat="48.29363" lon="-3.44442">
        <ele>189.80000305176</ele>
        <time>2020-10-18T11:39:37.000Z</time>
      </trkpt>
      <trkpt lat="48.29363" lon="-3.44442">
        <ele>189.80000305176</ele>
        <time>2020-10-18T11:39:38.000Z</time>
      </trkpt>
      <trkpt lat="48.29363" lon="-3.44448">
        <ele>189.80000305176</ele>
        <time>2020-10-18T11:39:39.000Z</time>
      </trkpt>
      <trkpt lat="48.29363" lon="-3.44462">
        <ele>189.60000610352</ele>
        <time>2020-10-18T11:39:40.000Z</time>
      </trkpt>
      <trkpt lat="48.29363" lon="-3.44462">
        <ele>189.60000610352</ele>
        <time>2020-10-18T11:39:41.000Z</time>
      </trkpt>
      <trkpt lat="48.29362" lon="-3.44469">
        <ele>189.60000610352</ele>
        <time>2020-10-18T11:39:42.000Z</time>
      </trkpt>
      <trkpt lat="48.29362" lon="-3.44482">
        <ele>189.39999389648</ele>
        <time>2020-10-18T11:39:43.000Z</time>
      </trkpt>
      <trkpt lat="48.29362" lon="-3.44482">
        <ele>189.39999389648</ele>
        <time>2020-10-18T11:39:44.000Z</time>
      </trkpt>
      <trkpt lat="48.29361" lon="-3.44489">
        <ele>189.39999389648</ele>
        <time>2020-10-18T11:39:45.000Z</time>
      </trkpt>
      <trkpt lat="48.2936" lon="-3.44503">
        <ele>189.19999694824</ele>
        <time>2020-10-18T11:39:46.000Z</time>
      </trkpt>
      <trkpt lat="48.2936" lon="-3.4451">
        <ele>189</ele>
        <time>2020-10-18T11:39:47.000Z</time>
      </trkpt>
      <trkpt lat="48.29359" lon="-3.44516">
        <ele>188.80000305176</ele>
        <time>2020-10-18T11:39:48.000Z</time>
      </trkpt>
      <trkpt lat="48.29359" lon="-3.44516">
        <ele>188.80000305176</ele>
        <time>2020-10-18T11:39:49.000Z</time>
      </trkpt>
      <trkpt lat="48.29359" lon="-3.44523">
        <ele>189</ele>
        <time>2020-10-18T11:39:50.000Z</time>
      </trkpt>
      <trkpt lat="48.29358" lon="-3.44537">
        <ele>189.19999694824</ele>
        <time>2020-10-18T11:39:51.000Z</time>
      </trkpt>
      <trkpt lat="48.29358" lon="-3.44537">
        <ele>189.19999694824</ele>
        <time>2020-10-18T11:39:52.000Z</time>
      </trkpt>
      <trkpt lat="48.29357" lon="-3.44543">
        <ele>189.19999694824</ele>
        <time>2020-10-18T11:39:53.000Z</time>
      </trkpt>
      <trkpt lat="48.29357" lon="-3.44557">
        <ele>189.39999389648</ele>
        <time>2020-10-18T11:39:54.000Z</time>
      </trkpt>
      <trkpt lat="48.29357" lon="-3.44557">
        <ele>189.39999389648</ele>
        <time>2020-10-18T11:39:55.000Z</time>
      </trkpt>
      <trkpt lat="48.29356" lon="-3.44564">
        <ele>189.39999389648</ele>
        <time>2020-10-18T11:39:56.000Z</time>
      </trkpt>
      <trkpt lat="48.29355" lon="-3.44577">
        <ele>189.60000610352</ele>
        <time>2020-10-18T11:39:57.000Z</time>
      </trkpt>
      <trkpt lat="48.29355" lon="-3.44577">
        <ele>189.60000610352</ele>
        <time>2020-10-18T11:39:58.000Z</time>
      </trkpt>
      <trkpt lat="48.29353" lon="-3.44591">
        <ele>189.80000305176</ele>
        <time>2020-10-18T11:39:59.000Z</time>
      </trkpt>
      <trkpt lat="48.29353" lon="-3.44591">
        <ele>189.80000305176</ele>
        <time>2020-10-18T11:40:00.000Z</time>
      </trkpt>
      <trkpt lat="48.29352" lon="-3.44598">
        <ele>189.80000305176</ele>
        <time>2020-10-18T11:40:01.000Z</time>
      </trkpt>
      <trkpt lat="48.29351" lon="-3.44612">
        <ele>189.80000305176</ele>
        <time>2020-10-18T11:40:02.000Z</time>
      </trkpt>
      <trkpt lat="48.29351" lon="-3.44612">
        <ele>189.80000305176</ele>
        <time>2020-10-18T11:40:03.000Z</time>
      </trkpt>
      <trkpt lat="48.29349" lon="-3.44627">
        <ele>190</ele>
        <time>2020-10-18T11:40:04.000Z</time>
      </trkpt>
      <trkpt lat="48.29349" lon="-3.44627">
        <ele>190</ele>
        <time>2020-10-18T11:40:05.000Z</time>
      </trkpt>
      <trkpt lat="48.29348" lon="-3.44634">
        <ele>190</ele>
        <time>2020-10-18T11:40:06.000Z</time>
      </trkpt>
      <trkpt lat="48.29347" lon="-3.44649">
        <ele>190</ele>
        <time>2020-10-18T11:40:07.000Z</time>
      </trkpt>
      <trkpt lat="48.29347" lon="-3.44649">
        <ele>190</ele>
        <time>2020-10-18T11:40:08.000Z</time>
      </trkpt>
      <trkpt lat="48.29346" lon="-3.44656">
        <ele>190</ele>
        <time>2020-10-18T11:40:09.000Z</time>
      </trkpt>
      <trkpt lat="48.29344" lon="-3.4467">
        <ele>190</ele>
        <time>2020-10-18T11:40:10.000Z</time>
      </trkpt>
      <trkpt lat="48.29344" lon="-3.4467">
        <ele>190</ele>
        <time>2020-10-18T11:40:11.000Z</time>
      </trkpt>
      <trkpt lat="48.29343" lon="-3.44678">
        <ele>189.80000305176</ele>
        <time>2020-10-18T11:40:12.000Z</time>
      </trkpt>
      <trkpt lat="48.2934" lon="-3.44693">
        <ele>189.80000305176</ele>
        <time>2020-10-18T11:40:13.000Z</time>
      </trkpt>
      <trkpt lat="48.2934" lon="-3.44693">
        <ele>189.80000305176</ele>
        <time>2020-10-18T11:40:14.000Z</time>
      </trkpt>
      <trkpt lat="48.29337" lon="-3.44707">
        <ele>189.39999389648</ele>
        <time>2020-10-18T11:40:15.000Z</time>
      </trkpt>
      <trkpt lat="48.29337" lon="-3.44707">
        <ele>189.39999389648</ele>
        <time>2020-10-18T11:40:16.000Z</time>
      </trkpt>
      <trkpt lat="48.29336" lon="-3.44715">
        <ele>189.19999694824</ele>
        <time>2020-10-18T11:40:17.000Z</time>
      </trkpt>
      <trkpt lat="48.29332" lon="-3.44729">
        <ele>188.80000305176</ele>
        <time>2020-10-18T11:40:18.000Z</time>
      </trkpt>
      <trkpt lat="48.29332" lon="-3.44729">
        <ele>188.80000305176</ele>
        <time>2020-10-18T11:40:19.000Z</time>
      </trkpt>
      <trkpt lat="48.2933" lon="-3.44736">
        <ele>188.80000305176</ele>
        <time>2020-10-18T11:40:20.000Z</time>
      </trkpt>
      <trkpt lat="48.29326" lon="-3.44751">
        <ele>188.39999389648</ele>
        <time>2020-10-18T11:40:21.000Z</time>
      </trkpt>
      <trkpt lat="48.29326" lon="-3.44751">
        <ele>188.39999389648</ele>
        <time>2020-10-18T11:40:22.000Z</time>
      </trkpt>
      <trkpt lat="48.29325" lon="-3.44758">
        <ele>188.19999694824</ele>
        <time>2020-10-18T11:40:23.000Z</time>
      </trkpt>
      <trkpt lat="48.29321" lon="-3.44773">
        <ele>188</ele>
        <time>2020-10-18T11:40:24.000Z</time>
      </trkpt>
      <trkpt lat="48.29321" lon="-3.44773">
        <ele>188</ele>
        <time>2020-10-18T11:40:25.000Z</time>
      </trkpt>
      <trkpt lat="48.29319" lon="-3.4478">
        <ele>188</ele>
        <time>2020-10-18T11:40:26.000Z</time>
      </trkpt>
      <trkpt lat="48.29315" lon="-3.44795">
        <ele>188</ele>
        <time>2020-10-18T11:40:27.000Z</time>
      </trkpt>
      <trkpt lat="48.29315" lon="-3.44795">
        <ele>188</ele>
        <time>2020-10-18T11:40:28.000Z</time>
      </trkpt>
      <trkpt lat="48.29313" lon="-3.44803">
        <ele>188</ele>
        <time>2020-10-18T11:40:29.000Z</time>
      </trkpt>
      <trkpt lat="48.2931" lon="-3.44818">
        <ele>188</ele>
        <time>2020-10-18T11:40:30.000Z</time>
      </trkpt>
      <trkpt lat="48.2931" lon="-3.44818">
        <ele>188</ele>
        <time>2020-10-18T11:40:31.000Z</time>
      </trkpt>
      <trkpt lat="48.29308" lon="-3.44825">
        <ele>188</ele>
        <time>2020-10-18T11:40:32.000Z</time>
      </trkpt>
      <trkpt lat="48.29304" lon="-3.4484">
        <ele>188</ele>
        <time>2020-10-18T11:40:33.000Z</time>
      </trkpt>
      <trkpt lat="48.29304" lon="-3.4484">
        <ele>188</ele>
        <time>2020-10-18T11:40:34.000Z</time>
      </trkpt>
      <trkpt lat="48.29302" lon="-3.44848">
        <ele>188</ele>
        <time>2020-10-18T11:40:35.000Z</time>
      </trkpt>
      <trkpt lat="48.29297" lon="-3.44862">
        <ele>188</ele>
        <time>2020-10-18T11:40:36.000Z</time>
      </trkpt>
      <trkpt lat="48.29297" lon="-3.44862">
        <ele>188</ele>
        <time>2020-10-18T11:40:37.000Z</time>
      </trkpt>
      <trkpt lat="48.29294" lon="-3.44869">
        <ele>188</ele>
        <time>2020-10-18T11:40:38.000Z</time>
      </trkpt>
      <trkpt lat="48.29289" lon="-3.44883">
        <ele>188</ele>
        <time>2020-10-18T11:40:39.000Z</time>
      </trkpt>
      <trkpt lat="48.29289" lon="-3.44883">
        <ele>188</ele>
        <time>2020-10-18T11:40:40.000Z</time>
      </trkpt>
      <trkpt lat="48.29287" lon="-3.4489">
        <ele>188</ele>
        <time>2020-10-18T11:40:41.000Z</time>
      </trkpt>
      <trkpt lat="48.29282" lon="-3.44903">
        <ele>188</ele>
        <time>2020-10-18T11:40:42.000Z</time>
      </trkpt>
      <trkpt lat="48.29282" lon="-3.44903">
        <ele>188</ele>
        <time>2020-10-18T11:40:43.000Z</time>
      </trkpt>
      <trkpt lat="48.2928" lon="-3.4491">
        <ele>188</ele>
        <time>2020-10-18T11:40:44.000Z</time>
      </trkpt>
      <trkpt lat="48.29276" lon="-3.44923">
        <ele>188</ele>
        <time>2020-10-18T11:40:45.000Z</time>
      </trkpt>
      <trkpt lat="48.29276" lon="-3.44923">
        <ele>188</ele>
        <time>2020-10-18T11:40:46.000Z</time>
      </trkpt>
      <trkpt lat="48.29273" lon="-3.4493">
        <ele>188</ele>
        <time>2020-10-18T11:40:47.000Z</time>
      </trkpt>
      <trkpt lat="48.2927" lon="-3.44936">
        <ele>188</ele>
        <time>2020-10-18T11:40:48.000Z</time>
      </trkpt>
      <trkpt lat="48.29265" lon="-3.44948">
        <ele>188</ele>
        <time>2020-10-18T11:40:49.000Z</time>
      </trkpt>
      <trkpt lat="48.29262" lon="-3.44955">
        <ele>188</ele>
        <time>2020-10-18T11:40:50.000Z</time>
      </trkpt>
      <trkpt lat="48.29262" lon="-3.44955">
        <ele>188</ele>
        <time>2020-10-18T11:40:51.000Z</time>
      </trkpt>
      <trkpt lat="48.2926" lon="-3.44961">
        <ele>188</ele>
        <time>2020-10-18T11:40:52.000Z</time>
      </trkpt>
      <trkpt lat="48.29257" lon="-3.44974">
        <ele>188</ele>
        <time>2020-10-18T11:40:53.000Z</time>
      </trkpt>
      <trkpt lat="48.29257" lon="-3.44974">
        <ele>188</ele>
        <time>2020-10-18T11:40:54.000Z</time>
      </trkpt>
      <trkpt lat="48.29255" lon="-3.4498">
        <ele>188</ele>
        <time>2020-10-18T11:40:55.000Z</time>
      </trkpt>
      <trkpt lat="48.29251" lon="-3.44994">
        <ele>187.80000305176</ele>
        <time>2020-10-18T11:40:56.000Z</time>
      </trkpt>
      <trkpt lat="48.29251" lon="-3.44994">
        <ele>187.80000305176</ele>
        <time>2020-10-18T11:40:57.000Z</time>
      </trkpt>
      <trkpt lat="48.29249" lon="-3.45001">
        <ele>187.80000305176</ele>
        <time>2020-10-18T11:40:58.000Z</time>
      </trkpt>
      <trkpt lat="48.29244" lon="-3.45014">
        <ele>187.80000305176</ele>
        <time>2020-10-18T11:40:59.000Z</time>
      </trkpt>
      <trkpt lat="48.29244" lon="-3.45014">
        <ele>187.80000305176</ele>
        <time>2020-10-18T11:41:00.000Z</time>
      </trkpt>
      <trkpt lat="48.29241" lon="-3.45021">
        <ele>187.80000305176</ele>
        <time>2020-10-18T11:41:01.000Z</time>
      </trkpt>
      <trkpt lat="48.29237" lon="-3.45036">
        <ele>188</ele>
        <time>2020-10-18T11:41:02.000Z</time>
      </trkpt>
      <trkpt lat="48.29237" lon="-3.45036">
        <ele>188</ele>
        <time>2020-10-18T11:41:03.000Z</time>
      </trkpt>
      <trkpt lat="48.29232" lon="-3.45051">
        <ele>188</ele>
        <time>2020-10-18T11:41:04.000Z</time>
      </trkpt>
      <trkpt lat="48.29232" lon="-3.45051">
        <ele>188</ele>
        <time>2020-10-18T11:41:05.000Z</time>
      </trkpt>
      <trkpt lat="48.29229" lon="-3.45058">
        <ele>188</ele>
        <time>2020-10-18T11:41:06.000Z</time>
      </trkpt>
      <trkpt lat="48.29225" lon="-3.45073">
        <ele>188.19999694824</ele>
        <time>2020-10-18T11:41:07.000Z</time>
      </trkpt>
      <trkpt lat="48.29225" lon="-3.45073">
        <ele>188.19999694824</ele>
        <time>2020-10-18T11:41:08.000Z</time>
      </trkpt>
      <trkpt lat="48.29223" lon="-3.4508">
        <ele>188.19999694824</ele>
        <time>2020-10-18T11:41:09.000Z</time>
      </trkpt>
      <trkpt lat="48.29218" lon="-3.45095">
        <ele>188.39999389648</ele>
        <time>2020-10-18T11:41:10.000Z</time>
      </trkpt>
      <trkpt lat="48.29218" lon="-3.45095">
        <ele>188.39999389648</ele>
        <time>2020-10-18T11:41:11.000Z</time>
      </trkpt>
      <trkpt lat="48.29217" lon="-3.45102">
        <ele>188.39999389648</ele>
        <time>2020-10-18T11:41:12.000Z</time>
      </trkpt>
      <trkpt lat="48.29213" lon="-3.45117">
        <ele>188.60000610352</ele>
        <time>2020-10-18T11:41:13.000Z</time>
      </trkpt>
      <trkpt lat="48.29213" lon="-3.45117">
        <ele>188.60000610352</ele>
        <time>2020-10-18T11:41:14.000Z</time>
      </trkpt>
      <trkpt lat="48.29211" lon="-3.45124">
        <ele>188.60000610352</ele>
        <time>2020-10-18T11:41:15.000Z</time>
      </trkpt>
      <trkpt lat="48.29207" lon="-3.4514">
        <ele>188.80000305176</ele>
        <time>2020-10-18T11:41:16.000Z</time>
      </trkpt>
      <trkpt lat="48.29207" lon="-3.4514">
        <ele>188.80000305176</ele>
        <time>2020-10-18T11:41:17.000Z</time>
      </trkpt>
      <trkpt lat="48.29205" lon="-3.45147">
        <ele>188.80000305176</ele>
        <time>2020-10-18T11:41:18.000Z</time>
      </trkpt>
      <trkpt lat="48.29201" lon="-3.45162">
        <ele>189</ele>
        <time>2020-10-18T11:41:19.000Z</time>
      </trkpt>
      <trkpt lat="48.29201" lon="-3.45162">
        <ele>189</ele>
        <time>2020-10-18T11:41:20.000Z</time>
      </trkpt>
      <trkpt lat="48.29199" lon="-3.45169">
        <ele>188.80000305176</ele>
        <time>2020-10-18T11:41:21.000Z</time>
      </trkpt>
      <trkpt lat="48.29195" lon="-3.45182">
        <ele>188.60000610352</ele>
        <time>2020-10-18T11:41:22.000Z</time>
      </trkpt>
      <trkpt lat="48.29195" lon="-3.45182">
        <ele>188.60000610352</ele>
        <time>2020-10-18T11:41:23.000Z</time>
      </trkpt>
      <trkpt lat="48.29193" lon="-3.45188">
        <ele>188.60000610352</ele>
        <time>2020-10-18T11:41:24.000Z</time>
      </trkpt>
      <trkpt lat="48.29189" lon="-3.452">
        <ele>188.80000305176</ele>
        <time>2020-10-18T11:41:25.000Z</time>
      </trkpt>
      <trkpt lat="48.29189" lon="-3.452">
        <ele>188.80000305176</ele>
        <time>2020-10-18T11:41:26.000Z</time>
      </trkpt>
      <trkpt lat="48.29188" lon="-3.45205">
        <ele>188.80000305176</ele>
        <time>2020-10-18T11:41:27.000Z</time>
      </trkpt>
      <trkpt lat="48.29186" lon="-3.45211">
        <ele>188.80000305176</ele>
        <time>2020-10-18T11:41:28.000Z</time>
      </trkpt>
      <trkpt lat="48.29183" lon="-3.45219">
        <ele>189</ele>
        <time>2020-10-18T11:41:29.000Z</time>
      </trkpt>
      <trkpt lat="48.29183" lon="-3.45219">
        <ele>189</ele>
        <time>2020-10-18T11:41:30.000Z</time>
      </trkpt>
      <trkpt lat="48.29182" lon="-3.45223">
        <ele>189</ele>
        <time>2020-10-18T11:41:31.000Z</time>
      </trkpt>
      <trkpt lat="48.29179" lon="-3.4523">
        <ele>189</ele>
        <time>2020-10-18T11:41:32.000Z</time>
      </trkpt>
      <trkpt lat="48.29179" lon="-3.4523">
        <ele>189</ele>
        <time>2020-10-18T11:41:33.000Z</time>
      </trkpt>
      <trkpt lat="48.29177" lon="-3.45234">
        <ele>189</ele>
        <time>2020-10-18T11:41:34.000Z</time>
      </trkpt>
      <trkpt lat="48.29175" lon="-3.45243">
        <ele>189</ele>
        <time>2020-10-18T11:41:35.000Z</time>
      </trkpt>
      <trkpt lat="48.29175" lon="-3.45243">
        <ele>189</ele>
        <time>2020-10-18T11:41:36.000Z</time>
      </trkpt>
      <trkpt lat="48.29174" lon="-3.45247">
        <ele>189</ele>
        <time>2020-10-18T11:41:37.000Z</time>
      </trkpt>
      <trkpt lat="48.29172" lon="-3.45256">
        <ele>189</ele>
        <time>2020-10-18T11:41:38.000Z</time>
      </trkpt>
      <trkpt lat="48.29172" lon="-3.45256">
        <ele>189</ele>
        <time>2020-10-18T11:41:39.000Z</time>
      </trkpt>
      <trkpt lat="48.2917" lon="-3.45261">
        <ele>189</ele>
        <time>2020-10-18T11:41:40.000Z</time>
      </trkpt>
      <trkpt lat="48.29167" lon="-3.45271">
        <ele>188.80000305176</ele>
        <time>2020-10-18T11:41:41.000Z</time>
      </trkpt>
      <trkpt lat="48.29167" lon="-3.45271">
        <ele>188.80000305176</ele>
        <time>2020-10-18T11:41:42.000Z</time>
      </trkpt>
      <trkpt lat="48.29165" lon="-3.45277">
        <ele>188.80000305176</ele>
        <time>2020-10-18T11:41:43.000Z</time>
      </trkpt>
      <trkpt lat="48.29161" lon="-3.45288">
        <ele>188.39999389648</ele>
        <time>2020-10-18T11:41:44.000Z</time>
      </trkpt>
      <trkpt lat="48.29161" lon="-3.45288">
        <ele>188.39999389648</ele>
        <time>2020-10-18T11:41:45.000Z</time>
      </trkpt>
      <trkpt lat="48.29159" lon="-3.45294">
        <ele>188.19999694824</ele>
        <time>2020-10-18T11:41:46.000Z</time>
      </trkpt>
      <trkpt lat="48.29156" lon="-3.45306">
        <ele>187.80000305176</ele>
        <time>2020-10-18T11:41:47.000Z</time>
      </trkpt>
      <trkpt lat="48.29156" lon="-3.45306">
        <ele>187.80000305176</ele>
        <time>2020-10-18T11:41:48.000Z</time>
      </trkpt>
      <trkpt lat="48.29153" lon="-3.45317">
        <ele>187.39999389648</ele>
        <time>2020-10-18T11:41:49.000Z</time>
      </trkpt>
      <trkpt lat="48.29153" lon="-3.45317">
        <ele>187.39999389648</ele>
        <time>2020-10-18T11:41:50.000Z</time>
      </trkpt>
      <trkpt lat="48.29151" lon="-3.45323">
        <ele>187.19999694824</ele>
        <time>2020-10-18T11:41:51.000Z</time>
      </trkpt>
      <trkpt lat="48.29148" lon="-3.45335">
        <ele>187</ele>
        <time>2020-10-18T11:41:52.000Z</time>
      </trkpt>
      <trkpt lat="48.29148" lon="-3.45335">
        <ele>187</ele>
        <time>2020-10-18T11:41:53.000Z</time>
      </trkpt>
      <trkpt lat="48.29147" lon="-3.4534">
        <ele>186.80000305176</ele>
        <time>2020-10-18T11:41:54.000Z</time>
      </trkpt>
      <trkpt lat="48.29144" lon="-3.45352">
        <ele>186.39999389648</ele>
        <time>2020-10-18T11:41:55.000Z</time>
      </trkpt>
      <trkpt lat="48.29144" lon="-3.45352">
        <ele>186.39999389648</ele>
        <time>2020-10-18T11:41:56.000Z</time>
      </trkpt>
      <trkpt lat="48.29142" lon="-3.45357">
        <ele>186.39999389648</ele>
        <time>2020-10-18T11:41:57.000Z</time>
      </trkpt>
      <trkpt lat="48.29139" lon="-3.45369">
        <ele>186.39999389648</ele>
        <time>2020-10-18T11:41:58.000Z</time>
      </trkpt>
      <trkpt lat="48.29139" lon="-3.45369">
        <ele>186.39999389648</ele>
        <time>2020-10-18T11:41:59.000Z</time>
      </trkpt>
      <trkpt lat="48.29136" lon="-3.4538">
        <ele>186.60000610352</ele>
        <time>2020-10-18T11:42:00.000Z</time>
      </trkpt>
      <trkpt lat="48.29136" lon="-3.4538">
        <ele>186.60000610352</ele>
        <time>2020-10-18T11:42:01.000Z</time>
      </trkpt>
      <trkpt lat="48.29134" lon="-3.45386">
        <ele>186.60000610352</ele>
        <time>2020-10-18T11:42:02.000Z</time>
      </trkpt>
      <trkpt lat="48.29131" lon="-3.45398">
        <ele>186.60000610352</ele>
        <time>2020-10-18T11:42:03.000Z</time>
      </trkpt>
      <trkpt lat="48.29131" lon="-3.45398">
        <ele>186.60000610352</ele>
        <time>2020-10-18T11:42:04.000Z</time>
      </trkpt>
      <trkpt lat="48.29129" lon="-3.45404">
        <ele>186.39999389648</ele>
        <time>2020-10-18T11:42:05.000Z</time>
      </trkpt>
      <trkpt lat="48.29126" lon="-3.45416">
        <ele>186.19999694824</ele>
        <time>2020-10-18T11:42:06.000Z</time>
      </trkpt>
      <trkpt lat="48.29126" lon="-3.45416">
        <ele>186.19999694824</ele>
        <time>2020-10-18T11:42:07.000Z</time>
      </trkpt>
      <trkpt lat="48.29124" lon="-3.45422">
        <ele>186</ele>
        <time>2020-10-18T11:42:08.000Z</time>
      </trkpt>
      <trkpt lat="48.29121" lon="-3.45434">
        <ele>185.80000305176</ele>
        <time>2020-10-18T11:42:09.000Z</time>
      </trkpt>
      <trkpt lat="48.29121" lon="-3.45434">
        <ele>185.80000305176</ele>
        <time>2020-10-18T11:42:10.000Z</time>
      </trkpt>
      <trkpt lat="48.29119" lon="-3.4544">
        <ele>185.80000305176</ele>
        <time>2020-10-18T11:42:11.000Z</time>
      </trkpt>
      <trkpt lat="48.29116" lon="-3.45453">
        <ele>185.80000305176</ele>
        <time>2020-10-18T11:42:12.000Z</time>
      </trkpt>
      <trkpt lat="48.29116" lon="-3.45453">
        <ele>185.80000305176</ele>
        <time>2020-10-18T11:42:13.000Z</time>
      </trkpt>
      <trkpt lat="48.29115" lon="-3.4546">
        <ele>185.80000305176</ele>
        <time>2020-10-18T11:42:14.000Z</time>
      </trkpt>
      <trkpt lat="48.29112" lon="-3.45473">
        <ele>185.80000305176</ele>
        <time>2020-10-18T11:42:15.000Z</time>
      </trkpt>
      <trkpt lat="48.29112" lon="-3.45473">
        <ele>185.80000305176</ele>
        <time>2020-10-18T11:42:16.000Z</time>
      </trkpt>
      <trkpt lat="48.29111" lon="-3.45479">
        <ele>185.80000305176</ele>
        <time>2020-10-18T11:42:17.000Z</time>
      </trkpt>
      <trkpt lat="48.29108" lon="-3.45492">
        <ele>185.80000305176</ele>
        <time>2020-10-18T11:42:18.000Z</time>
      </trkpt>
      <trkpt lat="48.29108" lon="-3.45492">
        <ele>185.80000305176</ele>
        <time>2020-10-18T11:42:19.000Z</time>
      </trkpt>
      <trkpt lat="48.29105" lon="-3.45505">
        <ele>185.80000305176</ele>
        <time>2020-10-18T11:42:20.000Z</time>
      </trkpt>
      <trkpt lat="48.29105" lon="-3.45505">
        <ele>185.80000305176</ele>
        <time>2020-10-18T11:42:21.000Z</time>
      </trkpt>
      <trkpt lat="48.29103" lon="-3.45512">
        <ele>185.60000610352</ele>
        <time>2020-10-18T11:42:22.000Z</time>
      </trkpt>
      <trkpt lat="48.291" lon="-3.45525">
        <ele>185.39999389648</ele>
        <time>2020-10-18T11:42:23.000Z</time>
      </trkpt>
      <trkpt lat="48.291" lon="-3.45525">
        <ele>185.39999389648</ele>
        <time>2020-10-18T11:42:24.000Z</time>
      </trkpt>
      <trkpt lat="48.29099" lon="-3.45531">
        <ele>185.39999389648</ele>
        <time>2020-10-18T11:42:25.000Z</time>
      </trkpt>
      <trkpt lat="48.29096" lon="-3.45544">
        <ele>185.39999389648</ele>
        <time>2020-10-18T11:42:26.000Z</time>
      </trkpt>
      <trkpt lat="48.29096" lon="-3.45544">
        <ele>185.39999389648</ele>
        <time>2020-10-18T11:42:27.000Z</time>
      </trkpt>
      <trkpt lat="48.29095" lon="-3.4555">
        <ele>185.19999694824</ele>
        <time>2020-10-18T11:42:28.000Z</time>
      </trkpt>
      <trkpt lat="48.29093" lon="-3.45562">
        <ele>185</ele>
        <time>2020-10-18T11:42:29.000Z</time>
      </trkpt>
      <trkpt lat="48.29093" lon="-3.45562">
        <ele>185</ele>
        <time>2020-10-18T11:42:30.000Z</time>
      </trkpt>
      <trkpt lat="48.29091" lon="-3.45569">
        <ele>184.80000305176</ele>
        <time>2020-10-18T11:42:31.000Z</time>
      </trkpt>
      <trkpt lat="48.29089" lon="-3.45582">
        <ele>184.60000610352</ele>
        <time>2020-10-18T11:42:32.000Z</time>
      </trkpt>
      <trkpt lat="48.29089" lon="-3.45582">
        <ele>184.60000610352</ele>
        <time>2020-10-18T11:42:33.000Z</time>
      </trkpt>
      <trkpt lat="48.29088" lon="-3.45589">
        <ele>184.39999389648</ele>
        <time>2020-10-18T11:42:34.000Z</time>
      </trkpt>
      <trkpt lat="48.29086" lon="-3.45603">
        <ele>184.19999694824</ele>
        <time>2020-10-18T11:42:35.000Z</time>
      </trkpt>
      <trkpt lat="48.29086" lon="-3.45603">
        <ele>184.19999694824</ele>
        <time>2020-10-18T11:42:36.000Z</time>
      </trkpt>
      <trkpt lat="48.29085" lon="-3.4561">
        <ele>184.19999694824</ele>
        <time>2020-10-18T11:42:37.000Z</time>
      </trkpt>
      <trkpt lat="48.29084" lon="-3.45625">
        <ele>184.19999694824</ele>
        <time>2020-10-18T11:42:38.000Z</time>
      </trkpt>
      <trkpt lat="48.29084" lon="-3.45625">
        <ele>184.19999694824</ele>
        <time>2020-10-18T11:42:39.000Z</time>
      </trkpt>
      <trkpt lat="48.29082" lon="-3.45632">
        <ele>184.19999694824</ele>
        <time>2020-10-18T11:42:40.000Z</time>
      </trkpt>
      <trkpt lat="48.2908" lon="-3.45647">
        <ele>184.19999694824</ele>
        <time>2020-10-18T11:42:41.000Z</time>
      </trkpt>
      <trkpt lat="48.2908" lon="-3.45647">
        <ele>184.19999694824</ele>
        <time>2020-10-18T11:42:42.000Z</time>
      </trkpt>
      <trkpt lat="48.29079" lon="-3.45654">
        <ele>184.19999694824</ele>
        <time>2020-10-18T11:42:43.000Z</time>
      </trkpt>
      <trkpt lat="48.29078" lon="-3.45668">
        <ele>184.19999694824</ele>
        <time>2020-10-18T11:42:44.000Z</time>
      </trkpt>
      <trkpt lat="48.29078" lon="-3.45668">
        <ele>184.19999694824</ele>
        <time>2020-10-18T11:42:45.000Z</time>
      </trkpt>
      <trkpt lat="48.29077" lon="-3.45675">
        <ele>184.19999694824</ele>
        <time>2020-10-18T11:42:46.000Z</time>
      </trkpt>
      <trkpt lat="48.29075" lon="-3.45682">
        <ele>184.19999694824</ele>
        <time>2020-10-18T11:42:47.000Z</time>
      </trkpt>
      <trkpt lat="48.29074" lon="-3.4569">
        <ele>184.19999694824</ele>
        <time>2020-10-18T11:42:48.000Z</time>
      </trkpt>
      <trkpt lat="48.29072" lon="-3.45704">
        <ele>184.19999694824</ele>
        <time>2020-10-18T11:42:49.000Z</time>
      </trkpt>
      <trkpt lat="48.29072" lon="-3.45704">
        <ele>184.19999694824</ele>
        <time>2020-10-18T11:42:50.000Z</time>
      </trkpt>
      <trkpt lat="48.29072" lon="-3.45711">
        <ele>184.19999694824</ele>
        <time>2020-10-18T11:42:51.000Z</time>
      </trkpt>
      <trkpt lat="48.2907" lon="-3.45726">
        <ele>184.19999694824</ele>
        <time>2020-10-18T11:42:52.000Z</time>
      </trkpt>
      <trkpt lat="48.2907" lon="-3.45726">
        <ele>184.19999694824</ele>
        <time>2020-10-18T11:42:53.000Z</time>
      </trkpt>
      <trkpt lat="48.29069" lon="-3.45733">
        <ele>184</ele>
        <time>2020-10-18T11:42:54.000Z</time>
      </trkpt>
      <trkpt lat="48.29067" lon="-3.45747">
        <ele>184</ele>
        <time>2020-10-18T11:42:55.000Z</time>
      </trkpt>
      <trkpt lat="48.29067" lon="-3.45747">
        <ele>184</ele>
        <time>2020-10-18T11:42:56.000Z</time>
      </trkpt>
      <trkpt lat="48.29066" lon="-3.45755">
        <ele>183.80000305176</ele>
        <time>2020-10-18T11:42:57.000Z</time>
      </trkpt>
      <trkpt lat="48.29064" lon="-3.45769">
        <ele>183.80000305176</ele>
        <time>2020-10-18T11:42:58.000Z</time>
      </trkpt>
      <trkpt lat="48.29064" lon="-3.45769">
        <ele>183.80000305176</ele>
        <time>2020-10-18T11:42:59.000Z</time>
      </trkpt>
      <trkpt lat="48.29064" lon="-3.45777">
        <ele>183.60000610352</ele>
        <time>2020-10-18T11:43:00.000Z</time>
      </trkpt>
      <trkpt lat="48.29063" lon="-3.45791">
        <ele>183.60000610352</ele>
        <time>2020-10-18T11:43:01.000Z</time>
      </trkpt>
      <trkpt lat="48.29062" lon="-3.45797">
        <ele>183.39999389648</ele>
        <time>2020-10-18T11:43:02.000Z</time>
      </trkpt>
      <trkpt lat="48.29062" lon="-3.45797">
        <ele>183.39999389648</ele>
        <time>2020-10-18T11:43:03.000Z</time>
      </trkpt>
      <trkpt lat="48.2906" lon="-3.45809">
        <ele>183.39999389648</ele>
        <time>2020-10-18T11:43:04.000Z</time>
      </trkpt>
      <trkpt lat="48.2906" lon="-3.45809">
        <ele>183.39999389648</ele>
        <time>2020-10-18T11:43:05.000Z</time>
      </trkpt>
      <trkpt lat="48.29059" lon="-3.45815">
        <ele>183.39999389648</ele>
        <time>2020-10-18T11:43:06.000Z</time>
      </trkpt>
      <trkpt lat="48.29058" lon="-3.45825">
        <ele>183.39999389648</ele>
        <time>2020-10-18T11:43:07.000Z</time>
      </trkpt>
      <trkpt lat="48.29057" lon="-3.4583">
        <ele>183.39999389648</ele>
        <time>2020-10-18T11:43:08.000Z</time>
      </trkpt>
      <trkpt lat="48.29057" lon="-3.4583">
        <ele>183.39999389648</ele>
        <time>2020-10-18T11:43:09.000Z</time>
      </trkpt>
      <trkpt lat="48.29056" lon="-3.45835">
        <ele>183.39999389648</ele>
        <time>2020-10-18T11:43:10.000Z</time>
      </trkpt>
      <trkpt lat="48.29054" lon="-3.45846">
        <ele>183.60000610352</ele>
        <time>2020-10-18T11:43:11.000Z</time>
      </trkpt>
      <trkpt lat="48.29054" lon="-3.45846">
        <ele>183.60000610352</ele>
        <time>2020-10-18T11:43:12.000Z</time>
      </trkpt>
      <trkpt lat="48.29053" lon="-3.45852">
        <ele>183.39999389648</ele>
        <time>2020-10-18T11:43:13.000Z</time>
      </trkpt>
      <trkpt lat="48.29051" lon="-3.45864">
        <ele>183.39999389648</ele>
        <time>2020-10-18T11:43:14.000Z</time>
      </trkpt>
      <trkpt lat="48.29051" lon="-3.45864">
        <ele>183.39999389648</ele>
        <time>2020-10-18T11:43:15.000Z</time>
      </trkpt>
      <trkpt lat="48.2905" lon="-3.45871">
        <ele>183.39999389648</ele>
        <time>2020-10-18T11:43:16.000Z</time>
      </trkpt>
      <trkpt lat="48.29049" lon="-3.45877">
        <ele>183.19999694824</ele>
        <time>2020-10-18T11:43:17.000Z</time>
      </trkpt>
      <trkpt lat="48.29048" lon="-3.45891">
        <ele>183</ele>
        <time>2020-10-18T11:43:18.000Z</time>
      </trkpt>
      <trkpt lat="48.29048" lon="-3.45891">
        <ele>183</ele>
        <time>2020-10-18T11:43:19.000Z</time>
      </trkpt>
      <trkpt lat="48.29047" lon="-3.45897">
        <ele>183</ele>
        <time>2020-10-18T11:43:20.000Z</time>
      </trkpt>
      <trkpt lat="48.29046" lon="-3.45909">
        <ele>182.80000305176</ele>
        <time>2020-10-18T11:43:21.000Z</time>
      </trkpt>
      <trkpt lat="48.29046" lon="-3.45909">
        <ele>182.80000305176</ele>
        <time>2020-10-18T11:43:22.000Z</time>
      </trkpt>
      <trkpt lat="48.29045" lon="-3.45916">
        <ele>182.80000305176</ele>
        <time>2020-10-18T11:43:23.000Z</time>
      </trkpt>
      <trkpt lat="48.29043" lon="-3.45928">
        <ele>182.60000610352</ele>
        <time>2020-10-18T11:43:24.000Z</time>
      </trkpt>
      <trkpt lat="48.29043" lon="-3.45928">
        <ele>182.60000610352</ele>
        <time>2020-10-18T11:43:25.000Z</time>
      </trkpt>
      <trkpt lat="48.29042" lon="-3.45935">
        <ele>182.60000610352</ele>
        <time>2020-10-18T11:43:26.000Z</time>
      </trkpt>
      <trkpt lat="48.29039" lon="-3.45948">
        <ele>182.80000305176</ele>
        <time>2020-10-18T11:43:27.000Z</time>
      </trkpt>
      <trkpt lat="48.29039" lon="-3.45948">
        <ele>182.80000305176</ele>
        <time>2020-10-18T11:43:28.000Z</time>
      </trkpt>
      <trkpt lat="48.29038" lon="-3.45954">
        <ele>183</ele>
        <time>2020-10-18T11:43:29.000Z</time>
      </trkpt>
      <trkpt lat="48.29036" lon="-3.45967">
        <ele>183.19999694824</ele>
        <time>2020-10-18T11:43:30.000Z</time>
      </trkpt>
      <trkpt lat="48.29036" lon="-3.45967">
        <ele>183.19999694824</ele>
        <time>2020-10-18T11:43:31.000Z</time>
      </trkpt>
      <trkpt lat="48.29035" lon="-3.45974">
        <ele>183.19999694824</ele>
        <time>2020-10-18T11:43:32.000Z</time>
      </trkpt>
      <trkpt lat="48.29034" lon="-3.45987">
        <ele>183.39999389648</ele>
        <time>2020-10-18T11:43:33.000Z</time>
      </trkpt>
      <trkpt lat="48.29034" lon="-3.45987">
        <ele>183.39999389648</ele>
        <time>2020-10-18T11:43:34.000Z</time>
      </trkpt>
      <trkpt lat="48.29033" lon="-3.45993">
        <ele>183.39999389648</ele>
        <time>2020-10-18T11:43:35.000Z</time>
      </trkpt>
      <trkpt lat="48.2903" lon="-3.46003">
        <ele>183.60000610352</ele>
        <time>2020-10-18T11:43:36.000Z</time>
      </trkpt>
      <trkpt lat="48.2903" lon="-3.46003">
        <ele>183.60000610352</ele>
        <time>2020-10-18T11:43:37.000Z</time>
      </trkpt>
      <trkpt lat="48.29029" lon="-3.46008">
        <ele>183.60000610352</ele>
        <time>2020-10-18T11:43:38.000Z</time>
      </trkpt>
      <trkpt lat="48.29027" lon="-3.46016">
        <ele>183.60000610352</ele>
        <time>2020-10-18T11:43:39.000Z</time>
      </trkpt>
      <trkpt lat="48.29027" lon="-3.46016">
        <ele>183.60000610352</ele>
        <time>2020-10-18T11:43:40.000Z</time>
      </trkpt>
      <trkpt lat="48.29026" lon="-3.46019">
        <ele>183.80000305176</ele>
        <time>2020-10-18T11:43:41.000Z</time>
      </trkpt>
      <trkpt lat="48.29025" lon="-3.46026">
        <ele>184</ele>
        <time>2020-10-18T11:43:42.000Z</time>
      </trkpt>
      <trkpt lat="48.29025" lon="-3.46026">
        <ele>184</ele>
        <time>2020-10-18T11:43:43.000Z</time>
      </trkpt>
      <trkpt lat="48.29025" lon="-3.4603">
        <ele>184</ele>
        <time>2020-10-18T11:43:44.000Z</time>
      </trkpt>
      <trkpt lat="48.29024" lon="-3.4604">
        <ele>184.39999389648</ele>
        <time>2020-10-18T11:43:45.000Z</time>
      </trkpt>
      <trkpt lat="48.29024" lon="-3.4604">
        <ele>184.39999389648</ele>
        <time>2020-10-18T11:43:46.000Z</time>
      </trkpt>
      <trkpt lat="48.29024" lon="-3.46045">
        <ele>184.39999389648</ele>
        <time>2020-10-18T11:43:47.000Z</time>
      </trkpt>
      <trkpt lat="48.29023" lon="-3.46056">
        <ele>184.80000305176</ele>
        <time>2020-10-18T11:43:48.000Z</time>
      </trkpt>
      <trkpt lat="48.29023" lon="-3.46056">
        <ele>184.80000305176</ele>
        <time>2020-10-18T11:43:49.000Z</time>
      </trkpt>
      <trkpt lat="48.29022" lon="-3.46066">
        <ele>185</ele>
        <time>2020-10-18T11:43:50.000Z</time>
      </trkpt>
      <trkpt lat="48.29022" lon="-3.46066">
        <ele>185</ele>
        <time>2020-10-18T11:43:51.000Z</time>
      </trkpt>
      <trkpt lat="48.29022" lon="-3.46071">
        <ele>185.19999694824</ele>
        <time>2020-10-18T11:43:52.000Z</time>
      </trkpt>
      <trkpt lat="48.29022" lon="-3.46082">
        <ele>185.39999389648</ele>
        <time>2020-10-18T11:43:53.000Z</time>
      </trkpt>
      <trkpt lat="48.29022" lon="-3.46082">
        <ele>185.39999389648</ele>
        <time>2020-10-18T11:43:54.000Z</time>
      </trkpt>
      <trkpt lat="48.29021" lon="-3.46088">
        <ele>185.60000610352</ele>
        <time>2020-10-18T11:43:55.000Z</time>
      </trkpt>
      <trkpt lat="48.2902" lon="-3.46099">
        <ele>185.60000610352</ele>
        <time>2020-10-18T11:43:56.000Z</time>
      </trkpt>
      <trkpt lat="48.2902" lon="-3.46099">
        <ele>185.60000610352</ele>
        <time>2020-10-18T11:43:57.000Z</time>
      </trkpt>
      <trkpt lat="48.2902" lon="-3.46105">
        <ele>185.60000610352</ele>
        <time>2020-10-18T11:43:58.000Z</time>
      </trkpt>
      <trkpt lat="48.29019" lon="-3.46117">
        <ele>185.80000305176</ele>
        <time>2020-10-18T11:43:59.000Z</time>
      </trkpt>
      <trkpt lat="48.29019" lon="-3.46117">
        <ele>185.80000305176</ele>
        <time>2020-10-18T11:44:00.000Z</time>
      </trkpt>
      <trkpt lat="48.29018" lon="-3.46128">
        <ele>185.80000305176</ele>
        <time>2020-10-18T11:44:01.000Z</time>
      </trkpt>
      <trkpt lat="48.29018" lon="-3.46128">
        <ele>185.80000305176</ele>
        <time>2020-10-18T11:44:02.000Z</time>
      </trkpt>
      <trkpt lat="48.29018" lon="-3.46134">
        <ele>185.80000305176</ele>
        <time>2020-10-18T11:44:03.000Z</time>
      </trkpt>
      <trkpt lat="48.29016" lon="-3.46146">
        <ele>185.80000305176</ele>
        <time>2020-10-18T11:44:04.000Z</time>
      </trkpt>
      <trkpt lat="48.29016" lon="-3.46146">
        <ele>185.80000305176</ele>
        <time>2020-10-18T11:44:05.000Z</time>
      </trkpt>
      <trkpt lat="48.29016" lon="-3.46152">
        <ele>185.80000305176</ele>
        <time>2020-10-18T11:44:06.000Z</time>
      </trkpt>
      <trkpt lat="48.29014" lon="-3.46163">
        <ele>186</ele>
        <time>2020-10-18T11:44:07.000Z</time>
      </trkpt>
      <trkpt lat="48.29014" lon="-3.46163">
        <ele>186</ele>
        <time>2020-10-18T11:44:08.000Z</time>
      </trkpt>
      <trkpt lat="48.29013" lon="-3.46168">
        <ele>186</ele>
        <time>2020-10-18T11:44:09.000Z</time>
      </trkpt>
      <trkpt lat="48.29013" lon="-3.46178">
        <ele>186</ele>
        <time>2020-10-18T11:44:10.000Z</time>
      </trkpt>
      <trkpt lat="48.29013" lon="-3.46178">
        <ele>186</ele>
        <time>2020-10-18T11:44:11.000Z</time>
      </trkpt>
      <trkpt lat="48.29012" lon="-3.46183">
        <ele>186</ele>
        <time>2020-10-18T11:44:12.000Z</time>
      </trkpt>
      <trkpt lat="48.29012" lon="-3.46191">
        <ele>186</ele>
        <time>2020-10-18T11:44:13.000Z</time>
      </trkpt>
      <trkpt lat="48.29012" lon="-3.46191">
        <ele>186</ele>
        <time>2020-10-18T11:44:14.000Z</time>
      </trkpt>
      <trkpt lat="48.29012" lon="-3.46196">
        <ele>186</ele>
        <time>2020-10-18T11:44:15.000Z</time>
      </trkpt>
      <trkpt lat="48.29011" lon="-3.46204">
        <ele>186</ele>
        <time>2020-10-18T11:44:16.000Z</time>
      </trkpt>
      <trkpt lat="48.29011" lon="-3.46204">
        <ele>186</ele>
        <time>2020-10-18T11:44:17.000Z</time>
      </trkpt>
      <trkpt lat="48.29011" lon="-3.46209">
        <ele>186</ele>
        <time>2020-10-18T11:44:18.000Z</time>
      </trkpt>
      <trkpt lat="48.29011" lon="-3.4622">
        <ele>186</ele>
        <time>2020-10-18T11:44:19.000Z</time>
      </trkpt>
      <trkpt lat="48.29011" lon="-3.4622">
        <ele>186</ele>
        <time>2020-10-18T11:44:20.000Z</time>
      </trkpt>
      <trkpt lat="48.29011" lon="-3.46226">
        <ele>186</ele>
        <time>2020-10-18T11:44:21.000Z</time>
      </trkpt>
      <trkpt lat="48.29012" lon="-3.46238">
        <ele>186</ele>
        <time>2020-10-18T11:44:22.000Z</time>
      </trkpt>
      <trkpt lat="48.29012" lon="-3.46238">
        <ele>186</ele>
        <time>2020-10-18T11:44:23.000Z</time>
      </trkpt>
      <trkpt lat="48.29012" lon="-3.46244">
        <ele>186</ele>
        <time>2020-10-18T11:44:24.000Z</time>
      </trkpt>
      <trkpt lat="48.29013" lon="-3.46256">
        <ele>186</ele>
        <time>2020-10-18T11:44:25.000Z</time>
      </trkpt>
      <trkpt lat="48.29013" lon="-3.46262">
        <ele>186</ele>
        <time>2020-10-18T11:44:26.000Z</time>
      </trkpt>
      <trkpt lat="48.29013" lon="-3.46262">
        <ele>186</ele>
        <time>2020-10-18T11:44:27.000Z</time>
      </trkpt>
      <trkpt lat="48.29014" lon="-3.46267">
        <ele>186</ele>
        <time>2020-10-18T11:44:28.000Z</time>
      </trkpt>
      <trkpt lat="48.29016" lon="-3.46279">
        <ele>186.19999694824</ele>
        <time>2020-10-18T11:44:29.000Z</time>
      </trkpt>
      <trkpt lat="48.29016" lon="-3.46279">
        <ele>186.19999694824</ele>
        <time>2020-10-18T11:44:30.000Z</time>
      </trkpt>
      <trkpt lat="48.29017" lon="-3.46285">
        <ele>186.39999389648</ele>
        <time>2020-10-18T11:44:31.000Z</time>
      </trkpt>
      <trkpt lat="48.29019" lon="-3.46298">
        <ele>186.60000610352</ele>
        <time>2020-10-18T11:44:32.000Z</time>
      </trkpt>
      <trkpt lat="48.29019" lon="-3.46298">
        <ele>186.60000610352</ele>
        <time>2020-10-18T11:44:33.000Z</time>
      </trkpt>
      <trkpt lat="48.2902" lon="-3.46304">
        <ele>186.80000305176</ele>
        <time>2020-10-18T11:44:34.000Z</time>
      </trkpt>
      <trkpt lat="48.29021" lon="-3.46316">
        <ele>187</ele>
        <time>2020-10-18T11:44:35.000Z</time>
      </trkpt>
      <trkpt lat="48.29021" lon="-3.46316">
        <ele>187</ele>
        <time>2020-10-18T11:44:36.000Z</time>
      </trkpt>
      <trkpt lat="48.29022" lon="-3.46322">
        <ele>187.19999694824</ele>
        <time>2020-10-18T11:44:37.000Z</time>
      </trkpt>
      <trkpt lat="48.29024" lon="-3.46335">
        <ele>187.39999389648</ele>
        <time>2020-10-18T11:44:38.000Z</time>
      </trkpt>
      <trkpt lat="48.29024" lon="-3.46335">
        <ele>187.39999389648</ele>
        <time>2020-10-18T11:44:39.000Z</time>
      </trkpt>
      <trkpt lat="48.29025" lon="-3.46341">
        <ele>187.39999389648</ele>
        <time>2020-10-18T11:44:40.000Z</time>
      </trkpt>
      <trkpt lat="48.29026" lon="-3.46353">
        <ele>187.60000610352</ele>
        <time>2020-10-18T11:44:41.000Z</time>
      </trkpt>
      <trkpt lat="48.29026" lon="-3.46353">
        <ele>187.60000610352</ele>
        <time>2020-10-18T11:44:42.000Z</time>
      </trkpt>
      <trkpt lat="48.29027" lon="-3.46359">
        <ele>187.80000305176</ele>
        <time>2020-10-18T11:44:43.000Z</time>
      </trkpt>
      <trkpt lat="48.29029" lon="-3.4637">
        <ele>188</ele>
        <time>2020-10-18T11:44:44.000Z</time>
      </trkpt>
      <trkpt lat="48.29029" lon="-3.4637">
        <ele>188</ele>
        <time>2020-10-18T11:44:45.000Z</time>
      </trkpt>
      <trkpt lat="48.2903" lon="-3.46376">
        <ele>188</ele>
        <time>2020-10-18T11:44:46.000Z</time>
      </trkpt>
      <trkpt lat="48.29031" lon="-3.46382">
        <ele>188.19999694824</ele>
        <time>2020-10-18T11:44:47.000Z</time>
      </trkpt>
      <trkpt lat="48.29032" lon="-3.46388">
        <ele>188.19999694824</ele>
        <time>2020-10-18T11:44:48.000Z</time>
      </trkpt>
      <trkpt lat="48.29035" lon="-3.46399">
        <ele>188.39999389648</ele>
        <time>2020-10-18T11:44:49.000Z</time>
      </trkpt>
      <trkpt lat="48.29035" lon="-3.46399">
        <ele>188.39999389648</ele>
        <time>2020-10-18T11:44:50.000Z</time>
      </trkpt>
      <trkpt lat="48.29037" lon="-3.4641">
        <ele>188.60000610352</ele>
        <time>2020-10-18T11:44:51.000Z</time>
      </trkpt>
      <trkpt lat="48.29037" lon="-3.4641">
        <ele>188.60000610352</ele>
        <time>2020-10-18T11:44:52.000Z</time>
      </trkpt>
      <trkpt lat="48.29038" lon="-3.46416">
        <ele>188.80000305176</ele>
        <time>2020-10-18T11:44:53.000Z</time>
      </trkpt>
      <trkpt lat="48.2904" lon="-3.46427">
        <ele>189</ele>
        <time>2020-10-18T11:44:54.000Z</time>
      </trkpt>
      <trkpt lat="48.2904" lon="-3.46427">
        <ele>189</ele>
        <time>2020-10-18T11:44:55.000Z</time>
      </trkpt>
      <trkpt lat="48.29041" lon="-3.46433">
        <ele>189</ele>
        <time>2020-10-18T11:44:56.000Z</time>
      </trkpt>
      <trkpt lat="48.29042" lon="-3.46445">
        <ele>189</ele>
        <time>2020-10-18T11:44:57.000Z</time>
      </trkpt>
      <trkpt lat="48.29042" lon="-3.46445">
        <ele>189</ele>
        <time>2020-10-18T11:44:58.000Z</time>
      </trkpt>
      <trkpt lat="48.29043" lon="-3.46451">
        <ele>189.19999694824</ele>
        <time>2020-10-18T11:44:59.000Z</time>
      </trkpt>
      <trkpt lat="48.29045" lon="-3.46462">
        <ele>189.19999694824</ele>
        <time>2020-10-18T11:45:00.000Z</time>
      </trkpt>
      <trkpt lat="48.29045" lon="-3.46462">
        <ele>189.19999694824</ele>
        <time>2020-10-18T11:45:01.000Z</time>
      </trkpt>
      <trkpt lat="48.29046" lon="-3.46468">
        <ele>189.19999694824</ele>
        <time>2020-10-18T11:45:02.000Z</time>
      </trkpt>
      <trkpt lat="48.29048" lon="-3.46481">
        <ele>189.39999389648</ele>
        <time>2020-10-18T11:45:03.000Z</time>
      </trkpt>
      <trkpt lat="48.29048" lon="-3.46481">
        <ele>189.39999389648</ele>
        <time>2020-10-18T11:45:04.000Z</time>
      </trkpt>
      <trkpt lat="48.29048" lon="-3.46488">
        <ele>189.39999389648</ele>
        <time>2020-10-18T11:45:05.000Z</time>
      </trkpt>
      <trkpt lat="48.2905" lon="-3.46501">
        <ele>189.60000610352</ele>
        <time>2020-10-18T11:45:06.000Z</time>
      </trkpt>
      <trkpt lat="48.2905" lon="-3.46501">
        <ele>189.60000610352</ele>
        <time>2020-10-18T11:45:07.000Z</time>
      </trkpt>
      <trkpt lat="48.29051" lon="-3.46507">
        <ele>189.60000610352</ele>
        <time>2020-10-18T11:45:08.000Z</time>
      </trkpt>
      <trkpt lat="48.29053" lon="-3.4652">
        <ele>189.60000610352</ele>
        <time>2020-10-18T11:45:09.000Z</time>
      </trkpt>
      <trkpt lat="48.29053" lon="-3.4652">
        <ele>189.60000610352</ele>
        <time>2020-10-18T11:45:10.000Z</time>
      </trkpt>
      <trkpt lat="48.29054" lon="-3.46527">
        <ele>189.60000610352</ele>
        <time>2020-10-18T11:45:11.000Z</time>
      </trkpt>
      <trkpt lat="48.29055" lon="-3.46539">
        <ele>189.39999389648</ele>
        <time>2020-10-18T11:45:12.000Z</time>
      </trkpt>
      <trkpt lat="48.29055" lon="-3.46539">
        <ele>189.39999389648</ele>
        <time>2020-10-18T11:45:13.000Z</time>
      </trkpt>
      <trkpt lat="48.29057" lon="-3.46546">
        <ele>189.39999389648</ele>
        <time>2020-10-18T11:45:14.000Z</time>
      </trkpt>
      <trkpt lat="48.29059" lon="-3.46558">
        <ele>189.39999389648</ele>
        <time>2020-10-18T11:45:15.000Z</time>
      </trkpt>
      <trkpt lat="48.29059" lon="-3.46558">
        <ele>189.39999389648</ele>
        <time>2020-10-18T11:45:16.000Z</time>
      </trkpt>
      <trkpt lat="48.2906" lon="-3.46564">
        <ele>189.39999389648</ele>
        <time>2020-10-18T11:45:17.000Z</time>
      </trkpt>
      <trkpt lat="48.29061" lon="-3.46576">
        <ele>189.19999694824</ele>
        <time>2020-10-18T11:45:18.000Z</time>
      </trkpt>
      <trkpt lat="48.29061" lon="-3.46576">
        <ele>189.19999694824</ele>
        <time>2020-10-18T11:45:19.000Z</time>
      </trkpt>
      <trkpt lat="48.29062" lon="-3.46582">
        <ele>189.19999694824</ele>
        <time>2020-10-18T11:45:20.000Z</time>
      </trkpt>
      <trkpt lat="48.29064" lon="-3.46594">
        <ele>189.19999694824</ele>
        <time>2020-10-18T11:45:21.000Z</time>
      </trkpt>
      <trkpt lat="48.29064" lon="-3.46594">
        <ele>189.19999694824</ele>
        <time>2020-10-18T11:45:22.000Z</time>
      </trkpt>
      <trkpt lat="48.29065" lon="-3.466">
        <ele>189.19999694824</ele>
        <time>2020-10-18T11:45:23.000Z</time>
      </trkpt>
      <trkpt lat="48.29067" lon="-3.46613">
        <ele>189.19999694824</ele>
        <time>2020-10-18T11:45:24.000Z</time>
      </trkpt>
      <trkpt lat="48.29068" lon="-3.46619">
        <ele>189.19999694824</ele>
        <time>2020-10-18T11:45:25.000Z</time>
      </trkpt>
      <trkpt lat="48.29068" lon="-3.46619">
        <ele>189.19999694824</ele>
        <time>2020-10-18T11:45:26.000Z</time>
      </trkpt>
      <trkpt lat="48.29069" lon="-3.46626">
        <ele>189.39999389648</ele>
        <time>2020-10-18T11:45:27.000Z</time>
      </trkpt>
      <trkpt lat="48.2907" lon="-3.46638">
        <ele>189.60000610352</ele>
        <time>2020-10-18T11:45:28.000Z</time>
      </trkpt>
      <trkpt lat="48.2907" lon="-3.46638">
        <ele>189.60000610352</ele>
        <time>2020-10-18T11:45:29.000Z</time>
      </trkpt>
      <trkpt lat="48.29071" lon="-3.46644">
        <ele>189.60000610352</ele>
        <time>2020-10-18T11:45:30.000Z</time>
      </trkpt>
      <trkpt lat="48.29072" lon="-3.46656">
        <ele>190</ele>
        <time>2020-10-18T11:45:31.000Z</time>
      </trkpt>
      <trkpt lat="48.29072" lon="-3.46656">
        <ele>190</ele>
        <time>2020-10-18T11:45:32.000Z</time>
      </trkpt>
      <trkpt lat="48.29072" lon="-3.46662">
        <ele>190</ele>
        <time>2020-10-18T11:45:33.000Z</time>
      </trkpt>
      <trkpt lat="48.29073" lon="-3.46674">
        <ele>190.39999389648</ele>
        <time>2020-10-18T11:45:34.000Z</time>
      </trkpt>
      <trkpt lat="48.29073" lon="-3.46674">
        <ele>190.39999389648</ele>
        <time>2020-10-18T11:45:35.000Z</time>
      </trkpt>
      <trkpt lat="48.29073" lon="-3.46679">
        <ele>190.39999389648</ele>
        <time>2020-10-18T11:45:36.000Z</time>
      </trkpt>
      <trkpt lat="48.29073" lon="-3.46691">
        <ele>190.60000610352</ele>
        <time>2020-10-18T11:45:37.000Z</time>
      </trkpt>
      <trkpt lat="48.29073" lon="-3.46691">
        <ele>190.60000610352</ele>
        <time>2020-10-18T11:45:38.000Z</time>
      </trkpt>
      <trkpt lat="48.29074" lon="-3.46697">
        <ele>190.80000305176</ele>
        <time>2020-10-18T11:45:39.000Z</time>
      </trkpt>
      <trkpt lat="48.29073" lon="-3.4671">
        <ele>190.80000305176</ele>
        <time>2020-10-18T11:45:40.000Z</time>
      </trkpt>
      <trkpt lat="48.29073" lon="-3.4671">
        <ele>190.80000305176</ele>
        <time>2020-10-18T11:45:41.000Z</time>
      </trkpt>
      <trkpt lat="48.29073" lon="-3.46717">
        <ele>191</ele>
        <time>2020-10-18T11:45:42.000Z</time>
      </trkpt>
      <trkpt lat="48.29073" lon="-3.4673">
        <ele>191.19999694824</ele>
        <time>2020-10-18T11:45:43.000Z</time>
      </trkpt>
      <trkpt lat="48.29073" lon="-3.4673">
        <ele>191.19999694824</ele>
        <time>2020-10-18T11:45:44.000Z</time>
      </trkpt>
      <trkpt lat="48.29073" lon="-3.46736">
        <ele>191.19999694824</ele>
        <time>2020-10-18T11:45:45.000Z</time>
      </trkpt>
      <trkpt lat="48.29072" lon="-3.46749">
        <ele>191.39999389648</ele>
        <time>2020-10-18T11:45:46.000Z</time>
      </trkpt>
      <trkpt lat="48.29071" lon="-3.46756">
        <ele>191.39999389648</ele>
        <time>2020-10-18T11:45:47.000Z</time>
      </trkpt>
      <trkpt lat="48.2907" lon="-3.46762">
        <ele>191.60000610352</ele>
        <time>2020-10-18T11:45:48.000Z</time>
      </trkpt>
      <trkpt lat="48.2907" lon="-3.46762">
        <ele>191.60000610352</ele>
        <time>2020-10-18T11:45:49.000Z</time>
      </trkpt>
      <trkpt lat="48.29069" lon="-3.46768">
        <ele>191.60000610352</ele>
        <time>2020-10-18T11:45:50.000Z</time>
      </trkpt>
      <trkpt lat="48.29067" lon="-3.4678">
        <ele>191.60000610352</ele>
        <time>2020-10-18T11:45:51.000Z</time>
      </trkpt>
      <trkpt lat="48.29067" lon="-3.4678">
        <ele>191.60000610352</ele>
        <time>2020-10-18T11:45:52.000Z</time>
      </trkpt>
      <trkpt lat="48.29067" lon="-3.46787">
        <ele>191.39999389648</ele>
        <time>2020-10-18T11:45:53.000Z</time>
      </trkpt>
      <trkpt lat="48.29066" lon="-3.468">
        <ele>191.39999389648</ele>
        <time>2020-10-18T11:45:54.000Z</time>
      </trkpt>
      <trkpt lat="48.29066" lon="-3.468">
        <ele>191.39999389648</ele>
        <time>2020-10-18T11:45:55.000Z</time>
      </trkpt>
      <trkpt lat="48.29066" lon="-3.46808">
        <ele>191.39999389648</ele>
        <time>2020-10-18T11:45:56.000Z</time>
      </trkpt>
      <trkpt lat="48.29064" lon="-3.46822">
        <ele>191.39999389648</ele>
        <time>2020-10-18T11:45:57.000Z</time>
      </trkpt>
      <trkpt lat="48.29064" lon="-3.46822">
        <ele>191.39999389648</ele>
        <time>2020-10-18T11:45:58.000Z</time>
      </trkpt>
      <trkpt lat="48.29064" lon="-3.46829">
        <ele>191.39999389648</ele>
        <time>2020-10-18T11:45:59.000Z</time>
      </trkpt>
      <trkpt lat="48.29064" lon="-3.46843">
        <ele>191.39999389648</ele>
        <time>2020-10-18T11:46:00.000Z</time>
      </trkpt>
      <trkpt lat="48.29064" lon="-3.46843">
        <ele>191.39999389648</ele>
        <time>2020-10-18T11:46:01.000Z</time>
      </trkpt>
      <trkpt lat="48.29064" lon="-3.4685">
        <ele>191.39999389648</ele>
        <time>2020-10-18T11:46:02.000Z</time>
      </trkpt>
      <trkpt lat="48.29063" lon="-3.46865">
        <ele>191.39999389648</ele>
        <time>2020-10-18T11:46:03.000Z</time>
      </trkpt>
      <trkpt lat="48.29063" lon="-3.46873">
        <ele>191.39999389648</ele>
        <time>2020-10-18T11:46:04.000Z</time>
      </trkpt>
      <trkpt lat="48.29063" lon="-3.46873">
        <ele>191.39999389648</ele>
        <time>2020-10-18T11:46:05.000Z</time>
      </trkpt>
      <trkpt lat="48.29063" lon="-3.4688">
        <ele>191.39999389648</ele>
        <time>2020-10-18T11:46:06.000Z</time>
      </trkpt>
      <trkpt lat="48.29062" lon="-3.46895">
        <ele>191.39999389648</ele>
        <time>2020-10-18T11:46:07.000Z</time>
      </trkpt>
      <trkpt lat="48.29062" lon="-3.46895">
        <ele>191.39999389648</ele>
        <time>2020-10-18T11:46:08.000Z</time>
      </trkpt>
      <trkpt lat="48.29061" lon="-3.46903">
        <ele>191.39999389648</ele>
        <time>2020-10-18T11:46:09.000Z</time>
      </trkpt>
      <trkpt lat="48.2906" lon="-3.46917">
        <ele>191.39999389648</ele>
        <time>2020-10-18T11:46:10.000Z</time>
      </trkpt>
      <trkpt lat="48.2906" lon="-3.46917">
        <ele>191.39999389648</ele>
        <time>2020-10-18T11:46:11.000Z</time>
      </trkpt>
      <trkpt lat="48.29059" lon="-3.46925">
        <ele>191.39999389648</ele>
        <time>2020-10-18T11:46:12.000Z</time>
      </trkpt>
      <trkpt lat="48.29059" lon="-3.46939">
        <ele>191.39999389648</ele>
        <time>2020-10-18T11:46:13.000Z</time>
      </trkpt>
      <trkpt lat="48.29059" lon="-3.46939">
        <ele>191.39999389648</ele>
        <time>2020-10-18T11:46:14.000Z</time>
      </trkpt>
      <trkpt lat="48.29058" lon="-3.46947">
        <ele>191.19999694824</ele>
        <time>2020-10-18T11:46:15.000Z</time>
      </trkpt>
      <trkpt lat="48.29058" lon="-3.46962">
        <ele>191.19999694824</ele>
        <time>2020-10-18T11:46:16.000Z</time>
      </trkpt>
      <trkpt lat="48.29058" lon="-3.46962">
        <ele>191.19999694824</ele>
        <time>2020-10-18T11:46:17.000Z</time>
      </trkpt>
      <trkpt lat="48.29058" lon="-3.4697">
        <ele>191</ele>
        <time>2020-10-18T11:46:18.000Z</time>
      </trkpt>
      <trkpt lat="48.29057" lon="-3.46986">
        <ele>191</ele>
        <time>2020-10-18T11:46:19.000Z</time>
      </trkpt>
      <trkpt lat="48.29057" lon="-3.46986">
        <ele>191</ele>
        <time>2020-10-18T11:46:20.000Z</time>
      </trkpt>
      <trkpt lat="48.29056" lon="-3.46993">
        <ele>191</ele>
        <time>2020-10-18T11:46:21.000Z</time>
      </trkpt>
      <trkpt lat="48.29055" lon="-3.47009">
        <ele>191</ele>
        <time>2020-10-18T11:46:22.000Z</time>
      </trkpt>
      <trkpt lat="48.29055" lon="-3.47009">
        <ele>191</ele>
        <time>2020-10-18T11:46:23.000Z</time>
      </trkpt>
      <trkpt lat="48.29055" lon="-3.47017">
        <ele>191</ele>
        <time>2020-10-18T11:46:24.000Z</time>
      </trkpt>
      <trkpt lat="48.29054" lon="-3.47032">
        <ele>190.80000305176</ele>
        <time>2020-10-18T11:46:25.000Z</time>
      </trkpt>
      <trkpt lat="48.29054" lon="-3.47032">
        <ele>190.80000305176</ele>
        <time>2020-10-18T11:46:26.000Z</time>
      </trkpt>
      <trkpt lat="48.29053" lon="-3.47039">
        <ele>190.80000305176</ele>
        <time>2020-10-18T11:46:27.000Z</time>
      </trkpt>
      <trkpt lat="48.29053" lon="-3.47054">
        <ele>190.60000610352</ele>
        <time>2020-10-18T11:46:28.000Z</time>
      </trkpt>
      <trkpt lat="48.29053" lon="-3.47054">
        <ele>190.60000610352</ele>
        <time>2020-10-18T11:46:29.000Z</time>
      </trkpt>
      <trkpt lat="48.29052" lon="-3.47061">
        <ele>190.39999389648</ele>
        <time>2020-10-18T11:46:30.000Z</time>
      </trkpt>
      <trkpt lat="48.29051" lon="-3.47074">
        <ele>190.39999389648</ele>
        <time>2020-10-18T11:46:31.000Z</time>
      </trkpt>
      <trkpt lat="48.29051" lon="-3.47074">
        <ele>190.39999389648</ele>
        <time>2020-10-18T11:46:32.000Z</time>
      </trkpt>
      <trkpt lat="48.29051" lon="-3.47081">
        <ele>190.19999694824</ele>
        <time>2020-10-18T11:46:33.000Z</time>
      </trkpt>
      <trkpt lat="48.29051" lon="-3.47093">
        <ele>190</ele>
        <time>2020-10-18T11:46:34.000Z</time>
      </trkpt>
      <trkpt lat="48.29051" lon="-3.47093">
        <ele>190</ele>
        <time>2020-10-18T11:46:35.000Z</time>
      </trkpt>
      <trkpt lat="48.29051" lon="-3.47099">
        <ele>190</ele>
        <time>2020-10-18T11:46:36.000Z</time>
      </trkpt>
      <trkpt lat="48.29052" lon="-3.4711">
        <ele>190</ele>
        <time>2020-10-18T11:46:37.000Z</time>
      </trkpt>
      <trkpt lat="48.29052" lon="-3.4711">
        <ele>190</ele>
        <time>2020-10-18T11:46:38.000Z</time>
      </trkpt>
      <trkpt lat="48.29052" lon="-3.47115">
        <ele>190</ele>
        <time>2020-10-18T11:46:39.000Z</time>
      </trkpt>
      <trkpt lat="48.29052" lon="-3.47125">
        <ele>190</ele>
        <time>2020-10-18T11:46:40.000Z</time>
      </trkpt>
      <trkpt lat="48.29052" lon="-3.47125">
        <ele>190</ele>
        <time>2020-10-18T11:46:41.000Z</time>
      </trkpt>
      <trkpt lat="48.29052" lon="-3.47129">
        <ele>190</ele>
        <time>2020-10-18T11:46:42.000Z</time>
      </trkpt>
      <trkpt lat="48.29052" lon="-3.47141">
        <ele>190</ele>
        <time>2020-10-18T11:46:43.000Z</time>
      </trkpt>
      <trkpt lat="48.29052" lon="-3.47148">
        <ele>190</ele>
        <time>2020-10-18T11:46:44.000Z</time>
      </trkpt>
      <trkpt lat="48.29052" lon="-3.47148">
        <ele>190</ele>
        <time>2020-10-18T11:46:45.000Z</time>
      </trkpt>
      <trkpt lat="48.29053" lon="-3.47155">
        <ele>189.80000305176</ele>
        <time>2020-10-18T11:46:46.000Z</time>
      </trkpt>
      <trkpt lat="48.29053" lon="-3.47161">
        <ele>189.80000305176</ele>
        <time>2020-10-18T11:46:47.000Z</time>
      </trkpt>
      <trkpt lat="48.29053" lon="-3.47167">
        <ele>189.80000305176</ele>
        <time>2020-10-18T11:46:48.000Z</time>
      </trkpt>
      <trkpt lat="48.29054" lon="-3.4718">
        <ele>189.60000610352</ele>
        <time>2020-10-18T11:46:49.000Z</time>
      </trkpt>
      <trkpt lat="48.29054" lon="-3.4718">
        <ele>189.60000610352</ele>
        <time>2020-10-18T11:46:50.000Z</time>
      </trkpt>
      <trkpt lat="48.29054" lon="-3.47188">
        <ele>189.60000610352</ele>
        <time>2020-10-18T11:46:51.000Z</time>
      </trkpt>
      <trkpt lat="48.29054" lon="-3.47203">
        <ele>189.60000610352</ele>
        <time>2020-10-18T11:46:52.000Z</time>
      </trkpt>
      <trkpt lat="48.29054" lon="-3.47203">
        <ele>189.60000610352</ele>
        <time>2020-10-18T11:46:53.000Z</time>
      </trkpt>
      <trkpt lat="48.29054" lon="-3.4721">
        <ele>189.60000610352</ele>
        <time>2020-10-18T11:46:54.000Z</time>
      </trkpt>
      <trkpt lat="48.29053" lon="-3.47226">
        <ele>189.60000610352</ele>
        <time>2020-10-18T11:46:55.000Z</time>
      </trkpt>
      <trkpt lat="48.29053" lon="-3.47226">
        <ele>189.60000610352</ele>
        <time>2020-10-18T11:46:56.000Z</time>
      </trkpt>
      <trkpt lat="48.29053" lon="-3.47234">
        <ele>189.60000610352</ele>
        <time>2020-10-18T11:46:57.000Z</time>
      </trkpt>
      <trkpt lat="48.29054" lon="-3.47251">
        <ele>189.60000610352</ele>
        <time>2020-10-18T11:46:58.000Z</time>
      </trkpt>
      <trkpt lat="48.29054" lon="-3.47251">
        <ele>189.60000610352</ele>
        <time>2020-10-18T11:46:59.000Z</time>
      </trkpt>
      <trkpt lat="48.29054" lon="-3.47259">
        <ele>189.60000610352</ele>
        <time>2020-10-18T11:47:00.000Z</time>
      </trkpt>
      <trkpt lat="48.29054" lon="-3.47276">
        <ele>189.39999389648</ele>
        <time>2020-10-18T11:47:01.000Z</time>
      </trkpt>
      <trkpt lat="48.29054" lon="-3.47284">
        <ele>189.19999694824</ele>
        <time>2020-10-18T11:47:02.000Z</time>
      </trkpt>
      <trkpt lat="48.29054" lon="-3.47284">
        <ele>189.19999694824</ele>
        <time>2020-10-18T11:47:03.000Z</time>
      </trkpt>
      <trkpt lat="48.29054" lon="-3.47301">
        <ele>189</ele>
        <time>2020-10-18T11:47:04.000Z</time>
      </trkpt>
      <trkpt lat="48.29054" lon="-3.47301">
        <ele>189</ele>
        <time>2020-10-18T11:47:05.000Z</time>
      </trkpt>
      <trkpt lat="48.29054" lon="-3.47309">
        <ele>189</ele>
        <time>2020-10-18T11:47:06.000Z</time>
      </trkpt>
      <trkpt lat="48.29055" lon="-3.47326">
        <ele>188.80000305176</ele>
        <time>2020-10-18T11:47:07.000Z</time>
      </trkpt>
      <trkpt lat="48.29055" lon="-3.47326">
        <ele>188.80000305176</ele>
        <time>2020-10-18T11:47:08.000Z</time>
      </trkpt>
      <trkpt lat="48.29055" lon="-3.47334">
        <ele>188.60000610352</ele>
        <time>2020-10-18T11:47:09.000Z</time>
      </trkpt>
      <trkpt lat="48.29056" lon="-3.47351">
        <ele>188.39999389648</ele>
        <time>2020-10-18T11:47:10.000Z</time>
      </trkpt>
      <trkpt lat="48.29056" lon="-3.47351">
        <ele>188.39999389648</ele>
        <time>2020-10-18T11:47:11.000Z</time>
      </trkpt>
      <trkpt lat="48.29056" lon="-3.4736">
        <ele>188.39999389648</ele>
        <time>2020-10-18T11:47:12.000Z</time>
      </trkpt>
      <trkpt lat="48.29057" lon="-3.47377">
        <ele>188.19999694824</ele>
        <time>2020-10-18T11:47:13.000Z</time>
      </trkpt>
      <trkpt lat="48.29057" lon="-3.47377">
        <ele>188.19999694824</ele>
        <time>2020-10-18T11:47:14.000Z</time>
      </trkpt>
      <trkpt lat="48.29057" lon="-3.47385">
        <ele>188</ele>
        <time>2020-10-18T11:47:15.000Z</time>
      </trkpt>
      <trkpt lat="48.29057" lon="-3.47401">
        <ele>187.80000305176</ele>
        <time>2020-10-18T11:47:16.000Z</time>
      </trkpt>
      <trkpt lat="48.29057" lon="-3.47401">
        <ele>187.80000305176</ele>
        <time>2020-10-18T11:47:17.000Z</time>
      </trkpt>
      <trkpt lat="48.29057" lon="-3.47408">
        <ele>187.80000305176</ele>
        <time>2020-10-18T11:47:18.000Z</time>
      </trkpt>
      <trkpt lat="48.29057" lon="-3.47424">
        <ele>187.60000610352</ele>
        <time>2020-10-18T11:47:19.000Z</time>
      </trkpt>
      <trkpt lat="48.29057" lon="-3.47424">
        <ele>187.60000610352</ele>
        <time>2020-10-18T11:47:20.000Z</time>
      </trkpt>
      <trkpt lat="48.29057" lon="-3.47432">
        <ele>187.39999389648</ele>
        <time>2020-10-18T11:47:21.000Z</time>
      </trkpt>
      <trkpt lat="48.29058" lon="-3.47447">
        <ele>187</ele>
        <time>2020-10-18T11:47:22.000Z</time>
      </trkpt>
      <trkpt lat="48.29058" lon="-3.47455">
        <ele>186.60000610352</ele>
        <time>2020-10-18T11:47:23.000Z</time>
      </trkpt>
      <trkpt lat="48.29058" lon="-3.47455">
        <ele>186.60000610352</ele>
        <time>2020-10-18T11:47:24.000Z</time>
      </trkpt>
      <trkpt lat="48.29059" lon="-3.47468">
        <ele>186.19999694824</ele>
        <time>2020-10-18T11:47:25.000Z</time>
      </trkpt>
      <trkpt lat="48.29059" lon="-3.47468">
        <ele>186.19999694824</ele>
        <time>2020-10-18T11:47:26.000Z</time>
      </trkpt>
      <trkpt lat="48.29059" lon="-3.47476">
        <ele>186</ele>
        <time>2020-10-18T11:47:27.000Z</time>
      </trkpt>
      <trkpt lat="48.29059" lon="-3.47492">
        <ele>185.60000610352</ele>
        <time>2020-10-18T11:47:28.000Z</time>
      </trkpt>
      <trkpt lat="48.29059" lon="-3.47492">
        <ele>185.60000610352</ele>
        <time>2020-10-18T11:47:29.000Z</time>
      </trkpt>
      <trkpt lat="48.29059" lon="-3.47507">
        <ele>185.19999694824</ele>
        <time>2020-10-18T11:47:30.000Z</time>
      </trkpt>
      <trkpt lat="48.29059" lon="-3.47507">
        <ele>185.19999694824</ele>
        <time>2020-10-18T11:47:31.000Z</time>
      </trkpt>
      <trkpt lat="48.29059" lon="-3.47524">
        <ele>185</ele>
        <time>2020-10-18T11:47:32.000Z</time>
      </trkpt>
      <trkpt lat="48.29059" lon="-3.47524">
        <ele>185</ele>
        <time>2020-10-18T11:47:33.000Z</time>
      </trkpt>
      <trkpt lat="48.29059" lon="-3.47532">
        <ele>184.80000305176</ele>
        <time>2020-10-18T11:47:34.000Z</time>
      </trkpt>
      <trkpt lat="48.29059" lon="-3.47549">
        <ele>184.60000610352</ele>
        <time>2020-10-18T11:47:35.000Z</time>
      </trkpt>
      <trkpt lat="48.29059" lon="-3.47549">
        <ele>184.60000610352</ele>
        <time>2020-10-18T11:47:36.000Z</time>
      </trkpt>
      <trkpt lat="48.29059" lon="-3.47557">
        <ele>184.60000610352</ele>
        <time>2020-10-18T11:47:37.000Z</time>
      </trkpt>
      <trkpt lat="48.29059" lon="-3.47574">
        <ele>184.39999389648</ele>
        <time>2020-10-18T11:47:38.000Z</time>
      </trkpt>
      <trkpt lat="48.29059" lon="-3.47574">
        <ele>184.39999389648</ele>
        <time>2020-10-18T11:47:39.000Z</time>
      </trkpt>
      <trkpt lat="48.29059" lon="-3.47583">
        <ele>184.19999694824</ele>
        <time>2020-10-18T11:47:40.000Z</time>
      </trkpt>
      <trkpt lat="48.29059" lon="-3.476">
        <ele>184</ele>
        <time>2020-10-18T11:47:41.000Z</time>
      </trkpt>
      <trkpt lat="48.29059" lon="-3.476">
        <ele>184</ele>
        <time>2020-10-18T11:47:42.000Z</time>
      </trkpt>
      <trkpt lat="48.29058" lon="-3.47609">
        <ele>183.80000305176</ele>
        <time>2020-10-18T11:47:43.000Z</time>
      </trkpt>
      <trkpt lat="48.29058" lon="-3.47627">
        <ele>183.60000610352</ele>
        <time>2020-10-18T11:47:44.000Z</time>
      </trkpt>
      <trkpt lat="48.29058" lon="-3.47627">
        <ele>183.60000610352</ele>
        <time>2020-10-18T11:47:45.000Z</time>
      </trkpt>
      <trkpt lat="48.29058" lon="-3.47635">
        <ele>183.60000610352</ele>
        <time>2020-10-18T11:47:46.000Z</time>
      </trkpt>
      <trkpt lat="48.29058" lon="-3.47651">
        <ele>183.80000305176</ele>
        <time>2020-10-18T11:47:47.000Z</time>
      </trkpt>
      <trkpt lat="48.29058" lon="-3.47651">
        <ele>183.80000305176</ele>
        <time>2020-10-18T11:47:48.000Z</time>
      </trkpt>
      <trkpt lat="48.29058" lon="-3.47668">
        <ele>184</ele>
        <time>2020-10-18T11:47:49.000Z</time>
      </trkpt>
      <trkpt lat="48.29058" lon="-3.47668">
        <ele>184</ele>
        <time>2020-10-18T11:47:50.000Z</time>
      </trkpt>
      <trkpt lat="48.29058" lon="-3.47684">
        <ele>184</ele>
        <time>2020-10-18T11:47:51.000Z</time>
      </trkpt>
      <trkpt lat="48.29058" lon="-3.47684">
        <ele>184</ele>
        <time>2020-10-18T11:47:52.000Z</time>
      </trkpt>
      <trkpt lat="48.29058" lon="-3.47692">
        <ele>184</ele>
        <time>2020-10-18T11:47:53.000Z</time>
      </trkpt>
      <trkpt lat="48.29057" lon="-3.47708">
        <ele>183.80000305176</ele>
        <time>2020-10-18T11:47:54.000Z</time>
      </trkpt>
      <trkpt lat="48.29057" lon="-3.47708">
        <ele>183.80000305176</ele>
        <time>2020-10-18T11:47:55.000Z</time>
      </trkpt>
      <trkpt lat="48.29058" lon="-3.47715">
        <ele>183.60000610352</ele>
        <time>2020-10-18T11:47:56.000Z</time>
      </trkpt>
      <trkpt lat="48.29058" lon="-3.47731">
        <ele>183.39999389648</ele>
        <time>2020-10-18T11:47:57.000Z</time>
      </trkpt>
      <trkpt lat="48.29058" lon="-3.47731">
        <ele>183.39999389648</ele>
        <time>2020-10-18T11:47:58.000Z</time>
      </trkpt>
      <trkpt lat="48.29058" lon="-3.47738">
        <ele>183.19999694824</ele>
        <time>2020-10-18T11:47:59.000Z</time>
      </trkpt>
      <trkpt lat="48.29058" lon="-3.47752">
        <ele>182.80000305176</ele>
        <time>2020-10-18T11:48:00.000Z</time>
      </trkpt>
      <trkpt lat="48.29058" lon="-3.47752">
        <ele>182.80000305176</ele>
        <time>2020-10-18T11:48:01.000Z</time>
      </trkpt>
      <trkpt lat="48.29059" lon="-3.47759">
        <ele>182.80000305176</ele>
        <time>2020-10-18T11:48:02.000Z</time>
      </trkpt>
      <trkpt lat="48.2906" lon="-3.47774">
        <ele>182.39999389648</ele>
        <time>2020-10-18T11:48:03.000Z</time>
      </trkpt>
      <trkpt lat="48.2906" lon="-3.47774">
        <ele>182.39999389648</ele>
        <time>2020-10-18T11:48:04.000Z</time>
      </trkpt>
      <trkpt lat="48.2906" lon="-3.47782">
        <ele>182.19999694824</ele>
        <time>2020-10-18T11:48:05.000Z</time>
      </trkpt>
      <trkpt lat="48.29062" lon="-3.47797">
        <ele>181.80000305176</ele>
        <time>2020-10-18T11:48:06.000Z</time>
      </trkpt>
      <trkpt lat="48.29062" lon="-3.47797">
        <ele>181.80000305176</ele>
        <time>2020-10-18T11:48:07.000Z</time>
      </trkpt>
      <trkpt lat="48.29063" lon="-3.47805">
        <ele>181.60000610352</ele>
        <time>2020-10-18T11:48:08.000Z</time>
      </trkpt>
      <trkpt lat="48.29065" lon="-3.4782">
        <ele>181.39999389648</ele>
        <time>2020-10-18T11:48:09.000Z</time>
      </trkpt>
      <trkpt lat="48.29065" lon="-3.4782">
        <ele>181.39999389648</ele>
        <time>2020-10-18T11:48:10.000Z</time>
      </trkpt>
      <trkpt lat="48.29067" lon="-3.47828">
        <ele>181.19999694824</ele>
        <time>2020-10-18T11:48:11.000Z</time>
      </trkpt>
      <trkpt lat="48.2907" lon="-3.47843">
        <ele>180.80000305176</ele>
        <time>2020-10-18T11:48:12.000Z</time>
      </trkpt>
      <trkpt lat="48.2907" lon="-3.47843">
        <ele>180.80000305176</ele>
        <time>2020-10-18T11:48:13.000Z</time>
      </trkpt>
      <trkpt lat="48.29072" lon="-3.4785">
        <ele>180.60000610352</ele>
        <time>2020-10-18T11:48:14.000Z</time>
      </trkpt>
      <trkpt lat="48.29073" lon="-3.47865">
        <ele>180.60000610352</ele>
        <time>2020-10-18T11:48:15.000Z</time>
      </trkpt>
      <trkpt lat="48.29073" lon="-3.47865">
        <ele>180.60000610352</ele>
        <time>2020-10-18T11:48:16.000Z</time>
      </trkpt>
      <trkpt lat="48.29074" lon="-3.47872">
        <ele>180.39999389648</ele>
        <time>2020-10-18T11:48:17.000Z</time>
      </trkpt>
      <trkpt lat="48.29076" lon="-3.47886">
        <ele>180.19999694824</ele>
        <time>2020-10-18T11:48:18.000Z</time>
      </trkpt>
      <trkpt lat="48.29076" lon="-3.47886">
        <ele>180.19999694824</ele>
        <time>2020-10-18T11:48:19.000Z</time>
      </trkpt>
      <trkpt lat="48.29077" lon="-3.47894">
        <ele>180</ele>
        <time>2020-10-18T11:48:20.000Z</time>
      </trkpt>
      <trkpt lat="48.29079" lon="-3.47909">
        <ele>179.60000610352</ele>
        <time>2020-10-18T11:48:21.000Z</time>
      </trkpt>
      <trkpt lat="48.2908" lon="-3.47918">
        <ele>179.39999389648</ele>
        <time>2020-10-18T11:48:22.000Z</time>
      </trkpt>
      <trkpt lat="48.2908" lon="-3.47918">
        <ele>179.39999389648</ele>
        <time>2020-10-18T11:48:23.000Z</time>
      </trkpt>
      <trkpt lat="48.29081" lon="-3.47926">
        <ele>179.19999694824</ele>
        <time>2020-10-18T11:48:24.000Z</time>
      </trkpt>
      <trkpt lat="48.29084" lon="-3.47941">
        <ele>178.80000305176</ele>
        <time>2020-10-18T11:48:25.000Z</time>
      </trkpt>
      <trkpt lat="48.29084" lon="-3.47941">
        <ele>178.80000305176</ele>
        <time>2020-10-18T11:48:26.000Z</time>
      </trkpt>
      <trkpt lat="48.29085" lon="-3.47949">
        <ele>179</ele>
        <time>2020-10-18T11:48:27.000Z</time>
      </trkpt>
      <trkpt lat="48.29088" lon="-3.47965">
        <ele>179.39999389648</ele>
        <time>2020-10-18T11:48:28.000Z</time>
      </trkpt>
      <trkpt lat="48.29088" lon="-3.47965">
        <ele>179.39999389648</ele>
        <time>2020-10-18T11:48:29.000Z</time>
      </trkpt>
      <trkpt lat="48.2909" lon="-3.47973">
        <ele>179.80000305176</ele>
        <time>2020-10-18T11:48:30.000Z</time>
      </trkpt>
      <trkpt lat="48.29093" lon="-3.47987">
        <ele>180.19999694824</ele>
        <time>2020-10-18T11:48:31.000Z</time>
      </trkpt>
      <trkpt lat="48.29093" lon="-3.47987">
        <ele>180.19999694824</ele>
        <time>2020-10-18T11:48:32.000Z</time>
      </trkpt>
      <trkpt lat="48.29095" lon="-3.47995">
        <ele>180.39999389648</ele>
        <time>2020-10-18T11:48:33.000Z</time>
      </trkpt>
      <trkpt lat="48.29097" lon="-3.48011">
        <ele>180.80000305176</ele>
        <time>2020-10-18T11:48:34.000Z</time>
      </trkpt>
      <trkpt lat="48.29097" lon="-3.48011">
        <ele>180.80000305176</ele>
        <time>2020-10-18T11:48:35.000Z</time>
      </trkpt>
      <trkpt lat="48.29098" lon="-3.48019">
        <ele>181</ele>
        <time>2020-10-18T11:48:36.000Z</time>
      </trkpt>
      <trkpt lat="48.29102" lon="-3.48035">
        <ele>180.80000305176</ele>
        <time>2020-10-18T11:48:37.000Z</time>
      </trkpt>
      <trkpt lat="48.29102" lon="-3.48035">
        <ele>180.80000305176</ele>
        <time>2020-10-18T11:48:38.000Z</time>
      </trkpt>
      <trkpt lat="48.29105" lon="-3.48051">
        <ele>180.60000610352</ele>
        <time>2020-10-18T11:48:39.000Z</time>
      </trkpt>
      <trkpt lat="48.29105" lon="-3.48051">
        <ele>180.60000610352</ele>
        <time>2020-10-18T11:48:40.000Z</time>
      </trkpt>
      <trkpt lat="48.29106" lon="-3.48059">
        <ele>180.60000610352</ele>
        <time>2020-10-18T11:48:41.000Z</time>
      </trkpt>
      <trkpt lat="48.29108" lon="-3.48074">
        <ele>180.39999389648</ele>
        <time>2020-10-18T11:48:42.000Z</time>
      </trkpt>
      <trkpt lat="48.29108" lon="-3.48074">
        <ele>180.39999389648</ele>
        <time>2020-10-18T11:48:43.000Z</time>
      </trkpt>
      <trkpt lat="48.29109" lon="-3.48082">
        <ele>180.39999389648</ele>
        <time>2020-10-18T11:48:44.000Z</time>
      </trkpt>
      <trkpt lat="48.29111" lon="-3.48097">
        <ele>180.19999694824</ele>
        <time>2020-10-18T11:48:45.000Z</time>
      </trkpt>
      <trkpt lat="48.29111" lon="-3.48097">
        <ele>180.19999694824</ele>
        <time>2020-10-18T11:48:46.000Z</time>
      </trkpt>
      <trkpt lat="48.29113" lon="-3.48112">
        <ele>180</ele>
        <time>2020-10-18T11:48:47.000Z</time>
      </trkpt>
      <trkpt lat="48.29113" lon="-3.48112">
        <ele>180</ele>
        <time>2020-10-18T11:48:48.000Z</time>
      </trkpt>
      <trkpt lat="48.29114" lon="-3.48127">
        <ele>180</ele>
        <time>2020-10-18T11:48:49.000Z</time>
      </trkpt>
      <trkpt lat="48.29114" lon="-3.48127">
        <ele>180</ele>
        <time>2020-10-18T11:48:50.000Z</time>
      </trkpt>
      <trkpt lat="48.29115" lon="-3.48134">
        <ele>179.80000305176</ele>
        <time>2020-10-18T11:48:51.000Z</time>
      </trkpt>
      <trkpt lat="48.29117" lon="-3.48149">
        <ele>179.80000305176</ele>
        <time>2020-10-18T11:48:52.000Z</time>
      </trkpt>
      <trkpt lat="48.29117" lon="-3.48149">
        <ele>179.80000305176</ele>
        <time>2020-10-18T11:48:53.000Z</time>
      </trkpt>
      <trkpt lat="48.29118" lon="-3.48155">
        <ele>179.80000305176</ele>
        <time>2020-10-18T11:48:54.000Z</time>
      </trkpt>
      <trkpt lat="48.2912" lon="-3.48168">
        <ele>179.39999389648</ele>
        <time>2020-10-18T11:48:55.000Z</time>
      </trkpt>
      <trkpt lat="48.2912" lon="-3.48168">
        <ele>179.39999389648</ele>
        <time>2020-10-18T11:48:56.000Z</time>
      </trkpt>
      <trkpt lat="48.29121" lon="-3.48174">
        <ele>179.39999389648</ele>
        <time>2020-10-18T11:48:57.000Z</time>
      </trkpt>
      <trkpt lat="48.29123" lon="-3.48186">
        <ele>179.19999694824</ele>
        <time>2020-10-18T11:48:58.000Z</time>
      </trkpt>
      <trkpt lat="48.29123" lon="-3.48186">
        <ele>179.19999694824</ele>
        <time>2020-10-18T11:48:59.000Z</time>
      </trkpt>
      <trkpt lat="48.29124" lon="-3.48192">
        <ele>179</ele>
        <time>2020-10-18T11:49:00.000Z</time>
      </trkpt>
      <trkpt lat="48.29125" lon="-3.48204">
        <ele>179</ele>
        <time>2020-10-18T11:49:01.000Z</time>
      </trkpt>
      <trkpt lat="48.29126" lon="-3.4821">
        <ele>179</ele>
        <time>2020-10-18T11:49:02.000Z</time>
      </trkpt>
      <trkpt lat="48.29126" lon="-3.4821">
        <ele>179</ele>
        <time>2020-10-18T11:49:03.000Z</time>
      </trkpt>
      <trkpt lat="48.29127" lon="-3.48222">
        <ele>178.80000305176</ele>
        <time>2020-10-18T11:49:04.000Z</time>
      </trkpt>
      <trkpt lat="48.29127" lon="-3.48222">
        <ele>178.80000305176</ele>
        <time>2020-10-18T11:49:05.000Z</time>
      </trkpt>
      <trkpt lat="48.29127" lon="-3.48228">
        <ele>178.80000305176</ele>
        <time>2020-10-18T11:49:06.000Z</time>
      </trkpt>
      <trkpt lat="48.29124" lon="-3.48243">
        <ele>179</ele>
        <time>2020-10-18T11:49:07.000Z</time>
      </trkpt>
      <trkpt lat="48.29124" lon="-3.48243">
        <ele>179</ele>
        <time>2020-10-18T11:49:08.000Z</time>
      </trkpt>
      <trkpt lat="48.29123" lon="-3.4825">
        <ele>179</ele>
        <time>2020-10-18T11:49:09.000Z</time>
      </trkpt>
      <trkpt lat="48.29121" lon="-3.48265">
        <ele>179.19999694824</ele>
        <time>2020-10-18T11:49:10.000Z</time>
      </trkpt>
      <trkpt lat="48.29121" lon="-3.48265">
        <ele>179.19999694824</ele>
        <time>2020-10-18T11:49:11.000Z</time>
      </trkpt>
      <trkpt lat="48.29121" lon="-3.48272">
        <ele>179.19999694824</ele>
        <time>2020-10-18T11:49:12.000Z</time>
      </trkpt>
      <trkpt lat="48.29119" lon="-3.48286">
        <ele>179.19999694824</ele>
        <time>2020-10-18T11:49:13.000Z</time>
      </trkpt>
      <trkpt lat="48.29119" lon="-3.48286">
        <ele>179.19999694824</ele>
        <time>2020-10-18T11:49:14.000Z</time>
      </trkpt>
      <trkpt lat="48.29118" lon="-3.48292">
        <ele>179.19999694824</ele>
        <time>2020-10-18T11:49:15.000Z</time>
      </trkpt>
      <trkpt lat="48.29117" lon="-3.48304">
        <ele>179</ele>
        <time>2020-10-18T11:49:16.000Z</time>
      </trkpt>
      <trkpt lat="48.29117" lon="-3.48304">
        <ele>179</ele>
        <time>2020-10-18T11:49:17.000Z</time>
      </trkpt>
      <trkpt lat="48.29117" lon="-3.48309">
        <ele>179</ele>
        <time>2020-10-18T11:49:18.000Z</time>
      </trkpt>
      <trkpt lat="48.29115" lon="-3.48319">
        <ele>179</ele>
        <time>2020-10-18T11:49:19.000Z</time>
      </trkpt>
      <trkpt lat="48.29115" lon="-3.48319">
        <ele>179</ele>
        <time>2020-10-18T11:49:20.000Z</time>
      </trkpt>
      <trkpt lat="48.29115" lon="-3.48324">
        <ele>179</ele>
        <time>2020-10-18T11:49:21.000Z</time>
      </trkpt>
      <trkpt lat="48.29113" lon="-3.48335">
        <ele>179</ele>
        <time>2020-10-18T11:49:22.000Z</time>
      </trkpt>
      <trkpt lat="48.29113" lon="-3.48335">
        <ele>179</ele>
        <time>2020-10-18T11:49:23.000Z</time>
      </trkpt>
      <trkpt lat="48.29113" lon="-3.48342">
        <ele>179</ele>
        <time>2020-10-18T11:49:24.000Z</time>
      </trkpt>
      <trkpt lat="48.29111" lon="-3.48354">
        <ele>179</ele>
        <time>2020-10-18T11:49:25.000Z</time>
      </trkpt>
      <trkpt lat="48.29111" lon="-3.48354">
        <ele>179</ele>
        <time>2020-10-18T11:49:26.000Z</time>
      </trkpt>
      <trkpt lat="48.2911" lon="-3.4836">
        <ele>179</ele>
        <time>2020-10-18T11:49:27.000Z</time>
      </trkpt>
      <trkpt lat="48.29108" lon="-3.48373">
        <ele>179</ele>
        <time>2020-10-18T11:49:28.000Z</time>
      </trkpt>
      <trkpt lat="48.29108" lon="-3.48373">
        <ele>179</ele>
        <time>2020-10-18T11:49:29.000Z</time>
      </trkpt>
      <trkpt lat="48.29106" lon="-3.48386">
        <ele>179</ele>
        <time>2020-10-18T11:49:30.000Z</time>
      </trkpt>
      <trkpt lat="48.29106" lon="-3.48386">
        <ele>179</ele>
        <time>2020-10-18T11:49:31.000Z</time>
      </trkpt>
      <trkpt lat="48.29105" lon="-3.48393">
        <ele>179</ele>
        <time>2020-10-18T11:49:32.000Z</time>
      </trkpt>
      <trkpt lat="48.29104" lon="-3.48407">
        <ele>178.80000305176</ele>
        <time>2020-10-18T11:49:33.000Z</time>
      </trkpt>
      <trkpt lat="48.29104" lon="-3.48407">
        <ele>178.80000305176</ele>
        <time>2020-10-18T11:49:34.000Z</time>
      </trkpt>
      <trkpt lat="48.29104" lon="-3.48414">
        <ele>178.80000305176</ele>
        <time>2020-10-18T11:49:35.000Z</time>
      </trkpt>
      <trkpt lat="48.29102" lon="-3.48428">
        <ele>178.80000305176</ele>
        <time>2020-10-18T11:49:36.000Z</time>
      </trkpt>
      <trkpt lat="48.29102" lon="-3.48428">
        <ele>178.80000305176</ele>
        <time>2020-10-18T11:49:37.000Z</time>
      </trkpt>
      <trkpt lat="48.29102" lon="-3.48436">
        <ele>178.60000610352</ele>
        <time>2020-10-18T11:49:38.000Z</time>
      </trkpt>
      <trkpt lat="48.29101" lon="-3.48451">
        <ele>178.80000305176</ele>
        <time>2020-10-18T11:49:39.000Z</time>
      </trkpt>
      <trkpt lat="48.29101" lon="-3.48451">
        <ele>178.80000305176</ele>
        <time>2020-10-18T11:49:40.000Z</time>
      </trkpt>
      <trkpt lat="48.291" lon="-3.48458">
        <ele>178.80000305176</ele>
        <time>2020-10-18T11:49:41.000Z</time>
      </trkpt>
      <trkpt lat="48.29098" lon="-3.48473">
        <ele>178.80000305176</ele>
        <time>2020-10-18T11:49:42.000Z</time>
      </trkpt>
      <trkpt lat="48.29098" lon="-3.48473">
        <ele>178.80000305176</ele>
        <time>2020-10-18T11:49:43.000Z</time>
      </trkpt>
      <trkpt lat="48.29098" lon="-3.48481">
        <ele>179</ele>
        <time>2020-10-18T11:49:44.000Z</time>
      </trkpt>
      <trkpt lat="48.29096" lon="-3.48496">
        <ele>179</ele>
        <time>2020-10-18T11:49:45.000Z</time>
      </trkpt>
      <trkpt lat="48.29096" lon="-3.48496">
        <ele>179</ele>
        <time>2020-10-18T11:49:46.000Z</time>
      </trkpt>
      <trkpt lat="48.29094" lon="-3.48511">
        <ele>179</ele>
        <time>2020-10-18T11:49:47.000Z</time>
      </trkpt>
      <trkpt lat="48.29094" lon="-3.48511">
        <ele>179</ele>
        <time>2020-10-18T11:49:48.000Z</time>
      </trkpt>
      <trkpt lat="48.29092" lon="-3.48527">
        <ele>179.19999694824</ele>
        <time>2020-10-18T11:49:49.000Z</time>
      </trkpt>
      <trkpt lat="48.29092" lon="-3.48527">
        <ele>179.19999694824</ele>
        <time>2020-10-18T11:49:50.000Z</time>
      </trkpt>
      <trkpt lat="48.29092" lon="-3.48534">
        <ele>179.19999694824</ele>
        <time>2020-10-18T11:49:51.000Z</time>
      </trkpt>
      <trkpt lat="48.2909" lon="-3.48549">
        <ele>179.39999389648</ele>
        <time>2020-10-18T11:49:52.000Z</time>
      </trkpt>
      <trkpt lat="48.2909" lon="-3.48549">
        <ele>179.39999389648</ele>
        <time>2020-10-18T11:49:53.000Z</time>
      </trkpt>
      <trkpt lat="48.29089" lon="-3.48557">
        <ele>179.39999389648</ele>
        <time>2020-10-18T11:49:54.000Z</time>
      </trkpt>
      <trkpt lat="48.29087" lon="-3.48572">
        <ele>179.60000610352</ele>
        <time>2020-10-18T11:49:55.000Z</time>
      </trkpt>
      <trkpt lat="48.29087" lon="-3.48572">
        <ele>179.60000610352</ele>
        <time>2020-10-18T11:49:56.000Z</time>
      </trkpt>
      <trkpt lat="48.29086" lon="-3.48579">
        <ele>179.80000305176</ele>
        <time>2020-10-18T11:49:57.000Z</time>
      </trkpt>
      <trkpt lat="48.29084" lon="-3.48594">
        <ele>180</ele>
        <time>2020-10-18T11:49:58.000Z</time>
      </trkpt>
      <trkpt lat="48.29084" lon="-3.48594">
        <ele>180</ele>
        <time>2020-10-18T11:49:59.000Z</time>
      </trkpt>
      <trkpt lat="48.29083" lon="-3.48608">
        <ele>180</ele>
        <time>2020-10-18T11:50:00.000Z</time>
      </trkpt>
      <trkpt lat="48.29083" lon="-3.48608">
        <ele>180</ele>
        <time>2020-10-18T11:50:01.000Z</time>
      </trkpt>
      <trkpt lat="48.29081" lon="-3.48616">
        <ele>180</ele>
        <time>2020-10-18T11:50:02.000Z</time>
      </trkpt>
      <trkpt lat="48.29079" lon="-3.4863">
        <ele>180.19999694824</ele>
        <time>2020-10-18T11:50:03.000Z</time>
      </trkpt>
      <trkpt lat="48.29079" lon="-3.4863">
        <ele>180.19999694824</ele>
        <time>2020-10-18T11:50:04.000Z</time>
      </trkpt>
      <trkpt lat="48.29078" lon="-3.48637">
        <ele>180.19999694824</ele>
        <time>2020-10-18T11:50:05.000Z</time>
      </trkpt>
      <trkpt lat="48.29076" lon="-3.48651">
        <ele>180.39999389648</ele>
        <time>2020-10-18T11:50:06.000Z</time>
      </trkpt>
      <trkpt lat="48.29076" lon="-3.48651">
        <ele>180.39999389648</ele>
        <time>2020-10-18T11:50:07.000Z</time>
      </trkpt>
      <trkpt lat="48.29075" lon="-3.48658">
        <ele>180.39999389648</ele>
        <time>2020-10-18T11:50:08.000Z</time>
      </trkpt>
      <trkpt lat="48.29072" lon="-3.48672">
        <ele>180.60000610352</ele>
        <time>2020-10-18T11:50:09.000Z</time>
      </trkpt>
      <trkpt lat="48.29072" lon="-3.48672">
        <ele>180.60000610352</ele>
        <time>2020-10-18T11:50:10.000Z</time>
      </trkpt>
      <trkpt lat="48.2907" lon="-3.48679">
        <ele>180.60000610352</ele>
        <time>2020-10-18T11:50:11.000Z</time>
      </trkpt>
      <trkpt lat="48.29067" lon="-3.48692">
        <ele>180.80000305176</ele>
        <time>2020-10-18T11:50:12.000Z</time>
      </trkpt>
      <trkpt lat="48.29067" lon="-3.48692">
        <ele>180.80000305176</ele>
        <time>2020-10-18T11:50:13.000Z</time>
      </trkpt>
      <trkpt lat="48.29065" lon="-3.48699">
        <ele>180.80000305176</ele>
        <time>2020-10-18T11:50:14.000Z</time>
      </trkpt>
      <trkpt lat="48.29061" lon="-3.48712">
        <ele>181</ele>
        <time>2020-10-18T11:50:15.000Z</time>
      </trkpt>
      <trkpt lat="48.29061" lon="-3.48712">
        <ele>181</ele>
        <time>2020-10-18T11:50:16.000Z</time>
      </trkpt>
      <trkpt lat="48.2906" lon="-3.48718">
        <ele>181</ele>
        <time>2020-10-18T11:50:17.000Z</time>
      </trkpt>
      <trkpt lat="48.29056" lon="-3.48731">
        <ele>181</ele>
        <time>2020-10-18T11:50:18.000Z</time>
      </trkpt>
      <trkpt lat="48.29056" lon="-3.48731">
        <ele>181</ele>
        <time>2020-10-18T11:50:19.000Z</time>
      </trkpt>
      <trkpt lat="48.29054" lon="-3.48737">
        <ele>180.80000305176</ele>
        <time>2020-10-18T11:50:20.000Z</time>
      </trkpt>
      <trkpt lat="48.2905" lon="-3.48751">
        <ele>180.80000305176</ele>
        <time>2020-10-18T11:50:21.000Z</time>
      </trkpt>
      <trkpt lat="48.2905" lon="-3.48751">
        <ele>180.80000305176</ele>
        <time>2020-10-18T11:50:22.000Z</time>
      </trkpt>
      <trkpt lat="48.29048" lon="-3.48758">
        <ele>180.60000610352</ele>
        <time>2020-10-18T11:50:23.000Z</time>
      </trkpt>
      <trkpt lat="48.29044" lon="-3.48771">
        <ele>180.60000610352</ele>
        <time>2020-10-18T11:50:24.000Z</time>
      </trkpt>
      <trkpt lat="48.29044" lon="-3.48771">
        <ele>180.60000610352</ele>
        <time>2020-10-18T11:50:25.000Z</time>
      </trkpt>
      <trkpt lat="48.29039" lon="-3.48784">
        <ele>180.60000610352</ele>
        <time>2020-10-18T11:50:26.000Z</time>
      </trkpt>
      <trkpt lat="48.29039" lon="-3.48784">
        <ele>180.60000610352</ele>
        <time>2020-10-18T11:50:27.000Z</time>
      </trkpt>
      <trkpt lat="48.29037" lon="-3.48791">
        <ele>180.80000305176</ele>
        <time>2020-10-18T11:50:28.000Z</time>
      </trkpt>
      <trkpt lat="48.29031" lon="-3.48804">
        <ele>180.80000305176</ele>
        <time>2020-10-18T11:50:29.000Z</time>
      </trkpt>
      <trkpt lat="48.29031" lon="-3.48804">
        <ele>180.80000305176</ele>
        <time>2020-10-18T11:50:30.000Z</time>
      </trkpt>
      <trkpt lat="48.29026" lon="-3.48816">
        <ele>180.80000305176</ele>
        <time>2020-10-18T11:50:31.000Z</time>
      </trkpt>
      <trkpt lat="48.29026" lon="-3.48816">
        <ele>180.80000305176</ele>
        <time>2020-10-18T11:50:32.000Z</time>
      </trkpt>
      <trkpt lat="48.29024" lon="-3.48823">
        <ele>180.80000305176</ele>
        <time>2020-10-18T11:50:33.000Z</time>
      </trkpt>
      <trkpt lat="48.29019" lon="-3.48835">
        <ele>181</ele>
        <time>2020-10-18T11:50:34.000Z</time>
      </trkpt>
      <trkpt lat="48.29019" lon="-3.48835">
        <ele>181</ele>
        <time>2020-10-18T11:50:35.000Z</time>
      </trkpt>
      <trkpt lat="48.29016" lon="-3.48841">
        <ele>181</ele>
        <time>2020-10-18T11:50:36.000Z</time>
      </trkpt>
      <trkpt lat="48.29011" lon="-3.48854">
        <ele>181</ele>
        <time>2020-10-18T11:50:37.000Z</time>
      </trkpt>
      <trkpt lat="48.29011" lon="-3.48854">
        <ele>181</ele>
        <time>2020-10-18T11:50:38.000Z</time>
      </trkpt>
      <trkpt lat="48.29009" lon="-3.4886">
        <ele>180.80000305176</ele>
        <time>2020-10-18T11:50:39.000Z</time>
      </trkpt>
      <trkpt lat="48.29004" lon="-3.48872">
        <ele>180.80000305176</ele>
        <time>2020-10-18T11:50:40.000Z</time>
      </trkpt>
      <trkpt lat="48.29004" lon="-3.48872">
        <ele>180.80000305176</ele>
        <time>2020-10-18T11:50:41.000Z</time>
      </trkpt>
      <trkpt lat="48.29001" lon="-3.48878">
        <ele>180.80000305176</ele>
        <time>2020-10-18T11:50:42.000Z</time>
      </trkpt>
      <trkpt lat="48.28997" lon="-3.4889">
        <ele>180.60000610352</ele>
        <time>2020-10-18T11:50:43.000Z</time>
      </trkpt>
      <trkpt lat="48.28997" lon="-3.4889">
        <ele>180.60000610352</ele>
        <time>2020-10-18T11:50:44.000Z</time>
      </trkpt>
      <trkpt lat="48.28995" lon="-3.48895">
        <ele>180.60000610352</ele>
        <time>2020-10-18T11:50:45.000Z</time>
      </trkpt>
      <trkpt lat="48.28991" lon="-3.48906">
        <ele>180.39999389648</ele>
        <time>2020-10-18T11:50:46.000Z</time>
      </trkpt>
      <trkpt lat="48.28988" lon="-3.48911">
        <ele>180.39999389648</ele>
        <time>2020-10-18T11:50:47.000Z</time>
      </trkpt>
      <trkpt lat="48.28986" lon="-3.48916">
        <ele>180.39999389648</ele>
        <time>2020-10-18T11:50:48.000Z</time>
      </trkpt>
      <trkpt lat="48.28986" lon="-3.48916">
        <ele>180.39999389648</ele>
        <time>2020-10-18T11:50:49.000Z</time>
      </trkpt>
      <trkpt lat="48.28984" lon="-3.48922">
        <ele>180.39999389648</ele>
        <time>2020-10-18T11:50:50.000Z</time>
      </trkpt>
      <trkpt lat="48.2898" lon="-3.48933">
        <ele>180.19999694824</ele>
        <time>2020-10-18T11:50:51.000Z</time>
      </trkpt>
      <trkpt lat="48.2898" lon="-3.48933">
        <ele>180.19999694824</ele>
        <time>2020-10-18T11:50:52.000Z</time>
      </trkpt>
      <trkpt lat="48.28975" lon="-3.48944">
        <ele>180.39999389648</ele>
        <time>2020-10-18T11:50:53.000Z</time>
      </trkpt>
      <trkpt lat="48.28975" lon="-3.48944">
        <ele>180.39999389648</ele>
        <time>2020-10-18T11:50:54.000Z</time>
      </trkpt>
      <trkpt lat="48.28972" lon="-3.4895">
        <ele>180.39999389648</ele>
        <time>2020-10-18T11:50:55.000Z</time>
      </trkpt>
      <trkpt lat="48.28967" lon="-3.48961">
        <ele>180.60000610352</ele>
        <time>2020-10-18T11:50:56.000Z</time>
      </trkpt>
      <trkpt lat="48.28967" lon="-3.48961">
        <ele>180.60000610352</ele>
        <time>2020-10-18T11:50:57.000Z</time>
      </trkpt>
      <trkpt lat="48.28965" lon="-3.48967">
        <ele>180.60000610352</ele>
        <time>2020-10-18T11:50:58.000Z</time>
      </trkpt>
      <trkpt lat="48.2896" lon="-3.48978">
        <ele>180.80000305176</ele>
        <time>2020-10-18T11:50:59.000Z</time>
      </trkpt>
      <trkpt lat="48.2896" lon="-3.48978">
        <ele>180.80000305176</ele>
        <time>2020-10-18T11:51:00.000Z</time>
      </trkpt>
      <trkpt lat="48.28957" lon="-3.48984">
        <ele>180.80000305176</ele>
        <time>2020-10-18T11:51:01.000Z</time>
      </trkpt>
      <trkpt lat="48.28952" lon="-3.48995">
        <ele>181</ele>
        <time>2020-10-18T11:51:02.000Z</time>
      </trkpt>
      <trkpt lat="48.28952" lon="-3.48995">
        <ele>181</ele>
        <time>2020-10-18T11:51:03.000Z</time>
      </trkpt>
      <trkpt lat="48.28946" lon="-3.49008">
        <ele>181</ele>
        <time>2020-10-18T11:51:04.000Z</time>
      </trkpt>
      <trkpt lat="48.28946" lon="-3.49008">
        <ele>181</ele>
        <time>2020-10-18T11:51:05.000Z</time>
      </trkpt>
      <trkpt lat="48.28943" lon="-3.49015">
        <ele>181.19999694824</ele>
        <time>2020-10-18T11:51:06.000Z</time>
      </trkpt>
      <trkpt lat="48.28938" lon="-3.49028">
        <ele>181</ele>
        <time>2020-10-18T11:51:07.000Z</time>
      </trkpt>
      <trkpt lat="48.28938" lon="-3.49028">
        <ele>181</ele>
        <time>2020-10-18T11:51:08.000Z</time>
      </trkpt>
      <trkpt lat="48.28935" lon="-3.49035">
        <ele>180.80000305176</ele>
        <time>2020-10-18T11:51:09.000Z</time>
      </trkpt>
      <trkpt lat="48.28929" lon="-3.49049">
        <ele>180.60000610352</ele>
        <time>2020-10-18T11:51:10.000Z</time>
      </trkpt>
      <trkpt lat="48.28929" lon="-3.49049">
        <ele>180.60000610352</ele>
        <time>2020-10-18T11:51:11.000Z</time>
      </trkpt>
      <trkpt lat="48.28926" lon="-3.49057">
        <ele>180.39999389648</ele>
        <time>2020-10-18T11:51:12.000Z</time>
      </trkpt>
      <trkpt lat="48.28919" lon="-3.49071">
        <ele>180.19999694824</ele>
        <time>2020-10-18T11:51:13.000Z</time>
      </trkpt>
      <trkpt lat="48.28919" lon="-3.49071">
        <ele>180.19999694824</ele>
        <time>2020-10-18T11:51:14.000Z</time>
      </trkpt>
      <trkpt lat="48.28916" lon="-3.49078">
        <ele>180.19999694824</ele>
        <time>2020-10-18T11:51:15.000Z</time>
      </trkpt>
      <trkpt lat="48.28909" lon="-3.49092">
        <ele>179.80000305176</ele>
        <time>2020-10-18T11:51:16.000Z</time>
      </trkpt>
      <trkpt lat="48.28909" lon="-3.49092">
        <ele>179.80000305176</ele>
        <time>2020-10-18T11:51:17.000Z</time>
      </trkpt>
      <trkpt lat="48.28906" lon="-3.491">
        <ele>179.80000305176</ele>
        <time>2020-10-18T11:51:18.000Z</time>
      </trkpt>
      <trkpt lat="48.28899" lon="-3.49115">
        <ele>179.19999694824</ele>
        <time>2020-10-18T11:51:19.000Z</time>
      </trkpt>
      <trkpt lat="48.28899" lon="-3.49115">
        <ele>179.19999694824</ele>
        <time>2020-10-18T11:51:20.000Z</time>
      </trkpt>
      <trkpt lat="48.28895" lon="-3.49123">
        <ele>179</ele>
        <time>2020-10-18T11:51:21.000Z</time>
      </trkpt>
      <trkpt lat="48.28889" lon="-3.49139">
        <ele>178.60000610352</ele>
        <time>2020-10-18T11:51:22.000Z</time>
      </trkpt>
      <trkpt lat="48.28889" lon="-3.49139">
        <ele>178.60000610352</ele>
        <time>2020-10-18T11:51:23.000Z</time>
      </trkpt>
      <trkpt lat="48.28885" lon="-3.49147">
        <ele>178.39999389648</ele>
        <time>2020-10-18T11:51:24.000Z</time>
      </trkpt>
      <trkpt lat="48.28878" lon="-3.49164">
        <ele>178</ele>
        <time>2020-10-18T11:51:25.000Z</time>
      </trkpt>
      <trkpt lat="48.28878" lon="-3.49164">
        <ele>178</ele>
        <time>2020-10-18T11:51:26.000Z</time>
      </trkpt>
      <trkpt lat="48.28875" lon="-3.49172">
        <ele>177.80000305176</ele>
        <time>2020-10-18T11:51:27.000Z</time>
      </trkpt>
      <trkpt lat="48.28868" lon="-3.49188">
        <ele>177.39999389648</ele>
        <time>2020-10-18T11:51:28.000Z</time>
      </trkpt>
      <trkpt lat="48.28868" lon="-3.49188">
        <ele>177.39999389648</ele>
        <time>2020-10-18T11:51:29.000Z</time>
      </trkpt>
      <trkpt lat="48.28861" lon="-3.49204">
        <ele>177</ele>
        <time>2020-10-18T11:51:30.000Z</time>
      </trkpt>
      <trkpt lat="48.28861" lon="-3.49204">
        <ele>177</ele>
        <time>2020-10-18T11:51:31.000Z</time>
      </trkpt>
      <trkpt lat="48.28857" lon="-3.49213">
        <ele>177</ele>
        <time>2020-10-18T11:51:32.000Z</time>
      </trkpt>
      <trkpt lat="48.2885" lon="-3.4923">
        <ele>176.60000610352</ele>
        <time>2020-10-18T11:51:33.000Z</time>
      </trkpt>
      <trkpt lat="48.2885" lon="-3.4923">
        <ele>176.60000610352</ele>
        <time>2020-10-18T11:51:34.000Z</time>
      </trkpt>
      <trkpt lat="48.28847" lon="-3.49238">
        <ele>176.39999389648</ele>
        <time>2020-10-18T11:51:35.000Z</time>
      </trkpt>
      <trkpt lat="48.2884" lon="-3.49255">
        <ele>176.19999694824</ele>
        <time>2020-10-18T11:51:36.000Z</time>
      </trkpt>
      <trkpt lat="48.2884" lon="-3.49255">
        <ele>176.19999694824</ele>
        <time>2020-10-18T11:51:37.000Z</time>
      </trkpt>
      <trkpt lat="48.28837" lon="-3.49263">
        <ele>176.19999694824</ele>
        <time>2020-10-18T11:51:38.000Z</time>
      </trkpt>
      <trkpt lat="48.2883" lon="-3.49277">
        <ele>176.19999694824</ele>
        <time>2020-10-18T11:51:39.000Z</time>
      </trkpt>
      <trkpt lat="48.2883" lon="-3.49277">
        <ele>176.19999694824</ele>
        <time>2020-10-18T11:51:40.000Z</time>
      </trkpt>
      <trkpt lat="48.28827" lon="-3.49283">
        <ele>176</ele>
        <time>2020-10-18T11:51:41.000Z</time>
      </trkpt>
      <trkpt lat="48.28823" lon="-3.49291">
        <ele>176</ele>
        <time>2020-10-18T11:51:42.000Z</time>
      </trkpt>
      <trkpt lat="48.28823" lon="-3.49291">
        <ele>176</ele>
        <time>2020-10-18T11:51:43.000Z</time>
      </trkpt>
      <trkpt lat="48.28822" lon="-3.49294">
        <ele>176</ele>
        <time>2020-10-18T11:51:44.000Z</time>
      </trkpt>
      <trkpt lat="48.2882" lon="-3.49299">
        <ele>175.80000305176</ele>
        <time>2020-10-18T11:51:45.000Z</time>
      </trkpt>
      <trkpt lat="48.2882" lon="-3.49299">
        <ele>175.80000305176</ele>
        <time>2020-10-18T11:51:46.000Z</time>
      </trkpt>
      <trkpt lat="48.28818" lon="-3.49304">
        <ele>175.80000305176</ele>
        <time>2020-10-18T11:51:47.000Z</time>
      </trkpt>
      <trkpt lat="48.28818" lon="-3.49304">
        <ele>175.80000305176</ele>
        <time>2020-10-18T11:51:48.000Z</time>
      </trkpt>
      <trkpt lat="48.28816" lon="-3.49309">
        <ele>175.80000305176</ele>
        <time>2020-10-18T11:51:49.000Z</time>
      </trkpt>
      <trkpt lat="48.28816" lon="-3.49309">
        <ele>175.80000305176</ele>
        <time>2020-10-18T11:51:50.000Z</time>
      </trkpt>
      <trkpt lat="48.28815" lon="-3.49312">
        <ele>175.60000610352</ele>
        <time>2020-10-18T11:51:51.000Z</time>
      </trkpt>
      <trkpt lat="48.28812" lon="-3.4932">
        <ele>175.60000610352</ele>
        <time>2020-10-18T11:51:52.000Z</time>
      </trkpt>
      <trkpt lat="48.28812" lon="-3.4932">
        <ele>175.60000610352</ele>
        <time>2020-10-18T11:51:53.000Z</time>
      </trkpt>
      <trkpt lat="48.28808" lon="-3.4933">
        <ele>175.39999389648</ele>
        <time>2020-10-18T11:51:54.000Z</time>
      </trkpt>
      <trkpt lat="48.28808" lon="-3.4933">
        <ele>175.39999389648</ele>
        <time>2020-10-18T11:51:55.000Z</time>
      </trkpt>
      <trkpt lat="48.28806" lon="-3.49335">
        <ele>175.39999389648</ele>
        <time>2020-10-18T11:51:56.000Z</time>
      </trkpt>
      <trkpt lat="48.28801" lon="-3.49346">
        <ele>175.19999694824</ele>
        <time>2020-10-18T11:51:57.000Z</time>
      </trkpt>
      <trkpt lat="48.28801" lon="-3.49346">
        <ele>175.19999694824</ele>
        <time>2020-10-18T11:51:58.000Z</time>
      </trkpt>
      <trkpt lat="48.28796" lon="-3.49357">
        <ele>175.19999694824</ele>
        <time>2020-10-18T11:51:59.000Z</time>
      </trkpt>
      <trkpt lat="48.28796" lon="-3.49357">
        <ele>175.19999694824</ele>
        <time>2020-10-18T11:52:00.000Z</time>
      </trkpt>
      <trkpt lat="48.28791" lon="-3.49369">
        <ele>175.19999694824</ele>
        <time>2020-10-18T11:52:01.000Z</time>
      </trkpt>
      <trkpt lat="48.28791" lon="-3.49369">
        <ele>175.19999694824</ele>
        <time>2020-10-18T11:52:02.000Z</time>
      </trkpt>
      <trkpt lat="48.28788" lon="-3.49375">
        <ele>175</ele>
        <time>2020-10-18T11:52:03.000Z</time>
      </trkpt>
      <trkpt lat="48.28782" lon="-3.49388">
        <ele>175</ele>
        <time>2020-10-18T11:52:04.000Z</time>
      </trkpt>
      <trkpt lat="48.28782" lon="-3.49388">
        <ele>175</ele>
        <time>2020-10-18T11:52:05.000Z</time>
      </trkpt>
      <trkpt lat="48.2878" lon="-3.49395">
        <ele>175</ele>
        <time>2020-10-18T11:52:06.000Z</time>
      </trkpt>
      <trkpt lat="48.28775" lon="-3.4941">
        <ele>175</ele>
        <time>2020-10-18T11:52:07.000Z</time>
      </trkpt>
      <trkpt lat="48.28775" lon="-3.4941">
        <ele>175</ele>
        <time>2020-10-18T11:52:08.000Z</time>
      </trkpt>
      <trkpt lat="48.28772" lon="-3.49417">
        <ele>175</ele>
        <time>2020-10-18T11:52:09.000Z</time>
      </trkpt>
      <trkpt lat="48.28767" lon="-3.49432">
        <ele>175</ele>
        <time>2020-10-18T11:52:10.000Z</time>
      </trkpt>
      <trkpt lat="48.28767" lon="-3.49432">
        <ele>175</ele>
        <time>2020-10-18T11:52:11.000Z</time>
      </trkpt>
      <trkpt lat="48.28764" lon="-3.49439">
        <ele>174.80000305176</ele>
        <time>2020-10-18T11:52:12.000Z</time>
      </trkpt>
      <trkpt lat="48.28759" lon="-3.49453">
        <ele>174.60000610352</ele>
        <time>2020-10-18T11:52:13.000Z</time>
      </trkpt>
      <trkpt lat="48.28759" lon="-3.49453">
        <ele>174.60000610352</ele>
        <time>2020-10-18T11:52:14.000Z</time>
      </trkpt>
      <trkpt lat="48.28757" lon="-3.4946">
        <ele>174.60000610352</ele>
        <time>2020-10-18T11:52:15.000Z</time>
      </trkpt>
      <trkpt lat="48.28753" lon="-3.49475">
        <ele>174.39999389648</ele>
        <time>2020-10-18T11:52:16.000Z</time>
      </trkpt>
      <trkpt lat="48.28753" lon="-3.49475">
        <ele>174.39999389648</ele>
        <time>2020-10-18T11:52:17.000Z</time>
      </trkpt>
      <trkpt lat="48.2875" lon="-3.49483">
        <ele>174.19999694824</ele>
        <time>2020-10-18T11:52:18.000Z</time>
      </trkpt>
      <trkpt lat="48.28747" lon="-3.49499">
        <ele>174</ele>
        <time>2020-10-18T11:52:19.000Z</time>
      </trkpt>
      <trkpt lat="48.28747" lon="-3.49499">
        <ele>174</ele>
        <time>2020-10-18T11:52:20.000Z</time>
      </trkpt>
      <trkpt lat="48.28745" lon="-3.49506">
        <ele>174</ele>
        <time>2020-10-18T11:52:21.000Z</time>
      </trkpt>
      <trkpt lat="48.28741" lon="-3.49523">
        <ele>174</ele>
        <time>2020-10-18T11:52:22.000Z</time>
      </trkpt>
      <trkpt lat="48.28741" lon="-3.49523">
        <ele>174</ele>
        <time>2020-10-18T11:52:23.000Z</time>
      </trkpt>
      <trkpt lat="48.2874" lon="-3.49531">
        <ele>174.19999694824</ele>
        <time>2020-10-18T11:52:24.000Z</time>
      </trkpt>
      <trkpt lat="48.28737" lon="-3.49547">
        <ele>174.60000610352</ele>
        <time>2020-10-18T11:52:25.000Z</time>
      </trkpt>
      <trkpt lat="48.28737" lon="-3.49547">
        <ele>174.60000610352</ele>
        <time>2020-10-18T11:52:26.000Z</time>
      </trkpt>
      <trkpt lat="48.28734" lon="-3.49563">
        <ele>174.80000305176</ele>
        <time>2020-10-18T11:52:27.000Z</time>
      </trkpt>
      <trkpt lat="48.28734" lon="-3.49563">
        <ele>174.80000305176</ele>
        <time>2020-10-18T11:52:28.000Z</time>
      </trkpt>
      <trkpt lat="48.28733" lon="-3.49572">
        <ele>174.80000305176</ele>
        <time>2020-10-18T11:52:29.000Z</time>
      </trkpt>
      <trkpt lat="48.28731" lon="-3.49588">
        <ele>175</ele>
        <time>2020-10-18T11:52:30.000Z</time>
      </trkpt>
      <trkpt lat="48.28731" lon="-3.49588">
        <ele>175</ele>
        <time>2020-10-18T11:52:31.000Z</time>
      </trkpt>
      <trkpt lat="48.2873" lon="-3.49597">
        <ele>175</ele>
        <time>2020-10-18T11:52:32.000Z</time>
      </trkpt>
      <trkpt lat="48.2873" lon="-3.49615">
        <ele>174.80000305176</ele>
        <time>2020-10-18T11:52:33.000Z</time>
      </trkpt>
      <trkpt lat="48.2873" lon="-3.49615">
        <ele>174.80000305176</ele>
        <time>2020-10-18T11:52:34.000Z</time>
      </trkpt>
      <trkpt lat="48.28731" lon="-3.49633">
        <ele>174.60000610352</ele>
        <time>2020-10-18T11:52:35.000Z</time>
      </trkpt>
      <trkpt lat="48.28731" lon="-3.49633">
        <ele>174.60000610352</ele>
        <time>2020-10-18T11:52:36.000Z</time>
      </trkpt>
      <trkpt lat="48.28732" lon="-3.49643">
        <ele>174.39999389648</ele>
        <time>2020-10-18T11:52:37.000Z</time>
      </trkpt>
      <trkpt lat="48.28733" lon="-3.49661">
        <ele>174</ele>
        <time>2020-10-18T11:52:38.000Z</time>
      </trkpt>
      <trkpt lat="48.28733" lon="-3.49661">
        <ele>174</ele>
        <time>2020-10-18T11:52:39.000Z</time>
      </trkpt>
      <trkpt lat="48.28733" lon="-3.49671">
        <ele>174</ele>
        <time>2020-10-18T11:52:40.000Z</time>
      </trkpt>
      <trkpt lat="48.28736" lon="-3.49689">
        <ele>173.60000610352</ele>
        <time>2020-10-18T11:52:41.000Z</time>
      </trkpt>
      <trkpt lat="48.28736" lon="-3.49689">
        <ele>173.60000610352</ele>
        <time>2020-10-18T11:52:42.000Z</time>
      </trkpt>
      <trkpt lat="48.28737" lon="-3.49698">
        <ele>173.60000610352</ele>
        <time>2020-10-18T11:52:43.000Z</time>
      </trkpt>
      <trkpt lat="48.2874" lon="-3.49717">
        <ele>173.19999694824</ele>
        <time>2020-10-18T11:52:44.000Z</time>
      </trkpt>
      <trkpt lat="48.2874" lon="-3.49717">
        <ele>173.19999694824</ele>
        <time>2020-10-18T11:52:45.000Z</time>
      </trkpt>
      <trkpt lat="48.28742" lon="-3.49725">
        <ele>173</ele>
        <time>2020-10-18T11:52:46.000Z</time>
      </trkpt>
      <trkpt lat="48.28743" lon="-3.49734">
        <ele>172.80000305176</ele>
        <time>2020-10-18T11:52:47.000Z</time>
      </trkpt>
      <trkpt lat="48.28745" lon="-3.49742">
        <ele>172.60000610352</ele>
        <time>2020-10-18T11:52:48.000Z</time>
      </trkpt>
      <trkpt lat="48.28749" lon="-3.49759">
        <ele>172</ele>
        <time>2020-10-18T11:52:49.000Z</time>
      </trkpt>
      <trkpt lat="48.28749" lon="-3.49759">
        <ele>172</ele>
        <time>2020-10-18T11:52:50.000Z</time>
      </trkpt>
      <trkpt lat="48.28751" lon="-3.49767">
        <ele>171.80000305176</ele>
        <time>2020-10-18T11:52:51.000Z</time>
      </trkpt>
      <trkpt lat="48.28756" lon="-3.49782">
        <ele>171.60000610352</ele>
        <time>2020-10-18T11:52:52.000Z</time>
      </trkpt>
      <trkpt lat="48.28756" lon="-3.49782">
        <ele>171.60000610352</ele>
        <time>2020-10-18T11:52:53.000Z</time>
      </trkpt>
      <trkpt lat="48.28762" lon="-3.49799">
        <ele>171.39999389648</ele>
        <time>2020-10-18T11:52:54.000Z</time>
      </trkpt>
      <trkpt lat="48.28762" lon="-3.49799">
        <ele>171.39999389648</ele>
        <time>2020-10-18T11:52:55.000Z</time>
      </trkpt>
      <trkpt lat="48.28764" lon="-3.49807">
        <ele>171.39999389648</ele>
        <time>2020-10-18T11:52:56.000Z</time>
      </trkpt>
      <trkpt lat="48.2877" lon="-3.49822">
        <ele>171.39999389648</ele>
        <time>2020-10-18T11:52:57.000Z</time>
      </trkpt>
      <trkpt lat="48.28772" lon="-3.49829">
        <ele>171.39999389648</ele>
        <time>2020-10-18T11:52:58.000Z</time>
      </trkpt>
      <trkpt lat="48.28772" lon="-3.49829">
        <ele>171.39999389648</ele>
        <time>2020-10-18T11:52:59.000Z</time>
      </trkpt>
      <trkpt lat="48.28775" lon="-3.49836">
        <ele>171.19999694824</ele>
        <time>2020-10-18T11:53:00.000Z</time>
      </trkpt>
      <trkpt lat="48.28782" lon="-3.4985">
        <ele>171.39999389648</ele>
        <time>2020-10-18T11:53:01.000Z</time>
      </trkpt>
      <trkpt lat="48.28785" lon="-3.49856">
        <ele>171.60000610352</ele>
        <time>2020-10-18T11:53:02.000Z</time>
      </trkpt>
      <trkpt lat="48.28785" lon="-3.49856">
        <ele>171.60000610352</ele>
        <time>2020-10-18T11:53:03.000Z</time>
      </trkpt>
      <trkpt lat="48.28792" lon="-3.49869">
        <ele>172</ele>
        <time>2020-10-18T11:53:04.000Z</time>
      </trkpt>
      <trkpt lat="48.28792" lon="-3.49869">
        <ele>172</ele>
        <time>2020-10-18T11:53:05.000Z</time>
      </trkpt>
      <trkpt lat="48.28795" lon="-3.49875">
        <ele>172.39999389648</ele>
        <time>2020-10-18T11:53:06.000Z</time>
      </trkpt>
      <trkpt lat="48.28802" lon="-3.49886">
        <ele>172.80000305176</ele>
        <time>2020-10-18T11:53:07.000Z</time>
      </trkpt>
      <trkpt lat="48.28802" lon="-3.49886">
        <ele>172.80000305176</ele>
        <time>2020-10-18T11:53:08.000Z</time>
      </trkpt>
      <trkpt lat="48.28806" lon="-3.49892">
        <ele>173</ele>
        <time>2020-10-18T11:53:09.000Z</time>
      </trkpt>
      <trkpt lat="48.28813" lon="-3.49904">
        <ele>173</ele>
        <time>2020-10-18T11:53:10.000Z</time>
      </trkpt>
      <trkpt lat="48.28813" lon="-3.49904">
        <ele>173</ele>
        <time>2020-10-18T11:53:11.000Z</time>
      </trkpt>
      <trkpt lat="48.28817" lon="-3.4991">
        <ele>173</ele>
        <time>2020-10-18T11:53:12.000Z</time>
      </trkpt>
      <trkpt lat="48.28824" lon="-3.49921">
        <ele>172.80000305176</ele>
        <time>2020-10-18T11:53:13.000Z</time>
      </trkpt>
      <trkpt lat="48.28824" lon="-3.49921">
        <ele>172.80000305176</ele>
        <time>2020-10-18T11:53:14.000Z</time>
      </trkpt>
      <trkpt lat="48.28828" lon="-3.49927">
        <ele>172.80000305176</ele>
        <time>2020-10-18T11:53:15.000Z</time>
      </trkpt>
      <trkpt lat="48.28834" lon="-3.4994">
        <ele>173</ele>
        <time>2020-10-18T11:53:16.000Z</time>
      </trkpt>
      <trkpt lat="48.28837" lon="-3.49946">
        <ele>173.19999694824</ele>
        <time>2020-10-18T11:53:17.000Z</time>
      </trkpt>
      <trkpt lat="48.28837" lon="-3.49946">
        <ele>173.19999694824</ele>
        <time>2020-10-18T11:53:18.000Z</time>
      </trkpt>
      <trkpt lat="48.2884" lon="-3.49952">
        <ele>173.39999389648</ele>
        <time>2020-10-18T11:53:19.000Z</time>
      </trkpt>
      <trkpt lat="48.28846" lon="-3.49966">
        <ele>173.60000610352</ele>
        <time>2020-10-18T11:53:20.000Z</time>
      </trkpt>
      <trkpt lat="48.28846" lon="-3.49966">
        <ele>173.60000610352</ele>
        <time>2020-10-18T11:53:21.000Z</time>
      </trkpt>
      <trkpt lat="48.28853" lon="-3.49979">
        <ele>173.80000305176</ele>
        <time>2020-10-18T11:53:22.000Z</time>
      </trkpt>
      <trkpt lat="48.28853" lon="-3.49979">
        <ele>173.80000305176</ele>
        <time>2020-10-18T11:53:23.000Z</time>
      </trkpt>
      <trkpt lat="48.2886" lon="-3.49992">
        <ele>174.19999694824</ele>
        <time>2020-10-18T11:53:24.000Z</time>
      </trkpt>
      <trkpt lat="48.2886" lon="-3.49992">
        <ele>174.19999694824</ele>
        <time>2020-10-18T11:53:25.000Z</time>
      </trkpt>
      <trkpt lat="48.28867" lon="-3.50005">
        <ele>174.19999694824</ele>
        <time>2020-10-18T11:53:26.000Z</time>
      </trkpt>
      <trkpt lat="48.28867" lon="-3.50005">
        <ele>174.19999694824</ele>
        <time>2020-10-18T11:53:27.000Z</time>
      </trkpt>
      <trkpt lat="48.28871" lon="-3.50011">
        <ele>174.19999694824</ele>
        <time>2020-10-18T11:53:28.000Z</time>
      </trkpt>
      <trkpt lat="48.28878" lon="-3.50024">
        <ele>174</ele>
        <time>2020-10-18T11:53:29.000Z</time>
      </trkpt>
      <trkpt lat="48.28878" lon="-3.50024">
        <ele>174</ele>
        <time>2020-10-18T11:53:30.000Z</time>
      </trkpt>
      <trkpt lat="48.28881" lon="-3.5003">
        <ele>173.80000305176</ele>
        <time>2020-10-18T11:53:31.000Z</time>
      </trkpt>
      <trkpt lat="48.28887" lon="-3.50041">
        <ele>173.60000610352</ele>
        <time>2020-10-18T11:53:32.000Z</time>
      </trkpt>
      <trkpt lat="48.28887" lon="-3.50041">
        <ele>173.60000610352</ele>
        <time>2020-10-18T11:53:33.000Z</time>
      </trkpt>
      <trkpt lat="48.2889" lon="-3.50047">
        <ele>173.60000610352</ele>
        <time>2020-10-18T11:53:34.000Z</time>
      </trkpt>
      <trkpt lat="48.28895" lon="-3.5006">
        <ele>173.60000610352</ele>
        <time>2020-10-18T11:53:35.000Z</time>
      </trkpt>
      <trkpt lat="48.28895" lon="-3.5006">
        <ele>173.60000610352</ele>
        <time>2020-10-18T11:53:36.000Z</time>
      </trkpt>
      <trkpt lat="48.28897" lon="-3.50067">
        <ele>173.80000305176</ele>
        <time>2020-10-18T11:53:37.000Z</time>
      </trkpt>
      <trkpt lat="48.28901" lon="-3.5008">
        <ele>174</ele>
        <time>2020-10-18T11:53:38.000Z</time>
      </trkpt>
      <trkpt lat="48.28901" lon="-3.5008">
        <ele>174</ele>
        <time>2020-10-18T11:53:39.000Z</time>
      </trkpt>
      <trkpt lat="48.28902" lon="-3.50087">
        <ele>174.19999694824</ele>
        <time>2020-10-18T11:53:40.000Z</time>
      </trkpt>
      <trkpt lat="48.28906" lon="-3.50101">
        <ele>174.39999389648</ele>
        <time>2020-10-18T11:53:41.000Z</time>
      </trkpt>
      <trkpt lat="48.28906" lon="-3.50101">
        <ele>174.39999389648</ele>
        <time>2020-10-18T11:53:42.000Z</time>
      </trkpt>
      <trkpt lat="48.2891" lon="-3.50115">
        <ele>174.19999694824</ele>
        <time>2020-10-18T11:53:43.000Z</time>
      </trkpt>
      <trkpt lat="48.2891" lon="-3.50115">
        <ele>174.19999694824</ele>
        <time>2020-10-18T11:53:44.000Z</time>
      </trkpt>
      <trkpt lat="48.28913" lon="-3.50129">
        <ele>173.80000305176</ele>
        <time>2020-10-18T11:53:45.000Z</time>
      </trkpt>
      <trkpt lat="48.28913" lon="-3.50129">
        <ele>173.80000305176</ele>
        <time>2020-10-18T11:53:46.000Z</time>
      </trkpt>
      <trkpt lat="48.28917" lon="-3.50142">
        <ele>173.39999389648</ele>
        <time>2020-10-18T11:53:47.000Z</time>
      </trkpt>
      <trkpt lat="48.28917" lon="-3.50142">
        <ele>173.39999389648</ele>
        <time>2020-10-18T11:53:48.000Z</time>
      </trkpt>
      <trkpt lat="48.2892" lon="-3.50156">
        <ele>173</ele>
        <time>2020-10-18T11:53:49.000Z</time>
      </trkpt>
      <trkpt lat="48.2892" lon="-3.50156">
        <ele>173</ele>
        <time>2020-10-18T11:53:50.000Z</time>
      </trkpt>
      <trkpt lat="48.28921" lon="-3.50164">
        <ele>172.80000305176</ele>
        <time>2020-10-18T11:53:51.000Z</time>
      </trkpt>
      <trkpt lat="48.28922" lon="-3.5018">
        <ele>172.60000610352</ele>
        <time>2020-10-18T11:53:52.000Z</time>
      </trkpt>
      <trkpt lat="48.28922" lon="-3.5018">
        <ele>172.60000610352</ele>
        <time>2020-10-18T11:53:53.000Z</time>
      </trkpt>
      <trkpt lat="48.28922" lon="-3.50197">
        <ele>172.19999694824</ele>
        <time>2020-10-18T11:53:54.000Z</time>
      </trkpt>
      <trkpt lat="48.28922" lon="-3.50197">
        <ele>172.19999694824</ele>
        <time>2020-10-18T11:53:55.000Z</time>
      </trkpt>
      <trkpt lat="48.28922" lon="-3.50205">
        <ele>172.19999694824</ele>
        <time>2020-10-18T11:53:56.000Z</time>
      </trkpt>
      <trkpt lat="48.28922" lon="-3.50221">
        <ele>172.19999694824</ele>
        <time>2020-10-18T11:53:57.000Z</time>
      </trkpt>
      <trkpt lat="48.28922" lon="-3.50221">
        <ele>172.19999694824</ele>
        <time>2020-10-18T11:53:58.000Z</time>
      </trkpt>
      <trkpt lat="48.28922" lon="-3.50238">
        <ele>172.19999694824</ele>
        <time>2020-10-18T11:53:59.000Z</time>
      </trkpt>
      <trkpt lat="48.28922" lon="-3.50238">
        <ele>172.19999694824</ele>
        <time>2020-10-18T11:54:00.000Z</time>
      </trkpt>
      <trkpt lat="48.28922" lon="-3.50246">
        <ele>172.19999694824</ele>
        <time>2020-10-18T11:54:01.000Z</time>
      </trkpt>
      <trkpt lat="48.28922" lon="-3.50262">
        <ele>172.19999694824</ele>
        <time>2020-10-18T11:54:02.000Z</time>
      </trkpt>
      <trkpt lat="48.28922" lon="-3.50262">
        <ele>172.19999694824</ele>
        <time>2020-10-18T11:54:03.000Z</time>
      </trkpt>
      <trkpt lat="48.28922" lon="-3.5027">
        <ele>172.19999694824</ele>
        <time>2020-10-18T11:54:04.000Z</time>
      </trkpt>
      <trkpt lat="48.2892" lon="-3.50286">
        <ele>171.80000305176</ele>
        <time>2020-10-18T11:54:05.000Z</time>
      </trkpt>
      <trkpt lat="48.2892" lon="-3.50286">
        <ele>171.80000305176</ele>
        <time>2020-10-18T11:54:06.000Z</time>
      </trkpt>
      <trkpt lat="48.2892" lon="-3.50294">
        <ele>171.80000305176</ele>
        <time>2020-10-18T11:54:07.000Z</time>
      </trkpt>
      <trkpt lat="48.28918" lon="-3.5031">
        <ele>171.60000610352</ele>
        <time>2020-10-18T11:54:08.000Z</time>
      </trkpt>
      <trkpt lat="48.28918" lon="-3.5031">
        <ele>171.60000610352</ele>
        <time>2020-10-18T11:54:09.000Z</time>
      </trkpt>
      <trkpt lat="48.28917" lon="-3.50326">
        <ele>171.39999389648</ele>
        <time>2020-10-18T11:54:10.000Z</time>
      </trkpt>
      <trkpt lat="48.28917" lon="-3.50326">
        <ele>171.39999389648</ele>
        <time>2020-10-18T11:54:11.000Z</time>
      </trkpt>
      <trkpt lat="48.28917" lon="-3.50334">
        <ele>171.39999389648</ele>
        <time>2020-10-18T11:54:12.000Z</time>
      </trkpt>
      <trkpt lat="48.28917" lon="-3.50351">
        <ele>171.19999694824</ele>
        <time>2020-10-18T11:54:13.000Z</time>
      </trkpt>
      <trkpt lat="48.28917" lon="-3.50351">
        <ele>171.19999694824</ele>
        <time>2020-10-18T11:54:14.000Z</time>
      </trkpt>
      <trkpt lat="48.28916" lon="-3.50359">
        <ele>171</ele>
        <time>2020-10-18T11:54:15.000Z</time>
      </trkpt>
      <trkpt lat="48.28916" lon="-3.50368">
        <ele>171</ele>
        <time>2020-10-18T11:54:16.000Z</time>
      </trkpt>
      <trkpt lat="48.28915" lon="-3.50377">
        <ele>171</ele>
        <time>2020-10-18T11:54:17.000Z</time>
      </trkpt>
      <trkpt lat="48.28913" lon="-3.50394">
        <ele>171</ele>
        <time>2020-10-18T11:54:18.000Z</time>
      </trkpt>
      <trkpt lat="48.28913" lon="-3.50394">
        <ele>171</ele>
        <time>2020-10-18T11:54:19.000Z</time>
      </trkpt>
      <trkpt lat="48.28912" lon="-3.50403">
        <ele>171</ele>
        <time>2020-10-18T11:54:20.000Z</time>
      </trkpt>
      <trkpt lat="48.28911" lon="-3.50419">
        <ele>171</ele>
        <time>2020-10-18T11:54:21.000Z</time>
      </trkpt>
      <trkpt lat="48.28911" lon="-3.50419">
        <ele>171</ele>
        <time>2020-10-18T11:54:22.000Z</time>
      </trkpt>
      <trkpt lat="48.28911" lon="-3.50427">
        <ele>171</ele>
        <time>2020-10-18T11:54:23.000Z</time>
      </trkpt>
      <trkpt lat="48.28909" lon="-3.50443">
        <ele>170.80000305176</ele>
        <time>2020-10-18T11:54:24.000Z</time>
      </trkpt>
      <trkpt lat="48.28909" lon="-3.50443">
        <ele>170.80000305176</ele>
        <time>2020-10-18T11:54:25.000Z</time>
      </trkpt>
      <trkpt lat="48.28909" lon="-3.50451">
        <ele>170.60000610352</ele>
        <time>2020-10-18T11:54:26.000Z</time>
      </trkpt>
      <trkpt lat="48.28907" lon="-3.50467">
        <ele>170.39999389648</ele>
        <time>2020-10-18T11:54:27.000Z</time>
      </trkpt>
      <trkpt lat="48.28907" lon="-3.50467">
        <ele>170.39999389648</ele>
        <time>2020-10-18T11:54:28.000Z</time>
      </trkpt>
      <trkpt lat="48.28906" lon="-3.50476">
        <ele>170.39999389648</ele>
        <time>2020-10-18T11:54:29.000Z</time>
      </trkpt>
      <trkpt lat="48.28905" lon="-3.50493">
        <ele>170.39999389648</ele>
        <time>2020-10-18T11:54:30.000Z</time>
      </trkpt>
      <trkpt lat="48.28905" lon="-3.50493">
        <ele>170.39999389648</ele>
        <time>2020-10-18T11:54:31.000Z</time>
      </trkpt>
      <trkpt lat="48.28904" lon="-3.50502">
        <ele>170.39999389648</ele>
        <time>2020-10-18T11:54:32.000Z</time>
      </trkpt>
      <trkpt lat="48.28903" lon="-3.50521">
        <ele>170.19999694824</ele>
        <time>2020-10-18T11:54:33.000Z</time>
      </trkpt>
      <trkpt lat="48.28903" lon="-3.50521">
        <ele>170.19999694824</ele>
        <time>2020-10-18T11:54:34.000Z</time>
      </trkpt>
      <trkpt lat="48.28902" lon="-3.5053">
        <ele>170.19999694824</ele>
        <time>2020-10-18T11:54:35.000Z</time>
      </trkpt>
      <trkpt lat="48.28901" lon="-3.50548">
        <ele>169.80000305176</ele>
        <time>2020-10-18T11:54:36.000Z</time>
      </trkpt>
      <trkpt lat="48.28901" lon="-3.50548">
        <ele>169.80000305176</ele>
        <time>2020-10-18T11:54:37.000Z</time>
      </trkpt>
      <trkpt lat="48.289" lon="-3.50558">
        <ele>169.60000610352</ele>
        <time>2020-10-18T11:54:38.000Z</time>
      </trkpt>
      <trkpt lat="48.28898" lon="-3.50576">
        <ele>169.19999694824</ele>
        <time>2020-10-18T11:54:39.000Z</time>
      </trkpt>
      <trkpt lat="48.28898" lon="-3.50576">
        <ele>169.19999694824</ele>
        <time>2020-10-18T11:54:40.000Z</time>
      </trkpt>
      <trkpt lat="48.28897" lon="-3.50593">
        <ele>168.80000305176</ele>
        <time>2020-10-18T11:54:41.000Z</time>
      </trkpt>
      <trkpt lat="48.28897" lon="-3.50593">
        <ele>168.80000305176</ele>
        <time>2020-10-18T11:54:42.000Z</time>
      </trkpt>
      <trkpt lat="48.28896" lon="-3.5061">
        <ele>168.39999389648</ele>
        <time>2020-10-18T11:54:43.000Z</time>
      </trkpt>
      <trkpt lat="48.28896" lon="-3.5061">
        <ele>168.39999389648</ele>
        <time>2020-10-18T11:54:44.000Z</time>
      </trkpt>
      <trkpt lat="48.28895" lon="-3.50618">
        <ele>168.39999389648</ele>
        <time>2020-10-18T11:54:45.000Z</time>
      </trkpt>
      <trkpt lat="48.28895" lon="-3.50634">
        <ele>168.19999694824</ele>
        <time>2020-10-18T11:54:46.000Z</time>
      </trkpt>
      <trkpt lat="48.28895" lon="-3.50634">
        <ele>168.19999694824</ele>
        <time>2020-10-18T11:54:47.000Z</time>
      </trkpt>
      <trkpt lat="48.28894" lon="-3.5065">
        <ele>168</ele>
        <time>2020-10-18T11:54:48.000Z</time>
      </trkpt>
      <trkpt lat="48.28894" lon="-3.5065">
        <ele>168</ele>
        <time>2020-10-18T11:54:49.000Z</time>
      </trkpt>
      <trkpt lat="48.28893" lon="-3.50658">
        <ele>167.80000305176</ele>
        <time>2020-10-18T11:54:50.000Z</time>
      </trkpt>
      <trkpt lat="48.28892" lon="-3.50673">
        <ele>167.60000610352</ele>
        <time>2020-10-18T11:54:51.000Z</time>
      </trkpt>
      <trkpt lat="48.28892" lon="-3.50673">
        <ele>167.60000610352</ele>
        <time>2020-10-18T11:54:52.000Z</time>
      </trkpt>
      <trkpt lat="48.28891" lon="-3.50688">
        <ele>167.39999389648</ele>
        <time>2020-10-18T11:54:53.000Z</time>
      </trkpt>
      <trkpt lat="48.28891" lon="-3.50688">
        <ele>167.39999389648</ele>
        <time>2020-10-18T11:54:54.000Z</time>
      </trkpt>
      <trkpt lat="48.2889" lon="-3.50695">
        <ele>167.19999694824</ele>
        <time>2020-10-18T11:54:55.000Z</time>
      </trkpt>
      <trkpt lat="48.2889" lon="-3.50711">
        <ele>166.80000305176</ele>
        <time>2020-10-18T11:54:56.000Z</time>
      </trkpt>
      <trkpt lat="48.2889" lon="-3.50711">
        <ele>166.80000305176</ele>
        <time>2020-10-18T11:54:57.000Z</time>
      </trkpt>
      <trkpt lat="48.28889" lon="-3.50718">
        <ele>166.60000610352</ele>
        <time>2020-10-18T11:54:58.000Z</time>
      </trkpt>
      <trkpt lat="48.28888" lon="-3.50735">
        <ele>166.19999694824</ele>
        <time>2020-10-18T11:54:59.000Z</time>
      </trkpt>
      <trkpt lat="48.28888" lon="-3.50735">
        <ele>166.19999694824</ele>
        <time>2020-10-18T11:55:00.000Z</time>
      </trkpt>
      <trkpt lat="48.28887" lon="-3.50743">
        <ele>166</ele>
        <time>2020-10-18T11:55:01.000Z</time>
      </trkpt>
      <trkpt lat="48.28886" lon="-3.5076">
        <ele>165.60000610352</ele>
        <time>2020-10-18T11:55:02.000Z</time>
      </trkpt>
      <trkpt lat="48.28886" lon="-3.5076">
        <ele>165.60000610352</ele>
        <time>2020-10-18T11:55:03.000Z</time>
      </trkpt>
      <trkpt lat="48.28885" lon="-3.50777">
        <ele>165.39999389648</ele>
        <time>2020-10-18T11:55:04.000Z</time>
      </trkpt>
      <trkpt lat="48.28885" lon="-3.50777">
        <ele>165.39999389648</ele>
        <time>2020-10-18T11:55:05.000Z</time>
      </trkpt>
      <trkpt lat="48.28884" lon="-3.50786">
        <ele>165.19999694824</ele>
        <time>2020-10-18T11:55:06.000Z</time>
      </trkpt>
      <trkpt lat="48.28883" lon="-3.50802">
        <ele>165</ele>
        <time>2020-10-18T11:55:07.000Z</time>
      </trkpt>
      <trkpt lat="48.28883" lon="-3.50802">
        <ele>165</ele>
        <time>2020-10-18T11:55:08.000Z</time>
      </trkpt>
      <trkpt lat="48.28882" lon="-3.50811">
        <ele>165</ele>
        <time>2020-10-18T11:55:09.000Z</time>
      </trkpt>
      <trkpt lat="48.2888" lon="-3.50827">
        <ele>164.60000610352</ele>
        <time>2020-10-18T11:55:10.000Z</time>
      </trkpt>
      <trkpt lat="48.2888" lon="-3.50827">
        <ele>164.60000610352</ele>
        <time>2020-10-18T11:55:11.000Z</time>
      </trkpt>
      <trkpt lat="48.28879" lon="-3.50836">
        <ele>164.60000610352</ele>
        <time>2020-10-18T11:55:12.000Z</time>
      </trkpt>
      <trkpt lat="48.28878" lon="-3.50852">
        <ele>164.39999389648</ele>
        <time>2020-10-18T11:55:13.000Z</time>
      </trkpt>
      <trkpt lat="48.28878" lon="-3.50852">
        <ele>164.39999389648</ele>
        <time>2020-10-18T11:55:14.000Z</time>
      </trkpt>
      <trkpt lat="48.28878" lon="-3.50861">
        <ele>164.60000610352</ele>
        <time>2020-10-18T11:55:15.000Z</time>
      </trkpt>
      <trkpt lat="48.28877" lon="-3.50878">
        <ele>164.60000610352</ele>
        <time>2020-10-18T11:55:16.000Z</time>
      </trkpt>
      <trkpt lat="48.28877" lon="-3.50878">
        <ele>164.60000610352</ele>
        <time>2020-10-18T11:55:17.000Z</time>
      </trkpt>
      <trkpt lat="48.28877" lon="-3.50886">
        <ele>164.80000305176</ele>
        <time>2020-10-18T11:55:18.000Z</time>
      </trkpt>
      <trkpt lat="48.28876" lon="-3.50902">
        <ele>165</ele>
        <time>2020-10-18T11:55:19.000Z</time>
      </trkpt>
      <trkpt lat="48.28876" lon="-3.50902">
        <ele>165</ele>
        <time>2020-10-18T11:55:20.000Z</time>
      </trkpt>
      <trkpt lat="48.28875" lon="-3.50909">
        <ele>165</ele>
        <time>2020-10-18T11:55:21.000Z</time>
      </trkpt>
      <trkpt lat="48.28874" lon="-3.50926">
        <ele>165</ele>
        <time>2020-10-18T11:55:22.000Z</time>
      </trkpt>
      <trkpt lat="48.28874" lon="-3.50926">
        <ele>165</ele>
        <time>2020-10-18T11:55:23.000Z</time>
      </trkpt>
      <trkpt lat="48.28874" lon="-3.50934">
        <ele>165</ele>
        <time>2020-10-18T11:55:24.000Z</time>
      </trkpt>
      <trkpt lat="48.28873" lon="-3.5095">
        <ele>164.80000305176</ele>
        <time>2020-10-18T11:55:25.000Z</time>
      </trkpt>
      <trkpt lat="48.28873" lon="-3.5095">
        <ele>164.80000305176</ele>
        <time>2020-10-18T11:55:26.000Z</time>
      </trkpt>
      <trkpt lat="48.28872" lon="-3.50967">
        <ele>164.60000610352</ele>
        <time>2020-10-18T11:55:27.000Z</time>
      </trkpt>
      <trkpt lat="48.28872" lon="-3.50967">
        <ele>164.60000610352</ele>
        <time>2020-10-18T11:55:28.000Z</time>
      </trkpt>
      <trkpt lat="48.2887" lon="-3.50982">
        <ele>164.39999389648</ele>
        <time>2020-10-18T11:55:29.000Z</time>
      </trkpt>
      <trkpt lat="48.2887" lon="-3.50982">
        <ele>164.39999389648</ele>
        <time>2020-10-18T11:55:30.000Z</time>
      </trkpt>
      <trkpt lat="48.2887" lon="-3.5099">
        <ele>164.39999389648</ele>
        <time>2020-10-18T11:55:31.000Z</time>
      </trkpt>
      <trkpt lat="48.28869" lon="-3.51006">
        <ele>164.19999694824</ele>
        <time>2020-10-18T11:55:32.000Z</time>
      </trkpt>
      <trkpt lat="48.28869" lon="-3.51006">
        <ele>164.19999694824</ele>
        <time>2020-10-18T11:55:33.000Z</time>
      </trkpt>
      <trkpt lat="48.28868" lon="-3.51014">
        <ele>164.19999694824</ele>
        <time>2020-10-18T11:55:34.000Z</time>
      </trkpt>
      <trkpt lat="48.28868" lon="-3.51029">
        <ele>164.19999694824</ele>
        <time>2020-10-18T11:55:35.000Z</time>
      </trkpt>
      <trkpt lat="48.28868" lon="-3.51029">
        <ele>164.19999694824</ele>
        <time>2020-10-18T11:55:36.000Z</time>
      </trkpt>
      <trkpt lat="48.28867" lon="-3.51037">
        <ele>164.19999694824</ele>
        <time>2020-10-18T11:55:37.000Z</time>
      </trkpt>
      <trkpt lat="48.28867" lon="-3.51054">
        <ele>164.19999694824</ele>
        <time>2020-10-18T11:55:38.000Z</time>
      </trkpt>
      <trkpt lat="48.28867" lon="-3.51054">
        <ele>164.19999694824</ele>
        <time>2020-10-18T11:55:39.000Z</time>
      </trkpt>
      <trkpt lat="48.28867" lon="-3.51061">
        <ele>164.19999694824</ele>
        <time>2020-10-18T11:55:40.000Z</time>
      </trkpt>
      <trkpt lat="48.28867" lon="-3.51077">
        <ele>164.19999694824</ele>
        <time>2020-10-18T11:55:41.000Z</time>
      </trkpt>
      <trkpt lat="48.28867" lon="-3.51077">
        <ele>164.19999694824</ele>
        <time>2020-10-18T11:55:42.000Z</time>
      </trkpt>
      <trkpt lat="48.28866" lon="-3.51085">
        <ele>164.19999694824</ele>
        <time>2020-10-18T11:55:43.000Z</time>
      </trkpt>
      <trkpt lat="48.28865" lon="-3.51102">
        <ele>164.19999694824</ele>
        <time>2020-10-18T11:55:44.000Z</time>
      </trkpt>
      <trkpt lat="48.28865" lon="-3.51102">
        <ele>164.19999694824</ele>
        <time>2020-10-18T11:55:45.000Z</time>
      </trkpt>
      <trkpt lat="48.28864" lon="-3.5111">
        <ele>164.39999389648</ele>
        <time>2020-10-18T11:55:46.000Z</time>
      </trkpt>
      <trkpt lat="48.28862" lon="-3.51127">
        <ele>164.60000610352</ele>
        <time>2020-10-18T11:55:47.000Z</time>
      </trkpt>
      <trkpt lat="48.28862" lon="-3.51127">
        <ele>164.60000610352</ele>
        <time>2020-10-18T11:55:48.000Z</time>
      </trkpt>
      <trkpt lat="48.28861" lon="-3.51144">
        <ele>164.60000610352</ele>
        <time>2020-10-18T11:55:49.000Z</time>
      </trkpt>
      <trkpt lat="48.28861" lon="-3.51144">
        <ele>164.60000610352</ele>
        <time>2020-10-18T11:55:50.000Z</time>
      </trkpt>
      <trkpt lat="48.2886" lon="-3.51152">
        <ele>164.80000305176</ele>
        <time>2020-10-18T11:55:51.000Z</time>
      </trkpt>
      <trkpt lat="48.2886" lon="-3.51169">
        <ele>165</ele>
        <time>2020-10-18T11:55:52.000Z</time>
      </trkpt>
      <trkpt lat="48.2886" lon="-3.51169">
        <ele>165</ele>
        <time>2020-10-18T11:55:53.000Z</time>
      </trkpt>
      <trkpt lat="48.28859" lon="-3.51177">
        <ele>165</ele>
        <time>2020-10-18T11:55:54.000Z</time>
      </trkpt>
      <trkpt lat="48.28858" lon="-3.51193">
        <ele>165</ele>
        <time>2020-10-18T11:55:55.000Z</time>
      </trkpt>
      <trkpt lat="48.28858" lon="-3.51193">
        <ele>165</ele>
        <time>2020-10-18T11:55:56.000Z</time>
      </trkpt>
      <trkpt lat="48.28856" lon="-3.51201">
        <ele>165</ele>
        <time>2020-10-18T11:55:57.000Z</time>
      </trkpt>
      <trkpt lat="48.28856" lon="-3.51216">
        <ele>164.80000305176</ele>
        <time>2020-10-18T11:55:58.000Z</time>
      </trkpt>
      <trkpt lat="48.28856" lon="-3.51216">
        <ele>164.80000305176</ele>
        <time>2020-10-18T11:55:59.000Z</time>
      </trkpt>
      <trkpt lat="48.28856" lon="-3.51223">
        <ele>164.60000610352</ele>
        <time>2020-10-18T11:56:00.000Z</time>
      </trkpt>
      <trkpt lat="48.28856" lon="-3.51237">
        <ele>164.39999389648</ele>
        <time>2020-10-18T11:56:01.000Z</time>
      </trkpt>
      <trkpt lat="48.28857" lon="-3.51244">
        <ele>164.39999389648</ele>
        <time>2020-10-18T11:56:02.000Z</time>
      </trkpt>
      <trkpt lat="48.28857" lon="-3.51244">
        <ele>164.39999389648</ele>
        <time>2020-10-18T11:56:03.000Z</time>
      </trkpt>
      <trkpt lat="48.28858" lon="-3.51258">
        <ele>164.19999694824</ele>
        <time>2020-10-18T11:56:04.000Z</time>
      </trkpt>
      <trkpt lat="48.28858" lon="-3.51258">
        <ele>164.19999694824</ele>
        <time>2020-10-18T11:56:05.000Z</time>
      </trkpt>
      <trkpt lat="48.28858" lon="-3.51266">
        <ele>164.19999694824</ele>
        <time>2020-10-18T11:56:06.000Z</time>
      </trkpt>
      <trkpt lat="48.28859" lon="-3.5128">
        <ele>163.60000610352</ele>
        <time>2020-10-18T11:56:07.000Z</time>
      </trkpt>
      <trkpt lat="48.28859" lon="-3.5128">
        <ele>163.60000610352</ele>
        <time>2020-10-18T11:56:08.000Z</time>
      </trkpt>
      <trkpt lat="48.28859" lon="-3.51288">
        <ele>163.39999389648</ele>
        <time>2020-10-18T11:56:09.000Z</time>
      </trkpt>
      <trkpt lat="48.2886" lon="-3.51303">
        <ele>162.80000305176</ele>
        <time>2020-10-18T11:56:10.000Z</time>
      </trkpt>
      <trkpt lat="48.2886" lon="-3.51303">
        <ele>162.80000305176</ele>
        <time>2020-10-18T11:56:11.000Z</time>
      </trkpt>
      <trkpt lat="48.28861" lon="-3.51311">
        <ele>162.60000610352</ele>
        <time>2020-10-18T11:56:12.000Z</time>
      </trkpt>
      <trkpt lat="48.28862" lon="-3.51326">
        <ele>162</ele>
        <time>2020-10-18T11:56:13.000Z</time>
      </trkpt>
      <trkpt lat="48.28863" lon="-3.51334">
        <ele>161.80000305176</ele>
        <time>2020-10-18T11:56:14.000Z</time>
      </trkpt>
      <trkpt lat="48.28863" lon="-3.51334">
        <ele>161.80000305176</ele>
        <time>2020-10-18T11:56:15.000Z</time>
      </trkpt>
      <trkpt lat="48.28863" lon="-3.51342">
        <ele>161.80000305176</ele>
        <time>2020-10-18T11:56:16.000Z</time>
      </trkpt>
      <trkpt lat="48.28865" lon="-3.51356">
        <ele>161.39999389648</ele>
        <time>2020-10-18T11:56:17.000Z</time>
      </trkpt>
      <trkpt lat="48.28865" lon="-3.51356">
        <ele>161.39999389648</ele>
        <time>2020-10-18T11:56:18.000Z</time>
      </trkpt>
      <trkpt lat="48.28865" lon="-3.51364">
        <ele>161.39999389648</ele>
        <time>2020-10-18T11:56:19.000Z</time>
      </trkpt>
      <trkpt lat="48.28867" lon="-3.51378">
        <ele>161</ele>
        <time>2020-10-18T11:56:20.000Z</time>
      </trkpt>
      <trkpt lat="48.28867" lon="-3.51378">
        <ele>161</ele>
        <time>2020-10-18T11:56:21.000Z</time>
      </trkpt>
      <trkpt lat="48.28868" lon="-3.51386">
        <ele>161</ele>
        <time>2020-10-18T11:56:22.000Z</time>
      </trkpt>
      <trkpt lat="48.28871" lon="-3.514">
        <ele>160.60000610352</ele>
        <time>2020-10-18T11:56:23.000Z</time>
      </trkpt>
      <trkpt lat="48.28871" lon="-3.514">
        <ele>160.60000610352</ele>
        <time>2020-10-18T11:56:24.000Z</time>
      </trkpt>
      <trkpt lat="48.28873" lon="-3.51407">
        <ele>160.60000610352</ele>
        <time>2020-10-18T11:56:25.000Z</time>
      </trkpt>
      <trkpt lat="48.28876" lon="-3.5142">
        <ele>160.39999389648</ele>
        <time>2020-10-18T11:56:26.000Z</time>
      </trkpt>
      <trkpt lat="48.28876" lon="-3.5142">
        <ele>160.39999389648</ele>
        <time>2020-10-18T11:56:27.000Z</time>
      </trkpt>
      <trkpt lat="48.28877" lon="-3.51427">
        <ele>160.19999694824</ele>
        <time>2020-10-18T11:56:28.000Z</time>
      </trkpt>
      <trkpt lat="48.2888" lon="-3.51439">
        <ele>160</ele>
        <time>2020-10-18T11:56:29.000Z</time>
      </trkpt>
      <trkpt lat="48.2888" lon="-3.51439">
        <ele>160</ele>
        <time>2020-10-18T11:56:30.000Z</time>
      </trkpt>
      <trkpt lat="48.28881" lon="-3.51444">
        <ele>159.80000305176</ele>
        <time>2020-10-18T11:56:31.000Z</time>
      </trkpt>
      <trkpt lat="48.28883" lon="-3.51456">
        <ele>159.60000610352</ele>
        <time>2020-10-18T11:56:32.000Z</time>
      </trkpt>
      <trkpt lat="48.28883" lon="-3.51456">
        <ele>159.60000610352</ele>
        <time>2020-10-18T11:56:33.000Z</time>
      </trkpt>
      <trkpt lat="48.28885" lon="-3.51462">
        <ele>159.39999389648</ele>
        <time>2020-10-18T11:56:34.000Z</time>
      </trkpt>
      <trkpt lat="48.28888" lon="-3.51473">
        <ele>159</ele>
        <time>2020-10-18T11:56:35.000Z</time>
      </trkpt>
      <trkpt lat="48.28888" lon="-3.51473">
        <ele>159</ele>
        <time>2020-10-18T11:56:36.000Z</time>
      </trkpt>
      <trkpt lat="48.28889" lon="-3.51477">
        <ele>159</ele>
        <time>2020-10-18T11:56:37.000Z</time>
      </trkpt>
      <trkpt lat="48.28892" lon="-3.51488">
        <ele>158.80000305176</ele>
        <time>2020-10-18T11:56:38.000Z</time>
      </trkpt>
      <trkpt lat="48.28892" lon="-3.51488">
        <ele>158.80000305176</ele>
        <time>2020-10-18T11:56:39.000Z</time>
      </trkpt>
      <trkpt lat="48.28893" lon="-3.51494">
        <ele>158.80000305176</ele>
        <time>2020-10-18T11:56:40.000Z</time>
      </trkpt>
      <trkpt lat="48.28895" lon="-3.51504">
        <ele>158.60000610352</ele>
        <time>2020-10-18T11:56:41.000Z</time>
      </trkpt>
      <trkpt lat="48.28895" lon="-3.51504">
        <ele>158.60000610352</ele>
        <time>2020-10-18T11:56:42.000Z</time>
      </trkpt>
      <trkpt lat="48.28896" lon="-3.51509">
        <ele>158.60000610352</ele>
        <time>2020-10-18T11:56:43.000Z</time>
      </trkpt>
      <trkpt lat="48.28898" lon="-3.51518">
        <ele>158.39999389648</ele>
        <time>2020-10-18T11:56:44.000Z</time>
      </trkpt>
      <trkpt lat="48.28898" lon="-3.51518">
        <ele>158.39999389648</ele>
        <time>2020-10-18T11:56:45.000Z</time>
      </trkpt>
      <trkpt lat="48.289" lon="-3.51522">
        <ele>158.39999389648</ele>
        <time>2020-10-18T11:56:46.000Z</time>
      </trkpt>
      <trkpt lat="48.28902" lon="-3.51532">
        <ele>158.19999694824</ele>
        <time>2020-10-18T11:56:47.000Z</time>
      </trkpt>
      <trkpt lat="48.28902" lon="-3.51532">
        <ele>158.19999694824</ele>
        <time>2020-10-18T11:56:48.000Z</time>
      </trkpt>
      <trkpt lat="48.28904" lon="-3.51542">
        <ele>157.80000305176</ele>
        <time>2020-10-18T11:56:49.000Z</time>
      </trkpt>
      <trkpt lat="48.28904" lon="-3.51542">
        <ele>157.80000305176</ele>
        <time>2020-10-18T11:56:50.000Z</time>
      </trkpt>
      <trkpt lat="48.28905" lon="-3.51546">
        <ele>157.80000305176</ele>
        <time>2020-10-18T11:56:51.000Z</time>
      </trkpt>
      <trkpt lat="48.28907" lon="-3.51555">
        <ele>157.80000305176</ele>
        <time>2020-10-18T11:56:52.000Z</time>
      </trkpt>
      <trkpt lat="48.28909" lon="-3.5156">
        <ele>157.60000610352</ele>
        <time>2020-10-18T11:56:53.000Z</time>
      </trkpt>
      <trkpt lat="48.28909" lon="-3.5156">
        <ele>157.60000610352</ele>
        <time>2020-10-18T11:56:54.000Z</time>
      </trkpt>
      <trkpt lat="48.2891" lon="-3.51565">
        <ele>157.60000610352</ele>
        <time>2020-10-18T11:56:55.000Z</time>
      </trkpt>
      <trkpt lat="48.28914" lon="-3.51576">
        <ele>157.60000610352</ele>
        <time>2020-10-18T11:56:56.000Z</time>
      </trkpt>
      <trkpt lat="48.28914" lon="-3.51576">
        <ele>157.60000610352</ele>
        <time>2020-10-18T11:56:57.000Z</time>
      </trkpt>
      <trkpt lat="48.28917" lon="-3.51583">
        <ele>157.60000610352</ele>
        <time>2020-10-18T11:56:58.000Z</time>
      </trkpt>
      <trkpt lat="48.28921" lon="-3.51595">
        <ele>157.60000610352</ele>
        <time>2020-10-18T11:56:59.000Z</time>
      </trkpt>
      <trkpt lat="48.28921" lon="-3.51595">
        <ele>157.60000610352</ele>
        <time>2020-10-18T11:57:00.000Z</time>
      </trkpt>
      <trkpt lat="48.28924" lon="-3.51602">
        <ele>157.60000610352</ele>
        <time>2020-10-18T11:57:01.000Z</time>
      </trkpt>
      <trkpt lat="48.28931" lon="-3.51615">
        <ele>157.60000610352</ele>
        <time>2020-10-18T11:57:02.000Z</time>
      </trkpt>
      <trkpt lat="48.28931" lon="-3.51615">
        <ele>157.60000610352</ele>
        <time>2020-10-18T11:57:03.000Z</time>
      </trkpt>
      <trkpt lat="48.28936" lon="-3.51626">
        <ele>157.60000610352</ele>
        <time>2020-10-18T11:57:04.000Z</time>
      </trkpt>
      <trkpt lat="48.28936" lon="-3.51626">
        <ele>157.60000610352</ele>
        <time>2020-10-18T11:57:05.000Z</time>
      </trkpt>
      <trkpt lat="48.28938" lon="-3.51632">
        <ele>157.39999389648</ele>
        <time>2020-10-18T11:57:06.000Z</time>
      </trkpt>
      <trkpt lat="48.28944" lon="-3.51644">
        <ele>157.19999694824</ele>
        <time>2020-10-18T11:57:07.000Z</time>
      </trkpt>
      <trkpt lat="48.28944" lon="-3.51644">
        <ele>157.19999694824</ele>
        <time>2020-10-18T11:57:08.000Z</time>
      </trkpt>
      <trkpt lat="48.28951" lon="-3.51656">
        <ele>157.19999694824</ele>
        <time>2020-10-18T11:57:09.000Z</time>
      </trkpt>
      <trkpt lat="48.28951" lon="-3.51656">
        <ele>157.19999694824</ele>
        <time>2020-10-18T11:57:10.000Z</time>
      </trkpt>
      <trkpt lat="48.28955" lon="-3.51662">
        <ele>157</ele>
        <time>2020-10-18T11:57:11.000Z</time>
      </trkpt>
      <trkpt lat="48.28964" lon="-3.51674">
        <ele>156.80000305176</ele>
        <time>2020-10-18T11:57:12.000Z</time>
      </trkpt>
      <trkpt lat="48.28968" lon="-3.5168">
        <ele>156.60000610352</ele>
        <time>2020-10-18T11:57:13.000Z</time>
      </trkpt>
      <trkpt lat="48.28968" lon="-3.5168">
        <ele>156.60000610352</ele>
        <time>2020-10-18T11:57:14.000Z</time>
      </trkpt>
      <trkpt lat="48.28971" lon="-3.51685">
        <ele>156.39999389648</ele>
        <time>2020-10-18T11:57:15.000Z</time>
      </trkpt>
      <trkpt lat="48.28977" lon="-3.51696">
        <ele>155.80000305176</ele>
        <time>2020-10-18T11:57:16.000Z</time>
      </trkpt>
      <trkpt lat="48.28977" lon="-3.51696">
        <ele>155.80000305176</ele>
        <time>2020-10-18T11:57:17.000Z</time>
      </trkpt>
      <trkpt lat="48.28979" lon="-3.517">
        <ele>155.60000610352</ele>
        <time>2020-10-18T11:57:18.000Z</time>
      </trkpt>
      <trkpt lat="48.28985" lon="-3.51707">
        <ele>155.19999694824</ele>
        <time>2020-10-18T11:57:19.000Z</time>
      </trkpt>
      <trkpt lat="48.28985" lon="-3.51707">
        <ele>155.19999694824</ele>
        <time>2020-10-18T11:57:20.000Z</time>
      </trkpt>
      <trkpt lat="48.28987" lon="-3.51711">
        <ele>155</ele>
        <time>2020-10-18T11:57:21.000Z</time>
      </trkpt>
      <trkpt lat="48.28991" lon="-3.51722">
        <ele>154.80000305176</ele>
        <time>2020-10-18T11:57:22.000Z</time>
      </trkpt>
      <trkpt lat="48.28991" lon="-3.51722">
        <ele>154.80000305176</ele>
        <time>2020-10-18T11:57:23.000Z</time>
      </trkpt>
      <trkpt lat="48.28993" lon="-3.51726">
        <ele>154.80000305176</ele>
        <time>2020-10-18T11:57:24.000Z</time>
      </trkpt>
      <trkpt lat="48.28998" lon="-3.51733">
        <ele>154.60000610352</ele>
        <time>2020-10-18T11:57:25.000Z</time>
      </trkpt>
      <trkpt lat="48.28998" lon="-3.51733">
        <ele>154.60000610352</ele>
        <time>2020-10-18T11:57:26.000Z</time>
      </trkpt>
      <trkpt lat="48.29001" lon="-3.51735">
        <ele>154.80000305176</ele>
        <time>2020-10-18T11:57:27.000Z</time>
      </trkpt>
      <trkpt lat="48.29008" lon="-3.5174">
        <ele>154.80000305176</ele>
        <time>2020-10-18T11:57:28.000Z</time>
      </trkpt>
      <trkpt lat="48.29008" lon="-3.5174">
        <ele>154.80000305176</ele>
        <time>2020-10-18T11:57:29.000Z</time>
      </trkpt>
      <trkpt lat="48.29012" lon="-3.51742">
        <ele>154.80000305176</ele>
        <time>2020-10-18T11:57:30.000Z</time>
      </trkpt>
      <trkpt lat="48.2902" lon="-3.51747">
        <ele>154.80000305176</ele>
        <time>2020-10-18T11:57:31.000Z</time>
      </trkpt>
      <trkpt lat="48.2902" lon="-3.51747">
        <ele>154.80000305176</ele>
        <time>2020-10-18T11:57:32.000Z</time>
      </trkpt>
      <trkpt lat="48.29024" lon="-3.51751">
        <ele>154.60000610352</ele>
        <time>2020-10-18T11:57:33.000Z</time>
      </trkpt>
      <trkpt lat="48.29033" lon="-3.51758">
        <ele>154.39999389648</ele>
        <time>2020-10-18T11:57:34.000Z</time>
      </trkpt>
      <trkpt lat="48.29033" lon="-3.51758">
        <ele>154.39999389648</ele>
        <time>2020-10-18T11:57:35.000Z</time>
      </trkpt>
      <trkpt lat="48.29037" lon="-3.51762">
        <ele>154.19999694824</ele>
        <time>2020-10-18T11:57:36.000Z</time>
      </trkpt>
      <trkpt lat="48.29046" lon="-3.51769">
        <ele>154</ele>
        <time>2020-10-18T11:57:37.000Z</time>
      </trkpt>
      <trkpt lat="48.29046" lon="-3.51769">
        <ele>154</ele>
        <time>2020-10-18T11:57:38.000Z</time>
      </trkpt>
      <trkpt lat="48.2905" lon="-3.51772">
        <ele>153.80000305176</ele>
        <time>2020-10-18T11:57:39.000Z</time>
      </trkpt>
      <trkpt lat="48.29055" lon="-3.51781">
        <ele>153.39999389648</ele>
        <time>2020-10-18T11:57:40.000Z</time>
      </trkpt>
      <trkpt lat="48.29055" lon="-3.51781">
        <ele>153.39999389648</ele>
        <time>2020-10-18T11:57:41.000Z</time>
      </trkpt>
      <trkpt lat="48.29055" lon="-3.51787">
        <ele>153</ele>
        <time>2020-10-18T11:57:42.000Z</time>
      </trkpt>
      <trkpt lat="48.29055" lon="-3.51798">
        <ele>152.60000610352</ele>
        <time>2020-10-18T11:57:43.000Z</time>
      </trkpt>
      <trkpt lat="48.29055" lon="-3.51798">
        <ele>152.60000610352</ele>
        <time>2020-10-18T11:57:44.000Z</time>
      </trkpt>
      <trkpt lat="48.29055" lon="-3.51809">
        <ele>152</ele>
        <time>2020-10-18T11:57:45.000Z</time>
      </trkpt>
      <trkpt lat="48.29055" lon="-3.51809">
        <ele>152</ele>
        <time>2020-10-18T11:57:46.000Z</time>
      </trkpt>
      <trkpt lat="48.29057" lon="-3.51818">
        <ele>151.60000610352</ele>
        <time>2020-10-18T11:57:47.000Z</time>
      </trkpt>
      <trkpt lat="48.29057" lon="-3.51818">
        <ele>151.60000610352</ele>
        <time>2020-10-18T11:57:48.000Z</time>
      </trkpt>
      <trkpt lat="48.29062" lon="-3.51825">
        <ele>151.19999694824</ele>
        <time>2020-10-18T11:57:49.000Z</time>
      </trkpt>
      <trkpt lat="48.29062" lon="-3.51825">
        <ele>151.19999694824</ele>
        <time>2020-10-18T11:57:50.000Z</time>
      </trkpt>
      <trkpt lat="48.29065" lon="-3.51829">
        <ele>151</ele>
        <time>2020-10-18T11:57:51.000Z</time>
      </trkpt>
      <trkpt lat="48.2907" lon="-3.51836">
        <ele>150.80000305176</ele>
        <time>2020-10-18T11:57:52.000Z</time>
      </trkpt>
      <trkpt lat="48.29072" lon="-3.51839">
        <ele>150.60000610352</ele>
        <time>2020-10-18T11:57:53.000Z</time>
      </trkpt>
      <trkpt lat="48.29072" lon="-3.51839">
        <ele>150.60000610352</ele>
        <time>2020-10-18T11:57:54.000Z</time>
      </trkpt>
      <trkpt lat="48.29075" lon="-3.51842">
        <ele>150.39999389648</ele>
        <time>2020-10-18T11:57:55.000Z</time>
      </trkpt>
      <trkpt lat="48.2908" lon="-3.51848">
        <ele>150</ele>
        <time>2020-10-18T11:57:56.000Z</time>
      </trkpt>
      <trkpt lat="48.2908" lon="-3.51848">
        <ele>150</ele>
        <time>2020-10-18T11:57:57.000Z</time>
      </trkpt>
      <trkpt lat="48.29082" lon="-3.51852">
        <ele>150</ele>
        <time>2020-10-18T11:57:58.000Z</time>
      </trkpt>
      <trkpt lat="48.29086" lon="-3.51859">
        <ele>149.60000610352</ele>
        <time>2020-10-18T11:57:59.000Z</time>
      </trkpt>
      <trkpt lat="48.29086" lon="-3.51859">
        <ele>149.60000610352</ele>
        <time>2020-10-18T11:58:00.000Z</time>
      </trkpt>
      <trkpt lat="48.2909" lon="-3.51867">
        <ele>149.39999389648</ele>
        <time>2020-10-18T11:58:01.000Z</time>
      </trkpt>
      <trkpt lat="48.29093" lon="-3.51871">
        <ele>149.39999389648</ele>
        <time>2020-10-18T11:58:02.000Z</time>
      </trkpt>
      <trkpt lat="48.29093" lon="-3.51871">
        <ele>149.39999389648</ele>
        <time>2020-10-18T11:58:03.000Z</time>
      </trkpt>
      <trkpt lat="48.29097" lon="-3.5188">
        <ele>149.19999694824</ele>
        <time>2020-10-18T11:58:04.000Z</time>
      </trkpt>
      <trkpt lat="48.29097" lon="-3.5188">
        <ele>149.19999694824</ele>
        <time>2020-10-18T11:58:05.000Z</time>
      </trkpt>
      <trkpt lat="48.29098" lon="-3.51884">
        <ele>149.19999694824</ele>
        <time>2020-10-18T11:58:06.000Z</time>
      </trkpt>
      <trkpt lat="48.29102" lon="-3.51893">
        <ele>149.19999694824</ele>
        <time>2020-10-18T11:58:07.000Z</time>
      </trkpt>
      <trkpt lat="48.29102" lon="-3.51893">
        <ele>149.19999694824</ele>
        <time>2020-10-18T11:58:08.000Z</time>
      </trkpt>
      <trkpt lat="48.29104" lon="-3.51898">
        <ele>149.19999694824</ele>
        <time>2020-10-18T11:58:09.000Z</time>
      </trkpt>
      <trkpt lat="48.29107" lon="-3.51908">
        <ele>149</ele>
        <time>2020-10-18T11:58:10.000Z</time>
      </trkpt>
      <trkpt lat="48.29107" lon="-3.51908">
        <ele>149</ele>
        <time>2020-10-18T11:58:11.000Z</time>
      </trkpt>
      <trkpt lat="48.29108" lon="-3.51913">
        <ele>149</ele>
        <time>2020-10-18T11:58:12.000Z</time>
      </trkpt>
      <trkpt lat="48.2911" lon="-3.51925">
        <ele>148.60000610352</ele>
        <time>2020-10-18T11:58:13.000Z</time>
      </trkpt>
      <trkpt lat="48.2911" lon="-3.51925">
        <ele>148.60000610352</ele>
        <time>2020-10-18T11:58:14.000Z</time>
      </trkpt>
      <trkpt lat="48.29111" lon="-3.5193">
        <ele>148.39999389648</ele>
        <time>2020-10-18T11:58:15.000Z</time>
      </trkpt>
      <trkpt lat="48.29112" lon="-3.51936">
        <ele>148.39999389648</ele>
        <time>2020-10-18T11:58:16.000Z</time>
      </trkpt>
      <trkpt lat="48.29114" lon="-3.51949">
        <ele>148.39999389648</ele>
        <time>2020-10-18T11:58:17.000Z</time>
      </trkpt>
      <trkpt lat="48.29114" lon="-3.51949">
        <ele>148.39999389648</ele>
        <time>2020-10-18T11:58:18.000Z</time>
      </trkpt>
      <trkpt lat="48.29115" lon="-3.51955">
        <ele>148.39999389648</ele>
        <time>2020-10-18T11:58:19.000Z</time>
      </trkpt>
      <trkpt lat="48.29117" lon="-3.51968">
        <ele>148.39999389648</ele>
        <time>2020-10-18T11:58:20.000Z</time>
      </trkpt>
      <trkpt lat="48.29117" lon="-3.51968">
        <ele>148.39999389648</ele>
        <time>2020-10-18T11:58:21.000Z</time>
      </trkpt>
      <trkpt lat="48.29117" lon="-3.51975">
        <ele>148.39999389648</ele>
        <time>2020-10-18T11:58:22.000Z</time>
      </trkpt>
      <trkpt lat="48.29119" lon="-3.51987">
        <ele>148.60000610352</ele>
        <time>2020-10-18T11:58:23.000Z</time>
      </trkpt>
      <trkpt lat="48.29119" lon="-3.51987">
        <ele>148.60000610352</ele>
        <time>2020-10-18T11:58:24.000Z</time>
      </trkpt>
      <trkpt lat="48.29119" lon="-3.51995">
        <ele>148.60000610352</ele>
        <time>2020-10-18T11:58:25.000Z</time>
      </trkpt>
      <trkpt lat="48.2912" lon="-3.52008">
        <ele>148.60000610352</ele>
        <time>2020-10-18T11:58:26.000Z</time>
      </trkpt>
      <trkpt lat="48.2912" lon="-3.52008">
        <ele>148.60000610352</ele>
        <time>2020-10-18T11:58:27.000Z</time>
      </trkpt>
      <trkpt lat="48.2912" lon="-3.52015">
        <ele>148.60000610352</ele>
        <time>2020-10-18T11:58:28.000Z</time>
      </trkpt>
      <trkpt lat="48.2912" lon="-3.52027">
        <ele>148.60000610352</ele>
        <time>2020-10-18T11:58:29.000Z</time>
      </trkpt>
      <trkpt lat="48.2912" lon="-3.52027">
        <ele>148.60000610352</ele>
        <time>2020-10-18T11:58:30.000Z</time>
      </trkpt>
      <trkpt lat="48.2912" lon="-3.52033">
        <ele>148.60000610352</ele>
        <time>2020-10-18T11:58:31.000Z</time>
      </trkpt>
      <trkpt lat="48.2912" lon="-3.52045">
        <ele>148.60000610352</ele>
        <time>2020-10-18T11:58:32.000Z</time>
      </trkpt>
      <trkpt lat="48.2912" lon="-3.52045">
        <ele>148.60000610352</ele>
        <time>2020-10-18T11:58:33.000Z</time>
      </trkpt>
      <trkpt lat="48.2912" lon="-3.5205">
        <ele>148.60000610352</ele>
        <time>2020-10-18T11:58:34.000Z</time>
      </trkpt>
      <trkpt lat="48.2912" lon="-3.52062">
        <ele>148.60000610352</ele>
        <time>2020-10-18T11:58:35.000Z</time>
      </trkpt>
      <trkpt lat="48.2912" lon="-3.52062">
        <ele>148.60000610352</ele>
        <time>2020-10-18T11:58:36.000Z</time>
      </trkpt>
      <trkpt lat="48.2912" lon="-3.52067">
        <ele>148.60000610352</ele>
        <time>2020-10-18T11:58:37.000Z</time>
      </trkpt>
      <trkpt lat="48.29118" lon="-3.52078">
        <ele>148.60000610352</ele>
        <time>2020-10-18T11:58:38.000Z</time>
      </trkpt>
      <trkpt lat="48.29118" lon="-3.52078">
        <ele>148.60000610352</ele>
        <time>2020-10-18T11:58:39.000Z</time>
      </trkpt>
      <trkpt lat="48.29116" lon="-3.52084">
        <ele>148.60000610352</ele>
        <time>2020-10-18T11:58:40.000Z</time>
      </trkpt>
      <trkpt lat="48.29114" lon="-3.52096">
        <ele>148.80000305176</ele>
        <time>2020-10-18T11:58:41.000Z</time>
      </trkpt>
      <trkpt lat="48.29114" lon="-3.52096">
        <ele>148.80000305176</ele>
        <time>2020-10-18T11:58:42.000Z</time>
      </trkpt>
      <trkpt lat="48.29113" lon="-3.52103">
        <ele>148.80000305176</ele>
        <time>2020-10-18T11:58:43.000Z</time>
      </trkpt>
      <trkpt lat="48.29109" lon="-3.52114">
        <ele>148.80000305176</ele>
        <time>2020-10-18T11:58:44.000Z</time>
      </trkpt>
      <trkpt lat="48.29109" lon="-3.52114">
        <ele>148.80000305176</ele>
        <time>2020-10-18T11:58:45.000Z</time>
      </trkpt>
      <trkpt lat="48.29108" lon="-3.52119">
        <ele>148.80000305176</ele>
        <time>2020-10-18T11:58:46.000Z</time>
      </trkpt>
      <trkpt lat="48.29106" lon="-3.52125">
        <ele>148.80000305176</ele>
        <time>2020-10-18T11:58:47.000Z</time>
      </trkpt>
      <trkpt lat="48.29104" lon="-3.52131">
        <ele>148.80000305176</ele>
        <time>2020-10-18T11:58:48.000Z</time>
      </trkpt>
      <trkpt lat="48.291" lon="-3.52143">
        <ele>148.60000610352</ele>
        <time>2020-10-18T11:58:49.000Z</time>
      </trkpt>
      <trkpt lat="48.291" lon="-3.52143">
        <ele>148.60000610352</ele>
        <time>2020-10-18T11:58:50.000Z</time>
      </trkpt>
      <trkpt lat="48.29098" lon="-3.52149">
        <ele>148.60000610352</ele>
        <time>2020-10-18T11:58:51.000Z</time>
      </trkpt>
      <trkpt lat="48.29094" lon="-3.5216">
        <ele>148.60000610352</ele>
        <time>2020-10-18T11:58:52.000Z</time>
      </trkpt>
      <trkpt lat="48.29094" lon="-3.5216">
        <ele>148.60000610352</ele>
        <time>2020-10-18T11:58:53.000Z</time>
      </trkpt>
      <trkpt lat="48.29091" lon="-3.52165">
        <ele>148.39999389648</ele>
        <time>2020-10-18T11:58:54.000Z</time>
      </trkpt>
      <trkpt lat="48.29085" lon="-3.52174">
        <ele>148.19999694824</ele>
        <time>2020-10-18T11:58:55.000Z</time>
      </trkpt>
      <trkpt lat="48.29085" lon="-3.52174">
        <ele>148.19999694824</ele>
        <time>2020-10-18T11:58:56.000Z</time>
      </trkpt>
      <trkpt lat="48.29081" lon="-3.5218">
        <ele>148</ele>
        <time>2020-10-18T11:58:57.000Z</time>
      </trkpt>
      <trkpt lat="48.29075" lon="-3.52191">
        <ele>147.60000610352</ele>
        <time>2020-10-18T11:58:58.000Z</time>
      </trkpt>
      <trkpt lat="48.29075" lon="-3.52191">
        <ele>147.60000610352</ele>
        <time>2020-10-18T11:58:59.000Z</time>
      </trkpt>
      <trkpt lat="48.29071" lon="-3.52197">
        <ele>147.19999694824</ele>
        <time>2020-10-18T11:59:00.000Z</time>
      </trkpt>
      <trkpt lat="48.29065" lon="-3.52209">
        <ele>146.80000305176</ele>
        <time>2020-10-18T11:59:01.000Z</time>
      </trkpt>
      <trkpt lat="48.29065" lon="-3.52209">
        <ele>146.80000305176</ele>
        <time>2020-10-18T11:59:02.000Z</time>
      </trkpt>
      <trkpt lat="48.29063" lon="-3.52215">
        <ele>146.60000610352</ele>
        <time>2020-10-18T11:59:03.000Z</time>
      </trkpt>
      <trkpt lat="48.29059" lon="-3.52227">
        <ele>146.39999389648</ele>
        <time>2020-10-18T11:59:04.000Z</time>
      </trkpt>
      <trkpt lat="48.29059" lon="-3.52227">
        <ele>146.39999389648</ele>
        <time>2020-10-18T11:59:05.000Z</time>
      </trkpt>
      <trkpt lat="48.29056" lon="-3.52232">
        <ele>146.19999694824</ele>
        <time>2020-10-18T11:59:06.000Z</time>
      </trkpt>
      <trkpt lat="48.29051" lon="-3.52244">
        <ele>145.80000305176</ele>
        <time>2020-10-18T11:59:07.000Z</time>
      </trkpt>
      <trkpt lat="48.29051" lon="-3.52244">
        <ele>145.80000305176</ele>
        <time>2020-10-18T11:59:08.000Z</time>
      </trkpt>
      <trkpt lat="48.29048" lon="-3.5225">
        <ele>145.80000305176</ele>
        <time>2020-10-18T11:59:09.000Z</time>
      </trkpt>
      <trkpt lat="48.29042" lon="-3.52262">
        <ele>145.39999389648</ele>
        <time>2020-10-18T11:59:10.000Z</time>
      </trkpt>
      <trkpt lat="48.29039" lon="-3.52269">
        <ele>145.19999694824</ele>
        <time>2020-10-18T11:59:11.000Z</time>
      </trkpt>
      <trkpt lat="48.29039" lon="-3.52269">
        <ele>145.19999694824</ele>
        <time>2020-10-18T11:59:12.000Z</time>
      </trkpt>
      <trkpt lat="48.29036" lon="-3.52276">
        <ele>145</ele>
        <time>2020-10-18T11:59:13.000Z</time>
      </trkpt>
      <trkpt lat="48.2903" lon="-3.52289">
        <ele>144.60000610352</ele>
        <time>2020-10-18T11:59:14.000Z</time>
      </trkpt>
      <trkpt lat="48.2903" lon="-3.52289">
        <ele>144.60000610352</ele>
        <time>2020-10-18T11:59:15.000Z</time>
      </trkpt>
      <trkpt lat="48.29027" lon="-3.52296">
        <ele>144.39999389648</ele>
        <time>2020-10-18T11:59:16.000Z</time>
      </trkpt>
      <trkpt lat="48.29024" lon="-3.52302">
        <ele>144.39999389648</ele>
        <time>2020-10-18T11:59:17.000Z</time>
      </trkpt>
      <trkpt lat="48.29021" lon="-3.52308">
        <ele>144.19999694824</ele>
        <time>2020-10-18T11:59:18.000Z</time>
      </trkpt>
      <trkpt lat="48.29015" lon="-3.52322">
        <ele>143.80000305176</ele>
        <time>2020-10-18T11:59:19.000Z</time>
      </trkpt>
      <trkpt lat="48.29015" lon="-3.52322">
        <ele>143.80000305176</ele>
        <time>2020-10-18T11:59:20.000Z</time>
      </trkpt>
      <trkpt lat="48.29012" lon="-3.52329">
        <ele>143.60000610352</ele>
        <time>2020-10-18T11:59:21.000Z</time>
      </trkpt>
      <trkpt lat="48.29006" lon="-3.52342">
        <ele>143.39999389648</ele>
        <time>2020-10-18T11:59:22.000Z</time>
      </trkpt>
      <trkpt lat="48.29006" lon="-3.52342">
        <ele>143.39999389648</ele>
        <time>2020-10-18T11:59:23.000Z</time>
      </trkpt>
      <trkpt lat="48.29004" lon="-3.52348">
        <ele>143.19999694824</ele>
        <time>2020-10-18T11:59:24.000Z</time>
      </trkpt>
      <trkpt lat="48.28999" lon="-3.52363">
        <ele>142.80000305176</ele>
        <time>2020-10-18T11:59:25.000Z</time>
      </trkpt>
      <trkpt lat="48.28999" lon="-3.52363">
        <ele>142.80000305176</ele>
        <time>2020-10-18T11:59:26.000Z</time>
      </trkpt>
      <trkpt lat="48.28997" lon="-3.5237">
        <ele>142.60000610352</ele>
        <time>2020-10-18T11:59:27.000Z</time>
      </trkpt>
      <trkpt lat="48.28992" lon="-3.52385">
        <ele>142.19999694824</ele>
        <time>2020-10-18T11:59:28.000Z</time>
      </trkpt>
      <trkpt lat="48.28992" lon="-3.52385">
        <ele>142.19999694824</ele>
        <time>2020-10-18T11:59:29.000Z</time>
      </trkpt>
      <trkpt lat="48.2899" lon="-3.52392">
        <ele>142</ele>
        <time>2020-10-18T11:59:30.000Z</time>
      </trkpt>
      <trkpt lat="48.28986" lon="-3.52406">
        <ele>141.80000305176</ele>
        <time>2020-10-18T11:59:31.000Z</time>
      </trkpt>
      <trkpt lat="48.28986" lon="-3.52406">
        <ele>141.80000305176</ele>
        <time>2020-10-18T11:59:32.000Z</time>
      </trkpt>
      <trkpt lat="48.28984" lon="-3.52423">
        <ele>141.60000610352</ele>
        <time>2020-10-18T11:59:33.000Z</time>
      </trkpt>
      <trkpt lat="48.28984" lon="-3.52423">
        <ele>141.60000610352</ele>
        <time>2020-10-18T11:59:34.000Z</time>
      </trkpt>
      <trkpt lat="48.28983" lon="-3.52431">
        <ele>141.39999389648</ele>
        <time>2020-10-18T11:59:35.000Z</time>
      </trkpt>
      <trkpt lat="48.2898" lon="-3.52447">
        <ele>141</ele>
        <time>2020-10-18T11:59:36.000Z</time>
      </trkpt>
      <trkpt lat="48.2898" lon="-3.52447">
        <ele>141</ele>
        <time>2020-10-18T11:59:37.000Z</time>
      </trkpt>
      <trkpt lat="48.2898" lon="-3.52455">
        <ele>141</ele>
        <time>2020-10-18T11:59:38.000Z</time>
      </trkpt>
      <trkpt lat="48.28978" lon="-3.52472">
        <ele>140.60000610352</ele>
        <time>2020-10-18T11:59:39.000Z</time>
      </trkpt>
      <trkpt lat="48.28978" lon="-3.52472">
        <ele>140.60000610352</ele>
        <time>2020-10-18T11:59:40.000Z</time>
      </trkpt>
      <trkpt lat="48.28977" lon="-3.5248">
        <ele>140.19999694824</ele>
        <time>2020-10-18T11:59:41.000Z</time>
      </trkpt>
      <trkpt lat="48.28975" lon="-3.52496">
        <ele>139.80000305176</ele>
        <time>2020-10-18T11:59:42.000Z</time>
      </trkpt>
      <trkpt lat="48.28975" lon="-3.52496">
        <ele>139.80000305176</ele>
        <time>2020-10-18T11:59:43.000Z</time>
      </trkpt>
      <trkpt lat="48.28976" lon="-3.52504">
        <ele>139.60000610352</ele>
        <time>2020-10-18T11:59:44.000Z</time>
      </trkpt>
      <trkpt lat="48.28976" lon="-3.52521">
        <ele>139.19999694824</ele>
        <time>2020-10-18T11:59:45.000Z</time>
      </trkpt>
      <trkpt lat="48.28976" lon="-3.52521">
        <ele>139.19999694824</ele>
        <time>2020-10-18T11:59:46.000Z</time>
      </trkpt>
      <trkpt lat="48.28976" lon="-3.52537">
        <ele>139.19999694824</ele>
        <time>2020-10-18T11:59:47.000Z</time>
      </trkpt>
      <trkpt lat="48.28976" lon="-3.52537">
        <ele>139.19999694824</ele>
        <time>2020-10-18T11:59:48.000Z</time>
      </trkpt>
      <trkpt lat="48.28976" lon="-3.52554">
        <ele>139</ele>
        <time>2020-10-18T11:59:49.000Z</time>
      </trkpt>
      <trkpt lat="48.28977" lon="-3.52562">
        <ele>138.80000305176</ele>
        <time>2020-10-18T11:59:50.000Z</time>
      </trkpt>
      <trkpt lat="48.28977" lon="-3.52562">
        <ele>138.80000305176</ele>
        <time>2020-10-18T11:59:51.000Z</time>
      </trkpt>
      <trkpt lat="48.28978" lon="-3.5257">
        <ele>138.60000610352</ele>
        <time>2020-10-18T11:59:52.000Z</time>
      </trkpt>
      <trkpt lat="48.28981" lon="-3.52585">
        <ele>138.39999389648</ele>
        <time>2020-10-18T11:59:53.000Z</time>
      </trkpt>
      <trkpt lat="48.28981" lon="-3.52585">
        <ele>138.39999389648</ele>
        <time>2020-10-18T11:59:54.000Z</time>
      </trkpt>
      <trkpt lat="48.28982" lon="-3.52593">
        <ele>138.19999694824</ele>
        <time>2020-10-18T11:59:55.000Z</time>
      </trkpt>
      <trkpt lat="48.28985" lon="-3.52609">
        <ele>138.19999694824</ele>
        <time>2020-10-18T11:59:56.000Z</time>
      </trkpt>
      <trkpt lat="48.28985" lon="-3.52609">
        <ele>138.19999694824</ele>
        <time>2020-10-18T11:59:57.000Z</time>
      </trkpt>
      <trkpt lat="48.28986" lon="-3.52618">
        <ele>138.39999389648</ele>
        <time>2020-10-18T11:59:58.000Z</time>
      </trkpt>
      <trkpt lat="48.28989" lon="-3.52636">
        <ele>138.19999694824</ele>
        <time>2020-10-18T11:59:59.000Z</time>
      </trkpt>
      <trkpt lat="48.28989" lon="-3.52636">
        <ele>138.19999694824</ele>
        <time>2020-10-18T12:00:00.000Z</time>
      </trkpt>
      <trkpt lat="48.2899" lon="-3.52645">
        <ele>138.19999694824</ele>
        <time>2020-10-18T12:00:01.000Z</time>
      </trkpt>
      <trkpt lat="48.28993" lon="-3.52662">
        <ele>137.80000305176</ele>
        <time>2020-10-18T12:00:02.000Z</time>
      </trkpt>
      <trkpt lat="48.28993" lon="-3.52662">
        <ele>137.80000305176</ele>
        <time>2020-10-18T12:00:03.000Z</time>
      </trkpt>
      <trkpt lat="48.28996" lon="-3.52678">
        <ele>137.60000610352</ele>
        <time>2020-10-18T12:00:04.000Z</time>
      </trkpt>
      <trkpt lat="48.28996" lon="-3.52678">
        <ele>137.60000610352</ele>
        <time>2020-10-18T12:00:05.000Z</time>
      </trkpt>
      <trkpt lat="48.28998" lon="-3.52686">
        <ele>137.39999389648</ele>
        <time>2020-10-18T12:00:06.000Z</time>
      </trkpt>
      <trkpt lat="48.29" lon="-3.52701">
        <ele>137.39999389648</ele>
        <time>2020-10-18T12:00:07.000Z</time>
      </trkpt>
      <trkpt lat="48.29" lon="-3.52701">
        <ele>137.39999389648</ele>
        <time>2020-10-18T12:00:08.000Z</time>
      </trkpt>
      <trkpt lat="48.29001" lon="-3.52709">
        <ele>137.19999694824</ele>
        <time>2020-10-18T12:00:09.000Z</time>
      </trkpt>
      <trkpt lat="48.29003" lon="-3.52723">
        <ele>137.19999694824</ele>
        <time>2020-10-18T12:00:10.000Z</time>
      </trkpt>
      <trkpt lat="48.29003" lon="-3.52723">
        <ele>137.19999694824</ele>
        <time>2020-10-18T12:00:11.000Z</time>
      </trkpt>
      <trkpt lat="48.29003" lon="-3.5273">
        <ele>137</ele>
        <time>2020-10-18T12:00:12.000Z</time>
      </trkpt>
      <trkpt lat="48.29005" lon="-3.52742">
        <ele>137</ele>
        <time>2020-10-18T12:00:13.000Z</time>
      </trkpt>
      <trkpt lat="48.29005" lon="-3.52742">
        <ele>137</ele>
        <time>2020-10-18T12:00:14.000Z</time>
      </trkpt>
      <trkpt lat="48.29007" lon="-3.52746">
        <ele>137</ele>
        <time>2020-10-18T12:00:15.000Z</time>
      </trkpt>
      <trkpt lat="48.29009" lon="-3.52754">
        <ele>137</ele>
        <time>2020-10-18T12:00:16.000Z</time>
      </trkpt>
      <trkpt lat="48.29009" lon="-3.52754">
        <ele>137</ele>
        <time>2020-10-18T12:00:17.000Z</time>
      </trkpt>
      <trkpt lat="48.2901" lon="-3.52758">
        <ele>137</ele>
        <time>2020-10-18T12:00:18.000Z</time>
      </trkpt>
      <trkpt lat="48.29012" lon="-3.52763">
        <ele>137</ele>
        <time>2020-10-18T12:00:19.000Z</time>
      </trkpt>
      <trkpt lat="48.29012" lon="-3.52763">
        <ele>137</ele>
        <time>2020-10-18T12:00:20.000Z</time>
      </trkpt>
      <trkpt lat="48.29013" lon="-3.52765">
        <ele>137</ele>
        <time>2020-10-18T12:00:21.000Z</time>
      </trkpt>
      <trkpt lat="48.29014" lon="-3.52771">
        <ele>137</ele>
        <time>2020-10-18T12:00:22.000Z</time>
      </trkpt>
      <trkpt lat="48.29014" lon="-3.52771">
        <ele>137</ele>
        <time>2020-10-18T12:00:23.000Z</time>
      </trkpt>
      <trkpt lat="48.29014" lon="-3.52775">
        <ele>137</ele>
        <time>2020-10-18T12:00:24.000Z</time>
      </trkpt>
      <trkpt lat="48.29014" lon="-3.52785">
        <ele>136.80000305176</ele>
        <time>2020-10-18T12:00:25.000Z</time>
      </trkpt>
      <trkpt lat="48.29014" lon="-3.52785">
        <ele>136.80000305176</ele>
        <time>2020-10-18T12:00:26.000Z</time>
      </trkpt>
      <trkpt lat="48.29013" lon="-3.52789">
        <ele>136.80000305176</ele>
        <time>2020-10-18T12:00:27.000Z</time>
      </trkpt>
      <trkpt lat="48.29012" lon="-3.528">
        <ele>136.60000610352</ele>
        <time>2020-10-18T12:00:28.000Z</time>
      </trkpt>
      <trkpt lat="48.29012" lon="-3.528">
        <ele>136.60000610352</ele>
        <time>2020-10-18T12:00:29.000Z</time>
      </trkpt>
      <trkpt lat="48.29013" lon="-3.52805">
        <ele>136.60000610352</ele>
        <time>2020-10-18T12:00:30.000Z</time>
      </trkpt>
      <trkpt lat="48.29015" lon="-3.52815">
        <ele>136.39999389648</ele>
        <time>2020-10-18T12:00:31.000Z</time>
      </trkpt>
      <trkpt lat="48.29015" lon="-3.52815">
        <ele>136.39999389648</ele>
        <time>2020-10-18T12:00:32.000Z</time>
      </trkpt>
      <trkpt lat="48.29015" lon="-3.52819">
        <ele>136.39999389648</ele>
        <time>2020-10-18T12:00:33.000Z</time>
      </trkpt>
      <trkpt lat="48.29016" lon="-3.52829">
        <ele>136.19999694824</ele>
        <time>2020-10-18T12:00:34.000Z</time>
      </trkpt>
      <trkpt lat="48.29016" lon="-3.52829">
        <ele>136.19999694824</ele>
        <time>2020-10-18T12:00:35.000Z</time>
      </trkpt>
      <trkpt lat="48.29017" lon="-3.52834">
        <ele>136.19999694824</ele>
        <time>2020-10-18T12:00:36.000Z</time>
      </trkpt>
      <trkpt lat="48.29016" lon="-3.52844">
        <ele>136</ele>
        <time>2020-10-18T12:00:37.000Z</time>
      </trkpt>
      <trkpt lat="48.29016" lon="-3.52844">
        <ele>136</ele>
        <time>2020-10-18T12:00:38.000Z</time>
      </trkpt>
      <trkpt lat="48.29015" lon="-3.52849">
        <ele>136</ele>
        <time>2020-10-18T12:00:39.000Z</time>
      </trkpt>
      <trkpt lat="48.29014" lon="-3.52861">
        <ele>136</ele>
        <time>2020-10-18T12:00:40.000Z</time>
      </trkpt>
      <trkpt lat="48.29014" lon="-3.52861">
        <ele>136</ele>
        <time>2020-10-18T12:00:41.000Z</time>
      </trkpt>
      <trkpt lat="48.29014" lon="-3.52866">
        <ele>136</ele>
        <time>2020-10-18T12:00:42.000Z</time>
      </trkpt>
      <trkpt lat="48.29013" lon="-3.52878">
        <ele>136</ele>
        <time>2020-10-18T12:00:43.000Z</time>
      </trkpt>
      <trkpt lat="48.29013" lon="-3.52878">
        <ele>136</ele>
        <time>2020-10-18T12:00:44.000Z</time>
      </trkpt>
      <trkpt lat="48.29012" lon="-3.52883">
        <ele>136</ele>
        <time>2020-10-18T12:00:45.000Z</time>
      </trkpt>
      <trkpt lat="48.2901" lon="-3.52895">
        <ele>135.80000305176</ele>
        <time>2020-10-18T12:00:46.000Z</time>
      </trkpt>
      <trkpt lat="48.2901" lon="-3.52895">
        <ele>135.80000305176</ele>
        <time>2020-10-18T12:00:47.000Z</time>
      </trkpt>
      <trkpt lat="48.29008" lon="-3.52907">
        <ele>135.80000305176</ele>
        <time>2020-10-18T12:00:48.000Z</time>
      </trkpt>
      <trkpt lat="48.29007" lon="-3.52913">
        <ele>135.60000610352</ele>
        <time>2020-10-18T12:00:49.000Z</time>
      </trkpt>
      <trkpt lat="48.29007" lon="-3.52913">
        <ele>135.60000610352</ele>
        <time>2020-10-18T12:00:50.000Z</time>
      </trkpt>
      <trkpt lat="48.29005" lon="-3.52919">
        <ele>135.60000610352</ele>
        <time>2020-10-18T12:00:51.000Z</time>
      </trkpt>
      <trkpt lat="48.29002" lon="-3.5293">
        <ele>135.39999389648</ele>
        <time>2020-10-18T12:00:52.000Z</time>
      </trkpt>
      <trkpt lat="48.29002" lon="-3.5293">
        <ele>135.39999389648</ele>
        <time>2020-10-18T12:00:53.000Z</time>
      </trkpt>
      <trkpt lat="48.29001" lon="-3.52936">
        <ele>135.39999389648</ele>
        <time>2020-10-18T12:00:54.000Z</time>
      </trkpt>
      <trkpt lat="48.28999" lon="-3.52947">
        <ele>135.39999389648</ele>
        <time>2020-10-18T12:00:55.000Z</time>
      </trkpt>
      <trkpt lat="48.28999" lon="-3.52947">
        <ele>135.39999389648</ele>
        <time>2020-10-18T12:00:56.000Z</time>
      </trkpt>
      <trkpt lat="48.28996" lon="-3.52959">
        <ele>135</ele>
        <time>2020-10-18T12:00:57.000Z</time>
      </trkpt>
      <trkpt lat="48.28996" lon="-3.52959">
        <ele>135</ele>
        <time>2020-10-18T12:00:58.000Z</time>
      </trkpt>
      <trkpt lat="48.28995" lon="-3.52966">
        <ele>134.80000305176</ele>
        <time>2020-10-18T12:00:59.000Z</time>
      </trkpt>
      <trkpt lat="48.28991" lon="-3.52979">
        <ele>134.39999389648</ele>
        <time>2020-10-18T12:01:00.000Z</time>
      </trkpt>
      <trkpt lat="48.28991" lon="-3.52979">
        <ele>134.39999389648</ele>
        <time>2020-10-18T12:01:01.000Z</time>
      </trkpt>
      <trkpt lat="48.28989" lon="-3.52986">
        <ele>134.19999694824</ele>
        <time>2020-10-18T12:01:02.000Z</time>
      </trkpt>
      <trkpt lat="48.28984" lon="-3.53">
        <ele>133.80000305176</ele>
        <time>2020-10-18T12:01:03.000Z</time>
      </trkpt>
      <trkpt lat="48.28984" lon="-3.53">
        <ele>133.80000305176</ele>
        <time>2020-10-18T12:01:04.000Z</time>
      </trkpt>
      <trkpt lat="48.28982" lon="-3.53007">
        <ele>133.60000610352</ele>
        <time>2020-10-18T12:01:05.000Z</time>
      </trkpt>
      <trkpt lat="48.28978" lon="-3.53022">
        <ele>133</ele>
        <time>2020-10-18T12:01:06.000Z</time>
      </trkpt>
      <trkpt lat="48.28978" lon="-3.53022">
        <ele>133</ele>
        <time>2020-10-18T12:01:07.000Z</time>
      </trkpt>
      <trkpt lat="48.28976" lon="-3.53029">
        <ele>133</ele>
        <time>2020-10-18T12:01:08.000Z</time>
      </trkpt>
      <trkpt lat="48.28971" lon="-3.53044">
        <ele>132.60000610352</ele>
        <time>2020-10-18T12:01:09.000Z</time>
      </trkpt>
      <trkpt lat="48.28971" lon="-3.53044">
        <ele>132.60000610352</ele>
        <time>2020-10-18T12:01:10.000Z</time>
      </trkpt>
      <trkpt lat="48.28968" lon="-3.5305">
        <ele>132.60000610352</ele>
        <time>2020-10-18T12:01:11.000Z</time>
      </trkpt>
      <trkpt lat="48.28963" lon="-3.53064">
        <ele>132.19999694824</ele>
        <time>2020-10-18T12:01:12.000Z</time>
      </trkpt>
      <trkpt lat="48.28963" lon="-3.53064">
        <ele>132.19999694824</ele>
        <time>2020-10-18T12:01:13.000Z</time>
      </trkpt>
      <trkpt lat="48.2896" lon="-3.5307">
        <ele>132</ele>
        <time>2020-10-18T12:01:14.000Z</time>
      </trkpt>
      <trkpt lat="48.28956" lon="-3.53084">
        <ele>131.80000305176</ele>
        <time>2020-10-18T12:01:15.000Z</time>
      </trkpt>
      <trkpt lat="48.28956" lon="-3.53084">
        <ele>131.80000305176</ele>
        <time>2020-10-18T12:01:16.000Z</time>
      </trkpt>
      <trkpt lat="48.28953" lon="-3.5309">
        <ele>131.60000610352</ele>
        <time>2020-10-18T12:01:17.000Z</time>
      </trkpt>
      <trkpt lat="48.28947" lon="-3.53104">
        <ele>131.19999694824</ele>
        <time>2020-10-18T12:01:18.000Z</time>
      </trkpt>
      <trkpt lat="48.28947" lon="-3.53104">
        <ele>131.19999694824</ele>
        <time>2020-10-18T12:01:19.000Z</time>
      </trkpt>
      <trkpt lat="48.28945" lon="-3.5311">
        <ele>131</ele>
        <time>2020-10-18T12:01:20.000Z</time>
      </trkpt>
      <trkpt lat="48.28941" lon="-3.53124">
        <ele>130.80000305176</ele>
        <time>2020-10-18T12:01:21.000Z</time>
      </trkpt>
      <trkpt lat="48.28941" lon="-3.53124">
        <ele>130.80000305176</ele>
        <time>2020-10-18T12:01:22.000Z</time>
      </trkpt>
      <trkpt lat="48.28939" lon="-3.53131">
        <ele>130.80000305176</ele>
        <time>2020-10-18T12:01:23.000Z</time>
      </trkpt>
      <trkpt lat="48.28935" lon="-3.53145">
        <ele>130.60000610352</ele>
        <time>2020-10-18T12:01:24.000Z</time>
      </trkpt>
      <trkpt lat="48.28935" lon="-3.53145">
        <ele>130.60000610352</ele>
        <time>2020-10-18T12:01:25.000Z</time>
      </trkpt>
      <trkpt lat="48.28934" lon="-3.53152">
        <ele>130.39999389648</ele>
        <time>2020-10-18T12:01:26.000Z</time>
      </trkpt>
      <trkpt lat="48.28928" lon="-3.53166">
        <ele>130.19999694824</ele>
        <time>2020-10-18T12:01:27.000Z</time>
      </trkpt>
      <trkpt lat="48.28928" lon="-3.53166">
        <ele>130.19999694824</ele>
        <time>2020-10-18T12:01:28.000Z</time>
      </trkpt>
      <trkpt lat="48.28925" lon="-3.53172">
        <ele>130</ele>
        <time>2020-10-18T12:01:29.000Z</time>
      </trkpt>
      <trkpt lat="48.2892" lon="-3.53186">
        <ele>129.60000610352</ele>
        <time>2020-10-18T12:01:30.000Z</time>
      </trkpt>
      <trkpt lat="48.2892" lon="-3.53186">
        <ele>129.60000610352</ele>
        <time>2020-10-18T12:01:31.000Z</time>
      </trkpt>
      <trkpt lat="48.28916" lon="-3.532">
        <ele>129.39999389648</ele>
        <time>2020-10-18T12:01:32.000Z</time>
      </trkpt>
      <trkpt lat="48.28916" lon="-3.532">
        <ele>129.39999389648</ele>
        <time>2020-10-18T12:01:33.000Z</time>
      </trkpt>
      <trkpt lat="48.28913" lon="-3.53207">
        <ele>129.19999694824</ele>
        <time>2020-10-18T12:01:34.000Z</time>
      </trkpt>
      <trkpt lat="48.28909" lon="-3.5322">
        <ele>128.80000305176</ele>
        <time>2020-10-18T12:01:35.000Z</time>
      </trkpt>
      <trkpt lat="48.28909" lon="-3.5322">
        <ele>128.80000305176</ele>
        <time>2020-10-18T12:01:36.000Z</time>
      </trkpt>
      <trkpt lat="48.28906" lon="-3.53227">
        <ele>128.60000610352</ele>
        <time>2020-10-18T12:01:37.000Z</time>
      </trkpt>
      <trkpt lat="48.28903" lon="-3.53241">
        <ele>128.19999694824</ele>
        <time>2020-10-18T12:01:38.000Z</time>
      </trkpt>
      <trkpt lat="48.28903" lon="-3.53241">
        <ele>128.19999694824</ele>
        <time>2020-10-18T12:01:39.000Z</time>
      </trkpt>
      <trkpt lat="48.28901" lon="-3.53248">
        <ele>128.19999694824</ele>
        <time>2020-10-18T12:01:40.000Z</time>
      </trkpt>
      <trkpt lat="48.28897" lon="-3.53262">
        <ele>127.80000305176</ele>
        <time>2020-10-18T12:01:41.000Z</time>
      </trkpt>
      <trkpt lat="48.28897" lon="-3.53262">
        <ele>127.80000305176</ele>
        <time>2020-10-18T12:01:42.000Z</time>
      </trkpt>
      <trkpt lat="48.28895" lon="-3.53269">
        <ele>127.59999847412</ele>
        <time>2020-10-18T12:01:43.000Z</time>
      </trkpt>
      <trkpt lat="48.28891" lon="-3.53283">
        <ele>127.80000305176</ele>
        <time>2020-10-18T12:01:44.000Z</time>
      </trkpt>
      <trkpt lat="48.28891" lon="-3.53283">
        <ele>127.80000305176</ele>
        <time>2020-10-18T12:01:45.000Z</time>
      </trkpt>
      <trkpt lat="48.28889" lon="-3.53289">
        <ele>127.80000305176</ele>
        <time>2020-10-18T12:01:46.000Z</time>
      </trkpt>
      <trkpt lat="48.28884" lon="-3.53303">
        <ele>127.80000305176</ele>
        <time>2020-10-18T12:01:47.000Z</time>
      </trkpt>
      <trkpt lat="48.28884" lon="-3.53303">
        <ele>127.80000305176</ele>
        <time>2020-10-18T12:01:48.000Z</time>
      </trkpt>
      <trkpt lat="48.28878" lon="-3.53316">
        <ele>128</ele>
        <time>2020-10-18T12:01:49.000Z</time>
      </trkpt>
      <trkpt lat="48.28878" lon="-3.53316">
        <ele>128</ele>
        <time>2020-10-18T12:01:50.000Z</time>
      </trkpt>
      <trkpt lat="48.28876" lon="-3.53322">
        <ele>128</ele>
        <time>2020-10-18T12:01:51.000Z</time>
      </trkpt>
      <trkpt lat="48.28872" lon="-3.53335">
        <ele>127.80000305176</ele>
        <time>2020-10-18T12:01:52.000Z</time>
      </trkpt>
      <trkpt lat="48.28872" lon="-3.53335">
        <ele>127.80000305176</ele>
        <time>2020-10-18T12:01:53.000Z</time>
      </trkpt>
      <trkpt lat="48.2887" lon="-3.53341">
        <ele>127.80000305176</ele>
        <time>2020-10-18T12:01:54.000Z</time>
      </trkpt>
      <trkpt lat="48.28866" lon="-3.53353">
        <ele>127.80000305176</ele>
        <time>2020-10-18T12:01:55.000Z</time>
      </trkpt>
      <trkpt lat="48.28866" lon="-3.53353">
        <ele>127.80000305176</ele>
        <time>2020-10-18T12:01:56.000Z</time>
      </trkpt>
      <trkpt lat="48.28864" lon="-3.53359">
        <ele>127.59999847412</ele>
        <time>2020-10-18T12:01:57.000Z</time>
      </trkpt>
      <trkpt lat="48.2886" lon="-3.53371">
        <ele>127.59999847412</ele>
        <time>2020-10-18T12:01:58.000Z</time>
      </trkpt>
      <trkpt lat="48.2886" lon="-3.53371">
        <ele>127.59999847412</ele>
        <time>2020-10-18T12:01:59.000Z</time>
      </trkpt>
      <trkpt lat="48.28859" lon="-3.53377">
        <ele>127.59999847412</ele>
        <time>2020-10-18T12:02:00.000Z</time>
      </trkpt>
      <trkpt lat="48.28858" lon="-3.53384">
        <ele>127.40000152588</ele>
        <time>2020-10-18T12:02:01.000Z</time>
      </trkpt>
      <trkpt lat="48.28857" lon="-3.5339">
        <ele>127.40000152588</ele>
        <time>2020-10-18T12:02:02.000Z</time>
      </trkpt>
      <trkpt lat="48.28856" lon="-3.534">
        <ele>127.19999694824</ele>
        <time>2020-10-18T12:02:03.000Z</time>
      </trkpt>
      <trkpt lat="48.28856" lon="-3.534">
        <ele>127.19999694824</ele>
        <time>2020-10-18T12:02:04.000Z</time>
      </trkpt>
      <trkpt lat="48.28857" lon="-3.53406">
        <ele>127.19999694824</ele>
        <time>2020-10-18T12:02:05.000Z</time>
      </trkpt>
      <trkpt lat="48.28857" lon="-3.53415">
        <ele>127.19999694824</ele>
        <time>2020-10-18T12:02:06.000Z</time>
      </trkpt>
      <trkpt lat="48.28857" lon="-3.53415">
        <ele>127.19999694824</ele>
        <time>2020-10-18T12:02:07.000Z</time>
      </trkpt>
      <trkpt lat="48.28857" lon="-3.53421">
        <ele>127</ele>
        <time>2020-10-18T12:02:08.000Z</time>
      </trkpt>
      <trkpt lat="48.28852" lon="-3.53432">
        <ele>127</ele>
        <time>2020-10-18T12:02:09.000Z</time>
      </trkpt>
      <trkpt lat="48.28852" lon="-3.53432">
        <ele>127</ele>
        <time>2020-10-18T12:02:10.000Z</time>
      </trkpt>
      <trkpt lat="48.28851" lon="-3.53438">
        <ele>127.19999694824</ele>
        <time>2020-10-18T12:02:11.000Z</time>
      </trkpt>
      <trkpt lat="48.28848" lon="-3.53449">
        <ele>127.19999694824</ele>
        <time>2020-10-18T12:02:12.000Z</time>
      </trkpt>
      <trkpt lat="48.28848" lon="-3.53449">
        <ele>127.19999694824</ele>
        <time>2020-10-18T12:02:13.000Z</time>
      </trkpt>
      <trkpt lat="48.28845" lon="-3.53454">
        <ele>127.19999694824</ele>
        <time>2020-10-18T12:02:14.000Z</time>
      </trkpt>
      <trkpt lat="48.2884" lon="-3.53464">
        <ele>127</ele>
        <time>2020-10-18T12:02:15.000Z</time>
      </trkpt>
      <trkpt lat="48.2884" lon="-3.53464">
        <ele>127</ele>
        <time>2020-10-18T12:02:16.000Z</time>
      </trkpt>
      <trkpt lat="48.28836" lon="-3.53468">
        <ele>126.59999847412</ele>
        <time>2020-10-18T12:02:17.000Z</time>
      </trkpt>
      <trkpt lat="48.28827" lon="-3.53477">
        <ele>126.19999694824</ele>
        <time>2020-10-18T12:02:18.000Z</time>
      </trkpt>
      <trkpt lat="48.28827" lon="-3.53477">
        <ele>126.19999694824</ele>
        <time>2020-10-18T12:02:19.000Z</time>
      </trkpt>
      <trkpt lat="48.28823" lon="-3.53483">
        <ele>125.80000305176</ele>
        <time>2020-10-18T12:02:20.000Z</time>
      </trkpt>
      <trkpt lat="48.28817" lon="-3.53494">
        <ele>125.59999847412</ele>
        <time>2020-10-18T12:02:21.000Z</time>
      </trkpt>
      <trkpt lat="48.28817" lon="-3.53494">
        <ele>125.59999847412</ele>
        <time>2020-10-18T12:02:22.000Z</time>
      </trkpt>
      <trkpt lat="48.28814" lon="-3.53499">
        <ele>125.40000152588</ele>
        <time>2020-10-18T12:02:23.000Z</time>
      </trkpt>
      <trkpt lat="48.28812" lon="-3.5351">
        <ele>125.40000152588</ele>
        <time>2020-10-18T12:02:24.000Z</time>
      </trkpt>
      <trkpt lat="48.28812" lon="-3.5351">
        <ele>125.40000152588</ele>
        <time>2020-10-18T12:02:25.000Z</time>
      </trkpt>
      <trkpt lat="48.28812" lon="-3.53515">
        <ele>125.40000152588</ele>
        <time>2020-10-18T12:02:26.000Z</time>
      </trkpt>
      <trkpt lat="48.28813" lon="-3.53522">
        <ele>125.59999847412</ele>
        <time>2020-10-18T12:02:27.000Z</time>
      </trkpt>
      <trkpt lat="48.28812" lon="-3.53525">
        <ele>125.80000305176</ele>
        <time>2020-10-18T12:02:28.000Z</time>
      </trkpt>
      <trkpt lat="48.28812" lon="-3.53525">
        <ele>125.80000305176</ele>
        <time>2020-10-18T12:02:29.000Z</time>
      </trkpt>
      <trkpt lat="48.28812" lon="-3.53528">
        <ele>125.80000305176</ele>
        <time>2020-10-18T12:02:30.000Z</time>
      </trkpt>
      <trkpt lat="48.28812" lon="-3.53535">
        <ele>126</ele>
        <time>2020-10-18T12:02:31.000Z</time>
      </trkpt>
      <trkpt lat="48.28812" lon="-3.53535">
        <ele>126</ele>
        <time>2020-10-18T12:02:32.000Z</time>
      </trkpt>
      <trkpt lat="48.28811" lon="-3.53538">
        <ele>126</ele>
        <time>2020-10-18T12:02:33.000Z</time>
      </trkpt>
      <trkpt lat="48.28811" lon="-3.53548">
        <ele>126.19999694824</ele>
        <time>2020-10-18T12:02:34.000Z</time>
      </trkpt>
      <trkpt lat="48.28811" lon="-3.53548">
        <ele>126.19999694824</ele>
        <time>2020-10-18T12:02:35.000Z</time>
      </trkpt>
      <trkpt lat="48.28809" lon="-3.53557">
        <ele>126.19999694824</ele>
        <time>2020-10-18T12:02:36.000Z</time>
      </trkpt>
      <trkpt lat="48.28809" lon="-3.53557">
        <ele>126.19999694824</ele>
        <time>2020-10-18T12:02:37.000Z</time>
      </trkpt>
      <trkpt lat="48.28808" lon="-3.53561">
        <ele>126.19999694824</ele>
        <time>2020-10-18T12:02:38.000Z</time>
      </trkpt>
      <trkpt lat="48.28806" lon="-3.5357">
        <ele>126.40000152588</ele>
        <time>2020-10-18T12:02:39.000Z</time>
      </trkpt>
      <trkpt lat="48.28806" lon="-3.5357">
        <ele>126.40000152588</ele>
        <time>2020-10-18T12:02:40.000Z</time>
      </trkpt>
      <trkpt lat="48.28805" lon="-3.53575">
        <ele>126.40000152588</ele>
        <time>2020-10-18T12:02:41.000Z</time>
      </trkpt>
      <trkpt lat="48.28802" lon="-3.53584">
        <ele>126.40000152588</ele>
        <time>2020-10-18T12:02:42.000Z</time>
      </trkpt>
      <trkpt lat="48.28802" lon="-3.53584">
        <ele>126.40000152588</ele>
        <time>2020-10-18T12:02:43.000Z</time>
      </trkpt>
      <trkpt lat="48.288" lon="-3.53589">
        <ele>126.40000152588</ele>
        <time>2020-10-18T12:02:44.000Z</time>
      </trkpt>
      <trkpt lat="48.28797" lon="-3.53601">
        <ele>126.40000152588</ele>
        <time>2020-10-18T12:02:45.000Z</time>
      </trkpt>
      <trkpt lat="48.28797" lon="-3.53601">
        <ele>126.40000152588</ele>
        <time>2020-10-18T12:02:46.000Z</time>
      </trkpt>
      <trkpt lat="48.28795" lon="-3.53606">
        <ele>126.40000152588</ele>
        <time>2020-10-18T12:02:47.000Z</time>
      </trkpt>
      <trkpt lat="48.2879" lon="-3.53619">
        <ele>126.40000152588</ele>
        <time>2020-10-18T12:02:48.000Z</time>
      </trkpt>
      <trkpt lat="48.2879" lon="-3.53619">
        <ele>126.40000152588</ele>
        <time>2020-10-18T12:02:49.000Z</time>
      </trkpt>
      <trkpt lat="48.28789" lon="-3.53626">
        <ele>126.40000152588</ele>
        <time>2020-10-18T12:02:50.000Z</time>
      </trkpt>
      <trkpt lat="48.28785" lon="-3.5364">
        <ele>126.40000152588</ele>
        <time>2020-10-18T12:02:51.000Z</time>
      </trkpt>
      <trkpt lat="48.28785" lon="-3.5364">
        <ele>126.40000152588</ele>
        <time>2020-10-18T12:02:52.000Z</time>
      </trkpt>
      <trkpt lat="48.28783" lon="-3.53646">
        <ele>126.59999847412</ele>
        <time>2020-10-18T12:02:53.000Z</time>
      </trkpt>
      <trkpt lat="48.28781" lon="-3.53661">
        <ele>126.80000305176</ele>
        <time>2020-10-18T12:02:54.000Z</time>
      </trkpt>
      <trkpt lat="48.28781" lon="-3.53661">
        <ele>126.80000305176</ele>
        <time>2020-10-18T12:02:55.000Z</time>
      </trkpt>
      <trkpt lat="48.2878" lon="-3.53669">
        <ele>126.80000305176</ele>
        <time>2020-10-18T12:02:56.000Z</time>
      </trkpt>
      <trkpt lat="48.28778" lon="-3.53684">
        <ele>127.59999847412</ele>
        <time>2020-10-18T12:02:57.000Z</time>
      </trkpt>
      <trkpt lat="48.28778" lon="-3.53684">
        <ele>127.59999847412</ele>
        <time>2020-10-18T12:02:58.000Z</time>
      </trkpt>
      <trkpt lat="48.28776" lon="-3.537">
        <ele>127.59999847412</ele>
        <time>2020-10-18T12:02:59.000Z</time>
      </trkpt>
      <trkpt lat="48.28776" lon="-3.537">
        <ele>127.59999847412</ele>
        <time>2020-10-18T12:03:00.000Z</time>
      </trkpt>
      <trkpt lat="48.28774" lon="-3.53708">
        <ele>127.59999847412</ele>
        <time>2020-10-18T12:03:01.000Z</time>
      </trkpt>
      <trkpt lat="48.28772" lon="-3.53723">
        <ele>127.40000152588</ele>
        <time>2020-10-18T12:03:02.000Z</time>
      </trkpt>
      <trkpt lat="48.28772" lon="-3.53723">
        <ele>127.40000152588</ele>
        <time>2020-10-18T12:03:03.000Z</time>
      </trkpt>
      <trkpt lat="48.2877" lon="-3.53737">
        <ele>127.40000152588</ele>
        <time>2020-10-18T12:03:04.000Z</time>
      </trkpt>
      <trkpt lat="48.2877" lon="-3.53737">
        <ele>127.40000152588</ele>
        <time>2020-10-18T12:03:05.000Z</time>
      </trkpt>
      <trkpt lat="48.28768" lon="-3.53746">
        <ele>127.40000152588</ele>
        <time>2020-10-18T12:03:06.000Z</time>
      </trkpt>
      <trkpt lat="48.28764" lon="-3.53761">
        <ele>127</ele>
        <time>2020-10-18T12:03:07.000Z</time>
      </trkpt>
      <trkpt lat="48.28764" lon="-3.53761">
        <ele>127</ele>
        <time>2020-10-18T12:03:08.000Z</time>
      </trkpt>
      <trkpt lat="48.28761" lon="-3.53769">
        <ele>126.80000305176</ele>
        <time>2020-10-18T12:03:09.000Z</time>
      </trkpt>
      <trkpt lat="48.28757" lon="-3.53784">
        <ele>126.80000305176</ele>
        <time>2020-10-18T12:03:10.000Z</time>
      </trkpt>
      <trkpt lat="48.28757" lon="-3.53784">
        <ele>126.80000305176</ele>
        <time>2020-10-18T12:03:11.000Z</time>
      </trkpt>
      <trkpt lat="48.28755" lon="-3.53793">
        <ele>126.80000305176</ele>
        <time>2020-10-18T12:03:12.000Z</time>
      </trkpt>
      <trkpt lat="48.28751" lon="-3.5381">
        <ele>126.80000305176</ele>
        <time>2020-10-18T12:03:13.000Z</time>
      </trkpt>
      <trkpt lat="48.28751" lon="-3.5381">
        <ele>126.80000305176</ele>
        <time>2020-10-18T12:03:14.000Z</time>
      </trkpt>
      <trkpt lat="48.2875" lon="-3.53819">
        <ele>127</ele>
        <time>2020-10-18T12:03:15.000Z</time>
      </trkpt>
      <trkpt lat="48.28748" lon="-3.53828">
        <ele>127</ele>
        <time>2020-10-18T12:03:16.000Z</time>
      </trkpt>
      <trkpt lat="48.28746" lon="-3.53846">
        <ele>127.19999694824</ele>
        <time>2020-10-18T12:03:17.000Z</time>
      </trkpt>
      <trkpt lat="48.28746" lon="-3.53846">
        <ele>127.19999694824</ele>
        <time>2020-10-18T12:03:18.000Z</time>
      </trkpt>
      <trkpt lat="48.28744" lon="-3.53855">
        <ele>127.19999694824</ele>
        <time>2020-10-18T12:03:19.000Z</time>
      </trkpt>
      <trkpt lat="48.28742" lon="-3.53873">
        <ele>127</ele>
        <time>2020-10-18T12:03:20.000Z</time>
      </trkpt>
      <trkpt lat="48.28742" lon="-3.53873">
        <ele>127</ele>
        <time>2020-10-18T12:03:21.000Z</time>
      </trkpt>
      <trkpt lat="48.2874" lon="-3.53882">
        <ele>126.80000305176</ele>
        <time>2020-10-18T12:03:22.000Z</time>
      </trkpt>
      <trkpt lat="48.28739" lon="-3.53899">
        <ele>126.59999847412</ele>
        <time>2020-10-18T12:03:23.000Z</time>
      </trkpt>
      <trkpt lat="48.28739" lon="-3.53899">
        <ele>126.59999847412</ele>
        <time>2020-10-18T12:03:24.000Z</time>
      </trkpt>
      <trkpt lat="48.28738" lon="-3.53908">
        <ele>126.59999847412</ele>
        <time>2020-10-18T12:03:25.000Z</time>
      </trkpt>
      <trkpt lat="48.28735" lon="-3.53924">
        <ele>126.40000152588</ele>
        <time>2020-10-18T12:03:26.000Z</time>
      </trkpt>
      <trkpt lat="48.28735" lon="-3.53924">
        <ele>126.40000152588</ele>
        <time>2020-10-18T12:03:27.000Z</time>
      </trkpt>
      <trkpt lat="48.28734" lon="-3.53932">
        <ele>126.19999694824</ele>
        <time>2020-10-18T12:03:28.000Z</time>
      </trkpt>
      <trkpt lat="48.28732" lon="-3.53949">
        <ele>125.80000305176</ele>
        <time>2020-10-18T12:03:29.000Z</time>
      </trkpt>
      <trkpt lat="48.28732" lon="-3.53949">
        <ele>125.80000305176</ele>
        <time>2020-10-18T12:03:30.000Z</time>
      </trkpt>
      <trkpt lat="48.28731" lon="-3.53967">
        <ele>125.59999847412</ele>
        <time>2020-10-18T12:03:31.000Z</time>
      </trkpt>
      <trkpt lat="48.28731" lon="-3.53967">
        <ele>125.59999847412</ele>
        <time>2020-10-18T12:03:32.000Z</time>
      </trkpt>
      <trkpt lat="48.2873" lon="-3.53975">
        <ele>125.19999694824</ele>
        <time>2020-10-18T12:03:33.000Z</time>
      </trkpt>
      <trkpt lat="48.28728" lon="-3.53992">
        <ele>124.59999847412</ele>
        <time>2020-10-18T12:03:34.000Z</time>
      </trkpt>
      <trkpt lat="48.28728" lon="-3.53992">
        <ele>124.59999847412</ele>
        <time>2020-10-18T12:03:35.000Z</time>
      </trkpt>
      <trkpt lat="48.28725" lon="-3.54009">
        <ele>124</ele>
        <time>2020-10-18T12:03:36.000Z</time>
      </trkpt>
      <trkpt lat="48.28725" lon="-3.54009">
        <ele>124</ele>
        <time>2020-10-18T12:03:37.000Z</time>
      </trkpt>
      <trkpt lat="48.28721" lon="-3.54026">
        <ele>123.40000152588</ele>
        <time>2020-10-18T12:03:38.000Z</time>
      </trkpt>
      <trkpt lat="48.28721" lon="-3.54026">
        <ele>123.40000152588</ele>
        <time>2020-10-18T12:03:39.000Z</time>
      </trkpt>
      <trkpt lat="48.28717" lon="-3.54042">
        <ele>123.19999694824</ele>
        <time>2020-10-18T12:03:40.000Z</time>
      </trkpt>
      <trkpt lat="48.28717" lon="-3.54042">
        <ele>123.19999694824</ele>
        <time>2020-10-18T12:03:41.000Z</time>
      </trkpt>
      <trkpt lat="48.28715" lon="-3.5405">
        <ele>123</ele>
        <time>2020-10-18T12:03:42.000Z</time>
      </trkpt>
      <trkpt lat="48.28712" lon="-3.54065">
        <ele>122.59999847412</ele>
        <time>2020-10-18T12:03:43.000Z</time>
      </trkpt>
      <trkpt lat="48.28712" lon="-3.54065">
        <ele>122.59999847412</ele>
        <time>2020-10-18T12:03:44.000Z</time>
      </trkpt>
      <trkpt lat="48.28709" lon="-3.5408">
        <ele>122</ele>
        <time>2020-10-18T12:03:45.000Z</time>
      </trkpt>
      <trkpt lat="48.28709" lon="-3.54087">
        <ele>121.80000305176</ele>
        <time>2020-10-18T12:03:46.000Z</time>
      </trkpt>
      <trkpt lat="48.28708" lon="-3.54093">
        <ele>121.40000152588</ele>
        <time>2020-10-18T12:03:47.000Z</time>
      </trkpt>
      <trkpt lat="48.28707" lon="-3.54099">
        <ele>121</ele>
        <time>2020-10-18T12:03:48.000Z</time>
      </trkpt>
      <trkpt lat="48.28707" lon="-3.54099">
        <ele>121</ele>
        <time>2020-10-18T12:03:49.000Z</time>
      </trkpt>
      <trkpt lat="48.28706" lon="-3.54106">
        <ele>121</ele>
        <time>2020-10-18T12:03:50.000Z</time>
      </trkpt>
      <trkpt lat="48.28703" lon="-3.54119">
        <ele>121.19999694824</ele>
        <time>2020-10-18T12:03:51.000Z</time>
      </trkpt>
      <trkpt lat="48.28703" lon="-3.54119">
        <ele>121.19999694824</ele>
        <time>2020-10-18T12:03:52.000Z</time>
      </trkpt>
      <trkpt lat="48.28701" lon="-3.54125">
        <ele>121.40000152588</ele>
        <time>2020-10-18T12:03:53.000Z</time>
      </trkpt>
      <trkpt lat="48.28698" lon="-3.54136">
        <ele>121.59999847412</ele>
        <time>2020-10-18T12:03:54.000Z</time>
      </trkpt>
      <trkpt lat="48.28698" lon="-3.54136">
        <ele>121.59999847412</ele>
        <time>2020-10-18T12:03:55.000Z</time>
      </trkpt>
      <trkpt lat="48.28697" lon="-3.54142">
        <ele>121.59999847412</ele>
        <time>2020-10-18T12:03:56.000Z</time>
      </trkpt>
      <trkpt lat="48.28695" lon="-3.54154">
        <ele>121.80000305176</ele>
        <time>2020-10-18T12:03:57.000Z</time>
      </trkpt>
      <trkpt lat="48.28695" lon="-3.54154">
        <ele>121.80000305176</ele>
        <time>2020-10-18T12:03:58.000Z</time>
      </trkpt>
      <trkpt lat="48.28692" lon="-3.54166">
        <ele>122</ele>
        <time>2020-10-18T12:03:59.000Z</time>
      </trkpt>
      <trkpt lat="48.28692" lon="-3.54166">
        <ele>122</ele>
        <time>2020-10-18T12:04:00.000Z</time>
      </trkpt>
      <trkpt lat="48.2869" lon="-3.54176">
        <ele>122.19999694824</ele>
        <time>2020-10-18T12:04:01.000Z</time>
      </trkpt>
      <trkpt lat="48.2869" lon="-3.54176">
        <ele>122.19999694824</ele>
        <time>2020-10-18T12:04:02.000Z</time>
      </trkpt>
      <trkpt lat="48.28689" lon="-3.54181">
        <ele>122.19999694824</ele>
        <time>2020-10-18T12:04:03.000Z</time>
      </trkpt>
      <trkpt lat="48.28687" lon="-3.5419">
        <ele>122.40000152588</ele>
        <time>2020-10-18T12:04:04.000Z</time>
      </trkpt>
      <trkpt lat="48.28687" lon="-3.5419">
        <ele>122.40000152588</ele>
        <time>2020-10-18T12:04:05.000Z</time>
      </trkpt>
      <trkpt lat="48.28685" lon="-3.54196">
        <ele>122.59999847412</ele>
        <time>2020-10-18T12:04:06.000Z</time>
      </trkpt>
      <trkpt lat="48.28685" lon="-3.54196">
        <ele>122.59999847412</ele>
        <time>2020-10-18T12:04:07.000Z</time>
      </trkpt>
      <trkpt lat="48.28683" lon="-3.542">
        <ele>122.59999847412</ele>
        <time>2020-10-18T12:04:08.000Z</time>
      </trkpt>
      <trkpt lat="48.28683" lon="-3.542">
        <ele>122.59999847412</ele>
        <time>2020-10-18T12:04:09.000Z</time>
      </trkpt>
      <trkpt lat="48.28681" lon="-3.54202">
        <ele>122.59999847412</ele>
        <time>2020-10-18T12:04:10.000Z</time>
      </trkpt>
      <trkpt lat="48.28681" lon="-3.54202">
        <ele>122.59999847412</ele>
        <time>2020-10-18T12:04:11.000Z</time>
      </trkpt>
      <trkpt lat="48.28679" lon="-3.54202">
        <ele>122.59999847412</ele>
        <time>2020-10-18T12:04:12.000Z</time>
      </trkpt>
      <trkpt lat="48.28673" lon="-3.54202">
        <ele>122.40000152588</ele>
        <time>2020-10-18T12:04:13.000Z</time>
      </trkpt>
      <trkpt lat="48.28673" lon="-3.54202">
        <ele>122.40000152588</ele>
        <time>2020-10-18T12:04:14.000Z</time>
      </trkpt>
      <trkpt lat="48.28665" lon="-3.54202">
        <ele>122</ele>
        <time>2020-10-18T12:04:15.000Z</time>
      </trkpt>
      <trkpt lat="48.28665" lon="-3.54202">
        <ele>122</ele>
        <time>2020-10-18T12:04:16.000Z</time>
      </trkpt>
      <trkpt lat="48.28661" lon="-3.54202">
        <ele>121.80000305176</ele>
        <time>2020-10-18T12:04:17.000Z</time>
      </trkpt>
      <trkpt lat="48.28653" lon="-3.54201">
        <ele>121.59999847412</ele>
        <time>2020-10-18T12:04:18.000Z</time>
      </trkpt>
      <trkpt lat="48.28653" lon="-3.54201">
        <ele>121.59999847412</ele>
        <time>2020-10-18T12:04:19.000Z</time>
      </trkpt>
      <trkpt lat="48.2865" lon="-3.54201">
        <ele>121.40000152588</ele>
        <time>2020-10-18T12:04:20.000Z</time>
      </trkpt>
      <trkpt lat="48.28642" lon="-3.54198">
        <ele>121.19999694824</ele>
        <time>2020-10-18T12:04:21.000Z</time>
      </trkpt>
      <trkpt lat="48.28642" lon="-3.54198">
        <ele>121.19999694824</ele>
        <time>2020-10-18T12:04:22.000Z</time>
      </trkpt>
      <trkpt lat="48.28634" lon="-3.54189">
        <ele>121</ele>
        <time>2020-10-18T12:04:23.000Z</time>
      </trkpt>
      <trkpt lat="48.28634" lon="-3.54189">
        <ele>121</ele>
        <time>2020-10-18T12:04:24.000Z</time>
      </trkpt>
      <trkpt lat="48.2863" lon="-3.54183">
        <ele>120.80000305176</ele>
        <time>2020-10-18T12:04:25.000Z</time>
      </trkpt>
      <trkpt lat="48.28622" lon="-3.5417">
        <ele>120.19999694824</ele>
        <time>2020-10-18T12:04:26.000Z</time>
      </trkpt>
      <trkpt lat="48.28622" lon="-3.5417">
        <ele>120.19999694824</ele>
        <time>2020-10-18T12:04:27.000Z</time>
      </trkpt>
      <trkpt lat="48.28619" lon="-3.54162">
        <ele>120</ele>
        <time>2020-10-18T12:04:28.000Z</time>
      </trkpt>
      <trkpt lat="48.28613" lon="-3.54149">
        <ele>120</ele>
        <time>2020-10-18T12:04:29.000Z</time>
      </trkpt>
      <trkpt lat="48.28613" lon="-3.54149">
        <ele>120</ele>
        <time>2020-10-18T12:04:30.000Z</time>
      </trkpt>
      <trkpt lat="48.2861" lon="-3.54143">
        <ele>120</ele>
        <time>2020-10-18T12:04:31.000Z</time>
      </trkpt>
      <trkpt lat="48.28604" lon="-3.5413">
        <ele>120</ele>
        <time>2020-10-18T12:04:32.000Z</time>
      </trkpt>
      <trkpt lat="48.28604" lon="-3.5413">
        <ele>120</ele>
        <time>2020-10-18T12:04:33.000Z</time>
      </trkpt>
      <trkpt lat="48.28602" lon="-3.54124">
        <ele>120</ele>
        <time>2020-10-18T12:04:34.000Z</time>
      </trkpt>
      <trkpt lat="48.28597" lon="-3.54113">
        <ele>120</ele>
        <time>2020-10-18T12:04:35.000Z</time>
      </trkpt>
      <trkpt lat="48.28597" lon="-3.54113">
        <ele>120</ele>
        <time>2020-10-18T12:04:36.000Z</time>
      </trkpt>
      <trkpt lat="48.28592" lon="-3.54103">
        <ele>120.19999694824</ele>
        <time>2020-10-18T12:04:37.000Z</time>
      </trkpt>
      <trkpt lat="48.28592" lon="-3.54103">
        <ele>120.19999694824</ele>
        <time>2020-10-18T12:04:38.000Z</time>
      </trkpt>
      <trkpt lat="48.28589" lon="-3.54099">
        <ele>120.19999694824</ele>
        <time>2020-10-18T12:04:39.000Z</time>
      </trkpt>
      <trkpt lat="48.28585" lon="-3.54095">
        <ele>120.19999694824</ele>
        <time>2020-10-18T12:04:40.000Z</time>
      </trkpt>
      <trkpt lat="48.28585" lon="-3.54095">
        <ele>120.19999694824</ele>
        <time>2020-10-18T12:04:41.000Z</time>
      </trkpt>
      <trkpt lat="48.28583" lon="-3.54094">
        <ele>120.19999694824</ele>
        <time>2020-10-18T12:04:42.000Z</time>
      </trkpt>
      <trkpt lat="48.2858" lon="-3.54094">
        <ele>120.19999694824</ele>
        <time>2020-10-18T12:04:43.000Z</time>
      </trkpt>
      <trkpt lat="48.2858" lon="-3.54094">
        <ele>120.19999694824</ele>
        <time>2020-10-18T12:04:44.000Z</time>
      </trkpt>
      <trkpt lat="48.28577" lon="-3.54096">
        <ele>120.19999694824</ele>
        <time>2020-10-18T12:04:45.000Z</time>
      </trkpt>
      <trkpt lat="48.28573" lon="-3.54101">
        <ele>120.40000152588</ele>
        <time>2020-10-18T12:04:46.000Z</time>
      </trkpt>
      <trkpt lat="48.28573" lon="-3.54101">
        <ele>120.40000152588</ele>
        <time>2020-10-18T12:04:47.000Z</time>
      </trkpt>
      <trkpt lat="48.28568" lon="-3.54109">
        <ele>120.59999847412</ele>
        <time>2020-10-18T12:04:48.000Z</time>
      </trkpt>
      <trkpt lat="48.28568" lon="-3.54109">
        <ele>120.59999847412</ele>
        <time>2020-10-18T12:04:49.000Z</time>
      </trkpt>
      <trkpt lat="48.28563" lon="-3.54116">
        <ele>120.80000305176</ele>
        <time>2020-10-18T12:04:50.000Z</time>
      </trkpt>
      <trkpt lat="48.28563" lon="-3.54116">
        <ele>120.80000305176</ele>
        <time>2020-10-18T12:04:51.000Z</time>
      </trkpt>
      <trkpt lat="48.2856" lon="-3.5412">
        <ele>120.80000305176</ele>
        <time>2020-10-18T12:04:52.000Z</time>
      </trkpt>
      <trkpt lat="48.28555" lon="-3.54128">
        <ele>121.19999694824</ele>
        <time>2020-10-18T12:04:53.000Z</time>
      </trkpt>
      <trkpt lat="48.28555" lon="-3.54128">
        <ele>121.19999694824</ele>
        <time>2020-10-18T12:04:54.000Z</time>
      </trkpt>
      <trkpt lat="48.2855" lon="-3.54138">
        <ele>121.40000152588</ele>
        <time>2020-10-18T12:04:55.000Z</time>
      </trkpt>
      <trkpt lat="48.2855" lon="-3.54138">
        <ele>121.40000152588</ele>
        <time>2020-10-18T12:04:56.000Z</time>
      </trkpt>
      <trkpt lat="48.28546" lon="-3.54147">
        <ele>121.80000305176</ele>
        <time>2020-10-18T12:04:57.000Z</time>
      </trkpt>
      <trkpt lat="48.28546" lon="-3.54147">
        <ele>121.80000305176</ele>
        <time>2020-10-18T12:04:58.000Z</time>
      </trkpt>
      <trkpt lat="48.28541" lon="-3.54156">
        <ele>122</ele>
        <time>2020-10-18T12:04:59.000Z</time>
      </trkpt>
      <trkpt lat="48.28541" lon="-3.54156">
        <ele>122</ele>
        <time>2020-10-18T12:05:00.000Z</time>
      </trkpt>
      <trkpt lat="48.28537" lon="-3.54165">
        <ele>122.19999694824</ele>
        <time>2020-10-18T12:05:01.000Z</time>
      </trkpt>
      <trkpt lat="48.28535" lon="-3.5417">
        <ele>122.19999694824</ele>
        <time>2020-10-18T12:05:02.000Z</time>
      </trkpt>
      <trkpt lat="48.28535" lon="-3.5417">
        <ele>122.19999694824</ele>
        <time>2020-10-18T12:05:03.000Z</time>
      </trkpt>
      <trkpt lat="48.28531" lon="-3.5418">
        <ele>122.40000152588</ele>
        <time>2020-10-18T12:05:04.000Z</time>
      </trkpt>
      <trkpt lat="48.2853" lon="-3.54185">
        <ele>122.40000152588</ele>
        <time>2020-10-18T12:05:05.000Z</time>
      </trkpt>
      <trkpt lat="48.2853" lon="-3.54185">
        <ele>122.40000152588</ele>
        <time>2020-10-18T12:05:06.000Z</time>
      </trkpt>
      <trkpt lat="48.28528" lon="-3.54189">
        <ele>122.59999847412</ele>
        <time>2020-10-18T12:05:07.000Z</time>
      </trkpt>
      <trkpt lat="48.28524" lon="-3.54198">
        <ele>122.80000305176</ele>
        <time>2020-10-18T12:05:08.000Z</time>
      </trkpt>
      <trkpt lat="48.28524" lon="-3.54198">
        <ele>122.80000305176</ele>
        <time>2020-10-18T12:05:09.000Z</time>
      </trkpt>
      <trkpt lat="48.28523" lon="-3.54203">
        <ele>122.80000305176</ele>
        <time>2020-10-18T12:05:10.000Z</time>
      </trkpt>
      <trkpt lat="48.2852" lon="-3.54213">
        <ele>123.19999694824</ele>
        <time>2020-10-18T12:05:11.000Z</time>
      </trkpt>
      <trkpt lat="48.2852" lon="-3.54213">
        <ele>123.19999694824</ele>
        <time>2020-10-18T12:05:12.000Z</time>
      </trkpt>
      <trkpt lat="48.28518" lon="-3.54218">
        <ele>123.19999694824</ele>
        <time>2020-10-18T12:05:13.000Z</time>
      </trkpt>
      <trkpt lat="48.28518" lon="-3.54229">
        <ele>123.40000152588</ele>
        <time>2020-10-18T12:05:14.000Z</time>
      </trkpt>
      <trkpt lat="48.28518" lon="-3.54229">
        <ele>123.40000152588</ele>
        <time>2020-10-18T12:05:15.000Z</time>
      </trkpt>
      <trkpt lat="48.28518" lon="-3.54239">
        <ele>123.40000152588</ele>
        <time>2020-10-18T12:05:16.000Z</time>
      </trkpt>
      <trkpt lat="48.28518" lon="-3.54239">
        <ele>123.40000152588</ele>
        <time>2020-10-18T12:05:17.000Z</time>
      </trkpt>
      <trkpt lat="48.28518" lon="-3.54245">
        <ele>123.59999847412</ele>
        <time>2020-10-18T12:05:18.000Z</time>
      </trkpt>
      <trkpt lat="48.28518" lon="-3.54256">
        <ele>123.59999847412</ele>
        <time>2020-10-18T12:05:19.000Z</time>
      </trkpt>
      <trkpt lat="48.28518" lon="-3.54256">
        <ele>123.59999847412</ele>
        <time>2020-10-18T12:05:20.000Z</time>
      </trkpt>
      <trkpt lat="48.28517" lon="-3.54262">
        <ele>123.80000305176</ele>
        <time>2020-10-18T12:05:21.000Z</time>
      </trkpt>
      <trkpt lat="48.28514" lon="-3.54272">
        <ele>124</ele>
        <time>2020-10-18T12:05:22.000Z</time>
      </trkpt>
      <trkpt lat="48.28514" lon="-3.54272">
        <ele>124</ele>
        <time>2020-10-18T12:05:23.000Z</time>
      </trkpt>
      <trkpt lat="48.28508" lon="-3.5428">
        <ele>124</ele>
        <time>2020-10-18T12:05:24.000Z</time>
      </trkpt>
      <trkpt lat="48.28505" lon="-3.54283">
        <ele>124</ele>
        <time>2020-10-18T12:05:25.000Z</time>
      </trkpt>
      <trkpt lat="48.28505" lon="-3.54283">
        <ele>124</ele>
        <time>2020-10-18T12:05:26.000Z</time>
      </trkpt>
      <trkpt lat="48.28501" lon="-3.54285">
        <ele>123.80000305176</ele>
        <time>2020-10-18T12:05:27.000Z</time>
      </trkpt>
      <trkpt lat="48.28495" lon="-3.5429">
        <ele>123.80000305176</ele>
        <time>2020-10-18T12:05:28.000Z</time>
      </trkpt>
      <trkpt lat="48.28495" lon="-3.5429">
        <ele>123.80000305176</ele>
        <time>2020-10-18T12:05:29.000Z</time>
      </trkpt>
      <trkpt lat="48.28491" lon="-3.54293">
        <ele>123.80000305176</ele>
        <time>2020-10-18T12:05:30.000Z</time>
      </trkpt>
      <trkpt lat="48.28485" lon="-3.54301">
        <ele>123.59999847412</ele>
        <time>2020-10-18T12:05:31.000Z</time>
      </trkpt>
      <trkpt lat="48.28485" lon="-3.54301">
        <ele>123.59999847412</ele>
        <time>2020-10-18T12:05:32.000Z</time>
      </trkpt>
      <trkpt lat="48.28483" lon="-3.54306">
        <ele>123.59999847412</ele>
        <time>2020-10-18T12:05:33.000Z</time>
      </trkpt>
      <trkpt lat="48.28477" lon="-3.54317">
        <ele>123.59999847412</ele>
        <time>2020-10-18T12:05:34.000Z</time>
      </trkpt>
      <trkpt lat="48.28477" lon="-3.54317">
        <ele>123.59999847412</ele>
        <time>2020-10-18T12:05:35.000Z</time>
      </trkpt>
      <trkpt lat="48.28475" lon="-3.54322">
        <ele>123.59999847412</ele>
        <time>2020-10-18T12:05:36.000Z</time>
      </trkpt>
      <trkpt lat="48.28469" lon="-3.54332">
        <ele>123.40000152588</ele>
        <time>2020-10-18T12:05:37.000Z</time>
      </trkpt>
      <trkpt lat="48.28469" lon="-3.54332">
        <ele>123.40000152588</ele>
        <time>2020-10-18T12:05:38.000Z</time>
      </trkpt>
      <trkpt lat="48.28466" lon="-3.54337">
        <ele>123.40000152588</ele>
        <time>2020-10-18T12:05:39.000Z</time>
      </trkpt>
      <trkpt lat="48.28462" lon="-3.54348">
        <ele>123.40000152588</ele>
        <time>2020-10-18T12:05:40.000Z</time>
      </trkpt>
      <trkpt lat="48.28462" lon="-3.54348">
        <ele>123.40000152588</ele>
        <time>2020-10-18T12:05:41.000Z</time>
      </trkpt>
      <trkpt lat="48.2846" lon="-3.54354">
        <ele>123.40000152588</ele>
        <time>2020-10-18T12:05:42.000Z</time>
      </trkpt>
      <trkpt lat="48.28455" lon="-3.54365">
        <ele>123.40000152588</ele>
        <time>2020-10-18T12:05:43.000Z</time>
      </trkpt>
      <trkpt lat="48.28453" lon="-3.5437">
        <ele>123.59999847412</ele>
        <time>2020-10-18T12:05:44.000Z</time>
      </trkpt>
      <trkpt lat="48.28453" lon="-3.5437">
        <ele>123.59999847412</ele>
        <time>2020-10-18T12:05:45.000Z</time>
      </trkpt>
      <trkpt lat="48.2845" lon="-3.54375">
        <ele>123.59999847412</ele>
        <time>2020-10-18T12:05:46.000Z</time>
      </trkpt>
      <trkpt lat="48.28446" lon="-3.54386">
        <ele>123.59999847412</ele>
        <time>2020-10-18T12:05:47.000Z</time>
      </trkpt>
      <trkpt lat="48.28446" lon="-3.54386">
        <ele>123.59999847412</ele>
        <time>2020-10-18T12:05:48.000Z</time>
      </trkpt>
      <trkpt lat="48.28443" lon="-3.54396">
        <ele>123.80000305176</ele>
        <time>2020-10-18T12:05:49.000Z</time>
      </trkpt>
      <trkpt lat="48.28443" lon="-3.54396">
        <ele>123.80000305176</ele>
        <time>2020-10-18T12:05:50.000Z</time>
      </trkpt>
      <trkpt lat="48.2844" lon="-3.54401">
        <ele>123.80000305176</ele>
        <time>2020-10-18T12:05:51.000Z</time>
      </trkpt>
      <trkpt lat="48.28436" lon="-3.54411">
        <ele>123.80000305176</ele>
        <time>2020-10-18T12:05:52.000Z</time>
      </trkpt>
      <trkpt lat="48.28436" lon="-3.54411">
        <ele>123.80000305176</ele>
        <time>2020-10-18T12:05:53.000Z</time>
      </trkpt>
      <trkpt lat="48.28435" lon="-3.54416">
        <ele>123.80000305176</ele>
        <time>2020-10-18T12:05:54.000Z</time>
      </trkpt>
      <trkpt lat="48.28431" lon="-3.54426">
        <ele>124</ele>
        <time>2020-10-18T12:05:55.000Z</time>
      </trkpt>
      <trkpt lat="48.28431" lon="-3.54426">
        <ele>124</ele>
        <time>2020-10-18T12:05:56.000Z</time>
      </trkpt>
      <trkpt lat="48.28429" lon="-3.54431">
        <ele>124</ele>
        <time>2020-10-18T12:05:57.000Z</time>
      </trkpt>
      <trkpt lat="48.28425" lon="-3.5444">
        <ele>124.40000152588</ele>
        <time>2020-10-18T12:05:58.000Z</time>
      </trkpt>
      <trkpt lat="48.28425" lon="-3.5444">
        <ele>124.40000152588</ele>
        <time>2020-10-18T12:05:59.000Z</time>
      </trkpt>
      <trkpt lat="48.28424" lon="-3.54445">
        <ele>124.59999847412</ele>
        <time>2020-10-18T12:06:00.000Z</time>
      </trkpt>
      <trkpt lat="48.2842" lon="-3.54454">
        <ele>125.19999694824</ele>
        <time>2020-10-18T12:06:01.000Z</time>
      </trkpt>
      <trkpt lat="48.2842" lon="-3.54454">
        <ele>125.19999694824</ele>
        <time>2020-10-18T12:06:02.000Z</time>
      </trkpt>
      <trkpt lat="48.28419" lon="-3.54458">
        <ele>125.40000152588</ele>
        <time>2020-10-18T12:06:03.000Z</time>
      </trkpt>
      <trkpt lat="48.28416" lon="-3.54466">
        <ele>125.80000305176</ele>
        <time>2020-10-18T12:06:04.000Z</time>
      </trkpt>
      <trkpt lat="48.28416" lon="-3.54466">
        <ele>125.80000305176</ele>
        <time>2020-10-18T12:06:05.000Z</time>
      </trkpt>
      <trkpt lat="48.28414" lon="-3.54471">
        <ele>126</ele>
        <time>2020-10-18T12:06:06.000Z</time>
      </trkpt>
      <trkpt lat="48.28411" lon="-3.54478">
        <ele>126.59999847412</ele>
        <time>2020-10-18T12:06:07.000Z</time>
      </trkpt>
      <trkpt lat="48.28411" lon="-3.54478">
        <ele>126.59999847412</ele>
        <time>2020-10-18T12:06:08.000Z</time>
      </trkpt>
      <trkpt lat="48.28409" lon="-3.54482">
        <ele>126.80000305176</ele>
        <time>2020-10-18T12:06:09.000Z</time>
      </trkpt>
      <trkpt lat="48.28406" lon="-3.54489">
        <ele>127.19999694824</ele>
        <time>2020-10-18T12:06:10.000Z</time>
      </trkpt>
      <trkpt lat="48.28406" lon="-3.54489">
        <ele>127.19999694824</ele>
        <time>2020-10-18T12:06:11.000Z</time>
      </trkpt>
      <trkpt lat="48.28405" lon="-3.54494">
        <ele>127.40000152588</ele>
        <time>2020-10-18T12:06:12.000Z</time>
      </trkpt>
      <trkpt lat="48.28402" lon="-3.54502">
        <ele>127.80000305176</ele>
        <time>2020-10-18T12:06:13.000Z</time>
      </trkpt>
      <trkpt lat="48.28402" lon="-3.54502">
        <ele>127.80000305176</ele>
        <time>2020-10-18T12:06:14.000Z</time>
      </trkpt>
      <trkpt lat="48.284" lon="-3.54506">
        <ele>128</ele>
        <time>2020-10-18T12:06:15.000Z</time>
      </trkpt>
      <trkpt lat="48.28397" lon="-3.54514">
        <ele>128.39999389648</ele>
        <time>2020-10-18T12:06:16.000Z</time>
      </trkpt>
      <trkpt lat="48.28397" lon="-3.54514">
        <ele>128.39999389648</ele>
        <time>2020-10-18T12:06:17.000Z</time>
      </trkpt>
      <trkpt lat="48.28395" lon="-3.54518">
        <ele>128.60000610352</ele>
        <time>2020-10-18T12:06:18.000Z</time>
      </trkpt>
      <trkpt lat="48.28392" lon="-3.54527">
        <ele>128.80000305176</ele>
        <time>2020-10-18T12:06:19.000Z</time>
      </trkpt>
      <trkpt lat="48.28392" lon="-3.54527">
        <ele>128.80000305176</ele>
        <time>2020-10-18T12:06:20.000Z</time>
      </trkpt>
      <trkpt lat="48.2839" lon="-3.54531">
        <ele>128.80000305176</ele>
        <time>2020-10-18T12:06:21.000Z</time>
      </trkpt>
      <trkpt lat="48.28387" lon="-3.54539">
        <ele>129</ele>
        <time>2020-10-18T12:06:22.000Z</time>
      </trkpt>
      <trkpt lat="48.28387" lon="-3.54539">
        <ele>129</ele>
        <time>2020-10-18T12:06:23.000Z</time>
      </trkpt>
      <trkpt lat="48.28385" lon="-3.54543">
        <ele>129.19999694824</ele>
        <time>2020-10-18T12:06:24.000Z</time>
      </trkpt>
      <trkpt lat="48.28381" lon="-3.54551">
        <ele>129.39999389648</ele>
        <time>2020-10-18T12:06:25.000Z</time>
      </trkpt>
      <trkpt lat="48.28381" lon="-3.54551">
        <ele>129.39999389648</ele>
        <time>2020-10-18T12:06:26.000Z</time>
      </trkpt>
      <trkpt lat="48.2838" lon="-3.54556">
        <ele>129.39999389648</ele>
        <time>2020-10-18T12:06:27.000Z</time>
      </trkpt>
      <trkpt lat="48.28376" lon="-3.54564">
        <ele>129.60000610352</ele>
        <time>2020-10-18T12:06:28.000Z</time>
      </trkpt>
      <trkpt lat="48.28376" lon="-3.54564">
        <ele>129.60000610352</ele>
        <time>2020-10-18T12:06:29.000Z</time>
      </trkpt>
      <trkpt lat="48.28374" lon="-3.54568">
        <ele>129.60000610352</ele>
        <time>2020-10-18T12:06:30.000Z</time>
      </trkpt>
      <trkpt lat="48.28371" lon="-3.54576">
        <ele>129.80000305176</ele>
        <time>2020-10-18T12:06:31.000Z</time>
      </trkpt>
      <trkpt lat="48.28371" lon="-3.54576">
        <ele>129.80000305176</ele>
        <time>2020-10-18T12:06:32.000Z</time>
      </trkpt>
      <trkpt lat="48.28369" lon="-3.5458">
        <ele>130</ele>
        <time>2020-10-18T12:06:33.000Z</time>
      </trkpt>
      <trkpt lat="48.28367" lon="-3.54589">
        <ele>130.19999694824</ele>
        <time>2020-10-18T12:06:34.000Z</time>
      </trkpt>
      <trkpt lat="48.28367" lon="-3.54589">
        <ele>130.19999694824</ele>
        <time>2020-10-18T12:06:35.000Z</time>
      </trkpt>
      <trkpt lat="48.28365" lon="-3.54593">
        <ele>130.19999694824</ele>
        <time>2020-10-18T12:06:36.000Z</time>
      </trkpt>
      <trkpt lat="48.28362" lon="-3.54601">
        <ele>130.39999389648</ele>
        <time>2020-10-18T12:06:37.000Z</time>
      </trkpt>
      <trkpt lat="48.28362" lon="-3.54601">
        <ele>130.39999389648</ele>
        <time>2020-10-18T12:06:38.000Z</time>
      </trkpt>
      <trkpt lat="48.28359" lon="-3.54609">
        <ele>130.80000305176</ele>
        <time>2020-10-18T12:06:39.000Z</time>
      </trkpt>
      <trkpt lat="48.28359" lon="-3.54609">
        <ele>130.80000305176</ele>
        <time>2020-10-18T12:06:40.000Z</time>
      </trkpt>
      <trkpt lat="48.28357" lon="-3.54613">
        <ele>131</ele>
        <time>2020-10-18T12:06:41.000Z</time>
      </trkpt>
      <trkpt lat="48.28354" lon="-3.54622">
        <ele>131.19999694824</ele>
        <time>2020-10-18T12:06:42.000Z</time>
      </trkpt>
      <trkpt lat="48.28353" lon="-3.54626">
        <ele>131.39999389648</ele>
        <time>2020-10-18T12:06:43.000Z</time>
      </trkpt>
      <trkpt lat="48.28353" lon="-3.54626">
        <ele>131.39999389648</ele>
        <time>2020-10-18T12:06:44.000Z</time>
      </trkpt>
      <trkpt lat="48.28351" lon="-3.5463">
        <ele>131.60000610352</ele>
        <time>2020-10-18T12:06:45.000Z</time>
      </trkpt>
      <trkpt lat="48.28348" lon="-3.54638">
        <ele>131.80000305176</ele>
        <time>2020-10-18T12:06:46.000Z</time>
      </trkpt>
      <trkpt lat="48.28348" lon="-3.54638">
        <ele>131.80000305176</ele>
        <time>2020-10-18T12:06:47.000Z</time>
      </trkpt>
      <trkpt lat="48.28345" lon="-3.54646">
        <ele>132.19999694824</ele>
        <time>2020-10-18T12:06:48.000Z</time>
      </trkpt>
      <trkpt lat="48.28345" lon="-3.54646">
        <ele>132.19999694824</ele>
        <time>2020-10-18T12:06:49.000Z</time>
      </trkpt>
      <trkpt lat="48.28343" lon="-3.5465">
        <ele>132.39999389648</ele>
        <time>2020-10-18T12:06:50.000Z</time>
      </trkpt>
      <trkpt lat="48.28341" lon="-3.54658">
        <ele>132.80000305176</ele>
        <time>2020-10-18T12:06:51.000Z</time>
      </trkpt>
      <trkpt lat="48.28341" lon="-3.54658">
        <ele>132.80000305176</ele>
        <time>2020-10-18T12:06:52.000Z</time>
      </trkpt>
      <trkpt lat="48.2834" lon="-3.54662">
        <ele>133</ele>
        <time>2020-10-18T12:06:53.000Z</time>
      </trkpt>
      <trkpt lat="48.28337" lon="-3.54669">
        <ele>133.39999389648</ele>
        <time>2020-10-18T12:06:54.000Z</time>
      </trkpt>
      <trkpt lat="48.28337" lon="-3.54669">
        <ele>133.39999389648</ele>
        <time>2020-10-18T12:06:55.000Z</time>
      </trkpt>
      <trkpt lat="48.28336" lon="-3.54672">
        <ele>133.39999389648</ele>
        <time>2020-10-18T12:06:56.000Z</time>
      </trkpt>
      <trkpt lat="48.28333" lon="-3.54679">
        <ele>133.80000305176</ele>
        <time>2020-10-18T12:06:57.000Z</time>
      </trkpt>
      <trkpt lat="48.28333" lon="-3.54679">
        <ele>133.80000305176</ele>
        <time>2020-10-18T12:06:58.000Z</time>
      </trkpt>
      <trkpt lat="48.28332" lon="-3.54683">
        <ele>134</ele>
        <time>2020-10-18T12:06:59.000Z</time>
      </trkpt>
      <trkpt lat="48.28329" lon="-3.5469">
        <ele>134.39999389648</ele>
        <time>2020-10-18T12:07:00.000Z</time>
      </trkpt>
      <trkpt lat="48.28329" lon="-3.5469">
        <ele>134.39999389648</ele>
        <time>2020-10-18T12:07:01.000Z</time>
      </trkpt>
      <trkpt lat="48.28327" lon="-3.54697">
        <ele>134.60000610352</ele>
        <time>2020-10-18T12:07:02.000Z</time>
      </trkpt>
      <trkpt lat="48.28326" lon="-3.547">
        <ele>134.80000305176</ele>
        <time>2020-10-18T12:07:03.000Z</time>
      </trkpt>
      <trkpt lat="48.28326" lon="-3.547">
        <ele>134.80000305176</ele>
        <time>2020-10-18T12:07:04.000Z</time>
      </trkpt>
      <trkpt lat="48.28326" lon="-3.54704">
        <ele>135</ele>
        <time>2020-10-18T12:07:05.000Z</time>
      </trkpt>
      <trkpt lat="48.28324" lon="-3.54711">
        <ele>135.19999694824</ele>
        <time>2020-10-18T12:07:06.000Z</time>
      </trkpt>
      <trkpt lat="48.28324" lon="-3.54711">
        <ele>135.19999694824</ele>
        <time>2020-10-18T12:07:07.000Z</time>
      </trkpt>
      <trkpt lat="48.28324" lon="-3.54714">
        <ele>135.39999389648</ele>
        <time>2020-10-18T12:07:08.000Z</time>
      </trkpt>
      <trkpt lat="48.28323" lon="-3.54721">
        <ele>135.80000305176</ele>
        <time>2020-10-18T12:07:09.000Z</time>
      </trkpt>
      <trkpt lat="48.28323" lon="-3.54721">
        <ele>135.80000305176</ele>
        <time>2020-10-18T12:07:10.000Z</time>
      </trkpt>
      <trkpt lat="48.28322" lon="-3.54724">
        <ele>136</ele>
        <time>2020-10-18T12:07:11.000Z</time>
      </trkpt>
      <trkpt lat="48.28321" lon="-3.54731">
        <ele>136.19999694824</ele>
        <time>2020-10-18T12:07:12.000Z</time>
      </trkpt>
      <trkpt lat="48.28321" lon="-3.54731">
        <ele>136.19999694824</ele>
        <time>2020-10-18T12:07:13.000Z</time>
      </trkpt>
      <trkpt lat="48.2832" lon="-3.54734">
        <ele>136.39999389648</ele>
        <time>2020-10-18T12:07:14.000Z</time>
      </trkpt>
      <trkpt lat="48.28318" lon="-3.54741">
        <ele>136.80000305176</ele>
        <time>2020-10-18T12:07:15.000Z</time>
      </trkpt>
      <trkpt lat="48.28318" lon="-3.54741">
        <ele>136.80000305176</ele>
        <time>2020-10-18T12:07:16.000Z</time>
      </trkpt>
      <trkpt lat="48.28317" lon="-3.54744">
        <ele>137</ele>
        <time>2020-10-18T12:07:17.000Z</time>
      </trkpt>
      <trkpt lat="48.28316" lon="-3.54751">
        <ele>137.19999694824</ele>
        <time>2020-10-18T12:07:18.000Z</time>
      </trkpt>
      <trkpt lat="48.28316" lon="-3.54751">
        <ele>137.19999694824</ele>
        <time>2020-10-18T12:07:19.000Z</time>
      </trkpt>
      <trkpt lat="48.28315" lon="-3.54754">
        <ele>137.39999389648</ele>
        <time>2020-10-18T12:07:20.000Z</time>
      </trkpt>
      <trkpt lat="48.28314" lon="-3.54761">
        <ele>137.80000305176</ele>
        <time>2020-10-18T12:07:21.000Z</time>
      </trkpt>
      <trkpt lat="48.28314" lon="-3.54761">
        <ele>137.80000305176</ele>
        <time>2020-10-18T12:07:22.000Z</time>
      </trkpt>
      <trkpt lat="48.28313" lon="-3.54764">
        <ele>138</ele>
        <time>2020-10-18T12:07:23.000Z</time>
      </trkpt>
      <trkpt lat="48.28311" lon="-3.54771">
        <ele>138.19999694824</ele>
        <time>2020-10-18T12:07:24.000Z</time>
      </trkpt>
      <trkpt lat="48.28311" lon="-3.54771">
        <ele>138.19999694824</ele>
        <time>2020-10-18T12:07:25.000Z</time>
      </trkpt>
      <trkpt lat="48.2831" lon="-3.54774">
        <ele>138.39999389648</ele>
        <time>2020-10-18T12:07:26.000Z</time>
      </trkpt>
      <trkpt lat="48.28309" lon="-3.54781">
        <ele>138.80000305176</ele>
        <time>2020-10-18T12:07:27.000Z</time>
      </trkpt>
      <trkpt lat="48.28309" lon="-3.54781">
        <ele>138.80000305176</ele>
        <time>2020-10-18T12:07:28.000Z</time>
      </trkpt>
      <trkpt lat="48.28308" lon="-3.54784">
        <ele>139</ele>
        <time>2020-10-18T12:07:29.000Z</time>
      </trkpt>
      <trkpt lat="48.28306" lon="-3.54791">
        <ele>139.19999694824</ele>
        <time>2020-10-18T12:07:30.000Z</time>
      </trkpt>
      <trkpt lat="48.28306" lon="-3.54791">
        <ele>139.19999694824</ele>
        <time>2020-10-18T12:07:31.000Z</time>
      </trkpt>
      <trkpt lat="48.28306" lon="-3.54794">
        <ele>139.39999389648</ele>
        <time>2020-10-18T12:07:32.000Z</time>
      </trkpt>
      <trkpt lat="48.28304" lon="-3.54801">
        <ele>139.80000305176</ele>
        <time>2020-10-18T12:07:33.000Z</time>
      </trkpt>
      <trkpt lat="48.28304" lon="-3.54801">
        <ele>139.80000305176</ele>
        <time>2020-10-18T12:07:34.000Z</time>
      </trkpt>
      <trkpt lat="48.28303" lon="-3.54804">
        <ele>140</ele>
        <time>2020-10-18T12:07:35.000Z</time>
      </trkpt>
      <trkpt lat="48.28302" lon="-3.54811">
        <ele>140.19999694824</ele>
        <time>2020-10-18T12:07:36.000Z</time>
      </trkpt>
      <trkpt lat="48.28302" lon="-3.54811">
        <ele>140.19999694824</ele>
        <time>2020-10-18T12:07:37.000Z</time>
      </trkpt>
      <trkpt lat="48.28301" lon="-3.54814">
        <ele>140.39999389648</ele>
        <time>2020-10-18T12:07:38.000Z</time>
      </trkpt>
      <trkpt lat="48.28299" lon="-3.54821">
        <ele>140.60000610352</ele>
        <time>2020-10-18T12:07:39.000Z</time>
      </trkpt>
      <trkpt lat="48.28299" lon="-3.54821">
        <ele>140.60000610352</ele>
        <time>2020-10-18T12:07:40.000Z</time>
      </trkpt>
      <trkpt lat="48.28299" lon="-3.54824">
        <ele>140.60000610352</ele>
        <time>2020-10-18T12:07:41.000Z</time>
      </trkpt>
      <trkpt lat="48.28297" lon="-3.5483">
        <ele>140.80000305176</ele>
        <time>2020-10-18T12:07:42.000Z</time>
      </trkpt>
      <trkpt lat="48.28297" lon="-3.5483">
        <ele>140.80000305176</ele>
        <time>2020-10-18T12:07:43.000Z</time>
      </trkpt>
      <trkpt lat="48.28296" lon="-3.54837">
        <ele>141</ele>
        <time>2020-10-18T12:07:44.000Z</time>
      </trkpt>
      <trkpt lat="48.28296" lon="-3.54837">
        <ele>141</ele>
        <time>2020-10-18T12:07:45.000Z</time>
      </trkpt>
      <trkpt lat="48.28296" lon="-3.5484">
        <ele>141.19999694824</ele>
        <time>2020-10-18T12:07:46.000Z</time>
      </trkpt>
      <trkpt lat="48.28295" lon="-3.54848">
        <ele>141.39999389648</ele>
        <time>2020-10-18T12:07:47.000Z</time>
      </trkpt>
      <trkpt lat="48.28295" lon="-3.54848">
        <ele>141.39999389648</ele>
        <time>2020-10-18T12:07:48.000Z</time>
      </trkpt>
      <trkpt lat="48.28294" lon="-3.54855">
        <ele>141.60000610352</ele>
        <time>2020-10-18T12:07:49.000Z</time>
      </trkpt>
      <trkpt lat="48.28294" lon="-3.54855">
        <ele>141.60000610352</ele>
        <time>2020-10-18T12:07:50.000Z</time>
      </trkpt>
      <trkpt lat="48.28294" lon="-3.54858">
        <ele>141.60000610352</ele>
        <time>2020-10-18T12:07:51.000Z</time>
      </trkpt>
      <trkpt lat="48.28294" lon="-3.54865">
        <ele>141.80000305176</ele>
        <time>2020-10-18T12:07:52.000Z</time>
      </trkpt>
      <trkpt lat="48.28294" lon="-3.54865">
        <ele>141.80000305176</ele>
        <time>2020-10-18T12:07:53.000Z</time>
      </trkpt>
      <trkpt lat="48.28295" lon="-3.54872">
        <ele>142.19999694824</ele>
        <time>2020-10-18T12:07:54.000Z</time>
      </trkpt>
      <trkpt lat="48.28295" lon="-3.54872">
        <ele>142.19999694824</ele>
        <time>2020-10-18T12:07:55.000Z</time>
      </trkpt>
      <trkpt lat="48.28296" lon="-3.54876">
        <ele>142.19999694824</ele>
        <time>2020-10-18T12:07:56.000Z</time>
      </trkpt>
      <trkpt lat="48.28298" lon="-3.54882">
        <ele>142.19999694824</ele>
        <time>2020-10-18T12:07:57.000Z</time>
      </trkpt>
      <trkpt lat="48.28298" lon="-3.54882">
        <ele>142.19999694824</ele>
        <time>2020-10-18T12:07:58.000Z</time>
      </trkpt>
      <trkpt lat="48.283" lon="-3.54884">
        <ele>142.19999694824</ele>
        <time>2020-10-18T12:07:59.000Z</time>
      </trkpt>
      <trkpt lat="48.28301" lon="-3.5489">
        <ele>142.19999694824</ele>
        <time>2020-10-18T12:08:00.000Z</time>
      </trkpt>
      <trkpt lat="48.28301" lon="-3.5489">
        <ele>142.19999694824</ele>
        <time>2020-10-18T12:08:01.000Z</time>
      </trkpt>
      <trkpt lat="48.28302" lon="-3.54894">
        <ele>142.19999694824</ele>
        <time>2020-10-18T12:08:02.000Z</time>
      </trkpt>
      <trkpt lat="48.28303" lon="-3.54901">
        <ele>142.39999389648</ele>
        <time>2020-10-18T12:08:03.000Z</time>
      </trkpt>
      <trkpt lat="48.28303" lon="-3.54901">
        <ele>142.39999389648</ele>
        <time>2020-10-18T12:08:04.000Z</time>
      </trkpt>
      <trkpt lat="48.28304" lon="-3.54908">
        <ele>142.39999389648</ele>
        <time>2020-10-18T12:08:05.000Z</time>
      </trkpt>
      <trkpt lat="48.28304" lon="-3.54908">
        <ele>142.39999389648</ele>
        <time>2020-10-18T12:08:06.000Z</time>
      </trkpt>
      <trkpt lat="48.28303" lon="-3.54911">
        <ele>142.60000610352</ele>
        <time>2020-10-18T12:08:07.000Z</time>
      </trkpt>
      <trkpt lat="48.28301" lon="-3.54917">
        <ele>143</ele>
        <time>2020-10-18T12:08:08.000Z</time>
      </trkpt>
      <trkpt lat="48.28301" lon="-3.54917">
        <ele>143</ele>
        <time>2020-10-18T12:08:09.000Z</time>
      </trkpt>
      <trkpt lat="48.28299" lon="-3.54918">
        <ele>143.19999694824</ele>
        <time>2020-10-18T12:08:10.000Z</time>
      </trkpt>
      <trkpt lat="48.28295" lon="-3.54918">
        <ele>143.60000610352</ele>
        <time>2020-10-18T12:08:11.000Z</time>
      </trkpt>
      <trkpt lat="48.28295" lon="-3.54918">
        <ele>143.60000610352</ele>
        <time>2020-10-18T12:08:12.000Z</time>
      </trkpt>
      <trkpt lat="48.28293" lon="-3.54918">
        <ele>143.80000305176</ele>
        <time>2020-10-18T12:08:13.000Z</time>
      </trkpt>
      <trkpt lat="48.28289" lon="-3.54919">
        <ele>144.19999694824</ele>
        <time>2020-10-18T12:08:14.000Z</time>
      </trkpt>
      <trkpt lat="48.28289" lon="-3.54919">
        <ele>144.19999694824</ele>
        <time>2020-10-18T12:08:15.000Z</time>
      </trkpt>
      <trkpt lat="48.28287" lon="-3.5492">
        <ele>144.39999389648</ele>
        <time>2020-10-18T12:08:16.000Z</time>
      </trkpt>
      <trkpt lat="48.28285" lon="-3.54922">
        <ele>144.60000610352</ele>
        <time>2020-10-18T12:08:17.000Z</time>
      </trkpt>
      <trkpt lat="48.28282" lon="-3.54928">
        <ele>145</ele>
        <time>2020-10-18T12:08:18.000Z</time>
      </trkpt>
      <trkpt lat="48.28282" lon="-3.54928">
        <ele>145</ele>
        <time>2020-10-18T12:08:19.000Z</time>
      </trkpt>
      <trkpt lat="48.2828" lon="-3.54933">
        <ele>145.39999389648</ele>
        <time>2020-10-18T12:08:20.000Z</time>
      </trkpt>
      <trkpt lat="48.28278" lon="-3.54935">
        <ele>145.60000610352</ele>
        <time>2020-10-18T12:08:21.000Z</time>
      </trkpt>
      <trkpt lat="48.28278" lon="-3.54935">
        <ele>145.60000610352</ele>
        <time>2020-10-18T12:08:22.000Z</time>
      </trkpt>
      <trkpt lat="48.28277" lon="-3.54938">
        <ele>145.80000305176</ele>
        <time>2020-10-18T12:08:23.000Z</time>
      </trkpt>
      <trkpt lat="48.28274" lon="-3.54943">
        <ele>146.39999389648</ele>
        <time>2020-10-18T12:08:24.000Z</time>
      </trkpt>
      <trkpt lat="48.28274" lon="-3.54943">
        <ele>146.39999389648</ele>
        <time>2020-10-18T12:08:25.000Z</time>
      </trkpt>
      <trkpt lat="48.28273" lon="-3.54946">
        <ele>146.60000610352</ele>
        <time>2020-10-18T12:08:26.000Z</time>
      </trkpt>
      <trkpt lat="48.2827" lon="-3.5495">
        <ele>147.19999694824</ele>
        <time>2020-10-18T12:08:27.000Z</time>
      </trkpt>
      <trkpt lat="48.2827" lon="-3.5495">
        <ele>147.19999694824</ele>
        <time>2020-10-18T12:08:28.000Z</time>
      </trkpt>
      <trkpt lat="48.28269" lon="-3.54953">
        <ele>147.39999389648</ele>
        <time>2020-10-18T12:08:29.000Z</time>
      </trkpt>
      <trkpt lat="48.28265" lon="-3.54958">
        <ele>148</ele>
        <time>2020-10-18T12:08:30.000Z</time>
      </trkpt>
      <trkpt lat="48.28265" lon="-3.54958">
        <ele>148</ele>
        <time>2020-10-18T12:08:31.000Z</time>
      </trkpt>
      <trkpt lat="48.28264" lon="-3.54961">
        <ele>148.19999694824</ele>
        <time>2020-10-18T12:08:32.000Z</time>
      </trkpt>
      <trkpt lat="48.28262" lon="-3.54966">
        <ele>148.60000610352</ele>
        <time>2020-10-18T12:08:33.000Z</time>
      </trkpt>
      <trkpt lat="48.28262" lon="-3.54966">
        <ele>148.60000610352</ele>
        <time>2020-10-18T12:08:34.000Z</time>
      </trkpt>
      <trkpt lat="48.2826" lon="-3.54969">
        <ele>148.80000305176</ele>
        <time>2020-10-18T12:08:35.000Z</time>
      </trkpt>
      <trkpt lat="48.28258" lon="-3.54975">
        <ele>149.39999389648</ele>
        <time>2020-10-18T12:08:36.000Z</time>
      </trkpt>
      <trkpt lat="48.28258" lon="-3.54975">
        <ele>149.39999389648</ele>
        <time>2020-10-18T12:08:37.000Z</time>
      </trkpt>
      <trkpt lat="48.28256" lon="-3.54977">
        <ele>149.60000610352</ele>
        <time>2020-10-18T12:08:38.000Z</time>
      </trkpt>
      <trkpt lat="48.28253" lon="-3.54983">
        <ele>150</ele>
        <time>2020-10-18T12:08:39.000Z</time>
      </trkpt>
      <trkpt lat="48.28253" lon="-3.54983">
        <ele>150</ele>
        <time>2020-10-18T12:08:40.000Z</time>
      </trkpt>
      <trkpt lat="48.28252" lon="-3.54986">
        <ele>150.39999389648</ele>
        <time>2020-10-18T12:08:41.000Z</time>
      </trkpt>
      <trkpt lat="48.28249" lon="-3.54992">
        <ele>150.80000305176</ele>
        <time>2020-10-18T12:08:42.000Z</time>
      </trkpt>
      <trkpt lat="48.28249" lon="-3.54992">
        <ele>150.80000305176</ele>
        <time>2020-10-18T12:08:43.000Z</time>
      </trkpt>
      <trkpt lat="48.28247" lon="-3.54995">
        <ele>151</ele>
        <time>2020-10-18T12:08:44.000Z</time>
      </trkpt>
      <trkpt lat="48.28245" lon="-3.55001">
        <ele>151.60000610352</ele>
        <time>2020-10-18T12:08:45.000Z</time>
      </trkpt>
      <trkpt lat="48.28245" lon="-3.55001">
        <ele>151.60000610352</ele>
        <time>2020-10-18T12:08:46.000Z</time>
      </trkpt>
      <trkpt lat="48.28244" lon="-3.55004">
        <ele>151.80000305176</ele>
        <time>2020-10-18T12:08:47.000Z</time>
      </trkpt>
      <trkpt lat="48.28243" lon="-3.55007">
        <ele>152</ele>
        <time>2020-10-18T12:08:48.000Z</time>
      </trkpt>
      <trkpt lat="48.28241" lon="-3.55013">
        <ele>152.39999389648</ele>
        <time>2020-10-18T12:08:49.000Z</time>
      </trkpt>
      <trkpt lat="48.28241" lon="-3.55013">
        <ele>152.39999389648</ele>
        <time>2020-10-18T12:08:50.000Z</time>
      </trkpt>
      <trkpt lat="48.2824" lon="-3.55016">
        <ele>152.60000610352</ele>
        <time>2020-10-18T12:08:51.000Z</time>
      </trkpt>
      <trkpt lat="48.28238" lon="-3.55022">
        <ele>152.80000305176</ele>
        <time>2020-10-18T12:08:52.000Z</time>
      </trkpt>
      <trkpt lat="48.28238" lon="-3.55022">
        <ele>152.80000305176</ele>
        <time>2020-10-18T12:08:53.000Z</time>
      </trkpt>
      <trkpt lat="48.28237" lon="-3.55025">
        <ele>153</ele>
        <time>2020-10-18T12:08:54.000Z</time>
      </trkpt>
      <trkpt lat="48.28234" lon="-3.55031">
        <ele>153.19999694824</ele>
        <time>2020-10-18T12:08:55.000Z</time>
      </trkpt>
      <trkpt lat="48.28234" lon="-3.55031">
        <ele>153.19999694824</ele>
        <time>2020-10-18T12:08:56.000Z</time>
      </trkpt>
      <trkpt lat="48.28233" lon="-3.55034">
        <ele>153.39999389648</ele>
        <time>2020-10-18T12:08:57.000Z</time>
      </trkpt>
      <trkpt lat="48.2823" lon="-3.55039">
        <ele>153.60000610352</ele>
        <time>2020-10-18T12:08:58.000Z</time>
      </trkpt>
      <trkpt lat="48.2823" lon="-3.55039">
        <ele>153.60000610352</ele>
        <time>2020-10-18T12:08:59.000Z</time>
      </trkpt>
      <trkpt lat="48.28229" lon="-3.55042">
        <ele>153.80000305176</ele>
        <time>2020-10-18T12:09:00.000Z</time>
      </trkpt>
      <trkpt lat="48.28226" lon="-3.55048">
        <ele>154</ele>
        <time>2020-10-18T12:09:01.000Z</time>
      </trkpt>
      <trkpt lat="48.28226" lon="-3.55048">
        <ele>154</ele>
        <time>2020-10-18T12:09:02.000Z</time>
      </trkpt>
      <trkpt lat="48.28223" lon="-3.55053">
        <ele>154.39999389648</ele>
        <time>2020-10-18T12:09:03.000Z</time>
      </trkpt>
      <trkpt lat="48.28223" lon="-3.55053">
        <ele>154.39999389648</ele>
        <time>2020-10-18T12:09:04.000Z</time>
      </trkpt>
      <trkpt lat="48.28221" lon="-3.55056">
        <ele>154.39999389648</ele>
        <time>2020-10-18T12:09:05.000Z</time>
      </trkpt>
      <trkpt lat="48.28218" lon="-3.55062">
        <ele>154.80000305176</ele>
        <time>2020-10-18T12:09:06.000Z</time>
      </trkpt>
      <trkpt lat="48.28218" lon="-3.55062">
        <ele>154.80000305176</ele>
        <time>2020-10-18T12:09:07.000Z</time>
      </trkpt>
      <trkpt lat="48.28217" lon="-3.55065">
        <ele>155</ele>
        <time>2020-10-18T12:09:08.000Z</time>
      </trkpt>
      <trkpt lat="48.28214" lon="-3.55071">
        <ele>155.19999694824</ele>
        <time>2020-10-18T12:09:09.000Z</time>
      </trkpt>
      <trkpt lat="48.28214" lon="-3.55071">
        <ele>155.19999694824</ele>
        <time>2020-10-18T12:09:10.000Z</time>
      </trkpt>
      <trkpt lat="48.28213" lon="-3.55074">
        <ele>155.39999389648</ele>
        <time>2020-10-18T12:09:11.000Z</time>
      </trkpt>
      <trkpt lat="48.2821" lon="-3.5508">
        <ele>155.60000610352</ele>
        <time>2020-10-18T12:09:12.000Z</time>
      </trkpt>
      <trkpt lat="48.2821" lon="-3.5508">
        <ele>155.60000610352</ele>
        <time>2020-10-18T12:09:13.000Z</time>
      </trkpt>
      <trkpt lat="48.28209" lon="-3.55082">
        <ele>155.80000305176</ele>
        <time>2020-10-18T12:09:14.000Z</time>
      </trkpt>
      <trkpt lat="48.28206" lon="-3.55088">
        <ele>156.19999694824</ele>
        <time>2020-10-18T12:09:15.000Z</time>
      </trkpt>
      <trkpt lat="48.28206" lon="-3.55088">
        <ele>156.19999694824</ele>
        <time>2020-10-18T12:09:16.000Z</time>
      </trkpt>
      <trkpt lat="48.28205" lon="-3.55091">
        <ele>156.19999694824</ele>
        <time>2020-10-18T12:09:17.000Z</time>
      </trkpt>
      <trkpt lat="48.28202" lon="-3.55097">
        <ele>156.60000610352</ele>
        <time>2020-10-18T12:09:18.000Z</time>
      </trkpt>
      <trkpt lat="48.28202" lon="-3.55097">
        <ele>156.60000610352</ele>
        <time>2020-10-18T12:09:19.000Z</time>
      </trkpt>
      <trkpt lat="48.282" lon="-3.55099">
        <ele>156.80000305176</ele>
        <time>2020-10-18T12:09:20.000Z</time>
      </trkpt>
      <trkpt lat="48.28197" lon="-3.55105">
        <ele>157</ele>
        <time>2020-10-18T12:09:21.000Z</time>
      </trkpt>
      <trkpt lat="48.28197" lon="-3.55105">
        <ele>157</ele>
        <time>2020-10-18T12:09:22.000Z</time>
      </trkpt>
      <trkpt lat="48.28196" lon="-3.55107">
        <ele>157</ele>
        <time>2020-10-18T12:09:23.000Z</time>
      </trkpt>
      <trkpt lat="48.28192" lon="-3.55113">
        <ele>157</ele>
        <time>2020-10-18T12:09:24.000Z</time>
      </trkpt>
      <trkpt lat="48.28192" lon="-3.55113">
        <ele>157</ele>
        <time>2020-10-18T12:09:25.000Z</time>
      </trkpt>
      <trkpt lat="48.28191" lon="-3.55115">
        <ele>157.19999694824</ele>
        <time>2020-10-18T12:09:26.000Z</time>
      </trkpt>
      <trkpt lat="48.28187" lon="-3.55121">
        <ele>157.19999694824</ele>
        <time>2020-10-18T12:09:27.000Z</time>
      </trkpt>
      <trkpt lat="48.28187" lon="-3.55121">
        <ele>157.19999694824</ele>
        <time>2020-10-18T12:09:28.000Z</time>
      </trkpt>
      <trkpt lat="48.28186" lon="-3.55124">
        <ele>157.39999389648</ele>
        <time>2020-10-18T12:09:29.000Z</time>
      </trkpt>
      <trkpt lat="48.28182" lon="-3.55129">
        <ele>157.39999389648</ele>
        <time>2020-10-18T12:09:30.000Z</time>
      </trkpt>
      <trkpt lat="48.28182" lon="-3.55129">
        <ele>157.39999389648</ele>
        <time>2020-10-18T12:09:31.000Z</time>
      </trkpt>
      <trkpt lat="48.28181" lon="-3.55132">
        <ele>157.60000610352</ele>
        <time>2020-10-18T12:09:32.000Z</time>
      </trkpt>
      <trkpt lat="48.28177" lon="-3.55138">
        <ele>157.80000305176</ele>
        <time>2020-10-18T12:09:33.000Z</time>
      </trkpt>
      <trkpt lat="48.28177" lon="-3.55138">
        <ele>157.80000305176</ele>
        <time>2020-10-18T12:09:34.000Z</time>
      </trkpt>
      <trkpt lat="48.28175" lon="-3.55141">
        <ele>157.80000305176</ele>
        <time>2020-10-18T12:09:35.000Z</time>
      </trkpt>
      <trkpt lat="48.28172" lon="-3.55147">
        <ele>158</ele>
        <time>2020-10-18T12:09:36.000Z</time>
      </trkpt>
      <trkpt lat="48.28172" lon="-3.55147">
        <ele>158</ele>
        <time>2020-10-18T12:09:37.000Z</time>
      </trkpt>
      <trkpt lat="48.2817" lon="-3.5515">
        <ele>158.19999694824</ele>
        <time>2020-10-18T12:09:38.000Z</time>
      </trkpt>
      <trkpt lat="48.28166" lon="-3.55156">
        <ele>158.39999389648</ele>
        <time>2020-10-18T12:09:39.000Z</time>
      </trkpt>
      <trkpt lat="48.28165" lon="-3.55159">
        <ele>158.39999389648</ele>
        <time>2020-10-18T12:09:40.000Z</time>
      </trkpt>
      <trkpt lat="48.28165" lon="-3.55159">
        <ele>158.39999389648</ele>
        <time>2020-10-18T12:09:41.000Z</time>
      </trkpt>
      <trkpt lat="48.28163" lon="-3.55162">
        <ele>158.39999389648</ele>
        <time>2020-10-18T12:09:42.000Z</time>
      </trkpt>
      <trkpt lat="48.28159" lon="-3.55168">
        <ele>158.60000610352</ele>
        <time>2020-10-18T12:09:43.000Z</time>
      </trkpt>
      <trkpt lat="48.28159" lon="-3.55168">
        <ele>158.60000610352</ele>
        <time>2020-10-18T12:09:44.000Z</time>
      </trkpt>
      <trkpt lat="48.28157" lon="-3.55171">
        <ele>158.80000305176</ele>
        <time>2020-10-18T12:09:45.000Z</time>
      </trkpt>
      <trkpt lat="48.28154" lon="-3.55177">
        <ele>159</ele>
        <time>2020-10-18T12:09:46.000Z</time>
      </trkpt>
      <trkpt lat="48.28152" lon="-3.5518">
        <ele>159</ele>
        <time>2020-10-18T12:09:47.000Z</time>
      </trkpt>
      <trkpt lat="48.2815" lon="-3.55183">
        <ele>159.19999694824</ele>
        <time>2020-10-18T12:09:48.000Z</time>
      </trkpt>
      <trkpt lat="48.2815" lon="-3.55183">
        <ele>159.19999694824</ele>
        <time>2020-10-18T12:09:49.000Z</time>
      </trkpt>
      <trkpt lat="48.28148" lon="-3.55186">
        <ele>159.19999694824</ele>
        <time>2020-10-18T12:09:50.000Z</time>
      </trkpt>
      <trkpt lat="48.28144" lon="-3.55192">
        <ele>159.19999694824</ele>
        <time>2020-10-18T12:09:51.000Z</time>
      </trkpt>
      <trkpt lat="48.28144" lon="-3.55192">
        <ele>159.19999694824</ele>
        <time>2020-10-18T12:09:52.000Z</time>
      </trkpt>
      <trkpt lat="48.28143" lon="-3.55196">
        <ele>159</ele>
        <time>2020-10-18T12:09:53.000Z</time>
      </trkpt>
      <trkpt lat="48.28141" lon="-3.55201">
        <ele>159</ele>
        <time>2020-10-18T12:09:54.000Z</time>
      </trkpt>
      <trkpt lat="48.28141" lon="-3.55201">
        <ele>159</ele>
        <time>2020-10-18T12:09:55.000Z</time>
      </trkpt>
      <trkpt lat="48.2814" lon="-3.55204">
        <ele>159</ele>
        <time>2020-10-18T12:09:56.000Z</time>
      </trkpt>
      <trkpt lat="48.28139" lon="-3.55206">
        <ele>158.80000305176</ele>
        <time>2020-10-18T12:09:57.000Z</time>
      </trkpt>
      <trkpt lat="48.28139" lon="-3.55206">
        <ele>158.80000305176</ele>
        <time>2020-10-18T12:09:58.000Z</time>
      </trkpt>
      <trkpt lat="48.28139" lon="-3.55207">
        <ele>158.80000305176</ele>
        <time>2020-10-18T12:09:59.000Z</time>
      </trkpt>
      <trkpt lat="48.28139" lon="-3.55206">
        <ele>158.80000305176</ele>
        <time>2020-10-18T12:10:00.000Z</time>
      </trkpt>
      <trkpt lat="48.28139" lon="-3.55206">
        <ele>158.80000305176</ele>
        <time>2020-10-18T12:10:01.000Z</time>
      </trkpt>
      <trkpt lat="48.28139" lon="-3.55206">
        <ele>158.80000305176</ele>
        <time>2020-10-18T12:10:02.000Z</time>
      </trkpt>
      <trkpt lat="48.28139" lon="-3.55206">
        <ele>158.80000305176</ele>
        <time>2020-10-18T12:10:03.000Z</time>
      </trkpt>
      <trkpt lat="48.28139" lon="-3.55206">
        <ele>158.80000305176</ele>
        <time>2020-10-18T12:10:04.000Z</time>
      </trkpt>
      <trkpt lat="48.28139" lon="-3.55206">
        <ele>158.80000305176</ele>
        <time>2020-10-18T12:10:05.000Z</time>
      </trkpt>
      <trkpt lat="48.28139" lon="-3.55206">
        <ele>158.80000305176</ele>
        <time>2020-10-18T12:10:06.000Z</time>
      </trkpt>
      <trkpt lat="48.28139" lon="-3.55206">
        <ele>158.80000305176</ele>
        <time>2020-10-18T12:10:07.000Z</time>
      </trkpt>
      <trkpt lat="48.2814" lon="-3.55207">
        <ele>158.80000305176</ele>
        <time>2020-10-18T12:10:08.000Z</time>
      </trkpt>
      <trkpt lat="48.2814" lon="-3.55207">
        <ele>158.80000305176</ele>
        <time>2020-10-18T12:10:09.000Z</time>
      </trkpt>
      <trkpt lat="48.2814" lon="-3.55207">
        <ele>158.80000305176</ele>
        <time>2020-10-18T12:10:10.000Z</time>
      </trkpt>
      <trkpt lat="48.2814" lon="-3.55207">
        <ele>158.80000305176</ele>
        <time>2020-10-18T12:10:11.000Z</time>
      </trkpt>
      <trkpt lat="48.2814" lon="-3.55207">
        <ele>158.80000305176</ele>
        <time>2020-10-18T12:10:12.000Z</time>
      </trkpt>
      <trkpt lat="48.2814" lon="-3.55207">
        <ele>158.80000305176</ele>
        <time>2020-10-18T12:10:13.000Z</time>
      </trkpt>
      <trkpt lat="48.2814" lon="-3.55207">
        <ele>158.80000305176</ele>
        <time>2020-10-18T12:10:14.000Z</time>
      </trkpt>
      <trkpt lat="48.2814" lon="-3.55207">
        <ele>158.80000305176</ele>
        <time>2020-10-18T12:10:15.000Z</time>
      </trkpt>
      <trkpt lat="48.2814" lon="-3.55207">
        <ele>158.80000305176</ele>
        <time>2020-10-18T12:10:16.000Z</time>
      </trkpt>
      <trkpt lat="48.2814" lon="-3.55207">
        <ele>158.80000305176</ele>
        <time>2020-10-18T12:10:17.000Z</time>
      </trkpt>
      <trkpt lat="48.2814" lon="-3.55207">
        <ele>158.80000305176</ele>
        <time>2020-10-18T12:10:18.000Z</time>
      </trkpt>
      <trkpt lat="48.2814" lon="-3.55207">
        <ele>158.80000305176</ele>
        <time>2020-10-18T12:10:19.000Z</time>
      </trkpt>
      <trkpt lat="48.2814" lon="-3.55207">
        <ele>158.80000305176</ele>
        <time>2020-10-18T12:10:20.000Z</time>
      </trkpt>
      <trkpt lat="48.2814" lon="-3.55207">
        <ele>158.80000305176</ele>
        <time>2020-10-18T12:10:21.000Z</time>
      </trkpt>
      <trkpt lat="48.2814" lon="-3.55207">
        <ele>158.80000305176</ele>
        <time>2020-10-18T12:10:22.000Z</time>
      </trkpt>
      <trkpt lat="48.2814" lon="-3.55207">
        <ele>158.80000305176</ele>
        <time>2020-10-18T12:10:23.000Z</time>
      </trkpt>
      <trkpt lat="48.2814" lon="-3.55207">
        <ele>158.80000305176</ele>
        <time>2020-10-18T12:10:24.000Z</time>
      </trkpt>
      <trkpt lat="48.2814" lon="-3.55207">
        <ele>158.80000305176</ele>
        <time>2020-10-18T12:10:25.000Z</time>
      </trkpt>
      <trkpt lat="48.2814" lon="-3.55207">
        <ele>158.80000305176</ele>
        <time>2020-10-18T12:10:26.000Z</time>
      </trkpt>
      <trkpt lat="48.2814" lon="-3.55207">
        <ele>158.80000305176</ele>
        <time>2020-10-18T12:10:27.000Z</time>
      </trkpt>
      <trkpt lat="48.2814" lon="-3.55207">
        <ele>158.80000305176</ele>
        <time>2020-10-18T12:10:28.000Z</time>
      </trkpt>
      <trkpt lat="48.2814" lon="-3.55207">
        <ele>158.80000305176</ele>
        <time>2020-10-18T12:10:29.000Z</time>
      </trkpt>
      <trkpt lat="48.2814" lon="-3.55207">
        <ele>158.80000305176</ele>
        <time>2020-10-18T12:10:30.000Z</time>
      </trkpt>
      <trkpt lat="48.2814" lon="-3.55207">
        <ele>158.80000305176</ele>
        <time>2020-10-18T12:10:31.000Z</time>
      </trkpt>
      <trkpt lat="48.2814" lon="-3.55207">
        <ele>158.80000305176</ele>
        <time>2020-10-18T12:10:32.000Z</time>
      </trkpt>
      <trkpt lat="48.2814" lon="-3.55207">
        <ele>158.80000305176</ele>
        <time>2020-10-18T12:10:33.000Z</time>
      </trkpt>
      <trkpt lat="48.2814" lon="-3.55207">
        <ele>158.80000305176</ele>
        <time>2020-10-18T12:10:34.000Z</time>
      </trkpt>
      <trkpt lat="48.2814" lon="-3.55207">
        <ele>158.80000305176</ele>
        <time>2020-10-18T12:10:35.000Z</time>
      </trkpt>
      <trkpt lat="48.2814" lon="-3.55207">
        <ele>158.80000305176</ele>
        <time>2020-10-18T12:10:36.000Z</time>
      </trkpt>
      <trkpt lat="48.2814" lon="-3.55207">
        <ele>158.80000305176</ele>
        <time>2020-10-18T12:10:37.000Z</time>
      </trkpt>
      <trkpt lat="48.2814" lon="-3.55207">
        <ele>158.80000305176</ele>
        <time>2020-10-18T12:10:38.000Z</time>
      </trkpt>
      <trkpt lat="48.2814" lon="-3.55207">
        <ele>158.80000305176</ele>
        <time>2020-10-18T12:10:39.000Z</time>
      </trkpt>
      <trkpt lat="48.2814" lon="-3.55207">
        <ele>158.80000305176</ele>
        <time>2020-10-18T12:10:40.000Z</time>
      </trkpt>
      <trkpt lat="48.2814" lon="-3.55207">
        <ele>158.80000305176</ele>
        <time>2020-10-18T12:10:41.000Z</time>
      </trkpt>
      <trkpt lat="48.2814" lon="-3.55207">
        <ele>158.80000305176</ele>
        <time>2020-10-18T12:10:42.000Z</time>
      </trkpt>
      <trkpt lat="48.2814" lon="-3.55207">
        <ele>158.80000305176</ele>
        <time>2020-10-18T12:10:43.000Z</time>
      </trkpt>
      <trkpt lat="48.2814" lon="-3.55207">
        <ele>158.80000305176</ele>
        <time>2020-10-18T12:10:44.000Z</time>
      </trkpt>
      <trkpt lat="48.2814" lon="-3.55207">
        <ele>158.80000305176</ele>
        <time>2020-10-18T12:10:45.000Z</time>
      </trkpt>
      <trkpt lat="48.2814" lon="-3.55207">
        <ele>158.80000305176</ele>
        <time>2020-10-18T12:10:46.000Z</time>
      </trkpt>
      <trkpt lat="48.2814" lon="-3.55207">
        <ele>158.80000305176</ele>
        <time>2020-10-18T12:10:47.000Z</time>
      </trkpt>
      <trkpt lat="48.2814" lon="-3.55207">
        <ele>158.80000305176</ele>
        <time>2020-10-18T12:10:48.000Z</time>
      </trkpt>
      <trkpt lat="48.2814" lon="-3.55207">
        <ele>158.80000305176</ele>
        <time>2020-10-18T12:10:49.000Z</time>
      </trkpt>
      <trkpt lat="48.2814" lon="-3.55207">
        <ele>158.80000305176</ele>
        <time>2020-10-18T12:10:50.000Z</time>
      </trkpt>
      <trkpt lat="48.2814" lon="-3.55207">
        <ele>158.80000305176</ele>
        <time>2020-10-18T12:10:51.000Z</time>
      </trkpt>
      <trkpt lat="48.2814" lon="-3.55207">
        <ele>158.80000305176</ele>
        <time>2020-10-18T12:10:52.000Z</time>
      </trkpt>
      <trkpt lat="48.2814" lon="-3.55207">
        <ele>158.80000305176</ele>
        <time>2020-10-18T12:10:53.000Z</time>
      </trkpt>
      <trkpt lat="48.2814" lon="-3.55207">
        <ele>158.80000305176</ele>
        <time>2020-10-18T12:10:54.000Z</time>
      </trkpt>
      <trkpt lat="48.2814" lon="-3.55207">
        <ele>158.80000305176</ele>
        <time>2020-10-18T12:10:55.000Z</time>
      </trkpt>
      <trkpt lat="48.2814" lon="-3.55207">
        <ele>158.80000305176</ele>
        <time>2020-10-18T12:10:56.000Z</time>
      </trkpt>
      <trkpt lat="48.2814" lon="-3.55207">
        <ele>158.80000305176</ele>
        <time>2020-10-18T12:10:57.000Z</time>
      </trkpt>
      <trkpt lat="48.2814" lon="-3.55207">
        <ele>158.80000305176</ele>
        <time>2020-10-18T12:10:58.000Z</time>
      </trkpt>
      <trkpt lat="48.2814" lon="-3.55207">
        <ele>158.80000305176</ele>
        <time>2020-10-18T12:10:59.000Z</time>
      </trkpt>
      <trkpt lat="48.2814" lon="-3.55207">
        <ele>158.80000305176</ele>
        <time>2020-10-18T12:11:00.000Z</time>
      </trkpt>
      <trkpt lat="48.2814" lon="-3.55207">
        <ele>158.80000305176</ele>
        <time>2020-10-18T12:11:01.000Z</time>
      </trkpt>
      <trkpt lat="48.2814" lon="-3.55207">
        <ele>158.80000305176</ele>
        <time>2020-10-18T12:11:02.000Z</time>
      </trkpt>
      <trkpt lat="48.2814" lon="-3.55207">
        <ele>158.80000305176</ele>
        <time>2020-10-18T12:11:03.000Z</time>
      </trkpt>
      <trkpt lat="48.2814" lon="-3.55207">
        <ele>158.80000305176</ele>
        <time>2020-10-18T12:11:04.000Z</time>
      </trkpt>
      <trkpt lat="48.2814" lon="-3.55207">
        <ele>158.80000305176</ele>
        <time>2020-10-18T12:11:05.000Z</time>
      </trkpt>
      <trkpt lat="48.2814" lon="-3.55207">
        <ele>158.80000305176</ele>
        <time>2020-10-18T12:11:06.000Z</time>
      </trkpt>
      <trkpt lat="48.2814" lon="-3.55207">
        <ele>158.80000305176</ele>
        <time>2020-10-18T12:11:07.000Z</time>
      </trkpt>
      <trkpt lat="48.2814" lon="-3.55207">
        <ele>158.80000305176</ele>
        <time>2020-10-18T12:11:08.000Z</time>
      </trkpt>
      <trkpt lat="48.2814" lon="-3.55207">
        <ele>158.80000305176</ele>
        <time>2020-10-18T12:11:09.000Z</time>
      </trkpt>
      <trkpt lat="48.28138" lon="-3.5521">
        <ele>158.80000305176</ele>
        <time>2020-10-18T12:11:10.000Z</time>
      </trkpt>
      <trkpt lat="48.28138" lon="-3.5521">
        <ele>158.80000305176</ele>
        <time>2020-10-18T12:11:11.000Z</time>
      </trkpt>
      <trkpt lat="48.28135" lon="-3.55215">
        <ele>158.80000305176</ele>
        <time>2020-10-18T12:11:12.000Z</time>
      </trkpt>
      <trkpt lat="48.28135" lon="-3.55215">
        <ele>158.80000305176</ele>
        <time>2020-10-18T12:11:13.000Z</time>
      </trkpt>
      <trkpt lat="48.28132" lon="-3.55218">
        <ele>158.80000305176</ele>
        <time>2020-10-18T12:11:14.000Z</time>
      </trkpt>
      <trkpt lat="48.28129" lon="-3.55225">
        <ele>158.80000305176</ele>
        <time>2020-10-18T12:11:15.000Z</time>
      </trkpt>
      <trkpt lat="48.28129" lon="-3.55225">
        <ele>158.80000305176</ele>
        <time>2020-10-18T12:11:16.000Z</time>
      </trkpt>
      <trkpt lat="48.28127" lon="-3.55228">
        <ele>158.80000305176</ele>
        <time>2020-10-18T12:11:17.000Z</time>
      </trkpt>
      <trkpt lat="48.28123" lon="-3.55235">
        <ele>158.60000610352</ele>
        <time>2020-10-18T12:11:18.000Z</time>
      </trkpt>
      <trkpt lat="48.2812" lon="-3.55239">
        <ele>158.60000610352</ele>
        <time>2020-10-18T12:11:19.000Z</time>
      </trkpt>
      <trkpt lat="48.2812" lon="-3.55239">
        <ele>158.60000610352</ele>
        <time>2020-10-18T12:11:20.000Z</time>
      </trkpt>
      <trkpt lat="48.28118" lon="-3.55243">
        <ele>158.60000610352</ele>
        <time>2020-10-18T12:11:21.000Z</time>
      </trkpt>
      <trkpt lat="48.28113" lon="-3.55252">
        <ele>158.60000610352</ele>
        <time>2020-10-18T12:11:22.000Z</time>
      </trkpt>
      <trkpt lat="48.28113" lon="-3.55252">
        <ele>158.60000610352</ele>
        <time>2020-10-18T12:11:23.000Z</time>
      </trkpt>
      <trkpt lat="48.2811" lon="-3.55256">
        <ele>158.60000610352</ele>
        <time>2020-10-18T12:11:24.000Z</time>
      </trkpt>
      <trkpt lat="48.28105" lon="-3.55265">
        <ele>158.60000610352</ele>
        <time>2020-10-18T12:11:25.000Z</time>
      </trkpt>
      <trkpt lat="48.28105" lon="-3.55265">
        <ele>158.60000610352</ele>
        <time>2020-10-18T12:11:26.000Z</time>
      </trkpt>
      <trkpt lat="48.28102" lon="-3.55269">
        <ele>158.60000610352</ele>
        <time>2020-10-18T12:11:27.000Z</time>
      </trkpt>
      <trkpt lat="48.28097" lon="-3.55277">
        <ele>158.39999389648</ele>
        <time>2020-10-18T12:11:28.000Z</time>
      </trkpt>
      <trkpt lat="48.28097" lon="-3.55277">
        <ele>158.39999389648</ele>
        <time>2020-10-18T12:11:29.000Z</time>
      </trkpt>
      <trkpt lat="48.28095" lon="-3.55281">
        <ele>158.19999694824</ele>
        <time>2020-10-18T12:11:30.000Z</time>
      </trkpt>
      <trkpt lat="48.28091" lon="-3.55289">
        <ele>157.60000610352</ele>
        <time>2020-10-18T12:11:31.000Z</time>
      </trkpt>
      <trkpt lat="48.28091" lon="-3.55289">
        <ele>157.60000610352</ele>
        <time>2020-10-18T12:11:32.000Z</time>
      </trkpt>
      <trkpt lat="48.28089" lon="-3.55297">
        <ele>157</ele>
        <time>2020-10-18T12:11:33.000Z</time>
      </trkpt>
      <trkpt lat="48.28089" lon="-3.55297">
        <ele>157</ele>
        <time>2020-10-18T12:11:34.000Z</time>
      </trkpt>
      <trkpt lat="48.28088" lon="-3.55301">
        <ele>156.80000305176</ele>
        <time>2020-10-18T12:11:35.000Z</time>
      </trkpt>
      <trkpt lat="48.28088" lon="-3.55307">
        <ele>156.39999389648</ele>
        <time>2020-10-18T12:11:36.000Z</time>
      </trkpt>
      <trkpt lat="48.28088" lon="-3.55307">
        <ele>156.39999389648</ele>
        <time>2020-10-18T12:11:37.000Z</time>
      </trkpt>
      <trkpt lat="48.28089" lon="-3.55309">
        <ele>156.39999389648</ele>
        <time>2020-10-18T12:11:38.000Z</time>
      </trkpt>
      <trkpt lat="48.2809" lon="-3.5531">
        <ele>156.39999389648</ele>
        <time>2020-10-18T12:11:39.000Z</time>
      </trkpt>
      <trkpt lat="48.2809" lon="-3.5531">
        <ele>156.39999389648</ele>
        <time>2020-10-18T12:11:40.000Z</time>
      </trkpt>
      <trkpt lat="48.28091" lon="-3.55309">
        <ele>156.39999389648</ele>
        <time>2020-10-18T12:11:41.000Z</time>
      </trkpt>
      <trkpt lat="48.28091" lon="-3.55309">
        <ele>156.39999389648</ele>
        <time>2020-10-18T12:11:42.000Z</time>
      </trkpt>
      <trkpt lat="48.28091" lon="-3.55309">
        <ele>156.39999389648</ele>
        <time>2020-10-18T12:11:43.000Z</time>
      </trkpt>
      <trkpt lat="48.28091" lon="-3.55309">
        <ele>156.39999389648</ele>
        <time>2020-10-18T12:11:44.000Z</time>
      </trkpt>
      <trkpt lat="48.28091" lon="-3.55309">
        <ele>156.39999389648</ele>
        <time>2020-10-18T12:11:45.000Z</time>
      </trkpt>
      <trkpt lat="48.28091" lon="-3.55309">
        <ele>156.39999389648</ele>
        <time>2020-10-18T12:11:46.000Z</time>
      </trkpt>
      <trkpt lat="48.28091" lon="-3.55309">
        <ele>156.39999389648</ele>
        <time>2020-10-18T12:11:47.000Z</time>
      </trkpt>
      <trkpt lat="48.28091" lon="-3.55309">
        <ele>156.39999389648</ele>
        <time>2020-10-18T12:11:48.000Z</time>
      </trkpt>
      <trkpt lat="48.28091" lon="-3.55309">
        <ele>156.39999389648</ele>
        <time>2020-10-18T12:11:49.000Z</time>
      </trkpt>
      <trkpt lat="48.28091" lon="-3.55309">
        <ele>156.39999389648</ele>
        <time>2020-10-18T12:11:50.000Z</time>
      </trkpt>
      <trkpt lat="48.28091" lon="-3.55309">
        <ele>156.39999389648</ele>
        <time>2020-10-18T12:11:51.000Z</time>
      </trkpt>
      <trkpt lat="48.28091" lon="-3.55309">
        <ele>156.39999389648</ele>
        <time>2020-10-18T12:11:52.000Z</time>
      </trkpt>
      <trkpt lat="48.28091" lon="-3.55309">
        <ele>156.39999389648</ele>
        <time>2020-10-18T12:11:53.000Z</time>
      </trkpt>
      <trkpt lat="48.28091" lon="-3.55309">
        <ele>156.39999389648</ele>
        <time>2020-10-18T12:11:54.000Z</time>
      </trkpt>
      <trkpt lat="48.28091" lon="-3.55309">
        <ele>156.39999389648</ele>
        <time>2020-10-18T12:11:55.000Z</time>
      </trkpt>
      <trkpt lat="48.28091" lon="-3.55309">
        <ele>156.39999389648</ele>
        <time>2020-10-18T12:11:56.000Z</time>
      </trkpt>
      <trkpt lat="48.28091" lon="-3.55309">
        <ele>156.39999389648</ele>
        <time>2020-10-18T12:11:57.000Z</time>
      </trkpt>
      <trkpt lat="48.28091" lon="-3.55309">
        <ele>156.39999389648</ele>
        <time>2020-10-18T12:11:58.000Z</time>
      </trkpt>
      <trkpt lat="48.28091" lon="-3.55309">
        <ele>156.39999389648</ele>
        <time>2020-10-18T12:11:59.000Z</time>
      </trkpt>
      <trkpt lat="48.28091" lon="-3.55309">
        <ele>156.39999389648</ele>
        <time>2020-10-18T12:12:00.000Z</time>
      </trkpt>
      <trkpt lat="48.28091" lon="-3.55309">
        <ele>156.39999389648</ele>
        <time>2020-10-18T12:12:01.000Z</time>
      </trkpt>
      <trkpt lat="48.28091" lon="-3.55309">
        <ele>156.39999389648</ele>
        <time>2020-10-18T12:12:02.000Z</time>
      </trkpt>
      <trkpt lat="48.28091" lon="-3.55309">
        <ele>156.39999389648</ele>
        <time>2020-10-18T12:12:03.000Z</time>
      </trkpt>
      <trkpt lat="48.28091" lon="-3.55309">
        <ele>156.39999389648</ele>
        <time>2020-10-18T12:12:04.000Z</time>
      </trkpt>
      <trkpt lat="48.28091" lon="-3.55309">
        <ele>156.39999389648</ele>
        <time>2020-10-18T12:12:05.000Z</time>
      </trkpt>
      <trkpt lat="48.28091" lon="-3.55309">
        <ele>156.39999389648</ele>
        <time>2020-10-18T12:12:06.000Z</time>
      </trkpt>
      <trkpt lat="48.28091" lon="-3.55309">
        <ele>156.39999389648</ele>
        <time>2020-10-18T12:12:07.000Z</time>
      </trkpt>
      <trkpt lat="48.28091" lon="-3.55309">
        <ele>156.39999389648</ele>
        <time>2020-10-18T12:12:08.000Z</time>
      </trkpt>
      <trkpt lat="48.28091" lon="-3.55309">
        <ele>156.39999389648</ele>
        <time>2020-10-18T12:12:09.000Z</time>
      </trkpt>
      <trkpt lat="48.28091" lon="-3.55309">
        <ele>156.39999389648</ele>
        <time>2020-10-18T12:12:10.000Z</time>
      </trkpt>
      <trkpt lat="48.28091" lon="-3.55309">
        <ele>156.39999389648</ele>
        <time>2020-10-18T12:12:11.000Z</time>
      </trkpt>
      <trkpt lat="48.28091" lon="-3.55309">
        <ele>156.39999389648</ele>
        <time>2020-10-18T12:12:12.000Z</time>
      </trkpt>
      <trkpt lat="48.28091" lon="-3.55309">
        <ele>156.39999389648</ele>
        <time>2020-10-18T12:12:13.000Z</time>
      </trkpt>
      <trkpt lat="48.28091" lon="-3.55309">
        <ele>156.39999389648</ele>
        <time>2020-10-18T12:12:14.000Z</time>
      </trkpt>
      <trkpt lat="48.28091" lon="-3.55309">
        <ele>156.39999389648</ele>
        <time>2020-10-18T12:12:15.000Z</time>
      </trkpt>
      <trkpt lat="48.28091" lon="-3.55309">
        <ele>156.39999389648</ele>
        <time>2020-10-18T12:12:16.000Z</time>
      </trkpt>
      <trkpt lat="48.28091" lon="-3.55309">
        <ele>156.39999389648</ele>
        <time>2020-10-18T12:12:17.000Z</time>
      </trkpt>
      <trkpt lat="48.28091" lon="-3.55309">
        <ele>156.39999389648</ele>
        <time>2020-10-18T12:12:18.000Z</time>
      </trkpt>
      <trkpt lat="48.28091" lon="-3.55309">
        <ele>156.39999389648</ele>
        <time>2020-10-18T12:12:19.000Z</time>
      </trkpt>
      <trkpt lat="48.28091" lon="-3.55309">
        <ele>156.39999389648</ele>
        <time>2020-10-18T12:12:20.000Z</time>
      </trkpt>
      <trkpt lat="48.28091" lon="-3.55309">
        <ele>156.39999389648</ele>
        <time>2020-10-18T12:12:21.000Z</time>
      </trkpt>
      <trkpt lat="48.28091" lon="-3.55309">
        <ele>156.39999389648</ele>
        <time>2020-10-18T12:12:22.000Z</time>
      </trkpt>
      <trkpt lat="48.28091" lon="-3.55309">
        <ele>156.39999389648</ele>
        <time>2020-10-18T12:12:23.000Z</time>
      </trkpt>
      <trkpt lat="48.28091" lon="-3.55309">
        <ele>156.39999389648</ele>
        <time>2020-10-18T12:12:24.000Z</time>
      </trkpt>
      <trkpt lat="48.28091" lon="-3.55309">
        <ele>156.39999389648</ele>
        <time>2020-10-18T12:12:25.000Z</time>
      </trkpt>
      <trkpt lat="48.28091" lon="-3.55309">
        <ele>156.39999389648</ele>
        <time>2020-10-18T12:12:26.000Z</time>
      </trkpt>
      <trkpt lat="48.28091" lon="-3.55309">
        <ele>156.39999389648</ele>
        <time>2020-10-18T12:12:27.000Z</time>
      </trkpt>
      <trkpt lat="48.28091" lon="-3.55309">
        <ele>156.39999389648</ele>
        <time>2020-10-18T12:12:28.000Z</time>
      </trkpt>
      <trkpt lat="48.28091" lon="-3.55309">
        <ele>156.39999389648</ele>
        <time>2020-10-18T12:12:29.000Z</time>
      </trkpt>
      <trkpt lat="48.28091" lon="-3.55309">
        <ele>156.39999389648</ele>
        <time>2020-10-18T12:12:30.000Z</time>
      </trkpt>
      <trkpt lat="48.28091" lon="-3.55309">
        <ele>156.39999389648</ele>
        <time>2020-10-18T12:12:31.000Z</time>
      </trkpt>
      <trkpt lat="48.28091" lon="-3.55309">
        <ele>156.39999389648</ele>
        <time>2020-10-18T12:12:32.000Z</time>
      </trkpt>
      <trkpt lat="48.28091" lon="-3.55309">
        <ele>156.39999389648</ele>
        <time>2020-10-18T12:12:33.000Z</time>
      </trkpt>
      <trkpt lat="48.28091" lon="-3.55309">
        <ele>156.39999389648</ele>
        <time>2020-10-18T12:12:34.000Z</time>
      </trkpt>
      <trkpt lat="48.28091" lon="-3.55309">
        <ele>156.39999389648</ele>
        <time>2020-10-18T12:12:35.000Z</time>
      </trkpt>
      <trkpt lat="48.28091" lon="-3.55309">
        <ele>156.39999389648</ele>
        <time>2020-10-18T12:12:36.000Z</time>
      </trkpt>
      <trkpt lat="48.28091" lon="-3.55309">
        <ele>156.39999389648</ele>
        <time>2020-10-18T12:12:37.000Z</time>
      </trkpt>
      <trkpt lat="48.28091" lon="-3.55309">
        <ele>156.39999389648</ele>
        <time>2020-10-18T12:12:38.000Z</time>
      </trkpt>
      <trkpt lat="48.28091" lon="-3.55309">
        <ele>156.39999389648</ele>
        <time>2020-10-18T12:12:39.000Z</time>
      </trkpt>
      <trkpt lat="48.28091" lon="-3.55309">
        <ele>156.39999389648</ele>
        <time>2020-10-18T12:12:40.000Z</time>
      </trkpt>
      <trkpt lat="48.28091" lon="-3.55309">
        <ele>156.39999389648</ele>
        <time>2020-10-18T12:12:41.000Z</time>
      </trkpt>
      <trkpt lat="48.28091" lon="-3.55309">
        <ele>156.39999389648</ele>
        <time>2020-10-18T12:12:42.000Z</time>
      </trkpt>
      <trkpt lat="48.28091" lon="-3.55309">
        <ele>156.39999389648</ele>
        <time>2020-10-18T12:12:43.000Z</time>
      </trkpt>
      <trkpt lat="48.28091" lon="-3.55309">
        <ele>156.39999389648</ele>
        <time>2020-10-18T12:12:44.000Z</time>
      </trkpt>
      <trkpt lat="48.28091" lon="-3.55309">
        <ele>156.39999389648</ele>
        <time>2020-10-18T12:12:45.000Z</time>
      </trkpt>
      <trkpt lat="48.28091" lon="-3.55309">
        <ele>156.39999389648</ele>
        <time>2020-10-18T12:12:46.000Z</time>
      </trkpt>
      <trkpt lat="48.28091" lon="-3.55309">
        <ele>156.39999389648</ele>
        <time>2020-10-18T12:12:47.000Z</time>
      </trkpt>
      <trkpt lat="48.28091" lon="-3.55309">
        <ele>156.39999389648</ele>
        <time>2020-10-18T12:12:48.000Z</time>
      </trkpt>
      <trkpt lat="48.28091" lon="-3.55309">
        <ele>156.39999389648</ele>
        <time>2020-10-18T12:12:49.000Z</time>
      </trkpt>
      <trkpt lat="48.28091" lon="-3.55309">
        <ele>156.39999389648</ele>
        <time>2020-10-18T12:12:50.000Z</time>
      </trkpt>
      <trkpt lat="48.28091" lon="-3.55309">
        <ele>156.39999389648</ele>
        <time>2020-10-18T12:12:51.000Z</time>
      </trkpt>
      <trkpt lat="48.28091" lon="-3.55309">
        <ele>156.39999389648</ele>
        <time>2020-10-18T12:12:52.000Z</time>
      </trkpt>
      <trkpt lat="48.28091" lon="-3.55309">
        <ele>156.39999389648</ele>
        <time>2020-10-18T12:12:53.000Z</time>
      </trkpt>
      <trkpt lat="48.28091" lon="-3.55309">
        <ele>156.39999389648</ele>
        <time>2020-10-18T12:12:54.000Z</time>
      </trkpt>
      <trkpt lat="48.28091" lon="-3.55309">
        <ele>156.39999389648</ele>
        <time>2020-10-18T12:12:55.000Z</time>
      </trkpt>
      <trkpt lat="48.28091" lon="-3.55309">
        <ele>156.39999389648</ele>
        <time>2020-10-18T12:12:56.000Z</time>
      </trkpt>
      <trkpt lat="48.28091" lon="-3.55309">
        <ele>156.39999389648</ele>
        <time>2020-10-18T12:12:57.000Z</time>
      </trkpt>
      <trkpt lat="48.28091" lon="-3.55309">
        <ele>156.39999389648</ele>
        <time>2020-10-18T12:12:58.000Z</time>
      </trkpt>
      <trkpt lat="48.28091" lon="-3.55309">
        <ele>156.39999389648</ele>
        <time>2020-10-18T12:12:59.000Z</time>
      </trkpt>
      <trkpt lat="48.28091" lon="-3.55309">
        <ele>156.39999389648</ele>
        <time>2020-10-18T12:13:00.000Z</time>
      </trkpt>
      <trkpt lat="48.28091" lon="-3.55309">
        <ele>156.39999389648</ele>
        <time>2020-10-18T12:13:01.000Z</time>
      </trkpt>
      <trkpt lat="48.28091" lon="-3.55309">
        <ele>156.39999389648</ele>
        <time>2020-10-18T12:13:02.000Z</time>
      </trkpt>
      <trkpt lat="48.28091" lon="-3.55309">
        <ele>156.39999389648</ele>
        <time>2020-10-18T12:13:03.000Z</time>
      </trkpt>
      <trkpt lat="48.28091" lon="-3.55309">
        <ele>156.39999389648</ele>
        <time>2020-10-18T12:13:04.000Z</time>
      </trkpt>
      <trkpt lat="48.28091" lon="-3.55309">
        <ele>156.39999389648</ele>
        <time>2020-10-18T12:13:05.000Z</time>
      </trkpt>
      <trkpt lat="48.28091" lon="-3.55309">
        <ele>156.39999389648</ele>
        <time>2020-10-18T12:13:06.000Z</time>
      </trkpt>
      <trkpt lat="48.28091" lon="-3.55309">
        <ele>156.39999389648</ele>
        <time>2020-10-18T12:13:07.000Z</time>
      </trkpt>
      <trkpt lat="48.28091" lon="-3.55309">
        <ele>156.39999389648</ele>
        <time>2020-10-18T12:13:08.000Z</time>
      </trkpt>
      <trkpt lat="48.28091" lon="-3.55309">
        <ele>156.39999389648</ele>
        <time>2020-10-18T12:13:09.000Z</time>
      </trkpt>
      <trkpt lat="48.28091" lon="-3.55309">
        <ele>156.39999389648</ele>
        <time>2020-10-18T12:13:10.000Z</time>
      </trkpt>
      <trkpt lat="48.28091" lon="-3.55309">
        <ele>156.39999389648</ele>
        <time>2020-10-18T12:13:11.000Z</time>
      </trkpt>
      <trkpt lat="48.28091" lon="-3.55309">
        <ele>156.39999389648</ele>
        <time>2020-10-18T12:13:12.000Z</time>
      </trkpt>
      <trkpt lat="48.28091" lon="-3.55309">
        <ele>156.39999389648</ele>
        <time>2020-10-18T12:13:13.000Z</time>
      </trkpt>
      <trkpt lat="48.28091" lon="-3.55309">
        <ele>156.39999389648</ele>
        <time>2020-10-18T12:13:14.000Z</time>
      </trkpt>
      <trkpt lat="48.28091" lon="-3.55309">
        <ele>156.39999389648</ele>
        <time>2020-10-18T12:13:15.000Z</time>
      </trkpt>
      <trkpt lat="48.28091" lon="-3.55309">
        <ele>156.39999389648</ele>
        <time>2020-10-18T12:13:16.000Z</time>
      </trkpt>
      <trkpt lat="48.28091" lon="-3.55309">
        <ele>156.39999389648</ele>
        <time>2020-10-18T12:13:17.000Z</time>
      </trkpt>
      <trkpt lat="48.28091" lon="-3.55309">
        <ele>156.39999389648</ele>
        <time>2020-10-18T12:13:18.000Z</time>
      </trkpt>
      <trkpt lat="48.28091" lon="-3.55309">
        <ele>156.39999389648</ele>
        <time>2020-10-18T12:13:19.000Z</time>
      </trkpt>
      <trkpt lat="48.28091" lon="-3.55309">
        <ele>156.39999389648</ele>
        <time>2020-10-18T12:13:20.000Z</time>
      </trkpt>
      <trkpt lat="48.28091" lon="-3.55309">
        <ele>156.39999389648</ele>
        <time>2020-10-18T12:13:21.000Z</time>
      </trkpt>
      <trkpt lat="48.28091" lon="-3.55309">
        <ele>156.39999389648</ele>
        <time>2020-10-18T12:13:22.000Z</time>
      </trkpt>
      <trkpt lat="48.28091" lon="-3.55309">
        <ele>156.39999389648</ele>
        <time>2020-10-18T12:13:23.000Z</time>
      </trkpt>
      <trkpt lat="48.28091" lon="-3.55309">
        <ele>156.39999389648</ele>
        <time>2020-10-18T12:13:24.000Z</time>
      </trkpt>
      <trkpt lat="48.28091" lon="-3.55309">
        <ele>156.39999389648</ele>
        <time>2020-10-18T12:13:25.000Z</time>
      </trkpt>
      <trkpt lat="48.28091" lon="-3.55309">
        <ele>156.39999389648</ele>
        <time>2020-10-18T12:13:26.000Z</time>
      </trkpt>
      <trkpt lat="48.28091" lon="-3.55309">
        <ele>156.39999389648</ele>
        <time>2020-10-18T12:13:27.000Z</time>
      </trkpt>
      <trkpt lat="48.28091" lon="-3.55309">
        <ele>156.39999389648</ele>
        <time>2020-10-18T12:13:28.000Z</time>
      </trkpt>
      <trkpt lat="48.28091" lon="-3.55309">
        <ele>156.39999389648</ele>
        <time>2020-10-18T12:13:29.000Z</time>
      </trkpt>
      <trkpt lat="48.28091" lon="-3.55309">
        <ele>156.39999389648</ele>
        <time>2020-10-18T12:13:30.000Z</time>
      </trkpt>
      <trkpt lat="48.28091" lon="-3.55309">
        <ele>156.39999389648</ele>
        <time>2020-10-18T12:13:31.000Z</time>
      </trkpt>
      <trkpt lat="48.28091" lon="-3.55309">
        <ele>156.39999389648</ele>
        <time>2020-10-18T12:13:32.000Z</time>
      </trkpt>
      <trkpt lat="48.28091" lon="-3.55309">
        <ele>156.39999389648</ele>
        <time>2020-10-18T12:13:33.000Z</time>
      </trkpt>
      <trkpt lat="48.28091" lon="-3.55309">
        <ele>156.39999389648</ele>
        <time>2020-10-18T12:13:34.000Z</time>
      </trkpt>
      <trkpt lat="48.28091" lon="-3.55309">
        <ele>156.39999389648</ele>
        <time>2020-10-18T12:13:35.000Z</time>
      </trkpt>
      <trkpt lat="48.28091" lon="-3.55309">
        <ele>156.39999389648</ele>
        <time>2020-10-18T12:13:36.000Z</time>
      </trkpt>
      <trkpt lat="48.28091" lon="-3.55309">
        <ele>156.39999389648</ele>
        <time>2020-10-18T12:13:37.000Z</time>
      </trkpt>
      <trkpt lat="48.28091" lon="-3.55309">
        <ele>156.39999389648</ele>
        <time>2020-10-18T12:13:38.000Z</time>
      </trkpt>
      <trkpt lat="48.28091" lon="-3.55309">
        <ele>156.39999389648</ele>
        <time>2020-10-18T12:13:39.000Z</time>
      </trkpt>
      <trkpt lat="48.28091" lon="-3.55309">
        <ele>156.39999389648</ele>
        <time>2020-10-18T12:13:40.000Z</time>
      </trkpt>
      <trkpt lat="48.28091" lon="-3.55309">
        <ele>156.39999389648</ele>
        <time>2020-10-18T12:13:41.000Z</time>
      </trkpt>
      <trkpt lat="48.28091" lon="-3.55309">
        <ele>156.39999389648</ele>
        <time>2020-10-18T12:13:42.000Z</time>
      </trkpt>
      <trkpt lat="48.28091" lon="-3.55309">
        <ele>156.39999389648</ele>
        <time>2020-10-18T12:13:43.000Z</time>
      </trkpt>
      <trkpt lat="48.28091" lon="-3.55309">
        <ele>156.39999389648</ele>
        <time>2020-10-18T12:13:44.000Z</time>
      </trkpt>
      <trkpt lat="48.28091" lon="-3.55309">
        <ele>156.39999389648</ele>
        <time>2020-10-18T12:13:45.000Z</time>
      </trkpt>
      <trkpt lat="48.28091" lon="-3.55309">
        <ele>156.39999389648</ele>
        <time>2020-10-18T12:13:46.000Z</time>
      </trkpt>
      <trkpt lat="48.28091" lon="-3.55309">
        <ele>156.39999389648</ele>
        <time>2020-10-18T12:13:47.000Z</time>
      </trkpt>
      <trkpt lat="48.28091" lon="-3.55309">
        <ele>156.39999389648</ele>
        <time>2020-10-18T12:13:48.000Z</time>
      </trkpt>
      <trkpt lat="48.28091" lon="-3.55309">
        <ele>156.39999389648</ele>
        <time>2020-10-18T12:13:49.000Z</time>
      </trkpt>
      <trkpt lat="48.28091" lon="-3.55309">
        <ele>156.39999389648</ele>
        <time>2020-10-18T12:13:50.000Z</time>
      </trkpt>
      <trkpt lat="48.28091" lon="-3.55309">
        <ele>156.39999389648</ele>
        <time>2020-10-18T12:13:51.000Z</time>
      </trkpt>
      <trkpt lat="48.28091" lon="-3.55309">
        <ele>156.39999389648</ele>
        <time>2020-10-18T12:13:52.000Z</time>
      </trkpt>
      <trkpt lat="48.28091" lon="-3.55309">
        <ele>156.39999389648</ele>
        <time>2020-10-18T12:13:53.000Z</time>
      </trkpt>
      <trkpt lat="48.28091" lon="-3.55309">
        <ele>156.39999389648</ele>
        <time>2020-10-18T12:13:54.000Z</time>
      </trkpt>
      <trkpt lat="48.28091" lon="-3.55309">
        <ele>156.39999389648</ele>
        <time>2020-10-18T12:13:55.000Z</time>
      </trkpt>
      <trkpt lat="48.28091" lon="-3.55309">
        <ele>156.39999389648</ele>
        <time>2020-10-18T12:13:56.000Z</time>
      </trkpt>
      <trkpt lat="48.28091" lon="-3.55309">
        <ele>156.39999389648</ele>
        <time>2020-10-18T12:13:57.000Z</time>
      </trkpt>
      <trkpt lat="48.28091" lon="-3.55309">
        <ele>156.39999389648</ele>
        <time>2020-10-18T12:13:58.000Z</time>
      </trkpt>
      <trkpt lat="48.28091" lon="-3.55309">
        <ele>156.39999389648</ele>
        <time>2020-10-18T12:13:59.000Z</time>
      </trkpt>
      <trkpt lat="48.28091" lon="-3.55309">
        <ele>156.39999389648</ele>
        <time>2020-10-18T12:14:00.000Z</time>
      </trkpt>
      <trkpt lat="48.28091" lon="-3.55309">
        <ele>156.39999389648</ele>
        <time>2020-10-18T12:14:01.000Z</time>
      </trkpt>
      <trkpt lat="48.28091" lon="-3.55309">
        <ele>156.39999389648</ele>
        <time>2020-10-18T12:14:02.000Z</time>
      </trkpt>
      <trkpt lat="48.28091" lon="-3.55309">
        <ele>156.39999389648</ele>
        <time>2020-10-18T12:14:03.000Z</time>
      </trkpt>
      <trkpt lat="48.28091" lon="-3.55309">
        <ele>156.39999389648</ele>
        <time>2020-10-18T12:14:04.000Z</time>
      </trkpt>
      <trkpt lat="48.28091" lon="-3.55309">
        <ele>156.39999389648</ele>
        <time>2020-10-18T12:14:05.000Z</time>
      </trkpt>
      <trkpt lat="48.28091" lon="-3.55309">
        <ele>156.39999389648</ele>
        <time>2020-10-18T12:14:06.000Z</time>
      </trkpt>
      <trkpt lat="48.28091" lon="-3.55309">
        <ele>156.39999389648</ele>
        <time>2020-10-18T12:14:07.000Z</time>
      </trkpt>
      <trkpt lat="48.28091" lon="-3.55309">
        <ele>156.39999389648</ele>
        <time>2020-10-18T12:14:08.000Z</time>
      </trkpt>
      <trkpt lat="48.28091" lon="-3.55309">
        <ele>156.39999389648</ele>
        <time>2020-10-18T12:14:09.000Z</time>
      </trkpt>
      <trkpt lat="48.28091" lon="-3.55309">
        <ele>156.39999389648</ele>
        <time>2020-10-18T12:14:10.000Z</time>
      </trkpt>
      <trkpt lat="48.28091" lon="-3.55309">
        <ele>156.39999389648</ele>
        <time>2020-10-18T12:14:11.000Z</time>
      </trkpt>
      <trkpt lat="48.28091" lon="-3.55309">
        <ele>156.39999389648</ele>
        <time>2020-10-18T12:14:12.000Z</time>
      </trkpt>
      <trkpt lat="48.28091" lon="-3.55309">
        <ele>156.39999389648</ele>
        <time>2020-10-18T12:14:13.000Z</time>
      </trkpt>
      <trkpt lat="48.28091" lon="-3.55309">
        <ele>156.39999389648</ele>
        <time>2020-10-18T12:14:14.000Z</time>
      </trkpt>
      <trkpt lat="48.28091" lon="-3.55309">
        <ele>156.39999389648</ele>
        <time>2020-10-18T12:14:15.000Z</time>
      </trkpt>
      <trkpt lat="48.28091" lon="-3.55309">
        <ele>156.39999389648</ele>
        <time>2020-10-18T12:14:16.000Z</time>
      </trkpt>
      <trkpt lat="48.28091" lon="-3.55309">
        <ele>156.39999389648</ele>
        <time>2020-10-18T12:14:17.000Z</time>
      </trkpt>
      <trkpt lat="48.28091" lon="-3.55309">
        <ele>156.39999389648</ele>
        <time>2020-10-18T12:14:18.000Z</time>
      </trkpt>
      <trkpt lat="48.28091" lon="-3.55309">
        <ele>156.39999389648</ele>
        <time>2020-10-18T12:14:19.000Z</time>
      </trkpt>
      <trkpt lat="48.28091" lon="-3.55309">
        <ele>156.39999389648</ele>
        <time>2020-10-18T12:14:20.000Z</time>
      </trkpt>
      <trkpt lat="48.28091" lon="-3.55309">
        <ele>156.39999389648</ele>
        <time>2020-10-18T12:14:21.000Z</time>
      </trkpt>
      <trkpt lat="48.28091" lon="-3.55309">
        <ele>156.39999389648</ele>
        <time>2020-10-18T12:14:22.000Z</time>
      </trkpt>
      <trkpt lat="48.28091" lon="-3.55309">
        <ele>156.39999389648</ele>
        <time>2020-10-18T12:14:23.000Z</time>
      </trkpt>
      <trkpt lat="48.28091" lon="-3.55309">
        <ele>156.39999389648</ele>
        <time>2020-10-18T12:14:24.000Z</time>
      </trkpt>
      <trkpt lat="48.28091" lon="-3.55309">
        <ele>156.39999389648</ele>
        <time>2020-10-18T12:14:25.000Z</time>
      </trkpt>
      <trkpt lat="48.28091" lon="-3.55309">
        <ele>156.39999389648</ele>
        <time>2020-10-18T12:14:26.000Z</time>
      </trkpt>
      <trkpt lat="48.28091" lon="-3.55309">
        <ele>156.39999389648</ele>
        <time>2020-10-18T12:14:27.000Z</time>
      </trkpt>
      <trkpt lat="48.28091" lon="-3.55309">
        <ele>156.39999389648</ele>
        <time>2020-10-18T12:14:28.000Z</time>
      </trkpt>
      <trkpt lat="48.28091" lon="-3.55309">
        <ele>156.39999389648</ele>
        <time>2020-10-18T12:14:29.000Z</time>
      </trkpt>
      <trkpt lat="48.28091" lon="-3.55309">
        <ele>156.39999389648</ele>
        <time>2020-10-18T12:14:30.000Z</time>
      </trkpt>
      <trkpt lat="48.28091" lon="-3.55309">
        <ele>156.39999389648</ele>
        <time>2020-10-18T12:14:31.000Z</time>
      </trkpt>
      <trkpt lat="48.28091" lon="-3.55309">
        <ele>156.39999389648</ele>
        <time>2020-10-18T12:14:32.000Z</time>
      </trkpt>
      <trkpt lat="48.28091" lon="-3.55309">
        <ele>156.39999389648</ele>
        <time>2020-10-18T12:14:33.000Z</time>
      </trkpt>
      <trkpt lat="48.28091" lon="-3.55309">
        <ele>156.39999389648</ele>
        <time>2020-10-18T12:14:34.000Z</time>
      </trkpt>
      <trkpt lat="48.28091" lon="-3.55309">
        <ele>156.39999389648</ele>
        <time>2020-10-18T12:14:35.000Z</time>
      </trkpt>
      <trkpt lat="48.28091" lon="-3.55309">
        <ele>156.39999389648</ele>
        <time>2020-10-18T12:14:36.000Z</time>
      </trkpt>
      <trkpt lat="48.28091" lon="-3.55309">
        <ele>156.39999389648</ele>
        <time>2020-10-18T12:14:37.000Z</time>
      </trkpt>
      <trkpt lat="48.28091" lon="-3.55309">
        <ele>156.39999389648</ele>
        <time>2020-10-18T12:14:38.000Z</time>
      </trkpt>
      <trkpt lat="48.28091" lon="-3.55309">
        <ele>156.39999389648</ele>
        <time>2020-10-18T12:14:39.000Z</time>
      </trkpt>
      <trkpt lat="48.28091" lon="-3.55309">
        <ele>156.39999389648</ele>
        <time>2020-10-18T12:14:40.000Z</time>
      </trkpt>
      <trkpt lat="48.28091" lon="-3.55309">
        <ele>156.39999389648</ele>
        <time>2020-10-18T12:14:41.000Z</time>
      </trkpt>
      <trkpt lat="48.28091" lon="-3.55309">
        <ele>156.39999389648</ele>
        <time>2020-10-18T12:14:42.000Z</time>
      </trkpt>
      <trkpt lat="48.28091" lon="-3.55309">
        <ele>156.39999389648</ele>
        <time>2020-10-18T12:14:43.000Z</time>
      </trkpt>
      <trkpt lat="48.28091" lon="-3.55309">
        <ele>156.39999389648</ele>
        <time>2020-10-18T12:14:44.000Z</time>
      </trkpt>
      <trkpt lat="48.28091" lon="-3.55309">
        <ele>156.39999389648</ele>
        <time>2020-10-18T12:14:45.000Z</time>
      </trkpt>
      <trkpt lat="48.28091" lon="-3.55309">
        <ele>156.39999389648</ele>
        <time>2020-10-18T12:14:46.000Z</time>
      </trkpt>
      <trkpt lat="48.28091" lon="-3.55309">
        <ele>156.39999389648</ele>
        <time>2020-10-18T12:14:47.000Z</time>
      </trkpt>
      <trkpt lat="48.28091" lon="-3.55309">
        <ele>156.39999389648</ele>
        <time>2020-10-18T12:14:48.000Z</time>
      </trkpt>
      <trkpt lat="48.28091" lon="-3.55309">
        <ele>156.39999389648</ele>
        <time>2020-10-18T12:14:49.000Z</time>
      </trkpt>
      <trkpt lat="48.28091" lon="-3.55309">
        <ele>156.39999389648</ele>
        <time>2020-10-18T12:14:50.000Z</time>
      </trkpt>
      <trkpt lat="48.28091" lon="-3.55309">
        <ele>156.39999389648</ele>
        <time>2020-10-18T12:14:51.000Z</time>
      </trkpt>
      <trkpt lat="48.28091" lon="-3.55309">
        <ele>156.39999389648</ele>
        <time>2020-10-18T12:14:52.000Z</time>
      </trkpt>
      <trkpt lat="48.28091" lon="-3.55309">
        <ele>156.39999389648</ele>
        <time>2020-10-18T12:14:53.000Z</time>
      </trkpt>
      <trkpt lat="48.28091" lon="-3.55309">
        <ele>156.39999389648</ele>
        <time>2020-10-18T12:14:54.000Z</time>
      </trkpt>
      <trkpt lat="48.28091" lon="-3.55309">
        <ele>156.39999389648</ele>
        <time>2020-10-18T12:14:55.000Z</time>
      </trkpt>
      <trkpt lat="48.28091" lon="-3.55309">
        <ele>156.39999389648</ele>
        <time>2020-10-18T12:14:56.000Z</time>
      </trkpt>
      <trkpt lat="48.28091" lon="-3.55309">
        <ele>156.39999389648</ele>
        <time>2020-10-18T12:14:57.000Z</time>
      </trkpt>
      <trkpt lat="48.28091" lon="-3.55309">
        <ele>156.39999389648</ele>
        <time>2020-10-18T12:14:58.000Z</time>
      </trkpt>
      <trkpt lat="48.28091" lon="-3.55309">
        <ele>156.39999389648</ele>
        <time>2020-10-18T12:14:59.000Z</time>
      </trkpt>
      <trkpt lat="48.28091" lon="-3.55309">
        <ele>156.39999389648</ele>
        <time>2020-10-18T12:15:00.000Z</time>
      </trkpt>
      <trkpt lat="48.28091" lon="-3.55309">
        <ele>156.39999389648</ele>
        <time>2020-10-18T12:15:01.000Z</time>
      </trkpt>
      <trkpt lat="48.28091" lon="-3.55309">
        <ele>156.39999389648</ele>
        <time>2020-10-18T12:15:02.000Z</time>
      </trkpt>
      <trkpt lat="48.28091" lon="-3.55309">
        <ele>156.39999389648</ele>
        <time>2020-10-18T12:15:03.000Z</time>
      </trkpt>
      <trkpt lat="48.28091" lon="-3.55309">
        <ele>156.39999389648</ele>
        <time>2020-10-18T12:15:04.000Z</time>
      </trkpt>
      <trkpt lat="48.28091" lon="-3.55309">
        <ele>156.39999389648</ele>
        <time>2020-10-18T12:15:05.000Z</time>
      </trkpt>
      <trkpt lat="48.28091" lon="-3.5531">
        <ele>156.39999389648</ele>
        <time>2020-10-18T12:15:06.000Z</time>
      </trkpt>
      <trkpt lat="48.28091" lon="-3.5531">
        <ele>156.39999389648</ele>
        <time>2020-10-18T12:15:07.000Z</time>
      </trkpt>
      <trkpt lat="48.28091" lon="-3.5531">
        <ele>156.39999389648</ele>
        <time>2020-10-18T12:15:08.000Z</time>
      </trkpt>
      <trkpt lat="48.28091" lon="-3.5531">
        <ele>156.39999389648</ele>
        <time>2020-10-18T12:15:09.000Z</time>
      </trkpt>
      <trkpt lat="48.28091" lon="-3.5531">
        <ele>156.39999389648</ele>
        <time>2020-10-18T12:15:10.000Z</time>
      </trkpt>
      <trkpt lat="48.28091" lon="-3.5531">
        <ele>156.39999389648</ele>
        <time>2020-10-18T12:15:11.000Z</time>
      </trkpt>
      <trkpt lat="48.28092" lon="-3.5531">
        <ele>156.39999389648</ele>
        <time>2020-10-18T12:15:12.000Z</time>
      </trkpt>
      <trkpt lat="48.28092" lon="-3.5531">
        <ele>156.39999389648</ele>
        <time>2020-10-18T12:15:13.000Z</time>
      </trkpt>
      <trkpt lat="48.28093" lon="-3.5531">
        <ele>156.39999389648</ele>
        <time>2020-10-18T12:15:14.000Z</time>
      </trkpt>
      <trkpt lat="48.28098" lon="-3.5531">
        <ele>156.39999389648</ele>
        <time>2020-10-18T12:15:15.000Z</time>
      </trkpt>
      <trkpt lat="48.28098" lon="-3.5531">
        <ele>156.39999389648</ele>
        <time>2020-10-18T12:15:16.000Z</time>
      </trkpt>
      <trkpt lat="48.28105" lon="-3.55309">
        <ele>156</ele>
        <time>2020-10-18T12:15:17.000Z</time>
      </trkpt>
      <trkpt lat="48.28105" lon="-3.55309">
        <ele>156</ele>
        <time>2020-10-18T12:15:18.000Z</time>
      </trkpt>
      <trkpt lat="48.28109" lon="-3.55309">
        <ele>155.80000305176</ele>
        <time>2020-10-18T12:15:19.000Z</time>
      </trkpt>
      <trkpt lat="48.28118" lon="-3.55309">
        <ele>155.19999694824</ele>
        <time>2020-10-18T12:15:20.000Z</time>
      </trkpt>
      <trkpt lat="48.28118" lon="-3.55309">
        <ele>155.19999694824</ele>
        <time>2020-10-18T12:15:21.000Z</time>
      </trkpt>
      <trkpt lat="48.28122" lon="-3.5531">
        <ele>155</ele>
        <time>2020-10-18T12:15:22.000Z</time>
      </trkpt>
      <trkpt lat="48.28133" lon="-3.55309">
        <ele>154.39999389648</ele>
        <time>2020-10-18T12:15:23.000Z</time>
      </trkpt>
      <trkpt lat="48.28133" lon="-3.55309">
        <ele>154.39999389648</ele>
        <time>2020-10-18T12:15:24.000Z</time>
      </trkpt>
      <trkpt lat="48.28138" lon="-3.55308">
        <ele>154</ele>
        <time>2020-10-18T12:15:25.000Z</time>
      </trkpt>
      <trkpt lat="48.28148" lon="-3.55308">
        <ele>153.80000305176</ele>
        <time>2020-10-18T12:15:26.000Z</time>
      </trkpt>
      <trkpt lat="48.28148" lon="-3.55308">
        <ele>153.80000305176</ele>
        <time>2020-10-18T12:15:27.000Z</time>
      </trkpt>
      <trkpt lat="48.28153" lon="-3.55308">
        <ele>153.60000610352</ele>
        <time>2020-10-18T12:15:28.000Z</time>
      </trkpt>
      <trkpt lat="48.28163" lon="-3.55308">
        <ele>153.39999389648</ele>
        <time>2020-10-18T12:15:29.000Z</time>
      </trkpt>
      <trkpt lat="48.28163" lon="-3.55308">
        <ele>153.39999389648</ele>
        <time>2020-10-18T12:15:30.000Z</time>
      </trkpt>
      <trkpt lat="48.28168" lon="-3.55308">
        <ele>153.39999389648</ele>
        <time>2020-10-18T12:15:31.000Z</time>
      </trkpt>
      <trkpt lat="48.28177" lon="-3.55308">
        <ele>153</ele>
        <time>2020-10-18T12:15:32.000Z</time>
      </trkpt>
      <trkpt lat="48.28177" lon="-3.55308">
        <ele>153</ele>
        <time>2020-10-18T12:15:33.000Z</time>
      </trkpt>
      <trkpt lat="48.28181" lon="-3.55308">
        <ele>153</ele>
        <time>2020-10-18T12:15:34.000Z</time>
      </trkpt>
      <trkpt lat="48.28186" lon="-3.55309">
        <ele>152.80000305176</ele>
        <time>2020-10-18T12:15:35.000Z</time>
      </trkpt>
      <trkpt lat="48.28186" lon="-3.55309">
        <ele>152.80000305176</ele>
        <time>2020-10-18T12:15:36.000Z</time>
      </trkpt>
      <trkpt lat="48.28189" lon="-3.55311">
        <ele>152.60000610352</ele>
        <time>2020-10-18T12:15:37.000Z</time>
      </trkpt>
      <trkpt lat="48.28189" lon="-3.55311">
        <ele>152.60000610352</ele>
        <time>2020-10-18T12:15:38.000Z</time>
      </trkpt>
      <trkpt lat="48.28194" lon="-3.55314">
        <ele>152.39999389648</ele>
        <time>2020-10-18T12:15:39.000Z</time>
      </trkpt>
      <trkpt lat="48.28194" lon="-3.55314">
        <ele>152.39999389648</ele>
        <time>2020-10-18T12:15:40.000Z</time>
      </trkpt>
      <trkpt lat="48.28197" lon="-3.55315">
        <ele>152.19999694824</ele>
        <time>2020-10-18T12:15:41.000Z</time>
      </trkpt>
      <trkpt lat="48.28203" lon="-3.55319">
        <ele>152</ele>
        <time>2020-10-18T12:15:42.000Z</time>
      </trkpt>
      <trkpt lat="48.28203" lon="-3.55319">
        <ele>152</ele>
        <time>2020-10-18T12:15:43.000Z</time>
      </trkpt>
      <trkpt lat="48.28206" lon="-3.55321">
        <ele>151.80000305176</ele>
        <time>2020-10-18T12:15:44.000Z</time>
      </trkpt>
      <trkpt lat="48.28213" lon="-3.55327">
        <ele>151.39999389648</ele>
        <time>2020-10-18T12:15:45.000Z</time>
      </trkpt>
      <trkpt lat="48.28213" lon="-3.55327">
        <ele>151.39999389648</ele>
        <time>2020-10-18T12:15:46.000Z</time>
      </trkpt>
      <trkpt lat="48.28221" lon="-3.55334">
        <ele>151</ele>
        <time>2020-10-18T12:15:47.000Z</time>
      </trkpt>
      <trkpt lat="48.28221" lon="-3.55334">
        <ele>151</ele>
        <time>2020-10-18T12:15:48.000Z</time>
      </trkpt>
      <trkpt lat="48.28229" lon="-3.55343">
        <ele>150.39999389648</ele>
        <time>2020-10-18T12:15:49.000Z</time>
      </trkpt>
      <trkpt lat="48.28229" lon="-3.55343">
        <ele>150.39999389648</ele>
        <time>2020-10-18T12:15:50.000Z</time>
      </trkpt>
      <trkpt lat="48.28239" lon="-3.55353">
        <ele>149.80000305176</ele>
        <time>2020-10-18T12:15:51.000Z</time>
      </trkpt>
      <trkpt lat="48.28239" lon="-3.55353">
        <ele>149.80000305176</ele>
        <time>2020-10-18T12:15:52.000Z</time>
      </trkpt>
      <trkpt lat="48.28243" lon="-3.55358">
        <ele>149.19999694824</ele>
        <time>2020-10-18T12:15:53.000Z</time>
      </trkpt>
      <trkpt lat="48.28252" lon="-3.5537">
        <ele>148.60000610352</ele>
        <time>2020-10-18T12:15:54.000Z</time>
      </trkpt>
      <trkpt lat="48.28252" lon="-3.5537">
        <ele>148.60000610352</ele>
        <time>2020-10-18T12:15:55.000Z</time>
      </trkpt>
      <trkpt lat="48.28257" lon="-3.55376">
        <ele>148.39999389648</ele>
        <time>2020-10-18T12:15:56.000Z</time>
      </trkpt>
      <trkpt lat="48.28266" lon="-3.55388">
        <ele>148.19999694824</ele>
        <time>2020-10-18T12:15:57.000Z</time>
      </trkpt>
      <trkpt lat="48.28266" lon="-3.55388">
        <ele>148.19999694824</ele>
        <time>2020-10-18T12:15:58.000Z</time>
      </trkpt>
      <trkpt lat="48.2827" lon="-3.55394">
        <ele>148.39999389648</ele>
        <time>2020-10-18T12:15:59.000Z</time>
      </trkpt>
      <trkpt lat="48.28279" lon="-3.55406">
        <ele>148.39999389648</ele>
        <time>2020-10-18T12:16:00.000Z</time>
      </trkpt>
      <trkpt lat="48.28279" lon="-3.55406">
        <ele>148.39999389648</ele>
        <time>2020-10-18T12:16:01.000Z</time>
      </trkpt>
      <trkpt lat="48.28283" lon="-3.55412">
        <ele>148.60000610352</ele>
        <time>2020-10-18T12:16:02.000Z</time>
      </trkpt>
      <trkpt lat="48.28292" lon="-3.55424">
        <ele>148.80000305176</ele>
        <time>2020-10-18T12:16:03.000Z</time>
      </trkpt>
      <trkpt lat="48.28292" lon="-3.55424">
        <ele>148.80000305176</ele>
        <time>2020-10-18T12:16:04.000Z</time>
      </trkpt>
      <trkpt lat="48.28301" lon="-3.55437">
        <ele>149</ele>
        <time>2020-10-18T12:16:05.000Z</time>
      </trkpt>
      <trkpt lat="48.28301" lon="-3.55437">
        <ele>149</ele>
        <time>2020-10-18T12:16:06.000Z</time>
      </trkpt>
      <trkpt lat="48.28305" lon="-3.55444">
        <ele>148.39999389648</ele>
        <time>2020-10-18T12:16:07.000Z</time>
      </trkpt>
      <trkpt lat="48.28314" lon="-3.55458">
        <ele>147.39999389648</ele>
        <time>2020-10-18T12:16:08.000Z</time>
      </trkpt>
      <trkpt lat="48.28314" lon="-3.55458">
        <ele>147.39999389648</ele>
        <time>2020-10-18T12:16:09.000Z</time>
      </trkpt>
      <trkpt lat="48.28319" lon="-3.55465">
        <ele>147</ele>
        <time>2020-10-18T12:16:10.000Z</time>
      </trkpt>
      <trkpt lat="48.28328" lon="-3.55479">
        <ele>146.80000305176</ele>
        <time>2020-10-18T12:16:11.000Z</time>
      </trkpt>
      <trkpt lat="48.28328" lon="-3.55479">
        <ele>146.80000305176</ele>
        <time>2020-10-18T12:16:12.000Z</time>
      </trkpt>
      <trkpt lat="48.28332" lon="-3.55486">
        <ele>146.39999389648</ele>
        <time>2020-10-18T12:16:13.000Z</time>
      </trkpt>
      <trkpt lat="48.2834" lon="-3.55502">
        <ele>145.80000305176</ele>
        <time>2020-10-18T12:16:14.000Z</time>
      </trkpt>
      <trkpt lat="48.2834" lon="-3.55502">
        <ele>145.80000305176</ele>
        <time>2020-10-18T12:16:15.000Z</time>
      </trkpt>
      <trkpt lat="48.28344" lon="-3.55511">
        <ele>145.39999389648</ele>
        <time>2020-10-18T12:16:16.000Z</time>
      </trkpt>
      <trkpt lat="48.2835" lon="-3.55529">
        <ele>144.39999389648</ele>
        <time>2020-10-18T12:16:17.000Z</time>
      </trkpt>
      <trkpt lat="48.2835" lon="-3.55529">
        <ele>144.39999389648</ele>
        <time>2020-10-18T12:16:18.000Z</time>
      </trkpt>
      <trkpt lat="48.28355" lon="-3.5555">
        <ele>143</ele>
        <time>2020-10-18T12:16:19.000Z</time>
      </trkpt>
      <trkpt lat="48.28355" lon="-3.5555">
        <ele>143</ele>
        <time>2020-10-18T12:16:20.000Z</time>
      </trkpt>
      <trkpt lat="48.28357" lon="-3.55561">
        <ele>142.19999694824</ele>
        <time>2020-10-18T12:16:21.000Z</time>
      </trkpt>
      <trkpt lat="48.2836" lon="-3.55584">
        <ele>140.60000610352</ele>
        <time>2020-10-18T12:16:22.000Z</time>
      </trkpt>
      <trkpt lat="48.2836" lon="-3.55584">
        <ele>140.60000610352</ele>
        <time>2020-10-18T12:16:23.000Z</time>
      </trkpt>
      <trkpt lat="48.28361" lon="-3.55596">
        <ele>139.80000305176</ele>
        <time>2020-10-18T12:16:24.000Z</time>
      </trkpt>
      <trkpt lat="48.28363" lon="-3.55621">
        <ele>139.19999694824</ele>
        <time>2020-10-18T12:16:25.000Z</time>
      </trkpt>
      <trkpt lat="48.28363" lon="-3.55621">
        <ele>139.19999694824</ele>
        <time>2020-10-18T12:16:26.000Z</time>
      </trkpt>
      <trkpt lat="48.28364" lon="-3.55632">
        <ele>138.80000305176</ele>
        <time>2020-10-18T12:16:27.000Z</time>
      </trkpt>
      <trkpt lat="48.28365" lon="-3.55656">
        <ele>138.39999389648</ele>
        <time>2020-10-18T12:16:28.000Z</time>
      </trkpt>
      <trkpt lat="48.28365" lon="-3.55656">
        <ele>138.39999389648</ele>
        <time>2020-10-18T12:16:29.000Z</time>
      </trkpt>
      <trkpt lat="48.28365" lon="-3.55667">
        <ele>138.19999694824</ele>
        <time>2020-10-18T12:16:30.000Z</time>
      </trkpt>
      <trkpt lat="48.28366" lon="-3.5569">
        <ele>137</ele>
        <time>2020-10-18T12:16:31.000Z</time>
      </trkpt>
      <trkpt lat="48.28366" lon="-3.5569">
        <ele>137</ele>
        <time>2020-10-18T12:16:32.000Z</time>
      </trkpt>
      <trkpt lat="48.28368" lon="-3.55712">
        <ele>136.39999389648</ele>
        <time>2020-10-18T12:16:33.000Z</time>
      </trkpt>
      <trkpt lat="48.28368" lon="-3.55712">
        <ele>136.39999389648</ele>
        <time>2020-10-18T12:16:34.000Z</time>
      </trkpt>
      <trkpt lat="48.28369" lon="-3.55722">
        <ele>136</ele>
        <time>2020-10-18T12:16:35.000Z</time>
      </trkpt>
      <trkpt lat="48.2837" lon="-3.55742">
        <ele>135.39999389648</ele>
        <time>2020-10-18T12:16:36.000Z</time>
      </trkpt>
      <trkpt lat="48.2837" lon="-3.55742">
        <ele>135.39999389648</ele>
        <time>2020-10-18T12:16:37.000Z</time>
      </trkpt>
      <trkpt lat="48.2837" lon="-3.55752">
        <ele>134.60000610352</ele>
        <time>2020-10-18T12:16:38.000Z</time>
      </trkpt>
      <trkpt lat="48.28368" lon="-3.55772">
        <ele>133.19999694824</ele>
        <time>2020-10-18T12:16:39.000Z</time>
      </trkpt>
      <trkpt lat="48.28368" lon="-3.55772">
        <ele>133.19999694824</ele>
        <time>2020-10-18T12:16:40.000Z</time>
      </trkpt>
      <trkpt lat="48.28366" lon="-3.5578">
        <ele>132.80000305176</ele>
        <time>2020-10-18T12:16:41.000Z</time>
      </trkpt>
      <trkpt lat="48.2836" lon="-3.55793">
        <ele>131.80000305176</ele>
        <time>2020-10-18T12:16:42.000Z</time>
      </trkpt>
      <trkpt lat="48.2836" lon="-3.55793">
        <ele>131.80000305176</ele>
        <time>2020-10-18T12:16:43.000Z</time>
      </trkpt>
      <trkpt lat="48.28356" lon="-3.55796">
        <ele>131.39999389648</ele>
        <time>2020-10-18T12:16:44.000Z</time>
      </trkpt>
      <trkpt lat="48.28347" lon="-3.558">
        <ele>131</ele>
        <time>2020-10-18T12:16:45.000Z</time>
      </trkpt>
      <trkpt lat="48.28347" lon="-3.558">
        <ele>131</ele>
        <time>2020-10-18T12:16:46.000Z</time>
      </trkpt>
      <trkpt lat="48.28343" lon="-3.55801">
        <ele>131</ele>
        <time>2020-10-18T12:16:47.000Z</time>
      </trkpt>
      <trkpt lat="48.28338" lon="-3.55802">
        <ele>130.80000305176</ele>
        <time>2020-10-18T12:16:48.000Z</time>
      </trkpt>
      <trkpt lat="48.28327" lon="-3.55805">
        <ele>130.19999694824</ele>
        <time>2020-10-18T12:16:49.000Z</time>
      </trkpt>
      <trkpt lat="48.28327" lon="-3.55805">
        <ele>130.19999694824</ele>
        <time>2020-10-18T12:16:50.000Z</time>
      </trkpt>
      <trkpt lat="48.28322" lon="-3.55807">
        <ele>130</ele>
        <time>2020-10-18T12:16:51.000Z</time>
      </trkpt>
      <trkpt lat="48.28311" lon="-3.55809">
        <ele>129.60000610352</ele>
        <time>2020-10-18T12:16:52.000Z</time>
      </trkpt>
      <trkpt lat="48.28306" lon="-3.5581">
        <ele>129.60000610352</ele>
        <time>2020-10-18T12:16:53.000Z</time>
      </trkpt>
      <trkpt lat="48.28306" lon="-3.5581">
        <ele>129.60000610352</ele>
        <time>2020-10-18T12:16:54.000Z</time>
      </trkpt>
      <trkpt lat="48.28301" lon="-3.55811">
        <ele>129.39999389648</ele>
        <time>2020-10-18T12:16:55.000Z</time>
      </trkpt>
      <trkpt lat="48.2829" lon="-3.55814">
        <ele>129</ele>
        <time>2020-10-18T12:16:56.000Z</time>
      </trkpt>
      <trkpt lat="48.2829" lon="-3.55814">
        <ele>129</ele>
        <time>2020-10-18T12:16:57.000Z</time>
      </trkpt>
      <trkpt lat="48.28279" lon="-3.5582">
        <ele>128.39999389648</ele>
        <time>2020-10-18T12:16:58.000Z</time>
      </trkpt>
      <trkpt lat="48.28279" lon="-3.5582">
        <ele>128.39999389648</ele>
        <time>2020-10-18T12:16:59.000Z</time>
      </trkpt>
      <trkpt lat="48.28273" lon="-3.55825">
        <ele>128</ele>
        <time>2020-10-18T12:17:00.000Z</time>
      </trkpt>
      <trkpt lat="48.28262" lon="-3.55838">
        <ele>127</ele>
        <time>2020-10-18T12:17:01.000Z</time>
      </trkpt>
      <trkpt lat="48.28258" lon="-3.55846">
        <ele>126.40000152588</ele>
        <time>2020-10-18T12:17:02.000Z</time>
      </trkpt>
      <trkpt lat="48.28258" lon="-3.55846">
        <ele>126.40000152588</ele>
        <time>2020-10-18T12:17:03.000Z</time>
      </trkpt>
      <trkpt lat="48.28253" lon="-3.55863">
        <ele>126</ele>
        <time>2020-10-18T12:17:04.000Z</time>
      </trkpt>
      <trkpt lat="48.28253" lon="-3.55863">
        <ele>126</ele>
        <time>2020-10-18T12:17:05.000Z</time>
      </trkpt>
      <trkpt lat="48.28253" lon="-3.55871">
        <ele>125.80000305176</ele>
        <time>2020-10-18T12:17:06.000Z</time>
      </trkpt>
      <trkpt lat="48.28251" lon="-3.55885">
        <ele>125.40000152588</ele>
        <time>2020-10-18T12:17:07.000Z</time>
      </trkpt>
      <trkpt lat="48.28251" lon="-3.55885">
        <ele>125.40000152588</ele>
        <time>2020-10-18T12:17:08.000Z</time>
      </trkpt>
      <trkpt lat="48.28251" lon="-3.55896">
        <ele>125</ele>
        <time>2020-10-18T12:17:09.000Z</time>
      </trkpt>
      <trkpt lat="48.28251" lon="-3.55896">
        <ele>125</ele>
        <time>2020-10-18T12:17:10.000Z</time>
      </trkpt>
      <trkpt lat="48.28251" lon="-3.55902">
        <ele>124.80000305176</ele>
        <time>2020-10-18T12:17:11.000Z</time>
      </trkpt>
      <trkpt lat="48.28252" lon="-3.55911">
        <ele>124.40000152588</ele>
        <time>2020-10-18T12:17:12.000Z</time>
      </trkpt>
      <trkpt lat="48.28253" lon="-3.55914">
        <ele>124.19999694824</ele>
        <time>2020-10-18T12:17:13.000Z</time>
      </trkpt>
      <trkpt lat="48.28253" lon="-3.55914">
        <ele>124.19999694824</ele>
        <time>2020-10-18T12:17:14.000Z</time>
      </trkpt>
      <trkpt lat="48.28254" lon="-3.55918">
        <ele>124</ele>
        <time>2020-10-18T12:17:15.000Z</time>
      </trkpt>
      <trkpt lat="48.28258" lon="-3.55924">
        <ele>123.59999847412</ele>
        <time>2020-10-18T12:17:16.000Z</time>
      </trkpt>
      <trkpt lat="48.28258" lon="-3.55924">
        <ele>123.59999847412</ele>
        <time>2020-10-18T12:17:17.000Z</time>
      </trkpt>
      <trkpt lat="48.28261" lon="-3.55927">
        <ele>123.40000152588</ele>
        <time>2020-10-18T12:17:18.000Z</time>
      </trkpt>
      <trkpt lat="48.28268" lon="-3.55931">
        <ele>123.19999694824</ele>
        <time>2020-10-18T12:17:19.000Z</time>
      </trkpt>
      <trkpt lat="48.28268" lon="-3.55931">
        <ele>123.19999694824</ele>
        <time>2020-10-18T12:17:20.000Z</time>
      </trkpt>
      <trkpt lat="48.28272" lon="-3.55931">
        <ele>123.40000152588</ele>
        <time>2020-10-18T12:17:21.000Z</time>
      </trkpt>
      <trkpt lat="48.28281" lon="-3.55932">
        <ele>123.59999847412</ele>
        <time>2020-10-18T12:17:22.000Z</time>
      </trkpt>
      <trkpt lat="48.28281" lon="-3.55932">
        <ele>123.59999847412</ele>
        <time>2020-10-18T12:17:23.000Z</time>
      </trkpt>
      <trkpt lat="48.28286" lon="-3.55931">
        <ele>123.59999847412</ele>
        <time>2020-10-18T12:17:24.000Z</time>
      </trkpt>
      <trkpt lat="48.28297" lon="-3.55932">
        <ele>124</ele>
        <time>2020-10-18T12:17:25.000Z</time>
      </trkpt>
      <trkpt lat="48.28297" lon="-3.55932">
        <ele>124</ele>
        <time>2020-10-18T12:17:26.000Z</time>
      </trkpt>
      <trkpt lat="48.28303" lon="-3.55934">
        <ele>124</ele>
        <time>2020-10-18T12:17:27.000Z</time>
      </trkpt>
      <trkpt lat="48.28314" lon="-3.55939">
        <ele>124.19999694824</ele>
        <time>2020-10-18T12:17:28.000Z</time>
      </trkpt>
      <trkpt lat="48.28314" lon="-3.55939">
        <ele>124.19999694824</ele>
        <time>2020-10-18T12:17:29.000Z</time>
      </trkpt>
      <trkpt lat="48.2832" lon="-3.55943">
        <ele>124.19999694824</ele>
        <time>2020-10-18T12:17:30.000Z</time>
      </trkpt>
      <trkpt lat="48.28331" lon="-3.5595">
        <ele>124.40000152588</ele>
        <time>2020-10-18T12:17:31.000Z</time>
      </trkpt>
      <trkpt lat="48.28336" lon="-3.55954">
        <ele>124.19999694824</ele>
        <time>2020-10-18T12:17:32.000Z</time>
      </trkpt>
      <trkpt lat="48.28336" lon="-3.55954">
        <ele>124.19999694824</ele>
        <time>2020-10-18T12:17:33.000Z</time>
      </trkpt>
      <trkpt lat="48.28341" lon="-3.55959">
        <ele>124.19999694824</ele>
        <time>2020-10-18T12:17:34.000Z</time>
      </trkpt>
      <trkpt lat="48.28351" lon="-3.5597">
        <ele>123.80000305176</ele>
        <time>2020-10-18T12:17:35.000Z</time>
      </trkpt>
      <trkpt lat="48.28351" lon="-3.5597">
        <ele>123.80000305176</ele>
        <time>2020-10-18T12:17:36.000Z</time>
      </trkpt>
      <trkpt lat="48.28355" lon="-3.55977">
        <ele>123.59999847412</ele>
        <time>2020-10-18T12:17:37.000Z</time>
      </trkpt>
      <trkpt lat="48.28362" lon="-3.55993">
        <ele>123.19999694824</ele>
        <time>2020-10-18T12:17:38.000Z</time>
      </trkpt>
      <trkpt lat="48.28362" lon="-3.55993">
        <ele>123.19999694824</ele>
        <time>2020-10-18T12:17:39.000Z</time>
      </trkpt>
      <trkpt lat="48.28365" lon="-3.56002">
        <ele>123</ele>
        <time>2020-10-18T12:17:40.000Z</time>
      </trkpt>
      <trkpt lat="48.2837" lon="-3.56021">
        <ele>122</ele>
        <time>2020-10-18T12:17:41.000Z</time>
      </trkpt>
      <trkpt lat="48.2837" lon="-3.56021">
        <ele>122</ele>
        <time>2020-10-18T12:17:42.000Z</time>
      </trkpt>
      <trkpt lat="48.28372" lon="-3.56031">
        <ele>122</ele>
        <time>2020-10-18T12:17:43.000Z</time>
      </trkpt>
      <trkpt lat="48.28377" lon="-3.5605">
        <ele>122</ele>
        <time>2020-10-18T12:17:44.000Z</time>
      </trkpt>
      <trkpt lat="48.28377" lon="-3.5605">
        <ele>122</ele>
        <time>2020-10-18T12:17:45.000Z</time>
      </trkpt>
      <trkpt lat="48.2838" lon="-3.56059">
        <ele>122</ele>
        <time>2020-10-18T12:17:46.000Z</time>
      </trkpt>
      <trkpt lat="48.28385" lon="-3.56079">
        <ele>121.40000152588</ele>
        <time>2020-10-18T12:17:47.000Z</time>
      </trkpt>
      <trkpt lat="48.28385" lon="-3.56079">
        <ele>121.40000152588</ele>
        <time>2020-10-18T12:17:48.000Z</time>
      </trkpt>
      <trkpt lat="48.2839" lon="-3.56097">
        <ele>120.59999847412</ele>
        <time>2020-10-18T12:17:49.000Z</time>
      </trkpt>
      <trkpt lat="48.2839" lon="-3.56097">
        <ele>120.59999847412</ele>
        <time>2020-10-18T12:17:50.000Z</time>
      </trkpt>
      <trkpt lat="48.28392" lon="-3.56106">
        <ele>120.19999694824</ele>
        <time>2020-10-18T12:17:51.000Z</time>
      </trkpt>
      <trkpt lat="48.28397" lon="-3.56124">
        <ele>120</ele>
        <time>2020-10-18T12:17:52.000Z</time>
      </trkpt>
      <trkpt lat="48.28397" lon="-3.56124">
        <ele>120</ele>
        <time>2020-10-18T12:17:53.000Z</time>
      </trkpt>
      <trkpt lat="48.28399" lon="-3.56132">
        <ele>119.80000305176</ele>
        <time>2020-10-18T12:17:54.000Z</time>
      </trkpt>
      <trkpt lat="48.28404" lon="-3.56144">
        <ele>119.40000152588</ele>
        <time>2020-10-18T12:17:55.000Z</time>
      </trkpt>
      <trkpt lat="48.28404" lon="-3.56144">
        <ele>119.40000152588</ele>
        <time>2020-10-18T12:17:56.000Z</time>
      </trkpt>
      <trkpt lat="48.28406" lon="-3.56148">
        <ele>119.19999694824</ele>
        <time>2020-10-18T12:17:57.000Z</time>
      </trkpt>
      <trkpt lat="48.28409" lon="-3.5615">
        <ele>119.19999694824</ele>
        <time>2020-10-18T12:17:58.000Z</time>
      </trkpt>
      <trkpt lat="48.28409" lon="-3.5615">
        <ele>119.19999694824</ele>
        <time>2020-10-18T12:17:59.000Z</time>
      </trkpt>
      <trkpt lat="48.2841" lon="-3.56151">
        <ele>119.19999694824</ele>
        <time>2020-10-18T12:18:00.000Z</time>
      </trkpt>
      <trkpt lat="48.28413" lon="-3.56152">
        <ele>119</ele>
        <time>2020-10-18T12:18:01.000Z</time>
      </trkpt>
      <trkpt lat="48.28413" lon="-3.56152">
        <ele>119</ele>
        <time>2020-10-18T12:18:02.000Z</time>
      </trkpt>
      <trkpt lat="48.28416" lon="-3.56154">
        <ele>118.80000305176</ele>
        <time>2020-10-18T12:18:03.000Z</time>
      </trkpt>
      <trkpt lat="48.2842" lon="-3.56159">
        <ele>118.59999847412</ele>
        <time>2020-10-18T12:18:04.000Z</time>
      </trkpt>
      <trkpt lat="48.2842" lon="-3.56159">
        <ele>118.59999847412</ele>
        <time>2020-10-18T12:18:05.000Z</time>
      </trkpt>
      <trkpt lat="48.28423" lon="-3.56167">
        <ele>118.40000152588</ele>
        <time>2020-10-18T12:18:06.000Z</time>
      </trkpt>
      <trkpt lat="48.28423" lon="-3.56167">
        <ele>118.40000152588</ele>
        <time>2020-10-18T12:18:07.000Z</time>
      </trkpt>
      <trkpt lat="48.28423" lon="-3.56172">
        <ele>118.40000152588</ele>
        <time>2020-10-18T12:18:08.000Z</time>
      </trkpt>
      <trkpt lat="48.28421" lon="-3.56179">
        <ele>118.40000152588</ele>
        <time>2020-10-18T12:18:09.000Z</time>
      </trkpt>
      <trkpt lat="48.28421" lon="-3.56179">
        <ele>118.40000152588</ele>
        <time>2020-10-18T12:18:10.000Z</time>
      </trkpt>
      <trkpt lat="48.2842" lon="-3.56181">
        <ele>118.40000152588</ele>
        <time>2020-10-18T12:18:11.000Z</time>
      </trkpt>
      <trkpt lat="48.28416" lon="-3.56184">
        <ele>118.40000152588</ele>
        <time>2020-10-18T12:18:12.000Z</time>
      </trkpt>
      <trkpt lat="48.28416" lon="-3.56184">
        <ele>118.40000152588</ele>
        <time>2020-10-18T12:18:13.000Z</time>
      </trkpt>
      <trkpt lat="48.28414" lon="-3.56184">
        <ele>118.59999847412</ele>
        <time>2020-10-18T12:18:14.000Z</time>
      </trkpt>
      <trkpt lat="48.28408" lon="-3.56182">
        <ele>118.80000305176</ele>
        <time>2020-10-18T12:18:15.000Z</time>
      </trkpt>
      <trkpt lat="48.28408" lon="-3.56182">
        <ele>118.80000305176</ele>
        <time>2020-10-18T12:18:16.000Z</time>
      </trkpt>
      <trkpt lat="48.28405" lon="-3.56181">
        <ele>119</ele>
        <time>2020-10-18T12:18:17.000Z</time>
      </trkpt>
      <trkpt lat="48.28398" lon="-3.56178">
        <ele>119.19999694824</ele>
        <time>2020-10-18T12:18:18.000Z</time>
      </trkpt>
      <trkpt lat="48.28398" lon="-3.56178">
        <ele>119.19999694824</ele>
        <time>2020-10-18T12:18:19.000Z</time>
      </trkpt>
      <trkpt lat="48.28394" lon="-3.56178">
        <ele>119.40000152588</ele>
        <time>2020-10-18T12:18:20.000Z</time>
      </trkpt>
      <trkpt lat="48.28387" lon="-3.56178">
        <ele>119.59999847412</ele>
        <time>2020-10-18T12:18:21.000Z</time>
      </trkpt>
      <trkpt lat="48.28387" lon="-3.56178">
        <ele>119.59999847412</ele>
        <time>2020-10-18T12:18:22.000Z</time>
      </trkpt>
      <trkpt lat="48.28382" lon="-3.56178">
        <ele>119.80000305176</ele>
        <time>2020-10-18T12:18:23.000Z</time>
      </trkpt>
      <trkpt lat="48.28374" lon="-3.56181">
        <ele>120</ele>
        <time>2020-10-18T12:18:24.000Z</time>
      </trkpt>
      <trkpt lat="48.28374" lon="-3.56181">
        <ele>120</ele>
        <time>2020-10-18T12:18:25.000Z</time>
      </trkpt>
      <trkpt lat="48.28369" lon="-3.56183">
        <ele>120.19999694824</ele>
        <time>2020-10-18T12:18:26.000Z</time>
      </trkpt>
      <trkpt lat="48.28361" lon="-3.56186">
        <ele>120.40000152588</ele>
        <time>2020-10-18T12:18:27.000Z</time>
      </trkpt>
      <trkpt lat="48.28361" lon="-3.56186">
        <ele>120.40000152588</ele>
        <time>2020-10-18T12:18:28.000Z</time>
      </trkpt>
      <trkpt lat="48.28356" lon="-3.56187">
        <ele>120.59999847412</ele>
        <time>2020-10-18T12:18:29.000Z</time>
      </trkpt>
      <trkpt lat="48.28347" lon="-3.56189">
        <ele>121</ele>
        <time>2020-10-18T12:18:30.000Z</time>
      </trkpt>
      <trkpt lat="48.28343" lon="-3.5619">
        <ele>121</ele>
        <time>2020-10-18T12:18:31.000Z</time>
      </trkpt>
      <trkpt lat="48.28343" lon="-3.5619">
        <ele>121</ele>
        <time>2020-10-18T12:18:32.000Z</time>
      </trkpt>
      <trkpt lat="48.28339" lon="-3.56191">
        <ele>121</ele>
        <time>2020-10-18T12:18:33.000Z</time>
      </trkpt>
      <trkpt lat="48.2833" lon="-3.56192">
        <ele>121</ele>
        <time>2020-10-18T12:18:34.000Z</time>
      </trkpt>
      <trkpt lat="48.2833" lon="-3.56192">
        <ele>121</ele>
        <time>2020-10-18T12:18:35.000Z</time>
      </trkpt>
      <trkpt lat="48.28326" lon="-3.56193">
        <ele>121.19999694824</ele>
        <time>2020-10-18T12:18:36.000Z</time>
      </trkpt>
      <trkpt lat="48.28319" lon="-3.56195">
        <ele>121.19999694824</ele>
        <time>2020-10-18T12:18:37.000Z</time>
      </trkpt>
      <trkpt lat="48.28319" lon="-3.56195">
        <ele>121.19999694824</ele>
        <time>2020-10-18T12:18:38.000Z</time>
      </trkpt>
      <trkpt lat="48.28315" lon="-3.56195">
        <ele>121.19999694824</ele>
        <time>2020-10-18T12:18:39.000Z</time>
      </trkpt>
      <trkpt lat="48.28307" lon="-3.56196">
        <ele>121.40000152588</ele>
        <time>2020-10-18T12:18:40.000Z</time>
      </trkpt>
      <trkpt lat="48.28307" lon="-3.56196">
        <ele>121.40000152588</ele>
        <time>2020-10-18T12:18:41.000Z</time>
      </trkpt>
      <trkpt lat="48.28302" lon="-3.56196">
        <ele>121.40000152588</ele>
        <time>2020-10-18T12:18:42.000Z</time>
      </trkpt>
      <trkpt lat="48.28294" lon="-3.56196">
        <ele>121.40000152588</ele>
        <time>2020-10-18T12:18:43.000Z</time>
      </trkpt>
      <trkpt lat="48.28294" lon="-3.56196">
        <ele>121.40000152588</ele>
        <time>2020-10-18T12:18:44.000Z</time>
      </trkpt>
      <trkpt lat="48.2829" lon="-3.56197">
        <ele>121.59999847412</ele>
        <time>2020-10-18T12:18:45.000Z</time>
      </trkpt>
      <trkpt lat="48.28282" lon="-3.56197">
        <ele>121.59999847412</ele>
        <time>2020-10-18T12:18:46.000Z</time>
      </trkpt>
      <trkpt lat="48.28282" lon="-3.56197">
        <ele>121.59999847412</ele>
        <time>2020-10-18T12:18:47.000Z</time>
      </trkpt>
      <trkpt lat="48.28274" lon="-3.56197">
        <ele>121.80000305176</ele>
        <time>2020-10-18T12:18:48.000Z</time>
      </trkpt>
      <trkpt lat="48.28274" lon="-3.56197">
        <ele>121.80000305176</ele>
        <time>2020-10-18T12:18:49.000Z</time>
      </trkpt>
      <trkpt lat="48.2827" lon="-3.56197">
        <ele>121.80000305176</ele>
        <time>2020-10-18T12:18:50.000Z</time>
      </trkpt>
      <trkpt lat="48.28262" lon="-3.56197">
        <ele>121.80000305176</ele>
        <time>2020-10-18T12:18:51.000Z</time>
      </trkpt>
      <trkpt lat="48.28262" lon="-3.56197">
        <ele>121.80000305176</ele>
        <time>2020-10-18T12:18:52.000Z</time>
      </trkpt>
      <trkpt lat="48.28254" lon="-3.56197">
        <ele>122.19999694824</ele>
        <time>2020-10-18T12:18:53.000Z</time>
      </trkpt>
      <trkpt lat="48.28254" lon="-3.56197">
        <ele>122.19999694824</ele>
        <time>2020-10-18T12:18:54.000Z</time>
      </trkpt>
      <trkpt lat="48.2825" lon="-3.56197">
        <ele>122.40000152588</ele>
        <time>2020-10-18T12:18:55.000Z</time>
      </trkpt>
      <trkpt lat="48.28242" lon="-3.56196">
        <ele>122.59999847412</ele>
        <time>2020-10-18T12:18:56.000Z</time>
      </trkpt>
      <trkpt lat="48.28242" lon="-3.56196">
        <ele>122.59999847412</ele>
        <time>2020-10-18T12:18:57.000Z</time>
      </trkpt>
      <trkpt lat="48.28238" lon="-3.56196">
        <ele>122.59999847412</ele>
        <time>2020-10-18T12:18:58.000Z</time>
      </trkpt>
      <trkpt lat="48.28231" lon="-3.56196">
        <ele>122.59999847412</ele>
        <time>2020-10-18T12:18:59.000Z</time>
      </trkpt>
      <trkpt lat="48.28231" lon="-3.56196">
        <ele>122.59999847412</ele>
        <time>2020-10-18T12:19:00.000Z</time>
      </trkpt>
      <trkpt lat="48.28227" lon="-3.56195">
        <ele>122.80000305176</ele>
        <time>2020-10-18T12:19:01.000Z</time>
      </trkpt>
      <trkpt lat="48.28219" lon="-3.56196">
        <ele>122.80000305176</ele>
        <time>2020-10-18T12:19:02.000Z</time>
      </trkpt>
      <trkpt lat="48.28219" lon="-3.56196">
        <ele>122.80000305176</ele>
        <time>2020-10-18T12:19:03.000Z</time>
      </trkpt>
      <trkpt lat="48.28216" lon="-3.56196">
        <ele>122.80000305176</ele>
        <time>2020-10-18T12:19:04.000Z</time>
      </trkpt>
      <trkpt lat="48.28208" lon="-3.56196">
        <ele>123</ele>
        <time>2020-10-18T12:19:05.000Z</time>
      </trkpt>
      <trkpt lat="48.28208" lon="-3.56196">
        <ele>123</ele>
        <time>2020-10-18T12:19:06.000Z</time>
      </trkpt>
      <trkpt lat="48.28204" lon="-3.56195">
        <ele>123</ele>
        <time>2020-10-18T12:19:07.000Z</time>
      </trkpt>
      <trkpt lat="48.28196" lon="-3.56193">
        <ele>123</ele>
        <time>2020-10-18T12:19:08.000Z</time>
      </trkpt>
      <trkpt lat="48.28196" lon="-3.56193">
        <ele>123</ele>
        <time>2020-10-18T12:19:09.000Z</time>
      </trkpt>
      <trkpt lat="48.28189" lon="-3.56192">
        <ele>123</ele>
        <time>2020-10-18T12:19:10.000Z</time>
      </trkpt>
      <trkpt lat="48.28189" lon="-3.56192">
        <ele>123</ele>
        <time>2020-10-18T12:19:11.000Z</time>
      </trkpt>
      <trkpt lat="48.28185" lon="-3.56191">
        <ele>123</ele>
        <time>2020-10-18T12:19:12.000Z</time>
      </trkpt>
      <trkpt lat="48.28178" lon="-3.5619">
        <ele>123.19999694824</ele>
        <time>2020-10-18T12:19:13.000Z</time>
      </trkpt>
      <trkpt lat="48.28178" lon="-3.5619">
        <ele>123.19999694824</ele>
        <time>2020-10-18T12:19:14.000Z</time>
      </trkpt>
      <trkpt lat="48.28175" lon="-3.56189">
        <ele>123.19999694824</ele>
        <time>2020-10-18T12:19:15.000Z</time>
      </trkpt>
      <trkpt lat="48.28169" lon="-3.56187">
        <ele>123.59999847412</ele>
        <time>2020-10-18T12:19:16.000Z</time>
      </trkpt>
      <trkpt lat="48.28169" lon="-3.56187">
        <ele>123.59999847412</ele>
        <time>2020-10-18T12:19:17.000Z</time>
      </trkpt>
      <trkpt lat="48.28165" lon="-3.56187">
        <ele>123.80000305176</ele>
        <time>2020-10-18T12:19:18.000Z</time>
      </trkpt>
      <trkpt lat="48.28159" lon="-3.56185">
        <ele>124.19999694824</ele>
        <time>2020-10-18T12:19:19.000Z</time>
      </trkpt>
      <trkpt lat="48.28159" lon="-3.56185">
        <ele>124.19999694824</ele>
        <time>2020-10-18T12:19:20.000Z</time>
      </trkpt>
      <trkpt lat="48.28155" lon="-3.56184">
        <ele>124.40000152588</ele>
        <time>2020-10-18T12:19:21.000Z</time>
      </trkpt>
      <trkpt lat="48.28149" lon="-3.56183">
        <ele>124.80000305176</ele>
        <time>2020-10-18T12:19:22.000Z</time>
      </trkpt>
      <trkpt lat="48.28149" lon="-3.56183">
        <ele>124.80000305176</ele>
        <time>2020-10-18T12:19:23.000Z</time>
      </trkpt>
      <trkpt lat="48.28145" lon="-3.56182">
        <ele>125</ele>
        <time>2020-10-18T12:19:24.000Z</time>
      </trkpt>
      <trkpt lat="48.28139" lon="-3.56181">
        <ele>125.40000152588</ele>
        <time>2020-10-18T12:19:25.000Z</time>
      </trkpt>
      <trkpt lat="48.28139" lon="-3.56181">
        <ele>125.40000152588</ele>
        <time>2020-10-18T12:19:26.000Z</time>
      </trkpt>
      <trkpt lat="48.28136" lon="-3.5618">
        <ele>125.59999847412</ele>
        <time>2020-10-18T12:19:27.000Z</time>
      </trkpt>
      <trkpt lat="48.28129" lon="-3.56179">
        <ele>126.19999694824</ele>
        <time>2020-10-18T12:19:28.000Z</time>
      </trkpt>
      <trkpt lat="48.28129" lon="-3.56179">
        <ele>126.19999694824</ele>
        <time>2020-10-18T12:19:29.000Z</time>
      </trkpt>
      <trkpt lat="48.28126" lon="-3.56178">
        <ele>126.40000152588</ele>
        <time>2020-10-18T12:19:30.000Z</time>
      </trkpt>
      <trkpt lat="48.28119" lon="-3.56177">
        <ele>126.80000305176</ele>
        <time>2020-10-18T12:19:31.000Z</time>
      </trkpt>
      <trkpt lat="48.28119" lon="-3.56177">
        <ele>126.80000305176</ele>
        <time>2020-10-18T12:19:32.000Z</time>
      </trkpt>
      <trkpt lat="48.28116" lon="-3.56177">
        <ele>127</ele>
        <time>2020-10-18T12:19:33.000Z</time>
      </trkpt>
      <trkpt lat="48.2811" lon="-3.56176">
        <ele>127.19999694824</ele>
        <time>2020-10-18T12:19:34.000Z</time>
      </trkpt>
      <trkpt lat="48.2811" lon="-3.56176">
        <ele>127.19999694824</ele>
        <time>2020-10-18T12:19:35.000Z</time>
      </trkpt>
      <trkpt lat="48.28103" lon="-3.56175">
        <ele>127.59999847412</ele>
        <time>2020-10-18T12:19:36.000Z</time>
      </trkpt>
      <trkpt lat="48.28103" lon="-3.56175">
        <ele>127.59999847412</ele>
        <time>2020-10-18T12:19:37.000Z</time>
      </trkpt>
      <trkpt lat="48.281" lon="-3.56174">
        <ele>127.80000305176</ele>
        <time>2020-10-18T12:19:38.000Z</time>
      </trkpt>
      <trkpt lat="48.28094" lon="-3.56173">
        <ele>128.19999694824</ele>
        <time>2020-10-18T12:19:39.000Z</time>
      </trkpt>
      <trkpt lat="48.28094" lon="-3.56173">
        <ele>128.19999694824</ele>
        <time>2020-10-18T12:19:40.000Z</time>
      </trkpt>
      <trkpt lat="48.2809" lon="-3.56172">
        <ele>128.39999389648</ele>
        <time>2020-10-18T12:19:41.000Z</time>
      </trkpt>
      <trkpt lat="48.28084" lon="-3.56171">
        <ele>128.60000610352</ele>
        <time>2020-10-18T12:19:42.000Z</time>
      </trkpt>
      <trkpt lat="48.28084" lon="-3.56171">
        <ele>128.60000610352</ele>
        <time>2020-10-18T12:19:43.000Z</time>
      </trkpt>
      <trkpt lat="48.28081" lon="-3.5617">
        <ele>128.80000305176</ele>
        <time>2020-10-18T12:19:44.000Z</time>
      </trkpt>
      <trkpt lat="48.28075" lon="-3.56169">
        <ele>129</ele>
        <time>2020-10-18T12:19:45.000Z</time>
      </trkpt>
      <trkpt lat="48.28075" lon="-3.56169">
        <ele>129</ele>
        <time>2020-10-18T12:19:46.000Z</time>
      </trkpt>
      <trkpt lat="48.28069" lon="-3.56168">
        <ele>129.19999694824</ele>
        <time>2020-10-18T12:19:47.000Z</time>
      </trkpt>
      <trkpt lat="48.28069" lon="-3.56168">
        <ele>129.19999694824</ele>
        <time>2020-10-18T12:19:48.000Z</time>
      </trkpt>
      <trkpt lat="48.28063" lon="-3.56168">
        <ele>129.39999389648</ele>
        <time>2020-10-18T12:19:49.000Z</time>
      </trkpt>
      <trkpt lat="48.28059" lon="-3.56167">
        <ele>129.60000610352</ele>
        <time>2020-10-18T12:19:50.000Z</time>
      </trkpt>
      <trkpt lat="48.28059" lon="-3.56167">
        <ele>129.60000610352</ele>
        <time>2020-10-18T12:19:51.000Z</time>
      </trkpt>
      <trkpt lat="48.28056" lon="-3.56166">
        <ele>129.60000610352</ele>
        <time>2020-10-18T12:19:52.000Z</time>
      </trkpt>
      <trkpt lat="48.2805" lon="-3.56164">
        <ele>130</ele>
        <time>2020-10-18T12:19:53.000Z</time>
      </trkpt>
      <trkpt lat="48.2805" lon="-3.56164">
        <ele>130</ele>
        <time>2020-10-18T12:19:54.000Z</time>
      </trkpt>
      <trkpt lat="48.28047" lon="-3.56163">
        <ele>130</ele>
        <time>2020-10-18T12:19:55.000Z</time>
      </trkpt>
      <trkpt lat="48.28041" lon="-3.56161">
        <ele>130.19999694824</ele>
        <time>2020-10-18T12:19:56.000Z</time>
      </trkpt>
      <trkpt lat="48.28041" lon="-3.56161">
        <ele>130.19999694824</ele>
        <time>2020-10-18T12:19:57.000Z</time>
      </trkpt>
      <trkpt lat="48.28038" lon="-3.56161">
        <ele>130.39999389648</ele>
        <time>2020-10-18T12:19:58.000Z</time>
      </trkpt>
      <trkpt lat="48.28032" lon="-3.56159">
        <ele>130.60000610352</ele>
        <time>2020-10-18T12:19:59.000Z</time>
      </trkpt>
      <trkpt lat="48.28032" lon="-3.56159">
        <ele>130.60000610352</ele>
        <time>2020-10-18T12:20:00.000Z</time>
      </trkpt>
      <trkpt lat="48.28029" lon="-3.56158">
        <ele>130.80000305176</ele>
        <time>2020-10-18T12:20:01.000Z</time>
      </trkpt>
      <trkpt lat="48.28022" lon="-3.56156">
        <ele>131</ele>
        <time>2020-10-18T12:20:02.000Z</time>
      </trkpt>
      <trkpt lat="48.28022" lon="-3.56156">
        <ele>131</ele>
        <time>2020-10-18T12:20:03.000Z</time>
      </trkpt>
      <trkpt lat="48.28016" lon="-3.56154">
        <ele>131.19999694824</ele>
        <time>2020-10-18T12:20:04.000Z</time>
      </trkpt>
      <trkpt lat="48.28016" lon="-3.56154">
        <ele>131.19999694824</ele>
        <time>2020-10-18T12:20:05.000Z</time>
      </trkpt>
      <trkpt lat="48.2801" lon="-3.56153">
        <ele>131.39999389648</ele>
        <time>2020-10-18T12:20:06.000Z</time>
      </trkpt>
      <trkpt lat="48.2801" lon="-3.56153">
        <ele>131.39999389648</ele>
        <time>2020-10-18T12:20:07.000Z</time>
      </trkpt>
      <trkpt lat="48.28006" lon="-3.56152">
        <ele>131.60000610352</ele>
        <time>2020-10-18T12:20:08.000Z</time>
      </trkpt>
      <trkpt lat="48.28003" lon="-3.56151">
        <ele>131.60000610352</ele>
        <time>2020-10-18T12:20:09.000Z</time>
      </trkpt>
      <trkpt lat="48.27997" lon="-3.56149">
        <ele>131.80000305176</ele>
        <time>2020-10-18T12:20:10.000Z</time>
      </trkpt>
      <trkpt lat="48.27997" lon="-3.56149">
        <ele>131.80000305176</ele>
        <time>2020-10-18T12:20:11.000Z</time>
      </trkpt>
      <trkpt lat="48.27994" lon="-3.56149">
        <ele>131.80000305176</ele>
        <time>2020-10-18T12:20:12.000Z</time>
      </trkpt>
      <trkpt lat="48.27989" lon="-3.56148">
        <ele>132</ele>
        <time>2020-10-18T12:20:13.000Z</time>
      </trkpt>
      <trkpt lat="48.27989" lon="-3.56148">
        <ele>132</ele>
        <time>2020-10-18T12:20:14.000Z</time>
      </trkpt>
      <trkpt lat="48.27986" lon="-3.56148">
        <ele>132</ele>
        <time>2020-10-18T12:20:15.000Z</time>
      </trkpt>
      <trkpt lat="48.2798" lon="-3.56147">
        <ele>132.19999694824</ele>
        <time>2020-10-18T12:20:16.000Z</time>
      </trkpt>
      <trkpt lat="48.2798" lon="-3.56147">
        <ele>132.19999694824</ele>
        <time>2020-10-18T12:20:17.000Z</time>
      </trkpt>
      <trkpt lat="48.27977" lon="-3.56147">
        <ele>132.39999389648</ele>
        <time>2020-10-18T12:20:18.000Z</time>
      </trkpt>
      <trkpt lat="48.27972" lon="-3.56147">
        <ele>132.39999389648</ele>
        <time>2020-10-18T12:20:19.000Z</time>
      </trkpt>
      <trkpt lat="48.27972" lon="-3.56147">
        <ele>132.39999389648</ele>
        <time>2020-10-18T12:20:20.000Z</time>
      </trkpt>
      <trkpt lat="48.27969" lon="-3.56148">
        <ele>132.39999389648</ele>
        <time>2020-10-18T12:20:21.000Z</time>
      </trkpt>
      <trkpt lat="48.27966" lon="-3.56152">
        <ele>132.60000610352</ele>
        <time>2020-10-18T12:20:22.000Z</time>
      </trkpt>
      <trkpt lat="48.27966" lon="-3.56152">
        <ele>132.60000610352</ele>
        <time>2020-10-18T12:20:23.000Z</time>
      </trkpt>
      <trkpt lat="48.27965" lon="-3.56154">
        <ele>132.60000610352</ele>
        <time>2020-10-18T12:20:24.000Z</time>
      </trkpt>
      <trkpt lat="48.27965" lon="-3.56155">
        <ele>132.60000610352</ele>
        <time>2020-10-18T12:20:25.000Z</time>
      </trkpt>
      <trkpt lat="48.27965" lon="-3.56155">
        <ele>132.60000610352</ele>
        <time>2020-10-18T12:20:26.000Z</time>
      </trkpt>
      <trkpt lat="48.27965" lon="-3.56155">
        <ele>132.60000610352</ele>
        <time>2020-10-18T12:20:27.000Z</time>
      </trkpt>
      <trkpt lat="48.27965" lon="-3.56155">
        <ele>132.60000610352</ele>
        <time>2020-10-18T12:20:28.000Z</time>
      </trkpt>
      <trkpt lat="48.27965" lon="-3.56155">
        <ele>132.39999389648</ele>
        <time>2020-10-18T12:20:29.000Z</time>
      </trkpt>
      <trkpt lat="48.27965" lon="-3.56155">
        <ele>132.39999389648</ele>
        <time>2020-10-18T12:20:30.000Z</time>
      </trkpt>
      <trkpt lat="48.27966" lon="-3.56156">
        <ele>132.39999389648</ele>
        <time>2020-10-18T12:20:31.000Z</time>
      </trkpt>
      <trkpt lat="48.27966" lon="-3.56156">
        <ele>132.39999389648</ele>
        <time>2020-10-18T12:20:32.000Z</time>
      </trkpt>
      <trkpt lat="48.27966" lon="-3.56156">
        <ele>132.39999389648</ele>
        <time>2020-10-18T12:20:33.000Z</time>
      </trkpt>
      <trkpt lat="48.27966" lon="-3.56156">
        <ele>132.39999389648</ele>
        <time>2020-10-18T12:20:34.000Z</time>
      </trkpt>
      <trkpt lat="48.27966" lon="-3.56156">
        <ele>132.39999389648</ele>
        <time>2020-10-18T12:20:35.000Z</time>
      </trkpt>
      <trkpt lat="48.27966" lon="-3.56156">
        <ele>132.39999389648</ele>
        <time>2020-10-18T12:20:36.000Z</time>
      </trkpt>
      <trkpt lat="48.27966" lon="-3.56156">
        <ele>132.39999389648</ele>
        <time>2020-10-18T12:20:37.000Z</time>
      </trkpt>
      <trkpt lat="48.27966" lon="-3.56156">
        <ele>132.39999389648</ele>
        <time>2020-10-18T12:20:38.000Z</time>
      </trkpt>
      <trkpt lat="48.27966" lon="-3.56156">
        <ele>132.39999389648</ele>
        <time>2020-10-18T12:20:39.000Z</time>
      </trkpt>
      <trkpt lat="48.27966" lon="-3.56156">
        <ele>132.39999389648</ele>
        <time>2020-10-18T12:20:40.000Z</time>
      </trkpt>
      <trkpt lat="48.27962" lon="-3.56153">
        <ele>132.60000610352</ele>
        <time>2020-10-18T12:20:41.000Z</time>
      </trkpt>
      <trkpt lat="48.27962" lon="-3.56153">
        <ele>132.60000610352</ele>
        <time>2020-10-18T12:20:42.000Z</time>
      </trkpt>
      <trkpt lat="48.2796" lon="-3.56151">
        <ele>132.60000610352</ele>
        <time>2020-10-18T12:20:43.000Z</time>
      </trkpt>
      <trkpt lat="48.27955" lon="-3.56146">
        <ele>132.60000610352</ele>
        <time>2020-10-18T12:20:44.000Z</time>
      </trkpt>
      <trkpt lat="48.27955" lon="-3.56146">
        <ele>132.60000610352</ele>
        <time>2020-10-18T12:20:45.000Z</time>
      </trkpt>
      <trkpt lat="48.27949" lon="-3.56144">
        <ele>132.60000610352</ele>
        <time>2020-10-18T12:20:46.000Z</time>
      </trkpt>
      <trkpt lat="48.27949" lon="-3.56144">
        <ele>132.60000610352</ele>
        <time>2020-10-18T12:20:47.000Z</time>
      </trkpt>
      <trkpt lat="48.27942" lon="-3.56145">
        <ele>132.60000610352</ele>
        <time>2020-10-18T12:20:48.000Z</time>
      </trkpt>
      <trkpt lat="48.27939" lon="-3.56146">
        <ele>132.60000610352</ele>
        <time>2020-10-18T12:20:49.000Z</time>
      </trkpt>
      <trkpt lat="48.27939" lon="-3.56146">
        <ele>132.60000610352</ele>
        <time>2020-10-18T12:20:50.000Z</time>
      </trkpt>
      <trkpt lat="48.27937" lon="-3.56148">
        <ele>132.60000610352</ele>
        <time>2020-10-18T12:20:51.000Z</time>
      </trkpt>
      <trkpt lat="48.27931" lon="-3.56152">
        <ele>132.60000610352</ele>
        <time>2020-10-18T12:20:52.000Z</time>
      </trkpt>
      <trkpt lat="48.27931" lon="-3.56152">
        <ele>132.60000610352</ele>
        <time>2020-10-18T12:20:53.000Z</time>
      </trkpt>
      <trkpt lat="48.27928" lon="-3.56155">
        <ele>132.60000610352</ele>
        <time>2020-10-18T12:20:54.000Z</time>
      </trkpt>
      <trkpt lat="48.27922" lon="-3.56161">
        <ele>132.60000610352</ele>
        <time>2020-10-18T12:20:55.000Z</time>
      </trkpt>
      <trkpt lat="48.27922" lon="-3.56161">
        <ele>132.60000610352</ele>
        <time>2020-10-18T12:20:56.000Z</time>
      </trkpt>
      <trkpt lat="48.27919" lon="-3.56165">
        <ele>132.60000610352</ele>
        <time>2020-10-18T12:20:57.000Z</time>
      </trkpt>
      <trkpt lat="48.27913" lon="-3.56173">
        <ele>132.60000610352</ele>
        <time>2020-10-18T12:20:58.000Z</time>
      </trkpt>
      <trkpt lat="48.27913" lon="-3.56173">
        <ele>132.60000610352</ele>
        <time>2020-10-18T12:20:59.000Z</time>
      </trkpt>
      <trkpt lat="48.2791" lon="-3.56177">
        <ele>132.60000610352</ele>
        <time>2020-10-18T12:21:00.000Z</time>
      </trkpt>
      <trkpt lat="48.27902" lon="-3.56185">
        <ele>132.60000610352</ele>
        <time>2020-10-18T12:21:01.000Z</time>
      </trkpt>
      <trkpt lat="48.27902" lon="-3.56185">
        <ele>132.60000610352</ele>
        <time>2020-10-18T12:21:02.000Z</time>
      </trkpt>
      <trkpt lat="48.27899" lon="-3.5619">
        <ele>132.80000305176</ele>
        <time>2020-10-18T12:21:03.000Z</time>
      </trkpt>
      <trkpt lat="48.27891" lon="-3.56199">
        <ele>132.80000305176</ele>
        <time>2020-10-18T12:21:04.000Z</time>
      </trkpt>
      <trkpt lat="48.27891" lon="-3.56199">
        <ele>132.80000305176</ele>
        <time>2020-10-18T12:21:05.000Z</time>
      </trkpt>
      <trkpt lat="48.27887" lon="-3.56204">
        <ele>132.80000305176</ele>
        <time>2020-10-18T12:21:06.000Z</time>
      </trkpt>
      <trkpt lat="48.27879" lon="-3.56214">
        <ele>132.80000305176</ele>
        <time>2020-10-18T12:21:07.000Z</time>
      </trkpt>
      <trkpt lat="48.27879" lon="-3.56214">
        <ele>132.80000305176</ele>
        <time>2020-10-18T12:21:08.000Z</time>
      </trkpt>
      <trkpt lat="48.27874" lon="-3.56219">
        <ele>132.80000305176</ele>
        <time>2020-10-18T12:21:09.000Z</time>
      </trkpt>
      <trkpt lat="48.27865" lon="-3.5623">
        <ele>132.80000305176</ele>
        <time>2020-10-18T12:21:10.000Z</time>
      </trkpt>
      <trkpt lat="48.27865" lon="-3.5623">
        <ele>132.80000305176</ele>
        <time>2020-10-18T12:21:11.000Z</time>
      </trkpt>
      <trkpt lat="48.27861" lon="-3.56235">
        <ele>132.80000305176</ele>
        <time>2020-10-18T12:21:12.000Z</time>
      </trkpt>
      <trkpt lat="48.27853" lon="-3.56245">
        <ele>132.80000305176</ele>
        <time>2020-10-18T12:21:13.000Z</time>
      </trkpt>
      <trkpt lat="48.27853" lon="-3.56245">
        <ele>132.80000305176</ele>
        <time>2020-10-18T12:21:14.000Z</time>
      </trkpt>
      <trkpt lat="48.2785" lon="-3.5625">
        <ele>132.80000305176</ele>
        <time>2020-10-18T12:21:15.000Z</time>
      </trkpt>
      <trkpt lat="48.27842" lon="-3.56259">
        <ele>132.80000305176</ele>
        <time>2020-10-18T12:21:16.000Z</time>
      </trkpt>
      <trkpt lat="48.27842" lon="-3.56259">
        <ele>132.80000305176</ele>
        <time>2020-10-18T12:21:17.000Z</time>
      </trkpt>
      <trkpt lat="48.27839" lon="-3.56263">
        <ele>132.80000305176</ele>
        <time>2020-10-18T12:21:18.000Z</time>
      </trkpt>
      <trkpt lat="48.27831" lon="-3.56271">
        <ele>132.80000305176</ele>
        <time>2020-10-18T12:21:19.000Z</time>
      </trkpt>
      <trkpt lat="48.27831" lon="-3.56271">
        <ele>132.80000305176</ele>
        <time>2020-10-18T12:21:20.000Z</time>
      </trkpt>
      <trkpt lat="48.27827" lon="-3.56274">
        <ele>132.60000610352</ele>
        <time>2020-10-18T12:21:21.000Z</time>
      </trkpt>
      <trkpt lat="48.2782" lon="-3.5628">
        <ele>132.60000610352</ele>
        <time>2020-10-18T12:21:22.000Z</time>
      </trkpt>
      <trkpt lat="48.2782" lon="-3.5628">
        <ele>132.60000610352</ele>
        <time>2020-10-18T12:21:23.000Z</time>
      </trkpt>
      <trkpt lat="48.27816" lon="-3.56284">
        <ele>132.39999389648</ele>
        <time>2020-10-18T12:21:24.000Z</time>
      </trkpt>
      <trkpt lat="48.27808" lon="-3.56289">
        <ele>132.19999694824</ele>
        <time>2020-10-18T12:21:25.000Z</time>
      </trkpt>
      <trkpt lat="48.27808" lon="-3.56289">
        <ele>132.19999694824</ele>
        <time>2020-10-18T12:21:26.000Z</time>
      </trkpt>
      <trkpt lat="48.27804" lon="-3.56292">
        <ele>132.19999694824</ele>
        <time>2020-10-18T12:21:27.000Z</time>
      </trkpt>
      <trkpt lat="48.27797" lon="-3.56297">
        <ele>132</ele>
        <time>2020-10-18T12:21:28.000Z</time>
      </trkpt>
      <trkpt lat="48.27797" lon="-3.56297">
        <ele>132</ele>
        <time>2020-10-18T12:21:29.000Z</time>
      </trkpt>
      <trkpt lat="48.27793" lon="-3.563">
        <ele>132</ele>
        <time>2020-10-18T12:21:30.000Z</time>
      </trkpt>
      <trkpt lat="48.27787" lon="-3.5631">
        <ele>131.80000305176</ele>
        <time>2020-10-18T12:21:31.000Z</time>
      </trkpt>
      <trkpt lat="48.27787" lon="-3.5631">
        <ele>131.80000305176</ele>
        <time>2020-10-18T12:21:32.000Z</time>
      </trkpt>
      <trkpt lat="48.27783" lon="-3.56315">
        <ele>131.60000610352</ele>
        <time>2020-10-18T12:21:33.000Z</time>
      </trkpt>
      <trkpt lat="48.2778" lon="-3.5632">
        <ele>131.60000610352</ele>
        <time>2020-10-18T12:21:34.000Z</time>
      </trkpt>
      <trkpt lat="48.27776" lon="-3.56325">
        <ele>131.39999389648</ele>
        <time>2020-10-18T12:21:35.000Z</time>
      </trkpt>
      <trkpt lat="48.27768" lon="-3.56335">
        <ele>131.19999694824</ele>
        <time>2020-10-18T12:21:36.000Z</time>
      </trkpt>
      <trkpt lat="48.27768" lon="-3.56335">
        <ele>131.19999694824</ele>
        <time>2020-10-18T12:21:37.000Z</time>
      </trkpt>
      <trkpt lat="48.27765" lon="-3.5634">
        <ele>131.19999694824</ele>
        <time>2020-10-18T12:21:38.000Z</time>
      </trkpt>
      <trkpt lat="48.27756" lon="-3.5635">
        <ele>131</ele>
        <time>2020-10-18T12:21:39.000Z</time>
      </trkpt>
      <trkpt lat="48.27756" lon="-3.5635">
        <ele>131</ele>
        <time>2020-10-18T12:21:40.000Z</time>
      </trkpt>
      <trkpt lat="48.27752" lon="-3.56355">
        <ele>130.80000305176</ele>
        <time>2020-10-18T12:21:41.000Z</time>
      </trkpt>
      <trkpt lat="48.27744" lon="-3.56365">
        <ele>130.80000305176</ele>
        <time>2020-10-18T12:21:42.000Z</time>
      </trkpt>
      <trkpt lat="48.27744" lon="-3.56365">
        <ele>130.80000305176</ele>
        <time>2020-10-18T12:21:43.000Z</time>
      </trkpt>
      <trkpt lat="48.2774" lon="-3.5637">
        <ele>130.80000305176</ele>
        <time>2020-10-18T12:21:44.000Z</time>
      </trkpt>
      <trkpt lat="48.27732" lon="-3.5638">
        <ele>130.60000610352</ele>
        <time>2020-10-18T12:21:45.000Z</time>
      </trkpt>
      <trkpt lat="48.27732" lon="-3.5638">
        <ele>130.60000610352</ele>
        <time>2020-10-18T12:21:46.000Z</time>
      </trkpt>
      <trkpt lat="48.27725" lon="-3.56389">
        <ele>130.60000610352</ele>
        <time>2020-10-18T12:21:47.000Z</time>
      </trkpt>
      <trkpt lat="48.27725" lon="-3.56389">
        <ele>130.60000610352</ele>
        <time>2020-10-18T12:21:48.000Z</time>
      </trkpt>
      <trkpt lat="48.27719" lon="-3.56395">
        <ele>130.39999389648</ele>
        <time>2020-10-18T12:21:49.000Z</time>
      </trkpt>
      <trkpt lat="48.27719" lon="-3.56395">
        <ele>130.39999389648</ele>
        <time>2020-10-18T12:21:50.000Z</time>
      </trkpt>
      <trkpt lat="48.27717" lon="-3.56397">
        <ele>130.39999389648</ele>
        <time>2020-10-18T12:21:51.000Z</time>
      </trkpt>
      <trkpt lat="48.27712" lon="-3.56403">
        <ele>130.39999389648</ele>
        <time>2020-10-18T12:21:52.000Z</time>
      </trkpt>
      <trkpt lat="48.27712" lon="-3.56403">
        <ele>130.39999389648</ele>
        <time>2020-10-18T12:21:53.000Z</time>
      </trkpt>
      <trkpt lat="48.27709" lon="-3.56405">
        <ele>130.39999389648</ele>
        <time>2020-10-18T12:21:54.000Z</time>
      </trkpt>
      <trkpt lat="48.27707" lon="-3.56408">
        <ele>130.39999389648</ele>
        <time>2020-10-18T12:21:55.000Z</time>
      </trkpt>
      <trkpt lat="48.27707" lon="-3.56408">
        <ele>130.39999389648</ele>
        <time>2020-10-18T12:21:56.000Z</time>
      </trkpt>
      <trkpt lat="48.27707" lon="-3.5641">
        <ele>130.39999389648</ele>
        <time>2020-10-18T12:21:57.000Z</time>
      </trkpt>
      <trkpt lat="48.27706" lon="-3.56413">
        <ele>130.39999389648</ele>
        <time>2020-10-18T12:21:58.000Z</time>
      </trkpt>
      <trkpt lat="48.27706" lon="-3.56413">
        <ele>130.39999389648</ele>
        <time>2020-10-18T12:21:59.000Z</time>
      </trkpt>
      <trkpt lat="48.27704" lon="-3.56414">
        <ele>130.39999389648</ele>
        <time>2020-10-18T12:22:00.000Z</time>
      </trkpt>
      <trkpt lat="48.27701" lon="-3.56412">
        <ele>130.19999694824</ele>
        <time>2020-10-18T12:22:01.000Z</time>
      </trkpt>
      <trkpt lat="48.277" lon="-3.56409">
        <ele>130.19999694824</ele>
        <time>2020-10-18T12:22:02.000Z</time>
      </trkpt>
      <trkpt lat="48.277" lon="-3.56409">
        <ele>130.19999694824</ele>
        <time>2020-10-18T12:22:03.000Z</time>
      </trkpt>
      <trkpt lat="48.27695" lon="-3.56405">
        <ele>130.19999694824</ele>
        <time>2020-10-18T12:22:04.000Z</time>
      </trkpt>
      <trkpt lat="48.27695" lon="-3.56405">
        <ele>130.19999694824</ele>
        <time>2020-10-18T12:22:05.000Z</time>
      </trkpt>
      <trkpt lat="48.27688" lon="-3.56406">
        <ele>130</ele>
        <time>2020-10-18T12:22:06.000Z</time>
      </trkpt>
      <trkpt lat="48.27688" lon="-3.56406">
        <ele>130</ele>
        <time>2020-10-18T12:22:07.000Z</time>
      </trkpt>
      <trkpt lat="48.27684" lon="-3.56407">
        <ele>130</ele>
        <time>2020-10-18T12:22:08.000Z</time>
      </trkpt>
      <trkpt lat="48.27676" lon="-3.5641">
        <ele>130</ele>
        <time>2020-10-18T12:22:09.000Z</time>
      </trkpt>
      <trkpt lat="48.27676" lon="-3.5641">
        <ele>130</ele>
        <time>2020-10-18T12:22:10.000Z</time>
      </trkpt>
      <trkpt lat="48.27672" lon="-3.56412">
        <ele>130</ele>
        <time>2020-10-18T12:22:11.000Z</time>
      </trkpt>
      <trkpt lat="48.27663" lon="-3.56414">
        <ele>130</ele>
        <time>2020-10-18T12:22:12.000Z</time>
      </trkpt>
      <trkpt lat="48.27663" lon="-3.56414">
        <ele>130</ele>
        <time>2020-10-18T12:22:13.000Z</time>
      </trkpt>
      <trkpt lat="48.27659" lon="-3.56415">
        <ele>130</ele>
        <time>2020-10-18T12:22:14.000Z</time>
      </trkpt>
      <trkpt lat="48.2765" lon="-3.56419">
        <ele>130</ele>
        <time>2020-10-18T12:22:15.000Z</time>
      </trkpt>
      <trkpt lat="48.2765" lon="-3.56419">
        <ele>130</ele>
        <time>2020-10-18T12:22:16.000Z</time>
      </trkpt>
      <trkpt lat="48.27646" lon="-3.56421">
        <ele>130</ele>
        <time>2020-10-18T12:22:17.000Z</time>
      </trkpt>
      <trkpt lat="48.27638" lon="-3.56425">
        <ele>130</ele>
        <time>2020-10-18T12:22:18.000Z</time>
      </trkpt>
      <trkpt lat="48.27638" lon="-3.56425">
        <ele>130</ele>
        <time>2020-10-18T12:22:19.000Z</time>
      </trkpt>
      <trkpt lat="48.27634" lon="-3.56426">
        <ele>130</ele>
        <time>2020-10-18T12:22:20.000Z</time>
      </trkpt>
      <trkpt lat="48.27626" lon="-3.56429">
        <ele>130</ele>
        <time>2020-10-18T12:22:21.000Z</time>
      </trkpt>
      <trkpt lat="48.27626" lon="-3.56429">
        <ele>130</ele>
        <time>2020-10-18T12:22:22.000Z</time>
      </trkpt>
      <trkpt lat="48.27621" lon="-3.56429">
        <ele>130</ele>
        <time>2020-10-18T12:22:23.000Z</time>
      </trkpt>
      <trkpt lat="48.27613" lon="-3.56432">
        <ele>130</ele>
        <time>2020-10-18T12:22:24.000Z</time>
      </trkpt>
      <trkpt lat="48.27613" lon="-3.56432">
        <ele>130</ele>
        <time>2020-10-18T12:22:25.000Z</time>
      </trkpt>
      <trkpt lat="48.27609" lon="-3.56433">
        <ele>130</ele>
        <time>2020-10-18T12:22:26.000Z</time>
      </trkpt>
      <trkpt lat="48.27601" lon="-3.56437">
        <ele>130</ele>
        <time>2020-10-18T12:22:27.000Z</time>
      </trkpt>
      <trkpt lat="48.27601" lon="-3.56437">
        <ele>130</ele>
        <time>2020-10-18T12:22:28.000Z</time>
      </trkpt>
      <trkpt lat="48.27594" lon="-3.5644">
        <ele>129.80000305176</ele>
        <time>2020-10-18T12:22:29.000Z</time>
      </trkpt>
      <trkpt lat="48.27594" lon="-3.5644">
        <ele>129.80000305176</ele>
        <time>2020-10-18T12:22:30.000Z</time>
      </trkpt>
      <trkpt lat="48.2759" lon="-3.56442">
        <ele>129.60000610352</ele>
        <time>2020-10-18T12:22:31.000Z</time>
      </trkpt>
      <trkpt lat="48.27583" lon="-3.56445">
        <ele>129.39999389648</ele>
        <time>2020-10-18T12:22:32.000Z</time>
      </trkpt>
      <trkpt lat="48.27583" lon="-3.56445">
        <ele>129.39999389648</ele>
        <time>2020-10-18T12:22:33.000Z</time>
      </trkpt>
      <trkpt lat="48.27579" lon="-3.56446">
        <ele>129.39999389648</ele>
        <time>2020-10-18T12:22:34.000Z</time>
      </trkpt>
      <trkpt lat="48.27572" lon="-3.56447">
        <ele>129</ele>
        <time>2020-10-18T12:22:35.000Z</time>
      </trkpt>
      <trkpt lat="48.27572" lon="-3.56447">
        <ele>129</ele>
        <time>2020-10-18T12:22:36.000Z</time>
      </trkpt>
      <trkpt lat="48.27568" lon="-3.56448">
        <ele>129</ele>
        <time>2020-10-18T12:22:37.000Z</time>
      </trkpt>
      <trkpt lat="48.27562" lon="-3.56448">
        <ele>128.80000305176</ele>
        <time>2020-10-18T12:22:38.000Z</time>
      </trkpt>
      <trkpt lat="48.27562" lon="-3.56448">
        <ele>128.80000305176</ele>
        <time>2020-10-18T12:22:39.000Z</time>
      </trkpt>
      <trkpt lat="48.27559" lon="-3.56448">
        <ele>128.80000305176</ele>
        <time>2020-10-18T12:22:40.000Z</time>
      </trkpt>
      <trkpt lat="48.27552" lon="-3.56452">
        <ele>128.60000610352</ele>
        <time>2020-10-18T12:22:41.000Z</time>
      </trkpt>
      <trkpt lat="48.27552" lon="-3.56452">
        <ele>128.60000610352</ele>
        <time>2020-10-18T12:22:42.000Z</time>
      </trkpt>
      <trkpt lat="48.27549" lon="-3.56454">
        <ele>128.39999389648</ele>
        <time>2020-10-18T12:22:43.000Z</time>
      </trkpt>
      <trkpt lat="48.27542" lon="-3.56459">
        <ele>128.19999694824</ele>
        <time>2020-10-18T12:22:44.000Z</time>
      </trkpt>
      <trkpt lat="48.27542" lon="-3.56459">
        <ele>128.19999694824</ele>
        <time>2020-10-18T12:22:45.000Z</time>
      </trkpt>
      <trkpt lat="48.2754" lon="-3.5646">
        <ele>128</ele>
        <time>2020-10-18T12:22:46.000Z</time>
      </trkpt>
      <trkpt lat="48.27538" lon="-3.56462">
        <ele>128</ele>
        <time>2020-10-18T12:22:47.000Z</time>
      </trkpt>
      <trkpt lat="48.27537" lon="-3.56462">
        <ele>128</ele>
        <time>2020-10-18T12:22:48.000Z</time>
      </trkpt>
      <trkpt lat="48.27536" lon="-3.56462">
        <ele>127.80000305176</ele>
        <time>2020-10-18T12:22:49.000Z</time>
      </trkpt>
      <trkpt lat="48.27536" lon="-3.56462">
        <ele>127.80000305176</ele>
        <time>2020-10-18T12:22:50.000Z</time>
      </trkpt>
      <trkpt lat="48.27535" lon="-3.56463">
        <ele>127.80000305176</ele>
        <time>2020-10-18T12:22:51.000Z</time>
      </trkpt>
      <trkpt lat="48.27535" lon="-3.56463">
        <ele>127.80000305176</ele>
        <time>2020-10-18T12:22:52.000Z</time>
      </trkpt>
      <trkpt lat="48.27535" lon="-3.56463">
        <ele>127.80000305176</ele>
        <time>2020-10-18T12:22:53.000Z</time>
      </trkpt>
      <trkpt lat="48.27535" lon="-3.56463">
        <ele>127.80000305176</ele>
        <time>2020-10-18T12:22:54.000Z</time>
      </trkpt>
      <trkpt lat="48.27535" lon="-3.56463">
        <ele>127.80000305176</ele>
        <time>2020-10-18T12:22:55.000Z</time>
      </trkpt>
      <trkpt lat="48.27535" lon="-3.56463">
        <ele>127.80000305176</ele>
        <time>2020-10-18T12:22:56.000Z</time>
      </trkpt>
      <trkpt lat="48.27535" lon="-3.56463">
        <ele>127.80000305176</ele>
        <time>2020-10-18T12:22:57.000Z</time>
      </trkpt>
      <trkpt lat="48.27535" lon="-3.56463">
        <ele>127.80000305176</ele>
        <time>2020-10-18T12:22:58.000Z</time>
      </trkpt>
      <trkpt lat="48.27535" lon="-3.56463">
        <ele>127.80000305176</ele>
        <time>2020-10-18T12:22:59.000Z</time>
      </trkpt>
      <trkpt lat="48.27535" lon="-3.56463">
        <ele>127.80000305176</ele>
        <time>2020-10-18T12:23:00.000Z</time>
      </trkpt>
      <trkpt lat="48.27535" lon="-3.56463">
        <ele>127.80000305176</ele>
        <time>2020-10-18T12:23:01.000Z</time>
      </trkpt>
      <trkpt lat="48.27533" lon="-3.56464">
        <ele>127.80000305176</ele>
        <time>2020-10-18T12:23:02.000Z</time>
      </trkpt>
      <trkpt lat="48.2753" lon="-3.56466">
        <ele>127.59999847412</ele>
        <time>2020-10-18T12:23:03.000Z</time>
      </trkpt>
      <trkpt lat="48.2753" lon="-3.56466">
        <ele>127.59999847412</ele>
        <time>2020-10-18T12:23:04.000Z</time>
      </trkpt>
      <trkpt lat="48.27527" lon="-3.56468">
        <ele>127.59999847412</ele>
        <time>2020-10-18T12:23:05.000Z</time>
      </trkpt>
      <trkpt lat="48.27522" lon="-3.56474">
        <ele>127.19999694824</ele>
        <time>2020-10-18T12:23:06.000Z</time>
      </trkpt>
      <trkpt lat="48.27519" lon="-3.56477">
        <ele>127.19999694824</ele>
        <time>2020-10-18T12:23:07.000Z</time>
      </trkpt>
      <trkpt lat="48.27519" lon="-3.56477">
        <ele>127.19999694824</ele>
        <time>2020-10-18T12:23:08.000Z</time>
      </trkpt>
      <trkpt lat="48.27515" lon="-3.56479">
        <ele>127</ele>
        <time>2020-10-18T12:23:09.000Z</time>
      </trkpt>
      <trkpt lat="48.27508" lon="-3.56483">
        <ele>126.59999847412</ele>
        <time>2020-10-18T12:23:10.000Z</time>
      </trkpt>
      <trkpt lat="48.27508" lon="-3.56483">
        <ele>126.59999847412</ele>
        <time>2020-10-18T12:23:11.000Z</time>
      </trkpt>
      <trkpt lat="48.27504" lon="-3.56485">
        <ele>126.59999847412</ele>
        <time>2020-10-18T12:23:12.000Z</time>
      </trkpt>
      <trkpt lat="48.27496" lon="-3.56488">
        <ele>126.19999694824</ele>
        <time>2020-10-18T12:23:13.000Z</time>
      </trkpt>
      <trkpt lat="48.27496" lon="-3.56488">
        <ele>126.19999694824</ele>
        <time>2020-10-18T12:23:14.000Z</time>
      </trkpt>
      <trkpt lat="48.27492" lon="-3.56491">
        <ele>126.19999694824</ele>
        <time>2020-10-18T12:23:15.000Z</time>
      </trkpt>
      <trkpt lat="48.27489" lon="-3.56495">
        <ele>126</ele>
        <time>2020-10-18T12:23:16.000Z</time>
      </trkpt>
      <trkpt lat="48.27482" lon="-3.56504">
        <ele>125.59999847412</ele>
        <time>2020-10-18T12:23:17.000Z</time>
      </trkpt>
      <trkpt lat="48.27482" lon="-3.56504">
        <ele>125.59999847412</ele>
        <time>2020-10-18T12:23:18.000Z</time>
      </trkpt>
      <trkpt lat="48.2748" lon="-3.5651">
        <ele>125.40000152588</ele>
        <time>2020-10-18T12:23:19.000Z</time>
      </trkpt>
      <trkpt lat="48.27477" lon="-3.56523">
        <ele>125.19999694824</ele>
        <time>2020-10-18T12:23:20.000Z</time>
      </trkpt>
      <trkpt lat="48.27477" lon="-3.56523">
        <ele>125.19999694824</ele>
        <time>2020-10-18T12:23:21.000Z</time>
      </trkpt>
      <trkpt lat="48.27477" lon="-3.56529">
        <ele>125.19999694824</ele>
        <time>2020-10-18T12:23:22.000Z</time>
      </trkpt>
      <trkpt lat="48.27476" lon="-3.56543">
        <ele>125.19999694824</ele>
        <time>2020-10-18T12:23:23.000Z</time>
      </trkpt>
      <trkpt lat="48.27476" lon="-3.56543">
        <ele>125.19999694824</ele>
        <time>2020-10-18T12:23:24.000Z</time>
      </trkpt>
      <trkpt lat="48.27476" lon="-3.5655">
        <ele>125.19999694824</ele>
        <time>2020-10-18T12:23:25.000Z</time>
      </trkpt>
      <trkpt lat="48.27476" lon="-3.56565">
        <ele>125.19999694824</ele>
        <time>2020-10-18T12:23:26.000Z</time>
      </trkpt>
      <trkpt lat="48.27476" lon="-3.56565">
        <ele>125.19999694824</ele>
        <time>2020-10-18T12:23:27.000Z</time>
      </trkpt>
      <trkpt lat="48.27476" lon="-3.56571">
        <ele>125.19999694824</ele>
        <time>2020-10-18T12:23:28.000Z</time>
      </trkpt>
      <trkpt lat="48.27475" lon="-3.56581">
        <ele>125</ele>
        <time>2020-10-18T12:23:29.000Z</time>
      </trkpt>
      <trkpt lat="48.27475" lon="-3.56581">
        <ele>125</ele>
        <time>2020-10-18T12:23:30.000Z</time>
      </trkpt>
      <trkpt lat="48.27473" lon="-3.56585">
        <ele>125</ele>
        <time>2020-10-18T12:23:31.000Z</time>
      </trkpt>
      <trkpt lat="48.27469" lon="-3.56587">
        <ele>125</ele>
        <time>2020-10-18T12:23:32.000Z</time>
      </trkpt>
      <trkpt lat="48.27469" lon="-3.56587">
        <ele>125</ele>
        <time>2020-10-18T12:23:33.000Z</time>
      </trkpt>
      <trkpt lat="48.27466" lon="-3.56587">
        <ele>124.80000305176</ele>
        <time>2020-10-18T12:23:34.000Z</time>
      </trkpt>
      <trkpt lat="48.27459" lon="-3.56586">
        <ele>124.80000305176</ele>
        <time>2020-10-18T12:23:35.000Z</time>
      </trkpt>
      <trkpt lat="48.27459" lon="-3.56586">
        <ele>124.80000305176</ele>
        <time>2020-10-18T12:23:36.000Z</time>
      </trkpt>
      <trkpt lat="48.27455" lon="-3.56586">
        <ele>124.59999847412</ele>
        <time>2020-10-18T12:23:37.000Z</time>
      </trkpt>
      <trkpt lat="48.27445" lon="-3.56585">
        <ele>124.40000152588</ele>
        <time>2020-10-18T12:23:38.000Z</time>
      </trkpt>
      <trkpt lat="48.27445" lon="-3.56585">
        <ele>124.40000152588</ele>
        <time>2020-10-18T12:23:39.000Z</time>
      </trkpt>
      <trkpt lat="48.27441" lon="-3.56585">
        <ele>124.19999694824</ele>
        <time>2020-10-18T12:23:40.000Z</time>
      </trkpt>
      <trkpt lat="48.2743" lon="-3.56584">
        <ele>124</ele>
        <time>2020-10-18T12:23:41.000Z</time>
      </trkpt>
      <trkpt lat="48.2743" lon="-3.56584">
        <ele>124</ele>
        <time>2020-10-18T12:23:42.000Z</time>
      </trkpt>
      <trkpt lat="48.27425" lon="-3.56583">
        <ele>123.80000305176</ele>
        <time>2020-10-18T12:23:43.000Z</time>
      </trkpt>
      <trkpt lat="48.27412" lon="-3.56579">
        <ele>123.19999694824</ele>
        <time>2020-10-18T12:23:44.000Z</time>
      </trkpt>
      <trkpt lat="48.27412" lon="-3.56579">
        <ele>123.19999694824</ele>
        <time>2020-10-18T12:23:45.000Z</time>
      </trkpt>
      <trkpt lat="48.274" lon="-3.56576">
        <ele>122.59999847412</ele>
        <time>2020-10-18T12:23:46.000Z</time>
      </trkpt>
      <trkpt lat="48.27394" lon="-3.56575">
        <ele>122.19999694824</ele>
        <time>2020-10-18T12:23:47.000Z</time>
      </trkpt>
      <trkpt lat="48.27394" lon="-3.56575">
        <ele>122.19999694824</ele>
        <time>2020-10-18T12:23:48.000Z</time>
      </trkpt>
      <trkpt lat="48.27388" lon="-3.56574">
        <ele>122</ele>
        <time>2020-10-18T12:23:49.000Z</time>
      </trkpt>
      <trkpt lat="48.27376" lon="-3.5657">
        <ele>121.40000152588</ele>
        <time>2020-10-18T12:23:50.000Z</time>
      </trkpt>
      <trkpt lat="48.27376" lon="-3.5657">
        <ele>121.40000152588</ele>
        <time>2020-10-18T12:23:51.000Z</time>
      </trkpt>
      <trkpt lat="48.27364" lon="-3.56565">
        <ele>120.80000305176</ele>
        <time>2020-10-18T12:23:52.000Z</time>
      </trkpt>
      <trkpt lat="48.27364" lon="-3.56565">
        <ele>120.80000305176</ele>
        <time>2020-10-18T12:23:53.000Z</time>
      </trkpt>
      <trkpt lat="48.27358" lon="-3.56562">
        <ele>120.59999847412</ele>
        <time>2020-10-18T12:23:54.000Z</time>
      </trkpt>
      <trkpt lat="48.27347" lon="-3.56556">
        <ele>120</ele>
        <time>2020-10-18T12:23:55.000Z</time>
      </trkpt>
      <trkpt lat="48.27347" lon="-3.56556">
        <ele>120</ele>
        <time>2020-10-18T12:23:56.000Z</time>
      </trkpt>
      <trkpt lat="48.27342" lon="-3.56553">
        <ele>119.59999847412</ele>
        <time>2020-10-18T12:23:57.000Z</time>
      </trkpt>
      <trkpt lat="48.27332" lon="-3.56547">
        <ele>118.80000305176</ele>
        <time>2020-10-18T12:23:58.000Z</time>
      </trkpt>
      <trkpt lat="48.27332" lon="-3.56547">
        <ele>118.80000305176</ele>
        <time>2020-10-18T12:23:59.000Z</time>
      </trkpt>
      <trkpt lat="48.27328" lon="-3.56544">
        <ele>118.40000152588</ele>
        <time>2020-10-18T12:24:00.000Z</time>
      </trkpt>
      <trkpt lat="48.27321" lon="-3.56539">
        <ele>118</ele>
        <time>2020-10-18T12:24:01.000Z</time>
      </trkpt>
      <trkpt lat="48.27318" lon="-3.56537">
        <ele>118</ele>
        <time>2020-10-18T12:24:02.000Z</time>
      </trkpt>
      <trkpt lat="48.27318" lon="-3.56537">
        <ele>118</ele>
        <time>2020-10-18T12:24:03.000Z</time>
      </trkpt>
      <trkpt lat="48.27314" lon="-3.56534">
        <ele>117.80000305176</ele>
        <time>2020-10-18T12:24:04.000Z</time>
      </trkpt>
      <trkpt lat="48.27312" lon="-3.56532">
        <ele>117.80000305176</ele>
        <time>2020-10-18T12:24:05.000Z</time>
      </trkpt>
      <trkpt lat="48.27312" lon="-3.56532">
        <ele>117.80000305176</ele>
        <time>2020-10-18T12:24:06.000Z</time>
      </trkpt>
      <trkpt lat="48.27311" lon="-3.56531">
        <ele>117.80000305176</ele>
        <time>2020-10-18T12:24:07.000Z</time>
      </trkpt>
      <trkpt lat="48.27309" lon="-3.56527">
        <ele>117.80000305176</ele>
        <time>2020-10-18T12:24:08.000Z</time>
      </trkpt>
      <trkpt lat="48.27309" lon="-3.56527">
        <ele>117.80000305176</ele>
        <time>2020-10-18T12:24:09.000Z</time>
      </trkpt>
      <trkpt lat="48.27308" lon="-3.56525">
        <ele>117.80000305176</ele>
        <time>2020-10-18T12:24:10.000Z</time>
      </trkpt>
      <trkpt lat="48.27306" lon="-3.56519">
        <ele>118</ele>
        <time>2020-10-18T12:24:11.000Z</time>
      </trkpt>
      <trkpt lat="48.27306" lon="-3.56519">
        <ele>118</ele>
        <time>2020-10-18T12:24:12.000Z</time>
      </trkpt>
      <trkpt lat="48.27305" lon="-3.5651">
        <ele>118.19999694824</ele>
        <time>2020-10-18T12:24:13.000Z</time>
      </trkpt>
      <trkpt lat="48.27305" lon="-3.5651">
        <ele>118.19999694824</ele>
        <time>2020-10-18T12:24:14.000Z</time>
      </trkpt>
      <trkpt lat="48.27306" lon="-3.56506">
        <ele>118.40000152588</ele>
        <time>2020-10-18T12:24:15.000Z</time>
      </trkpt>
      <trkpt lat="48.27306" lon="-3.56497">
        <ele>118.59999847412</ele>
        <time>2020-10-18T12:24:16.000Z</time>
      </trkpt>
      <trkpt lat="48.27306" lon="-3.56497">
        <ele>118.59999847412</ele>
        <time>2020-10-18T12:24:17.000Z</time>
      </trkpt>
      <trkpt lat="48.27306" lon="-3.56493">
        <ele>118.59999847412</ele>
        <time>2020-10-18T12:24:18.000Z</time>
      </trkpt>
      <trkpt lat="48.27307" lon="-3.56484">
        <ele>119</ele>
        <time>2020-10-18T12:24:19.000Z</time>
      </trkpt>
      <trkpt lat="48.27307" lon="-3.56484">
        <ele>119</ele>
        <time>2020-10-18T12:24:20.000Z</time>
      </trkpt>
      <trkpt lat="48.27307" lon="-3.56479">
        <ele>119</ele>
        <time>2020-10-18T12:24:21.000Z</time>
      </trkpt>
      <trkpt lat="48.27309" lon="-3.5647">
        <ele>119.40000152588</ele>
        <time>2020-10-18T12:24:22.000Z</time>
      </trkpt>
      <trkpt lat="48.27309" lon="-3.5647">
        <ele>119.40000152588</ele>
        <time>2020-10-18T12:24:23.000Z</time>
      </trkpt>
      <trkpt lat="48.2731" lon="-3.56465">
        <ele>119.59999847412</ele>
        <time>2020-10-18T12:24:24.000Z</time>
      </trkpt>
      <trkpt lat="48.27312" lon="-3.56456">
        <ele>120</ele>
        <time>2020-10-18T12:24:25.000Z</time>
      </trkpt>
      <trkpt lat="48.27312" lon="-3.56456">
        <ele>120</ele>
        <time>2020-10-18T12:24:26.000Z</time>
      </trkpt>
      <trkpt lat="48.27314" lon="-3.56451">
        <ele>120.19999694824</ele>
        <time>2020-10-18T12:24:27.000Z</time>
      </trkpt>
      <trkpt lat="48.27316" lon="-3.56442">
        <ele>120.59999847412</ele>
        <time>2020-10-18T12:24:28.000Z</time>
      </trkpt>
      <trkpt lat="48.27316" lon="-3.56442">
        <ele>120.59999847412</ele>
        <time>2020-10-18T12:24:29.000Z</time>
      </trkpt>
      <trkpt lat="48.27318" lon="-3.56437">
        <ele>120.80000305176</ele>
        <time>2020-10-18T12:24:30.000Z</time>
      </trkpt>
      <trkpt lat="48.2732" lon="-3.56426">
        <ele>121</ele>
        <time>2020-10-18T12:24:31.000Z</time>
      </trkpt>
      <trkpt lat="48.2732" lon="-3.56426">
        <ele>121</ele>
        <time>2020-10-18T12:24:32.000Z</time>
      </trkpt>
      <trkpt lat="48.27321" lon="-3.56421">
        <ele>121</ele>
        <time>2020-10-18T12:24:33.000Z</time>
      </trkpt>
      <trkpt lat="48.27323" lon="-3.56411">
        <ele>121.19999694824</ele>
        <time>2020-10-18T12:24:34.000Z</time>
      </trkpt>
      <trkpt lat="48.27323" lon="-3.56411">
        <ele>121.19999694824</ele>
        <time>2020-10-18T12:24:35.000Z</time>
      </trkpt>
      <trkpt lat="48.27324" lon="-3.56406">
        <ele>121.19999694824</ele>
        <time>2020-10-18T12:24:36.000Z</time>
      </trkpt>
      <trkpt lat="48.27327" lon="-3.56397">
        <ele>121.40000152588</ele>
        <time>2020-10-18T12:24:37.000Z</time>
      </trkpt>
      <trkpt lat="48.27327" lon="-3.56397">
        <ele>121.40000152588</ele>
        <time>2020-10-18T12:24:38.000Z</time>
      </trkpt>
      <trkpt lat="48.27328" lon="-3.56392">
        <ele>121.40000152588</ele>
        <time>2020-10-18T12:24:39.000Z</time>
      </trkpt>
      <trkpt lat="48.2733" lon="-3.56382">
        <ele>121.40000152588</ele>
        <time>2020-10-18T12:24:40.000Z</time>
      </trkpt>
      <trkpt lat="48.2733" lon="-3.56382">
        <ele>121.40000152588</ele>
        <time>2020-10-18T12:24:41.000Z</time>
      </trkpt>
      <trkpt lat="48.27331" lon="-3.56377">
        <ele>121.40000152588</ele>
        <time>2020-10-18T12:24:42.000Z</time>
      </trkpt>
      <trkpt lat="48.27333" lon="-3.56368">
        <ele>121.59999847412</ele>
        <time>2020-10-18T12:24:43.000Z</time>
      </trkpt>
      <trkpt lat="48.27333" lon="-3.56368">
        <ele>121.59999847412</ele>
        <time>2020-10-18T12:24:44.000Z</time>
      </trkpt>
      <trkpt lat="48.27334" lon="-3.56364">
        <ele>121.59999847412</ele>
        <time>2020-10-18T12:24:45.000Z</time>
      </trkpt>
      <trkpt lat="48.27336" lon="-3.56355">
        <ele>121.59999847412</ele>
        <time>2020-10-18T12:24:46.000Z</time>
      </trkpt>
      <trkpt lat="48.27336" lon="-3.56355">
        <ele>121.59999847412</ele>
        <time>2020-10-18T12:24:47.000Z</time>
      </trkpt>
      <trkpt lat="48.27338" lon="-3.56346">
        <ele>121.80000305176</ele>
        <time>2020-10-18T12:24:48.000Z</time>
      </trkpt>
      <trkpt lat="48.27338" lon="-3.56346">
        <ele>121.80000305176</ele>
        <time>2020-10-18T12:24:49.000Z</time>
      </trkpt>
      <trkpt lat="48.2734" lon="-3.56342">
        <ele>122</ele>
        <time>2020-10-18T12:24:50.000Z</time>
      </trkpt>
      <trkpt lat="48.27342" lon="-3.56333">
        <ele>122.19999694824</ele>
        <time>2020-10-18T12:24:51.000Z</time>
      </trkpt>
      <trkpt lat="48.27342" lon="-3.56333">
        <ele>122.19999694824</ele>
        <time>2020-10-18T12:24:52.000Z</time>
      </trkpt>
      <trkpt lat="48.27344" lon="-3.56324">
        <ele>122.59999847412</ele>
        <time>2020-10-18T12:24:53.000Z</time>
      </trkpt>
      <trkpt lat="48.27344" lon="-3.56324">
        <ele>122.59999847412</ele>
        <time>2020-10-18T12:24:54.000Z</time>
      </trkpt>
      <trkpt lat="48.27346" lon="-3.56315">
        <ele>122.80000305176</ele>
        <time>2020-10-18T12:24:55.000Z</time>
      </trkpt>
      <trkpt lat="48.27346" lon="-3.56315">
        <ele>122.80000305176</ele>
        <time>2020-10-18T12:24:56.000Z</time>
      </trkpt>
      <trkpt lat="48.27347" lon="-3.5631">
        <ele>123</ele>
        <time>2020-10-18T12:24:57.000Z</time>
      </trkpt>
      <trkpt lat="48.27349" lon="-3.56301">
        <ele>123.40000152588</ele>
        <time>2020-10-18T12:24:58.000Z</time>
      </trkpt>
      <trkpt lat="48.27349" lon="-3.56301">
        <ele>123.40000152588</ele>
        <time>2020-10-18T12:24:59.000Z</time>
      </trkpt>
      <trkpt lat="48.2735" lon="-3.56296">
        <ele>123.59999847412</ele>
        <time>2020-10-18T12:25:00.000Z</time>
      </trkpt>
      <trkpt lat="48.27351" lon="-3.56287">
        <ele>123.80000305176</ele>
        <time>2020-10-18T12:25:01.000Z</time>
      </trkpt>
      <trkpt lat="48.27351" lon="-3.56287">
        <ele>123.80000305176</ele>
        <time>2020-10-18T12:25:02.000Z</time>
      </trkpt>
      <trkpt lat="48.27353" lon="-3.56278">
        <ele>124.19999694824</ele>
        <time>2020-10-18T12:25:03.000Z</time>
      </trkpt>
      <trkpt lat="48.27354" lon="-3.56274">
        <ele>124.40000152588</ele>
        <time>2020-10-18T12:25:04.000Z</time>
      </trkpt>
      <trkpt lat="48.27354" lon="-3.56274">
        <ele>124.40000152588</ele>
        <time>2020-10-18T12:25:05.000Z</time>
      </trkpt>
      <trkpt lat="48.27355" lon="-3.56269">
        <ele>124.59999847412</ele>
        <time>2020-10-18T12:25:06.000Z</time>
      </trkpt>
      <trkpt lat="48.27357" lon="-3.5626">
        <ele>124.80000305176</ele>
        <time>2020-10-18T12:25:07.000Z</time>
      </trkpt>
      <trkpt lat="48.27357" lon="-3.5626">
        <ele>124.80000305176</ele>
        <time>2020-10-18T12:25:08.000Z</time>
      </trkpt>
      <trkpt lat="48.27357" lon="-3.56255">
        <ele>125</ele>
        <time>2020-10-18T12:25:09.000Z</time>
      </trkpt>
      <trkpt lat="48.27356" lon="-3.56246">
        <ele>125.19999694824</ele>
        <time>2020-10-18T12:25:10.000Z</time>
      </trkpt>
      <trkpt lat="48.27356" lon="-3.56246">
        <ele>125.19999694824</ele>
        <time>2020-10-18T12:25:11.000Z</time>
      </trkpt>
      <trkpt lat="48.27353" lon="-3.56239">
        <ele>125</ele>
        <time>2020-10-18T12:25:12.000Z</time>
      </trkpt>
      <trkpt lat="48.27353" lon="-3.56239">
        <ele>125</ele>
        <time>2020-10-18T12:25:13.000Z</time>
      </trkpt>
      <trkpt lat="48.27352" lon="-3.56236">
        <ele>125</ele>
        <time>2020-10-18T12:25:14.000Z</time>
      </trkpt>
      <trkpt lat="48.27351" lon="-3.56229">
        <ele>125.19999694824</ele>
        <time>2020-10-18T12:25:15.000Z</time>
      </trkpt>
      <trkpt lat="48.27351" lon="-3.56229">
        <ele>125.19999694824</ele>
        <time>2020-10-18T12:25:16.000Z</time>
      </trkpt>
      <trkpt lat="48.27353" lon="-3.56223">
        <ele>125.40000152588</ele>
        <time>2020-10-18T12:25:17.000Z</time>
      </trkpt>
      <trkpt lat="48.27353" lon="-3.56223">
        <ele>125.40000152588</ele>
        <time>2020-10-18T12:25:18.000Z</time>
      </trkpt>
      <trkpt lat="48.27352" lon="-3.56216">
        <ele>125.59999847412</ele>
        <time>2020-10-18T12:25:19.000Z</time>
      </trkpt>
      <trkpt lat="48.27352" lon="-3.56216">
        <ele>125.59999847412</ele>
        <time>2020-10-18T12:25:20.000Z</time>
      </trkpt>
      <trkpt lat="48.27349" lon="-3.56214">
        <ele>125.40000152588</ele>
        <time>2020-10-18T12:25:21.000Z</time>
      </trkpt>
      <trkpt lat="48.27343" lon="-3.5621">
        <ele>125.19999694824</ele>
        <time>2020-10-18T12:25:22.000Z</time>
      </trkpt>
      <trkpt lat="48.27343" lon="-3.5621">
        <ele>125.19999694824</ele>
        <time>2020-10-18T12:25:23.000Z</time>
      </trkpt>
      <trkpt lat="48.27339" lon="-3.56208">
        <ele>125</ele>
        <time>2020-10-18T12:25:24.000Z</time>
      </trkpt>
      <trkpt lat="48.27332" lon="-3.56203">
        <ele>124.80000305176</ele>
        <time>2020-10-18T12:25:25.000Z</time>
      </trkpt>
      <trkpt lat="48.27332" lon="-3.56203">
        <ele>124.80000305176</ele>
        <time>2020-10-18T12:25:26.000Z</time>
      </trkpt>
      <trkpt lat="48.27328" lon="-3.562">
        <ele>124.80000305176</ele>
        <time>2020-10-18T12:25:27.000Z</time>
      </trkpt>
      <trkpt lat="48.27323" lon="-3.56191">
        <ele>124.59999847412</ele>
        <time>2020-10-18T12:25:28.000Z</time>
      </trkpt>
      <trkpt lat="48.27323" lon="-3.56191">
        <ele>124.59999847412</ele>
        <time>2020-10-18T12:25:29.000Z</time>
      </trkpt>
      <trkpt lat="48.27319" lon="-3.56187">
        <ele>124.40000152588</ele>
        <time>2020-10-18T12:25:30.000Z</time>
      </trkpt>
      <trkpt lat="48.27312" lon="-3.56181">
        <ele>124</ele>
        <time>2020-10-18T12:25:31.000Z</time>
      </trkpt>
      <trkpt lat="48.27312" lon="-3.56181">
        <ele>124</ele>
        <time>2020-10-18T12:25:32.000Z</time>
      </trkpt>
      <trkpt lat="48.27308" lon="-3.56179">
        <ele>123.80000305176</ele>
        <time>2020-10-18T12:25:33.000Z</time>
      </trkpt>
      <trkpt lat="48.27304" lon="-3.56177">
        <ele>123.40000152588</ele>
        <time>2020-10-18T12:25:34.000Z</time>
      </trkpt>
      <trkpt lat="48.273" lon="-3.56175">
        <ele>123.19999694824</ele>
        <time>2020-10-18T12:25:35.000Z</time>
      </trkpt>
      <trkpt lat="48.27292" lon="-3.56172">
        <ele>122.80000305176</ele>
        <time>2020-10-18T12:25:36.000Z</time>
      </trkpt>
      <trkpt lat="48.27292" lon="-3.56172">
        <ele>122.80000305176</ele>
        <time>2020-10-18T12:25:37.000Z</time>
      </trkpt>
      <trkpt lat="48.27288" lon="-3.5617">
        <ele>122.59999847412</ele>
        <time>2020-10-18T12:25:38.000Z</time>
      </trkpt>
      <trkpt lat="48.2728" lon="-3.5617">
        <ele>122</ele>
        <time>2020-10-18T12:25:39.000Z</time>
      </trkpt>
      <trkpt lat="48.2728" lon="-3.5617">
        <ele>122</ele>
        <time>2020-10-18T12:25:40.000Z</time>
      </trkpt>
      <trkpt lat="48.27276" lon="-3.56171">
        <ele>121.80000305176</ele>
        <time>2020-10-18T12:25:41.000Z</time>
      </trkpt>
      <trkpt lat="48.27267" lon="-3.56172">
        <ele>121.40000152588</ele>
        <time>2020-10-18T12:25:42.000Z</time>
      </trkpt>
      <trkpt lat="48.27267" lon="-3.56172">
        <ele>121.40000152588</ele>
        <time>2020-10-18T12:25:43.000Z</time>
      </trkpt>
      <trkpt lat="48.27258" lon="-3.56172">
        <ele>121.19999694824</ele>
        <time>2020-10-18T12:25:44.000Z</time>
      </trkpt>
      <trkpt lat="48.27258" lon="-3.56172">
        <ele>121.19999694824</ele>
        <time>2020-10-18T12:25:45.000Z</time>
      </trkpt>
      <trkpt lat="48.27255" lon="-3.56172">
        <ele>121.19999694824</ele>
        <time>2020-10-18T12:25:46.000Z</time>
      </trkpt>
      <trkpt lat="48.2725" lon="-3.56171">
        <ele>121.19999694824</ele>
        <time>2020-10-18T12:25:47.000Z</time>
      </trkpt>
      <trkpt lat="48.2725" lon="-3.56171">
        <ele>121.19999694824</ele>
        <time>2020-10-18T12:25:48.000Z</time>
      </trkpt>
      <trkpt lat="48.27244" lon="-3.56173">
        <ele>121.19999694824</ele>
        <time>2020-10-18T12:25:49.000Z</time>
      </trkpt>
      <trkpt lat="48.27244" lon="-3.56173">
        <ele>121.19999694824</ele>
        <time>2020-10-18T12:25:50.000Z</time>
      </trkpt>
      <trkpt lat="48.27241" lon="-3.56174">
        <ele>121.19999694824</ele>
        <time>2020-10-18T12:25:51.000Z</time>
      </trkpt>
      <trkpt lat="48.27234" lon="-3.56176">
        <ele>121</ele>
        <time>2020-10-18T12:25:52.000Z</time>
      </trkpt>
      <trkpt lat="48.27234" lon="-3.56176">
        <ele>121</ele>
        <time>2020-10-18T12:25:53.000Z</time>
      </trkpt>
      <trkpt lat="48.27228" lon="-3.56177">
        <ele>121</ele>
        <time>2020-10-18T12:25:54.000Z</time>
      </trkpt>
      <trkpt lat="48.27228" lon="-3.56177">
        <ele>121</ele>
        <time>2020-10-18T12:25:55.000Z</time>
      </trkpt>
      <trkpt lat="48.27224" lon="-3.56177">
        <ele>121</ele>
        <time>2020-10-18T12:25:56.000Z</time>
      </trkpt>
      <trkpt lat="48.27216" lon="-3.56179">
        <ele>121</ele>
        <time>2020-10-18T12:25:57.000Z</time>
      </trkpt>
      <trkpt lat="48.27216" lon="-3.56179">
        <ele>121</ele>
        <time>2020-10-18T12:25:58.000Z</time>
      </trkpt>
      <trkpt lat="48.27208" lon="-3.56181">
        <ele>121</ele>
        <time>2020-10-18T12:25:59.000Z</time>
      </trkpt>
      <trkpt lat="48.27208" lon="-3.56181">
        <ele>121</ele>
        <time>2020-10-18T12:26:00.000Z</time>
      </trkpt>
      <trkpt lat="48.272" lon="-3.56182">
        <ele>121</ele>
        <time>2020-10-18T12:26:01.000Z</time>
      </trkpt>
      <trkpt lat="48.27196" lon="-3.56183">
        <ele>121</ele>
        <time>2020-10-18T12:26:02.000Z</time>
      </trkpt>
      <trkpt lat="48.27196" lon="-3.56183">
        <ele>121</ele>
        <time>2020-10-18T12:26:03.000Z</time>
      </trkpt>
      <trkpt lat="48.27188" lon="-3.56186">
        <ele>121</ele>
        <time>2020-10-18T12:26:04.000Z</time>
      </trkpt>
      <trkpt lat="48.27188" lon="-3.56186">
        <ele>121</ele>
        <time>2020-10-18T12:26:05.000Z</time>
      </trkpt>
      <trkpt lat="48.27178" lon="-3.56189">
        <ele>121</ele>
        <time>2020-10-18T12:26:06.000Z</time>
      </trkpt>
      <trkpt lat="48.27178" lon="-3.56189">
        <ele>121</ele>
        <time>2020-10-18T12:26:07.000Z</time>
      </trkpt>
      <trkpt lat="48.27173" lon="-3.56191">
        <ele>121.19999694824</ele>
        <time>2020-10-18T12:26:08.000Z</time>
      </trkpt>
      <trkpt lat="48.27163" lon="-3.56193">
        <ele>121.40000152588</ele>
        <time>2020-10-18T12:26:09.000Z</time>
      </trkpt>
      <trkpt lat="48.27163" lon="-3.56193">
        <ele>121.40000152588</ele>
        <time>2020-10-18T12:26:10.000Z</time>
      </trkpt>
      <trkpt lat="48.27158" lon="-3.56195">
        <ele>121.59999847412</ele>
        <time>2020-10-18T12:26:11.000Z</time>
      </trkpt>
      <trkpt lat="48.27148" lon="-3.56198">
        <ele>121.80000305176</ele>
        <time>2020-10-18T12:26:12.000Z</time>
      </trkpt>
      <trkpt lat="48.27148" lon="-3.56198">
        <ele>121.80000305176</ele>
        <time>2020-10-18T12:26:13.000Z</time>
      </trkpt>
      <trkpt lat="48.27141" lon="-3.562">
        <ele>122</ele>
        <time>2020-10-18T12:26:14.000Z</time>
      </trkpt>
      <trkpt lat="48.27129" lon="-3.56205">
        <ele>122.19999694824</ele>
        <time>2020-10-18T12:26:15.000Z</time>
      </trkpt>
      <trkpt lat="48.27129" lon="-3.56205">
        <ele>122.19999694824</ele>
        <time>2020-10-18T12:26:16.000Z</time>
      </trkpt>
      <trkpt lat="48.27123" lon="-3.56207">
        <ele>122.40000152588</ele>
        <time>2020-10-18T12:26:17.000Z</time>
      </trkpt>
      <trkpt lat="48.27111" lon="-3.56214">
        <ele>122.59999847412</ele>
        <time>2020-10-18T12:26:18.000Z</time>
      </trkpt>
      <trkpt lat="48.27111" lon="-3.56214">
        <ele>122.59999847412</ele>
        <time>2020-10-18T12:26:19.000Z</time>
      </trkpt>
      <trkpt lat="48.27105" lon="-3.56217">
        <ele>122.80000305176</ele>
        <time>2020-10-18T12:26:20.000Z</time>
      </trkpt>
      <trkpt lat="48.27095" lon="-3.56223">
        <ele>123</ele>
        <time>2020-10-18T12:26:21.000Z</time>
      </trkpt>
      <trkpt lat="48.27095" lon="-3.56223">
        <ele>123</ele>
        <time>2020-10-18T12:26:22.000Z</time>
      </trkpt>
      <trkpt lat="48.2709" lon="-3.56226">
        <ele>123</ele>
        <time>2020-10-18T12:26:23.000Z</time>
      </trkpt>
      <trkpt lat="48.2708" lon="-3.56232">
        <ele>123.19999694824</ele>
        <time>2020-10-18T12:26:24.000Z</time>
      </trkpt>
      <trkpt lat="48.2708" lon="-3.56232">
        <ele>123.19999694824</ele>
        <time>2020-10-18T12:26:25.000Z</time>
      </trkpt>
      <trkpt lat="48.27076" lon="-3.56234">
        <ele>123.19999694824</ele>
        <time>2020-10-18T12:26:26.000Z</time>
      </trkpt>
      <trkpt lat="48.27068" lon="-3.56239">
        <ele>123.40000152588</ele>
        <time>2020-10-18T12:26:27.000Z</time>
      </trkpt>
      <trkpt lat="48.27068" lon="-3.56239">
        <ele>123.40000152588</ele>
        <time>2020-10-18T12:26:28.000Z</time>
      </trkpt>
      <trkpt lat="48.27065" lon="-3.5624">
        <ele>123.40000152588</ele>
        <time>2020-10-18T12:26:29.000Z</time>
      </trkpt>
      <trkpt lat="48.2706" lon="-3.56241">
        <ele>123.40000152588</ele>
        <time>2020-10-18T12:26:30.000Z</time>
      </trkpt>
      <trkpt lat="48.2706" lon="-3.56241">
        <ele>123.40000152588</ele>
        <time>2020-10-18T12:26:31.000Z</time>
      </trkpt>
      <trkpt lat="48.27058" lon="-3.56243">
        <ele>123.40000152588</ele>
        <time>2020-10-18T12:26:32.000Z</time>
      </trkpt>
      <trkpt lat="48.27054" lon="-3.56246">
        <ele>123.59999847412</ele>
        <time>2020-10-18T12:26:33.000Z</time>
      </trkpt>
      <trkpt lat="48.27054" lon="-3.56246">
        <ele>123.59999847412</ele>
        <time>2020-10-18T12:26:34.000Z</time>
      </trkpt>
      <trkpt lat="48.27052" lon="-3.56247">
        <ele>123.59999847412</ele>
        <time>2020-10-18T12:26:35.000Z</time>
      </trkpt>
      <trkpt lat="48.27049" lon="-3.56248">
        <ele>123.59999847412</ele>
        <time>2020-10-18T12:26:36.000Z</time>
      </trkpt>
      <trkpt lat="48.27049" lon="-3.56248">
        <ele>123.59999847412</ele>
        <time>2020-10-18T12:26:37.000Z</time>
      </trkpt>
      <trkpt lat="48.27047" lon="-3.56249">
        <ele>123.59999847412</ele>
        <time>2020-10-18T12:26:38.000Z</time>
      </trkpt>
      <trkpt lat="48.27044" lon="-3.56251">
        <ele>123.59999847412</ele>
        <time>2020-10-18T12:26:39.000Z</time>
      </trkpt>
      <trkpt lat="48.27044" lon="-3.56251">
        <ele>123.59999847412</ele>
        <time>2020-10-18T12:26:40.000Z</time>
      </trkpt>
      <trkpt lat="48.27042" lon="-3.56251">
        <ele>123.59999847412</ele>
        <time>2020-10-18T12:26:41.000Z</time>
      </trkpt>
      <trkpt lat="48.27039" lon="-3.56254">
        <ele>123.59999847412</ele>
        <time>2020-10-18T12:26:42.000Z</time>
      </trkpt>
      <trkpt lat="48.27036" lon="-3.56255">
        <ele>123.80000305176</ele>
        <time>2020-10-18T12:26:43.000Z</time>
      </trkpt>
      <trkpt lat="48.27036" lon="-3.56255">
        <ele>123.80000305176</ele>
        <time>2020-10-18T12:26:44.000Z</time>
      </trkpt>
      <trkpt lat="48.27032" lon="-3.56256">
        <ele>123.80000305176</ele>
        <time>2020-10-18T12:26:45.000Z</time>
      </trkpt>
      <trkpt lat="48.27024" lon="-3.56259">
        <ele>123.80000305176</ele>
        <time>2020-10-18T12:26:46.000Z</time>
      </trkpt>
      <trkpt lat="48.27024" lon="-3.56259">
        <ele>123.80000305176</ele>
        <time>2020-10-18T12:26:47.000Z</time>
      </trkpt>
      <trkpt lat="48.27017" lon="-3.56263">
        <ele>124</ele>
        <time>2020-10-18T12:26:48.000Z</time>
      </trkpt>
      <trkpt lat="48.27017" lon="-3.56263">
        <ele>124</ele>
        <time>2020-10-18T12:26:49.000Z</time>
      </trkpt>
      <trkpt lat="48.27013" lon="-3.56266">
        <ele>124</ele>
        <time>2020-10-18T12:26:50.000Z</time>
      </trkpt>
      <trkpt lat="48.27006" lon="-3.56272">
        <ele>124</ele>
        <time>2020-10-18T12:26:51.000Z</time>
      </trkpt>
      <trkpt lat="48.27006" lon="-3.56272">
        <ele>124</ele>
        <time>2020-10-18T12:26:52.000Z</time>
      </trkpt>
      <trkpt lat="48.26999" lon="-3.56277">
        <ele>123.80000305176</ele>
        <time>2020-10-18T12:26:53.000Z</time>
      </trkpt>
      <trkpt lat="48.26999" lon="-3.56277">
        <ele>123.80000305176</ele>
        <time>2020-10-18T12:26:54.000Z</time>
      </trkpt>
      <trkpt lat="48.26995" lon="-3.5628">
        <ele>123.80000305176</ele>
        <time>2020-10-18T12:26:55.000Z</time>
      </trkpt>
      <trkpt lat="48.26987" lon="-3.56285">
        <ele>123.80000305176</ele>
        <time>2020-10-18T12:26:56.000Z</time>
      </trkpt>
      <trkpt lat="48.26987" lon="-3.56285">
        <ele>123.80000305176</ele>
        <time>2020-10-18T12:26:57.000Z</time>
      </trkpt>
      <trkpt lat="48.26983" lon="-3.56288">
        <ele>123.80000305176</ele>
        <time>2020-10-18T12:26:58.000Z</time>
      </trkpt>
      <trkpt lat="48.26974" lon="-3.56293">
        <ele>123.59999847412</ele>
        <time>2020-10-18T12:26:59.000Z</time>
      </trkpt>
      <trkpt lat="48.26974" lon="-3.56293">
        <ele>123.59999847412</ele>
        <time>2020-10-18T12:27:00.000Z</time>
      </trkpt>
      <trkpt lat="48.2697" lon="-3.56295">
        <ele>123.59999847412</ele>
        <time>2020-10-18T12:27:01.000Z</time>
      </trkpt>
      <trkpt lat="48.26961" lon="-3.56299">
        <ele>123.59999847412</ele>
        <time>2020-10-18T12:27:02.000Z</time>
      </trkpt>
      <trkpt lat="48.26957" lon="-3.56302">
        <ele>123.59999847412</ele>
        <time>2020-10-18T12:27:03.000Z</time>
      </trkpt>
      <trkpt lat="48.26957" lon="-3.56302">
        <ele>123.59999847412</ele>
        <time>2020-10-18T12:27:04.000Z</time>
      </trkpt>
      <trkpt lat="48.26953" lon="-3.56304">
        <ele>123.59999847412</ele>
        <time>2020-10-18T12:27:05.000Z</time>
      </trkpt>
      <trkpt lat="48.26945" lon="-3.5631">
        <ele>123.40000152588</ele>
        <time>2020-10-18T12:27:06.000Z</time>
      </trkpt>
      <trkpt lat="48.26945" lon="-3.5631">
        <ele>123.40000152588</ele>
        <time>2020-10-18T12:27:07.000Z</time>
      </trkpt>
      <trkpt lat="48.2694" lon="-3.56312">
        <ele>123.40000152588</ele>
        <time>2020-10-18T12:27:08.000Z</time>
      </trkpt>
      <trkpt lat="48.26932" lon="-3.56317">
        <ele>123.40000152588</ele>
        <time>2020-10-18T12:27:09.000Z</time>
      </trkpt>
      <trkpt lat="48.26932" lon="-3.56317">
        <ele>123.40000152588</ele>
        <time>2020-10-18T12:27:10.000Z</time>
      </trkpt>
      <trkpt lat="48.26928" lon="-3.5632">
        <ele>123.40000152588</ele>
        <time>2020-10-18T12:27:11.000Z</time>
      </trkpt>
      <trkpt lat="48.2692" lon="-3.56326">
        <ele>123.40000152588</ele>
        <time>2020-10-18T12:27:12.000Z</time>
      </trkpt>
      <trkpt lat="48.2692" lon="-3.56326">
        <ele>123.40000152588</ele>
        <time>2020-10-18T12:27:13.000Z</time>
      </trkpt>
      <trkpt lat="48.26916" lon="-3.5633">
        <ele>123.40000152588</ele>
        <time>2020-10-18T12:27:14.000Z</time>
      </trkpt>
      <trkpt lat="48.26906" lon="-3.56336">
        <ele>123.40000152588</ele>
        <time>2020-10-18T12:27:15.000Z</time>
      </trkpt>
      <trkpt lat="48.26906" lon="-3.56336">
        <ele>123.40000152588</ele>
        <time>2020-10-18T12:27:16.000Z</time>
      </trkpt>
      <trkpt lat="48.269" lon="-3.56339">
        <ele>123.40000152588</ele>
        <time>2020-10-18T12:27:17.000Z</time>
      </trkpt>
      <trkpt lat="48.2689" lon="-3.56343">
        <ele>123.59999847412</ele>
        <time>2020-10-18T12:27:18.000Z</time>
      </trkpt>
      <trkpt lat="48.2689" lon="-3.56343">
        <ele>123.59999847412</ele>
        <time>2020-10-18T12:27:19.000Z</time>
      </trkpt>
      <trkpt lat="48.26885" lon="-3.56346">
        <ele>123.59999847412</ele>
        <time>2020-10-18T12:27:20.000Z</time>
      </trkpt>
      <trkpt lat="48.26876" lon="-3.56353">
        <ele>123.59999847412</ele>
        <time>2020-10-18T12:27:21.000Z</time>
      </trkpt>
      <trkpt lat="48.26871" lon="-3.56356">
        <ele>123.59999847412</ele>
        <time>2020-10-18T12:27:22.000Z</time>
      </trkpt>
      <trkpt lat="48.26871" lon="-3.56356">
        <ele>123.59999847412</ele>
        <time>2020-10-18T12:27:23.000Z</time>
      </trkpt>
      <trkpt lat="48.26865" lon="-3.56359">
        <ele>123.40000152588</ele>
        <time>2020-10-18T12:27:24.000Z</time>
      </trkpt>
      <trkpt lat="48.26854" lon="-3.56363">
        <ele>123.40000152588</ele>
        <time>2020-10-18T12:27:25.000Z</time>
      </trkpt>
      <trkpt lat="48.26854" lon="-3.56363">
        <ele>123.40000152588</ele>
        <time>2020-10-18T12:27:26.000Z</time>
      </trkpt>
      <trkpt lat="48.26849" lon="-3.56366">
        <ele>123.40000152588</ele>
        <time>2020-10-18T12:27:27.000Z</time>
      </trkpt>
      <trkpt lat="48.2684" lon="-3.56371">
        <ele>123.19999694824</ele>
        <time>2020-10-18T12:27:28.000Z</time>
      </trkpt>
      <trkpt lat="48.2684" lon="-3.56371">
        <ele>123.19999694824</ele>
        <time>2020-10-18T12:27:29.000Z</time>
      </trkpt>
      <trkpt lat="48.26836" lon="-3.56373">
        <ele>123.19999694824</ele>
        <time>2020-10-18T12:27:30.000Z</time>
      </trkpt>
      <trkpt lat="48.26826" lon="-3.56378">
        <ele>123</ele>
        <time>2020-10-18T12:27:31.000Z</time>
      </trkpt>
      <trkpt lat="48.26826" lon="-3.56378">
        <ele>123</ele>
        <time>2020-10-18T12:27:32.000Z</time>
      </trkpt>
      <trkpt lat="48.26821" lon="-3.56381">
        <ele>123</ele>
        <time>2020-10-18T12:27:33.000Z</time>
      </trkpt>
      <trkpt lat="48.2681" lon="-3.56389">
        <ele>122.59999847412</ele>
        <time>2020-10-18T12:27:34.000Z</time>
      </trkpt>
      <trkpt lat="48.2681" lon="-3.56389">
        <ele>122.59999847412</ele>
        <time>2020-10-18T12:27:35.000Z</time>
      </trkpt>
      <trkpt lat="48.26805" lon="-3.56392">
        <ele>122.59999847412</ele>
        <time>2020-10-18T12:27:36.000Z</time>
      </trkpt>
      <trkpt lat="48.26795" lon="-3.564">
        <ele>122.19999694824</ele>
        <time>2020-10-18T12:27:37.000Z</time>
      </trkpt>
      <trkpt lat="48.26795" lon="-3.564">
        <ele>122.19999694824</ele>
        <time>2020-10-18T12:27:38.000Z</time>
      </trkpt>
      <trkpt lat="48.2679" lon="-3.56403">
        <ele>122</ele>
        <time>2020-10-18T12:27:39.000Z</time>
      </trkpt>
      <trkpt lat="48.26781" lon="-3.56411">
        <ele>121.80000305176</ele>
        <time>2020-10-18T12:27:40.000Z</time>
      </trkpt>
      <trkpt lat="48.26781" lon="-3.56411">
        <ele>121.80000305176</ele>
        <time>2020-10-18T12:27:41.000Z</time>
      </trkpt>
      <trkpt lat="48.26777" lon="-3.56416">
        <ele>121.59999847412</ele>
        <time>2020-10-18T12:27:42.000Z</time>
      </trkpt>
      <trkpt lat="48.26768" lon="-3.56424">
        <ele>121.40000152588</ele>
        <time>2020-10-18T12:27:43.000Z</time>
      </trkpt>
      <trkpt lat="48.26768" lon="-3.56424">
        <ele>121.40000152588</ele>
        <time>2020-10-18T12:27:44.000Z</time>
      </trkpt>
      <trkpt lat="48.26764" lon="-3.56429">
        <ele>121.19999694824</ele>
        <time>2020-10-18T12:27:45.000Z</time>
      </trkpt>
      <trkpt lat="48.26755" lon="-3.56438">
        <ele>121.19999694824</ele>
        <time>2020-10-18T12:27:46.000Z</time>
      </trkpt>
      <trkpt lat="48.26751" lon="-3.56443">
        <ele>121.19999694824</ele>
        <time>2020-10-18T12:27:47.000Z</time>
      </trkpt>
      <trkpt lat="48.26747" lon="-3.56447">
        <ele>121.40000152588</ele>
        <time>2020-10-18T12:27:48.000Z</time>
      </trkpt>
      <trkpt lat="48.26747" lon="-3.56447">
        <ele>121.40000152588</ele>
        <time>2020-10-18T12:27:49.000Z</time>
      </trkpt>
      <trkpt lat="48.26742" lon="-3.56452">
        <ele>121.40000152588</ele>
        <time>2020-10-18T12:27:50.000Z</time>
      </trkpt>
      <trkpt lat="48.26735" lon="-3.56464">
        <ele>121.59999847412</ele>
        <time>2020-10-18T12:27:51.000Z</time>
      </trkpt>
      <trkpt lat="48.26735" lon="-3.56464">
        <ele>121.59999847412</ele>
        <time>2020-10-18T12:27:52.000Z</time>
      </trkpt>
      <trkpt lat="48.26728" lon="-3.56475">
        <ele>121.80000305176</ele>
        <time>2020-10-18T12:27:53.000Z</time>
      </trkpt>
      <trkpt lat="48.26728" lon="-3.56475">
        <ele>121.80000305176</ele>
        <time>2020-10-18T12:27:54.000Z</time>
      </trkpt>
      <trkpt lat="48.26725" lon="-3.5648">
        <ele>122</ele>
        <time>2020-10-18T12:27:55.000Z</time>
      </trkpt>
      <trkpt lat="48.26718" lon="-3.56489">
        <ele>122</ele>
        <time>2020-10-18T12:27:56.000Z</time>
      </trkpt>
      <trkpt lat="48.26718" lon="-3.56489">
        <ele>122</ele>
        <time>2020-10-18T12:27:57.000Z</time>
      </trkpt>
      <trkpt lat="48.26714" lon="-3.56494">
        <ele>122.19999694824</ele>
        <time>2020-10-18T12:27:58.000Z</time>
      </trkpt>
      <trkpt lat="48.26708" lon="-3.56505">
        <ele>122.40000152588</ele>
        <time>2020-10-18T12:27:59.000Z</time>
      </trkpt>
      <trkpt lat="48.26708" lon="-3.56505">
        <ele>122.40000152588</ele>
        <time>2020-10-18T12:28:00.000Z</time>
      </trkpt>
      <trkpt lat="48.26704" lon="-3.56511">
        <ele>122.40000152588</ele>
        <time>2020-10-18T12:28:01.000Z</time>
      </trkpt>
      <trkpt lat="48.26697" lon="-3.56523">
        <ele>122.59999847412</ele>
        <time>2020-10-18T12:28:02.000Z</time>
      </trkpt>
      <trkpt lat="48.26697" lon="-3.56523">
        <ele>122.59999847412</ele>
        <time>2020-10-18T12:28:03.000Z</time>
      </trkpt>
      <trkpt lat="48.26695" lon="-3.56528">
        <ele>122.59999847412</ele>
        <time>2020-10-18T12:28:04.000Z</time>
      </trkpt>
      <trkpt lat="48.26689" lon="-3.56541">
        <ele>122.80000305176</ele>
        <time>2020-10-18T12:28:05.000Z</time>
      </trkpt>
      <trkpt lat="48.26689" lon="-3.56541">
        <ele>122.80000305176</ele>
        <time>2020-10-18T12:28:06.000Z</time>
      </trkpt>
      <trkpt lat="48.26683" lon="-3.56554">
        <ele>123</ele>
        <time>2020-10-18T12:28:07.000Z</time>
      </trkpt>
      <trkpt lat="48.26683" lon="-3.56554">
        <ele>123</ele>
        <time>2020-10-18T12:28:08.000Z</time>
      </trkpt>
      <trkpt lat="48.26681" lon="-3.5656">
        <ele>123</ele>
        <time>2020-10-18T12:28:09.000Z</time>
      </trkpt>
      <trkpt lat="48.26676" lon="-3.56572">
        <ele>123.19999694824</ele>
        <time>2020-10-18T12:28:10.000Z</time>
      </trkpt>
      <trkpt lat="48.26676" lon="-3.56572">
        <ele>123.19999694824</ele>
        <time>2020-10-18T12:28:11.000Z</time>
      </trkpt>
      <trkpt lat="48.26674" lon="-3.56579">
        <ele>123.19999694824</ele>
        <time>2020-10-18T12:28:12.000Z</time>
      </trkpt>
      <trkpt lat="48.26671" lon="-3.56591">
        <ele>123.40000152588</ele>
        <time>2020-10-18T12:28:13.000Z</time>
      </trkpt>
      <trkpt lat="48.26671" lon="-3.56591">
        <ele>123.40000152588</ele>
        <time>2020-10-18T12:28:14.000Z</time>
      </trkpt>
      <trkpt lat="48.26669" lon="-3.56598">
        <ele>123.40000152588</ele>
        <time>2020-10-18T12:28:15.000Z</time>
      </trkpt>
      <trkpt lat="48.26668" lon="-3.56605">
        <ele>123.40000152588</ele>
        <time>2020-10-18T12:28:16.000Z</time>
      </trkpt>
      <trkpt lat="48.26665" lon="-3.56618">
        <ele>123.40000152588</ele>
        <time>2020-10-18T12:28:17.000Z</time>
      </trkpt>
      <trkpt lat="48.26665" lon="-3.56618">
        <ele>123.40000152588</ele>
        <time>2020-10-18T12:28:18.000Z</time>
      </trkpt>
      <trkpt lat="48.26664" lon="-3.56624">
        <ele>123.40000152588</ele>
        <time>2020-10-18T12:28:19.000Z</time>
      </trkpt>
      <trkpt lat="48.26661" lon="-3.56636">
        <ele>123.59999847412</ele>
        <time>2020-10-18T12:28:20.000Z</time>
      </trkpt>
      <trkpt lat="48.26659" lon="-3.56642">
        <ele>123.80000305176</ele>
        <time>2020-10-18T12:28:21.000Z</time>
      </trkpt>
      <trkpt lat="48.26659" lon="-3.56642">
        <ele>123.80000305176</ele>
        <time>2020-10-18T12:28:22.000Z</time>
      </trkpt>
      <trkpt lat="48.26657" lon="-3.56647">
        <ele>123.80000305176</ele>
        <time>2020-10-18T12:28:23.000Z</time>
      </trkpt>
      <trkpt lat="48.26654" lon="-3.56657">
        <ele>124</ele>
        <time>2020-10-18T12:28:24.000Z</time>
      </trkpt>
      <trkpt lat="48.26654" lon="-3.56657">
        <ele>124</ele>
        <time>2020-10-18T12:28:25.000Z</time>
      </trkpt>
      <trkpt lat="48.26652" lon="-3.56662">
        <ele>124</ele>
        <time>2020-10-18T12:28:26.000Z</time>
      </trkpt>
      <trkpt lat="48.26649" lon="-3.56671">
        <ele>124.19999694824</ele>
        <time>2020-10-18T12:28:27.000Z</time>
      </trkpt>
      <trkpt lat="48.26649" lon="-3.56671">
        <ele>124.19999694824</ele>
        <time>2020-10-18T12:28:28.000Z</time>
      </trkpt>
      <trkpt lat="48.26648" lon="-3.56676">
        <ele>124.19999694824</ele>
        <time>2020-10-18T12:28:29.000Z</time>
      </trkpt>
      <trkpt lat="48.26645" lon="-3.56686">
        <ele>124.40000152588</ele>
        <time>2020-10-18T12:28:30.000Z</time>
      </trkpt>
      <trkpt lat="48.26645" lon="-3.56686">
        <ele>124.40000152588</ele>
        <time>2020-10-18T12:28:31.000Z</time>
      </trkpt>
      <trkpt lat="48.26643" lon="-3.56691">
        <ele>124.59999847412</ele>
        <time>2020-10-18T12:28:32.000Z</time>
      </trkpt>
      <trkpt lat="48.2664" lon="-3.567">
        <ele>124.80000305176</ele>
        <time>2020-10-18T12:28:33.000Z</time>
      </trkpt>
      <trkpt lat="48.2664" lon="-3.567">
        <ele>124.80000305176</ele>
        <time>2020-10-18T12:28:34.000Z</time>
      </trkpt>
      <trkpt lat="48.26639" lon="-3.56705">
        <ele>125</ele>
        <time>2020-10-18T12:28:35.000Z</time>
      </trkpt>
      <trkpt lat="48.26638" lon="-3.56716">
        <ele>125.19999694824</ele>
        <time>2020-10-18T12:28:36.000Z</time>
      </trkpt>
      <trkpt lat="48.26638" lon="-3.56716">
        <ele>125.19999694824</ele>
        <time>2020-10-18T12:28:37.000Z</time>
      </trkpt>
      <trkpt lat="48.26637" lon="-3.56721">
        <ele>125.40000152588</ele>
        <time>2020-10-18T12:28:38.000Z</time>
      </trkpt>
      <trkpt lat="48.26634" lon="-3.56729">
        <ele>125.59999847412</ele>
        <time>2020-10-18T12:28:39.000Z</time>
      </trkpt>
      <trkpt lat="48.26634" lon="-3.56729">
        <ele>125.59999847412</ele>
        <time>2020-10-18T12:28:40.000Z</time>
      </trkpt>
      <trkpt lat="48.26633" lon="-3.56732">
        <ele>125.80000305176</ele>
        <time>2020-10-18T12:28:41.000Z</time>
      </trkpt>
      <trkpt lat="48.26633" lon="-3.56738">
        <ele>126</ele>
        <time>2020-10-18T12:28:42.000Z</time>
      </trkpt>
      <trkpt lat="48.26633" lon="-3.56738">
        <ele>126</ele>
        <time>2020-10-18T12:28:43.000Z</time>
      </trkpt>
      <trkpt lat="48.26633" lon="-3.56741">
        <ele>126</ele>
        <time>2020-10-18T12:28:44.000Z</time>
      </trkpt>
      <trkpt lat="48.26632" lon="-3.56744">
        <ele>126.19999694824</ele>
        <time>2020-10-18T12:28:45.000Z</time>
      </trkpt>
      <trkpt lat="48.26632" lon="-3.56744">
        <ele>126.19999694824</ele>
        <time>2020-10-18T12:28:46.000Z</time>
      </trkpt>
      <trkpt lat="48.26632" lon="-3.56744">
        <ele>126.19999694824</ele>
        <time>2020-10-18T12:28:47.000Z</time>
      </trkpt>
      <trkpt lat="48.26632" lon="-3.56745">
        <ele>126.19999694824</ele>
        <time>2020-10-18T12:28:48.000Z</time>
      </trkpt>
      <trkpt lat="48.26633" lon="-3.56745">
        <ele>126.19999694824</ele>
        <time>2020-10-18T12:28:49.000Z</time>
      </trkpt>
      <trkpt lat="48.26633" lon="-3.56745">
        <ele>126.19999694824</ele>
        <time>2020-10-18T12:28:50.000Z</time>
      </trkpt>
      <trkpt lat="48.26633" lon="-3.56745">
        <ele>126.19999694824</ele>
        <time>2020-10-18T12:28:51.000Z</time>
      </trkpt>
      <trkpt lat="48.26633" lon="-3.56745">
        <ele>126.19999694824</ele>
        <time>2020-10-18T12:28:52.000Z</time>
      </trkpt>
      <trkpt lat="48.26633" lon="-3.56745">
        <ele>126.19999694824</ele>
        <time>2020-10-18T12:28:53.000Z</time>
      </trkpt>
      <trkpt lat="48.26633" lon="-3.56745">
        <ele>126.19999694824</ele>
        <time>2020-10-18T12:28:54.000Z</time>
      </trkpt>
      <trkpt lat="48.26633" lon="-3.56745">
        <ele>126.19999694824</ele>
        <time>2020-10-18T12:28:55.000Z</time>
      </trkpt>
      <trkpt lat="48.26633" lon="-3.56745">
        <ele>126.19999694824</ele>
        <time>2020-10-18T12:28:56.000Z</time>
      </trkpt>
      <trkpt lat="48.26633" lon="-3.56745">
        <ele>126.19999694824</ele>
        <time>2020-10-18T12:28:57.000Z</time>
      </trkpt>
      <trkpt lat="48.26633" lon="-3.56745">
        <ele>126.19999694824</ele>
        <time>2020-10-18T12:28:58.000Z</time>
      </trkpt>
      <trkpt lat="48.26633" lon="-3.56745">
        <ele>126.19999694824</ele>
        <time>2020-10-18T12:28:59.000Z</time>
      </trkpt>
      <trkpt lat="48.26633" lon="-3.56745">
        <ele>126.19999694824</ele>
        <time>2020-10-18T12:29:00.000Z</time>
      </trkpt>
      <trkpt lat="48.26633" lon="-3.56745">
        <ele>126.19999694824</ele>
        <time>2020-10-18T12:29:01.000Z</time>
      </trkpt>
      <trkpt lat="48.26633" lon="-3.56745">
        <ele>126.19999694824</ele>
        <time>2020-10-18T12:29:02.000Z</time>
      </trkpt>
      <trkpt lat="48.26633" lon="-3.56745">
        <ele>126.19999694824</ele>
        <time>2020-10-18T12:29:03.000Z</time>
      </trkpt>
      <trkpt lat="48.26633" lon="-3.56745">
        <ele>126.19999694824</ele>
        <time>2020-10-18T12:29:04.000Z</time>
      </trkpt>
      <trkpt lat="48.26633" lon="-3.56745">
        <ele>126.19999694824</ele>
        <time>2020-10-18T12:29:05.000Z</time>
      </trkpt>
      <trkpt lat="48.26633" lon="-3.56745">
        <ele>126.19999694824</ele>
        <time>2020-10-18T12:29:06.000Z</time>
      </trkpt>
      <trkpt lat="48.26633" lon="-3.56745">
        <ele>126.19999694824</ele>
        <time>2020-10-18T12:29:07.000Z</time>
      </trkpt>
      <trkpt lat="48.26633" lon="-3.56745">
        <ele>126.19999694824</ele>
        <time>2020-10-18T12:29:08.000Z</time>
      </trkpt>
      <trkpt lat="48.26633" lon="-3.56745">
        <ele>126.19999694824</ele>
        <time>2020-10-18T12:29:09.000Z</time>
      </trkpt>
      <trkpt lat="48.26633" lon="-3.56745">
        <ele>126.19999694824</ele>
        <time>2020-10-18T12:29:10.000Z</time>
      </trkpt>
      <trkpt lat="48.26632" lon="-3.56746">
        <ele>126.19999694824</ele>
        <time>2020-10-18T12:29:11.000Z</time>
      </trkpt>
      <trkpt lat="48.26631" lon="-3.56751">
        <ele>126.40000152588</ele>
        <time>2020-10-18T12:29:12.000Z</time>
      </trkpt>
      <trkpt lat="48.26631" lon="-3.56751">
        <ele>126.40000152588</ele>
        <time>2020-10-18T12:29:13.000Z</time>
      </trkpt>
      <trkpt lat="48.2663" lon="-3.56754">
        <ele>126.40000152588</ele>
        <time>2020-10-18T12:29:14.000Z</time>
      </trkpt>
      <trkpt lat="48.26629" lon="-3.5676">
        <ele>126.80000305176</ele>
        <time>2020-10-18T12:29:15.000Z</time>
      </trkpt>
      <trkpt lat="48.26629" lon="-3.5676">
        <ele>126.80000305176</ele>
        <time>2020-10-18T12:29:16.000Z</time>
      </trkpt>
      <trkpt lat="48.26628" lon="-3.56763">
        <ele>126.80000305176</ele>
        <time>2020-10-18T12:29:17.000Z</time>
      </trkpt>
      <trkpt lat="48.26624" lon="-3.56769">
        <ele>127</ele>
        <time>2020-10-18T12:29:18.000Z</time>
      </trkpt>
      <trkpt lat="48.26624" lon="-3.56769">
        <ele>127</ele>
        <time>2020-10-18T12:29:19.000Z</time>
      </trkpt>
      <trkpt lat="48.26623" lon="-3.56777">
        <ele>127.40000152588</ele>
        <time>2020-10-18T12:29:20.000Z</time>
      </trkpt>
      <trkpt lat="48.26623" lon="-3.56777">
        <ele>127.40000152588</ele>
        <time>2020-10-18T12:29:21.000Z</time>
      </trkpt>
      <trkpt lat="48.26623" lon="-3.56781">
        <ele>127.40000152588</ele>
        <time>2020-10-18T12:29:22.000Z</time>
      </trkpt>
      <trkpt lat="48.26621" lon="-3.5679">
        <ele>127.80000305176</ele>
        <time>2020-10-18T12:29:23.000Z</time>
      </trkpt>
      <trkpt lat="48.26621" lon="-3.5679">
        <ele>127.80000305176</ele>
        <time>2020-10-18T12:29:24.000Z</time>
      </trkpt>
      <trkpt lat="48.2662" lon="-3.56794">
        <ele>128</ele>
        <time>2020-10-18T12:29:25.000Z</time>
      </trkpt>
      <trkpt lat="48.26618" lon="-3.56803">
        <ele>128.19999694824</ele>
        <time>2020-10-18T12:29:26.000Z</time>
      </trkpt>
      <trkpt lat="48.26618" lon="-3.56803">
        <ele>128.19999694824</ele>
        <time>2020-10-18T12:29:27.000Z</time>
      </trkpt>
      <trkpt lat="48.26617" lon="-3.56807">
        <ele>128.39999389648</ele>
        <time>2020-10-18T12:29:28.000Z</time>
      </trkpt>
      <trkpt lat="48.26615" lon="-3.56815">
        <ele>128.60000610352</ele>
        <time>2020-10-18T12:29:29.000Z</time>
      </trkpt>
      <trkpt lat="48.26615" lon="-3.56815">
        <ele>128.60000610352</ele>
        <time>2020-10-18T12:29:30.000Z</time>
      </trkpt>
      <trkpt lat="48.26614" lon="-3.56818">
        <ele>128.80000305176</ele>
        <time>2020-10-18T12:29:31.000Z</time>
      </trkpt>
      <trkpt lat="48.26611" lon="-3.56825">
        <ele>129</ele>
        <time>2020-10-18T12:29:32.000Z</time>
      </trkpt>
      <trkpt lat="48.26611" lon="-3.56825">
        <ele>129</ele>
        <time>2020-10-18T12:29:33.000Z</time>
      </trkpt>
      <trkpt lat="48.2661" lon="-3.56828">
        <ele>129.19999694824</ele>
        <time>2020-10-18T12:29:34.000Z</time>
      </trkpt>
      <trkpt lat="48.26608" lon="-3.56836">
        <ele>129.39999389648</ele>
        <time>2020-10-18T12:29:35.000Z</time>
      </trkpt>
      <trkpt lat="48.26608" lon="-3.56836">
        <ele>129.39999389648</ele>
        <time>2020-10-18T12:29:36.000Z</time>
      </trkpt>
      <trkpt lat="48.26607" lon="-3.56841">
        <ele>129.60000610352</ele>
        <time>2020-10-18T12:29:37.000Z</time>
      </trkpt>
      <trkpt lat="48.26604" lon="-3.5685">
        <ele>130</ele>
        <time>2020-10-18T12:29:38.000Z</time>
      </trkpt>
      <trkpt lat="48.26604" lon="-3.5685">
        <ele>130</ele>
        <time>2020-10-18T12:29:39.000Z</time>
      </trkpt>
      <trkpt lat="48.26603" lon="-3.56856">
        <ele>130</ele>
        <time>2020-10-18T12:29:40.000Z</time>
      </trkpt>
      <trkpt lat="48.26601" lon="-3.56866">
        <ele>130.19999694824</ele>
        <time>2020-10-18T12:29:41.000Z</time>
      </trkpt>
      <trkpt lat="48.26601" lon="-3.56866">
        <ele>130.19999694824</ele>
        <time>2020-10-18T12:29:42.000Z</time>
      </trkpt>
      <trkpt lat="48.26599" lon="-3.56872">
        <ele>130.19999694824</ele>
        <time>2020-10-18T12:29:43.000Z</time>
      </trkpt>
      <trkpt lat="48.26596" lon="-3.56883">
        <ele>130.39999389648</ele>
        <time>2020-10-18T12:29:44.000Z</time>
      </trkpt>
      <trkpt lat="48.26596" lon="-3.56883">
        <ele>130.39999389648</ele>
        <time>2020-10-18T12:29:45.000Z</time>
      </trkpt>
      <trkpt lat="48.26594" lon="-3.56888">
        <ele>130.39999389648</ele>
        <time>2020-10-18T12:29:46.000Z</time>
      </trkpt>
      <trkpt lat="48.26591" lon="-3.56898">
        <ele>130.60000610352</ele>
        <time>2020-10-18T12:29:47.000Z</time>
      </trkpt>
      <trkpt lat="48.26591" lon="-3.56898">
        <ele>130.60000610352</ele>
        <time>2020-10-18T12:29:48.000Z</time>
      </trkpt>
      <trkpt lat="48.26589" lon="-3.5691">
        <ele>130.80000305176</ele>
        <time>2020-10-18T12:29:49.000Z</time>
      </trkpt>
      <trkpt lat="48.26589" lon="-3.5691">
        <ele>130.80000305176</ele>
        <time>2020-10-18T12:29:50.000Z</time>
      </trkpt>
      <trkpt lat="48.26587" lon="-3.56916">
        <ele>130.80000305176</ele>
        <time>2020-10-18T12:29:51.000Z</time>
      </trkpt>
      <trkpt lat="48.26584" lon="-3.56928">
        <ele>131</ele>
        <time>2020-10-18T12:29:52.000Z</time>
      </trkpt>
      <trkpt lat="48.26584" lon="-3.56928">
        <ele>131</ele>
        <time>2020-10-18T12:29:53.000Z</time>
      </trkpt>
      <trkpt lat="48.26581" lon="-3.56941">
        <ele>131.19999694824</ele>
        <time>2020-10-18T12:29:54.000Z</time>
      </trkpt>
      <trkpt lat="48.26581" lon="-3.56941">
        <ele>131.19999694824</ele>
        <time>2020-10-18T12:29:55.000Z</time>
      </trkpt>
      <trkpt lat="48.26579" lon="-3.56948">
        <ele>131</ele>
        <time>2020-10-18T12:29:56.000Z</time>
      </trkpt>
      <trkpt lat="48.26575" lon="-3.5696">
        <ele>130.80000305176</ele>
        <time>2020-10-18T12:29:57.000Z</time>
      </trkpt>
      <trkpt lat="48.26575" lon="-3.5696">
        <ele>130.80000305176</ele>
        <time>2020-10-18T12:29:58.000Z</time>
      </trkpt>
      <trkpt lat="48.26573" lon="-3.56966">
        <ele>130.80000305176</ele>
        <time>2020-10-18T12:29:59.000Z</time>
      </trkpt>
      <trkpt lat="48.26569" lon="-3.56977">
        <ele>130.60000610352</ele>
        <time>2020-10-18T12:30:00.000Z</time>
      </trkpt>
      <trkpt lat="48.26569" lon="-3.56977">
        <ele>130.60000610352</ele>
        <time>2020-10-18T12:30:01.000Z</time>
      </trkpt>
      <trkpt lat="48.26568" lon="-3.56983">
        <ele>130.60000610352</ele>
        <time>2020-10-18T12:30:02.000Z</time>
      </trkpt>
      <trkpt lat="48.26564" lon="-3.56995">
        <ele>130.39999389648</ele>
        <time>2020-10-18T12:30:03.000Z</time>
      </trkpt>
      <trkpt lat="48.26564" lon="-3.56995">
        <ele>130.39999389648</ele>
        <time>2020-10-18T12:30:04.000Z</time>
      </trkpt>
      <trkpt lat="48.26563" lon="-3.57002">
        <ele>130.19999694824</ele>
        <time>2020-10-18T12:30:05.000Z</time>
      </trkpt>
      <trkpt lat="48.26561" lon="-3.57017">
        <ele>129.80000305176</ele>
        <time>2020-10-18T12:30:06.000Z</time>
      </trkpt>
      <trkpt lat="48.26561" lon="-3.57017">
        <ele>129.80000305176</ele>
        <time>2020-10-18T12:30:07.000Z</time>
      </trkpt>
      <trkpt lat="48.26557" lon="-3.57032">
        <ele>129.80000305176</ele>
        <time>2020-10-18T12:30:08.000Z</time>
      </trkpt>
      <trkpt lat="48.26557" lon="-3.57032">
        <ele>129.80000305176</ele>
        <time>2020-10-18T12:30:09.000Z</time>
      </trkpt>
      <trkpt lat="48.26555" lon="-3.57039">
        <ele>129.80000305176</ele>
        <time>2020-10-18T12:30:10.000Z</time>
      </trkpt>
      <trkpt lat="48.26552" lon="-3.57052">
        <ele>129.60000610352</ele>
        <time>2020-10-18T12:30:11.000Z</time>
      </trkpt>
      <trkpt lat="48.26552" lon="-3.57052">
        <ele>129.60000610352</ele>
        <time>2020-10-18T12:30:12.000Z</time>
      </trkpt>
      <trkpt lat="48.26551" lon="-3.57058">
        <ele>129.60000610352</ele>
        <time>2020-10-18T12:30:13.000Z</time>
      </trkpt>
      <trkpt lat="48.26547" lon="-3.5707">
        <ele>129.39999389648</ele>
        <time>2020-10-18T12:30:14.000Z</time>
      </trkpt>
      <trkpt lat="48.26547" lon="-3.5707">
        <ele>129.39999389648</ele>
        <time>2020-10-18T12:30:15.000Z</time>
      </trkpt>
      <trkpt lat="48.26546" lon="-3.57076">
        <ele>129.39999389648</ele>
        <time>2020-10-18T12:30:16.000Z</time>
      </trkpt>
      <trkpt lat="48.26541" lon="-3.5709">
        <ele>129.19999694824</ele>
        <time>2020-10-18T12:30:17.000Z</time>
      </trkpt>
      <trkpt lat="48.26541" lon="-3.5709">
        <ele>129.19999694824</ele>
        <time>2020-10-18T12:30:18.000Z</time>
      </trkpt>
      <trkpt lat="48.26539" lon="-3.57098">
        <ele>129.19999694824</ele>
        <time>2020-10-18T12:30:19.000Z</time>
      </trkpt>
      <trkpt lat="48.26535" lon="-3.57111">
        <ele>129.19999694824</ele>
        <time>2020-10-18T12:30:20.000Z</time>
      </trkpt>
      <trkpt lat="48.26535" lon="-3.57111">
        <ele>129.19999694824</ele>
        <time>2020-10-18T12:30:21.000Z</time>
      </trkpt>
      <trkpt lat="48.26533" lon="-3.57118">
        <ele>129.19999694824</ele>
        <time>2020-10-18T12:30:22.000Z</time>
      </trkpt>
      <trkpt lat="48.26528" lon="-3.57131">
        <ele>129.39999389648</ele>
        <time>2020-10-18T12:30:23.000Z</time>
      </trkpt>
      <trkpt lat="48.26528" lon="-3.57131">
        <ele>129.39999389648</ele>
        <time>2020-10-18T12:30:24.000Z</time>
      </trkpt>
      <trkpt lat="48.26526" lon="-3.57136">
        <ele>129.60000610352</ele>
        <time>2020-10-18T12:30:25.000Z</time>
      </trkpt>
      <trkpt lat="48.2652" lon="-3.57146">
        <ele>129.80000305176</ele>
        <time>2020-10-18T12:30:26.000Z</time>
      </trkpt>
      <trkpt lat="48.2652" lon="-3.57146">
        <ele>129.80000305176</ele>
        <time>2020-10-18T12:30:27.000Z</time>
      </trkpt>
      <trkpt lat="48.26518" lon="-3.57151">
        <ele>129.80000305176</ele>
        <time>2020-10-18T12:30:28.000Z</time>
      </trkpt>
      <trkpt lat="48.26513" lon="-3.57161">
        <ele>130</ele>
        <time>2020-10-18T12:30:29.000Z</time>
      </trkpt>
      <trkpt lat="48.26513" lon="-3.57161">
        <ele>130</ele>
        <time>2020-10-18T12:30:30.000Z</time>
      </trkpt>
      <trkpt lat="48.26511" lon="-3.57166">
        <ele>130</ele>
        <time>2020-10-18T12:30:31.000Z</time>
      </trkpt>
      <trkpt lat="48.26506" lon="-3.57174">
        <ele>130.19999694824</ele>
        <time>2020-10-18T12:30:32.000Z</time>
      </trkpt>
      <trkpt lat="48.26506" lon="-3.57174">
        <ele>130.19999694824</ele>
        <time>2020-10-18T12:30:33.000Z</time>
      </trkpt>
      <trkpt lat="48.26504" lon="-3.57178">
        <ele>130.19999694824</ele>
        <time>2020-10-18T12:30:34.000Z</time>
      </trkpt>
      <trkpt lat="48.26501" lon="-3.57187">
        <ele>130.19999694824</ele>
        <time>2020-10-18T12:30:35.000Z</time>
      </trkpt>
      <trkpt lat="48.26501" lon="-3.57187">
        <ele>130.19999694824</ele>
        <time>2020-10-18T12:30:36.000Z</time>
      </trkpt>
      <trkpt lat="48.26499" lon="-3.57191">
        <ele>130</ele>
        <time>2020-10-18T12:30:37.000Z</time>
      </trkpt>
      <trkpt lat="48.26494" lon="-3.572">
        <ele>129.80000305176</ele>
        <time>2020-10-18T12:30:38.000Z</time>
      </trkpt>
      <trkpt lat="48.26491" lon="-3.57205">
        <ele>129.80000305176</ele>
        <time>2020-10-18T12:30:39.000Z</time>
      </trkpt>
      <trkpt lat="48.26491" lon="-3.57205">
        <ele>129.80000305176</ele>
        <time>2020-10-18T12:30:40.000Z</time>
      </trkpt>
      <trkpt lat="48.26487" lon="-3.57209">
        <ele>129.80000305176</ele>
        <time>2020-10-18T12:30:41.000Z</time>
      </trkpt>
      <trkpt lat="48.2648" lon="-3.57219">
        <ele>129.39999389648</ele>
        <time>2020-10-18T12:30:42.000Z</time>
      </trkpt>
      <trkpt lat="48.2648" lon="-3.57219">
        <ele>129.39999389648</ele>
        <time>2020-10-18T12:30:43.000Z</time>
      </trkpt>
      <trkpt lat="48.26476" lon="-3.57224">
        <ele>129.39999389648</ele>
        <time>2020-10-18T12:30:44.000Z</time>
      </trkpt>
      <trkpt lat="48.26468" lon="-3.57233">
        <ele>129.19999694824</ele>
        <time>2020-10-18T12:30:45.000Z</time>
      </trkpt>
      <trkpt lat="48.26468" lon="-3.57233">
        <ele>129.19999694824</ele>
        <time>2020-10-18T12:30:46.000Z</time>
      </trkpt>
      <trkpt lat="48.26466" lon="-3.57238">
        <ele>129</ele>
        <time>2020-10-18T12:30:47.000Z</time>
      </trkpt>
      <trkpt lat="48.26462" lon="-3.57243">
        <ele>128.80000305176</ele>
        <time>2020-10-18T12:30:48.000Z</time>
      </trkpt>
      <trkpt lat="48.26455" lon="-3.57254">
        <ele>128.60000610352</ele>
        <time>2020-10-18T12:30:49.000Z</time>
      </trkpt>
      <trkpt lat="48.26455" lon="-3.57254">
        <ele>128.60000610352</ele>
        <time>2020-10-18T12:30:50.000Z</time>
      </trkpt>
      <trkpt lat="48.26448" lon="-3.57263">
        <ele>128.19999694824</ele>
        <time>2020-10-18T12:30:51.000Z</time>
      </trkpt>
      <trkpt lat="48.26448" lon="-3.57263">
        <ele>128.19999694824</ele>
        <time>2020-10-18T12:30:52.000Z</time>
      </trkpt>
      <trkpt lat="48.26444" lon="-3.57268">
        <ele>128.19999694824</ele>
        <time>2020-10-18T12:30:53.000Z</time>
      </trkpt>
      <trkpt lat="48.26436" lon="-3.57278">
        <ele>128.39999389648</ele>
        <time>2020-10-18T12:30:54.000Z</time>
      </trkpt>
      <trkpt lat="48.26436" lon="-3.57278">
        <ele>128.39999389648</ele>
        <time>2020-10-18T12:30:55.000Z</time>
      </trkpt>
      <trkpt lat="48.26433" lon="-3.57284">
        <ele>128.39999389648</ele>
        <time>2020-10-18T12:30:56.000Z</time>
      </trkpt>
      <trkpt lat="48.26425" lon="-3.57294">
        <ele>128.39999389648</ele>
        <time>2020-10-18T12:30:57.000Z</time>
      </trkpt>
      <trkpt lat="48.26425" lon="-3.57294">
        <ele>128.39999389648</ele>
        <time>2020-10-18T12:30:58.000Z</time>
      </trkpt>
      <trkpt lat="48.2642" lon="-3.57299">
        <ele>128.39999389648</ele>
        <time>2020-10-18T12:30:59.000Z</time>
      </trkpt>
      <trkpt lat="48.26413" lon="-3.57308">
        <ele>128.19999694824</ele>
        <time>2020-10-18T12:31:00.000Z</time>
      </trkpt>
      <trkpt lat="48.26413" lon="-3.57308">
        <ele>128.19999694824</ele>
        <time>2020-10-18T12:31:01.000Z</time>
      </trkpt>
      <trkpt lat="48.26409" lon="-3.57312">
        <ele>128.19999694824</ele>
        <time>2020-10-18T12:31:02.000Z</time>
      </trkpt>
      <trkpt lat="48.26402" lon="-3.57322">
        <ele>128</ele>
        <time>2020-10-18T12:31:03.000Z</time>
      </trkpt>
      <trkpt lat="48.26402" lon="-3.57322">
        <ele>128</ele>
        <time>2020-10-18T12:31:04.000Z</time>
      </trkpt>
      <trkpt lat="48.26398" lon="-3.57327">
        <ele>128</ele>
        <time>2020-10-18T12:31:05.000Z</time>
      </trkpt>
      <trkpt lat="48.26391" lon="-3.57336">
        <ele>127.80000305176</ele>
        <time>2020-10-18T12:31:06.000Z</time>
      </trkpt>
      <trkpt lat="48.26391" lon="-3.57336">
        <ele>127.80000305176</ele>
        <time>2020-10-18T12:31:07.000Z</time>
      </trkpt>
      <trkpt lat="48.26388" lon="-3.5734">
        <ele>127.80000305176</ele>
        <time>2020-10-18T12:31:08.000Z</time>
      </trkpt>
      <trkpt lat="48.26381" lon="-3.57348">
        <ele>127.59999847412</ele>
        <time>2020-10-18T12:31:09.000Z</time>
      </trkpt>
      <trkpt lat="48.26381" lon="-3.57348">
        <ele>127.59999847412</ele>
        <time>2020-10-18T12:31:10.000Z</time>
      </trkpt>
      <trkpt lat="48.26378" lon="-3.57352">
        <ele>127.59999847412</ele>
        <time>2020-10-18T12:31:11.000Z</time>
      </trkpt>
      <trkpt lat="48.26371" lon="-3.57361">
        <ele>127.19999694824</ele>
        <time>2020-10-18T12:31:12.000Z</time>
      </trkpt>
      <trkpt lat="48.26371" lon="-3.57361">
        <ele>127.19999694824</ele>
        <time>2020-10-18T12:31:13.000Z</time>
      </trkpt>
      <trkpt lat="48.26366" lon="-3.57365">
        <ele>127</ele>
        <time>2020-10-18T12:31:14.000Z</time>
      </trkpt>
      <trkpt lat="48.26359" lon="-3.57373">
        <ele>126.80000305176</ele>
        <time>2020-10-18T12:31:15.000Z</time>
      </trkpt>
      <trkpt lat="48.26359" lon="-3.57373">
        <ele>126.80000305176</ele>
        <time>2020-10-18T12:31:16.000Z</time>
      </trkpt>
      <trkpt lat="48.26356" lon="-3.57377">
        <ele>126.59999847412</ele>
        <time>2020-10-18T12:31:17.000Z</time>
      </trkpt>
      <trkpt lat="48.26349" lon="-3.57386">
        <ele>126.19999694824</ele>
        <time>2020-10-18T12:31:18.000Z</time>
      </trkpt>
      <trkpt lat="48.26349" lon="-3.57386">
        <ele>126.19999694824</ele>
        <time>2020-10-18T12:31:19.000Z</time>
      </trkpt>
      <trkpt lat="48.26346" lon="-3.5739">
        <ele>126.19999694824</ele>
        <time>2020-10-18T12:31:20.000Z</time>
      </trkpt>
      <trkpt lat="48.2634" lon="-3.574">
        <ele>126</ele>
        <time>2020-10-18T12:31:21.000Z</time>
      </trkpt>
      <trkpt lat="48.2634" lon="-3.574">
        <ele>126</ele>
        <time>2020-10-18T12:31:22.000Z</time>
      </trkpt>
      <trkpt lat="48.26337" lon="-3.57405">
        <ele>125.80000305176</ele>
        <time>2020-10-18T12:31:23.000Z</time>
      </trkpt>
      <trkpt lat="48.26331" lon="-3.57414">
        <ele>125.80000305176</ele>
        <time>2020-10-18T12:31:24.000Z</time>
      </trkpt>
      <trkpt lat="48.26331" lon="-3.57414">
        <ele>125.80000305176</ele>
        <time>2020-10-18T12:31:25.000Z</time>
      </trkpt>
      <trkpt lat="48.26328" lon="-3.57419">
        <ele>125.59999847412</ele>
        <time>2020-10-18T12:31:26.000Z</time>
      </trkpt>
      <trkpt lat="48.26322" lon="-3.57427">
        <ele>125.59999847412</ele>
        <time>2020-10-18T12:31:27.000Z</time>
      </trkpt>
      <trkpt lat="48.26322" lon="-3.57427">
        <ele>125.59999847412</ele>
        <time>2020-10-18T12:31:28.000Z</time>
      </trkpt>
      <trkpt lat="48.2632" lon="-3.5743">
        <ele>125.40000152588</ele>
        <time>2020-10-18T12:31:29.000Z</time>
      </trkpt>
      <trkpt lat="48.26314" lon="-3.57437">
        <ele>125.40000152588</ele>
        <time>2020-10-18T12:31:30.000Z</time>
      </trkpt>
      <trkpt lat="48.26314" lon="-3.57437">
        <ele>125.40000152588</ele>
        <time>2020-10-18T12:31:31.000Z</time>
      </trkpt>
      <trkpt lat="48.26312" lon="-3.57441">
        <ele>125.59999847412</ele>
        <time>2020-10-18T12:31:32.000Z</time>
      </trkpt>
      <trkpt lat="48.26306" lon="-3.57449">
        <ele>125.59999847412</ele>
        <time>2020-10-18T12:31:33.000Z</time>
      </trkpt>
      <trkpt lat="48.26306" lon="-3.57449">
        <ele>125.59999847412</ele>
        <time>2020-10-18T12:31:34.000Z</time>
      </trkpt>
      <trkpt lat="48.26303" lon="-3.57453">
        <ele>125.59999847412</ele>
        <time>2020-10-18T12:31:35.000Z</time>
      </trkpt>
      <trkpt lat="48.26296" lon="-3.57462">
        <ele>125.80000305176</ele>
        <time>2020-10-18T12:31:36.000Z</time>
      </trkpt>
      <trkpt lat="48.26296" lon="-3.57462">
        <ele>125.80000305176</ele>
        <time>2020-10-18T12:31:37.000Z</time>
      </trkpt>
      <trkpt lat="48.26292" lon="-3.57466">
        <ele>125.80000305176</ele>
        <time>2020-10-18T12:31:38.000Z</time>
      </trkpt>
      <trkpt lat="48.26285" lon="-3.57474">
        <ele>126</ele>
        <time>2020-10-18T12:31:39.000Z</time>
      </trkpt>
      <trkpt lat="48.26285" lon="-3.57474">
        <ele>126</ele>
        <time>2020-10-18T12:31:40.000Z</time>
      </trkpt>
      <trkpt lat="48.26281" lon="-3.57479">
        <ele>126</ele>
        <time>2020-10-18T12:31:41.000Z</time>
      </trkpt>
      <trkpt lat="48.26275" lon="-3.57488">
        <ele>126.19999694824</ele>
        <time>2020-10-18T12:31:42.000Z</time>
      </trkpt>
      <trkpt lat="48.26275" lon="-3.57488">
        <ele>126.19999694824</ele>
        <time>2020-10-18T12:31:43.000Z</time>
      </trkpt>
      <trkpt lat="48.26271" lon="-3.57492">
        <ele>126.19999694824</ele>
        <time>2020-10-18T12:31:44.000Z</time>
      </trkpt>
      <trkpt lat="48.26265" lon="-3.575">
        <ele>126.40000152588</ele>
        <time>2020-10-18T12:31:45.000Z</time>
      </trkpt>
      <trkpt lat="48.26265" lon="-3.575">
        <ele>126.40000152588</ele>
        <time>2020-10-18T12:31:46.000Z</time>
      </trkpt>
      <trkpt lat="48.26259" lon="-3.57508">
        <ele>126.40000152588</ele>
        <time>2020-10-18T12:31:47.000Z</time>
      </trkpt>
      <trkpt lat="48.26259" lon="-3.57508">
        <ele>126.40000152588</ele>
        <time>2020-10-18T12:31:48.000Z</time>
      </trkpt>
      <trkpt lat="48.26253" lon="-3.57517">
        <ele>126.40000152588</ele>
        <time>2020-10-18T12:31:49.000Z</time>
      </trkpt>
      <trkpt lat="48.26253" lon="-3.57517">
        <ele>126.40000152588</ele>
        <time>2020-10-18T12:31:50.000Z</time>
      </trkpt>
      <trkpt lat="48.26246" lon="-3.57525">
        <ele>126.40000152588</ele>
        <time>2020-10-18T12:31:51.000Z</time>
      </trkpt>
      <trkpt lat="48.26246" lon="-3.57525">
        <ele>126.40000152588</ele>
        <time>2020-10-18T12:31:52.000Z</time>
      </trkpt>
      <trkpt lat="48.26243" lon="-3.57529">
        <ele>126.40000152588</ele>
        <time>2020-10-18T12:31:53.000Z</time>
      </trkpt>
      <trkpt lat="48.26237" lon="-3.57538">
        <ele>126.40000152588</ele>
        <time>2020-10-18T12:31:54.000Z</time>
      </trkpt>
      <trkpt lat="48.26237" lon="-3.57538">
        <ele>126.40000152588</ele>
        <time>2020-10-18T12:31:55.000Z</time>
      </trkpt>
      <trkpt lat="48.26234" lon="-3.57542">
        <ele>126.40000152588</ele>
        <time>2020-10-18T12:31:56.000Z</time>
      </trkpt>
      <trkpt lat="48.26227" lon="-3.5755">
        <ele>126.59999847412</ele>
        <time>2020-10-18T12:31:57.000Z</time>
      </trkpt>
      <trkpt lat="48.26224" lon="-3.57555">
        <ele>126.59999847412</ele>
        <time>2020-10-18T12:31:58.000Z</time>
      </trkpt>
      <trkpt lat="48.26224" lon="-3.57555">
        <ele>126.59999847412</ele>
        <time>2020-10-18T12:31:59.000Z</time>
      </trkpt>
      <trkpt lat="48.26221" lon="-3.57559">
        <ele>126.59999847412</ele>
        <time>2020-10-18T12:32:00.000Z</time>
      </trkpt>
      <trkpt lat="48.26215" lon="-3.57567">
        <ele>126.59999847412</ele>
        <time>2020-10-18T12:32:01.000Z</time>
      </trkpt>
      <trkpt lat="48.26215" lon="-3.57567">
        <ele>126.59999847412</ele>
        <time>2020-10-18T12:32:02.000Z</time>
      </trkpt>
      <trkpt lat="48.26212" lon="-3.57571">
        <ele>126.59999847412</ele>
        <time>2020-10-18T12:32:03.000Z</time>
      </trkpt>
      <trkpt lat="48.26206" lon="-3.57579">
        <ele>126.59999847412</ele>
        <time>2020-10-18T12:32:04.000Z</time>
      </trkpt>
      <trkpt lat="48.26206" lon="-3.57579">
        <ele>126.59999847412</ele>
        <time>2020-10-18T12:32:05.000Z</time>
      </trkpt>
      <trkpt lat="48.26202" lon="-3.57583">
        <ele>126.59999847412</ele>
        <time>2020-10-18T12:32:06.000Z</time>
      </trkpt>
      <trkpt lat="48.26196" lon="-3.5759">
        <ele>126.59999847412</ele>
        <time>2020-10-18T12:32:07.000Z</time>
      </trkpt>
      <trkpt lat="48.26196" lon="-3.5759">
        <ele>126.59999847412</ele>
        <time>2020-10-18T12:32:08.000Z</time>
      </trkpt>
      <trkpt lat="48.2619" lon="-3.57598">
        <ele>126.59999847412</ele>
        <time>2020-10-18T12:32:09.000Z</time>
      </trkpt>
      <trkpt lat="48.2619" lon="-3.57598">
        <ele>126.59999847412</ele>
        <time>2020-10-18T12:32:10.000Z</time>
      </trkpt>
      <trkpt lat="48.26187" lon="-3.57601">
        <ele>126.59999847412</ele>
        <time>2020-10-18T12:32:11.000Z</time>
      </trkpt>
      <trkpt lat="48.26181" lon="-3.57609">
        <ele>126.80000305176</ele>
        <time>2020-10-18T12:32:12.000Z</time>
      </trkpt>
      <trkpt lat="48.26181" lon="-3.57609">
        <ele>126.80000305176</ele>
        <time>2020-10-18T12:32:13.000Z</time>
      </trkpt>
      <trkpt lat="48.26179" lon="-3.57613">
        <ele>126.80000305176</ele>
        <time>2020-10-18T12:32:14.000Z</time>
      </trkpt>
      <trkpt lat="48.26173" lon="-3.57621">
        <ele>126.80000305176</ele>
        <time>2020-10-18T12:32:15.000Z</time>
      </trkpt>
      <trkpt lat="48.26173" lon="-3.57621">
        <ele>126.80000305176</ele>
        <time>2020-10-18T12:32:16.000Z</time>
      </trkpt>
      <trkpt lat="48.26171" lon="-3.57625">
        <ele>126.80000305176</ele>
        <time>2020-10-18T12:32:17.000Z</time>
      </trkpt>
      <trkpt lat="48.26165" lon="-3.57631">
        <ele>126.80000305176</ele>
        <time>2020-10-18T12:32:18.000Z</time>
      </trkpt>
      <trkpt lat="48.26165" lon="-3.57631">
        <ele>126.80000305176</ele>
        <time>2020-10-18T12:32:19.000Z</time>
      </trkpt>
      <trkpt lat="48.26162" lon="-3.57634">
        <ele>126.80000305176</ele>
        <time>2020-10-18T12:32:20.000Z</time>
      </trkpt>
      <trkpt lat="48.26157" lon="-3.57638">
        <ele>126.80000305176</ele>
        <time>2020-10-18T12:32:21.000Z</time>
      </trkpt>
      <trkpt lat="48.26157" lon="-3.57638">
        <ele>126.80000305176</ele>
        <time>2020-10-18T12:32:22.000Z</time>
      </trkpt>
      <trkpt lat="48.26155" lon="-3.57641">
        <ele>126.80000305176</ele>
        <time>2020-10-18T12:32:23.000Z</time>
      </trkpt>
      <trkpt lat="48.26151" lon="-3.57646">
        <ele>126.80000305176</ele>
        <time>2020-10-18T12:32:24.000Z</time>
      </trkpt>
      <trkpt lat="48.26151" lon="-3.57646">
        <ele>126.80000305176</ele>
        <time>2020-10-18T12:32:25.000Z</time>
      </trkpt>
      <trkpt lat="48.2615" lon="-3.57648">
        <ele>126.80000305176</ele>
        <time>2020-10-18T12:32:26.000Z</time>
      </trkpt>
      <trkpt lat="48.26148" lon="-3.57648">
        <ele>126.80000305176</ele>
        <time>2020-10-18T12:32:27.000Z</time>
      </trkpt>
      <trkpt lat="48.26148" lon="-3.57648">
        <ele>126.80000305176</ele>
        <time>2020-10-18T12:32:28.000Z</time>
      </trkpt>
      <trkpt lat="48.26147" lon="-3.57648">
        <ele>126.80000305176</ele>
        <time>2020-10-18T12:32:29.000Z</time>
      </trkpt>
      <trkpt lat="48.26147" lon="-3.57647">
        <ele>126.80000305176</ele>
        <time>2020-10-18T12:32:30.000Z</time>
      </trkpt>
      <trkpt lat="48.26147" lon="-3.57647">
        <ele>126.80000305176</ele>
        <time>2020-10-18T12:32:31.000Z</time>
      </trkpt>
      <trkpt lat="48.26147" lon="-3.57647">
        <ele>126.80000305176</ele>
        <time>2020-10-18T12:32:32.000Z</time>
      </trkpt>
      <trkpt lat="48.26147" lon="-3.57647">
        <ele>126.80000305176</ele>
        <time>2020-10-18T12:32:33.000Z</time>
      </trkpt>
      <trkpt lat="48.26147" lon="-3.57647">
        <ele>126.80000305176</ele>
        <time>2020-10-18T12:32:34.000Z</time>
      </trkpt>
      <trkpt lat="48.26147" lon="-3.57647">
        <ele>126.80000305176</ele>
        <time>2020-10-18T12:32:35.000Z</time>
      </trkpt>
      <trkpt lat="48.26147" lon="-3.57647">
        <ele>126.80000305176</ele>
        <time>2020-10-18T12:32:36.000Z</time>
      </trkpt>
      <trkpt lat="48.26147" lon="-3.57647">
        <ele>126.80000305176</ele>
        <time>2020-10-18T12:32:37.000Z</time>
      </trkpt>
      <trkpt lat="48.26145" lon="-3.57648">
        <ele>126.80000305176</ele>
        <time>2020-10-18T12:32:38.000Z</time>
      </trkpt>
      <trkpt lat="48.26145" lon="-3.57648">
        <ele>126.80000305176</ele>
        <time>2020-10-18T12:32:39.000Z</time>
      </trkpt>
      <trkpt lat="48.26144" lon="-3.5765">
        <ele>126.80000305176</ele>
        <time>2020-10-18T12:32:40.000Z</time>
      </trkpt>
      <trkpt lat="48.2614" lon="-3.57654">
        <ele>126.80000305176</ele>
        <time>2020-10-18T12:32:41.000Z</time>
      </trkpt>
      <trkpt lat="48.2614" lon="-3.57654">
        <ele>126.80000305176</ele>
        <time>2020-10-18T12:32:42.000Z</time>
      </trkpt>
      <trkpt lat="48.26138" lon="-3.57656">
        <ele>126.80000305176</ele>
        <time>2020-10-18T12:32:43.000Z</time>
      </trkpt>
      <trkpt lat="48.26135" lon="-3.57664">
        <ele>126.80000305176</ele>
        <time>2020-10-18T12:32:44.000Z</time>
      </trkpt>
      <trkpt lat="48.26135" lon="-3.57664">
        <ele>126.80000305176</ele>
        <time>2020-10-18T12:32:45.000Z</time>
      </trkpt>
      <trkpt lat="48.26133" lon="-3.57667">
        <ele>126.80000305176</ele>
        <time>2020-10-18T12:32:46.000Z</time>
      </trkpt>
      <trkpt lat="48.26131" lon="-3.57669">
        <ele>126.80000305176</ele>
        <time>2020-10-18T12:32:47.000Z</time>
      </trkpt>
      <trkpt lat="48.26129" lon="-3.57671">
        <ele>126.80000305176</ele>
        <time>2020-10-18T12:32:48.000Z</time>
      </trkpt>
      <trkpt lat="48.26125" lon="-3.57676">
        <ele>126.80000305176</ele>
        <time>2020-10-18T12:32:49.000Z</time>
      </trkpt>
      <trkpt lat="48.26125" lon="-3.57676">
        <ele>126.80000305176</ele>
        <time>2020-10-18T12:32:50.000Z</time>
      </trkpt>
      <trkpt lat="48.26121" lon="-3.57681">
        <ele>126.80000305176</ele>
        <time>2020-10-18T12:32:51.000Z</time>
      </trkpt>
      <trkpt lat="48.26121" lon="-3.57681">
        <ele>126.80000305176</ele>
        <time>2020-10-18T12:32:52.000Z</time>
      </trkpt>
      <trkpt lat="48.26118" lon="-3.57684">
        <ele>126.80000305176</ele>
        <time>2020-10-18T12:32:53.000Z</time>
      </trkpt>
      <trkpt lat="48.26114" lon="-3.5769">
        <ele>126.80000305176</ele>
        <time>2020-10-18T12:32:54.000Z</time>
      </trkpt>
      <trkpt lat="48.26114" lon="-3.5769">
        <ele>126.80000305176</ele>
        <time>2020-10-18T12:32:55.000Z</time>
      </trkpt>
      <trkpt lat="48.26111" lon="-3.57693">
        <ele>127</ele>
        <time>2020-10-18T12:32:56.000Z</time>
      </trkpt>
      <trkpt lat="48.26104" lon="-3.57699">
        <ele>127</ele>
        <time>2020-10-18T12:32:57.000Z</time>
      </trkpt>
      <trkpt lat="48.26104" lon="-3.57699">
        <ele>127</ele>
        <time>2020-10-18T12:32:58.000Z</time>
      </trkpt>
      <trkpt lat="48.26101" lon="-3.57703">
        <ele>127.19999694824</ele>
        <time>2020-10-18T12:32:59.000Z</time>
      </trkpt>
      <trkpt lat="48.26095" lon="-3.5771">
        <ele>127.19999694824</ele>
        <time>2020-10-18T12:33:00.000Z</time>
      </trkpt>
      <trkpt lat="48.26095" lon="-3.5771">
        <ele>127.19999694824</ele>
        <time>2020-10-18T12:33:01.000Z</time>
      </trkpt>
      <trkpt lat="48.26092" lon="-3.57713">
        <ele>127.19999694824</ele>
        <time>2020-10-18T12:33:02.000Z</time>
      </trkpt>
      <trkpt lat="48.26086" lon="-3.57722">
        <ele>127</ele>
        <time>2020-10-18T12:33:03.000Z</time>
      </trkpt>
      <trkpt lat="48.26086" lon="-3.57722">
        <ele>127</ele>
        <time>2020-10-18T12:33:04.000Z</time>
      </trkpt>
      <trkpt lat="48.26083" lon="-3.57726">
        <ele>127</ele>
        <time>2020-10-18T12:33:05.000Z</time>
      </trkpt>
      <trkpt lat="48.26075" lon="-3.57735">
        <ele>126.80000305176</ele>
        <time>2020-10-18T12:33:06.000Z</time>
      </trkpt>
      <trkpt lat="48.26075" lon="-3.57735">
        <ele>126.80000305176</ele>
        <time>2020-10-18T12:33:07.000Z</time>
      </trkpt>
      <trkpt lat="48.26071" lon="-3.57739">
        <ele>126.80000305176</ele>
        <time>2020-10-18T12:33:08.000Z</time>
      </trkpt>
      <trkpt lat="48.26063" lon="-3.57749">
        <ele>126.59999847412</ele>
        <time>2020-10-18T12:33:09.000Z</time>
      </trkpt>
      <trkpt lat="48.26063" lon="-3.57749">
        <ele>126.59999847412</ele>
        <time>2020-10-18T12:33:10.000Z</time>
      </trkpt>
      <trkpt lat="48.26059" lon="-3.57754">
        <ele>126.40000152588</ele>
        <time>2020-10-18T12:33:11.000Z</time>
      </trkpt>
      <trkpt lat="48.26052" lon="-3.57763">
        <ele>126.40000152588</ele>
        <time>2020-10-18T12:33:12.000Z</time>
      </trkpt>
      <trkpt lat="48.26052" lon="-3.57763">
        <ele>126.40000152588</ele>
        <time>2020-10-18T12:33:13.000Z</time>
      </trkpt>
      <trkpt lat="48.26049" lon="-3.57767">
        <ele>126.19999694824</ele>
        <time>2020-10-18T12:33:14.000Z</time>
      </trkpt>
      <trkpt lat="48.26043" lon="-3.57778">
        <ele>126</ele>
        <time>2020-10-18T12:33:15.000Z</time>
      </trkpt>
      <trkpt lat="48.26043" lon="-3.57778">
        <ele>126</ele>
        <time>2020-10-18T12:33:16.000Z</time>
      </trkpt>
      <trkpt lat="48.2604" lon="-3.57783">
        <ele>126</ele>
        <time>2020-10-18T12:33:17.000Z</time>
      </trkpt>
      <trkpt lat="48.26036" lon="-3.57788">
        <ele>125.80000305176</ele>
        <time>2020-10-18T12:33:18.000Z</time>
      </trkpt>
      <trkpt lat="48.2603" lon="-3.57799">
        <ele>125.59999847412</ele>
        <time>2020-10-18T12:33:19.000Z</time>
      </trkpt>
      <trkpt lat="48.2603" lon="-3.57799">
        <ele>125.59999847412</ele>
        <time>2020-10-18T12:33:20.000Z</time>
      </trkpt>
      <trkpt lat="48.26028" lon="-3.57806">
        <ele>125.59999847412</ele>
        <time>2020-10-18T12:33:21.000Z</time>
      </trkpt>
      <trkpt lat="48.26023" lon="-3.57817">
        <ele>125.40000152588</ele>
        <time>2020-10-18T12:33:22.000Z</time>
      </trkpt>
      <trkpt lat="48.26023" lon="-3.57817">
        <ele>125.40000152588</ele>
        <time>2020-10-18T12:33:23.000Z</time>
      </trkpt>
      <trkpt lat="48.26021" lon="-3.57823">
        <ele>125.19999694824</ele>
        <time>2020-10-18T12:33:24.000Z</time>
      </trkpt>
      <trkpt lat="48.26017" lon="-3.57836">
        <ele>125.19999694824</ele>
        <time>2020-10-18T12:33:25.000Z</time>
      </trkpt>
      <trkpt lat="48.26017" lon="-3.57836">
        <ele>125.19999694824</ele>
        <time>2020-10-18T12:33:26.000Z</time>
      </trkpt>
      <trkpt lat="48.26016" lon="-3.57842">
        <ele>125.19999694824</ele>
        <time>2020-10-18T12:33:27.000Z</time>
      </trkpt>
      <trkpt lat="48.26013" lon="-3.57855">
        <ele>125</ele>
        <time>2020-10-18T12:33:28.000Z</time>
      </trkpt>
      <trkpt lat="48.26013" lon="-3.57855">
        <ele>125</ele>
        <time>2020-10-18T12:33:29.000Z</time>
      </trkpt>
      <trkpt lat="48.26012" lon="-3.57861">
        <ele>125</ele>
        <time>2020-10-18T12:33:30.000Z</time>
      </trkpt>
      <trkpt lat="48.2601" lon="-3.57872">
        <ele>124.80000305176</ele>
        <time>2020-10-18T12:33:31.000Z</time>
      </trkpt>
      <trkpt lat="48.2601" lon="-3.57872">
        <ele>124.80000305176</ele>
        <time>2020-10-18T12:33:32.000Z</time>
      </trkpt>
      <trkpt lat="48.26009" lon="-3.57877">
        <ele>124.80000305176</ele>
        <time>2020-10-18T12:33:33.000Z</time>
      </trkpt>
      <trkpt lat="48.26007" lon="-3.57885">
        <ele>124.80000305176</ele>
        <time>2020-10-18T12:33:34.000Z</time>
      </trkpt>
      <trkpt lat="48.26007" lon="-3.57885">
        <ele>124.80000305176</ele>
        <time>2020-10-18T12:33:35.000Z</time>
      </trkpt>
      <trkpt lat="48.26007" lon="-3.5789">
        <ele>124.59999847412</ele>
        <time>2020-10-18T12:33:36.000Z</time>
      </trkpt>
      <trkpt lat="48.26006" lon="-3.579">
        <ele>124.59999847412</ele>
        <time>2020-10-18T12:33:37.000Z</time>
      </trkpt>
      <trkpt lat="48.26006" lon="-3.579">
        <ele>124.59999847412</ele>
        <time>2020-10-18T12:33:38.000Z</time>
      </trkpt>
      <trkpt lat="48.26005" lon="-3.57911">
        <ele>124.40000152588</ele>
        <time>2020-10-18T12:33:39.000Z</time>
      </trkpt>
      <trkpt lat="48.26005" lon="-3.57911">
        <ele>124.40000152588</ele>
        <time>2020-10-18T12:33:40.000Z</time>
      </trkpt>
      <trkpt lat="48.26004" lon="-3.57915">
        <ele>124.40000152588</ele>
        <time>2020-10-18T12:33:41.000Z</time>
      </trkpt>
      <trkpt lat="48.26002" lon="-3.57922">
        <ele>124.40000152588</ele>
        <time>2020-10-18T12:33:42.000Z</time>
      </trkpt>
      <trkpt lat="48.26002" lon="-3.57922">
        <ele>124.40000152588</ele>
        <time>2020-10-18T12:33:43.000Z</time>
      </trkpt>
      <trkpt lat="48.26001" lon="-3.57924">
        <ele>124.40000152588</ele>
        <time>2020-10-18T12:33:44.000Z</time>
      </trkpt>
      <trkpt lat="48.25997" lon="-3.5793">
        <ele>124.40000152588</ele>
        <time>2020-10-18T12:33:45.000Z</time>
      </trkpt>
      <trkpt lat="48.25997" lon="-3.5793">
        <ele>124.40000152588</ele>
        <time>2020-10-18T12:33:46.000Z</time>
      </trkpt>
      <trkpt lat="48.25994" lon="-3.57933">
        <ele>124.40000152588</ele>
        <time>2020-10-18T12:33:47.000Z</time>
      </trkpt>
      <trkpt lat="48.25994" lon="-3.57933">
        <ele>124.40000152588</ele>
        <time>2020-10-18T12:33:48.000Z</time>
      </trkpt>
      <trkpt lat="48.25992" lon="-3.57934">
        <ele>124.59999847412</ele>
        <time>2020-10-18T12:33:49.000Z</time>
      </trkpt>
      <trkpt lat="48.25992" lon="-3.57934">
        <ele>124.59999847412</ele>
        <time>2020-10-18T12:33:50.000Z</time>
      </trkpt>
      <trkpt lat="48.25991" lon="-3.57935">
        <ele>124.59999847412</ele>
        <time>2020-10-18T12:33:51.000Z</time>
      </trkpt>
      <trkpt lat="48.25991" lon="-3.57935">
        <ele>124.59999847412</ele>
        <time>2020-10-18T12:33:52.000Z</time>
      </trkpt>
      <trkpt lat="48.25989" lon="-3.57935">
        <ele>124.59999847412</ele>
        <time>2020-10-18T12:33:53.000Z</time>
      </trkpt>
      <trkpt lat="48.25982" lon="-3.57933">
        <ele>124.80000305176</ele>
        <time>2020-10-18T12:33:54.000Z</time>
      </trkpt>
      <trkpt lat="48.25979" lon="-3.57932">
        <ele>124.80000305176</ele>
        <time>2020-10-18T12:33:55.000Z</time>
      </trkpt>
      <trkpt lat="48.25979" lon="-3.57932">
        <ele>124.80000305176</ele>
        <time>2020-10-18T12:33:56.000Z</time>
      </trkpt>
      <trkpt lat="48.25972" lon="-3.57932">
        <ele>125</ele>
        <time>2020-10-18T12:33:57.000Z</time>
      </trkpt>
      <trkpt lat="48.25972" lon="-3.57932">
        <ele>125</ele>
        <time>2020-10-18T12:33:58.000Z</time>
      </trkpt>
      <trkpt lat="48.25965" lon="-3.5793">
        <ele>125.19999694824</ele>
        <time>2020-10-18T12:33:59.000Z</time>
      </trkpt>
      <trkpt lat="48.25965" lon="-3.5793">
        <ele>125.19999694824</ele>
        <time>2020-10-18T12:34:00.000Z</time>
      </trkpt>
      <trkpt lat="48.25954" lon="-3.57931">
        <ele>125.40000152588</ele>
        <time>2020-10-18T12:34:01.000Z</time>
      </trkpt>
      <trkpt lat="48.25954" lon="-3.57931">
        <ele>125.40000152588</ele>
        <time>2020-10-18T12:34:02.000Z</time>
      </trkpt>
      <trkpt lat="48.25952" lon="-3.5793">
        <ele>125.59999847412</ele>
        <time>2020-10-18T12:34:03.000Z</time>
      </trkpt>
      <trkpt lat="48.25949" lon="-3.57925">
        <ele>125.59999847412</ele>
        <time>2020-10-18T12:34:04.000Z</time>
      </trkpt>
      <trkpt lat="48.25949" lon="-3.57925">
        <ele>125.59999847412</ele>
        <time>2020-10-18T12:34:05.000Z</time>
      </trkpt>
      <trkpt lat="48.25948" lon="-3.5792">
        <ele>125.80000305176</ele>
        <time>2020-10-18T12:34:06.000Z</time>
      </trkpt>
      <trkpt lat="48.25949" lon="-3.57911">
        <ele>125.80000305176</ele>
        <time>2020-10-18T12:34:07.000Z</time>
      </trkpt>
      <trkpt lat="48.25949" lon="-3.57911">
        <ele>125.80000305176</ele>
        <time>2020-10-18T12:34:08.000Z</time>
      </trkpt>
      <trkpt lat="48.25951" lon="-3.57905">
        <ele>125.59999847412</ele>
        <time>2020-10-18T12:34:09.000Z</time>
      </trkpt>
      <trkpt lat="48.25953" lon="-3.57894">
        <ele>125.59999847412</ele>
        <time>2020-10-18T12:34:10.000Z</time>
      </trkpt>
      <trkpt lat="48.25953" lon="-3.57894">
        <ele>125.59999847412</ele>
        <time>2020-10-18T12:34:11.000Z</time>
      </trkpt>
      <trkpt lat="48.25957" lon="-3.57884">
        <ele>125.40000152588</ele>
        <time>2020-10-18T12:34:12.000Z</time>
      </trkpt>
      <trkpt lat="48.25957" lon="-3.57884">
        <ele>125.40000152588</ele>
        <time>2020-10-18T12:34:13.000Z</time>
      </trkpt>
      <trkpt lat="48.25957" lon="-3.57874">
        <ele>125.19999694824</ele>
        <time>2020-10-18T12:34:14.000Z</time>
      </trkpt>
      <trkpt lat="48.25956" lon="-3.5787">
        <ele>125.19999694824</ele>
        <time>2020-10-18T12:34:15.000Z</time>
      </trkpt>
      <trkpt lat="48.25956" lon="-3.5787">
        <ele>125.19999694824</ele>
        <time>2020-10-18T12:34:16.000Z</time>
      </trkpt>
      <trkpt lat="48.25954" lon="-3.57867">
        <ele>125.19999694824</ele>
        <time>2020-10-18T12:34:17.000Z</time>
      </trkpt>
      <trkpt lat="48.25949" lon="-3.57866">
        <ele>125.19999694824</ele>
        <time>2020-10-18T12:34:18.000Z</time>
      </trkpt>
      <trkpt lat="48.25941" lon="-3.57867">
        <ele>125.19999694824</ele>
        <time>2020-10-18T12:34:19.000Z</time>
      </trkpt>
      <trkpt lat="48.25941" lon="-3.57867">
        <ele>125.19999694824</ele>
        <time>2020-10-18T12:34:20.000Z</time>
      </trkpt>
      <trkpt lat="48.25936" lon="-3.57868">
        <ele>125.19999694824</ele>
        <time>2020-10-18T12:34:21.000Z</time>
      </trkpt>
      <trkpt lat="48.25926" lon="-3.57871">
        <ele>125.19999694824</ele>
        <time>2020-10-18T12:34:22.000Z</time>
      </trkpt>
      <trkpt lat="48.25926" lon="-3.57871">
        <ele>125.19999694824</ele>
        <time>2020-10-18T12:34:23.000Z</time>
      </trkpt>
      <trkpt lat="48.25921" lon="-3.57873">
        <ele>125.19999694824</ele>
        <time>2020-10-18T12:34:24.000Z</time>
      </trkpt>
      <trkpt lat="48.25912" lon="-3.57876">
        <ele>125.19999694824</ele>
        <time>2020-10-18T12:34:25.000Z</time>
      </trkpt>
      <trkpt lat="48.25912" lon="-3.57876">
        <ele>125.19999694824</ele>
        <time>2020-10-18T12:34:26.000Z</time>
      </trkpt>
      <trkpt lat="48.25908" lon="-3.57877">
        <ele>125.40000152588</ele>
        <time>2020-10-18T12:34:27.000Z</time>
      </trkpt>
      <trkpt lat="48.25899" lon="-3.57879">
        <ele>125.40000152588</ele>
        <time>2020-10-18T12:34:28.000Z</time>
      </trkpt>
      <trkpt lat="48.25899" lon="-3.57879">
        <ele>125.40000152588</ele>
        <time>2020-10-18T12:34:29.000Z</time>
      </trkpt>
      <trkpt lat="48.25889" lon="-3.5788">
        <ele>125.40000152588</ele>
        <time>2020-10-18T12:34:30.000Z</time>
      </trkpt>
      <trkpt lat="48.25889" lon="-3.5788">
        <ele>125.40000152588</ele>
        <time>2020-10-18T12:34:31.000Z</time>
      </trkpt>
      <trkpt lat="48.25881" lon="-3.57881">
        <ele>125.59999847412</ele>
        <time>2020-10-18T12:34:32.000Z</time>
      </trkpt>
      <trkpt lat="48.25881" lon="-3.57881">
        <ele>125.59999847412</ele>
        <time>2020-10-18T12:34:33.000Z</time>
      </trkpt>
      <trkpt lat="48.25871" lon="-3.57881">
        <ele>125.59999847412</ele>
        <time>2020-10-18T12:34:34.000Z</time>
      </trkpt>
      <trkpt lat="48.25867" lon="-3.57881">
        <ele>125.80000305176</ele>
        <time>2020-10-18T12:34:35.000Z</time>
      </trkpt>
      <trkpt lat="48.25867" lon="-3.57881">
        <ele>125.80000305176</ele>
        <time>2020-10-18T12:34:36.000Z</time>
      </trkpt>
      <trkpt lat="48.25857" lon="-3.57879">
        <ele>125.80000305176</ele>
        <time>2020-10-18T12:34:37.000Z</time>
      </trkpt>
      <trkpt lat="48.25857" lon="-3.57879">
        <ele>125.80000305176</ele>
        <time>2020-10-18T12:34:38.000Z</time>
      </trkpt>
      <trkpt lat="48.25852" lon="-3.57877">
        <ele>126</ele>
        <time>2020-10-18T12:34:39.000Z</time>
      </trkpt>
      <trkpt lat="48.25841" lon="-3.57872">
        <ele>126</ele>
        <time>2020-10-18T12:34:40.000Z</time>
      </trkpt>
      <trkpt lat="48.25841" lon="-3.57872">
        <ele>126</ele>
        <time>2020-10-18T12:34:41.000Z</time>
      </trkpt>
      <trkpt lat="48.25835" lon="-3.5787">
        <ele>126.19999694824</ele>
        <time>2020-10-18T12:34:42.000Z</time>
      </trkpt>
      <trkpt lat="48.25824" lon="-3.57866">
        <ele>126</ele>
        <time>2020-10-18T12:34:43.000Z</time>
      </trkpt>
      <trkpt lat="48.25824" lon="-3.57866">
        <ele>126</ele>
        <time>2020-10-18T12:34:44.000Z</time>
      </trkpt>
      <trkpt lat="48.25818" lon="-3.57864">
        <ele>125.80000305176</ele>
        <time>2020-10-18T12:34:45.000Z</time>
      </trkpt>
      <trkpt lat="48.25808" lon="-3.57858">
        <ele>125.40000152588</ele>
        <time>2020-10-18T12:34:46.000Z</time>
      </trkpt>
      <trkpt lat="48.25808" lon="-3.57858">
        <ele>125.40000152588</ele>
        <time>2020-10-18T12:34:47.000Z</time>
      </trkpt>
      <trkpt lat="48.25796" lon="-3.57853">
        <ele>124.80000305176</ele>
        <time>2020-10-18T12:34:48.000Z</time>
      </trkpt>
      <trkpt lat="48.25796" lon="-3.57853">
        <ele>124.80000305176</ele>
        <time>2020-10-18T12:34:49.000Z</time>
      </trkpt>
      <trkpt lat="48.25786" lon="-3.57849">
        <ele>124.59999847412</ele>
        <time>2020-10-18T12:34:50.000Z</time>
      </trkpt>
      <trkpt lat="48.25786" lon="-3.57849">
        <ele>124.59999847412</ele>
        <time>2020-10-18T12:34:51.000Z</time>
      </trkpt>
      <trkpt lat="48.25781" lon="-3.57847">
        <ele>124.40000152588</ele>
        <time>2020-10-18T12:34:52.000Z</time>
      </trkpt>
      <trkpt lat="48.2577" lon="-3.57843">
        <ele>124.19999694824</ele>
        <time>2020-10-18T12:34:53.000Z</time>
      </trkpt>
      <trkpt lat="48.25765" lon="-3.5784">
        <ele>124</ele>
        <time>2020-10-18T12:34:54.000Z</time>
      </trkpt>
      <trkpt lat="48.25765" lon="-3.5784">
        <ele>124</ele>
        <time>2020-10-18T12:34:55.000Z</time>
      </trkpt>
      <trkpt lat="48.2576" lon="-3.57838">
        <ele>123.80000305176</ele>
        <time>2020-10-18T12:34:56.000Z</time>
      </trkpt>
      <trkpt lat="48.2575" lon="-3.57832">
        <ele>123.19999694824</ele>
        <time>2020-10-18T12:34:57.000Z</time>
      </trkpt>
      <trkpt lat="48.2575" lon="-3.57832">
        <ele>123.19999694824</ele>
        <time>2020-10-18T12:34:58.000Z</time>
      </trkpt>
      <trkpt lat="48.25745" lon="-3.57829">
        <ele>122.80000305176</ele>
        <time>2020-10-18T12:34:59.000Z</time>
      </trkpt>
      <trkpt lat="48.25734" lon="-3.57823">
        <ele>122.19999694824</ele>
        <time>2020-10-18T12:35:00.000Z</time>
      </trkpt>
      <trkpt lat="48.25734" lon="-3.57823">
        <ele>122.19999694824</ele>
        <time>2020-10-18T12:35:01.000Z</time>
      </trkpt>
      <trkpt lat="48.25724" lon="-3.57818">
        <ele>121.80000305176</ele>
        <time>2020-10-18T12:35:02.000Z</time>
      </trkpt>
      <trkpt lat="48.25724" lon="-3.57818">
        <ele>121.80000305176</ele>
        <time>2020-10-18T12:35:03.000Z</time>
      </trkpt>
      <trkpt lat="48.25715" lon="-3.57814">
        <ele>121.40000152588</ele>
        <time>2020-10-18T12:35:04.000Z</time>
      </trkpt>
      <trkpt lat="48.25715" lon="-3.57814">
        <ele>121.40000152588</ele>
        <time>2020-10-18T12:35:05.000Z</time>
      </trkpt>
      <trkpt lat="48.2571" lon="-3.57813">
        <ele>121.19999694824</ele>
        <time>2020-10-18T12:35:06.000Z</time>
      </trkpt>
      <trkpt lat="48.25699" lon="-3.57812">
        <ele>121</ele>
        <time>2020-10-18T12:35:07.000Z</time>
      </trkpt>
      <trkpt lat="48.25699" lon="-3.57812">
        <ele>121</ele>
        <time>2020-10-18T12:35:08.000Z</time>
      </trkpt>
      <trkpt lat="48.25689" lon="-3.57812">
        <ele>120.80000305176</ele>
        <time>2020-10-18T12:35:09.000Z</time>
      </trkpt>
      <trkpt lat="48.25689" lon="-3.57812">
        <ele>120.80000305176</ele>
        <time>2020-10-18T12:35:10.000Z</time>
      </trkpt>
      <trkpt lat="48.25684" lon="-3.57812">
        <ele>120.59999847412</ele>
        <time>2020-10-18T12:35:11.000Z</time>
      </trkpt>
      <trkpt lat="48.25674" lon="-3.57811">
        <ele>120</ele>
        <time>2020-10-18T12:35:12.000Z</time>
      </trkpt>
      <trkpt lat="48.25674" lon="-3.57811">
        <ele>120</ele>
        <time>2020-10-18T12:35:13.000Z</time>
      </trkpt>
      <trkpt lat="48.25668" lon="-3.57811">
        <ele>119.59999847412</ele>
        <time>2020-10-18T12:35:14.000Z</time>
      </trkpt>
      <trkpt lat="48.25656" lon="-3.57808">
        <ele>118.59999847412</ele>
        <time>2020-10-18T12:35:15.000Z</time>
      </trkpt>
      <trkpt lat="48.25656" lon="-3.57808">
        <ele>118.59999847412</ele>
        <time>2020-10-18T12:35:16.000Z</time>
      </trkpt>
      <trkpt lat="48.25642" lon="-3.57807">
        <ele>117.40000152588</ele>
        <time>2020-10-18T12:35:17.000Z</time>
      </trkpt>
      <trkpt lat="48.25642" lon="-3.57807">
        <ele>117.40000152588</ele>
        <time>2020-10-18T12:35:18.000Z</time>
      </trkpt>
      <trkpt lat="48.25628" lon="-3.57809">
        <ele>116.19999694824</ele>
        <time>2020-10-18T12:35:19.000Z</time>
      </trkpt>
      <trkpt lat="48.25628" lon="-3.57809">
        <ele>116.19999694824</ele>
        <time>2020-10-18T12:35:20.000Z</time>
      </trkpt>
      <trkpt lat="48.25621" lon="-3.5781">
        <ele>115.59999847412</ele>
        <time>2020-10-18T12:35:21.000Z</time>
      </trkpt>
      <trkpt lat="48.25608" lon="-3.57814">
        <ele>114.40000152588</ele>
        <time>2020-10-18T12:35:22.000Z</time>
      </trkpt>
      <trkpt lat="48.25608" lon="-3.57814">
        <ele>114.40000152588</ele>
        <time>2020-10-18T12:35:23.000Z</time>
      </trkpt>
      <trkpt lat="48.25603" lon="-3.57815">
        <ele>114</ele>
        <time>2020-10-18T12:35:24.000Z</time>
      </trkpt>
      <trkpt lat="48.25591" lon="-3.5782">
        <ele>113.19999694824</ele>
        <time>2020-10-18T12:35:25.000Z</time>
      </trkpt>
      <trkpt lat="48.25591" lon="-3.5782">
        <ele>113.19999694824</ele>
        <time>2020-10-18T12:35:26.000Z</time>
      </trkpt>
      <trkpt lat="48.2558" lon="-3.57825">
        <ele>112.59999847412</ele>
        <time>2020-10-18T12:35:27.000Z</time>
      </trkpt>
      <trkpt lat="48.2558" lon="-3.57825">
        <ele>112.59999847412</ele>
        <time>2020-10-18T12:35:28.000Z</time>
      </trkpt>
      <trkpt lat="48.25573" lon="-3.57828">
        <ele>112.19999694824</ele>
        <time>2020-10-18T12:35:29.000Z</time>
      </trkpt>
      <trkpt lat="48.2556" lon="-3.57834">
        <ele>111.40000152588</ele>
        <time>2020-10-18T12:35:30.000Z</time>
      </trkpt>
      <trkpt lat="48.2556" lon="-3.57834">
        <ele>111.40000152588</ele>
        <time>2020-10-18T12:35:31.000Z</time>
      </trkpt>
      <trkpt lat="48.25547" lon="-3.5784">
        <ele>110.80000305176</ele>
        <time>2020-10-18T12:35:32.000Z</time>
      </trkpt>
      <trkpt lat="48.25547" lon="-3.5784">
        <ele>110.80000305176</ele>
        <time>2020-10-18T12:35:33.000Z</time>
      </trkpt>
      <trkpt lat="48.25539" lon="-3.57842">
        <ele>110.40000152588</ele>
        <time>2020-10-18T12:35:34.000Z</time>
      </trkpt>
      <trkpt lat="48.25525" lon="-3.57848">
        <ele>109.59999847412</ele>
        <time>2020-10-18T12:35:35.000Z</time>
      </trkpt>
      <trkpt lat="48.25525" lon="-3.57848">
        <ele>109.59999847412</ele>
        <time>2020-10-18T12:35:36.000Z</time>
      </trkpt>
      <trkpt lat="48.25519" lon="-3.57852">
        <ele>109.40000152588</ele>
        <time>2020-10-18T12:35:37.000Z</time>
      </trkpt>
      <trkpt lat="48.25507" lon="-3.57861">
        <ele>108.80000305176</ele>
        <time>2020-10-18T12:35:38.000Z</time>
      </trkpt>
      <trkpt lat="48.25507" lon="-3.57861">
        <ele>108.80000305176</ele>
        <time>2020-10-18T12:35:39.000Z</time>
      </trkpt>
      <trkpt lat="48.25495" lon="-3.57872">
        <ele>108.40000152588</ele>
        <time>2020-10-18T12:35:40.000Z</time>
      </trkpt>
      <trkpt lat="48.25495" lon="-3.57872">
        <ele>108.40000152588</ele>
        <time>2020-10-18T12:35:41.000Z</time>
      </trkpt>
      <trkpt lat="48.2549" lon="-3.57877">
        <ele>108.19999694824</ele>
        <time>2020-10-18T12:35:42.000Z</time>
      </trkpt>
      <trkpt lat="48.25481" lon="-3.57885">
        <ele>107.80000305176</ele>
        <time>2020-10-18T12:35:43.000Z</time>
      </trkpt>
      <trkpt lat="48.25481" lon="-3.57885">
        <ele>107.80000305176</ele>
        <time>2020-10-18T12:35:44.000Z</time>
      </trkpt>
      <trkpt lat="48.25477" lon="-3.57888">
        <ele>107.80000305176</ele>
        <time>2020-10-18T12:35:45.000Z</time>
      </trkpt>
      <trkpt lat="48.2547" lon="-3.57896">
        <ele>107.40000152588</ele>
        <time>2020-10-18T12:35:46.000Z</time>
      </trkpt>
      <trkpt lat="48.25467" lon="-3.57899">
        <ele>107.40000152588</ele>
        <time>2020-10-18T12:35:47.000Z</time>
      </trkpt>
      <trkpt lat="48.25466" lon="-3.57903">
        <ele>107.40000152588</ele>
        <time>2020-10-18T12:35:48.000Z</time>
      </trkpt>
      <trkpt lat="48.25466" lon="-3.57903">
        <ele>107.40000152588</ele>
        <time>2020-10-18T12:35:49.000Z</time>
      </trkpt>
      <trkpt lat="48.25464" lon="-3.57906">
        <ele>107.40000152588</ele>
        <time>2020-10-18T12:35:50.000Z</time>
      </trkpt>
      <trkpt lat="48.2546" lon="-3.57911">
        <ele>107.19999694824</ele>
        <time>2020-10-18T12:35:51.000Z</time>
      </trkpt>
      <trkpt lat="48.2546" lon="-3.57911">
        <ele>107.19999694824</ele>
        <time>2020-10-18T12:35:52.000Z</time>
      </trkpt>
      <trkpt lat="48.25457" lon="-3.57912">
        <ele>107.19999694824</ele>
        <time>2020-10-18T12:35:53.000Z</time>
      </trkpt>
      <trkpt lat="48.25452" lon="-3.57913">
        <ele>106.80000305176</ele>
        <time>2020-10-18T12:35:54.000Z</time>
      </trkpt>
      <trkpt lat="48.25452" lon="-3.57913">
        <ele>106.80000305176</ele>
        <time>2020-10-18T12:35:55.000Z</time>
      </trkpt>
      <trkpt lat="48.25445" lon="-3.57915">
        <ele>106.40000152588</ele>
        <time>2020-10-18T12:35:56.000Z</time>
      </trkpt>
      <trkpt lat="48.25445" lon="-3.57915">
        <ele>106.40000152588</ele>
        <time>2020-10-18T12:35:57.000Z</time>
      </trkpt>
      <trkpt lat="48.25442" lon="-3.57917">
        <ele>106.19999694824</ele>
        <time>2020-10-18T12:35:58.000Z</time>
      </trkpt>
      <trkpt lat="48.25439" lon="-3.57922">
        <ele>106.19999694824</ele>
        <time>2020-10-18T12:35:59.000Z</time>
      </trkpt>
      <trkpt lat="48.25439" lon="-3.57922">
        <ele>106.19999694824</ele>
        <time>2020-10-18T12:36:00.000Z</time>
      </trkpt>
      <trkpt lat="48.25437" lon="-3.57924">
        <ele>106.19999694824</ele>
        <time>2020-10-18T12:36:01.000Z</time>
      </trkpt>
      <trkpt lat="48.25434" lon="-3.57928">
        <ele>106.19999694824</ele>
        <time>2020-10-18T12:36:02.000Z</time>
      </trkpt>
      <trkpt lat="48.25434" lon="-3.57928">
        <ele>106.19999694824</ele>
        <time>2020-10-18T12:36:03.000Z</time>
      </trkpt>
      <trkpt lat="48.25433" lon="-3.5793">
        <ele>106</ele>
        <time>2020-10-18T12:36:04.000Z</time>
      </trkpt>
      <trkpt lat="48.25428" lon="-3.57934">
        <ele>106</ele>
        <time>2020-10-18T12:36:05.000Z</time>
      </trkpt>
      <trkpt lat="48.25428" lon="-3.57934">
        <ele>106</ele>
        <time>2020-10-18T12:36:06.000Z</time>
      </trkpt>
      <trkpt lat="48.25426" lon="-3.57937">
        <ele>106</ele>
        <time>2020-10-18T12:36:07.000Z</time>
      </trkpt>
      <trkpt lat="48.25421" lon="-3.57942">
        <ele>106</ele>
        <time>2020-10-18T12:36:08.000Z</time>
      </trkpt>
      <trkpt lat="48.25421" lon="-3.57942">
        <ele>106</ele>
        <time>2020-10-18T12:36:09.000Z</time>
      </trkpt>
      <trkpt lat="48.25419" lon="-3.57944">
        <ele>106</ele>
        <time>2020-10-18T12:36:10.000Z</time>
      </trkpt>
      <trkpt lat="48.25415" lon="-3.57948">
        <ele>105.80000305176</ele>
        <time>2020-10-18T12:36:11.000Z</time>
      </trkpt>
      <trkpt lat="48.25415" lon="-3.57948">
        <ele>105.80000305176</ele>
        <time>2020-10-18T12:36:12.000Z</time>
      </trkpt>
      <trkpt lat="48.25412" lon="-3.57949">
        <ele>105.80000305176</ele>
        <time>2020-10-18T12:36:13.000Z</time>
      </trkpt>
      <trkpt lat="48.25408" lon="-3.57953">
        <ele>105.80000305176</ele>
        <time>2020-10-18T12:36:14.000Z</time>
      </trkpt>
      <trkpt lat="48.25408" lon="-3.57953">
        <ele>105.80000305176</ele>
        <time>2020-10-18T12:36:15.000Z</time>
      </trkpt>
      <trkpt lat="48.25405" lon="-3.57956">
        <ele>105.80000305176</ele>
        <time>2020-10-18T12:36:16.000Z</time>
      </trkpt>
      <trkpt lat="48.25399" lon="-3.57962">
        <ele>105.80000305176</ele>
        <time>2020-10-18T12:36:17.000Z</time>
      </trkpt>
      <trkpt lat="48.25399" lon="-3.57962">
        <ele>105.80000305176</ele>
        <time>2020-10-18T12:36:18.000Z</time>
      </trkpt>
      <trkpt lat="48.25396" lon="-3.57965">
        <ele>105.80000305176</ele>
        <time>2020-10-18T12:36:19.000Z</time>
      </trkpt>
      <trkpt lat="48.2539" lon="-3.57972">
        <ele>105.80000305176</ele>
        <time>2020-10-18T12:36:20.000Z</time>
      </trkpt>
      <trkpt lat="48.2539" lon="-3.57972">
        <ele>105.80000305176</ele>
        <time>2020-10-18T12:36:21.000Z</time>
      </trkpt>
      <trkpt lat="48.25387" lon="-3.57975">
        <ele>105.80000305176</ele>
        <time>2020-10-18T12:36:22.000Z</time>
      </trkpt>
      <trkpt lat="48.2538" lon="-3.57981">
        <ele>105.80000305176</ele>
        <time>2020-10-18T12:36:23.000Z</time>
      </trkpt>
      <trkpt lat="48.2538" lon="-3.57981">
        <ele>105.80000305176</ele>
        <time>2020-10-18T12:36:24.000Z</time>
      </trkpt>
      <trkpt lat="48.25377" lon="-3.57984">
        <ele>105.80000305176</ele>
        <time>2020-10-18T12:36:25.000Z</time>
      </trkpt>
      <trkpt lat="48.25369" lon="-3.57989">
        <ele>105.59999847412</ele>
        <time>2020-10-18T12:36:26.000Z</time>
      </trkpt>
      <trkpt lat="48.25369" lon="-3.57989">
        <ele>105.59999847412</ele>
        <time>2020-10-18T12:36:27.000Z</time>
      </trkpt>
      <trkpt lat="48.25365" lon="-3.57993">
        <ele>105.59999847412</ele>
        <time>2020-10-18T12:36:28.000Z</time>
      </trkpt>
      <trkpt lat="48.25356" lon="-3.58">
        <ele>105.40000152588</ele>
        <time>2020-10-18T12:36:29.000Z</time>
      </trkpt>
      <trkpt lat="48.25356" lon="-3.58">
        <ele>105.40000152588</ele>
        <time>2020-10-18T12:36:30.000Z</time>
      </trkpt>
      <trkpt lat="48.25352" lon="-3.58004">
        <ele>105.40000152588</ele>
        <time>2020-10-18T12:36:31.000Z</time>
      </trkpt>
      <trkpt lat="48.25343" lon="-3.5801">
        <ele>105.19999694824</ele>
        <time>2020-10-18T12:36:32.000Z</time>
      </trkpt>
      <trkpt lat="48.25338" lon="-3.58013">
        <ele>105.19999694824</ele>
        <time>2020-10-18T12:36:33.000Z</time>
      </trkpt>
      <trkpt lat="48.25338" lon="-3.58013">
        <ele>105.19999694824</ele>
        <time>2020-10-18T12:36:34.000Z</time>
      </trkpt>
      <trkpt lat="48.25329" lon="-3.58021">
        <ele>105.19999694824</ele>
        <time>2020-10-18T12:36:35.000Z</time>
      </trkpt>
      <trkpt lat="48.25329" lon="-3.58021">
        <ele>105.19999694824</ele>
        <time>2020-10-18T12:36:36.000Z</time>
      </trkpt>
      <trkpt lat="48.25324" lon="-3.58024">
        <ele>105.19999694824</ele>
        <time>2020-10-18T12:36:37.000Z</time>
      </trkpt>
      <trkpt lat="48.25314" lon="-3.58031">
        <ele>105.19999694824</ele>
        <time>2020-10-18T12:36:38.000Z</time>
      </trkpt>
      <trkpt lat="48.25314" lon="-3.58031">
        <ele>105.19999694824</ele>
        <time>2020-10-18T12:36:39.000Z</time>
      </trkpt>
      <trkpt lat="48.2531" lon="-3.58035">
        <ele>105</ele>
        <time>2020-10-18T12:36:40.000Z</time>
      </trkpt>
      <trkpt lat="48.25302" lon="-3.58042">
        <ele>105</ele>
        <time>2020-10-18T12:36:41.000Z</time>
      </trkpt>
      <trkpt lat="48.25302" lon="-3.58042">
        <ele>105</ele>
        <time>2020-10-18T12:36:42.000Z</time>
      </trkpt>
      <trkpt lat="48.25297" lon="-3.58046">
        <ele>105</ele>
        <time>2020-10-18T12:36:43.000Z</time>
      </trkpt>
      <trkpt lat="48.2529" lon="-3.58053">
        <ele>105</ele>
        <time>2020-10-18T12:36:44.000Z</time>
      </trkpt>
      <trkpt lat="48.2529" lon="-3.58053">
        <ele>105</ele>
        <time>2020-10-18T12:36:45.000Z</time>
      </trkpt>
      <trkpt lat="48.25287" lon="-3.58057">
        <ele>105</ele>
        <time>2020-10-18T12:36:46.000Z</time>
      </trkpt>
      <trkpt lat="48.25283" lon="-3.58061">
        <ele>105</ele>
        <time>2020-10-18T12:36:47.000Z</time>
      </trkpt>
      <trkpt lat="48.2528" lon="-3.58065">
        <ele>105</ele>
        <time>2020-10-18T12:36:48.000Z</time>
      </trkpt>
      <trkpt lat="48.25273" lon="-3.58072">
        <ele>105.19999694824</ele>
        <time>2020-10-18T12:36:49.000Z</time>
      </trkpt>
      <trkpt lat="48.25273" lon="-3.58072">
        <ele>105.19999694824</ele>
        <time>2020-10-18T12:36:50.000Z</time>
      </trkpt>
      <trkpt lat="48.2527" lon="-3.58076">
        <ele>105.19999694824</ele>
        <time>2020-10-18T12:36:51.000Z</time>
      </trkpt>
      <trkpt lat="48.25263" lon="-3.58083">
        <ele>105.19999694824</ele>
        <time>2020-10-18T12:36:52.000Z</time>
      </trkpt>
      <trkpt lat="48.25259" lon="-3.58088">
        <ele>105</ele>
        <time>2020-10-18T12:36:53.000Z</time>
      </trkpt>
      <trkpt lat="48.25259" lon="-3.58088">
        <ele>105</ele>
        <time>2020-10-18T12:36:54.000Z</time>
      </trkpt>
      <trkpt lat="48.25255" lon="-3.58092">
        <ele>104.80000305176</ele>
        <time>2020-10-18T12:36:55.000Z</time>
      </trkpt>
      <trkpt lat="48.25247" lon="-3.58102">
        <ele>104.80000305176</ele>
        <time>2020-10-18T12:36:56.000Z</time>
      </trkpt>
      <trkpt lat="48.25247" lon="-3.58102">
        <ele>104.80000305176</ele>
        <time>2020-10-18T12:36:57.000Z</time>
      </trkpt>
      <trkpt lat="48.25244" lon="-3.58107">
        <ele>104.59999847412</ele>
        <time>2020-10-18T12:36:58.000Z</time>
      </trkpt>
      <trkpt lat="48.25236" lon="-3.58116">
        <ele>104.40000152588</ele>
        <time>2020-10-18T12:36:59.000Z</time>
      </trkpt>
      <trkpt lat="48.25236" lon="-3.58116">
        <ele>104.40000152588</ele>
        <time>2020-10-18T12:37:00.000Z</time>
      </trkpt>
      <trkpt lat="48.25233" lon="-3.58121">
        <ele>104.19999694824</ele>
        <time>2020-10-18T12:37:01.000Z</time>
      </trkpt>
      <trkpt lat="48.25225" lon="-3.58131">
        <ele>104</ele>
        <time>2020-10-18T12:37:02.000Z</time>
      </trkpt>
      <trkpt lat="48.25225" lon="-3.58131">
        <ele>104</ele>
        <time>2020-10-18T12:37:03.000Z</time>
      </trkpt>
      <trkpt lat="48.25215" lon="-3.58141">
        <ele>103.40000152588</ele>
        <time>2020-10-18T12:37:04.000Z</time>
      </trkpt>
      <trkpt lat="48.25215" lon="-3.58141">
        <ele>103.40000152588</ele>
        <time>2020-10-18T12:37:05.000Z</time>
      </trkpt>
      <trkpt lat="48.2521" lon="-3.58148">
        <ele>103.19999694824</ele>
        <time>2020-10-18T12:37:06.000Z</time>
      </trkpt>
      <trkpt lat="48.25201" lon="-3.58161">
        <ele>103</ele>
        <time>2020-10-18T12:37:07.000Z</time>
      </trkpt>
      <trkpt lat="48.25201" lon="-3.58161">
        <ele>103</ele>
        <time>2020-10-18T12:37:08.000Z</time>
      </trkpt>
      <trkpt lat="48.25197" lon="-3.58167">
        <ele>102.80000305176</ele>
        <time>2020-10-18T12:37:09.000Z</time>
      </trkpt>
      <trkpt lat="48.25189" lon="-3.5818">
        <ele>102.59999847412</ele>
        <time>2020-10-18T12:37:10.000Z</time>
      </trkpt>
      <trkpt lat="48.25189" lon="-3.5818">
        <ele>102.59999847412</ele>
        <time>2020-10-18T12:37:11.000Z</time>
      </trkpt>
      <trkpt lat="48.25185" lon="-3.58187">
        <ele>102.40000152588</ele>
        <time>2020-10-18T12:37:12.000Z</time>
      </trkpt>
      <trkpt lat="48.25177" lon="-3.58201">
        <ele>102.40000152588</ele>
        <time>2020-10-18T12:37:13.000Z</time>
      </trkpt>
      <trkpt lat="48.25177" lon="-3.58201">
        <ele>102.40000152588</ele>
        <time>2020-10-18T12:37:14.000Z</time>
      </trkpt>
      <trkpt lat="48.25173" lon="-3.58208">
        <ele>102.40000152588</ele>
        <time>2020-10-18T12:37:15.000Z</time>
      </trkpt>
      <trkpt lat="48.25164" lon="-3.5822">
        <ele>102</ele>
        <time>2020-10-18T12:37:16.000Z</time>
      </trkpt>
      <trkpt lat="48.25164" lon="-3.5822">
        <ele>102</ele>
        <time>2020-10-18T12:37:17.000Z</time>
      </trkpt>
      <trkpt lat="48.2516" lon="-3.58226">
        <ele>101.80000305176</ele>
        <time>2020-10-18T12:37:18.000Z</time>
      </trkpt>
      <trkpt lat="48.25151" lon="-3.58238">
        <ele>101.59999847412</ele>
        <time>2020-10-18T12:37:19.000Z</time>
      </trkpt>
      <trkpt lat="48.25151" lon="-3.58238">
        <ele>101.59999847412</ele>
        <time>2020-10-18T12:37:20.000Z</time>
      </trkpt>
      <trkpt lat="48.25147" lon="-3.58245">
        <ele>101.40000152588</ele>
        <time>2020-10-18T12:37:21.000Z</time>
      </trkpt>
      <trkpt lat="48.2514" lon="-3.58257">
        <ele>101.19999694824</ele>
        <time>2020-10-18T12:37:22.000Z</time>
      </trkpt>
      <trkpt lat="48.2514" lon="-3.58257">
        <ele>101.19999694824</ele>
        <time>2020-10-18T12:37:23.000Z</time>
      </trkpt>
      <trkpt lat="48.25136" lon="-3.58263">
        <ele>101.19999694824</ele>
        <time>2020-10-18T12:37:24.000Z</time>
      </trkpt>
      <trkpt lat="48.25127" lon="-3.58273">
        <ele>100.80000305176</ele>
        <time>2020-10-18T12:37:25.000Z</time>
      </trkpt>
      <trkpt lat="48.25127" lon="-3.58273">
        <ele>100.80000305176</ele>
        <time>2020-10-18T12:37:26.000Z</time>
      </trkpt>
      <trkpt lat="48.25122" lon="-3.58278">
        <ele>100.59999847412</ele>
        <time>2020-10-18T12:37:27.000Z</time>
      </trkpt>
      <trkpt lat="48.25113" lon="-3.58288">
        <ele>100.19999694824</ele>
        <time>2020-10-18T12:37:28.000Z</time>
      </trkpt>
      <trkpt lat="48.25113" lon="-3.58288">
        <ele>100.19999694824</ele>
        <time>2020-10-18T12:37:29.000Z</time>
      </trkpt>
      <trkpt lat="48.25108" lon="-3.58293">
        <ele>99.800003051758</ele>
        <time>2020-10-18T12:37:30.000Z</time>
      </trkpt>
      <trkpt lat="48.25099" lon="-3.58302">
        <ele>99.400001525879</ele>
        <time>2020-10-18T12:37:31.000Z</time>
      </trkpt>
      <trkpt lat="48.25094" lon="-3.58306">
        <ele>99.199996948242</ele>
        <time>2020-10-18T12:37:32.000Z</time>
      </trkpt>
      <trkpt lat="48.25094" lon="-3.58306">
        <ele>99.199996948242</ele>
        <time>2020-10-18T12:37:33.000Z</time>
      </trkpt>
      <trkpt lat="48.2509" lon="-3.58311">
        <ele>99.199996948242</ele>
        <time>2020-10-18T12:37:34.000Z</time>
      </trkpt>
      <trkpt lat="48.25081" lon="-3.58319">
        <ele>99</ele>
        <time>2020-10-18T12:37:35.000Z</time>
      </trkpt>
      <trkpt lat="48.25081" lon="-3.58319">
        <ele>99</ele>
        <time>2020-10-18T12:37:36.000Z</time>
      </trkpt>
      <trkpt lat="48.25075" lon="-3.58323">
        <ele>98.800003051758</ele>
        <time>2020-10-18T12:37:37.000Z</time>
      </trkpt>
      <trkpt lat="48.25067" lon="-3.58329">
        <ele>98.400001525879</ele>
        <time>2020-10-18T12:37:38.000Z</time>
      </trkpt>
      <trkpt lat="48.25067" lon="-3.58329">
        <ele>98.400001525879</ele>
        <time>2020-10-18T12:37:39.000Z</time>
      </trkpt>
      <trkpt lat="48.25064" lon="-3.5833">
        <ele>98.400001525879</ele>
        <time>2020-10-18T12:37:40.000Z</time>
      </trkpt>
      <trkpt lat="48.2506" lon="-3.58333">
        <ele>98.199996948242</ele>
        <time>2020-10-18T12:37:41.000Z</time>
      </trkpt>
      <trkpt lat="48.2506" lon="-3.58333">
        <ele>98.199996948242</ele>
        <time>2020-10-18T12:37:42.000Z</time>
      </trkpt>
      <trkpt lat="48.25058" lon="-3.58335">
        <ele>98</ele>
        <time>2020-10-18T12:37:43.000Z</time>
      </trkpt>
      <trkpt lat="48.25054" lon="-3.58339">
        <ele>98</ele>
        <time>2020-10-18T12:37:44.000Z</time>
      </trkpt>
      <trkpt lat="48.25054" lon="-3.58339">
        <ele>98</ele>
        <time>2020-10-18T12:37:45.000Z</time>
      </trkpt>
      <trkpt lat="48.25052" lon="-3.58341">
        <ele>98</ele>
        <time>2020-10-18T12:37:46.000Z</time>
      </trkpt>
      <trkpt lat="48.25045" lon="-3.58343">
        <ele>97.599998474121</ele>
        <time>2020-10-18T12:37:47.000Z</time>
      </trkpt>
      <trkpt lat="48.25045" lon="-3.58343">
        <ele>97.599998474121</ele>
        <time>2020-10-18T12:37:48.000Z</time>
      </trkpt>
      <trkpt lat="48.25036" lon="-3.58345">
        <ele>97.199996948242</ele>
        <time>2020-10-18T12:37:49.000Z</time>
      </trkpt>
      <trkpt lat="48.25036" lon="-3.58345">
        <ele>97.199996948242</ele>
        <time>2020-10-18T12:37:50.000Z</time>
      </trkpt>
      <trkpt lat="48.25031" lon="-3.58346">
        <ele>97</ele>
        <time>2020-10-18T12:37:51.000Z</time>
      </trkpt>
      <trkpt lat="48.25021" lon="-3.58349">
        <ele>96.400001525879</ele>
        <time>2020-10-18T12:37:52.000Z</time>
      </trkpt>
      <trkpt lat="48.25021" lon="-3.58349">
        <ele>96.400001525879</ele>
        <time>2020-10-18T12:37:53.000Z</time>
      </trkpt>
      <trkpt lat="48.25016" lon="-3.58349">
        <ele>96.199996948242</ele>
        <time>2020-10-18T12:37:54.000Z</time>
      </trkpt>
      <trkpt lat="48.25007" lon="-3.58351">
        <ele>96</ele>
        <time>2020-10-18T12:37:55.000Z</time>
      </trkpt>
      <trkpt lat="48.25007" lon="-3.58351">
        <ele>96</ele>
        <time>2020-10-18T12:37:56.000Z</time>
      </trkpt>
      <trkpt lat="48.25001" lon="-3.58351">
        <ele>96.199996948242</ele>
        <time>2020-10-18T12:37:57.000Z</time>
      </trkpt>
      <trkpt lat="48.24991" lon="-3.58352">
        <ele>96.400001525879</ele>
        <time>2020-10-18T12:37:58.000Z</time>
      </trkpt>
      <trkpt lat="48.24991" lon="-3.58352">
        <ele>96.400001525879</ele>
        <time>2020-10-18T12:37:59.000Z</time>
      </trkpt>
      <trkpt lat="48.24986" lon="-3.58352">
        <ele>96.400001525879</ele>
        <time>2020-10-18T12:38:00.000Z</time>
      </trkpt>
      <trkpt lat="48.24975" lon="-3.58349">
        <ele>96.400001525879</ele>
        <time>2020-10-18T12:38:01.000Z</time>
      </trkpt>
      <trkpt lat="48.24975" lon="-3.58349">
        <ele>96.400001525879</ele>
        <time>2020-10-18T12:38:02.000Z</time>
      </trkpt>
      <trkpt lat="48.2497" lon="-3.58348">
        <ele>96.400001525879</ele>
        <time>2020-10-18T12:38:03.000Z</time>
      </trkpt>
      <trkpt lat="48.24959" lon="-3.58345">
        <ele>96.400001525879</ele>
        <time>2020-10-18T12:38:04.000Z</time>
      </trkpt>
      <trkpt lat="48.24959" lon="-3.58345">
        <ele>96.400001525879</ele>
        <time>2020-10-18T12:38:05.000Z</time>
      </trkpt>
      <trkpt lat="48.24954" lon="-3.58343">
        <ele>96.400001525879</ele>
        <time>2020-10-18T12:38:06.000Z</time>
      </trkpt>
      <trkpt lat="48.24944" lon="-3.58337">
        <ele>96.199996948242</ele>
        <time>2020-10-18T12:38:07.000Z</time>
      </trkpt>
      <trkpt lat="48.24944" lon="-3.58337">
        <ele>96.199996948242</ele>
        <time>2020-10-18T12:38:08.000Z</time>
      </trkpt>
      <trkpt lat="48.24939" lon="-3.58334">
        <ele>95.800003051758</ele>
        <time>2020-10-18T12:38:09.000Z</time>
      </trkpt>
      <trkpt lat="48.24928" lon="-3.58327">
        <ele>94.599998474121</ele>
        <time>2020-10-18T12:38:10.000Z</time>
      </trkpt>
      <trkpt lat="48.24922" lon="-3.58323">
        <ele>94.400001525879</ele>
        <time>2020-10-18T12:38:11.000Z</time>
      </trkpt>
      <trkpt lat="48.24922" lon="-3.58323">
        <ele>94.400001525879</ele>
        <time>2020-10-18T12:38:12.000Z</time>
      </trkpt>
      <trkpt lat="48.24917" lon="-3.5832">
        <ele>94.199996948242</ele>
        <time>2020-10-18T12:38:13.000Z</time>
      </trkpt>
      <trkpt lat="48.24906" lon="-3.58315">
        <ele>93.800003051758</ele>
        <time>2020-10-18T12:38:14.000Z</time>
      </trkpt>
      <trkpt lat="48.24906" lon="-3.58315">
        <ele>93.800003051758</ele>
        <time>2020-10-18T12:38:15.000Z</time>
      </trkpt>
      <trkpt lat="48.24901" lon="-3.58312">
        <ele>93.599998474121</ele>
        <time>2020-10-18T12:38:16.000Z</time>
      </trkpt>
      <trkpt lat="48.24896" lon="-3.58309">
        <ele>93.400001525879</ele>
        <time>2020-10-18T12:38:17.000Z</time>
      </trkpt>
      <trkpt lat="48.24885" lon="-3.58304">
        <ele>92.800003051758</ele>
        <time>2020-10-18T12:38:18.000Z</time>
      </trkpt>
      <trkpt lat="48.24885" lon="-3.58304">
        <ele>92.800003051758</ele>
        <time>2020-10-18T12:38:19.000Z</time>
      </trkpt>
      <trkpt lat="48.24879" lon="-3.58302">
        <ele>92.400001525879</ele>
        <time>2020-10-18T12:38:20.000Z</time>
      </trkpt>
      <trkpt lat="48.24869" lon="-3.58298">
        <ele>91.800003051758</ele>
        <time>2020-10-18T12:38:21.000Z</time>
      </trkpt>
      <trkpt lat="48.24869" lon="-3.58298">
        <ele>91.800003051758</ele>
        <time>2020-10-18T12:38:22.000Z</time>
      </trkpt>
      <trkpt lat="48.24864" lon="-3.58296">
        <ele>91.599998474121</ele>
        <time>2020-10-18T12:38:23.000Z</time>
      </trkpt>
      <trkpt lat="48.24852" lon="-3.58293">
        <ele>91.199996948242</ele>
        <time>2020-10-18T12:38:24.000Z</time>
      </trkpt>
      <trkpt lat="48.24852" lon="-3.58293">
        <ele>91.199996948242</ele>
        <time>2020-10-18T12:38:25.000Z</time>
      </trkpt>
      <trkpt lat="48.24846" lon="-3.58292">
        <ele>91</ele>
        <time>2020-10-18T12:38:26.000Z</time>
      </trkpt>
      <trkpt lat="48.24835" lon="-3.58292">
        <ele>90.400001525879</ele>
        <time>2020-10-18T12:38:27.000Z</time>
      </trkpt>
      <trkpt lat="48.24835" lon="-3.58292">
        <ele>90.400001525879</ele>
        <time>2020-10-18T12:38:28.000Z</time>
      </trkpt>
      <trkpt lat="48.24829" lon="-3.58292">
        <ele>90</ele>
        <time>2020-10-18T12:38:29.000Z</time>
      </trkpt>
      <trkpt lat="48.24817" lon="-3.58293">
        <ele>89.400001525879</ele>
        <time>2020-10-18T12:38:30.000Z</time>
      </trkpt>
      <trkpt lat="48.24811" lon="-3.58294">
        <ele>89.199996948242</ele>
        <time>2020-10-18T12:38:31.000Z</time>
      </trkpt>
      <trkpt lat="48.24811" lon="-3.58294">
        <ele>89.199996948242</ele>
        <time>2020-10-18T12:38:32.000Z</time>
      </trkpt>
      <trkpt lat="48.24806" lon="-3.58296">
        <ele>89.199996948242</ele>
        <time>2020-10-18T12:38:33.000Z</time>
      </trkpt>
      <trkpt lat="48.24795" lon="-3.583">
        <ele>89</ele>
        <time>2020-10-18T12:38:34.000Z</time>
      </trkpt>
      <trkpt lat="48.24795" lon="-3.583">
        <ele>89</ele>
        <time>2020-10-18T12:38:35.000Z</time>
      </trkpt>
      <trkpt lat="48.24784" lon="-3.58305">
        <ele>88.800003051758</ele>
        <time>2020-10-18T12:38:36.000Z</time>
      </trkpt>
      <trkpt lat="48.24784" lon="-3.58305">
        <ele>88.800003051758</ele>
        <time>2020-10-18T12:38:37.000Z</time>
      </trkpt>
      <trkpt lat="48.24779" lon="-3.58308">
        <ele>89</ele>
        <time>2020-10-18T12:38:38.000Z</time>
      </trkpt>
      <trkpt lat="48.24769" lon="-3.58314">
        <ele>89</ele>
        <time>2020-10-18T12:38:39.000Z</time>
      </trkpt>
      <trkpt lat="48.24769" lon="-3.58314">
        <ele>89</ele>
        <time>2020-10-18T12:38:40.000Z</time>
      </trkpt>
      <trkpt lat="48.24765" lon="-3.58316">
        <ele>89.199996948242</ele>
        <time>2020-10-18T12:38:41.000Z</time>
      </trkpt>
      <trkpt lat="48.24755" lon="-3.58323">
        <ele>89.199996948242</ele>
        <time>2020-10-18T12:38:42.000Z</time>
      </trkpt>
      <trkpt lat="48.24755" lon="-3.58323">
        <ele>89.199996948242</ele>
        <time>2020-10-18T12:38:43.000Z</time>
      </trkpt>
      <trkpt lat="48.2475" lon="-3.58326">
        <ele>89.199996948242</ele>
        <time>2020-10-18T12:38:44.000Z</time>
      </trkpt>
      <trkpt lat="48.24739" lon="-3.58333">
        <ele>89.199996948242</ele>
        <time>2020-10-18T12:38:45.000Z</time>
      </trkpt>
      <trkpt lat="48.24739" lon="-3.58333">
        <ele>89.199996948242</ele>
        <time>2020-10-18T12:38:46.000Z</time>
      </trkpt>
      <trkpt lat="48.2473" lon="-3.5834">
        <ele>89.199996948242</ele>
        <time>2020-10-18T12:38:47.000Z</time>
      </trkpt>
      <trkpt lat="48.2473" lon="-3.5834">
        <ele>89.199996948242</ele>
        <time>2020-10-18T12:38:48.000Z</time>
      </trkpt>
      <trkpt lat="48.2472" lon="-3.58348">
        <ele>89.400001525879</ele>
        <time>2020-10-18T12:38:49.000Z</time>
      </trkpt>
      <trkpt lat="48.24715" lon="-3.58352">
        <ele>89.599998474121</ele>
        <time>2020-10-18T12:38:50.000Z</time>
      </trkpt>
      <trkpt lat="48.24715" lon="-3.58352">
        <ele>89.599998474121</ele>
        <time>2020-10-18T12:38:51.000Z</time>
      </trkpt>
      <trkpt lat="48.24711" lon="-3.58356">
        <ele>89.599998474121</ele>
        <time>2020-10-18T12:38:52.000Z</time>
      </trkpt>
      <trkpt lat="48.24701" lon="-3.58364">
        <ele>89.400001525879</ele>
        <time>2020-10-18T12:38:53.000Z</time>
      </trkpt>
      <trkpt lat="48.24701" lon="-3.58364">
        <ele>89.400001525879</ele>
        <time>2020-10-18T12:38:54.000Z</time>
      </trkpt>
      <trkpt lat="48.24695" lon="-3.58369">
        <ele>89.400001525879</ele>
        <time>2020-10-18T12:38:55.000Z</time>
      </trkpt>
      <trkpt lat="48.24684" lon="-3.58379">
        <ele>89.400001525879</ele>
        <time>2020-10-18T12:38:56.000Z</time>
      </trkpt>
      <trkpt lat="48.24684" lon="-3.58379">
        <ele>89.400001525879</ele>
        <time>2020-10-18T12:38:57.000Z</time>
      </trkpt>
      <trkpt lat="48.24679" lon="-3.58384">
        <ele>89.599998474121</ele>
        <time>2020-10-18T12:38:58.000Z</time>
      </trkpt>
      <trkpt lat="48.2467" lon="-3.58394">
        <ele>89.400001525879</ele>
        <time>2020-10-18T12:38:59.000Z</time>
      </trkpt>
      <trkpt lat="48.2467" lon="-3.58394">
        <ele>89.400001525879</ele>
        <time>2020-10-18T12:39:00.000Z</time>
      </trkpt>
      <trkpt lat="48.24665" lon="-3.58399">
        <ele>89.400001525879</ele>
        <time>2020-10-18T12:39:01.000Z</time>
      </trkpt>
      <trkpt lat="48.24655" lon="-3.58409">
        <ele>89.199996948242</ele>
        <time>2020-10-18T12:39:02.000Z</time>
      </trkpt>
      <trkpt lat="48.24655" lon="-3.58409">
        <ele>89.199996948242</ele>
        <time>2020-10-18T12:39:03.000Z</time>
      </trkpt>
      <trkpt lat="48.24645" lon="-3.58419">
        <ele>89.199996948242</ele>
        <time>2020-10-18T12:39:04.000Z</time>
      </trkpt>
      <trkpt lat="48.24645" lon="-3.58419">
        <ele>89.199996948242</ele>
        <time>2020-10-18T12:39:05.000Z</time>
      </trkpt>
      <trkpt lat="48.24642" lon="-3.58424">
        <ele>89.400001525879</ele>
        <time>2020-10-18T12:39:06.000Z</time>
      </trkpt>
      <trkpt lat="48.24634" lon="-3.58438">
        <ele>89.599998474121</ele>
        <time>2020-10-18T12:39:07.000Z</time>
      </trkpt>
      <trkpt lat="48.24634" lon="-3.58438">
        <ele>89.599998474121</ele>
        <time>2020-10-18T12:39:08.000Z</time>
      </trkpt>
      <trkpt lat="48.24629" lon="-3.58444">
        <ele>89</ele>
        <time>2020-10-18T12:39:09.000Z</time>
      </trkpt>
      <trkpt lat="48.24621" lon="-3.58457">
        <ele>88</ele>
        <time>2020-10-18T12:39:10.000Z</time>
      </trkpt>
      <trkpt lat="48.24621" lon="-3.58457">
        <ele>88</ele>
        <time>2020-10-18T12:39:11.000Z</time>
      </trkpt>
      <trkpt lat="48.24616" lon="-3.58463">
        <ele>87.400001525879</ele>
        <time>2020-10-18T12:39:12.000Z</time>
      </trkpt>
      <trkpt lat="48.2461" lon="-3.58475">
        <ele>86.800003051758</ele>
        <time>2020-10-18T12:39:13.000Z</time>
      </trkpt>
      <trkpt lat="48.2461" lon="-3.58475">
        <ele>86.800003051758</ele>
        <time>2020-10-18T12:39:14.000Z</time>
      </trkpt>
      <trkpt lat="48.24604" lon="-3.58481">
        <ele>86</ele>
        <time>2020-10-18T12:39:15.000Z</time>
      </trkpt>
      <trkpt lat="48.24596" lon="-3.58494">
        <ele>85</ele>
        <time>2020-10-18T12:39:16.000Z</time>
      </trkpt>
      <trkpt lat="48.24596" lon="-3.58494">
        <ele>85</ele>
        <time>2020-10-18T12:39:17.000Z</time>
      </trkpt>
      <trkpt lat="48.24593" lon="-3.58502">
        <ele>84.800003051758</ele>
        <time>2020-10-18T12:39:18.000Z</time>
      </trkpt>
      <trkpt lat="48.24586" lon="-3.58517">
        <ele>84.400001525879</ele>
        <time>2020-10-18T12:39:19.000Z</time>
      </trkpt>
      <trkpt lat="48.24586" lon="-3.58517">
        <ele>84.400001525879</ele>
        <time>2020-10-18T12:39:20.000Z</time>
      </trkpt>
      <trkpt lat="48.24583" lon="-3.58525">
        <ele>84.199996948242</ele>
        <time>2020-10-18T12:39:21.000Z</time>
      </trkpt>
      <trkpt lat="48.24577" lon="-3.58537">
        <ele>84</ele>
        <time>2020-10-18T12:39:22.000Z</time>
      </trkpt>
      <trkpt lat="48.24577" lon="-3.58537">
        <ele>84</ele>
        <time>2020-10-18T12:39:23.000Z</time>
      </trkpt>
      <trkpt lat="48.24574" lon="-3.58543">
        <ele>84</ele>
        <time>2020-10-18T12:39:24.000Z</time>
      </trkpt>
      <trkpt lat="48.24568" lon="-3.58553">
        <ele>83.599998474121</ele>
        <time>2020-10-18T12:39:25.000Z</time>
      </trkpt>
      <trkpt lat="48.24568" lon="-3.58553">
        <ele>83.599998474121</ele>
        <time>2020-10-18T12:39:26.000Z</time>
      </trkpt>
      <trkpt lat="48.24566" lon="-3.58557">
        <ele>83.599998474121</ele>
        <time>2020-10-18T12:39:27.000Z</time>
      </trkpt>
      <trkpt lat="48.24563" lon="-3.58564">
        <ele>83.400001525879</ele>
        <time>2020-10-18T12:39:28.000Z</time>
      </trkpt>
      <trkpt lat="48.24563" lon="-3.58564">
        <ele>83.400001525879</ele>
        <time>2020-10-18T12:39:29.000Z</time>
      </trkpt>
      <trkpt lat="48.24562" lon="-3.58567">
        <ele>83.400001525879</ele>
        <time>2020-10-18T12:39:30.000Z</time>
      </trkpt>
      <trkpt lat="48.24559" lon="-3.58573">
        <ele>83.199996948242</ele>
        <time>2020-10-18T12:39:31.000Z</time>
      </trkpt>
      <trkpt lat="48.24559" lon="-3.58573">
        <ele>83.199996948242</ele>
        <time>2020-10-18T12:39:32.000Z</time>
      </trkpt>
      <trkpt lat="48.24557" lon="-3.58576">
        <ele>83.199996948242</ele>
        <time>2020-10-18T12:39:33.000Z</time>
      </trkpt>
      <trkpt lat="48.24556" lon="-3.58581">
        <ele>83</ele>
        <time>2020-10-18T12:39:34.000Z</time>
      </trkpt>
      <trkpt lat="48.24556" lon="-3.58581">
        <ele>83</ele>
        <time>2020-10-18T12:39:35.000Z</time>
      </trkpt>
      <trkpt lat="48.24555" lon="-3.58586">
        <ele>83</ele>
        <time>2020-10-18T12:39:36.000Z</time>
      </trkpt>
      <trkpt lat="48.24555" lon="-3.58586">
        <ele>83</ele>
        <time>2020-10-18T12:39:37.000Z</time>
      </trkpt>
      <trkpt lat="48.24554" lon="-3.58588">
        <ele>83</ele>
        <time>2020-10-18T12:39:38.000Z</time>
      </trkpt>
      <trkpt lat="48.24552" lon="-3.58594">
        <ele>83</ele>
        <time>2020-10-18T12:39:39.000Z</time>
      </trkpt>
      <trkpt lat="48.24552" lon="-3.58594">
        <ele>83</ele>
        <time>2020-10-18T12:39:40.000Z</time>
      </trkpt>
      <trkpt lat="48.2455" lon="-3.58601">
        <ele>82.800003051758</ele>
        <time>2020-10-18T12:39:41.000Z</time>
      </trkpt>
      <trkpt lat="48.2455" lon="-3.58601">
        <ele>82.800003051758</ele>
        <time>2020-10-18T12:39:42.000Z</time>
      </trkpt>
      <trkpt lat="48.24549" lon="-3.58605">
        <ele>82.800003051758</ele>
        <time>2020-10-18T12:39:43.000Z</time>
      </trkpt>
      <trkpt lat="48.24548" lon="-3.58614">
        <ele>82.800003051758</ele>
        <time>2020-10-18T12:39:44.000Z</time>
      </trkpt>
      <trkpt lat="48.24548" lon="-3.58614">
        <ele>82.800003051758</ele>
        <time>2020-10-18T12:39:45.000Z</time>
      </trkpt>
      <trkpt lat="48.24548" lon="-3.58618">
        <ele>82.599998474121</ele>
        <time>2020-10-18T12:39:46.000Z</time>
      </trkpt>
      <trkpt lat="48.24547" lon="-3.58624">
        <ele>82.599998474121</ele>
        <time>2020-10-18T12:39:47.000Z</time>
      </trkpt>
      <trkpt lat="48.24547" lon="-3.58624">
        <ele>82.599998474121</ele>
        <time>2020-10-18T12:39:48.000Z</time>
      </trkpt>
      <trkpt lat="48.24546" lon="-3.58631">
        <ele>82.599998474121</ele>
        <time>2020-10-18T12:39:49.000Z</time>
      </trkpt>
      <trkpt lat="48.24546" lon="-3.58631">
        <ele>82.599998474121</ele>
        <time>2020-10-18T12:39:50.000Z</time>
      </trkpt>
      <trkpt lat="48.24545" lon="-3.58635">
        <ele>82.599998474121</ele>
        <time>2020-10-18T12:39:51.000Z</time>
      </trkpt>
      <trkpt lat="48.24543" lon="-3.58645">
        <ele>82.400001525879</ele>
        <time>2020-10-18T12:39:52.000Z</time>
      </trkpt>
      <trkpt lat="48.24543" lon="-3.58645">
        <ele>82.400001525879</ele>
        <time>2020-10-18T12:39:53.000Z</time>
      </trkpt>
      <trkpt lat="48.24542" lon="-3.58649">
        <ele>82.400001525879</ele>
        <time>2020-10-18T12:39:54.000Z</time>
      </trkpt>
      <trkpt lat="48.24539" lon="-3.58657">
        <ele>82.199996948242</ele>
        <time>2020-10-18T12:39:55.000Z</time>
      </trkpt>
      <trkpt lat="48.24539" lon="-3.58657">
        <ele>82.199996948242</ele>
        <time>2020-10-18T12:39:56.000Z</time>
      </trkpt>
      <trkpt lat="48.24537" lon="-3.58661">
        <ele>82.199996948242</ele>
        <time>2020-10-18T12:39:57.000Z</time>
      </trkpt>
      <trkpt lat="48.24534" lon="-3.58669">
        <ele>82</ele>
        <time>2020-10-18T12:39:58.000Z</time>
      </trkpt>
      <trkpt lat="48.24534" lon="-3.58669">
        <ele>82</ele>
        <time>2020-10-18T12:39:59.000Z</time>
      </trkpt>
      <trkpt lat="48.24533" lon="-3.58672">
        <ele>82</ele>
        <time>2020-10-18T12:40:00.000Z</time>
      </trkpt>
      <trkpt lat="48.24531" lon="-3.58675">
        <ele>81.800003051758</ele>
        <time>2020-10-18T12:40:01.000Z</time>
      </trkpt>
      <trkpt lat="48.24531" lon="-3.58675">
        <ele>81.800003051758</ele>
        <time>2020-10-18T12:40:02.000Z</time>
      </trkpt>
      <trkpt lat="48.24529" lon="-3.58676">
        <ele>81.800003051758</ele>
        <time>2020-10-18T12:40:03.000Z</time>
      </trkpt>
      <trkpt lat="48.24525" lon="-3.58677">
        <ele>81.599998474121</ele>
        <time>2020-10-18T12:40:04.000Z</time>
      </trkpt>
      <trkpt lat="48.24525" lon="-3.58677">
        <ele>81.599998474121</ele>
        <time>2020-10-18T12:40:05.000Z</time>
      </trkpt>
      <trkpt lat="48.24523" lon="-3.58676">
        <ele>81.400001525879</ele>
        <time>2020-10-18T12:40:06.000Z</time>
      </trkpt>
      <trkpt lat="48.2452" lon="-3.58673">
        <ele>81.400001525879</ele>
        <time>2020-10-18T12:40:07.000Z</time>
      </trkpt>
      <trkpt lat="48.2452" lon="-3.58673">
        <ele>81.400001525879</ele>
        <time>2020-10-18T12:40:08.000Z</time>
      </trkpt>
      <trkpt lat="48.24515" lon="-3.58668">
        <ele>81.199996948242</ele>
        <time>2020-10-18T12:40:09.000Z</time>
      </trkpt>
      <trkpt lat="48.24515" lon="-3.58668">
        <ele>81.199996948242</ele>
        <time>2020-10-18T12:40:10.000Z</time>
      </trkpt>
      <trkpt lat="48.24513" lon="-3.58666">
        <ele>81</ele>
        <time>2020-10-18T12:40:11.000Z</time>
      </trkpt>
      <trkpt lat="48.24509" lon="-3.58661">
        <ele>81.199996948242</ele>
        <time>2020-10-18T12:40:12.000Z</time>
      </trkpt>
      <trkpt lat="48.24509" lon="-3.58661">
        <ele>81.199996948242</ele>
        <time>2020-10-18T12:40:13.000Z</time>
      </trkpt>
      <trkpt lat="48.24506" lon="-3.5866">
        <ele>81.400001525879</ele>
        <time>2020-10-18T12:40:14.000Z</time>
      </trkpt>
      <trkpt lat="48.24504" lon="-3.58652">
        <ele>81.599998474121</ele>
        <time>2020-10-18T12:40:15.000Z</time>
      </trkpt>
      <trkpt lat="48.24504" lon="-3.58652">
        <ele>81.599998474121</ele>
        <time>2020-10-18T12:40:16.000Z</time>
      </trkpt>
      <trkpt lat="48.24502" lon="-3.58651">
        <ele>81.800003051758</ele>
        <time>2020-10-18T12:40:17.000Z</time>
      </trkpt>
      <trkpt lat="48.24499" lon="-3.58644">
        <ele>82</ele>
        <time>2020-10-18T12:40:18.000Z</time>
      </trkpt>
      <trkpt lat="48.24499" lon="-3.58644">
        <ele>82</ele>
        <time>2020-10-18T12:40:19.000Z</time>
      </trkpt>
      <trkpt lat="48.24496" lon="-3.58642">
        <ele>82.199996948242</ele>
        <time>2020-10-18T12:40:20.000Z</time>
      </trkpt>
      <trkpt lat="48.24494" lon="-3.58639">
        <ele>82.400001525879</ele>
        <time>2020-10-18T12:40:21.000Z</time>
      </trkpt>
      <trkpt lat="48.24494" lon="-3.58639">
        <ele>82.400001525879</ele>
        <time>2020-10-18T12:40:22.000Z</time>
      </trkpt>
      <trkpt lat="48.24493" lon="-3.58636">
        <ele>82.400001525879</ele>
        <time>2020-10-18T12:40:23.000Z</time>
      </trkpt>
      <trkpt lat="48.2449" lon="-3.5863">
        <ele>82.599998474121</ele>
        <time>2020-10-18T12:40:24.000Z</time>
      </trkpt>
      <trkpt lat="48.2449" lon="-3.5863">
        <ele>82.599998474121</ele>
        <time>2020-10-18T12:40:25.000Z</time>
      </trkpt>
      <trkpt lat="48.24488" lon="-3.58628">
        <ele>82.800003051758</ele>
        <time>2020-10-18T12:40:26.000Z</time>
      </trkpt>
      <trkpt lat="48.24486" lon="-3.58622">
        <ele>83</ele>
        <time>2020-10-18T12:40:27.000Z</time>
      </trkpt>
      <trkpt lat="48.24486" lon="-3.58622">
        <ele>83</ele>
        <time>2020-10-18T12:40:28.000Z</time>
      </trkpt>
      <trkpt lat="48.24485" lon="-3.58618">
        <ele>83</ele>
        <time>2020-10-18T12:40:29.000Z</time>
      </trkpt>
      <trkpt lat="48.24483" lon="-3.58611">
        <ele>83.199996948242</ele>
        <time>2020-10-18T12:40:30.000Z</time>
      </trkpt>
      <trkpt lat="48.24483" lon="-3.58611">
        <ele>83.199996948242</ele>
        <time>2020-10-18T12:40:31.000Z</time>
      </trkpt>
      <trkpt lat="48.24482" lon="-3.58607">
        <ele>83.199996948242</ele>
        <time>2020-10-18T12:40:32.000Z</time>
      </trkpt>
      <trkpt lat="48.2448" lon="-3.58599">
        <ele>83.199996948242</ele>
        <time>2020-10-18T12:40:33.000Z</time>
      </trkpt>
      <trkpt lat="48.2448" lon="-3.58599">
        <ele>83.199996948242</ele>
        <time>2020-10-18T12:40:34.000Z</time>
      </trkpt>
      <trkpt lat="48.2448" lon="-3.58596">
        <ele>83.199996948242</ele>
        <time>2020-10-18T12:40:35.000Z</time>
      </trkpt>
      <trkpt lat="48.2448" lon="-3.58589">
        <ele>83.199996948242</ele>
        <time>2020-10-18T12:40:36.000Z</time>
      </trkpt>
      <trkpt lat="48.2448" lon="-3.58589">
        <ele>83.199996948242</ele>
        <time>2020-10-18T12:40:37.000Z</time>
      </trkpt>
      <trkpt lat="48.24479" lon="-3.58584">
        <ele>83.199996948242</ele>
        <time>2020-10-18T12:40:38.000Z</time>
      </trkpt>
      <trkpt lat="48.24479" lon="-3.58575">
        <ele>83.199996948242</ele>
        <time>2020-10-18T12:40:39.000Z</time>
      </trkpt>
      <trkpt lat="48.24479" lon="-3.58575">
        <ele>83.199996948242</ele>
        <time>2020-10-18T12:40:40.000Z</time>
      </trkpt>
      <trkpt lat="48.24478" lon="-3.58571">
        <ele>83</ele>
        <time>2020-10-18T12:40:41.000Z</time>
      </trkpt>
      <trkpt lat="48.24478" lon="-3.58563">
        <ele>83</ele>
        <time>2020-10-18T12:40:42.000Z</time>
      </trkpt>
      <trkpt lat="48.24478" lon="-3.58563">
        <ele>83</ele>
        <time>2020-10-18T12:40:43.000Z</time>
      </trkpt>
      <trkpt lat="48.24478" lon="-3.58559">
        <ele>83</ele>
        <time>2020-10-18T12:40:44.000Z</time>
      </trkpt>
      <trkpt lat="48.24478" lon="-3.58551">
        <ele>83</ele>
        <time>2020-10-18T12:40:45.000Z</time>
      </trkpt>
      <trkpt lat="48.24478" lon="-3.58551">
        <ele>83</ele>
        <time>2020-10-18T12:40:46.000Z</time>
      </trkpt>
      <trkpt lat="48.24479" lon="-3.58546">
        <ele>83</ele>
        <time>2020-10-18T12:40:47.000Z</time>
      </trkpt>
      <trkpt lat="48.24481" lon="-3.58536">
        <ele>83</ele>
        <time>2020-10-18T12:40:48.000Z</time>
      </trkpt>
      <trkpt lat="48.24481" lon="-3.58536">
        <ele>83</ele>
        <time>2020-10-18T12:40:49.000Z</time>
      </trkpt>
      <trkpt lat="48.24482" lon="-3.58531">
        <ele>83</ele>
        <time>2020-10-18T12:40:50.000Z</time>
      </trkpt>
      <trkpt lat="48.24485" lon="-3.5852">
        <ele>83</ele>
        <time>2020-10-18T12:40:51.000Z</time>
      </trkpt>
      <trkpt lat="48.24485" lon="-3.5852">
        <ele>83</ele>
        <time>2020-10-18T12:40:52.000Z</time>
      </trkpt>
      <trkpt lat="48.24486" lon="-3.58515">
        <ele>82.800003051758</ele>
        <time>2020-10-18T12:40:53.000Z</time>
      </trkpt>
      <trkpt lat="48.24491" lon="-3.58505">
        <ele>82.400001525879</ele>
        <time>2020-10-18T12:40:54.000Z</time>
      </trkpt>
      <trkpt lat="48.24491" lon="-3.58505">
        <ele>82.400001525879</ele>
        <time>2020-10-18T12:40:55.000Z</time>
      </trkpt>
      <trkpt lat="48.24493" lon="-3.585">
        <ele>82.199996948242</ele>
        <time>2020-10-18T12:40:56.000Z</time>
      </trkpt>
      <trkpt lat="48.24498" lon="-3.5849">
        <ele>81.599998474121</ele>
        <time>2020-10-18T12:40:57.000Z</time>
      </trkpt>
      <trkpt lat="48.24498" lon="-3.5849">
        <ele>81.599998474121</ele>
        <time>2020-10-18T12:40:58.000Z</time>
      </trkpt>
      <trkpt lat="48.24501" lon="-3.58485">
        <ele>81.199996948242</ele>
        <time>2020-10-18T12:40:59.000Z</time>
      </trkpt>
      <trkpt lat="48.24507" lon="-3.58477">
        <ele>80.599998474121</ele>
        <time>2020-10-18T12:41:00.000Z</time>
      </trkpt>
      <trkpt lat="48.24507" lon="-3.58477">
        <ele>80.599998474121</ele>
        <time>2020-10-18T12:41:01.000Z</time>
      </trkpt>
      <trkpt lat="48.24511" lon="-3.58473">
        <ele>80.199996948242</ele>
        <time>2020-10-18T12:41:02.000Z</time>
      </trkpt>
      <trkpt lat="48.24517" lon="-3.58466">
        <ele>80.400001525879</ele>
        <time>2020-10-18T12:41:03.000Z</time>
      </trkpt>
      <trkpt lat="48.24517" lon="-3.58466">
        <ele>80.400001525879</ele>
        <time>2020-10-18T12:41:04.000Z</time>
      </trkpt>
      <trkpt lat="48.24521" lon="-3.58462">
        <ele>80.400001525879</ele>
        <time>2020-10-18T12:41:05.000Z</time>
      </trkpt>
      <trkpt lat="48.24527" lon="-3.58456">
        <ele>80.800003051758</ele>
        <time>2020-10-18T12:41:06.000Z</time>
      </trkpt>
      <trkpt lat="48.24527" lon="-3.58456">
        <ele>80.800003051758</ele>
        <time>2020-10-18T12:41:07.000Z</time>
      </trkpt>
      <trkpt lat="48.24531" lon="-3.58453">
        <ele>81.199996948242</ele>
        <time>2020-10-18T12:41:08.000Z</time>
      </trkpt>
      <trkpt lat="48.24538" lon="-3.58447">
        <ele>81.599998474121</ele>
        <time>2020-10-18T12:41:09.000Z</time>
      </trkpt>
      <trkpt lat="48.24538" lon="-3.58447">
        <ele>81.599998474121</ele>
        <time>2020-10-18T12:41:10.000Z</time>
      </trkpt>
      <trkpt lat="48.24541" lon="-3.58443">
        <ele>81.800003051758</ele>
        <time>2020-10-18T12:41:11.000Z</time>
      </trkpt>
      <trkpt lat="48.24548" lon="-3.58437">
        <ele>82.199996948242</ele>
        <time>2020-10-18T12:41:12.000Z</time>
      </trkpt>
      <trkpt lat="48.24548" lon="-3.58437">
        <ele>82.199996948242</ele>
        <time>2020-10-18T12:41:13.000Z</time>
      </trkpt>
      <trkpt lat="48.24551" lon="-3.58434">
        <ele>82.199996948242</ele>
        <time>2020-10-18T12:41:14.000Z</time>
      </trkpt>
      <trkpt lat="48.24557" lon="-3.58428">
        <ele>82.400001525879</ele>
        <time>2020-10-18T12:41:15.000Z</time>
      </trkpt>
      <trkpt lat="48.24557" lon="-3.58428">
        <ele>82.400001525879</ele>
        <time>2020-10-18T12:41:16.000Z</time>
      </trkpt>
      <trkpt lat="48.2456" lon="-3.58426">
        <ele>82.400001525879</ele>
        <time>2020-10-18T12:41:17.000Z</time>
      </trkpt>
      <trkpt lat="48.24566" lon="-3.5842">
        <ele>82.599998474121</ele>
        <time>2020-10-18T12:41:18.000Z</time>
      </trkpt>
      <trkpt lat="48.24566" lon="-3.5842">
        <ele>82.599998474121</ele>
        <time>2020-10-18T12:41:19.000Z</time>
      </trkpt>
      <trkpt lat="48.24569" lon="-3.58416">
        <ele>82.599998474121</ele>
        <time>2020-10-18T12:41:20.000Z</time>
      </trkpt>
      <trkpt lat="48.24575" lon="-3.58409">
        <ele>82.599998474121</ele>
        <time>2020-10-18T12:41:21.000Z</time>
      </trkpt>
      <trkpt lat="48.24575" lon="-3.58409">
        <ele>82.599998474121</ele>
        <time>2020-10-18T12:41:22.000Z</time>
      </trkpt>
      <trkpt lat="48.24578" lon="-3.58406">
        <ele>82.599998474121</ele>
        <time>2020-10-18T12:41:23.000Z</time>
      </trkpt>
      <trkpt lat="48.24584" lon="-3.58399">
        <ele>82.599998474121</ele>
        <time>2020-10-18T12:41:24.000Z</time>
      </trkpt>
      <trkpt lat="48.24584" lon="-3.58399">
        <ele>82.599998474121</ele>
        <time>2020-10-18T12:41:25.000Z</time>
      </trkpt>
      <trkpt lat="48.24587" lon="-3.58396">
        <ele>82.599998474121</ele>
        <time>2020-10-18T12:41:26.000Z</time>
      </trkpt>
      <trkpt lat="48.24594" lon="-3.58389">
        <ele>82.599998474121</ele>
        <time>2020-10-18T12:41:27.000Z</time>
      </trkpt>
      <trkpt lat="48.24597" lon="-3.58386">
        <ele>82.800003051758</ele>
        <time>2020-10-18T12:41:28.000Z</time>
      </trkpt>
      <trkpt lat="48.24597" lon="-3.58386">
        <ele>82.800003051758</ele>
        <time>2020-10-18T12:41:29.000Z</time>
      </trkpt>
      <trkpt lat="48.246" lon="-3.58383">
        <ele>82.800003051758</ele>
        <time>2020-10-18T12:41:30.000Z</time>
      </trkpt>
      <trkpt lat="48.24606" lon="-3.58377">
        <ele>82.800003051758</ele>
        <time>2020-10-18T12:41:31.000Z</time>
      </trkpt>
      <trkpt lat="48.24606" lon="-3.58377">
        <ele>82.800003051758</ele>
        <time>2020-10-18T12:41:32.000Z</time>
      </trkpt>
      <trkpt lat="48.24612" lon="-3.58371">
        <ele>83</ele>
        <time>2020-10-18T12:41:33.000Z</time>
      </trkpt>
      <trkpt lat="48.24612" lon="-3.58371">
        <ele>83</ele>
        <time>2020-10-18T12:41:34.000Z</time>
      </trkpt>
      <trkpt lat="48.24618" lon="-3.58365">
        <ele>83</ele>
        <time>2020-10-18T12:41:35.000Z</time>
      </trkpt>
      <trkpt lat="48.24618" lon="-3.58365">
        <ele>83</ele>
        <time>2020-10-18T12:41:36.000Z</time>
      </trkpt>
      <trkpt lat="48.24627" lon="-3.5836">
        <ele>83.199996948242</ele>
        <time>2020-10-18T12:41:37.000Z</time>
      </trkpt>
      <trkpt lat="48.24627" lon="-3.5836">
        <ele>83.199996948242</ele>
        <time>2020-10-18T12:41:38.000Z</time>
      </trkpt>
      <trkpt lat="48.24631" lon="-3.58356">
        <ele>83.400001525879</ele>
        <time>2020-10-18T12:41:39.000Z</time>
      </trkpt>
      <trkpt lat="48.24639" lon="-3.58348">
        <ele>83.400001525879</ele>
        <time>2020-10-18T12:41:40.000Z</time>
      </trkpt>
      <trkpt lat="48.24639" lon="-3.58348">
        <ele>83.400001525879</ele>
        <time>2020-10-18T12:41:41.000Z</time>
      </trkpt>
      <trkpt lat="48.24646" lon="-3.58342">
        <ele>83.400001525879</ele>
        <time>2020-10-18T12:41:42.000Z</time>
      </trkpt>
      <trkpt lat="48.24646" lon="-3.58342">
        <ele>83.400001525879</ele>
        <time>2020-10-18T12:41:43.000Z</time>
      </trkpt>
      <trkpt lat="48.24648" lon="-3.58339">
        <ele>83.400001525879</ele>
        <time>2020-10-18T12:41:44.000Z</time>
      </trkpt>
      <trkpt lat="48.24657" lon="-3.58331">
        <ele>83.400001525879</ele>
        <time>2020-10-18T12:41:45.000Z</time>
      </trkpt>
      <trkpt lat="48.24657" lon="-3.58331">
        <ele>83.400001525879</ele>
        <time>2020-10-18T12:41:46.000Z</time>
      </trkpt>
      <trkpt lat="48.24662" lon="-3.58327">
        <ele>83.599998474121</ele>
        <time>2020-10-18T12:41:47.000Z</time>
      </trkpt>
      <trkpt lat="48.24671" lon="-3.58321">
        <ele>83.800003051758</ele>
        <time>2020-10-18T12:41:48.000Z</time>
      </trkpt>
      <trkpt lat="48.24671" lon="-3.58321">
        <ele>83.800003051758</ele>
        <time>2020-10-18T12:41:49.000Z</time>
      </trkpt>
      <trkpt lat="48.24676" lon="-3.58318">
        <ele>83.800003051758</ele>
        <time>2020-10-18T12:41:50.000Z</time>
      </trkpt>
      <trkpt lat="48.24685" lon="-3.58311">
        <ele>83.599998474121</ele>
        <time>2020-10-18T12:41:51.000Z</time>
      </trkpt>
      <trkpt lat="48.24685" lon="-3.58311">
        <ele>83.599998474121</ele>
        <time>2020-10-18T12:41:52.000Z</time>
      </trkpt>
      <trkpt lat="48.24689" lon="-3.58307">
        <ele>83.400001525879</ele>
        <time>2020-10-18T12:41:53.000Z</time>
      </trkpt>
      <trkpt lat="48.24696" lon="-3.58302">
        <ele>83.199996948242</ele>
        <time>2020-10-18T12:41:54.000Z</time>
      </trkpt>
      <trkpt lat="48.24696" lon="-3.58302">
        <ele>83.199996948242</ele>
        <time>2020-10-18T12:41:55.000Z</time>
      </trkpt>
      <trkpt lat="48.24699" lon="-3.58299">
        <ele>83.199996948242</ele>
        <time>2020-10-18T12:41:56.000Z</time>
      </trkpt>
      <trkpt lat="48.24706" lon="-3.58294">
        <ele>83</ele>
        <time>2020-10-18T12:41:57.000Z</time>
      </trkpt>
      <trkpt lat="48.24706" lon="-3.58294">
        <ele>83</ele>
        <time>2020-10-18T12:41:58.000Z</time>
      </trkpt>
      <trkpt lat="48.2471" lon="-3.58292">
        <ele>82.800003051758</ele>
        <time>2020-10-18T12:41:59.000Z</time>
      </trkpt>
      <trkpt lat="48.24717" lon="-3.58286">
        <ele>82.599998474121</ele>
        <time>2020-10-18T12:42:00.000Z</time>
      </trkpt>
      <trkpt lat="48.24717" lon="-3.58286">
        <ele>82.599998474121</ele>
        <time>2020-10-18T12:42:01.000Z</time>
      </trkpt>
      <trkpt lat="48.24721" lon="-3.58284">
        <ele>82.400001525879</ele>
        <time>2020-10-18T12:42:02.000Z</time>
      </trkpt>
      <trkpt lat="48.24727" lon="-3.5828">
        <ele>82.199996948242</ele>
        <time>2020-10-18T12:42:03.000Z</time>
      </trkpt>
      <trkpt lat="48.24727" lon="-3.5828">
        <ele>82.199996948242</ele>
        <time>2020-10-18T12:42:04.000Z</time>
      </trkpt>
      <trkpt lat="48.24729" lon="-3.58278">
        <ele>82.199996948242</ele>
        <time>2020-10-18T12:42:05.000Z</time>
      </trkpt>
      <trkpt lat="48.24735" lon="-3.58274">
        <ele>82</ele>
        <time>2020-10-18T12:42:06.000Z</time>
      </trkpt>
      <trkpt lat="48.24738" lon="-3.58271">
        <ele>82</ele>
        <time>2020-10-18T12:42:07.000Z</time>
      </trkpt>
      <trkpt lat="48.24738" lon="-3.58271">
        <ele>82</ele>
        <time>2020-10-18T12:42:08.000Z</time>
      </trkpt>
      <trkpt lat="48.24743" lon="-3.58266">
        <ele>81.800003051758</ele>
        <time>2020-10-18T12:42:09.000Z</time>
      </trkpt>
      <trkpt lat="48.24743" lon="-3.58266">
        <ele>81.800003051758</ele>
        <time>2020-10-18T12:42:10.000Z</time>
      </trkpt>
      <trkpt lat="48.24749" lon="-3.5826">
        <ele>81.599998474121</ele>
        <time>2020-10-18T12:42:11.000Z</time>
      </trkpt>
      <trkpt lat="48.24749" lon="-3.5826">
        <ele>81.599998474121</ele>
        <time>2020-10-18T12:42:12.000Z</time>
      </trkpt>
      <trkpt lat="48.24755" lon="-3.58254">
        <ele>81.599998474121</ele>
        <time>2020-10-18T12:42:13.000Z</time>
      </trkpt>
      <trkpt lat="48.24755" lon="-3.58254">
        <ele>81.599998474121</ele>
        <time>2020-10-18T12:42:14.000Z</time>
      </trkpt>
      <trkpt lat="48.24758" lon="-3.58251">
        <ele>81.599998474121</ele>
        <time>2020-10-18T12:42:15.000Z</time>
      </trkpt>
      <trkpt lat="48.24764" lon="-3.58245">
        <ele>81.400001525879</ele>
        <time>2020-10-18T12:42:16.000Z</time>
      </trkpt>
      <trkpt lat="48.24764" lon="-3.58245">
        <ele>81.400001525879</ele>
        <time>2020-10-18T12:42:17.000Z</time>
      </trkpt>
      <trkpt lat="48.24767" lon="-3.58242">
        <ele>81.400001525879</ele>
        <time>2020-10-18T12:42:18.000Z</time>
      </trkpt>
      <trkpt lat="48.24773" lon="-3.58236">
        <ele>81.400001525879</ele>
        <time>2020-10-18T12:42:19.000Z</time>
      </trkpt>
      <trkpt lat="48.24773" lon="-3.58236">
        <ele>81.400001525879</ele>
        <time>2020-10-18T12:42:20.000Z</time>
      </trkpt>
      <trkpt lat="48.24776" lon="-3.58232">
        <ele>81.400001525879</ele>
        <time>2020-10-18T12:42:21.000Z</time>
      </trkpt>
      <trkpt lat="48.24782" lon="-3.58225">
        <ele>81.199996948242</ele>
        <time>2020-10-18T12:42:22.000Z</time>
      </trkpt>
      <trkpt lat="48.24782" lon="-3.58225">
        <ele>81.199996948242</ele>
        <time>2020-10-18T12:42:23.000Z</time>
      </trkpt>
      <trkpt lat="48.24785" lon="-3.58222">
        <ele>81.199996948242</ele>
        <time>2020-10-18T12:42:24.000Z</time>
      </trkpt>
      <trkpt lat="48.2479" lon="-3.58213">
        <ele>81</ele>
        <time>2020-10-18T12:42:25.000Z</time>
      </trkpt>
      <trkpt lat="48.2479" lon="-3.58213">
        <ele>81</ele>
        <time>2020-10-18T12:42:26.000Z</time>
      </trkpt>
      <trkpt lat="48.24792" lon="-3.58209">
        <ele>81</ele>
        <time>2020-10-18T12:42:27.000Z</time>
      </trkpt>
      <trkpt lat="48.24796" lon="-3.582">
        <ele>80.800003051758</ele>
        <time>2020-10-18T12:42:28.000Z</time>
      </trkpt>
      <trkpt lat="48.24796" lon="-3.582">
        <ele>80.800003051758</ele>
        <time>2020-10-18T12:42:29.000Z</time>
      </trkpt>
      <trkpt lat="48.24798" lon="-3.58195">
        <ele>80.599998474121</ele>
        <time>2020-10-18T12:42:30.000Z</time>
      </trkpt>
      <trkpt lat="48.24801" lon="-3.58187">
        <ele>80.599998474121</ele>
        <time>2020-10-18T12:42:31.000Z</time>
      </trkpt>
      <trkpt lat="48.24801" lon="-3.58187">
        <ele>80.599998474121</ele>
        <time>2020-10-18T12:42:32.000Z</time>
      </trkpt>
      <trkpt lat="48.24802" lon="-3.58182">
        <ele>80.599998474121</ele>
        <time>2020-10-18T12:42:33.000Z</time>
      </trkpt>
      <trkpt lat="48.24805" lon="-3.58174">
        <ele>80.599998474121</ele>
        <time>2020-10-18T12:42:34.000Z</time>
      </trkpt>
      <trkpt lat="48.24805" lon="-3.58174">
        <ele>80.599998474121</ele>
        <time>2020-10-18T12:42:35.000Z</time>
      </trkpt>
      <trkpt lat="48.24806" lon="-3.5817">
        <ele>80.599998474121</ele>
        <time>2020-10-18T12:42:36.000Z</time>
      </trkpt>
      <trkpt lat="48.24807" lon="-3.58161">
        <ele>80.800003051758</ele>
        <time>2020-10-18T12:42:37.000Z</time>
      </trkpt>
      <trkpt lat="48.24807" lon="-3.58161">
        <ele>80.800003051758</ele>
        <time>2020-10-18T12:42:38.000Z</time>
      </trkpt>
      <trkpt lat="48.24808" lon="-3.58156">
        <ele>80.800003051758</ele>
        <time>2020-10-18T12:42:39.000Z</time>
      </trkpt>
      <trkpt lat="48.24809" lon="-3.58147">
        <ele>81</ele>
        <time>2020-10-18T12:42:40.000Z</time>
      </trkpt>
      <trkpt lat="48.24809" lon="-3.58147">
        <ele>81</ele>
        <time>2020-10-18T12:42:41.000Z</time>
      </trkpt>
      <trkpt lat="48.2481" lon="-3.58143">
        <ele>81</ele>
        <time>2020-10-18T12:42:42.000Z</time>
      </trkpt>
      <trkpt lat="48.24811" lon="-3.58133">
        <ele>81.199996948242</ele>
        <time>2020-10-18T12:42:43.000Z</time>
      </trkpt>
      <trkpt lat="48.24811" lon="-3.58133">
        <ele>81.199996948242</ele>
        <time>2020-10-18T12:42:44.000Z</time>
      </trkpt>
      <trkpt lat="48.24811" lon="-3.58127">
        <ele>81.199996948242</ele>
        <time>2020-10-18T12:42:45.000Z</time>
      </trkpt>
      <trkpt lat="48.24812" lon="-3.58117">
        <ele>81.400001525879</ele>
        <time>2020-10-18T12:42:46.000Z</time>
      </trkpt>
      <trkpt lat="48.24812" lon="-3.58117">
        <ele>81.400001525879</ele>
        <time>2020-10-18T12:42:47.000Z</time>
      </trkpt>
      <trkpt lat="48.24813" lon="-3.58111">
        <ele>81.400001525879</ele>
        <time>2020-10-18T12:42:48.000Z</time>
      </trkpt>
      <trkpt lat="48.24814" lon="-3.581">
        <ele>81.599998474121</ele>
        <time>2020-10-18T12:42:49.000Z</time>
      </trkpt>
      <trkpt lat="48.24814" lon="-3.581">
        <ele>81.599998474121</ele>
        <time>2020-10-18T12:42:50.000Z</time>
      </trkpt>
      <trkpt lat="48.24814" lon="-3.58095">
        <ele>81.599998474121</ele>
        <time>2020-10-18T12:42:51.000Z</time>
      </trkpt>
      <trkpt lat="48.24815" lon="-3.58086">
        <ele>81.400001525879</ele>
        <time>2020-10-18T12:42:52.000Z</time>
      </trkpt>
      <trkpt lat="48.24815" lon="-3.58086">
        <ele>81.400001525879</ele>
        <time>2020-10-18T12:42:53.000Z</time>
      </trkpt>
      <trkpt lat="48.24815" lon="-3.58082">
        <ele>81.400001525879</ele>
        <time>2020-10-18T12:42:54.000Z</time>
      </trkpt>
      <trkpt lat="48.24816" lon="-3.58075">
        <ele>81.400001525879</ele>
        <time>2020-10-18T12:42:55.000Z</time>
      </trkpt>
      <trkpt lat="48.24816" lon="-3.58075">
        <ele>81.400001525879</ele>
        <time>2020-10-18T12:42:56.000Z</time>
      </trkpt>
      <trkpt lat="48.24816" lon="-3.58071">
        <ele>81.199996948242</ele>
        <time>2020-10-18T12:42:57.000Z</time>
      </trkpt>
      <trkpt lat="48.24818" lon="-3.58064">
        <ele>81.199996948242</ele>
        <time>2020-10-18T12:42:58.000Z</time>
      </trkpt>
      <trkpt lat="48.24818" lon="-3.58064">
        <ele>81.199996948242</ele>
        <time>2020-10-18T12:42:59.000Z</time>
      </trkpt>
      <trkpt lat="48.24818" lon="-3.58061">
        <ele>81.199996948242</ele>
        <time>2020-10-18T12:43:00.000Z</time>
      </trkpt>
      <trkpt lat="48.24819" lon="-3.58054">
        <ele>81.199996948242</ele>
        <time>2020-10-18T12:43:01.000Z</time>
      </trkpt>
      <trkpt lat="48.24819" lon="-3.5805">
        <ele>81</ele>
        <time>2020-10-18T12:43:02.000Z</time>
      </trkpt>
      <trkpt lat="48.24819" lon="-3.5805">
        <ele>81</ele>
        <time>2020-10-18T12:43:03.000Z</time>
      </trkpt>
      <trkpt lat="48.2482" lon="-3.58046">
        <ele>81</ele>
        <time>2020-10-18T12:43:04.000Z</time>
      </trkpt>
      <trkpt lat="48.2482" lon="-3.58046">
        <ele>81</ele>
        <time>2020-10-18T12:43:05.000Z</time>
      </trkpt>
      <trkpt lat="48.2482" lon="-3.58041">
        <ele>81</ele>
        <time>2020-10-18T12:43:06.000Z</time>
      </trkpt>
      <trkpt lat="48.2482" lon="-3.58041">
        <ele>81</ele>
        <time>2020-10-18T12:43:07.000Z</time>
      </trkpt>
      <trkpt lat="48.24821" lon="-3.58039">
        <ele>80.800003051758</ele>
        <time>2020-10-18T12:43:08.000Z</time>
      </trkpt>
      <trkpt lat="48.24821" lon="-3.5803">
        <ele>80.599998474121</ele>
        <time>2020-10-18T12:43:09.000Z</time>
      </trkpt>
      <trkpt lat="48.24821" lon="-3.5803">
        <ele>80.599998474121</ele>
        <time>2020-10-18T12:43:10.000Z</time>
      </trkpt>
      <trkpt lat="48.24821" lon="-3.58023">
        <ele>80.599998474121</ele>
        <time>2020-10-18T12:43:11.000Z</time>
      </trkpt>
      <trkpt lat="48.24822" lon="-3.58007">
        <ele>80.199996948242</ele>
        <time>2020-10-18T12:43:12.000Z</time>
      </trkpt>
      <trkpt lat="48.24822" lon="-3.58007">
        <ele>80.199996948242</ele>
        <time>2020-10-18T12:43:13.000Z</time>
      </trkpt>
      <trkpt lat="48.24823" lon="-3.57998">
        <ele>80.199996948242</ele>
        <time>2020-10-18T12:43:14.000Z</time>
      </trkpt>
      <trkpt lat="48.24825" lon="-3.5798">
        <ele>80</ele>
        <time>2020-10-18T12:43:15.000Z</time>
      </trkpt>
      <trkpt lat="48.24825" lon="-3.5798">
        <ele>80</ele>
        <time>2020-10-18T12:43:16.000Z</time>
      </trkpt>
      <trkpt lat="48.24825" lon="-3.57972">
        <ele>80</ele>
        <time>2020-10-18T12:43:17.000Z</time>
      </trkpt>
      <trkpt lat="48.24827" lon="-3.57957">
        <ele>79.800003051758</ele>
        <time>2020-10-18T12:43:18.000Z</time>
      </trkpt>
      <trkpt lat="48.24827" lon="-3.57957">
        <ele>79.800003051758</ele>
        <time>2020-10-18T12:43:19.000Z</time>
      </trkpt>
      <trkpt lat="48.24827" lon="-3.5795">
        <ele>79.800003051758</ele>
        <time>2020-10-18T12:43:20.000Z</time>
      </trkpt>
      <trkpt lat="48.24828" lon="-3.57937">
        <ele>79.800003051758</ele>
        <time>2020-10-18T12:43:21.000Z</time>
      </trkpt>
      <trkpt lat="48.24828" lon="-3.57937">
        <ele>79.800003051758</ele>
        <time>2020-10-18T12:43:22.000Z</time>
      </trkpt>
      <trkpt lat="48.24828" lon="-3.57932">
        <ele>79.800003051758</ele>
        <time>2020-10-18T12:43:23.000Z</time>
      </trkpt>
      <trkpt lat="48.24829" lon="-3.57921">
        <ele>80</ele>
        <time>2020-10-18T12:43:24.000Z</time>
      </trkpt>
      <trkpt lat="48.24829" lon="-3.57921">
        <ele>80</ele>
        <time>2020-10-18T12:43:25.000Z</time>
      </trkpt>
      <trkpt lat="48.2483" lon="-3.57911">
        <ele>80</ele>
        <time>2020-10-18T12:43:26.000Z</time>
      </trkpt>
      <trkpt lat="48.2483" lon="-3.57911">
        <ele>80</ele>
        <time>2020-10-18T12:43:27.000Z</time>
      </trkpt>
      <trkpt lat="48.2483" lon="-3.57906">
        <ele>80.199996948242</ele>
        <time>2020-10-18T12:43:28.000Z</time>
      </trkpt>
      <trkpt lat="48.24831" lon="-3.57897">
        <ele>80.199996948242</ele>
        <time>2020-10-18T12:43:29.000Z</time>
      </trkpt>
      <trkpt lat="48.24831" lon="-3.57897">
        <ele>80.199996948242</ele>
        <time>2020-10-18T12:43:30.000Z</time>
      </trkpt>
      <trkpt lat="48.24831" lon="-3.57892">
        <ele>80.400001525879</ele>
        <time>2020-10-18T12:43:31.000Z</time>
      </trkpt>
      <trkpt lat="48.24832" lon="-3.57883">
        <ele>80.400001525879</ele>
        <time>2020-10-18T12:43:32.000Z</time>
      </trkpt>
      <trkpt lat="48.24832" lon="-3.57883">
        <ele>80.400001525879</ele>
        <time>2020-10-18T12:43:33.000Z</time>
      </trkpt>
      <trkpt lat="48.24832" lon="-3.57878">
        <ele>80.599998474121</ele>
        <time>2020-10-18T12:43:34.000Z</time>
      </trkpt>
      <trkpt lat="48.24833" lon="-3.57868">
        <ele>80.599998474121</ele>
        <time>2020-10-18T12:43:35.000Z</time>
      </trkpt>
      <trkpt lat="48.24833" lon="-3.57868">
        <ele>80.599998474121</ele>
        <time>2020-10-18T12:43:36.000Z</time>
      </trkpt>
      <trkpt lat="48.24833" lon="-3.57864">
        <ele>80.800003051758</ele>
        <time>2020-10-18T12:43:37.000Z</time>
      </trkpt>
      <trkpt lat="48.24835" lon="-3.57854">
        <ele>81</ele>
        <time>2020-10-18T12:43:38.000Z</time>
      </trkpt>
      <trkpt lat="48.24835" lon="-3.57854">
        <ele>81</ele>
        <time>2020-10-18T12:43:39.000Z</time>
      </trkpt>
      <trkpt lat="48.24836" lon="-3.57848">
        <ele>81</ele>
        <time>2020-10-18T12:43:40.000Z</time>
      </trkpt>
      <trkpt lat="48.24837" lon="-3.57837">
        <ele>81</ele>
        <time>2020-10-18T12:43:41.000Z</time>
      </trkpt>
      <trkpt lat="48.24837" lon="-3.57837">
        <ele>81</ele>
        <time>2020-10-18T12:43:42.000Z</time>
      </trkpt>
      <trkpt lat="48.24838" lon="-3.57826">
        <ele>81</ele>
        <time>2020-10-18T12:43:43.000Z</time>
      </trkpt>
      <trkpt lat="48.24838" lon="-3.57826">
        <ele>81</ele>
        <time>2020-10-18T12:43:44.000Z</time>
      </trkpt>
      <trkpt lat="48.24838" lon="-3.5782">
        <ele>81</ele>
        <time>2020-10-18T12:43:45.000Z</time>
      </trkpt>
      <trkpt lat="48.24838" lon="-3.57809">
        <ele>81</ele>
        <time>2020-10-18T12:43:46.000Z</time>
      </trkpt>
      <trkpt lat="48.24839" lon="-3.57803">
        <ele>81</ele>
        <time>2020-10-18T12:43:47.000Z</time>
      </trkpt>
      <trkpt lat="48.24839" lon="-3.57798">
        <ele>81</ele>
        <time>2020-10-18T12:43:48.000Z</time>
      </trkpt>
      <trkpt lat="48.24839" lon="-3.57798">
        <ele>81</ele>
        <time>2020-10-18T12:43:49.000Z</time>
      </trkpt>
      <trkpt lat="48.2484" lon="-3.57792">
        <ele>81</ele>
        <time>2020-10-18T12:43:50.000Z</time>
      </trkpt>
      <trkpt lat="48.24841" lon="-3.57781">
        <ele>81</ele>
        <time>2020-10-18T12:43:51.000Z</time>
      </trkpt>
      <trkpt lat="48.24841" lon="-3.57781">
        <ele>81</ele>
        <time>2020-10-18T12:43:52.000Z</time>
      </trkpt>
      <trkpt lat="48.24842" lon="-3.57775">
        <ele>81</ele>
        <time>2020-10-18T12:43:53.000Z</time>
      </trkpt>
      <trkpt lat="48.24844" lon="-3.57763">
        <ele>81.199996948242</ele>
        <time>2020-10-18T12:43:54.000Z</time>
      </trkpt>
      <trkpt lat="48.24844" lon="-3.57763">
        <ele>81.199996948242</ele>
        <time>2020-10-18T12:43:55.000Z</time>
      </trkpt>
      <trkpt lat="48.24844" lon="-3.57757">
        <ele>81.400001525879</ele>
        <time>2020-10-18T12:43:56.000Z</time>
      </trkpt>
      <trkpt lat="48.24846" lon="-3.57745">
        <ele>81.599998474121</ele>
        <time>2020-10-18T12:43:57.000Z</time>
      </trkpt>
      <trkpt lat="48.24846" lon="-3.57745">
        <ele>81.599998474121</ele>
        <time>2020-10-18T12:43:58.000Z</time>
      </trkpt>
      <trkpt lat="48.24846" lon="-3.57739">
        <ele>81.800003051758</ele>
        <time>2020-10-18T12:43:59.000Z</time>
      </trkpt>
      <trkpt lat="48.24847" lon="-3.57726">
        <ele>82</ele>
        <time>2020-10-18T12:44:00.000Z</time>
      </trkpt>
      <trkpt lat="48.24847" lon="-3.57726">
        <ele>82</ele>
        <time>2020-10-18T12:44:01.000Z</time>
      </trkpt>
      <trkpt lat="48.24847" lon="-3.57719">
        <ele>82.199996948242</ele>
        <time>2020-10-18T12:44:02.000Z</time>
      </trkpt>
      <trkpt lat="48.24848" lon="-3.57706">
        <ele>82.599998474121</ele>
        <time>2020-10-18T12:44:03.000Z</time>
      </trkpt>
      <trkpt lat="48.24848" lon="-3.57706">
        <ele>82.599998474121</ele>
        <time>2020-10-18T12:44:04.000Z</time>
      </trkpt>
      <trkpt lat="48.24849" lon="-3.57699">
        <ele>82.800003051758</ele>
        <time>2020-10-18T12:44:05.000Z</time>
      </trkpt>
      <trkpt lat="48.2485" lon="-3.57686">
        <ele>83.199996948242</ele>
        <time>2020-10-18T12:44:06.000Z</time>
      </trkpt>
      <trkpt lat="48.2485" lon="-3.57686">
        <ele>83.199996948242</ele>
        <time>2020-10-18T12:44:07.000Z</time>
      </trkpt>
      <trkpt lat="48.24851" lon="-3.57679">
        <ele>83.199996948242</ele>
        <time>2020-10-18T12:44:08.000Z</time>
      </trkpt>
      <trkpt lat="48.24852" lon="-3.57666">
        <ele>83.199996948242</ele>
        <time>2020-10-18T12:44:09.000Z</time>
      </trkpt>
      <trkpt lat="48.24852" lon="-3.57666">
        <ele>83.199996948242</ele>
        <time>2020-10-18T12:44:10.000Z</time>
      </trkpt>
      <trkpt lat="48.24853" lon="-3.57659">
        <ele>83.199996948242</ele>
        <time>2020-10-18T12:44:11.000Z</time>
      </trkpt>
      <trkpt lat="48.24854" lon="-3.57646">
        <ele>83.199996948242</ele>
        <time>2020-10-18T12:44:12.000Z</time>
      </trkpt>
      <trkpt lat="48.24854" lon="-3.57646">
        <ele>83.199996948242</ele>
        <time>2020-10-18T12:44:13.000Z</time>
      </trkpt>
      <trkpt lat="48.24854" lon="-3.5764">
        <ele>83.199996948242</ele>
        <time>2020-10-18T12:44:14.000Z</time>
      </trkpt>
      <trkpt lat="48.24855" lon="-3.57627">
        <ele>83.400001525879</ele>
        <time>2020-10-18T12:44:15.000Z</time>
      </trkpt>
      <trkpt lat="48.24855" lon="-3.57627">
        <ele>83.400001525879</ele>
        <time>2020-10-18T12:44:16.000Z</time>
      </trkpt>
      <trkpt lat="48.24855" lon="-3.5762">
        <ele>83.400001525879</ele>
        <time>2020-10-18T12:44:17.000Z</time>
      </trkpt>
      <trkpt lat="48.24857" lon="-3.57607">
        <ele>83.400001525879</ele>
        <time>2020-10-18T12:44:18.000Z</time>
      </trkpt>
      <trkpt lat="48.24857" lon="-3.57607">
        <ele>83.400001525879</ele>
        <time>2020-10-18T12:44:19.000Z</time>
      </trkpt>
      <trkpt lat="48.24857" lon="-3.57601">
        <ele>83.400001525879</ele>
        <time>2020-10-18T12:44:20.000Z</time>
      </trkpt>
      <trkpt lat="48.24858" lon="-3.57589">
        <ele>82.800003051758</ele>
        <time>2020-10-18T12:44:21.000Z</time>
      </trkpt>
      <trkpt lat="48.24858" lon="-3.57589">
        <ele>82.800003051758</ele>
        <time>2020-10-18T12:44:22.000Z</time>
      </trkpt>
      <trkpt lat="48.24858" lon="-3.57583">
        <ele>82.800003051758</ele>
        <time>2020-10-18T12:44:23.000Z</time>
      </trkpt>
      <trkpt lat="48.24859" lon="-3.5757">
        <ele>82.800003051758</ele>
        <time>2020-10-18T12:44:24.000Z</time>
      </trkpt>
      <trkpt lat="48.2486" lon="-3.57564">
        <ele>82.800003051758</ele>
        <time>2020-10-18T12:44:25.000Z</time>
      </trkpt>
      <trkpt lat="48.2486" lon="-3.57564">
        <ele>82.800003051758</ele>
        <time>2020-10-18T12:44:26.000Z</time>
      </trkpt>
      <trkpt lat="48.24861" lon="-3.57551">
        <ele>82.800003051758</ele>
        <time>2020-10-18T12:44:27.000Z</time>
      </trkpt>
      <trkpt lat="48.24861" lon="-3.57551">
        <ele>82.800003051758</ele>
        <time>2020-10-18T12:44:28.000Z</time>
      </trkpt>
      <trkpt lat="48.24862" lon="-3.57545">
        <ele>82.800003051758</ele>
        <time>2020-10-18T12:44:29.000Z</time>
      </trkpt>
      <trkpt lat="48.24863" lon="-3.57533">
        <ele>82.800003051758</ele>
        <time>2020-10-18T12:44:30.000Z</time>
      </trkpt>
      <trkpt lat="48.24863" lon="-3.57533">
        <ele>82.800003051758</ele>
        <time>2020-10-18T12:44:31.000Z</time>
      </trkpt>
      <trkpt lat="48.24864" lon="-3.57526">
        <ele>82.800003051758</ele>
        <time>2020-10-18T12:44:32.000Z</time>
      </trkpt>
      <trkpt lat="48.24865" lon="-3.57515">
        <ele>82.800003051758</ele>
        <time>2020-10-18T12:44:33.000Z</time>
      </trkpt>
      <trkpt lat="48.24865" lon="-3.57515">
        <ele>82.800003051758</ele>
        <time>2020-10-18T12:44:34.000Z</time>
      </trkpt>
      <trkpt lat="48.24865" lon="-3.57504">
        <ele>83.199996948242</ele>
        <time>2020-10-18T12:44:35.000Z</time>
      </trkpt>
      <trkpt lat="48.24865" lon="-3.57504">
        <ele>83.199996948242</ele>
        <time>2020-10-18T12:44:36.000Z</time>
      </trkpt>
      <trkpt lat="48.24865" lon="-3.57498">
        <ele>83.199996948242</ele>
        <time>2020-10-18T12:44:37.000Z</time>
      </trkpt>
      <trkpt lat="48.24867" lon="-3.57488">
        <ele>83.599998474121</ele>
        <time>2020-10-18T12:44:38.000Z</time>
      </trkpt>
      <trkpt lat="48.24867" lon="-3.57488">
        <ele>83.599998474121</ele>
        <time>2020-10-18T12:44:39.000Z</time>
      </trkpt>
      <trkpt lat="48.24868" lon="-3.57483">
        <ele>83.800003051758</ele>
        <time>2020-10-18T12:44:40.000Z</time>
      </trkpt>
      <trkpt lat="48.2487" lon="-3.57473">
        <ele>84.199996948242</ele>
        <time>2020-10-18T12:44:41.000Z</time>
      </trkpt>
      <trkpt lat="48.2487" lon="-3.57473">
        <ele>84.199996948242</ele>
        <time>2020-10-18T12:44:42.000Z</time>
      </trkpt>
      <trkpt lat="48.24871" lon="-3.57469">
        <ele>84.400001525879</ele>
        <time>2020-10-18T12:44:43.000Z</time>
      </trkpt>
      <trkpt lat="48.24871" lon="-3.5746">
        <ele>84.800003051758</ele>
        <time>2020-10-18T12:44:44.000Z</time>
      </trkpt>
      <trkpt lat="48.24871" lon="-3.5746">
        <ele>84.800003051758</ele>
        <time>2020-10-18T12:44:45.000Z</time>
      </trkpt>
      <trkpt lat="48.24872" lon="-3.57456">
        <ele>85</ele>
        <time>2020-10-18T12:44:46.000Z</time>
      </trkpt>
      <trkpt lat="48.24872" lon="-3.57448">
        <ele>85.400001525879</ele>
        <time>2020-10-18T12:44:47.000Z</time>
      </trkpt>
      <trkpt lat="48.24872" lon="-3.57448">
        <ele>85.400001525879</ele>
        <time>2020-10-18T12:44:48.000Z</time>
      </trkpt>
      <trkpt lat="48.24872" lon="-3.57439">
        <ele>85.800003051758</ele>
        <time>2020-10-18T12:44:49.000Z</time>
      </trkpt>
      <trkpt lat="48.24872" lon="-3.57439">
        <ele>85.800003051758</ele>
        <time>2020-10-18T12:44:50.000Z</time>
      </trkpt>
      <trkpt lat="48.24872" lon="-3.5743">
        <ele>86.199996948242</ele>
        <time>2020-10-18T12:44:51.000Z</time>
      </trkpt>
      <trkpt lat="48.24872" lon="-3.5743">
        <ele>86.199996948242</ele>
        <time>2020-10-18T12:44:52.000Z</time>
      </trkpt>
      <trkpt lat="48.24872" lon="-3.57426">
        <ele>86.199996948242</ele>
        <time>2020-10-18T12:44:53.000Z</time>
      </trkpt>
      <trkpt lat="48.24873" lon="-3.57418">
        <ele>86.400001525879</ele>
        <time>2020-10-18T12:44:54.000Z</time>
      </trkpt>
      <trkpt lat="48.24873" lon="-3.57418">
        <ele>86.400001525879</ele>
        <time>2020-10-18T12:44:55.000Z</time>
      </trkpt>
      <trkpt lat="48.24873" lon="-3.57414">
        <ele>86.599998474121</ele>
        <time>2020-10-18T12:44:56.000Z</time>
      </trkpt>
      <trkpt lat="48.24874" lon="-3.57406">
        <ele>86.800003051758</ele>
        <time>2020-10-18T12:44:57.000Z</time>
      </trkpt>
      <trkpt lat="48.24874" lon="-3.57406">
        <ele>86.800003051758</ele>
        <time>2020-10-18T12:44:58.000Z</time>
      </trkpt>
      <trkpt lat="48.24875" lon="-3.57397">
        <ele>87</ele>
        <time>2020-10-18T12:44:59.000Z</time>
      </trkpt>
      <trkpt lat="48.24875" lon="-3.57397">
        <ele>87</ele>
        <time>2020-10-18T12:45:00.000Z</time>
      </trkpt>
      <trkpt lat="48.24875" lon="-3.57393">
        <ele>87.199996948242</ele>
        <time>2020-10-18T12:45:01.000Z</time>
      </trkpt>
      <trkpt lat="48.24877" lon="-3.57384">
        <ele>87.599998474121</ele>
        <time>2020-10-18T12:45:02.000Z</time>
      </trkpt>
      <trkpt lat="48.24877" lon="-3.57384">
        <ele>87.599998474121</ele>
        <time>2020-10-18T12:45:03.000Z</time>
      </trkpt>
      <trkpt lat="48.24878" lon="-3.5738">
        <ele>87.800003051758</ele>
        <time>2020-10-18T12:45:04.000Z</time>
      </trkpt>
      <trkpt lat="48.24878" lon="-3.5737">
        <ele>88.199996948242</ele>
        <time>2020-10-18T12:45:05.000Z</time>
      </trkpt>
      <trkpt lat="48.24878" lon="-3.5737">
        <ele>88.199996948242</ele>
        <time>2020-10-18T12:45:06.000Z</time>
      </trkpt>
      <trkpt lat="48.24879" lon="-3.57366">
        <ele>88.400001525879</ele>
        <time>2020-10-18T12:45:07.000Z</time>
      </trkpt>
      <trkpt lat="48.2488" lon="-3.57356">
        <ele>88.800003051758</ele>
        <time>2020-10-18T12:45:08.000Z</time>
      </trkpt>
      <trkpt lat="48.2488" lon="-3.57356">
        <ele>88.800003051758</ele>
        <time>2020-10-18T12:45:09.000Z</time>
      </trkpt>
      <trkpt lat="48.2488" lon="-3.57351">
        <ele>89</ele>
        <time>2020-10-18T12:45:10.000Z</time>
      </trkpt>
      <trkpt lat="48.24882" lon="-3.57342">
        <ele>88.599998474121</ele>
        <time>2020-10-18T12:45:11.000Z</time>
      </trkpt>
      <trkpt lat="48.24882" lon="-3.57342">
        <ele>88.599998474121</ele>
        <time>2020-10-18T12:45:12.000Z</time>
      </trkpt>
      <trkpt lat="48.24883" lon="-3.57332">
        <ele>88.400001525879</ele>
        <time>2020-10-18T12:45:13.000Z</time>
      </trkpt>
      <trkpt lat="48.24883" lon="-3.57332">
        <ele>88.400001525879</ele>
        <time>2020-10-18T12:45:14.000Z</time>
      </trkpt>
      <trkpt lat="48.24883" lon="-3.57326">
        <ele>88.199996948242</ele>
        <time>2020-10-18T12:45:15.000Z</time>
      </trkpt>
      <trkpt lat="48.24884" lon="-3.57315">
        <ele>87.800003051758</ele>
        <time>2020-10-18T12:45:16.000Z</time>
      </trkpt>
      <trkpt lat="48.24884" lon="-3.57315">
        <ele>87.800003051758</ele>
        <time>2020-10-18T12:45:17.000Z</time>
      </trkpt>
      <trkpt lat="48.24885" lon="-3.5731">
        <ele>87.800003051758</ele>
        <time>2020-10-18T12:45:18.000Z</time>
      </trkpt>
      <trkpt lat="48.24886" lon="-3.573">
        <ele>87.599998474121</ele>
        <time>2020-10-18T12:45:19.000Z</time>
      </trkpt>
      <trkpt lat="48.24886" lon="-3.573">
        <ele>87.599998474121</ele>
        <time>2020-10-18T12:45:20.000Z</time>
      </trkpt>
      <trkpt lat="48.24886" lon="-3.57295">
        <ele>87.599998474121</ele>
        <time>2020-10-18T12:45:21.000Z</time>
      </trkpt>
      <trkpt lat="48.24885" lon="-3.57284">
        <ele>87.599998474121</ele>
        <time>2020-10-18T12:45:22.000Z</time>
      </trkpt>
      <trkpt lat="48.24885" lon="-3.57284">
        <ele>87.599998474121</ele>
        <time>2020-10-18T12:45:23.000Z</time>
      </trkpt>
      <trkpt lat="48.24885" lon="-3.5728">
        <ele>87.599998474121</ele>
        <time>2020-10-18T12:45:24.000Z</time>
      </trkpt>
      <trkpt lat="48.24887" lon="-3.57269">
        <ele>87.599998474121</ele>
        <time>2020-10-18T12:45:25.000Z</time>
      </trkpt>
      <trkpt lat="48.24887" lon="-3.57269">
        <ele>87.599998474121</ele>
        <time>2020-10-18T12:45:26.000Z</time>
      </trkpt>
      <trkpt lat="48.24887" lon="-3.57259">
        <ele>87.599998474121</ele>
        <time>2020-10-18T12:45:27.000Z</time>
      </trkpt>
      <trkpt lat="48.24887" lon="-3.57259">
        <ele>87.599998474121</ele>
        <time>2020-10-18T12:45:28.000Z</time>
      </trkpt>
      <trkpt lat="48.24887" lon="-3.57253">
        <ele>87.599998474121</ele>
        <time>2020-10-18T12:45:29.000Z</time>
      </trkpt>
      <trkpt lat="48.24888" lon="-3.57241">
        <ele>87.400001525879</ele>
        <time>2020-10-18T12:45:30.000Z</time>
      </trkpt>
      <trkpt lat="48.24888" lon="-3.57241">
        <ele>87.400001525879</ele>
        <time>2020-10-18T12:45:31.000Z</time>
      </trkpt>
      <trkpt lat="48.24888" lon="-3.57235">
        <ele>87.400001525879</ele>
        <time>2020-10-18T12:45:32.000Z</time>
      </trkpt>
      <trkpt lat="48.24889" lon="-3.57223">
        <ele>87.400001525879</ele>
        <time>2020-10-18T12:45:33.000Z</time>
      </trkpt>
      <trkpt lat="48.24889" lon="-3.57223">
        <ele>87.400001525879</ele>
        <time>2020-10-18T12:45:34.000Z</time>
      </trkpt>
      <trkpt lat="48.2489" lon="-3.57217">
        <ele>87.199996948242</ele>
        <time>2020-10-18T12:45:35.000Z</time>
      </trkpt>
      <trkpt lat="48.2489" lon="-3.57207">
        <ele>86.800003051758</ele>
        <time>2020-10-18T12:45:36.000Z</time>
      </trkpt>
      <trkpt lat="48.2489" lon="-3.57207">
        <ele>86.800003051758</ele>
        <time>2020-10-18T12:45:37.000Z</time>
      </trkpt>
      <trkpt lat="48.2489" lon="-3.57202">
        <ele>86.800003051758</ele>
        <time>2020-10-18T12:45:38.000Z</time>
      </trkpt>
      <trkpt lat="48.24891" lon="-3.57191">
        <ele>86.400001525879</ele>
        <time>2020-10-18T12:45:39.000Z</time>
      </trkpt>
      <trkpt lat="48.24891" lon="-3.57191">
        <ele>86.400001525879</ele>
        <time>2020-10-18T12:45:40.000Z</time>
      </trkpt>
      <trkpt lat="48.24892" lon="-3.57185">
        <ele>86.199996948242</ele>
        <time>2020-10-18T12:45:41.000Z</time>
      </trkpt>
      <trkpt lat="48.24892" lon="-3.57175">
        <ele>86.400001525879</ele>
        <time>2020-10-18T12:45:42.000Z</time>
      </trkpt>
      <trkpt lat="48.24892" lon="-3.57169">
        <ele>86.400001525879</ele>
        <time>2020-10-18T12:45:43.000Z</time>
      </trkpt>
      <trkpt lat="48.24892" lon="-3.57169">
        <ele>86.400001525879</ele>
        <time>2020-10-18T12:45:44.000Z</time>
      </trkpt>
      <trkpt lat="48.24892" lon="-3.57164">
        <ele>86.400001525879</ele>
        <time>2020-10-18T12:45:45.000Z</time>
      </trkpt>
      <trkpt lat="48.24892" lon="-3.57153">
        <ele>86.599998474121</ele>
        <time>2020-10-18T12:45:46.000Z</time>
      </trkpt>
      <trkpt lat="48.24893" lon="-3.57147">
        <ele>86.599998474121</ele>
        <time>2020-10-18T12:45:47.000Z</time>
      </trkpt>
      <trkpt lat="48.24893" lon="-3.57142">
        <ele>86.599998474121</ele>
        <time>2020-10-18T12:45:48.000Z</time>
      </trkpt>
      <trkpt lat="48.24893" lon="-3.57142">
        <ele>86.599998474121</ele>
        <time>2020-10-18T12:45:49.000Z</time>
      </trkpt>
      <trkpt lat="48.24894" lon="-3.57136">
        <ele>86.599998474121</ele>
        <time>2020-10-18T12:45:50.000Z</time>
      </trkpt>
      <trkpt lat="48.24895" lon="-3.57124">
        <ele>86.400001525879</ele>
        <time>2020-10-18T12:45:51.000Z</time>
      </trkpt>
      <trkpt lat="48.24895" lon="-3.57124">
        <ele>86.400001525879</ele>
        <time>2020-10-18T12:45:52.000Z</time>
      </trkpt>
      <trkpt lat="48.24897" lon="-3.57117">
        <ele>86.400001525879</ele>
        <time>2020-10-18T12:45:53.000Z</time>
      </trkpt>
      <trkpt lat="48.249" lon="-3.57104">
        <ele>86</ele>
        <time>2020-10-18T12:45:54.000Z</time>
      </trkpt>
      <trkpt lat="48.249" lon="-3.57104">
        <ele>86</ele>
        <time>2020-10-18T12:45:55.000Z</time>
      </trkpt>
      <trkpt lat="48.24901" lon="-3.57097">
        <ele>86.199996948242</ele>
        <time>2020-10-18T12:45:56.000Z</time>
      </trkpt>
      <trkpt lat="48.24904" lon="-3.57084">
        <ele>86.400001525879</ele>
        <time>2020-10-18T12:45:57.000Z</time>
      </trkpt>
      <trkpt lat="48.24904" lon="-3.57084">
        <ele>86.400001525879</ele>
        <time>2020-10-18T12:45:58.000Z</time>
      </trkpt>
      <trkpt lat="48.24906" lon="-3.57079">
        <ele>86.599998474121</ele>
        <time>2020-10-18T12:45:59.000Z</time>
      </trkpt>
      <trkpt lat="48.2491" lon="-3.57067">
        <ele>87</ele>
        <time>2020-10-18T12:46:00.000Z</time>
      </trkpt>
      <trkpt lat="48.2491" lon="-3.57067">
        <ele>87</ele>
        <time>2020-10-18T12:46:01.000Z</time>
      </trkpt>
      <trkpt lat="48.24913" lon="-3.57063">
        <ele>87</ele>
        <time>2020-10-18T12:46:02.000Z</time>
      </trkpt>
      <trkpt lat="48.24918" lon="-3.57054">
        <ele>87</ele>
        <time>2020-10-18T12:46:03.000Z</time>
      </trkpt>
      <trkpt lat="48.24918" lon="-3.57054">
        <ele>87</ele>
        <time>2020-10-18T12:46:04.000Z</time>
      </trkpt>
      <trkpt lat="48.2492" lon="-3.5705">
        <ele>87.199996948242</ele>
        <time>2020-10-18T12:46:05.000Z</time>
      </trkpt>
      <trkpt lat="48.24925" lon="-3.57041">
        <ele>87.199996948242</ele>
        <time>2020-10-18T12:46:06.000Z</time>
      </trkpt>
      <trkpt lat="48.24925" lon="-3.57041">
        <ele>87.199996948242</ele>
        <time>2020-10-18T12:46:07.000Z</time>
      </trkpt>
      <trkpt lat="48.2493" lon="-3.57034">
        <ele>87.599998474121</ele>
        <time>2020-10-18T12:46:08.000Z</time>
      </trkpt>
      <trkpt lat="48.2493" lon="-3.57034">
        <ele>87.599998474121</ele>
        <time>2020-10-18T12:46:09.000Z</time>
      </trkpt>
      <trkpt lat="48.24933" lon="-3.5703">
        <ele>87.800003051758</ele>
        <time>2020-10-18T12:46:10.000Z</time>
      </trkpt>
      <trkpt lat="48.24939" lon="-3.57022">
        <ele>88.599998474121</ele>
        <time>2020-10-18T12:46:11.000Z</time>
      </trkpt>
      <trkpt lat="48.24939" lon="-3.57022">
        <ele>88.599998474121</ele>
        <time>2020-10-18T12:46:12.000Z</time>
      </trkpt>
      <trkpt lat="48.24945" lon="-3.57015">
        <ele>89</ele>
        <time>2020-10-18T12:46:13.000Z</time>
      </trkpt>
      <trkpt lat="48.24945" lon="-3.57015">
        <ele>89</ele>
        <time>2020-10-18T12:46:14.000Z</time>
      </trkpt>
      <trkpt lat="48.2495" lon="-3.57009">
        <ele>89</ele>
        <time>2020-10-18T12:46:15.000Z</time>
      </trkpt>
      <trkpt lat="48.2495" lon="-3.57009">
        <ele>89</ele>
        <time>2020-10-18T12:46:16.000Z</time>
      </trkpt>
      <trkpt lat="48.24953" lon="-3.57005">
        <ele>89</ele>
        <time>2020-10-18T12:46:17.000Z</time>
      </trkpt>
      <trkpt lat="48.24958" lon="-3.56999">
        <ele>89.199996948242</ele>
        <time>2020-10-18T12:46:18.000Z</time>
      </trkpt>
      <trkpt lat="48.24958" lon="-3.56999">
        <ele>89.199996948242</ele>
        <time>2020-10-18T12:46:19.000Z</time>
      </trkpt>
      <trkpt lat="48.24961" lon="-3.56996">
        <ele>89.199996948242</ele>
        <time>2020-10-18T12:46:20.000Z</time>
      </trkpt>
      <trkpt lat="48.24966" lon="-3.56989">
        <ele>89.199996948242</ele>
        <time>2020-10-18T12:46:21.000Z</time>
      </trkpt>
      <trkpt lat="48.24966" lon="-3.56989">
        <ele>89.199996948242</ele>
        <time>2020-10-18T12:46:22.000Z</time>
      </trkpt>
      <trkpt lat="48.24972" lon="-3.56983">
        <ele>89.400001525879</ele>
        <time>2020-10-18T12:46:23.000Z</time>
      </trkpt>
      <trkpt lat="48.24972" lon="-3.56983">
        <ele>89.400001525879</ele>
        <time>2020-10-18T12:46:24.000Z</time>
      </trkpt>
      <trkpt lat="48.24975" lon="-3.56979">
        <ele>89.400001525879</ele>
        <time>2020-10-18T12:46:25.000Z</time>
      </trkpt>
      <trkpt lat="48.24981" lon="-3.56972">
        <ele>89.599998474121</ele>
        <time>2020-10-18T12:46:26.000Z</time>
      </trkpt>
      <trkpt lat="48.24981" lon="-3.56972">
        <ele>89.599998474121</ele>
        <time>2020-10-18T12:46:27.000Z</time>
      </trkpt>
      <trkpt lat="48.24984" lon="-3.56968">
        <ele>89.599998474121</ele>
        <time>2020-10-18T12:46:28.000Z</time>
      </trkpt>
      <trkpt lat="48.2499" lon="-3.56962">
        <ele>89.599998474121</ele>
        <time>2020-10-18T12:46:29.000Z</time>
      </trkpt>
      <trkpt lat="48.2499" lon="-3.56962">
        <ele>89.599998474121</ele>
        <time>2020-10-18T12:46:30.000Z</time>
      </trkpt>
      <trkpt lat="48.24993" lon="-3.56958">
        <ele>89.800003051758</ele>
        <time>2020-10-18T12:46:31.000Z</time>
      </trkpt>
      <trkpt lat="48.25" lon="-3.56952">
        <ele>90</ele>
        <time>2020-10-18T12:46:32.000Z</time>
      </trkpt>
      <trkpt lat="48.25" lon="-3.56952">
        <ele>90</ele>
        <time>2020-10-18T12:46:33.000Z</time>
      </trkpt>
      <trkpt lat="48.25004" lon="-3.56948">
        <ele>90</ele>
        <time>2020-10-18T12:46:34.000Z</time>
      </trkpt>
      <trkpt lat="48.25011" lon="-3.56943">
        <ele>90.400001525879</ele>
        <time>2020-10-18T12:46:35.000Z</time>
      </trkpt>
      <trkpt lat="48.25011" lon="-3.56943">
        <ele>90.400001525879</ele>
        <time>2020-10-18T12:46:36.000Z</time>
      </trkpt>
      <trkpt lat="48.25015" lon="-3.5694">
        <ele>90.599998474121</ele>
        <time>2020-10-18T12:46:37.000Z</time>
      </trkpt>
      <trkpt lat="48.25023" lon="-3.56934">
        <ele>91.599998474121</ele>
        <time>2020-10-18T12:46:38.000Z</time>
      </trkpt>
      <trkpt lat="48.25023" lon="-3.56934">
        <ele>91.599998474121</ele>
        <time>2020-10-18T12:46:39.000Z</time>
      </trkpt>
      <trkpt lat="48.25029" lon="-3.56927">
        <ele>91.800003051758</ele>
        <time>2020-10-18T12:46:40.000Z</time>
      </trkpt>
      <trkpt lat="48.25029" lon="-3.56927">
        <ele>91.800003051758</ele>
        <time>2020-10-18T12:46:41.000Z</time>
      </trkpt>
      <trkpt lat="48.25032" lon="-3.56925">
        <ele>92</ele>
        <time>2020-10-18T12:46:42.000Z</time>
      </trkpt>
      <trkpt lat="48.25038" lon="-3.56919">
        <ele>92.400001525879</ele>
        <time>2020-10-18T12:46:43.000Z</time>
      </trkpt>
      <trkpt lat="48.25038" lon="-3.56919">
        <ele>92.400001525879</ele>
        <time>2020-10-18T12:46:44.000Z</time>
      </trkpt>
      <trkpt lat="48.25042" lon="-3.56916">
        <ele>92.599998474121</ele>
        <time>2020-10-18T12:46:45.000Z</time>
      </trkpt>
      <trkpt lat="48.25047" lon="-3.56909">
        <ele>92.599998474121</ele>
        <time>2020-10-18T12:46:46.000Z</time>
      </trkpt>
      <trkpt lat="48.25047" lon="-3.56909">
        <ele>92.599998474121</ele>
        <time>2020-10-18T12:46:47.000Z</time>
      </trkpt>
      <trkpt lat="48.25053" lon="-3.56902">
        <ele>92.800003051758</ele>
        <time>2020-10-18T12:46:48.000Z</time>
      </trkpt>
      <trkpt lat="48.25053" lon="-3.56902">
        <ele>92.800003051758</ele>
        <time>2020-10-18T12:46:49.000Z</time>
      </trkpt>
      <trkpt lat="48.25056" lon="-3.56898">
        <ele>92.800003051758</ele>
        <time>2020-10-18T12:46:50.000Z</time>
      </trkpt>
      <trkpt lat="48.25062" lon="-3.56892">
        <ele>93.199996948242</ele>
        <time>2020-10-18T12:46:51.000Z</time>
      </trkpt>
      <trkpt lat="48.25062" lon="-3.56892">
        <ele>93.199996948242</ele>
        <time>2020-10-18T12:46:52.000Z</time>
      </trkpt>
      <trkpt lat="48.25065" lon="-3.56888">
        <ele>93.199996948242</ele>
        <time>2020-10-18T12:46:53.000Z</time>
      </trkpt>
      <trkpt lat="48.25072" lon="-3.56881">
        <ele>93.400001525879</ele>
        <time>2020-10-18T12:46:54.000Z</time>
      </trkpt>
      <trkpt lat="48.25072" lon="-3.56881">
        <ele>93.400001525879</ele>
        <time>2020-10-18T12:46:55.000Z</time>
      </trkpt>
      <trkpt lat="48.25074" lon="-3.56878">
        <ele>93.599998474121</ele>
        <time>2020-10-18T12:46:56.000Z</time>
      </trkpt>
      <trkpt lat="48.2508" lon="-3.56872">
        <ele>93.800003051758</ele>
        <time>2020-10-18T12:46:57.000Z</time>
      </trkpt>
      <trkpt lat="48.2508" lon="-3.56872">
        <ele>93.800003051758</ele>
        <time>2020-10-18T12:46:58.000Z</time>
      </trkpt>
      <trkpt lat="48.25083" lon="-3.56868">
        <ele>93.800003051758</ele>
        <time>2020-10-18T12:46:59.000Z</time>
      </trkpt>
      <trkpt lat="48.25088" lon="-3.56862">
        <ele>94</ele>
        <time>2020-10-18T12:47:00.000Z</time>
      </trkpt>
      <trkpt lat="48.25088" lon="-3.56862">
        <ele>94</ele>
        <time>2020-10-18T12:47:01.000Z</time>
      </trkpt>
      <trkpt lat="48.25091" lon="-3.56858">
        <ele>94</ele>
        <time>2020-10-18T12:47:02.000Z</time>
      </trkpt>
      <trkpt lat="48.25095" lon="-3.56849">
        <ele>94</ele>
        <time>2020-10-18T12:47:03.000Z</time>
      </trkpt>
      <trkpt lat="48.25095" lon="-3.56849">
        <ele>94</ele>
        <time>2020-10-18T12:47:04.000Z</time>
      </trkpt>
      <trkpt lat="48.25097" lon="-3.56844">
        <ele>94.199996948242</ele>
        <time>2020-10-18T12:47:05.000Z</time>
      </trkpt>
      <trkpt lat="48.25101" lon="-3.56834">
        <ele>95</ele>
        <time>2020-10-18T12:47:06.000Z</time>
      </trkpt>
      <trkpt lat="48.25101" lon="-3.56834">
        <ele>95</ele>
        <time>2020-10-18T12:47:07.000Z</time>
      </trkpt>
      <trkpt lat="48.25104" lon="-3.5683">
        <ele>95.400001525879</ele>
        <time>2020-10-18T12:47:08.000Z</time>
      </trkpt>
      <trkpt lat="48.25107" lon="-3.5682">
        <ele>96</ele>
        <time>2020-10-18T12:47:09.000Z</time>
      </trkpt>
      <trkpt lat="48.25107" lon="-3.5682">
        <ele>96</ele>
        <time>2020-10-18T12:47:10.000Z</time>
      </trkpt>
      <trkpt lat="48.2511" lon="-3.5681">
        <ele>96.599998474121</ele>
        <time>2020-10-18T12:47:11.000Z</time>
      </trkpt>
      <trkpt lat="48.2511" lon="-3.5681">
        <ele>96.599998474121</ele>
        <time>2020-10-18T12:47:12.000Z</time>
      </trkpt>
      <trkpt lat="48.25111" lon="-3.56805">
        <ele>96.800003051758</ele>
        <time>2020-10-18T12:47:13.000Z</time>
      </trkpt>
      <trkpt lat="48.25113" lon="-3.56795">
        <ele>97.199996948242</ele>
        <time>2020-10-18T12:47:14.000Z</time>
      </trkpt>
      <trkpt lat="48.25113" lon="-3.56795">
        <ele>97.199996948242</ele>
        <time>2020-10-18T12:47:15.000Z</time>
      </trkpt>
      <trkpt lat="48.25114" lon="-3.5679">
        <ele>97.199996948242</ele>
        <time>2020-10-18T12:47:16.000Z</time>
      </trkpt>
      <trkpt lat="48.25116" lon="-3.5678">
        <ele>97.599998474121</ele>
        <time>2020-10-18T12:47:17.000Z</time>
      </trkpt>
      <trkpt lat="48.25116" lon="-3.5678">
        <ele>97.599998474121</ele>
        <time>2020-10-18T12:47:18.000Z</time>
      </trkpt>
      <trkpt lat="48.25118" lon="-3.56771">
        <ele>97.800003051758</ele>
        <time>2020-10-18T12:47:19.000Z</time>
      </trkpt>
      <trkpt lat="48.25118" lon="-3.56771">
        <ele>97.800003051758</ele>
        <time>2020-10-18T12:47:20.000Z</time>
      </trkpt>
      <trkpt lat="48.25118" lon="-3.56766">
        <ele>97.599998474121</ele>
        <time>2020-10-18T12:47:21.000Z</time>
      </trkpt>
      <trkpt lat="48.25119" lon="-3.56757">
        <ele>97.199996948242</ele>
        <time>2020-10-18T12:47:22.000Z</time>
      </trkpt>
      <trkpt lat="48.25119" lon="-3.56757">
        <ele>97.199996948242</ele>
        <time>2020-10-18T12:47:23.000Z</time>
      </trkpt>
      <trkpt lat="48.25119" lon="-3.56752">
        <ele>96.800003051758</ele>
        <time>2020-10-18T12:47:24.000Z</time>
      </trkpt>
      <trkpt lat="48.25119" lon="-3.56742">
        <ele>96.199996948242</ele>
        <time>2020-10-18T12:47:25.000Z</time>
      </trkpt>
      <trkpt lat="48.25119" lon="-3.56742">
        <ele>96.199996948242</ele>
        <time>2020-10-18T12:47:26.000Z</time>
      </trkpt>
      <trkpt lat="48.2512" lon="-3.56736">
        <ele>96.199996948242</ele>
        <time>2020-10-18T12:47:27.000Z</time>
      </trkpt>
      <trkpt lat="48.25121" lon="-3.56726">
        <ele>95.800003051758</ele>
        <time>2020-10-18T12:47:28.000Z</time>
      </trkpt>
      <trkpt lat="48.25121" lon="-3.56726">
        <ele>95.800003051758</ele>
        <time>2020-10-18T12:47:29.000Z</time>
      </trkpt>
      <trkpt lat="48.25121" lon="-3.5672">
        <ele>95.400001525879</ele>
        <time>2020-10-18T12:47:30.000Z</time>
      </trkpt>
      <trkpt lat="48.25119" lon="-3.56709">
        <ele>94.599998474121</ele>
        <time>2020-10-18T12:47:31.000Z</time>
      </trkpt>
      <trkpt lat="48.25119" lon="-3.56709">
        <ele>94.599998474121</ele>
        <time>2020-10-18T12:47:32.000Z</time>
      </trkpt>
      <trkpt lat="48.25119" lon="-3.56703">
        <ele>94.400001525879</ele>
        <time>2020-10-18T12:47:33.000Z</time>
      </trkpt>
      <trkpt lat="48.25118" lon="-3.56693">
        <ele>93.800003051758</ele>
        <time>2020-10-18T12:47:34.000Z</time>
      </trkpt>
      <trkpt lat="48.25118" lon="-3.56693">
        <ele>93.800003051758</ele>
        <time>2020-10-18T12:47:35.000Z</time>
      </trkpt>
      <trkpt lat="48.25118" lon="-3.56689">
        <ele>93.400001525879</ele>
        <time>2020-10-18T12:47:36.000Z</time>
      </trkpt>
      <trkpt lat="48.25116" lon="-3.56679">
        <ele>92.599998474121</ele>
        <time>2020-10-18T12:47:37.000Z</time>
      </trkpt>
      <trkpt lat="48.25116" lon="-3.56679">
        <ele>92.599998474121</ele>
        <time>2020-10-18T12:47:38.000Z</time>
      </trkpt>
      <trkpt lat="48.25115" lon="-3.56674">
        <ele>92.400001525879</ele>
        <time>2020-10-18T12:47:39.000Z</time>
      </trkpt>
      <trkpt lat="48.25115" lon="-3.56665">
        <ele>92</ele>
        <time>2020-10-18T12:47:40.000Z</time>
      </trkpt>
      <trkpt lat="48.25115" lon="-3.56665">
        <ele>92</ele>
        <time>2020-10-18T12:47:41.000Z</time>
      </trkpt>
      <trkpt lat="48.25115" lon="-3.5666">
        <ele>92</ele>
        <time>2020-10-18T12:47:42.000Z</time>
      </trkpt>
      <trkpt lat="48.25115" lon="-3.5665">
        <ele>92.199996948242</ele>
        <time>2020-10-18T12:47:43.000Z</time>
      </trkpt>
      <trkpt lat="48.25115" lon="-3.5665">
        <ele>92.199996948242</ele>
        <time>2020-10-18T12:47:44.000Z</time>
      </trkpt>
      <trkpt lat="48.25114" lon="-3.5664">
        <ele>92.199996948242</ele>
        <time>2020-10-18T12:47:45.000Z</time>
      </trkpt>
      <trkpt lat="48.25114" lon="-3.5664">
        <ele>92.199996948242</ele>
        <time>2020-10-18T12:47:46.000Z</time>
      </trkpt>
      <trkpt lat="48.25114" lon="-3.5663">
        <ele>92.199996948242</ele>
        <time>2020-10-18T12:47:47.000Z</time>
      </trkpt>
      <trkpt lat="48.25114" lon="-3.5663">
        <ele>92.199996948242</ele>
        <time>2020-10-18T12:47:48.000Z</time>
      </trkpt>
      <trkpt lat="48.25114" lon="-3.56621">
        <ele>92.400001525879</ele>
        <time>2020-10-18T12:47:49.000Z</time>
      </trkpt>
      <trkpt lat="48.25114" lon="-3.56621">
        <ele>92.400001525879</ele>
        <time>2020-10-18T12:47:50.000Z</time>
      </trkpt>
      <trkpt lat="48.25114" lon="-3.56616">
        <ele>92.400001525879</ele>
        <time>2020-10-18T12:47:51.000Z</time>
      </trkpt>
      <trkpt lat="48.25113" lon="-3.56606">
        <ele>92.400001525879</ele>
        <time>2020-10-18T12:47:52.000Z</time>
      </trkpt>
      <trkpt lat="48.25113" lon="-3.56606">
        <ele>92.400001525879</ele>
        <time>2020-10-18T12:47:53.000Z</time>
      </trkpt>
      <trkpt lat="48.25113" lon="-3.56601">
        <ele>92.400001525879</ele>
        <time>2020-10-18T12:47:54.000Z</time>
      </trkpt>
      <trkpt lat="48.25113" lon="-3.56591">
        <ele>92.199996948242</ele>
        <time>2020-10-18T12:47:55.000Z</time>
      </trkpt>
      <trkpt lat="48.25113" lon="-3.56591">
        <ele>92.199996948242</ele>
        <time>2020-10-18T12:47:56.000Z</time>
      </trkpt>
      <trkpt lat="48.25113" lon="-3.56585">
        <ele>92.199996948242</ele>
        <time>2020-10-18T12:47:57.000Z</time>
      </trkpt>
      <trkpt lat="48.25112" lon="-3.56575">
        <ele>92.199996948242</ele>
        <time>2020-10-18T12:47:58.000Z</time>
      </trkpt>
      <trkpt lat="48.25112" lon="-3.56575">
        <ele>92.199996948242</ele>
        <time>2020-10-18T12:47:59.000Z</time>
      </trkpt>
      <trkpt lat="48.25112" lon="-3.5657">
        <ele>92.199996948242</ele>
        <time>2020-10-18T12:48:00.000Z</time>
      </trkpt>
      <trkpt lat="48.25111" lon="-3.5656">
        <ele>92</ele>
        <time>2020-10-18T12:48:01.000Z</time>
      </trkpt>
      <trkpt lat="48.25111" lon="-3.5656">
        <ele>92</ele>
        <time>2020-10-18T12:48:02.000Z</time>
      </trkpt>
      <trkpt lat="48.2511" lon="-3.56556">
        <ele>91.800003051758</ele>
        <time>2020-10-18T12:48:03.000Z</time>
      </trkpt>
      <trkpt lat="48.2511" lon="-3.56547">
        <ele>91.800003051758</ele>
        <time>2020-10-18T12:48:04.000Z</time>
      </trkpt>
      <trkpt lat="48.2511" lon="-3.56547">
        <ele>91.800003051758</ele>
        <time>2020-10-18T12:48:05.000Z</time>
      </trkpt>
      <trkpt lat="48.2511" lon="-3.56542">
        <ele>92</ele>
        <time>2020-10-18T12:48:06.000Z</time>
      </trkpt>
      <trkpt lat="48.25111" lon="-3.56533">
        <ele>92</ele>
        <time>2020-10-18T12:48:07.000Z</time>
      </trkpt>
      <trkpt lat="48.25111" lon="-3.56533">
        <ele>92</ele>
        <time>2020-10-18T12:48:08.000Z</time>
      </trkpt>
      <trkpt lat="48.25111" lon="-3.56529">
        <ele>92</ele>
        <time>2020-10-18T12:48:09.000Z</time>
      </trkpt>
      <trkpt lat="48.25111" lon="-3.56518">
        <ele>92</ele>
        <time>2020-10-18T12:48:10.000Z</time>
      </trkpt>
      <trkpt lat="48.25111" lon="-3.56518">
        <ele>92</ele>
        <time>2020-10-18T12:48:11.000Z</time>
      </trkpt>
      <trkpt lat="48.25111" lon="-3.56513">
        <ele>92</ele>
        <time>2020-10-18T12:48:12.000Z</time>
      </trkpt>
      <trkpt lat="48.25111" lon="-3.56502">
        <ele>91.800003051758</ele>
        <time>2020-10-18T12:48:13.000Z</time>
      </trkpt>
      <trkpt lat="48.25111" lon="-3.56502">
        <ele>91.800003051758</ele>
        <time>2020-10-18T12:48:14.000Z</time>
      </trkpt>
      <trkpt lat="48.25111" lon="-3.56496">
        <ele>91.800003051758</ele>
        <time>2020-10-18T12:48:15.000Z</time>
      </trkpt>
      <trkpt lat="48.25111" lon="-3.5649">
        <ele>91.599998474121</ele>
        <time>2020-10-18T12:48:16.000Z</time>
      </trkpt>
      <trkpt lat="48.25111" lon="-3.56478">
        <ele>91.400001525879</ele>
        <time>2020-10-18T12:48:17.000Z</time>
      </trkpt>
      <trkpt lat="48.25111" lon="-3.56478">
        <ele>91.400001525879</ele>
        <time>2020-10-18T12:48:18.000Z</time>
      </trkpt>
      <trkpt lat="48.25111" lon="-3.56472">
        <ele>91.199996948242</ele>
        <time>2020-10-18T12:48:19.000Z</time>
      </trkpt>
      <trkpt lat="48.25111" lon="-3.56467">
        <ele>91</ele>
        <time>2020-10-18T12:48:20.000Z</time>
      </trkpt>
      <trkpt lat="48.25111" lon="-3.56454">
        <ele>90.599998474121</ele>
        <time>2020-10-18T12:48:21.000Z</time>
      </trkpt>
      <trkpt lat="48.25111" lon="-3.56454">
        <ele>90.599998474121</ele>
        <time>2020-10-18T12:48:22.000Z</time>
      </trkpt>
      <trkpt lat="48.25111" lon="-3.56448">
        <ele>90.599998474121</ele>
        <time>2020-10-18T12:48:23.000Z</time>
      </trkpt>
      <trkpt lat="48.25112" lon="-3.56436">
        <ele>90.400001525879</ele>
        <time>2020-10-18T12:48:24.000Z</time>
      </trkpt>
      <trkpt lat="48.25112" lon="-3.56436">
        <ele>90.400001525879</ele>
        <time>2020-10-18T12:48:25.000Z</time>
      </trkpt>
      <trkpt lat="48.25112" lon="-3.5643">
        <ele>90.199996948242</ele>
        <time>2020-10-18T12:48:26.000Z</time>
      </trkpt>
      <trkpt lat="48.25112" lon="-3.56417">
        <ele>89.800003051758</ele>
        <time>2020-10-18T12:48:27.000Z</time>
      </trkpt>
      <trkpt lat="48.25112" lon="-3.56417">
        <ele>89.800003051758</ele>
        <time>2020-10-18T12:48:28.000Z</time>
      </trkpt>
      <trkpt lat="48.25112" lon="-3.5641">
        <ele>89.800003051758</ele>
        <time>2020-10-18T12:48:29.000Z</time>
      </trkpt>
      <trkpt lat="48.25111" lon="-3.56396">
        <ele>90</ele>
        <time>2020-10-18T12:48:30.000Z</time>
      </trkpt>
      <trkpt lat="48.25111" lon="-3.56396">
        <ele>90</ele>
        <time>2020-10-18T12:48:31.000Z</time>
      </trkpt>
      <trkpt lat="48.25111" lon="-3.5639">
        <ele>90</ele>
        <time>2020-10-18T12:48:32.000Z</time>
      </trkpt>
      <trkpt lat="48.25111" lon="-3.56377">
        <ele>90.199996948242</ele>
        <time>2020-10-18T12:48:33.000Z</time>
      </trkpt>
      <trkpt lat="48.25111" lon="-3.56377">
        <ele>90.199996948242</ele>
        <time>2020-10-18T12:48:34.000Z</time>
      </trkpt>
      <trkpt lat="48.25112" lon="-3.56365">
        <ele>90.400001525879</ele>
        <time>2020-10-18T12:48:35.000Z</time>
      </trkpt>
      <trkpt lat="48.25112" lon="-3.56365">
        <ele>90.400001525879</ele>
        <time>2020-10-18T12:48:36.000Z</time>
      </trkpt>
      <trkpt lat="48.25112" lon="-3.56358">
        <ele>90.599998474121</ele>
        <time>2020-10-18T12:48:37.000Z</time>
      </trkpt>
      <trkpt lat="48.25111" lon="-3.56342">
        <ele>90</ele>
        <time>2020-10-18T12:48:38.000Z</time>
      </trkpt>
      <trkpt lat="48.25111" lon="-3.56342">
        <ele>90</ele>
        <time>2020-10-18T12:48:39.000Z</time>
      </trkpt>
      <trkpt lat="48.25111" lon="-3.56334">
        <ele>89.599998474121</ele>
        <time>2020-10-18T12:48:40.000Z</time>
      </trkpt>
      <trkpt lat="48.25112" lon="-3.5632">
        <ele>89.199996948242</ele>
        <time>2020-10-18T12:48:41.000Z</time>
      </trkpt>
      <trkpt lat="48.25112" lon="-3.5632">
        <ele>89.199996948242</ele>
        <time>2020-10-18T12:48:42.000Z</time>
      </trkpt>
      <trkpt lat="48.25113" lon="-3.56314">
        <ele>89</ele>
        <time>2020-10-18T12:48:43.000Z</time>
      </trkpt>
      <trkpt lat="48.25116" lon="-3.56302">
        <ele>89</ele>
        <time>2020-10-18T12:48:44.000Z</time>
      </trkpt>
      <trkpt lat="48.25116" lon="-3.56302">
        <ele>89</ele>
        <time>2020-10-18T12:48:45.000Z</time>
      </trkpt>
      <trkpt lat="48.25118" lon="-3.56296">
        <ele>88.800003051758</ele>
        <time>2020-10-18T12:48:46.000Z</time>
      </trkpt>
      <trkpt lat="48.2512" lon="-3.5629">
        <ele>88.800003051758</ele>
        <time>2020-10-18T12:48:47.000Z</time>
      </trkpt>
      <trkpt lat="48.25123" lon="-3.56285">
        <ele>88.800003051758</ele>
        <time>2020-10-18T12:48:48.000Z</time>
      </trkpt>
      <trkpt lat="48.25127" lon="-3.56274">
        <ele>88.800003051758</ele>
        <time>2020-10-18T12:48:49.000Z</time>
      </trkpt>
      <trkpt lat="48.25127" lon="-3.56274">
        <ele>88.800003051758</ele>
        <time>2020-10-18T12:48:50.000Z</time>
      </trkpt>
      <trkpt lat="48.2513" lon="-3.56269">
        <ele>88.800003051758</ele>
        <time>2020-10-18T12:48:51.000Z</time>
      </trkpt>
      <trkpt lat="48.25134" lon="-3.56257">
        <ele>88.599998474121</ele>
        <time>2020-10-18T12:48:52.000Z</time>
      </trkpt>
      <trkpt lat="48.25134" lon="-3.56257">
        <ele>88.599998474121</ele>
        <time>2020-10-18T12:48:53.000Z</time>
      </trkpt>
      <trkpt lat="48.25137" lon="-3.56252">
        <ele>88.400001525879</ele>
        <time>2020-10-18T12:48:54.000Z</time>
      </trkpt>
      <trkpt lat="48.25142" lon="-3.5624">
        <ele>88.199996948242</ele>
        <time>2020-10-18T12:48:55.000Z</time>
      </trkpt>
      <trkpt lat="48.25142" lon="-3.5624">
        <ele>88.199996948242</ele>
        <time>2020-10-18T12:48:56.000Z</time>
      </trkpt>
      <trkpt lat="48.25144" lon="-3.56235">
        <ele>88</ele>
        <time>2020-10-18T12:48:57.000Z</time>
      </trkpt>
      <trkpt lat="48.25149" lon="-3.56223">
        <ele>87.800003051758</ele>
        <time>2020-10-18T12:48:58.000Z</time>
      </trkpt>
      <trkpt lat="48.25149" lon="-3.56223">
        <ele>87.800003051758</ele>
        <time>2020-10-18T12:48:59.000Z</time>
      </trkpt>
      <trkpt lat="48.25152" lon="-3.56217">
        <ele>87.599998474121</ele>
        <time>2020-10-18T12:49:00.000Z</time>
      </trkpt>
      <trkpt lat="48.25157" lon="-3.56206">
        <ele>87.400001525879</ele>
        <time>2020-10-18T12:49:01.000Z</time>
      </trkpt>
      <trkpt lat="48.25159" lon="-3.562">
        <ele>87.599998474121</ele>
        <time>2020-10-18T12:49:02.000Z</time>
      </trkpt>
      <trkpt lat="48.25159" lon="-3.562">
        <ele>87.599998474121</ele>
        <time>2020-10-18T12:49:03.000Z</time>
      </trkpt>
      <trkpt lat="48.25164" lon="-3.5619">
        <ele>87.599998474121</ele>
        <time>2020-10-18T12:49:04.000Z</time>
      </trkpt>
      <trkpt lat="48.25164" lon="-3.5619">
        <ele>87.599998474121</ele>
        <time>2020-10-18T12:49:05.000Z</time>
      </trkpt>
      <trkpt lat="48.25166" lon="-3.56185">
        <ele>87.599998474121</ele>
        <time>2020-10-18T12:49:06.000Z</time>
      </trkpt>
      <trkpt lat="48.25169" lon="-3.56176">
        <ele>87.800003051758</ele>
        <time>2020-10-18T12:49:07.000Z</time>
      </trkpt>
      <trkpt lat="48.25169" lon="-3.56176">
        <ele>87.800003051758</ele>
        <time>2020-10-18T12:49:08.000Z</time>
      </trkpt>
      <trkpt lat="48.25171" lon="-3.56171">
        <ele>87.800003051758</ele>
        <time>2020-10-18T12:49:09.000Z</time>
      </trkpt>
      <trkpt lat="48.25174" lon="-3.56163">
        <ele>87.800003051758</ele>
        <time>2020-10-18T12:49:10.000Z</time>
      </trkpt>
      <trkpt lat="48.25174" lon="-3.56163">
        <ele>87.800003051758</ele>
        <time>2020-10-18T12:49:11.000Z</time>
      </trkpt>
      <trkpt lat="48.25176" lon="-3.56158">
        <ele>88</ele>
        <time>2020-10-18T12:49:12.000Z</time>
      </trkpt>
      <trkpt lat="48.25179" lon="-3.56149">
        <ele>88</ele>
        <time>2020-10-18T12:49:13.000Z</time>
      </trkpt>
      <trkpt lat="48.25179" lon="-3.56149">
        <ele>88</ele>
        <time>2020-10-18T12:49:14.000Z</time>
      </trkpt>
      <trkpt lat="48.2518" lon="-3.56145">
        <ele>88</ele>
        <time>2020-10-18T12:49:15.000Z</time>
      </trkpt>
      <trkpt lat="48.25184" lon="-3.56136">
        <ele>88</ele>
        <time>2020-10-18T12:49:16.000Z</time>
      </trkpt>
      <trkpt lat="48.25184" lon="-3.56136">
        <ele>88</ele>
        <time>2020-10-18T12:49:17.000Z</time>
      </trkpt>
      <trkpt lat="48.25186" lon="-3.5613">
        <ele>88</ele>
        <time>2020-10-18T12:49:18.000Z</time>
      </trkpt>
      <trkpt lat="48.2519" lon="-3.5612">
        <ele>88</ele>
        <time>2020-10-18T12:49:19.000Z</time>
      </trkpt>
      <trkpt lat="48.25193" lon="-3.56114">
        <ele>88</ele>
        <time>2020-10-18T12:49:20.000Z</time>
      </trkpt>
      <trkpt lat="48.25193" lon="-3.56114">
        <ele>88</ele>
        <time>2020-10-18T12:49:21.000Z</time>
      </trkpt>
      <trkpt lat="48.25195" lon="-3.56109">
        <ele>88</ele>
        <time>2020-10-18T12:49:22.000Z</time>
      </trkpt>
      <trkpt lat="48.252" lon="-3.56099">
        <ele>88</ele>
        <time>2020-10-18T12:49:23.000Z</time>
      </trkpt>
      <trkpt lat="48.252" lon="-3.56099">
        <ele>88</ele>
        <time>2020-10-18T12:49:24.000Z</time>
      </trkpt>
      <trkpt lat="48.25202" lon="-3.56094">
        <ele>88</ele>
        <time>2020-10-18T12:49:25.000Z</time>
      </trkpt>
      <trkpt lat="48.25207" lon="-3.56084">
        <ele>87.800003051758</ele>
        <time>2020-10-18T12:49:26.000Z</time>
      </trkpt>
      <trkpt lat="48.25207" lon="-3.56084">
        <ele>87.800003051758</ele>
        <time>2020-10-18T12:49:27.000Z</time>
      </trkpt>
      <trkpt lat="48.25209" lon="-3.5608">
        <ele>87.800003051758</ele>
        <time>2020-10-18T12:49:28.000Z</time>
      </trkpt>
      <trkpt lat="48.25214" lon="-3.56072">
        <ele>87.599998474121</ele>
        <time>2020-10-18T12:49:29.000Z</time>
      </trkpt>
      <trkpt lat="48.25214" lon="-3.56072">
        <ele>87.599998474121</ele>
        <time>2020-10-18T12:49:30.000Z</time>
      </trkpt>
      <trkpt lat="48.25216" lon="-3.56067">
        <ele>87.599998474121</ele>
        <time>2020-10-18T12:49:31.000Z</time>
      </trkpt>
      <trkpt lat="48.2522" lon="-3.56058">
        <ele>87.400001525879</ele>
        <time>2020-10-18T12:49:32.000Z</time>
      </trkpt>
      <trkpt lat="48.2522" lon="-3.56058">
        <ele>87.400001525879</ele>
        <time>2020-10-18T12:49:33.000Z</time>
      </trkpt>
      <trkpt lat="48.25222" lon="-3.56053">
        <ele>87.400001525879</ele>
        <time>2020-10-18T12:49:34.000Z</time>
      </trkpt>
      <trkpt lat="48.25226" lon="-3.56043">
        <ele>87.400001525879</ele>
        <time>2020-10-18T12:49:35.000Z</time>
      </trkpt>
      <trkpt lat="48.25226" lon="-3.56043">
        <ele>87.400001525879</ele>
        <time>2020-10-18T12:49:36.000Z</time>
      </trkpt>
      <trkpt lat="48.25228" lon="-3.56038">
        <ele>87.199996948242</ele>
        <time>2020-10-18T12:49:37.000Z</time>
      </trkpt>
      <trkpt lat="48.25232" lon="-3.56028">
        <ele>87.199996948242</ele>
        <time>2020-10-18T12:49:38.000Z</time>
      </trkpt>
      <trkpt lat="48.25234" lon="-3.56023">
        <ele>87</ele>
        <time>2020-10-18T12:49:39.000Z</time>
      </trkpt>
      <trkpt lat="48.25234" lon="-3.56023">
        <ele>87</ele>
        <time>2020-10-18T12:49:40.000Z</time>
      </trkpt>
      <trkpt lat="48.25236" lon="-3.56019">
        <ele>87</ele>
        <time>2020-10-18T12:49:41.000Z</time>
      </trkpt>
      <trkpt lat="48.2524" lon="-3.56009">
        <ele>87.199996948242</ele>
        <time>2020-10-18T12:49:42.000Z</time>
      </trkpt>
      <trkpt lat="48.2524" lon="-3.56009">
        <ele>87.199996948242</ele>
        <time>2020-10-18T12:49:43.000Z</time>
      </trkpt>
      <trkpt lat="48.25242" lon="-3.56004">
        <ele>87.199996948242</ele>
        <time>2020-10-18T12:49:44.000Z</time>
      </trkpt>
      <trkpt lat="48.25247" lon="-3.55995">
        <ele>87.199996948242</ele>
        <time>2020-10-18T12:49:45.000Z</time>
      </trkpt>
      <trkpt lat="48.25247" lon="-3.55995">
        <ele>87.199996948242</ele>
        <time>2020-10-18T12:49:46.000Z</time>
      </trkpt>
      <trkpt lat="48.25251" lon="-3.55985">
        <ele>87.400001525879</ele>
        <time>2020-10-18T12:49:47.000Z</time>
      </trkpt>
      <trkpt lat="48.25251" lon="-3.55985">
        <ele>87.400001525879</ele>
        <time>2020-10-18T12:49:48.000Z</time>
      </trkpt>
      <trkpt lat="48.25255" lon="-3.55976">
        <ele>87.400001525879</ele>
        <time>2020-10-18T12:49:49.000Z</time>
      </trkpt>
      <trkpt lat="48.25255" lon="-3.55976">
        <ele>87.400001525879</ele>
        <time>2020-10-18T12:49:50.000Z</time>
      </trkpt>
      <trkpt lat="48.25257" lon="-3.55973">
        <ele>87.599998474121</ele>
        <time>2020-10-18T12:49:51.000Z</time>
      </trkpt>
      <trkpt lat="48.25261" lon="-3.55966">
        <ele>87.599998474121</ele>
        <time>2020-10-18T12:49:52.000Z</time>
      </trkpt>
      <trkpt lat="48.25261" lon="-3.55966">
        <ele>87.599998474121</ele>
        <time>2020-10-18T12:49:53.000Z</time>
      </trkpt>
      <trkpt lat="48.25262" lon="-3.55963">
        <ele>87.599998474121</ele>
        <time>2020-10-18T12:49:54.000Z</time>
      </trkpt>
      <trkpt lat="48.25264" lon="-3.55958">
        <ele>87.800003051758</ele>
        <time>2020-10-18T12:49:55.000Z</time>
      </trkpt>
      <trkpt lat="48.25264" lon="-3.55958">
        <ele>87.800003051758</ele>
        <time>2020-10-18T12:49:56.000Z</time>
      </trkpt>
      <trkpt lat="48.25265" lon="-3.55955">
        <ele>87.800003051758</ele>
        <time>2020-10-18T12:49:57.000Z</time>
      </trkpt>
      <trkpt lat="48.25267" lon="-3.5595">
        <ele>87.800003051758</ele>
        <time>2020-10-18T12:49:58.000Z</time>
      </trkpt>
      <trkpt lat="48.25268" lon="-3.55948">
        <ele>87.800003051758</ele>
        <time>2020-10-18T12:49:59.000Z</time>
      </trkpt>
      <trkpt lat="48.25268" lon="-3.55948">
        <ele>87.800003051758</ele>
        <time>2020-10-18T12:50:00.000Z</time>
      </trkpt>
      <trkpt lat="48.25269" lon="-3.55944">
        <ele>87.800003051758</ele>
        <time>2020-10-18T12:50:01.000Z</time>
      </trkpt>
      <trkpt lat="48.25272" lon="-3.55937">
        <ele>87.800003051758</ele>
        <time>2020-10-18T12:50:02.000Z</time>
      </trkpt>
      <trkpt lat="48.25272" lon="-3.55937">
        <ele>87.800003051758</ele>
        <time>2020-10-18T12:50:03.000Z</time>
      </trkpt>
      <trkpt lat="48.25273" lon="-3.55933">
        <ele>87.800003051758</ele>
        <time>2020-10-18T12:50:04.000Z</time>
      </trkpt>
      <trkpt lat="48.25277" lon="-3.55924">
        <ele>88</ele>
        <time>2020-10-18T12:50:05.000Z</time>
      </trkpt>
      <trkpt lat="48.25277" lon="-3.55924">
        <ele>88</ele>
        <time>2020-10-18T12:50:06.000Z</time>
      </trkpt>
      <trkpt lat="48.25279" lon="-3.55918">
        <ele>88</ele>
        <time>2020-10-18T12:50:07.000Z</time>
      </trkpt>
      <trkpt lat="48.25284" lon="-3.55905">
        <ele>87.800003051758</ele>
        <time>2020-10-18T12:50:08.000Z</time>
      </trkpt>
      <trkpt lat="48.25284" lon="-3.55905">
        <ele>87.800003051758</ele>
        <time>2020-10-18T12:50:09.000Z</time>
      </trkpt>
      <trkpt lat="48.25286" lon="-3.55899">
        <ele>87.800003051758</ele>
        <time>2020-10-18T12:50:10.000Z</time>
      </trkpt>
      <trkpt lat="48.25291" lon="-3.55885">
        <ele>87.599998474121</ele>
        <time>2020-10-18T12:50:11.000Z</time>
      </trkpt>
      <trkpt lat="48.25291" lon="-3.55885">
        <ele>87.599998474121</ele>
        <time>2020-10-18T12:50:12.000Z</time>
      </trkpt>
      <trkpt lat="48.25296" lon="-3.55873">
        <ele>87.400001525879</ele>
        <time>2020-10-18T12:50:13.000Z</time>
      </trkpt>
      <trkpt lat="48.25296" lon="-3.55873">
        <ele>87.400001525879</ele>
        <time>2020-10-18T12:50:14.000Z</time>
      </trkpt>
      <trkpt lat="48.25298" lon="-3.55868">
        <ele>87.199996948242</ele>
        <time>2020-10-18T12:50:15.000Z</time>
      </trkpt>
      <trkpt lat="48.25303" lon="-3.55858">
        <ele>87.199996948242</ele>
        <time>2020-10-18T12:50:16.000Z</time>
      </trkpt>
      <trkpt lat="48.25303" lon="-3.55858">
        <ele>87.199996948242</ele>
        <time>2020-10-18T12:50:17.000Z</time>
      </trkpt>
      <trkpt lat="48.25305" lon="-3.55853">
        <ele>87</ele>
        <time>2020-10-18T12:50:18.000Z</time>
      </trkpt>
      <trkpt lat="48.2531" lon="-3.55843">
        <ele>87</ele>
        <time>2020-10-18T12:50:19.000Z</time>
      </trkpt>
      <trkpt lat="48.2531" lon="-3.55843">
        <ele>87</ele>
        <time>2020-10-18T12:50:20.000Z</time>
      </trkpt>
      <trkpt lat="48.25313" lon="-3.55838">
        <ele>86.800003051758</ele>
        <time>2020-10-18T12:50:21.000Z</time>
      </trkpt>
      <trkpt lat="48.25318" lon="-3.55828">
        <ele>86.800003051758</ele>
        <time>2020-10-18T12:50:22.000Z</time>
      </trkpt>
      <trkpt lat="48.25318" lon="-3.55828">
        <ele>86.800003051758</ele>
        <time>2020-10-18T12:50:23.000Z</time>
      </trkpt>
      <trkpt lat="48.2532" lon="-3.55823">
        <ele>86.800003051758</ele>
        <time>2020-10-18T12:50:24.000Z</time>
      </trkpt>
      <trkpt lat="48.25325" lon="-3.55813">
        <ele>86.599998474121</ele>
        <time>2020-10-18T12:50:25.000Z</time>
      </trkpt>
      <trkpt lat="48.25325" lon="-3.55813">
        <ele>86.599998474121</ele>
        <time>2020-10-18T12:50:26.000Z</time>
      </trkpt>
      <trkpt lat="48.25328" lon="-3.55807">
        <ele>86.599998474121</ele>
        <time>2020-10-18T12:50:27.000Z</time>
      </trkpt>
      <trkpt lat="48.25333" lon="-3.55797">
        <ele>86.400001525879</ele>
        <time>2020-10-18T12:50:28.000Z</time>
      </trkpt>
      <trkpt lat="48.25333" lon="-3.55797">
        <ele>86.400001525879</ele>
        <time>2020-10-18T12:50:29.000Z</time>
      </trkpt>
      <trkpt lat="48.25336" lon="-3.55793">
        <ele>86.400001525879</ele>
        <time>2020-10-18T12:50:30.000Z</time>
      </trkpt>
      <trkpt lat="48.25341" lon="-3.55783">
        <ele>86.199996948242</ele>
        <time>2020-10-18T12:50:31.000Z</time>
      </trkpt>
      <trkpt lat="48.25341" lon="-3.55783">
        <ele>86.199996948242</ele>
        <time>2020-10-18T12:50:32.000Z</time>
      </trkpt>
      <trkpt lat="48.25343" lon="-3.55778">
        <ele>86.199996948242</ele>
        <time>2020-10-18T12:50:33.000Z</time>
      </trkpt>
      <trkpt lat="48.25346" lon="-3.55768">
        <ele>86</ele>
        <time>2020-10-18T12:50:34.000Z</time>
      </trkpt>
      <trkpt lat="48.25346" lon="-3.55768">
        <ele>86</ele>
        <time>2020-10-18T12:50:35.000Z</time>
      </trkpt>
      <trkpt lat="48.25348" lon="-3.55764">
        <ele>86.199996948242</ele>
        <time>2020-10-18T12:50:36.000Z</time>
      </trkpt>
      <trkpt lat="48.25351" lon="-3.55756">
        <ele>86.599998474121</ele>
        <time>2020-10-18T12:50:37.000Z</time>
      </trkpt>
      <trkpt lat="48.25353" lon="-3.55751">
        <ele>86.800003051758</ele>
        <time>2020-10-18T12:50:38.000Z</time>
      </trkpt>
      <trkpt lat="48.25353" lon="-3.55751">
        <ele>86.800003051758</ele>
        <time>2020-10-18T12:50:39.000Z</time>
      </trkpt>
      <trkpt lat="48.25354" lon="-3.55747">
        <ele>87</ele>
        <time>2020-10-18T12:50:40.000Z</time>
      </trkpt>
      <trkpt lat="48.25357" lon="-3.55738">
        <ele>87.400001525879</ele>
        <time>2020-10-18T12:50:41.000Z</time>
      </trkpt>
      <trkpt lat="48.25357" lon="-3.55738">
        <ele>87.400001525879</ele>
        <time>2020-10-18T12:50:42.000Z</time>
      </trkpt>
      <trkpt lat="48.25361" lon="-3.55729">
        <ele>87.800003051758</ele>
        <time>2020-10-18T12:50:43.000Z</time>
      </trkpt>
      <trkpt lat="48.25361" lon="-3.55729">
        <ele>87.800003051758</ele>
        <time>2020-10-18T12:50:44.000Z</time>
      </trkpt>
      <trkpt lat="48.25363" lon="-3.55725">
        <ele>88</ele>
        <time>2020-10-18T12:50:45.000Z</time>
      </trkpt>
      <trkpt lat="48.25367" lon="-3.55715">
        <ele>88.599998474121</ele>
        <time>2020-10-18T12:50:46.000Z</time>
      </trkpt>
      <trkpt lat="48.25367" lon="-3.55715">
        <ele>88.599998474121</ele>
        <time>2020-10-18T12:50:47.000Z</time>
      </trkpt>
      <trkpt lat="48.25371" lon="-3.55704">
        <ele>89</ele>
        <time>2020-10-18T12:50:48.000Z</time>
      </trkpt>
      <trkpt lat="48.25371" lon="-3.55704">
        <ele>89</ele>
        <time>2020-10-18T12:50:49.000Z</time>
      </trkpt>
      <trkpt lat="48.25373" lon="-3.55699">
        <ele>89.199996948242</ele>
        <time>2020-10-18T12:50:50.000Z</time>
      </trkpt>
      <trkpt lat="48.25377" lon="-3.55691">
        <ele>89.800003051758</ele>
        <time>2020-10-18T12:50:51.000Z</time>
      </trkpt>
      <trkpt lat="48.25377" lon="-3.55691">
        <ele>89.800003051758</ele>
        <time>2020-10-18T12:50:52.000Z</time>
      </trkpt>
      <trkpt lat="48.25379" lon="-3.55686">
        <ele>90</ele>
        <time>2020-10-18T12:50:53.000Z</time>
      </trkpt>
      <trkpt lat="48.25383" lon="-3.55677">
        <ele>90</ele>
        <time>2020-10-18T12:50:54.000Z</time>
      </trkpt>
      <trkpt lat="48.25383" lon="-3.55677">
        <ele>90</ele>
        <time>2020-10-18T12:50:55.000Z</time>
      </trkpt>
      <trkpt lat="48.25384" lon="-3.55672">
        <ele>90</ele>
        <time>2020-10-18T12:50:56.000Z</time>
      </trkpt>
      <trkpt lat="48.25388" lon="-3.55663">
        <ele>90</ele>
        <time>2020-10-18T12:50:57.000Z</time>
      </trkpt>
      <trkpt lat="48.2539" lon="-3.55658">
        <ele>90</ele>
        <time>2020-10-18T12:50:58.000Z</time>
      </trkpt>
      <trkpt lat="48.2539" lon="-3.55658">
        <ele>90</ele>
        <time>2020-10-18T12:50:59.000Z</time>
      </trkpt>
      <trkpt lat="48.25392" lon="-3.55653">
        <ele>90</ele>
        <time>2020-10-18T12:51:00.000Z</time>
      </trkpt>
      <trkpt lat="48.25396" lon="-3.55643">
        <ele>90</ele>
        <time>2020-10-18T12:51:01.000Z</time>
      </trkpt>
      <trkpt lat="48.25396" lon="-3.55643">
        <ele>90</ele>
        <time>2020-10-18T12:51:02.000Z</time>
      </trkpt>
      <trkpt lat="48.25398" lon="-3.55637">
        <ele>90</ele>
        <time>2020-10-18T12:51:03.000Z</time>
      </trkpt>
      <trkpt lat="48.25402" lon="-3.55627">
        <ele>90</ele>
        <time>2020-10-18T12:51:04.000Z</time>
      </trkpt>
      <trkpt lat="48.25402" lon="-3.55627">
        <ele>90</ele>
        <time>2020-10-18T12:51:05.000Z</time>
      </trkpt>
      <trkpt lat="48.25404" lon="-3.55621">
        <ele>90.199996948242</ele>
        <time>2020-10-18T12:51:06.000Z</time>
      </trkpt>
      <trkpt lat="48.25408" lon="-3.5561">
        <ele>90.599998474121</ele>
        <time>2020-10-18T12:51:07.000Z</time>
      </trkpt>
      <trkpt lat="48.25408" lon="-3.5561">
        <ele>90.599998474121</ele>
        <time>2020-10-18T12:51:08.000Z</time>
      </trkpt>
      <trkpt lat="48.25411" lon="-3.55605">
        <ele>90.599998474121</ele>
        <time>2020-10-18T12:51:09.000Z</time>
      </trkpt>
      <trkpt lat="48.25416" lon="-3.55595">
        <ele>90.800003051758</ele>
        <time>2020-10-18T12:51:10.000Z</time>
      </trkpt>
      <trkpt lat="48.25416" lon="-3.55595">
        <ele>90.800003051758</ele>
        <time>2020-10-18T12:51:11.000Z</time>
      </trkpt>
      <trkpt lat="48.25418" lon="-3.5559">
        <ele>90.800003051758</ele>
        <time>2020-10-18T12:51:12.000Z</time>
      </trkpt>
      <trkpt lat="48.25423" lon="-3.55579">
        <ele>90.800003051758</ele>
        <time>2020-10-18T12:51:13.000Z</time>
      </trkpt>
      <trkpt lat="48.25423" lon="-3.55579">
        <ele>90.800003051758</ele>
        <time>2020-10-18T12:51:14.000Z</time>
      </trkpt>
      <trkpt lat="48.25426" lon="-3.55574">
        <ele>90.800003051758</ele>
        <time>2020-10-18T12:51:15.000Z</time>
      </trkpt>
      <trkpt lat="48.25431" lon="-3.55563">
        <ele>91</ele>
        <time>2020-10-18T12:51:16.000Z</time>
      </trkpt>
      <trkpt lat="48.25431" lon="-3.55563">
        <ele>91</ele>
        <time>2020-10-18T12:51:17.000Z</time>
      </trkpt>
      <trkpt lat="48.25433" lon="-3.55557">
        <ele>91.199996948242</ele>
        <time>2020-10-18T12:51:18.000Z</time>
      </trkpt>
      <trkpt lat="48.25438" lon="-3.55547">
        <ele>91.800003051758</ele>
        <time>2020-10-18T12:51:19.000Z</time>
      </trkpt>
      <trkpt lat="48.25438" lon="-3.55547">
        <ele>91.800003051758</ele>
        <time>2020-10-18T12:51:20.000Z</time>
      </trkpt>
      <trkpt lat="48.2544" lon="-3.55542">
        <ele>92.199996948242</ele>
        <time>2020-10-18T12:51:21.000Z</time>
      </trkpt>
      <trkpt lat="48.25446" lon="-3.55532">
        <ele>92.800003051758</ele>
        <time>2020-10-18T12:51:22.000Z</time>
      </trkpt>
      <trkpt lat="48.25446" lon="-3.55532">
        <ele>92.800003051758</ele>
        <time>2020-10-18T12:51:23.000Z</time>
      </trkpt>
      <trkpt lat="48.25448" lon="-3.55527">
        <ele>93.199996948242</ele>
        <time>2020-10-18T12:51:24.000Z</time>
      </trkpt>
      <trkpt lat="48.25453" lon="-3.55517">
        <ele>94</ele>
        <time>2020-10-18T12:51:25.000Z</time>
      </trkpt>
      <trkpt lat="48.25453" lon="-3.55517">
        <ele>94</ele>
        <time>2020-10-18T12:51:26.000Z</time>
      </trkpt>
      <trkpt lat="48.25455" lon="-3.55512">
        <ele>94.199996948242</ele>
        <time>2020-10-18T12:51:27.000Z</time>
      </trkpt>
      <trkpt lat="48.2546" lon="-3.55502">
        <ele>94.599998474121</ele>
        <time>2020-10-18T12:51:28.000Z</time>
      </trkpt>
      <trkpt lat="48.2546" lon="-3.55502">
        <ele>94.599998474121</ele>
        <time>2020-10-18T12:51:29.000Z</time>
      </trkpt>
      <trkpt lat="48.25462" lon="-3.55497">
        <ele>94.800003051758</ele>
        <time>2020-10-18T12:51:30.000Z</time>
      </trkpt>
      <trkpt lat="48.25465" lon="-3.55485">
        <ele>95.199996948242</ele>
        <time>2020-10-18T12:51:31.000Z</time>
      </trkpt>
      <trkpt lat="48.25465" lon="-3.55485">
        <ele>95.199996948242</ele>
        <time>2020-10-18T12:51:32.000Z</time>
      </trkpt>
      <trkpt lat="48.25466" lon="-3.55479">
        <ele>95.199996948242</ele>
        <time>2020-10-18T12:51:33.000Z</time>
      </trkpt>
      <trkpt lat="48.25469" lon="-3.55467">
        <ele>95.800003051758</ele>
        <time>2020-10-18T12:51:34.000Z</time>
      </trkpt>
      <trkpt lat="48.25469" lon="-3.55467">
        <ele>95.800003051758</ele>
        <time>2020-10-18T12:51:35.000Z</time>
      </trkpt>
      <trkpt lat="48.25469" lon="-3.55462">
        <ele>96</ele>
        <time>2020-10-18T12:51:36.000Z</time>
      </trkpt>
      <trkpt lat="48.2547" lon="-3.5545">
        <ele>96.599998474121</ele>
        <time>2020-10-18T12:51:37.000Z</time>
      </trkpt>
      <trkpt lat="48.2547" lon="-3.5545">
        <ele>96.599998474121</ele>
        <time>2020-10-18T12:51:38.000Z</time>
      </trkpt>
      <trkpt lat="48.25471" lon="-3.55444">
        <ele>96.800003051758</ele>
        <time>2020-10-18T12:51:39.000Z</time>
      </trkpt>
      <trkpt lat="48.25471" lon="-3.55433">
        <ele>97</ele>
        <time>2020-10-18T12:51:40.000Z</time>
      </trkpt>
      <trkpt lat="48.25471" lon="-3.55433">
        <ele>97</ele>
        <time>2020-10-18T12:51:41.000Z</time>
      </trkpt>
      <trkpt lat="48.25471" lon="-3.55427">
        <ele>97.199996948242</ele>
        <time>2020-10-18T12:51:42.000Z</time>
      </trkpt>
      <trkpt lat="48.2547" lon="-3.55415">
        <ele>97</ele>
        <time>2020-10-18T12:51:43.000Z</time>
      </trkpt>
      <trkpt lat="48.2547" lon="-3.55415">
        <ele>97</ele>
        <time>2020-10-18T12:51:44.000Z</time>
      </trkpt>
      <trkpt lat="48.25469" lon="-3.5541">
        <ele>97</ele>
        <time>2020-10-18T12:51:45.000Z</time>
      </trkpt>
      <trkpt lat="48.25468" lon="-3.55398">
        <ele>97</ele>
        <time>2020-10-18T12:51:46.000Z</time>
      </trkpt>
      <trkpt lat="48.25467" lon="-3.55393">
        <ele>96.800003051758</ele>
        <time>2020-10-18T12:51:47.000Z</time>
      </trkpt>
      <trkpt lat="48.25466" lon="-3.55387">
        <ele>96.800003051758</ele>
        <time>2020-10-18T12:51:48.000Z</time>
      </trkpt>
      <trkpt lat="48.25466" lon="-3.55387">
        <ele>96.800003051758</ele>
        <time>2020-10-18T12:51:49.000Z</time>
      </trkpt>
      <trkpt lat="48.25464" lon="-3.55381">
        <ele>96.599998474121</ele>
        <time>2020-10-18T12:51:50.000Z</time>
      </trkpt>
      <trkpt lat="48.25461" lon="-3.55369">
        <ele>96.400001525879</ele>
        <time>2020-10-18T12:51:51.000Z</time>
      </trkpt>
      <trkpt lat="48.25461" lon="-3.55369">
        <ele>96.400001525879</ele>
        <time>2020-10-18T12:51:52.000Z</time>
      </trkpt>
      <trkpt lat="48.25458" lon="-3.55358">
        <ele>96.199996948242</ele>
        <time>2020-10-18T12:51:53.000Z</time>
      </trkpt>
      <trkpt lat="48.25458" lon="-3.55358">
        <ele>96.199996948242</ele>
        <time>2020-10-18T12:51:54.000Z</time>
      </trkpt>
      <trkpt lat="48.25457" lon="-3.55353">
        <ele>96</ele>
        <time>2020-10-18T12:51:55.000Z</time>
      </trkpt>
      <trkpt lat="48.25454" lon="-3.55342">
        <ele>95.599998474121</ele>
        <time>2020-10-18T12:51:56.000Z</time>
      </trkpt>
      <trkpt lat="48.25452" lon="-3.55336">
        <ele>95.400001525879</ele>
        <time>2020-10-18T12:51:57.000Z</time>
      </trkpt>
      <trkpt lat="48.25452" lon="-3.55336">
        <ele>95.400001525879</ele>
        <time>2020-10-18T12:51:58.000Z</time>
      </trkpt>
      <trkpt lat="48.25451" lon="-3.5533">
        <ele>95.400001525879</ele>
        <time>2020-10-18T12:51:59.000Z</time>
      </trkpt>
      <trkpt lat="48.25449" lon="-3.5532">
        <ele>95.199996948242</ele>
        <time>2020-10-18T12:52:00.000Z</time>
      </trkpt>
      <trkpt lat="48.25449" lon="-3.5532">
        <ele>95.199996948242</ele>
        <time>2020-10-18T12:52:01.000Z</time>
      </trkpt>
      <trkpt lat="48.25448" lon="-3.55315">
        <ele>95.199996948242</ele>
        <time>2020-10-18T12:52:02.000Z</time>
      </trkpt>
      <trkpt lat="48.25446" lon="-3.55305">
        <ele>95</ele>
        <time>2020-10-18T12:52:03.000Z</time>
      </trkpt>
      <trkpt lat="48.25446" lon="-3.55305">
        <ele>95</ele>
        <time>2020-10-18T12:52:04.000Z</time>
      </trkpt>
      <trkpt lat="48.25445" lon="-3.553">
        <ele>94.800003051758</ele>
        <time>2020-10-18T12:52:05.000Z</time>
      </trkpt>
      <trkpt lat="48.25444" lon="-3.55289">
        <ele>95</ele>
        <time>2020-10-18T12:52:06.000Z</time>
      </trkpt>
      <trkpt lat="48.25444" lon="-3.55289">
        <ele>95</ele>
        <time>2020-10-18T12:52:07.000Z</time>
      </trkpt>
      <trkpt lat="48.25444" lon="-3.55284">
        <ele>95</ele>
        <time>2020-10-18T12:52:08.000Z</time>
      </trkpt>
      <trkpt lat="48.25442" lon="-3.55274">
        <ele>94.800003051758</ele>
        <time>2020-10-18T12:52:09.000Z</time>
      </trkpt>
      <trkpt lat="48.25442" lon="-3.55274">
        <ele>94.800003051758</ele>
        <time>2020-10-18T12:52:10.000Z</time>
      </trkpt>
      <trkpt lat="48.25442" lon="-3.55269">
        <ele>94.800003051758</ele>
        <time>2020-10-18T12:52:11.000Z</time>
      </trkpt>
      <trkpt lat="48.25441" lon="-3.55265">
        <ele>94.599998474121</ele>
        <time>2020-10-18T12:52:12.000Z</time>
      </trkpt>
      <trkpt lat="48.2544" lon="-3.55261">
        <ele>94.599998474121</ele>
        <time>2020-10-18T12:52:13.000Z</time>
      </trkpt>
      <trkpt lat="48.25438" lon="-3.55252">
        <ele>94.199996948242</ele>
        <time>2020-10-18T12:52:14.000Z</time>
      </trkpt>
      <trkpt lat="48.25438" lon="-3.55252">
        <ele>94.199996948242</ele>
        <time>2020-10-18T12:52:15.000Z</time>
      </trkpt>
      <trkpt lat="48.25436" lon="-3.55248">
        <ele>94</ele>
        <time>2020-10-18T12:52:16.000Z</time>
      </trkpt>
      <trkpt lat="48.25433" lon="-3.55237">
        <ele>93.599998474121</ele>
        <time>2020-10-18T12:52:17.000Z</time>
      </trkpt>
      <trkpt lat="48.25433" lon="-3.55237">
        <ele>93.599998474121</ele>
        <time>2020-10-18T12:52:18.000Z</time>
      </trkpt>
      <trkpt lat="48.25432" lon="-3.55232">
        <ele>93.400001525879</ele>
        <time>2020-10-18T12:52:19.000Z</time>
      </trkpt>
      <trkpt lat="48.25429" lon="-3.5522">
        <ele>93</ele>
        <time>2020-10-18T12:52:20.000Z</time>
      </trkpt>
      <trkpt lat="48.25429" lon="-3.5522">
        <ele>93</ele>
        <time>2020-10-18T12:52:21.000Z</time>
      </trkpt>
      <trkpt lat="48.25428" lon="-3.55215">
        <ele>93.199996948242</ele>
        <time>2020-10-18T12:52:22.000Z</time>
      </trkpt>
      <trkpt lat="48.25425" lon="-3.55204">
        <ele>93.400001525879</ele>
        <time>2020-10-18T12:52:23.000Z</time>
      </trkpt>
      <trkpt lat="48.25425" lon="-3.55204">
        <ele>93.400001525879</ele>
        <time>2020-10-18T12:52:24.000Z</time>
      </trkpt>
      <trkpt lat="48.25424" lon="-3.55198">
        <ele>93.599998474121</ele>
        <time>2020-10-18T12:52:25.000Z</time>
      </trkpt>
      <trkpt lat="48.25422" lon="-3.55187">
        <ele>93.800003051758</ele>
        <time>2020-10-18T12:52:26.000Z</time>
      </trkpt>
      <trkpt lat="48.25422" lon="-3.55187">
        <ele>93.800003051758</ele>
        <time>2020-10-18T12:52:27.000Z</time>
      </trkpt>
      <trkpt lat="48.2542" lon="-3.55181">
        <ele>94</ele>
        <time>2020-10-18T12:52:28.000Z</time>
      </trkpt>
      <trkpt lat="48.25418" lon="-3.5517">
        <ele>94.599998474121</ele>
        <time>2020-10-18T12:52:29.000Z</time>
      </trkpt>
      <trkpt lat="48.25418" lon="-3.5517">
        <ele>94.599998474121</ele>
        <time>2020-10-18T12:52:30.000Z</time>
      </trkpt>
      <trkpt lat="48.25417" lon="-3.55165">
        <ele>94.800003051758</ele>
        <time>2020-10-18T12:52:31.000Z</time>
      </trkpt>
      <trkpt lat="48.25414" lon="-3.55155">
        <ele>95.400001525879</ele>
        <time>2020-10-18T12:52:32.000Z</time>
      </trkpt>
      <trkpt lat="48.25414" lon="-3.55155">
        <ele>95.400001525879</ele>
        <time>2020-10-18T12:52:33.000Z</time>
      </trkpt>
      <trkpt lat="48.25413" lon="-3.5515">
        <ele>95.599998474121</ele>
        <time>2020-10-18T12:52:34.000Z</time>
      </trkpt>
      <trkpt lat="48.2541" lon="-3.5514">
        <ele>96</ele>
        <time>2020-10-18T12:52:35.000Z</time>
      </trkpt>
      <trkpt lat="48.2541" lon="-3.5514">
        <ele>96</ele>
        <time>2020-10-18T12:52:36.000Z</time>
      </trkpt>
      <trkpt lat="48.25409" lon="-3.55135">
        <ele>96.400001525879</ele>
        <time>2020-10-18T12:52:37.000Z</time>
      </trkpt>
      <trkpt lat="48.25406" lon="-3.55126">
        <ele>97</ele>
        <time>2020-10-18T12:52:38.000Z</time>
      </trkpt>
      <trkpt lat="48.25406" lon="-3.55126">
        <ele>97</ele>
        <time>2020-10-18T12:52:39.000Z</time>
      </trkpt>
      <trkpt lat="48.25405" lon="-3.5512">
        <ele>96.800003051758</ele>
        <time>2020-10-18T12:52:40.000Z</time>
      </trkpt>
      <trkpt lat="48.25403" lon="-3.55111">
        <ele>96.199996948242</ele>
        <time>2020-10-18T12:52:41.000Z</time>
      </trkpt>
      <trkpt lat="48.25403" lon="-3.55111">
        <ele>96.199996948242</ele>
        <time>2020-10-18T12:52:42.000Z</time>
      </trkpt>
      <trkpt lat="48.25401" lon="-3.55105">
        <ele>96</ele>
        <time>2020-10-18T12:52:43.000Z</time>
      </trkpt>
      <trkpt lat="48.25399" lon="-3.55095">
        <ele>96.199996948242</ele>
        <time>2020-10-18T12:52:44.000Z</time>
      </trkpt>
      <trkpt lat="48.25399" lon="-3.55095">
        <ele>96.199996948242</ele>
        <time>2020-10-18T12:52:45.000Z</time>
      </trkpt>
      <trkpt lat="48.25397" lon="-3.5509">
        <ele>96.599998474121</ele>
        <time>2020-10-18T12:52:46.000Z</time>
      </trkpt>
      <trkpt lat="48.25396" lon="-3.55085">
        <ele>97</ele>
        <time>2020-10-18T12:52:47.000Z</time>
      </trkpt>
      <trkpt lat="48.25395" lon="-3.55079">
        <ele>97.400001525879</ele>
        <time>2020-10-18T12:52:48.000Z</time>
      </trkpt>
      <trkpt lat="48.25392" lon="-3.55066">
        <ele>98.400001525879</ele>
        <time>2020-10-18T12:52:49.000Z</time>
      </trkpt>
      <trkpt lat="48.25392" lon="-3.55066">
        <ele>98.400001525879</ele>
        <time>2020-10-18T12:52:50.000Z</time>
      </trkpt>
      <trkpt lat="48.25391" lon="-3.5506">
        <ele>98.800003051758</ele>
        <time>2020-10-18T12:52:51.000Z</time>
      </trkpt>
      <trkpt lat="48.25386" lon="-3.55049">
        <ele>98.400001525879</ele>
        <time>2020-10-18T12:52:52.000Z</time>
      </trkpt>
      <trkpt lat="48.25386" lon="-3.55049">
        <ele>98.400001525879</ele>
        <time>2020-10-18T12:52:53.000Z</time>
      </trkpt>
      <trkpt lat="48.25385" lon="-3.55042">
        <ele>98</ele>
        <time>2020-10-18T12:52:54.000Z</time>
      </trkpt>
      <trkpt lat="48.25382" lon="-3.5503">
        <ele>97.199996948242</ele>
        <time>2020-10-18T12:52:55.000Z</time>
      </trkpt>
      <trkpt lat="48.25381" lon="-3.55024">
        <ele>96.599998474121</ele>
        <time>2020-10-18T12:52:56.000Z</time>
      </trkpt>
      <trkpt lat="48.25381" lon="-3.55024">
        <ele>96.599998474121</ele>
        <time>2020-10-18T12:52:57.000Z</time>
      </trkpt>
      <trkpt lat="48.25379" lon="-3.55018">
        <ele>96.199996948242</ele>
        <time>2020-10-18T12:52:58.000Z</time>
      </trkpt>
      <trkpt lat="48.25377" lon="-3.55006">
        <ele>95.599998474121</ele>
        <time>2020-10-18T12:52:59.000Z</time>
      </trkpt>
      <trkpt lat="48.25377" lon="-3.55006">
        <ele>95.599998474121</ele>
        <time>2020-10-18T12:53:00.000Z</time>
      </trkpt>
      <trkpt lat="48.25376" lon="-3.55">
        <ele>95.199996948242</ele>
        <time>2020-10-18T12:53:01.000Z</time>
      </trkpt>
      <trkpt lat="48.25374" lon="-3.54988">
        <ele>94.599998474121</ele>
        <time>2020-10-18T12:53:02.000Z</time>
      </trkpt>
      <trkpt lat="48.25374" lon="-3.54988">
        <ele>94.599998474121</ele>
        <time>2020-10-18T12:53:03.000Z</time>
      </trkpt>
      <trkpt lat="48.25372" lon="-3.54976">
        <ele>93.800003051758</ele>
        <time>2020-10-18T12:53:04.000Z</time>
      </trkpt>
      <trkpt lat="48.25372" lon="-3.54976">
        <ele>93.800003051758</ele>
        <time>2020-10-18T12:53:05.000Z</time>
      </trkpt>
      <trkpt lat="48.25371" lon="-3.54971">
        <ele>93.599998474121</ele>
        <time>2020-10-18T12:53:06.000Z</time>
      </trkpt>
      <trkpt lat="48.25369" lon="-3.5496">
        <ele>92.800003051758</ele>
        <time>2020-10-18T12:53:07.000Z</time>
      </trkpt>
      <trkpt lat="48.25369" lon="-3.5496">
        <ele>92.800003051758</ele>
        <time>2020-10-18T12:53:08.000Z</time>
      </trkpt>
      <trkpt lat="48.25368" lon="-3.54955">
        <ele>92.400001525879</ele>
        <time>2020-10-18T12:53:09.000Z</time>
      </trkpt>
      <trkpt lat="48.25366" lon="-3.54943">
        <ele>91.599998474121</ele>
        <time>2020-10-18T12:53:10.000Z</time>
      </trkpt>
      <trkpt lat="48.25366" lon="-3.54943">
        <ele>91.599998474121</ele>
        <time>2020-10-18T12:53:11.000Z</time>
      </trkpt>
      <trkpt lat="48.25365" lon="-3.54938">
        <ele>91.199996948242</ele>
        <time>2020-10-18T12:53:12.000Z</time>
      </trkpt>
      <trkpt lat="48.25365" lon="-3.54925">
        <ele>90.800003051758</ele>
        <time>2020-10-18T12:53:13.000Z</time>
      </trkpt>
      <trkpt lat="48.25365" lon="-3.54925">
        <ele>90.800003051758</ele>
        <time>2020-10-18T12:53:14.000Z</time>
      </trkpt>
      <trkpt lat="48.25366" lon="-3.5492">
        <ele>90.800003051758</ele>
        <time>2020-10-18T12:53:15.000Z</time>
      </trkpt>
      <trkpt lat="48.25366" lon="-3.54914">
        <ele>90.599998474121</ele>
        <time>2020-10-18T12:53:16.000Z</time>
      </trkpt>
      <trkpt lat="48.25366" lon="-3.54903">
        <ele>90.599998474121</ele>
        <time>2020-10-18T12:53:17.000Z</time>
      </trkpt>
      <trkpt lat="48.25366" lon="-3.54903">
        <ele>90.599998474121</ele>
        <time>2020-10-18T12:53:18.000Z</time>
      </trkpt>
      <trkpt lat="48.25367" lon="-3.54897">
        <ele>90.599998474121</ele>
        <time>2020-10-18T12:53:19.000Z</time>
      </trkpt>
      <trkpt lat="48.25368" lon="-3.54885">
        <ele>90.400001525879</ele>
        <time>2020-10-18T12:53:20.000Z</time>
      </trkpt>
      <trkpt lat="48.25368" lon="-3.54885">
        <ele>90.400001525879</ele>
        <time>2020-10-18T12:53:21.000Z</time>
      </trkpt>
      <trkpt lat="48.25368" lon="-3.5488">
        <ele>90.400001525879</ele>
        <time>2020-10-18T12:53:22.000Z</time>
      </trkpt>
      <trkpt lat="48.25367" lon="-3.54867">
        <ele>90.199996948242</ele>
        <time>2020-10-18T12:53:23.000Z</time>
      </trkpt>
      <trkpt lat="48.25367" lon="-3.54867">
        <ele>90.199996948242</ele>
        <time>2020-10-18T12:53:24.000Z</time>
      </trkpt>
      <trkpt lat="48.25367" lon="-3.5486">
        <ele>90.199996948242</ele>
        <time>2020-10-18T12:53:25.000Z</time>
      </trkpt>
      <trkpt lat="48.25366" lon="-3.54846">
        <ele>90.199996948242</ele>
        <time>2020-10-18T12:53:26.000Z</time>
      </trkpt>
      <trkpt lat="48.25366" lon="-3.54846">
        <ele>90.199996948242</ele>
        <time>2020-10-18T12:53:27.000Z</time>
      </trkpt>
      <trkpt lat="48.25366" lon="-3.5484">
        <ele>90.800003051758</ele>
        <time>2020-10-18T12:53:28.000Z</time>
      </trkpt>
      <trkpt lat="48.25366" lon="-3.54827">
        <ele>91.400001525879</ele>
        <time>2020-10-18T12:53:29.000Z</time>
      </trkpt>
      <trkpt lat="48.25366" lon="-3.54827">
        <ele>91.400001525879</ele>
        <time>2020-10-18T12:53:30.000Z</time>
      </trkpt>
      <trkpt lat="48.25365" lon="-3.54821">
        <ele>91.199996948242</ele>
        <time>2020-10-18T12:53:31.000Z</time>
      </trkpt>
      <trkpt lat="48.25365" lon="-3.54808">
        <ele>91.199996948242</ele>
        <time>2020-10-18T12:53:32.000Z</time>
      </trkpt>
      <trkpt lat="48.25365" lon="-3.54808">
        <ele>91.199996948242</ele>
        <time>2020-10-18T12:53:33.000Z</time>
      </trkpt>
      <trkpt lat="48.25365" lon="-3.54802">
        <ele>91.199996948242</ele>
        <time>2020-10-18T12:53:34.000Z</time>
      </trkpt>
      <trkpt lat="48.25364" lon="-3.54789">
        <ele>91</ele>
        <time>2020-10-18T12:53:35.000Z</time>
      </trkpt>
      <trkpt lat="48.25364" lon="-3.54789">
        <ele>91</ele>
        <time>2020-10-18T12:53:36.000Z</time>
      </trkpt>
      <trkpt lat="48.25364" lon="-3.54782">
        <ele>91</ele>
        <time>2020-10-18T12:53:37.000Z</time>
      </trkpt>
      <trkpt lat="48.25363" lon="-3.54768">
        <ele>90.800003051758</ele>
        <time>2020-10-18T12:53:38.000Z</time>
      </trkpt>
      <trkpt lat="48.25363" lon="-3.54768">
        <ele>90.800003051758</ele>
        <time>2020-10-18T12:53:39.000Z</time>
      </trkpt>
      <trkpt lat="48.25363" lon="-3.54762">
        <ele>91</ele>
        <time>2020-10-18T12:53:40.000Z</time>
      </trkpt>
      <trkpt lat="48.25362" lon="-3.54749">
        <ele>91.400001525879</ele>
        <time>2020-10-18T12:53:41.000Z</time>
      </trkpt>
      <trkpt lat="48.25362" lon="-3.54749">
        <ele>91.400001525879</ele>
        <time>2020-10-18T12:53:42.000Z</time>
      </trkpt>
      <trkpt lat="48.25362" lon="-3.54742">
        <ele>91.599998474121</ele>
        <time>2020-10-18T12:53:43.000Z</time>
      </trkpt>
      <trkpt lat="48.25362" lon="-3.54728">
        <ele>91.800003051758</ele>
        <time>2020-10-18T12:53:44.000Z</time>
      </trkpt>
      <trkpt lat="48.25362" lon="-3.54728">
        <ele>91.800003051758</ele>
        <time>2020-10-18T12:53:45.000Z</time>
      </trkpt>
      <trkpt lat="48.25362" lon="-3.54714">
        <ele>92.199996948242</ele>
        <time>2020-10-18T12:53:46.000Z</time>
      </trkpt>
      <trkpt lat="48.25361" lon="-3.54707">
        <ele>92.199996948242</ele>
        <time>2020-10-18T12:53:47.000Z</time>
      </trkpt>
      <trkpt lat="48.25361" lon="-3.547">
        <ele>92.400001525879</ele>
        <time>2020-10-18T12:53:48.000Z</time>
      </trkpt>
      <trkpt lat="48.25361" lon="-3.547">
        <ele>92.400001525879</ele>
        <time>2020-10-18T12:53:49.000Z</time>
      </trkpt>
      <trkpt lat="48.25361" lon="-3.54693">
        <ele>92.400001525879</ele>
        <time>2020-10-18T12:53:50.000Z</time>
      </trkpt>
      <trkpt lat="48.2536" lon="-3.54679">
        <ele>92.400001525879</ele>
        <time>2020-10-18T12:53:51.000Z</time>
      </trkpt>
      <trkpt lat="48.2536" lon="-3.54679">
        <ele>92.400001525879</ele>
        <time>2020-10-18T12:53:52.000Z</time>
      </trkpt>
      <trkpt lat="48.25359" lon="-3.54672">
        <ele>92.199996948242</ele>
        <time>2020-10-18T12:53:53.000Z</time>
      </trkpt>
      <trkpt lat="48.25359" lon="-3.54658">
        <ele>92.199996948242</ele>
        <time>2020-10-18T12:53:54.000Z</time>
      </trkpt>
      <trkpt lat="48.25359" lon="-3.54651">
        <ele>92.199996948242</ele>
        <time>2020-10-18T12:53:55.000Z</time>
      </trkpt>
      <trkpt lat="48.25359" lon="-3.54651">
        <ele>92.199996948242</ele>
        <time>2020-10-18T12:53:56.000Z</time>
      </trkpt>
      <trkpt lat="48.25357" lon="-3.54645">
        <ele>92</ele>
        <time>2020-10-18T12:53:57.000Z</time>
      </trkpt>
      <trkpt lat="48.25356" lon="-3.54631">
        <ele>91.599998474121</ele>
        <time>2020-10-18T12:53:58.000Z</time>
      </trkpt>
      <trkpt lat="48.25356" lon="-3.54631">
        <ele>91.599998474121</ele>
        <time>2020-10-18T12:53:59.000Z</time>
      </trkpt>
      <trkpt lat="48.25355" lon="-3.54624">
        <ele>91.599998474121</ele>
        <time>2020-10-18T12:54:00.000Z</time>
      </trkpt>
      <trkpt lat="48.25355" lon="-3.54609">
        <ele>91.400001525879</ele>
        <time>2020-10-18T12:54:01.000Z</time>
      </trkpt>
      <trkpt lat="48.25355" lon="-3.54602">
        <ele>91.400001525879</ele>
        <time>2020-10-18T12:54:02.000Z</time>
      </trkpt>
      <trkpt lat="48.25355" lon="-3.54602">
        <ele>91.400001525879</ele>
        <time>2020-10-18T12:54:03.000Z</time>
      </trkpt>
      <trkpt lat="48.25354" lon="-3.54586">
        <ele>91.400001525879</ele>
        <time>2020-10-18T12:54:04.000Z</time>
      </trkpt>
      <trkpt lat="48.25354" lon="-3.54586">
        <ele>91.400001525879</ele>
        <time>2020-10-18T12:54:05.000Z</time>
      </trkpt>
      <trkpt lat="48.25353" lon="-3.54579">
        <ele>91.400001525879</ele>
        <time>2020-10-18T12:54:06.000Z</time>
      </trkpt>
      <trkpt lat="48.25352" lon="-3.54564">
        <ele>91.400001525879</ele>
        <time>2020-10-18T12:54:07.000Z</time>
      </trkpt>
      <trkpt lat="48.25352" lon="-3.54564">
        <ele>91.400001525879</ele>
        <time>2020-10-18T12:54:08.000Z</time>
      </trkpt>
      <trkpt lat="48.25352" lon="-3.54556">
        <ele>91.400001525879</ele>
        <time>2020-10-18T12:54:09.000Z</time>
      </trkpt>
      <trkpt lat="48.25351" lon="-3.54541">
        <ele>91.400001525879</ele>
        <time>2020-10-18T12:54:10.000Z</time>
      </trkpt>
      <trkpt lat="48.25351" lon="-3.54541">
        <ele>91.400001525879</ele>
        <time>2020-10-18T12:54:11.000Z</time>
      </trkpt>
      <trkpt lat="48.25351" lon="-3.54534">
        <ele>91.599998474121</ele>
        <time>2020-10-18T12:54:12.000Z</time>
      </trkpt>
      <trkpt lat="48.2535" lon="-3.54519">
        <ele>91.599998474121</ele>
        <time>2020-10-18T12:54:13.000Z</time>
      </trkpt>
      <trkpt lat="48.2535" lon="-3.54519">
        <ele>91.599998474121</ele>
        <time>2020-10-18T12:54:14.000Z</time>
      </trkpt>
      <trkpt lat="48.25349" lon="-3.54501">
        <ele>91</ele>
        <time>2020-10-18T12:54:15.000Z</time>
      </trkpt>
      <trkpt lat="48.25349" lon="-3.54501">
        <ele>91</ele>
        <time>2020-10-18T12:54:16.000Z</time>
      </trkpt>
      <trkpt lat="48.25349" lon="-3.54484">
        <ele>90.800003051758</ele>
        <time>2020-10-18T12:54:17.000Z</time>
      </trkpt>
      <trkpt lat="48.25349" lon="-3.54484">
        <ele>90.800003051758</ele>
        <time>2020-10-18T12:54:18.000Z</time>
      </trkpt>
      <trkpt lat="48.25348" lon="-3.54476">
        <ele>90.800003051758</ele>
        <time>2020-10-18T12:54:19.000Z</time>
      </trkpt>
      <trkpt lat="48.25347" lon="-3.54459">
        <ele>90.400001525879</ele>
        <time>2020-10-18T12:54:20.000Z</time>
      </trkpt>
      <trkpt lat="48.25347" lon="-3.54459">
        <ele>90.400001525879</ele>
        <time>2020-10-18T12:54:21.000Z</time>
      </trkpt>
      <trkpt lat="48.25347" lon="-3.54451">
        <ele>90.199996948242</ele>
        <time>2020-10-18T12:54:22.000Z</time>
      </trkpt>
      <trkpt lat="48.25346" lon="-3.54434">
        <ele>90</ele>
        <time>2020-10-18T12:54:23.000Z</time>
      </trkpt>
      <trkpt lat="48.25346" lon="-3.54434">
        <ele>90</ele>
        <time>2020-10-18T12:54:24.000Z</time>
      </trkpt>
      <trkpt lat="48.25346" lon="-3.54426">
        <ele>90</ele>
        <time>2020-10-18T12:54:25.000Z</time>
      </trkpt>
      <trkpt lat="48.25345" lon="-3.54411">
        <ele>90</ele>
        <time>2020-10-18T12:54:26.000Z</time>
      </trkpt>
      <trkpt lat="48.25345" lon="-3.54411">
        <ele>90</ele>
        <time>2020-10-18T12:54:27.000Z</time>
      </trkpt>
      <trkpt lat="48.25345" lon="-3.54403">
        <ele>90</ele>
        <time>2020-10-18T12:54:28.000Z</time>
      </trkpt>
      <trkpt lat="48.25345" lon="-3.54387">
        <ele>90</ele>
        <time>2020-10-18T12:54:29.000Z</time>
      </trkpt>
      <trkpt lat="48.25345" lon="-3.54387">
        <ele>90</ele>
        <time>2020-10-18T12:54:30.000Z</time>
      </trkpt>
      <trkpt lat="48.25345" lon="-3.54379">
        <ele>90</ele>
        <time>2020-10-18T12:54:31.000Z</time>
      </trkpt>
      <trkpt lat="48.25345" lon="-3.54364">
        <ele>90</ele>
        <time>2020-10-18T12:54:32.000Z</time>
      </trkpt>
      <trkpt lat="48.25345" lon="-3.54364">
        <ele>90</ele>
        <time>2020-10-18T12:54:33.000Z</time>
      </trkpt>
      <trkpt lat="48.25345" lon="-3.54356">
        <ele>90</ele>
        <time>2020-10-18T12:54:34.000Z</time>
      </trkpt>
      <trkpt lat="48.25344" lon="-3.5434">
        <ele>90.199996948242</ele>
        <time>2020-10-18T12:54:35.000Z</time>
      </trkpt>
      <trkpt lat="48.25344" lon="-3.5434">
        <ele>90.199996948242</ele>
        <time>2020-10-18T12:54:36.000Z</time>
      </trkpt>
      <trkpt lat="48.25344" lon="-3.54332">
        <ele>90.199996948242</ele>
        <time>2020-10-18T12:54:37.000Z</time>
      </trkpt>
      <trkpt lat="48.25344" lon="-3.54315">
        <ele>90.400001525879</ele>
        <time>2020-10-18T12:54:38.000Z</time>
      </trkpt>
      <trkpt lat="48.25344" lon="-3.54315">
        <ele>90.400001525879</ele>
        <time>2020-10-18T12:54:39.000Z</time>
      </trkpt>
      <trkpt lat="48.25344" lon="-3.54307">
        <ele>90.599998474121</ele>
        <time>2020-10-18T12:54:40.000Z</time>
      </trkpt>
      <trkpt lat="48.25343" lon="-3.54291">
        <ele>90.800003051758</ele>
        <time>2020-10-18T12:54:41.000Z</time>
      </trkpt>
      <trkpt lat="48.25343" lon="-3.54291">
        <ele>90.800003051758</ele>
        <time>2020-10-18T12:54:42.000Z</time>
      </trkpt>
      <trkpt lat="48.25343" lon="-3.54282">
        <ele>90.800003051758</ele>
        <time>2020-10-18T12:54:43.000Z</time>
      </trkpt>
      <trkpt lat="48.25343" lon="-3.54267">
        <ele>91</ele>
        <time>2020-10-18T12:54:44.000Z</time>
      </trkpt>
      <trkpt lat="48.25343" lon="-3.54267">
        <ele>91</ele>
        <time>2020-10-18T12:54:45.000Z</time>
      </trkpt>
      <trkpt lat="48.25343" lon="-3.54259">
        <ele>91.400001525879</ele>
        <time>2020-10-18T12:54:46.000Z</time>
      </trkpt>
      <trkpt lat="48.25343" lon="-3.54252">
        <ele>91.599998474121</ele>
        <time>2020-10-18T12:54:47.000Z</time>
      </trkpt>
      <trkpt lat="48.25342" lon="-3.54245">
        <ele>91.800003051758</ele>
        <time>2020-10-18T12:54:48.000Z</time>
      </trkpt>
      <trkpt lat="48.25342" lon="-3.54232">
        <ele>92.400001525879</ele>
        <time>2020-10-18T12:54:49.000Z</time>
      </trkpt>
      <trkpt lat="48.25342" lon="-3.54232">
        <ele>92.400001525879</ele>
        <time>2020-10-18T12:54:50.000Z</time>
      </trkpt>
      <trkpt lat="48.25341" lon="-3.54225">
        <ele>92.599998474121</ele>
        <time>2020-10-18T12:54:51.000Z</time>
      </trkpt>
      <trkpt lat="48.2534" lon="-3.54212">
        <ele>93.199996948242</ele>
        <time>2020-10-18T12:54:52.000Z</time>
      </trkpt>
      <trkpt lat="48.2534" lon="-3.54212">
        <ele>93.199996948242</ele>
        <time>2020-10-18T12:54:53.000Z</time>
      </trkpt>
      <trkpt lat="48.2534" lon="-3.54205">
        <ele>93.400001525879</ele>
        <time>2020-10-18T12:54:54.000Z</time>
      </trkpt>
      <trkpt lat="48.25339" lon="-3.54192">
        <ele>93.800003051758</ele>
        <time>2020-10-18T12:54:55.000Z</time>
      </trkpt>
      <trkpt lat="48.25339" lon="-3.54192">
        <ele>93.800003051758</ele>
        <time>2020-10-18T12:54:56.000Z</time>
      </trkpt>
      <trkpt lat="48.25339" lon="-3.54186">
        <ele>94</ele>
        <time>2020-10-18T12:54:57.000Z</time>
      </trkpt>
      <trkpt lat="48.25339" lon="-3.54174">
        <ele>94.199996948242</ele>
        <time>2020-10-18T12:54:58.000Z</time>
      </trkpt>
      <trkpt lat="48.25339" lon="-3.54174">
        <ele>94.199996948242</ele>
        <time>2020-10-18T12:54:59.000Z</time>
      </trkpt>
      <trkpt lat="48.25338" lon="-3.54167">
        <ele>94.199996948242</ele>
        <time>2020-10-18T12:55:00.000Z</time>
      </trkpt>
      <trkpt lat="48.25338" lon="-3.54154">
        <ele>94.400001525879</ele>
        <time>2020-10-18T12:55:01.000Z</time>
      </trkpt>
      <trkpt lat="48.25338" lon="-3.54154">
        <ele>94.400001525879</ele>
        <time>2020-10-18T12:55:02.000Z</time>
      </trkpt>
      <trkpt lat="48.25338" lon="-3.54142">
        <ele>94.599998474121</ele>
        <time>2020-10-18T12:55:03.000Z</time>
      </trkpt>
      <trkpt lat="48.25338" lon="-3.54136">
        <ele>94.599998474121</ele>
        <time>2020-10-18T12:55:04.000Z</time>
      </trkpt>
      <trkpt lat="48.25338" lon="-3.54136">
        <ele>94.599998474121</ele>
        <time>2020-10-18T12:55:05.000Z</time>
      </trkpt>
      <trkpt lat="48.25338" lon="-3.5413">
        <ele>94.800003051758</ele>
        <time>2020-10-18T12:55:06.000Z</time>
      </trkpt>
      <trkpt lat="48.25339" lon="-3.54117">
        <ele>94.800003051758</ele>
        <time>2020-10-18T12:55:07.000Z</time>
      </trkpt>
      <trkpt lat="48.25339" lon="-3.54117">
        <ele>94.800003051758</ele>
        <time>2020-10-18T12:55:08.000Z</time>
      </trkpt>
      <trkpt lat="48.25339" lon="-3.5411">
        <ele>95</ele>
        <time>2020-10-18T12:55:09.000Z</time>
      </trkpt>
      <trkpt lat="48.25338" lon="-3.54096">
        <ele>95</ele>
        <time>2020-10-18T12:55:10.000Z</time>
      </trkpt>
      <trkpt lat="48.25338" lon="-3.54096">
        <ele>95</ele>
        <time>2020-10-18T12:55:11.000Z</time>
      </trkpt>
      <trkpt lat="48.25337" lon="-3.54083">
        <ele>95.199996948242</ele>
        <time>2020-10-18T12:55:12.000Z</time>
      </trkpt>
      <trkpt lat="48.25337" lon="-3.54083">
        <ele>95.199996948242</ele>
        <time>2020-10-18T12:55:13.000Z</time>
      </trkpt>
      <trkpt lat="48.25338" lon="-3.54071">
        <ele>95.400001525879</ele>
        <time>2020-10-18T12:55:14.000Z</time>
      </trkpt>
      <trkpt lat="48.25338" lon="-3.54071">
        <ele>95.400001525879</ele>
        <time>2020-10-18T12:55:15.000Z</time>
      </trkpt>
      <trkpt lat="48.25338" lon="-3.54064">
        <ele>95.400001525879</ele>
        <time>2020-10-18T12:55:16.000Z</time>
      </trkpt>
      <trkpt lat="48.25338" lon="-3.54058">
        <ele>95.599998474121</ele>
        <time>2020-10-18T12:55:17.000Z</time>
      </trkpt>
      <trkpt lat="48.25339" lon="-3.54051">
        <ele>95.599998474121</ele>
        <time>2020-10-18T12:55:18.000Z</time>
      </trkpt>
      <trkpt lat="48.25339" lon="-3.54038">
        <ele>95.800003051758</ele>
        <time>2020-10-18T12:55:19.000Z</time>
      </trkpt>
      <trkpt lat="48.25339" lon="-3.54038">
        <ele>95.800003051758</ele>
        <time>2020-10-18T12:55:20.000Z</time>
      </trkpt>
      <trkpt lat="48.2534" lon="-3.54026">
        <ele>95.800003051758</ele>
        <time>2020-10-18T12:55:21.000Z</time>
      </trkpt>
      <trkpt lat="48.2534" lon="-3.54026">
        <ele>95.800003051758</ele>
        <time>2020-10-18T12:55:22.000Z</time>
      </trkpt>
      <trkpt lat="48.25341" lon="-3.5402">
        <ele>96</ele>
        <time>2020-10-18T12:55:23.000Z</time>
      </trkpt>
      <trkpt lat="48.25343" lon="-3.5401">
        <ele>96</ele>
        <time>2020-10-18T12:55:24.000Z</time>
      </trkpt>
      <trkpt lat="48.25343" lon="-3.5401">
        <ele>96</ele>
        <time>2020-10-18T12:55:25.000Z</time>
      </trkpt>
      <trkpt lat="48.25346" lon="-3.54002">
        <ele>95.800003051758</ele>
        <time>2020-10-18T12:55:26.000Z</time>
      </trkpt>
      <trkpt lat="48.25346" lon="-3.54002">
        <ele>95.800003051758</ele>
        <time>2020-10-18T12:55:27.000Z</time>
      </trkpt>
      <trkpt lat="48.25348" lon="-3.53997">
        <ele>95.800003051758</ele>
        <time>2020-10-18T12:55:28.000Z</time>
      </trkpt>
      <trkpt lat="48.25353" lon="-3.53987">
        <ele>95.599998474121</ele>
        <time>2020-10-18T12:55:29.000Z</time>
      </trkpt>
      <trkpt lat="48.25353" lon="-3.53987">
        <ele>95.599998474121</ele>
        <time>2020-10-18T12:55:30.000Z</time>
      </trkpt>
      <trkpt lat="48.25356" lon="-3.53981">
        <ele>95.599998474121</ele>
        <time>2020-10-18T12:55:31.000Z</time>
      </trkpt>
      <trkpt lat="48.25363" lon="-3.53972">
        <ele>95.400001525879</ele>
        <time>2020-10-18T12:55:32.000Z</time>
      </trkpt>
      <trkpt lat="48.25366" lon="-3.53967">
        <ele>95.400001525879</ele>
        <time>2020-10-18T12:55:33.000Z</time>
      </trkpt>
      <trkpt lat="48.25366" lon="-3.53967">
        <ele>95.400001525879</ele>
        <time>2020-10-18T12:55:34.000Z</time>
      </trkpt>
      <trkpt lat="48.25369" lon="-3.53961">
        <ele>95.400001525879</ele>
        <time>2020-10-18T12:55:35.000Z</time>
      </trkpt>
      <trkpt lat="48.25375" lon="-3.53952">
        <ele>95.199996948242</ele>
        <time>2020-10-18T12:55:36.000Z</time>
      </trkpt>
      <trkpt lat="48.25375" lon="-3.53952">
        <ele>95.199996948242</ele>
        <time>2020-10-18T12:55:37.000Z</time>
      </trkpt>
      <trkpt lat="48.25377" lon="-3.53948">
        <ele>95.199996948242</ele>
        <time>2020-10-18T12:55:38.000Z</time>
      </trkpt>
      <trkpt lat="48.25383" lon="-3.53941">
        <ele>95</ele>
        <time>2020-10-18T12:55:39.000Z</time>
      </trkpt>
      <trkpt lat="48.25383" lon="-3.53941">
        <ele>95</ele>
        <time>2020-10-18T12:55:40.000Z</time>
      </trkpt>
      <trkpt lat="48.25385" lon="-3.53937">
        <ele>95</ele>
        <time>2020-10-18T12:55:41.000Z</time>
      </trkpt>
      <trkpt lat="48.2539" lon="-3.53931">
        <ele>94.800003051758</ele>
        <time>2020-10-18T12:55:42.000Z</time>
      </trkpt>
      <trkpt lat="48.2539" lon="-3.53931">
        <ele>94.800003051758</ele>
        <time>2020-10-18T12:55:43.000Z</time>
      </trkpt>
      <trkpt lat="48.25391" lon="-3.53926">
        <ele>94.800003051758</ele>
        <time>2020-10-18T12:55:44.000Z</time>
      </trkpt>
      <trkpt lat="48.25396" lon="-3.5392">
        <ele>94.400001525879</ele>
        <time>2020-10-18T12:55:45.000Z</time>
      </trkpt>
      <trkpt lat="48.25396" lon="-3.5392">
        <ele>94.400001525879</ele>
        <time>2020-10-18T12:55:46.000Z</time>
      </trkpt>
      <trkpt lat="48.25401" lon="-3.53913">
        <ele>94.199996948242</ele>
        <time>2020-10-18T12:55:47.000Z</time>
      </trkpt>
      <trkpt lat="48.25401" lon="-3.53913">
        <ele>94.199996948242</ele>
        <time>2020-10-18T12:55:48.000Z</time>
      </trkpt>
      <trkpt lat="48.25406" lon="-3.53907">
        <ele>94</ele>
        <time>2020-10-18T12:55:49.000Z</time>
      </trkpt>
      <trkpt lat="48.25406" lon="-3.53907">
        <ele>94</ele>
        <time>2020-10-18T12:55:50.000Z</time>
      </trkpt>
      <trkpt lat="48.25408" lon="-3.53904">
        <ele>94</ele>
        <time>2020-10-18T12:55:51.000Z</time>
      </trkpt>
      <trkpt lat="48.25412" lon="-3.53898">
        <ele>93.599998474121</ele>
        <time>2020-10-18T12:55:52.000Z</time>
      </trkpt>
      <trkpt lat="48.25415" lon="-3.53895">
        <ele>93.599998474121</ele>
        <time>2020-10-18T12:55:53.000Z</time>
      </trkpt>
      <trkpt lat="48.25415" lon="-3.53895">
        <ele>93.599998474121</ele>
        <time>2020-10-18T12:55:54.000Z</time>
      </trkpt>
      <trkpt lat="48.25418" lon="-3.53892">
        <ele>93.400001525879</ele>
        <time>2020-10-18T12:55:55.000Z</time>
      </trkpt>
      <trkpt lat="48.25422" lon="-3.53886">
        <ele>93.199996948242</ele>
        <time>2020-10-18T12:55:56.000Z</time>
      </trkpt>
      <trkpt lat="48.25422" lon="-3.53886">
        <ele>93.199996948242</ele>
        <time>2020-10-18T12:55:57.000Z</time>
      </trkpt>
      <trkpt lat="48.25427" lon="-3.53881">
        <ele>93.199996948242</ele>
        <time>2020-10-18T12:55:58.000Z</time>
      </trkpt>
      <trkpt lat="48.25427" lon="-3.53881">
        <ele>93.199996948242</ele>
        <time>2020-10-18T12:55:59.000Z</time>
      </trkpt>
      <trkpt lat="48.25429" lon="-3.53878">
        <ele>93</ele>
        <time>2020-10-18T12:56:00.000Z</time>
      </trkpt>
      <trkpt lat="48.25429" lon="-3.53878">
        <ele>93</ele>
        <time>2020-10-18T12:56:01.000Z</time>
      </trkpt>
      <trkpt lat="48.25429" lon="-3.53876">
        <ele>93</ele>
        <time>2020-10-18T12:56:02.000Z</time>
      </trkpt>
      <trkpt lat="48.25429" lon="-3.53876">
        <ele>93</ele>
        <time>2020-10-18T12:56:03.000Z</time>
      </trkpt>
      <trkpt lat="48.25429" lon="-3.53876">
        <ele>93</ele>
        <time>2020-10-18T12:56:04.000Z</time>
      </trkpt>
      <trkpt lat="48.25428" lon="-3.53876">
        <ele>92.800003051758</ele>
        <time>2020-10-18T12:56:05.000Z</time>
      </trkpt>
      <trkpt lat="48.25428" lon="-3.53876">
        <ele>92.800003051758</ele>
        <time>2020-10-18T12:56:06.000Z</time>
      </trkpt>
      <trkpt lat="48.25428" lon="-3.53876">
        <ele>93</ele>
        <time>2020-10-18T12:56:07.000Z</time>
      </trkpt>
      <trkpt lat="48.25428" lon="-3.53876">
        <ele>93</ele>
        <time>2020-10-18T12:56:08.000Z</time>
      </trkpt>
      <trkpt lat="48.25428" lon="-3.53876">
        <ele>93</ele>
        <time>2020-10-18T12:56:09.000Z</time>
      </trkpt>
      <trkpt lat="48.25428" lon="-3.53876">
        <ele>93</ele>
        <time>2020-10-18T12:56:10.000Z</time>
      </trkpt>
      <trkpt lat="48.25428" lon="-3.53876">
        <ele>93</ele>
        <time>2020-10-18T12:56:11.000Z</time>
      </trkpt>
      <trkpt lat="48.25428" lon="-3.53876">
        <ele>93</ele>
        <time>2020-10-18T12:56:12.000Z</time>
      </trkpt>
      <trkpt lat="48.25428" lon="-3.53876">
        <ele>93</ele>
        <time>2020-10-18T12:56:13.000Z</time>
      </trkpt>
      <trkpt lat="48.25428" lon="-3.53876">
        <ele>93</ele>
        <time>2020-10-18T12:56:14.000Z</time>
      </trkpt>
      <trkpt lat="48.25428" lon="-3.53876">
        <ele>93</ele>
        <time>2020-10-18T12:56:15.000Z</time>
      </trkpt>
      <trkpt lat="48.25428" lon="-3.53876">
        <ele>93</ele>
        <time>2020-10-18T12:56:16.000Z</time>
      </trkpt>
      <trkpt lat="48.25428" lon="-3.53876">
        <ele>93</ele>
        <time>2020-10-18T12:56:17.000Z</time>
      </trkpt>
      <trkpt lat="48.25428" lon="-3.53876">
        <ele>93</ele>
        <time>2020-10-18T12:56:18.000Z</time>
      </trkpt>
      <trkpt lat="48.25428" lon="-3.53876">
        <ele>93</ele>
        <time>2020-10-18T12:56:19.000Z</time>
      </trkpt>
      <trkpt lat="48.25428" lon="-3.53876">
        <ele>93</ele>
        <time>2020-10-18T12:56:20.000Z</time>
      </trkpt>
      <trkpt lat="48.25429" lon="-3.53874">
        <ele>92.800003051758</ele>
        <time>2020-10-18T12:56:21.000Z</time>
      </trkpt>
      <trkpt lat="48.25429" lon="-3.53874">
        <ele>92.800003051758</ele>
        <time>2020-10-18T12:56:22.000Z</time>
      </trkpt>
      <trkpt lat="48.25431" lon="-3.53871">
        <ele>92.800003051758</ele>
        <time>2020-10-18T12:56:23.000Z</time>
      </trkpt>
      <trkpt lat="48.25435" lon="-3.53865">
        <ele>92.800003051758</ele>
        <time>2020-10-18T12:56:24.000Z</time>
      </trkpt>
      <trkpt lat="48.25435" lon="-3.53865">
        <ele>92.800003051758</ele>
        <time>2020-10-18T12:56:25.000Z</time>
      </trkpt>
      <trkpt lat="48.25437" lon="-3.53863">
        <ele>92.800003051758</ele>
        <time>2020-10-18T12:56:26.000Z</time>
      </trkpt>
      <trkpt lat="48.25441" lon="-3.53856">
        <ele>92.800003051758</ele>
        <time>2020-10-18T12:56:27.000Z</time>
      </trkpt>
      <trkpt lat="48.25441" lon="-3.53856">
        <ele>92.800003051758</ele>
        <time>2020-10-18T12:56:28.000Z</time>
      </trkpt>
      <trkpt lat="48.25443" lon="-3.53853">
        <ele>92.800003051758</ele>
        <time>2020-10-18T12:56:29.000Z</time>
      </trkpt>
      <trkpt lat="48.25448" lon="-3.53847">
        <ele>92.800003051758</ele>
        <time>2020-10-18T12:56:30.000Z</time>
      </trkpt>
      <trkpt lat="48.25448" lon="-3.53847">
        <ele>92.800003051758</ele>
        <time>2020-10-18T12:56:31.000Z</time>
      </trkpt>
      <trkpt lat="48.2545" lon="-3.53844">
        <ele>92.800003051758</ele>
        <time>2020-10-18T12:56:32.000Z</time>
      </trkpt>
      <trkpt lat="48.25456" lon="-3.53836">
        <ele>93</ele>
        <time>2020-10-18T12:56:33.000Z</time>
      </trkpt>
      <trkpt lat="48.25456" lon="-3.53836">
        <ele>93</ele>
        <time>2020-10-18T12:56:34.000Z</time>
      </trkpt>
      <trkpt lat="48.25459" lon="-3.53832">
        <ele>93</ele>
        <time>2020-10-18T12:56:35.000Z</time>
      </trkpt>
      <trkpt lat="48.25465" lon="-3.53825">
        <ele>93.199996948242</ele>
        <time>2020-10-18T12:56:36.000Z</time>
      </trkpt>
      <trkpt lat="48.25465" lon="-3.53825">
        <ele>93.199996948242</ele>
        <time>2020-10-18T12:56:37.000Z</time>
      </trkpt>
      <trkpt lat="48.25469" lon="-3.5382">
        <ele>93.199996948242</ele>
        <time>2020-10-18T12:56:38.000Z</time>
      </trkpt>
      <trkpt lat="48.25475" lon="-3.53811">
        <ele>93.199996948242</ele>
        <time>2020-10-18T12:56:39.000Z</time>
      </trkpt>
      <trkpt lat="48.25475" lon="-3.53811">
        <ele>93.199996948242</ele>
        <time>2020-10-18T12:56:40.000Z</time>
      </trkpt>
      <trkpt lat="48.25478" lon="-3.53807">
        <ele>93.199996948242</ele>
        <time>2020-10-18T12:56:41.000Z</time>
      </trkpt>
      <trkpt lat="48.25486" lon="-3.53798">
        <ele>93.400001525879</ele>
        <time>2020-10-18T12:56:42.000Z</time>
      </trkpt>
      <trkpt lat="48.25486" lon="-3.53798">
        <ele>93.400001525879</ele>
        <time>2020-10-18T12:56:43.000Z</time>
      </trkpt>
      <trkpt lat="48.25489" lon="-3.53793">
        <ele>93.599998474121</ele>
        <time>2020-10-18T12:56:44.000Z</time>
      </trkpt>
      <trkpt lat="48.25497" lon="-3.53784">
        <ele>93.599998474121</ele>
        <time>2020-10-18T12:56:45.000Z</time>
      </trkpt>
      <trkpt lat="48.25497" lon="-3.53784">
        <ele>93.599998474121</ele>
        <time>2020-10-18T12:56:46.000Z</time>
      </trkpt>
      <trkpt lat="48.255" lon="-3.5378">
        <ele>93.599998474121</ele>
        <time>2020-10-18T12:56:47.000Z</time>
      </trkpt>
      <trkpt lat="48.25503" lon="-3.53775">
        <ele>93.800003051758</ele>
        <time>2020-10-18T12:56:48.000Z</time>
      </trkpt>
      <trkpt lat="48.2551" lon="-3.53766">
        <ele>94</ele>
        <time>2020-10-18T12:56:49.000Z</time>
      </trkpt>
      <trkpt lat="48.2551" lon="-3.53766">
        <ele>94</ele>
        <time>2020-10-18T12:56:50.000Z</time>
      </trkpt>
      <trkpt lat="48.25513" lon="-3.53761">
        <ele>94</ele>
        <time>2020-10-18T12:56:51.000Z</time>
      </trkpt>
      <trkpt lat="48.2552" lon="-3.53753">
        <ele>94.199996948242</ele>
        <time>2020-10-18T12:56:52.000Z</time>
      </trkpt>
      <trkpt lat="48.2552" lon="-3.53753">
        <ele>94.199996948242</ele>
        <time>2020-10-18T12:56:53.000Z</time>
      </trkpt>
      <trkpt lat="48.25523" lon="-3.53748">
        <ele>94.400001525879</ele>
        <time>2020-10-18T12:56:54.000Z</time>
      </trkpt>
      <trkpt lat="48.25529" lon="-3.53739">
        <ele>94.599998474121</ele>
        <time>2020-10-18T12:56:55.000Z</time>
      </trkpt>
      <trkpt lat="48.25529" lon="-3.53739">
        <ele>94.599998474121</ele>
        <time>2020-10-18T12:56:56.000Z</time>
      </trkpt>
      <trkpt lat="48.25532" lon="-3.53735">
        <ele>94.800003051758</ele>
        <time>2020-10-18T12:56:57.000Z</time>
      </trkpt>
      <trkpt lat="48.25539" lon="-3.53728">
        <ele>95</ele>
        <time>2020-10-18T12:56:58.000Z</time>
      </trkpt>
      <trkpt lat="48.25539" lon="-3.53728">
        <ele>95</ele>
        <time>2020-10-18T12:56:59.000Z</time>
      </trkpt>
      <trkpt lat="48.25542" lon="-3.53724">
        <ele>95</ele>
        <time>2020-10-18T12:57:00.000Z</time>
      </trkpt>
      <trkpt lat="48.25548" lon="-3.53718">
        <ele>95.199996948242</ele>
        <time>2020-10-18T12:57:01.000Z</time>
      </trkpt>
      <trkpt lat="48.25548" lon="-3.53718">
        <ele>95.199996948242</ele>
        <time>2020-10-18T12:57:02.000Z</time>
      </trkpt>
      <trkpt lat="48.2555" lon="-3.53716">
        <ele>95.400001525879</ele>
        <time>2020-10-18T12:57:03.000Z</time>
      </trkpt>
      <trkpt lat="48.25555" lon="-3.53711">
        <ele>95.599998474121</ele>
        <time>2020-10-18T12:57:04.000Z</time>
      </trkpt>
      <trkpt lat="48.25555" lon="-3.53711">
        <ele>95.599998474121</ele>
        <time>2020-10-18T12:57:05.000Z</time>
      </trkpt>
      <trkpt lat="48.25558" lon="-3.53705">
        <ele>95.599998474121</ele>
        <time>2020-10-18T12:57:06.000Z</time>
      </trkpt>
      <trkpt lat="48.25558" lon="-3.53705">
        <ele>95.599998474121</ele>
        <time>2020-10-18T12:57:07.000Z</time>
      </trkpt>
      <trkpt lat="48.2556" lon="-3.53702">
        <ele>95.800003051758</ele>
        <time>2020-10-18T12:57:08.000Z</time>
      </trkpt>
      <trkpt lat="48.25565" lon="-3.53692">
        <ele>95.800003051758</ele>
        <time>2020-10-18T12:57:09.000Z</time>
      </trkpt>
      <trkpt lat="48.25565" lon="-3.53692">
        <ele>95.800003051758</ele>
        <time>2020-10-18T12:57:10.000Z</time>
      </trkpt>
      <trkpt lat="48.25568" lon="-3.53686">
        <ele>96</ele>
        <time>2020-10-18T12:57:11.000Z</time>
      </trkpt>
      <trkpt lat="48.25574" lon="-3.53671">
        <ele>96.400001525879</ele>
        <time>2020-10-18T12:57:12.000Z</time>
      </trkpt>
      <trkpt lat="48.25574" lon="-3.53671">
        <ele>96.400001525879</ele>
        <time>2020-10-18T12:57:13.000Z</time>
      </trkpt>
      <trkpt lat="48.25577" lon="-3.53664">
        <ele>96.800003051758</ele>
        <time>2020-10-18T12:57:14.000Z</time>
      </trkpt>
      <trkpt lat="48.25582" lon="-3.53649">
        <ele>97.400001525879</ele>
        <time>2020-10-18T12:57:15.000Z</time>
      </trkpt>
      <trkpt lat="48.25582" lon="-3.53649">
        <ele>97.400001525879</ele>
        <time>2020-10-18T12:57:16.000Z</time>
      </trkpt>
      <trkpt lat="48.25584" lon="-3.53641">
        <ele>97.599998474121</ele>
        <time>2020-10-18T12:57:17.000Z</time>
      </trkpt>
      <trkpt lat="48.25586" lon="-3.53625">
        <ele>98</ele>
        <time>2020-10-18T12:57:18.000Z</time>
      </trkpt>
      <trkpt lat="48.25586" lon="-3.53625">
        <ele>98</ele>
        <time>2020-10-18T12:57:19.000Z</time>
      </trkpt>
      <trkpt lat="48.25587" lon="-3.53617">
        <ele>98.199996948242</ele>
        <time>2020-10-18T12:57:20.000Z</time>
      </trkpt>
      <trkpt lat="48.25589" lon="-3.53601">
        <ele>98.400001525879</ele>
        <time>2020-10-18T12:57:21.000Z</time>
      </trkpt>
      <trkpt lat="48.25589" lon="-3.53601">
        <ele>98.400001525879</ele>
        <time>2020-10-18T12:57:22.000Z</time>
      </trkpt>
      <trkpt lat="48.2559" lon="-3.53593">
        <ele>98.400001525879</ele>
        <time>2020-10-18T12:57:23.000Z</time>
      </trkpt>
      <trkpt lat="48.2559" lon="-3.53578">
        <ele>98.199996948242</ele>
        <time>2020-10-18T12:57:24.000Z</time>
      </trkpt>
      <trkpt lat="48.2559" lon="-3.53578">
        <ele>98.199996948242</ele>
        <time>2020-10-18T12:57:25.000Z</time>
      </trkpt>
      <trkpt lat="48.2559" lon="-3.5357">
        <ele>98.199996948242</ele>
        <time>2020-10-18T12:57:26.000Z</time>
      </trkpt>
      <trkpt lat="48.25592" lon="-3.53555">
        <ele>98</ele>
        <time>2020-10-18T12:57:27.000Z</time>
      </trkpt>
      <trkpt lat="48.25592" lon="-3.53555">
        <ele>98</ele>
        <time>2020-10-18T12:57:28.000Z</time>
      </trkpt>
      <trkpt lat="48.25592" lon="-3.53547">
        <ele>98</ele>
        <time>2020-10-18T12:57:29.000Z</time>
      </trkpt>
      <trkpt lat="48.25594" lon="-3.53532">
        <ele>98</ele>
        <time>2020-10-18T12:57:30.000Z</time>
      </trkpt>
      <trkpt lat="48.25594" lon="-3.53525">
        <ele>98</ele>
        <time>2020-10-18T12:57:31.000Z</time>
      </trkpt>
      <trkpt lat="48.25594" lon="-3.53525">
        <ele>98</ele>
        <time>2020-10-18T12:57:32.000Z</time>
      </trkpt>
      <trkpt lat="48.25595" lon="-3.53518">
        <ele>98</ele>
        <time>2020-10-18T12:57:33.000Z</time>
      </trkpt>
      <trkpt lat="48.25596" lon="-3.53502">
        <ele>97.599998474121</ele>
        <time>2020-10-18T12:57:34.000Z</time>
      </trkpt>
      <trkpt lat="48.25596" lon="-3.53502">
        <ele>97.599998474121</ele>
        <time>2020-10-18T12:57:35.000Z</time>
      </trkpt>
      <trkpt lat="48.25598" lon="-3.53487">
        <ele>97.599998474121</ele>
        <time>2020-10-18T12:57:36.000Z</time>
      </trkpt>
      <trkpt lat="48.25598" lon="-3.53487">
        <ele>97.599998474121</ele>
        <time>2020-10-18T12:57:37.000Z</time>
      </trkpt>
      <trkpt lat="48.25599" lon="-3.53479">
        <ele>97.599998474121</ele>
        <time>2020-10-18T12:57:38.000Z</time>
      </trkpt>
      <trkpt lat="48.256" lon="-3.53464">
        <ele>97.400001525879</ele>
        <time>2020-10-18T12:57:39.000Z</time>
      </trkpt>
      <trkpt lat="48.256" lon="-3.53464">
        <ele>97.400001525879</ele>
        <time>2020-10-18T12:57:40.000Z</time>
      </trkpt>
      <trkpt lat="48.25601" lon="-3.53457">
        <ele>97.400001525879</ele>
        <time>2020-10-18T12:57:41.000Z</time>
      </trkpt>
      <trkpt lat="48.25602" lon="-3.53441">
        <ele>97.199996948242</ele>
        <time>2020-10-18T12:57:42.000Z</time>
      </trkpt>
      <trkpt lat="48.25602" lon="-3.53441">
        <ele>97.199996948242</ele>
        <time>2020-10-18T12:57:43.000Z</time>
      </trkpt>
      <trkpt lat="48.25603" lon="-3.53433">
        <ele>97.199996948242</ele>
        <time>2020-10-18T12:57:44.000Z</time>
      </trkpt>
      <trkpt lat="48.25604" lon="-3.53419">
        <ele>97.199996948242</ele>
        <time>2020-10-18T12:57:45.000Z</time>
      </trkpt>
      <trkpt lat="48.25604" lon="-3.53419">
        <ele>97.199996948242</ele>
        <time>2020-10-18T12:57:46.000Z</time>
      </trkpt>
      <trkpt lat="48.25605" lon="-3.53405">
        <ele>97.199996948242</ele>
        <time>2020-10-18T12:57:47.000Z</time>
      </trkpt>
      <trkpt lat="48.25605" lon="-3.53405">
        <ele>97.199996948242</ele>
        <time>2020-10-18T12:57:48.000Z</time>
      </trkpt>
      <trkpt lat="48.25607" lon="-3.53391">
        <ele>97.400001525879</ele>
        <time>2020-10-18T12:57:49.000Z</time>
      </trkpt>
      <trkpt lat="48.25607" lon="-3.53391">
        <ele>97.400001525879</ele>
        <time>2020-10-18T12:57:50.000Z</time>
      </trkpt>
      <trkpt lat="48.25608" lon="-3.53384">
        <ele>97.400001525879</ele>
        <time>2020-10-18T12:57:51.000Z</time>
      </trkpt>
      <trkpt lat="48.2561" lon="-3.53371">
        <ele>97.599998474121</ele>
        <time>2020-10-18T12:57:52.000Z</time>
      </trkpt>
      <trkpt lat="48.2561" lon="-3.53371">
        <ele>97.599998474121</ele>
        <time>2020-10-18T12:57:53.000Z</time>
      </trkpt>
      <trkpt lat="48.2561" lon="-3.53366">
        <ele>97.599998474121</ele>
        <time>2020-10-18T12:57:54.000Z</time>
      </trkpt>
      <trkpt lat="48.25611" lon="-3.53357">
        <ele>97.599998474121</ele>
        <time>2020-10-18T12:57:55.000Z</time>
      </trkpt>
      <trkpt lat="48.25611" lon="-3.53357">
        <ele>97.599998474121</ele>
        <time>2020-10-18T12:57:56.000Z</time>
      </trkpt>
      <trkpt lat="48.25611" lon="-3.53353">
        <ele>97.599998474121</ele>
        <time>2020-10-18T12:57:57.000Z</time>
      </trkpt>
      <trkpt lat="48.25611" lon="-3.53345">
        <ele>97.599998474121</ele>
        <time>2020-10-18T12:57:58.000Z</time>
      </trkpt>
      <trkpt lat="48.25611" lon="-3.53345">
        <ele>97.599998474121</ele>
        <time>2020-10-18T12:57:59.000Z</time>
      </trkpt>
      <trkpt lat="48.25612" lon="-3.53341">
        <ele>97.599998474121</ele>
        <time>2020-10-18T12:58:00.000Z</time>
      </trkpt>
      <trkpt lat="48.25613" lon="-3.53332">
        <ele>97.599998474121</ele>
        <time>2020-10-18T12:58:01.000Z</time>
      </trkpt>
      <trkpt lat="48.25613" lon="-3.53327">
        <ele>97.800003051758</ele>
        <time>2020-10-18T12:58:02.000Z</time>
      </trkpt>
      <trkpt lat="48.25613" lon="-3.53327">
        <ele>97.800003051758</ele>
        <time>2020-10-18T12:58:03.000Z</time>
      </trkpt>
      <trkpt lat="48.25614" lon="-3.53316">
        <ele>98</ele>
        <time>2020-10-18T12:58:04.000Z</time>
      </trkpt>
      <trkpt lat="48.25614" lon="-3.53316">
        <ele>98</ele>
        <time>2020-10-18T12:58:05.000Z</time>
      </trkpt>
      <trkpt lat="48.25615" lon="-3.53305">
        <ele>98.400001525879</ele>
        <time>2020-10-18T12:58:06.000Z</time>
      </trkpt>
      <trkpt lat="48.25615" lon="-3.53305">
        <ele>98.400001525879</ele>
        <time>2020-10-18T12:58:07.000Z</time>
      </trkpt>
      <trkpt lat="48.25617" lon="-3.53298">
        <ele>98.599998474121</ele>
        <time>2020-10-18T12:58:08.000Z</time>
      </trkpt>
      <trkpt lat="48.25618" lon="-3.53285">
        <ele>99</ele>
        <time>2020-10-18T12:58:09.000Z</time>
      </trkpt>
      <trkpt lat="48.25618" lon="-3.53285">
        <ele>99</ele>
        <time>2020-10-18T12:58:10.000Z</time>
      </trkpt>
      <trkpt lat="48.25619" lon="-3.53278">
        <ele>99.199996948242</ele>
        <time>2020-10-18T12:58:11.000Z</time>
      </trkpt>
      <trkpt lat="48.2562" lon="-3.53263">
        <ele>99.599998474121</ele>
        <time>2020-10-18T12:58:12.000Z</time>
      </trkpt>
      <trkpt lat="48.2562" lon="-3.53263">
        <ele>99.599998474121</ele>
        <time>2020-10-18T12:58:13.000Z</time>
      </trkpt>
      <trkpt lat="48.25619" lon="-3.53256">
        <ele>100</ele>
        <time>2020-10-18T12:58:14.000Z</time>
      </trkpt>
      <trkpt lat="48.25618" lon="-3.53242">
        <ele>100.59999847412</ele>
        <time>2020-10-18T12:58:15.000Z</time>
      </trkpt>
      <trkpt lat="48.25618" lon="-3.53242">
        <ele>100.59999847412</ele>
        <time>2020-10-18T12:58:16.000Z</time>
      </trkpt>
      <trkpt lat="48.25618" lon="-3.53236">
        <ele>100.80000305176</ele>
        <time>2020-10-18T12:58:17.000Z</time>
      </trkpt>
      <trkpt lat="48.25617" lon="-3.53223">
        <ele>101</ele>
        <time>2020-10-18T12:58:18.000Z</time>
      </trkpt>
      <trkpt lat="48.25617" lon="-3.53223">
        <ele>101</ele>
        <time>2020-10-18T12:58:19.000Z</time>
      </trkpt>
      <trkpt lat="48.25616" lon="-3.53216">
        <ele>101.19999694824</ele>
        <time>2020-10-18T12:58:20.000Z</time>
      </trkpt>
      <trkpt lat="48.25613" lon="-3.53203">
        <ele>101.19999694824</ele>
        <time>2020-10-18T12:58:21.000Z</time>
      </trkpt>
      <trkpt lat="48.25613" lon="-3.53203">
        <ele>101.19999694824</ele>
        <time>2020-10-18T12:58:22.000Z</time>
      </trkpt>
      <trkpt lat="48.25611" lon="-3.53196">
        <ele>101.19999694824</ele>
        <time>2020-10-18T12:58:23.000Z</time>
      </trkpt>
      <trkpt lat="48.25608" lon="-3.53184">
        <ele>101</ele>
        <time>2020-10-18T12:58:24.000Z</time>
      </trkpt>
      <trkpt lat="48.25608" lon="-3.53184">
        <ele>101</ele>
        <time>2020-10-18T12:58:25.000Z</time>
      </trkpt>
      <trkpt lat="48.25606" lon="-3.53178">
        <ele>101.19999694824</ele>
        <time>2020-10-18T12:58:26.000Z</time>
      </trkpt>
      <trkpt lat="48.25602" lon="-3.53168">
        <ele>101.59999847412</ele>
        <time>2020-10-18T12:58:27.000Z</time>
      </trkpt>
      <trkpt lat="48.25602" lon="-3.53168">
        <ele>101.59999847412</ele>
        <time>2020-10-18T12:58:28.000Z</time>
      </trkpt>
      <trkpt lat="48.256" lon="-3.53163">
        <ele>101.59999847412</ele>
        <time>2020-10-18T12:58:29.000Z</time>
      </trkpt>
      <trkpt lat="48.25596" lon="-3.53154">
        <ele>101.80000305176</ele>
        <time>2020-10-18T12:58:30.000Z</time>
      </trkpt>
      <trkpt lat="48.25596" lon="-3.53154">
        <ele>101.80000305176</ele>
        <time>2020-10-18T12:58:31.000Z</time>
      </trkpt>
      <trkpt lat="48.25594" lon="-3.53149">
        <ele>102.40000152588</ele>
        <time>2020-10-18T12:58:32.000Z</time>
      </trkpt>
      <trkpt lat="48.25589" lon="-3.53139">
        <ele>103.59999847412</ele>
        <time>2020-10-18T12:58:33.000Z</time>
      </trkpt>
      <trkpt lat="48.25589" lon="-3.53139">
        <ele>103.59999847412</ele>
        <time>2020-10-18T12:58:34.000Z</time>
      </trkpt>
      <trkpt lat="48.25586" lon="-3.53135">
        <ele>104.19999694824</ele>
        <time>2020-10-18T12:58:35.000Z</time>
      </trkpt>
      <trkpt lat="48.2558" lon="-3.53127">
        <ele>105.19999694824</ele>
        <time>2020-10-18T12:58:36.000Z</time>
      </trkpt>
      <trkpt lat="48.2558" lon="-3.53127">
        <ele>105.19999694824</ele>
        <time>2020-10-18T12:58:37.000Z</time>
      </trkpt>
      <trkpt lat="48.25577" lon="-3.53124">
        <ele>105.59999847412</ele>
        <time>2020-10-18T12:58:38.000Z</time>
      </trkpt>
      <trkpt lat="48.25571" lon="-3.53118">
        <ele>105.59999847412</ele>
        <time>2020-10-18T12:58:39.000Z</time>
      </trkpt>
      <trkpt lat="48.25571" lon="-3.53118">
        <ele>105.59999847412</ele>
        <time>2020-10-18T12:58:40.000Z</time>
      </trkpt>
      <trkpt lat="48.25568" lon="-3.53116">
        <ele>105.40000152588</ele>
        <time>2020-10-18T12:58:41.000Z</time>
      </trkpt>
      <trkpt lat="48.25563" lon="-3.53112">
        <ele>105</ele>
        <time>2020-10-18T12:58:42.000Z</time>
      </trkpt>
      <trkpt lat="48.25563" lon="-3.53112">
        <ele>105</ele>
        <time>2020-10-18T12:58:43.000Z</time>
      </trkpt>
      <trkpt lat="48.25561" lon="-3.5311">
        <ele>104.59999847412</ele>
        <time>2020-10-18T12:58:44.000Z</time>
      </trkpt>
      <trkpt lat="48.25555" lon="-3.53104">
        <ele>104.19999694824</ele>
        <time>2020-10-18T12:58:45.000Z</time>
      </trkpt>
      <trkpt lat="48.25555" lon="-3.53104">
        <ele>104.19999694824</ele>
        <time>2020-10-18T12:58:46.000Z</time>
      </trkpt>
      <trkpt lat="48.25552" lon="-3.53101">
        <ele>103.80000305176</ele>
        <time>2020-10-18T12:58:47.000Z</time>
      </trkpt>
      <trkpt lat="48.25548" lon="-3.53099">
        <ele>103.59999847412</ele>
        <time>2020-10-18T12:58:48.000Z</time>
      </trkpt>
      <trkpt lat="48.25541" lon="-3.53095">
        <ele>103.59999847412</ele>
        <time>2020-10-18T12:58:49.000Z</time>
      </trkpt>
      <trkpt lat="48.25537" lon="-3.53093">
        <ele>103.59999847412</ele>
        <time>2020-10-18T12:58:50.000Z</time>
      </trkpt>
      <trkpt lat="48.25537" lon="-3.53093">
        <ele>103.59999847412</ele>
        <time>2020-10-18T12:58:51.000Z</time>
      </trkpt>
      <trkpt lat="48.25533" lon="-3.5309">
        <ele>103.40000152588</ele>
        <time>2020-10-18T12:58:52.000Z</time>
      </trkpt>
      <trkpt lat="48.25526" lon="-3.53086">
        <ele>103.40000152588</ele>
        <time>2020-10-18T12:58:53.000Z</time>
      </trkpt>
      <trkpt lat="48.25526" lon="-3.53086">
        <ele>103.40000152588</ele>
        <time>2020-10-18T12:58:54.000Z</time>
      </trkpt>
      <trkpt lat="48.25522" lon="-3.53083">
        <ele>103.19999694824</ele>
        <time>2020-10-18T12:58:55.000Z</time>
      </trkpt>
      <trkpt lat="48.25514" lon="-3.53078">
        <ele>103</ele>
        <time>2020-10-18T12:58:56.000Z</time>
      </trkpt>
      <trkpt lat="48.25514" lon="-3.53078">
        <ele>103</ele>
        <time>2020-10-18T12:58:57.000Z</time>
      </trkpt>
      <trkpt lat="48.2551" lon="-3.53075">
        <ele>103.19999694824</ele>
        <time>2020-10-18T12:58:58.000Z</time>
      </trkpt>
      <trkpt lat="48.25503" lon="-3.5307">
        <ele>103.59999847412</ele>
        <time>2020-10-18T12:58:59.000Z</time>
      </trkpt>
      <trkpt lat="48.25503" lon="-3.5307">
        <ele>103.59999847412</ele>
        <time>2020-10-18T12:59:00.000Z</time>
      </trkpt>
      <trkpt lat="48.25499" lon="-3.53067">
        <ele>103.80000305176</ele>
        <time>2020-10-18T12:59:01.000Z</time>
      </trkpt>
      <trkpt lat="48.2549" lon="-3.53062">
        <ele>104.19999694824</ele>
        <time>2020-10-18T12:59:02.000Z</time>
      </trkpt>
      <trkpt lat="48.2549" lon="-3.53062">
        <ele>104.19999694824</ele>
        <time>2020-10-18T12:59:03.000Z</time>
      </trkpt>
      <trkpt lat="48.25482" lon="-3.53058">
        <ele>104.59999847412</ele>
        <time>2020-10-18T12:59:04.000Z</time>
      </trkpt>
      <trkpt lat="48.25482" lon="-3.53058">
        <ele>104.59999847412</ele>
        <time>2020-10-18T12:59:05.000Z</time>
      </trkpt>
      <trkpt lat="48.25478" lon="-3.53056">
        <ele>104.80000305176</ele>
        <time>2020-10-18T12:59:06.000Z</time>
      </trkpt>
      <trkpt lat="48.2547" lon="-3.53052">
        <ele>104.59999847412</ele>
        <time>2020-10-18T12:59:07.000Z</time>
      </trkpt>
      <trkpt lat="48.2547" lon="-3.53052">
        <ele>104.59999847412</ele>
        <time>2020-10-18T12:59:08.000Z</time>
      </trkpt>
      <trkpt lat="48.25466" lon="-3.5305">
        <ele>104.59999847412</ele>
        <time>2020-10-18T12:59:09.000Z</time>
      </trkpt>
      <trkpt lat="48.25458" lon="-3.53045">
        <ele>104.40000152588</ele>
        <time>2020-10-18T12:59:10.000Z</time>
      </trkpt>
      <trkpt lat="48.25458" lon="-3.53045">
        <ele>104.40000152588</ele>
        <time>2020-10-18T12:59:11.000Z</time>
      </trkpt>
      <trkpt lat="48.25454" lon="-3.53043">
        <ele>104.19999694824</ele>
        <time>2020-10-18T12:59:12.000Z</time>
      </trkpt>
      <trkpt lat="48.25446" lon="-3.53039">
        <ele>104</ele>
        <time>2020-10-18T12:59:13.000Z</time>
      </trkpt>
      <trkpt lat="48.25446" lon="-3.53039">
        <ele>104</ele>
        <time>2020-10-18T12:59:14.000Z</time>
      </trkpt>
      <trkpt lat="48.25442" lon="-3.53036">
        <ele>104</ele>
        <time>2020-10-18T12:59:15.000Z</time>
      </trkpt>
      <trkpt lat="48.25434" lon="-3.53032">
        <ele>103.59999847412</ele>
        <time>2020-10-18T12:59:16.000Z</time>
      </trkpt>
      <trkpt lat="48.25434" lon="-3.53032">
        <ele>103.59999847412</ele>
        <time>2020-10-18T12:59:17.000Z</time>
      </trkpt>
      <trkpt lat="48.2543" lon="-3.53029">
        <ele>103.59999847412</ele>
        <time>2020-10-18T12:59:18.000Z</time>
      </trkpt>
      <trkpt lat="48.25421" lon="-3.53024">
        <ele>103.59999847412</ele>
        <time>2020-10-18T12:59:19.000Z</time>
      </trkpt>
      <trkpt lat="48.25421" lon="-3.53024">
        <ele>103.59999847412</ele>
        <time>2020-10-18T12:59:20.000Z</time>
      </trkpt>
      <trkpt lat="48.25417" lon="-3.53022">
        <ele>103.40000152588</ele>
        <time>2020-10-18T12:59:21.000Z</time>
      </trkpt>
      <trkpt lat="48.25409" lon="-3.53018">
        <ele>103</ele>
        <time>2020-10-18T12:59:22.000Z</time>
      </trkpt>
      <trkpt lat="48.25409" lon="-3.53018">
        <ele>103</ele>
        <time>2020-10-18T12:59:23.000Z</time>
      </trkpt>
      <trkpt lat="48.25405" lon="-3.53015">
        <ele>103.19999694824</ele>
        <time>2020-10-18T12:59:24.000Z</time>
      </trkpt>
      <trkpt lat="48.25397" lon="-3.5301">
        <ele>103.59999847412</ele>
        <time>2020-10-18T12:59:25.000Z</time>
      </trkpt>
      <trkpt lat="48.25397" lon="-3.5301">
        <ele>103.59999847412</ele>
        <time>2020-10-18T12:59:26.000Z</time>
      </trkpt>
      <trkpt lat="48.25393" lon="-3.53007">
        <ele>103.80000305176</ele>
        <time>2020-10-18T12:59:27.000Z</time>
      </trkpt>
      <trkpt lat="48.25386" lon="-3.53002">
        <ele>104</ele>
        <time>2020-10-18T12:59:28.000Z</time>
      </trkpt>
      <trkpt lat="48.25382" lon="-3.53001">
        <ele>104.19999694824</ele>
        <time>2020-10-18T12:59:29.000Z</time>
      </trkpt>
      <trkpt lat="48.25382" lon="-3.53001">
        <ele>104.19999694824</ele>
        <time>2020-10-18T12:59:30.000Z</time>
      </trkpt>
      <trkpt lat="48.2538" lon="-3.52999">
        <ele>104.19999694824</ele>
        <time>2020-10-18T12:59:31.000Z</time>
      </trkpt>
      <trkpt lat="48.25374" lon="-3.52996">
        <ele>104.40000152588</ele>
        <time>2020-10-18T12:59:32.000Z</time>
      </trkpt>
      <trkpt lat="48.25374" lon="-3.52996">
        <ele>104.40000152588</ele>
        <time>2020-10-18T12:59:33.000Z</time>
      </trkpt>
      <trkpt lat="48.2537" lon="-3.52994">
        <ele>104.40000152588</ele>
        <time>2020-10-18T12:59:34.000Z</time>
      </trkpt>
      <trkpt lat="48.25365" lon="-3.52991">
        <ele>104.40000152588</ele>
        <time>2020-10-18T12:59:35.000Z</time>
      </trkpt>
      <trkpt lat="48.25365" lon="-3.52991">
        <ele>104.40000152588</ele>
        <time>2020-10-18T12:59:36.000Z</time>
      </trkpt>
      <trkpt lat="48.25362" lon="-3.5299">
        <ele>104.40000152588</ele>
        <time>2020-10-18T12:59:37.000Z</time>
      </trkpt>
      <trkpt lat="48.25356" lon="-3.52986">
        <ele>104.40000152588</ele>
        <time>2020-10-18T12:59:38.000Z</time>
      </trkpt>
      <trkpt lat="48.25356" lon="-3.52986">
        <ele>104.40000152588</ele>
        <time>2020-10-18T12:59:39.000Z</time>
      </trkpt>
      <trkpt lat="48.25351" lon="-3.52983">
        <ele>104.40000152588</ele>
        <time>2020-10-18T12:59:40.000Z</time>
      </trkpt>
      <trkpt lat="48.25344" lon="-3.5298">
        <ele>104.40000152588</ele>
        <time>2020-10-18T12:59:41.000Z</time>
      </trkpt>
      <trkpt lat="48.25344" lon="-3.5298">
        <ele>104.40000152588</ele>
        <time>2020-10-18T12:59:42.000Z</time>
      </trkpt>
      <trkpt lat="48.25341" lon="-3.52978">
        <ele>104.59999847412</ele>
        <time>2020-10-18T12:59:43.000Z</time>
      </trkpt>
      <trkpt lat="48.25337" lon="-3.52976">
        <ele>104.80000305176</ele>
        <time>2020-10-18T12:59:44.000Z</time>
      </trkpt>
      <trkpt lat="48.25333" lon="-3.52973">
        <ele>105.19999694824</ele>
        <time>2020-10-18T12:59:45.000Z</time>
      </trkpt>
      <trkpt lat="48.25324" lon="-3.52969">
        <ele>105.59999847412</ele>
        <time>2020-10-18T12:59:46.000Z</time>
      </trkpt>
      <trkpt lat="48.2532" lon="-3.52967">
        <ele>105.80000305176</ele>
        <time>2020-10-18T12:59:47.000Z</time>
      </trkpt>
      <trkpt lat="48.25316" lon="-3.52965">
        <ele>106</ele>
        <time>2020-10-18T12:59:48.000Z</time>
      </trkpt>
      <trkpt lat="48.25312" lon="-3.52963">
        <ele>105.59999847412</ele>
        <time>2020-10-18T12:59:49.000Z</time>
      </trkpt>
      <trkpt lat="48.25312" lon="-3.52963">
        <ele>105.59999847412</ele>
        <time>2020-10-18T12:59:50.000Z</time>
      </trkpt>
      <trkpt lat="48.25308" lon="-3.52961">
        <ele>105.40000152588</ele>
        <time>2020-10-18T12:59:51.000Z</time>
      </trkpt>
      <trkpt lat="48.253" lon="-3.52957">
        <ele>104.80000305176</ele>
        <time>2020-10-18T12:59:52.000Z</time>
      </trkpt>
      <trkpt lat="48.253" lon="-3.52957">
        <ele>104.80000305176</ele>
        <time>2020-10-18T12:59:53.000Z</time>
      </trkpt>
      <trkpt lat="48.25296" lon="-3.52955">
        <ele>104.40000152588</ele>
        <time>2020-10-18T12:59:54.000Z</time>
      </trkpt>
      <trkpt lat="48.2529" lon="-3.52951">
        <ele>104</ele>
        <time>2020-10-18T12:59:55.000Z</time>
      </trkpt>
      <trkpt lat="48.2529" lon="-3.52951">
        <ele>104</ele>
        <time>2020-10-18T12:59:56.000Z</time>
      </trkpt>
      <trkpt lat="48.25287" lon="-3.52948">
        <ele>103.80000305176</ele>
        <time>2020-10-18T12:59:57.000Z</time>
      </trkpt>
      <trkpt lat="48.25282" lon="-3.52941">
        <ele>103.59999847412</ele>
        <time>2020-10-18T12:59:58.000Z</time>
      </trkpt>
      <trkpt lat="48.25282" lon="-3.52941">
        <ele>103.59999847412</ele>
        <time>2020-10-18T12:59:59.000Z</time>
      </trkpt>
      <trkpt lat="48.25275" lon="-3.52934">
        <ele>103.19999694824</ele>
        <time>2020-10-18T13:00:00.000Z</time>
      </trkpt>
      <trkpt lat="48.25275" lon="-3.52934">
        <ele>103.19999694824</ele>
        <time>2020-10-18T13:00:01.000Z</time>
      </trkpt>
      <trkpt lat="48.25272" lon="-3.52929">
        <ele>103.19999694824</ele>
        <time>2020-10-18T13:00:02.000Z</time>
      </trkpt>
      <trkpt lat="48.25266" lon="-3.5292">
        <ele>102.59999847412</ele>
        <time>2020-10-18T13:00:03.000Z</time>
      </trkpt>
      <trkpt lat="48.25266" lon="-3.5292">
        <ele>102.59999847412</ele>
        <time>2020-10-18T13:00:04.000Z</time>
      </trkpt>
      <trkpt lat="48.25264" lon="-3.52916">
        <ele>102.40000152588</ele>
        <time>2020-10-18T13:00:05.000Z</time>
      </trkpt>
      <trkpt lat="48.25259" lon="-3.52906">
        <ele>102.59999847412</ele>
        <time>2020-10-18T13:00:06.000Z</time>
      </trkpt>
      <trkpt lat="48.25259" lon="-3.52906">
        <ele>102.59999847412</ele>
        <time>2020-10-18T13:00:07.000Z</time>
      </trkpt>
      <trkpt lat="48.25255" lon="-3.52895">
        <ele>103</ele>
        <time>2020-10-18T13:00:08.000Z</time>
      </trkpt>
      <trkpt lat="48.25254" lon="-3.5289">
        <ele>103.19999694824</ele>
        <time>2020-10-18T13:00:09.000Z</time>
      </trkpt>
      <trkpt lat="48.25254" lon="-3.5289">
        <ele>103.19999694824</ele>
        <time>2020-10-18T13:00:10.000Z</time>
      </trkpt>
      <trkpt lat="48.25252" lon="-3.52884">
        <ele>103.40000152588</ele>
        <time>2020-10-18T13:00:11.000Z</time>
      </trkpt>
      <trkpt lat="48.25249" lon="-3.52872">
        <ele>103.80000305176</ele>
        <time>2020-10-18T13:00:12.000Z</time>
      </trkpt>
      <trkpt lat="48.25249" lon="-3.52872">
        <ele>103.80000305176</ele>
        <time>2020-10-18T13:00:13.000Z</time>
      </trkpt>
      <trkpt lat="48.25249" lon="-3.52866">
        <ele>104</ele>
        <time>2020-10-18T13:00:14.000Z</time>
      </trkpt>
      <trkpt lat="48.25248" lon="-3.52854">
        <ele>104.19999694824</ele>
        <time>2020-10-18T13:00:15.000Z</time>
      </trkpt>
      <trkpt lat="48.25248" lon="-3.52854">
        <ele>104.19999694824</ele>
        <time>2020-10-18T13:00:16.000Z</time>
      </trkpt>
      <trkpt lat="48.25248" lon="-3.52841">
        <ele>104.19999694824</ele>
        <time>2020-10-18T13:00:17.000Z</time>
      </trkpt>
      <trkpt lat="48.25248" lon="-3.52841">
        <ele>104.19999694824</ele>
        <time>2020-10-18T13:00:18.000Z</time>
      </trkpt>
      <trkpt lat="48.25248" lon="-3.52835">
        <ele>104.19999694824</ele>
        <time>2020-10-18T13:00:19.000Z</time>
      </trkpt>
      <trkpt lat="48.2525" lon="-3.52823">
        <ele>104</ele>
        <time>2020-10-18T13:00:20.000Z</time>
      </trkpt>
      <trkpt lat="48.2525" lon="-3.52823">
        <ele>104</ele>
        <time>2020-10-18T13:00:21.000Z</time>
      </trkpt>
      <trkpt lat="48.25251" lon="-3.52817">
        <ele>104</ele>
        <time>2020-10-18T13:00:22.000Z</time>
      </trkpt>
      <trkpt lat="48.25253" lon="-3.52806">
        <ele>103.80000305176</ele>
        <time>2020-10-18T13:00:23.000Z</time>
      </trkpt>
      <trkpt lat="48.25253" lon="-3.52806">
        <ele>103.80000305176</ele>
        <time>2020-10-18T13:00:24.000Z</time>
      </trkpt>
      <trkpt lat="48.25255" lon="-3.52801">
        <ele>103.59999847412</ele>
        <time>2020-10-18T13:00:25.000Z</time>
      </trkpt>
      <trkpt lat="48.25259" lon="-3.5279">
        <ele>103.40000152588</ele>
        <time>2020-10-18T13:00:26.000Z</time>
      </trkpt>
      <trkpt lat="48.25259" lon="-3.5279">
        <ele>103.40000152588</ele>
        <time>2020-10-18T13:00:27.000Z</time>
      </trkpt>
      <trkpt lat="48.25261" lon="-3.52784">
        <ele>103.19999694824</ele>
        <time>2020-10-18T13:00:28.000Z</time>
      </trkpt>
      <trkpt lat="48.25266" lon="-3.52774">
        <ele>103.40000152588</ele>
        <time>2020-10-18T13:00:29.000Z</time>
      </trkpt>
      <trkpt lat="48.25266" lon="-3.52774">
        <ele>103.40000152588</ele>
        <time>2020-10-18T13:00:30.000Z</time>
      </trkpt>
      <trkpt lat="48.25268" lon="-3.52769">
        <ele>103.59999847412</ele>
        <time>2020-10-18T13:00:31.000Z</time>
      </trkpt>
      <trkpt lat="48.25274" lon="-3.52759">
        <ele>103.19999694824</ele>
        <time>2020-10-18T13:00:32.000Z</time>
      </trkpt>
      <trkpt lat="48.25274" lon="-3.52759">
        <ele>103.19999694824</ele>
        <time>2020-10-18T13:00:33.000Z</time>
      </trkpt>
      <trkpt lat="48.25277" lon="-3.52755">
        <ele>103</ele>
        <time>2020-10-18T13:00:34.000Z</time>
      </trkpt>
      <trkpt lat="48.25283" lon="-3.52746">
        <ele>102.80000305176</ele>
        <time>2020-10-18T13:00:35.000Z</time>
      </trkpt>
      <trkpt lat="48.25283" lon="-3.52746">
        <ele>102.80000305176</ele>
        <time>2020-10-18T13:00:36.000Z</time>
      </trkpt>
      <trkpt lat="48.25286" lon="-3.52742">
        <ele>102.80000305176</ele>
        <time>2020-10-18T13:00:37.000Z</time>
      </trkpt>
      <trkpt lat="48.25294" lon="-3.52736">
        <ele>102.59999847412</ele>
        <time>2020-10-18T13:00:38.000Z</time>
      </trkpt>
      <trkpt lat="48.25294" lon="-3.52736">
        <ele>102.59999847412</ele>
        <time>2020-10-18T13:00:39.000Z</time>
      </trkpt>
      <trkpt lat="48.25297" lon="-3.52733">
        <ele>102.59999847412</ele>
        <time>2020-10-18T13:00:40.000Z</time>
      </trkpt>
      <trkpt lat="48.25304" lon="-3.52726">
        <ele>102.59999847412</ele>
        <time>2020-10-18T13:00:41.000Z</time>
      </trkpt>
      <trkpt lat="48.25304" lon="-3.52726">
        <ele>102.59999847412</ele>
        <time>2020-10-18T13:00:42.000Z</time>
      </trkpt>
      <trkpt lat="48.25308" lon="-3.52724">
        <ele>102.59999847412</ele>
        <time>2020-10-18T13:00:43.000Z</time>
      </trkpt>
      <trkpt lat="48.25315" lon="-3.52719">
        <ele>103</ele>
        <time>2020-10-18T13:00:44.000Z</time>
      </trkpt>
      <trkpt lat="48.25315" lon="-3.52719">
        <ele>103</ele>
        <time>2020-10-18T13:00:45.000Z</time>
      </trkpt>
      <trkpt lat="48.25319" lon="-3.52716">
        <ele>103</ele>
        <time>2020-10-18T13:00:46.000Z</time>
      </trkpt>
      <trkpt lat="48.25323" lon="-3.52714">
        <ele>103.19999694824</ele>
        <time>2020-10-18T13:00:47.000Z</time>
      </trkpt>
      <trkpt lat="48.25327" lon="-3.52712">
        <ele>103.19999694824</ele>
        <time>2020-10-18T13:00:48.000Z</time>
      </trkpt>
      <trkpt lat="48.25335" lon="-3.52709">
        <ele>103.80000305176</ele>
        <time>2020-10-18T13:00:49.000Z</time>
      </trkpt>
      <trkpt lat="48.25335" lon="-3.52709">
        <ele>103.80000305176</ele>
        <time>2020-10-18T13:00:50.000Z</time>
      </trkpt>
      <trkpt lat="48.2534" lon="-3.52707">
        <ele>104.19999694824</ele>
        <time>2020-10-18T13:00:51.000Z</time>
      </trkpt>
      <trkpt lat="48.25349" lon="-3.52703">
        <ele>104.59999847412</ele>
        <time>2020-10-18T13:00:52.000Z</time>
      </trkpt>
      <trkpt lat="48.25349" lon="-3.52703">
        <ele>104.59999847412</ele>
        <time>2020-10-18T13:00:53.000Z</time>
      </trkpt>
      <trkpt lat="48.25353" lon="-3.52701">
        <ele>104.59999847412</ele>
        <time>2020-10-18T13:00:54.000Z</time>
      </trkpt>
      <trkpt lat="48.25361" lon="-3.52695">
        <ele>104.40000152588</ele>
        <time>2020-10-18T13:00:55.000Z</time>
      </trkpt>
      <trkpt lat="48.25361" lon="-3.52695">
        <ele>104.40000152588</ele>
        <time>2020-10-18T13:00:56.000Z</time>
      </trkpt>
      <trkpt lat="48.25366" lon="-3.52693">
        <ele>104.40000152588</ele>
        <time>2020-10-18T13:00:57.000Z</time>
      </trkpt>
      <trkpt lat="48.25374" lon="-3.52687">
        <ele>104.40000152588</ele>
        <time>2020-10-18T13:00:58.000Z</time>
      </trkpt>
      <trkpt lat="48.25374" lon="-3.52687">
        <ele>104.40000152588</ele>
        <time>2020-10-18T13:00:59.000Z</time>
      </trkpt>
      <trkpt lat="48.25378" lon="-3.52685">
        <ele>104.40000152588</ele>
        <time>2020-10-18T13:01:00.000Z</time>
      </trkpt>
      <trkpt lat="48.25387" lon="-3.5268">
        <ele>104.80000305176</ele>
        <time>2020-10-18T13:01:01.000Z</time>
      </trkpt>
      <trkpt lat="48.25387" lon="-3.5268">
        <ele>104.80000305176</ele>
        <time>2020-10-18T13:01:02.000Z</time>
      </trkpt>
      <trkpt lat="48.25391" lon="-3.52678">
        <ele>104.80000305176</ele>
        <time>2020-10-18T13:01:03.000Z</time>
      </trkpt>
      <trkpt lat="48.254" lon="-3.52674">
        <ele>105.19999694824</ele>
        <time>2020-10-18T13:01:04.000Z</time>
      </trkpt>
      <trkpt lat="48.254" lon="-3.52674">
        <ele>105.19999694824</ele>
        <time>2020-10-18T13:01:05.000Z</time>
      </trkpt>
      <trkpt lat="48.25404" lon="-3.52672">
        <ele>105.40000152588</ele>
        <time>2020-10-18T13:01:06.000Z</time>
      </trkpt>
      <trkpt lat="48.25411" lon="-3.52668">
        <ele>105.59999847412</ele>
        <time>2020-10-18T13:01:07.000Z</time>
      </trkpt>
      <trkpt lat="48.25415" lon="-3.52665">
        <ele>105.59999847412</ele>
        <time>2020-10-18T13:01:08.000Z</time>
      </trkpt>
      <trkpt lat="48.25415" lon="-3.52665">
        <ele>105.59999847412</ele>
        <time>2020-10-18T13:01:09.000Z</time>
      </trkpt>
      <trkpt lat="48.25419" lon="-3.52663">
        <ele>105.80000305176</ele>
        <time>2020-10-18T13:01:10.000Z</time>
      </trkpt>
      <trkpt lat="48.25427" lon="-3.52658">
        <ele>106</ele>
        <time>2020-10-18T13:01:11.000Z</time>
      </trkpt>
      <trkpt lat="48.25427" lon="-3.52658">
        <ele>106</ele>
        <time>2020-10-18T13:01:12.000Z</time>
      </trkpt>
      <trkpt lat="48.25432" lon="-3.52656">
        <ele>106</ele>
        <time>2020-10-18T13:01:13.000Z</time>
      </trkpt>
      <trkpt lat="48.2544" lon="-3.52651">
        <ele>106</ele>
        <time>2020-10-18T13:01:14.000Z</time>
      </trkpt>
      <trkpt lat="48.2544" lon="-3.52651">
        <ele>106</ele>
        <time>2020-10-18T13:01:15.000Z</time>
      </trkpt>
      <trkpt lat="48.25444" lon="-3.52648">
        <ele>106</ele>
        <time>2020-10-18T13:01:16.000Z</time>
      </trkpt>
      <trkpt lat="48.25452" lon="-3.52643">
        <ele>106</ele>
        <time>2020-10-18T13:01:17.000Z</time>
      </trkpt>
      <trkpt lat="48.25452" lon="-3.52643">
        <ele>106</ele>
        <time>2020-10-18T13:01:18.000Z</time>
      </trkpt>
      <trkpt lat="48.25456" lon="-3.52641">
        <ele>105.80000305176</ele>
        <time>2020-10-18T13:01:19.000Z</time>
      </trkpt>
      <trkpt lat="48.25463" lon="-3.52636">
        <ele>105.80000305176</ele>
        <time>2020-10-18T13:01:20.000Z</time>
      </trkpt>
      <trkpt lat="48.25463" lon="-3.52636">
        <ele>105.80000305176</ele>
        <time>2020-10-18T13:01:21.000Z</time>
      </trkpt>
      <trkpt lat="48.25467" lon="-3.52633">
        <ele>105.80000305176</ele>
        <time>2020-10-18T13:01:22.000Z</time>
      </trkpt>
      <trkpt lat="48.25475" lon="-3.52628">
        <ele>105.59999847412</ele>
        <time>2020-10-18T13:01:23.000Z</time>
      </trkpt>
      <trkpt lat="48.25475" lon="-3.52628">
        <ele>105.59999847412</ele>
        <time>2020-10-18T13:01:24.000Z</time>
      </trkpt>
      <trkpt lat="48.25479" lon="-3.52626">
        <ele>105.59999847412</ele>
        <time>2020-10-18T13:01:25.000Z</time>
      </trkpt>
      <trkpt lat="48.25486" lon="-3.5262">
        <ele>105.40000152588</ele>
        <time>2020-10-18T13:01:26.000Z</time>
      </trkpt>
      <trkpt lat="48.2549" lon="-3.52617">
        <ele>105.40000152588</ele>
        <time>2020-10-18T13:01:27.000Z</time>
      </trkpt>
      <trkpt lat="48.2549" lon="-3.52617">
        <ele>105.40000152588</ele>
        <time>2020-10-18T13:01:28.000Z</time>
      </trkpt>
      <trkpt lat="48.25495" lon="-3.52614">
        <ele>105.40000152588</ele>
        <time>2020-10-18T13:01:29.000Z</time>
      </trkpt>
      <trkpt lat="48.25502" lon="-3.52609">
        <ele>105.19999694824</ele>
        <time>2020-10-18T13:01:30.000Z</time>
      </trkpt>
      <trkpt lat="48.25502" lon="-3.52609">
        <ele>105.19999694824</ele>
        <time>2020-10-18T13:01:31.000Z</time>
      </trkpt>
      <trkpt lat="48.25505" lon="-3.52606">
        <ele>105.19999694824</ele>
        <time>2020-10-18T13:01:32.000Z</time>
      </trkpt>
      <trkpt lat="48.25513" lon="-3.52601">
        <ele>105.19999694824</ele>
        <time>2020-10-18T13:01:33.000Z</time>
      </trkpt>
      <trkpt lat="48.25513" lon="-3.52601">
        <ele>105.19999694824</ele>
        <time>2020-10-18T13:01:34.000Z</time>
      </trkpt>
      <trkpt lat="48.25517" lon="-3.526">
        <ele>105.40000152588</ele>
        <time>2020-10-18T13:01:35.000Z</time>
      </trkpt>
      <trkpt lat="48.25524" lon="-3.52596">
        <ele>105.59999847412</ele>
        <time>2020-10-18T13:01:36.000Z</time>
      </trkpt>
      <trkpt lat="48.25524" lon="-3.52596">
        <ele>105.59999847412</ele>
        <time>2020-10-18T13:01:37.000Z</time>
      </trkpt>
      <trkpt lat="48.25528" lon="-3.52593">
        <ele>105.80000305176</ele>
        <time>2020-10-18T13:01:38.000Z</time>
      </trkpt>
      <trkpt lat="48.25535" lon="-3.52589">
        <ele>106</ele>
        <time>2020-10-18T13:01:39.000Z</time>
      </trkpt>
      <trkpt lat="48.25535" lon="-3.52589">
        <ele>106</ele>
        <time>2020-10-18T13:01:40.000Z</time>
      </trkpt>
      <trkpt lat="48.25539" lon="-3.52587">
        <ele>106</ele>
        <time>2020-10-18T13:01:41.000Z</time>
      </trkpt>
      <trkpt lat="48.25546" lon="-3.52583">
        <ele>106.19999694824</ele>
        <time>2020-10-18T13:01:42.000Z</time>
      </trkpt>
      <trkpt lat="48.25546" lon="-3.52583">
        <ele>106.19999694824</ele>
        <time>2020-10-18T13:01:43.000Z</time>
      </trkpt>
      <trkpt lat="48.25549" lon="-3.52581">
        <ele>106.40000152588</ele>
        <time>2020-10-18T13:01:44.000Z</time>
      </trkpt>
      <trkpt lat="48.25556" lon="-3.52577">
        <ele>106.59999847412</ele>
        <time>2020-10-18T13:01:45.000Z</time>
      </trkpt>
      <trkpt lat="48.25556" lon="-3.52577">
        <ele>106.59999847412</ele>
        <time>2020-10-18T13:01:46.000Z</time>
      </trkpt>
      <trkpt lat="48.25564" lon="-3.52573">
        <ele>107</ele>
        <time>2020-10-18T13:01:47.000Z</time>
      </trkpt>
      <trkpt lat="48.25564" lon="-3.52573">
        <ele>107</ele>
        <time>2020-10-18T13:01:48.000Z</time>
      </trkpt>
      <trkpt lat="48.25571" lon="-3.52569">
        <ele>107.19999694824</ele>
        <time>2020-10-18T13:01:49.000Z</time>
      </trkpt>
      <trkpt lat="48.25571" lon="-3.52569">
        <ele>107.19999694824</ele>
        <time>2020-10-18T13:01:50.000Z</time>
      </trkpt>
      <trkpt lat="48.25575" lon="-3.52567">
        <ele>107.40000152588</ele>
        <time>2020-10-18T13:01:51.000Z</time>
      </trkpt>
      <trkpt lat="48.25582" lon="-3.52562">
        <ele>107.40000152588</ele>
        <time>2020-10-18T13:01:52.000Z</time>
      </trkpt>
      <trkpt lat="48.25582" lon="-3.52562">
        <ele>107.40000152588</ele>
        <time>2020-10-18T13:01:53.000Z</time>
      </trkpt>
      <trkpt lat="48.25585" lon="-3.5256">
        <ele>107.40000152588</ele>
        <time>2020-10-18T13:01:54.000Z</time>
      </trkpt>
      <trkpt lat="48.25592" lon="-3.52555">
        <ele>107.59999847412</ele>
        <time>2020-10-18T13:01:55.000Z</time>
      </trkpt>
      <trkpt lat="48.25592" lon="-3.52555">
        <ele>107.59999847412</ele>
        <time>2020-10-18T13:01:56.000Z</time>
      </trkpt>
      <trkpt lat="48.25596" lon="-3.52553">
        <ele>107.80000305176</ele>
        <time>2020-10-18T13:01:57.000Z</time>
      </trkpt>
      <trkpt lat="48.25603" lon="-3.5255">
        <ele>107.19999694824</ele>
        <time>2020-10-18T13:01:58.000Z</time>
      </trkpt>
      <trkpt lat="48.25603" lon="-3.5255">
        <ele>107.19999694824</ele>
        <time>2020-10-18T13:01:59.000Z</time>
      </trkpt>
      <trkpt lat="48.25607" lon="-3.52548">
        <ele>107</ele>
        <time>2020-10-18T13:02:00.000Z</time>
      </trkpt>
      <trkpt lat="48.25615" lon="-3.52543">
        <ele>106.19999694824</ele>
        <time>2020-10-18T13:02:01.000Z</time>
      </trkpt>
      <trkpt lat="48.25618" lon="-3.52541">
        <ele>106</ele>
        <time>2020-10-18T13:02:02.000Z</time>
      </trkpt>
      <trkpt lat="48.25618" lon="-3.52541">
        <ele>106</ele>
        <time>2020-10-18T13:02:03.000Z</time>
      </trkpt>
      <trkpt lat="48.25626" lon="-3.52536">
        <ele>105.19999694824</ele>
        <time>2020-10-18T13:02:04.000Z</time>
      </trkpt>
      <trkpt lat="48.25626" lon="-3.52536">
        <ele>105.19999694824</ele>
        <time>2020-10-18T13:02:05.000Z</time>
      </trkpt>
      <trkpt lat="48.25629" lon="-3.52534">
        <ele>104.80000305176</ele>
        <time>2020-10-18T13:02:06.000Z</time>
      </trkpt>
      <trkpt lat="48.25636" lon="-3.5253">
        <ele>104.19999694824</ele>
        <time>2020-10-18T13:02:07.000Z</time>
      </trkpt>
      <trkpt lat="48.25636" lon="-3.5253">
        <ele>104.19999694824</ele>
        <time>2020-10-18T13:02:08.000Z</time>
      </trkpt>
      <trkpt lat="48.25639" lon="-3.52529">
        <ele>104</ele>
        <time>2020-10-18T13:02:09.000Z</time>
      </trkpt>
      <trkpt lat="48.25645" lon="-3.52524">
        <ele>103.40000152588</ele>
        <time>2020-10-18T13:02:10.000Z</time>
      </trkpt>
      <trkpt lat="48.25645" lon="-3.52524">
        <ele>103.40000152588</ele>
        <time>2020-10-18T13:02:11.000Z</time>
      </trkpt>
      <trkpt lat="48.25647" lon="-3.52522">
        <ele>103</ele>
        <time>2020-10-18T13:02:12.000Z</time>
      </trkpt>
      <trkpt lat="48.25653" lon="-3.52518">
        <ele>102.40000152588</ele>
        <time>2020-10-18T13:02:13.000Z</time>
      </trkpt>
      <trkpt lat="48.25653" lon="-3.52518">
        <ele>102.40000152588</ele>
        <time>2020-10-18T13:02:14.000Z</time>
      </trkpt>
      <trkpt lat="48.25656" lon="-3.52516">
        <ele>102.19999694824</ele>
        <time>2020-10-18T13:02:15.000Z</time>
      </trkpt>
      <trkpt lat="48.25662" lon="-3.52512">
        <ele>102.19999694824</ele>
        <time>2020-10-18T13:02:16.000Z</time>
      </trkpt>
      <trkpt lat="48.25662" lon="-3.52512">
        <ele>102.19999694824</ele>
        <time>2020-10-18T13:02:17.000Z</time>
      </trkpt>
      <trkpt lat="48.25665" lon="-3.52511">
        <ele>102.19999694824</ele>
        <time>2020-10-18T13:02:18.000Z</time>
      </trkpt>
      <trkpt lat="48.2567" lon="-3.52507">
        <ele>102.19999694824</ele>
        <time>2020-10-18T13:02:19.000Z</time>
      </trkpt>
      <trkpt lat="48.2567" lon="-3.52507">
        <ele>102.19999694824</ele>
        <time>2020-10-18T13:02:20.000Z</time>
      </trkpt>
      <trkpt lat="48.25672" lon="-3.52506">
        <ele>102</ele>
        <time>2020-10-18T13:02:21.000Z</time>
      </trkpt>
      <trkpt lat="48.25676" lon="-3.52503">
        <ele>102</ele>
        <time>2020-10-18T13:02:22.000Z</time>
      </trkpt>
      <trkpt lat="48.25676" lon="-3.52503">
        <ele>102</ele>
        <time>2020-10-18T13:02:23.000Z</time>
      </trkpt>
      <trkpt lat="48.25678" lon="-3.52501">
        <ele>102</ele>
        <time>2020-10-18T13:02:24.000Z</time>
      </trkpt>
      <trkpt lat="48.25681" lon="-3.525">
        <ele>102.19999694824</ele>
        <time>2020-10-18T13:02:25.000Z</time>
      </trkpt>
      <trkpt lat="48.25682" lon="-3.525">
        <ele>102.19999694824</ele>
        <time>2020-10-18T13:02:26.000Z</time>
      </trkpt>
      <trkpt lat="48.25682" lon="-3.525">
        <ele>102.19999694824</ele>
        <time>2020-10-18T13:02:27.000Z</time>
      </trkpt>
      <trkpt lat="48.25682" lon="-3.525">
        <ele>102.19999694824</ele>
        <time>2020-10-18T13:02:28.000Z</time>
      </trkpt>
      <trkpt lat="48.25682" lon="-3.525">
        <ele>102.19999694824</ele>
        <time>2020-10-18T13:02:29.000Z</time>
      </trkpt>
      <trkpt lat="48.25682" lon="-3.525">
        <ele>102.19999694824</ele>
        <time>2020-10-18T13:02:30.000Z</time>
      </trkpt>
      <trkpt lat="48.25682" lon="-3.525">
        <ele>102.19999694824</ele>
        <time>2020-10-18T13:02:31.000Z</time>
      </trkpt>
      <trkpt lat="48.25682" lon="-3.525">
        <ele>102.19999694824</ele>
        <time>2020-10-18T13:02:32.000Z</time>
      </trkpt>
      <trkpt lat="48.25682" lon="-3.525">
        <ele>102.19999694824</ele>
        <time>2020-10-18T13:02:33.000Z</time>
      </trkpt>
      <trkpt lat="48.25682" lon="-3.525">
        <ele>102.19999694824</ele>
        <time>2020-10-18T13:02:34.000Z</time>
      </trkpt>
      <trkpt lat="48.25682" lon="-3.525">
        <ele>102.19999694824</ele>
        <time>2020-10-18T13:02:35.000Z</time>
      </trkpt>
      <trkpt lat="48.25682" lon="-3.525">
        <ele>102.19999694824</ele>
        <time>2020-10-18T13:02:36.000Z</time>
      </trkpt>
      <trkpt lat="48.25682" lon="-3.525">
        <ele>102.19999694824</ele>
        <time>2020-10-18T13:02:37.000Z</time>
      </trkpt>
      <trkpt lat="48.25682" lon="-3.525">
        <ele>102.19999694824</ele>
        <time>2020-10-18T13:02:38.000Z</time>
      </trkpt>
      <trkpt lat="48.25682" lon="-3.525">
        <ele>102.19999694824</ele>
        <time>2020-10-18T13:02:39.000Z</time>
      </trkpt>
      <trkpt lat="48.25682" lon="-3.525">
        <ele>102.19999694824</ele>
        <time>2020-10-18T13:02:40.000Z</time>
      </trkpt>
      <trkpt lat="48.25682" lon="-3.525">
        <ele>102.19999694824</ele>
        <time>2020-10-18T13:02:41.000Z</time>
      </trkpt>
      <trkpt lat="48.25682" lon="-3.525">
        <ele>102.19999694824</ele>
        <time>2020-10-18T13:02:42.000Z</time>
      </trkpt>
      <trkpt lat="48.25682" lon="-3.525">
        <ele>102.19999694824</ele>
        <time>2020-10-18T13:02:43.000Z</time>
      </trkpt>
      <trkpt lat="48.25682" lon="-3.525">
        <ele>102.19999694824</ele>
        <time>2020-10-18T13:02:44.000Z</time>
      </trkpt>
      <trkpt lat="48.25682" lon="-3.525">
        <ele>102.19999694824</ele>
        <time>2020-10-18T13:02:45.000Z</time>
      </trkpt>
      <trkpt lat="48.25681" lon="-3.52501">
        <ele>102.19999694824</ele>
        <time>2020-10-18T13:02:46.000Z</time>
      </trkpt>
      <trkpt lat="48.25681" lon="-3.52501">
        <ele>102.19999694824</ele>
        <time>2020-10-18T13:02:47.000Z</time>
      </trkpt>
      <trkpt lat="48.25681" lon="-3.52501">
        <ele>102.19999694824</ele>
        <time>2020-10-18T13:02:48.000Z</time>
      </trkpt>
      <trkpt lat="48.25681" lon="-3.52501">
        <ele>102.19999694824</ele>
        <time>2020-10-18T13:02:49.000Z</time>
      </trkpt>
      <trkpt lat="48.25681" lon="-3.52501">
        <ele>102.19999694824</ele>
        <time>2020-10-18T13:02:50.000Z</time>
      </trkpt>
      <trkpt lat="48.25681" lon="-3.52501">
        <ele>102.19999694824</ele>
        <time>2020-10-18T13:02:51.000Z</time>
      </trkpt>
      <trkpt lat="48.25681" lon="-3.52501">
        <ele>102.19999694824</ele>
        <time>2020-10-18T13:02:52.000Z</time>
      </trkpt>
      <trkpt lat="48.2568" lon="-3.52501">
        <ele>102</ele>
        <time>2020-10-18T13:02:53.000Z</time>
      </trkpt>
      <trkpt lat="48.2568" lon="-3.52501">
        <ele>102</ele>
        <time>2020-10-18T13:02:54.000Z</time>
      </trkpt>
      <trkpt lat="48.2568" lon="-3.52501">
        <ele>102</ele>
        <time>2020-10-18T13:02:55.000Z</time>
      </trkpt>
      <trkpt lat="48.2568" lon="-3.52501">
        <ele>102</ele>
        <time>2020-10-18T13:02:56.000Z</time>
      </trkpt>
      <trkpt lat="48.2568" lon="-3.52501">
        <ele>102</ele>
        <time>2020-10-18T13:02:57.000Z</time>
      </trkpt>
      <trkpt lat="48.2568" lon="-3.52501">
        <ele>102</ele>
        <time>2020-10-18T13:02:58.000Z</time>
      </trkpt>
      <trkpt lat="48.2568" lon="-3.52501">
        <ele>102</ele>
        <time>2020-10-18T13:02:59.000Z</time>
      </trkpt>
      <trkpt lat="48.2568" lon="-3.52501">
        <ele>102</ele>
        <time>2020-10-18T13:03:00.000Z</time>
      </trkpt>
      <trkpt lat="48.2568" lon="-3.52501">
        <ele>102</ele>
        <time>2020-10-18T13:03:01.000Z</time>
      </trkpt>
      <trkpt lat="48.2568" lon="-3.52501">
        <ele>102</ele>
        <time>2020-10-18T13:03:02.000Z</time>
      </trkpt>
      <trkpt lat="48.2568" lon="-3.52501">
        <ele>102</ele>
        <time>2020-10-18T13:03:03.000Z</time>
      </trkpt>
      <trkpt lat="48.2568" lon="-3.52501">
        <ele>102</ele>
        <time>2020-10-18T13:03:04.000Z</time>
      </trkpt>
      <trkpt lat="48.2568" lon="-3.52501">
        <ele>102</ele>
        <time>2020-10-18T13:03:05.000Z</time>
      </trkpt>
      <trkpt lat="48.2568" lon="-3.52501">
        <ele>102</ele>
        <time>2020-10-18T13:03:06.000Z</time>
      </trkpt>
      <trkpt lat="48.2568" lon="-3.52501">
        <ele>102</ele>
        <time>2020-10-18T13:03:07.000Z</time>
      </trkpt>
      <trkpt lat="48.2568" lon="-3.52501">
        <ele>102</ele>
        <time>2020-10-18T13:03:08.000Z</time>
      </trkpt>
      <trkpt lat="48.2568" lon="-3.52501">
        <ele>102</ele>
        <time>2020-10-18T13:03:09.000Z</time>
      </trkpt>
      <trkpt lat="48.2568" lon="-3.52501">
        <ele>102</ele>
        <time>2020-10-18T13:03:10.000Z</time>
      </trkpt>
      <trkpt lat="48.2568" lon="-3.52501">
        <ele>102</ele>
        <time>2020-10-18T13:03:11.000Z</time>
      </trkpt>
      <trkpt lat="48.2568" lon="-3.52501">
        <ele>102</ele>
        <time>2020-10-18T13:03:12.000Z</time>
      </trkpt>
      <trkpt lat="48.2568" lon="-3.52501">
        <ele>102</ele>
        <time>2020-10-18T13:03:13.000Z</time>
      </trkpt>
      <trkpt lat="48.2568" lon="-3.52501">
        <ele>102</ele>
        <time>2020-10-18T13:03:14.000Z</time>
      </trkpt>
      <trkpt lat="48.2568" lon="-3.52501">
        <ele>102</ele>
        <time>2020-10-18T13:03:15.000Z</time>
      </trkpt>
      <trkpt lat="48.2568" lon="-3.52501">
        <ele>102</ele>
        <time>2020-10-18T13:03:16.000Z</time>
      </trkpt>
      <trkpt lat="48.2568" lon="-3.52501">
        <ele>102</ele>
        <time>2020-10-18T13:03:17.000Z</time>
      </trkpt>
      <trkpt lat="48.2568" lon="-3.52501">
        <ele>102</ele>
        <time>2020-10-18T13:03:18.000Z</time>
      </trkpt>
      <trkpt lat="48.2568" lon="-3.52501">
        <ele>102</ele>
        <time>2020-10-18T13:03:19.000Z</time>
      </trkpt>
      <trkpt lat="48.2568" lon="-3.52501">
        <ele>102</ele>
        <time>2020-10-18T13:03:20.000Z</time>
      </trkpt>
      <trkpt lat="48.2568" lon="-3.52501">
        <ele>102</ele>
        <time>2020-10-18T13:03:21.000Z</time>
      </trkpt>
      <trkpt lat="48.2568" lon="-3.52501">
        <ele>102</ele>
        <time>2020-10-18T13:03:22.000Z</time>
      </trkpt>
      <trkpt lat="48.2568" lon="-3.52501">
        <ele>102</ele>
        <time>2020-10-18T13:03:23.000Z</time>
      </trkpt>
      <trkpt lat="48.2568" lon="-3.52501">
        <ele>102</ele>
        <time>2020-10-18T13:03:24.000Z</time>
      </trkpt>
      <trkpt lat="48.2568" lon="-3.52501">
        <ele>102</ele>
        <time>2020-10-18T13:03:25.000Z</time>
      </trkpt>
      <trkpt lat="48.2568" lon="-3.52501">
        <ele>102</ele>
        <time>2020-10-18T13:03:26.000Z</time>
      </trkpt>
      <trkpt lat="48.2568" lon="-3.52501">
        <ele>102</ele>
        <time>2020-10-18T13:03:27.000Z</time>
      </trkpt>
      <trkpt lat="48.2568" lon="-3.52501">
        <ele>102</ele>
        <time>2020-10-18T13:03:28.000Z</time>
      </trkpt>
      <trkpt lat="48.2568" lon="-3.52501">
        <ele>102</ele>
        <time>2020-10-18T13:03:29.000Z</time>
      </trkpt>
      <trkpt lat="48.2568" lon="-3.52501">
        <ele>102</ele>
        <time>2020-10-18T13:03:30.000Z</time>
      </trkpt>
      <trkpt lat="48.2568" lon="-3.52501">
        <ele>102</ele>
        <time>2020-10-18T13:03:31.000Z</time>
      </trkpt>
      <trkpt lat="48.2568" lon="-3.52501">
        <ele>102</ele>
        <time>2020-10-18T13:03:32.000Z</time>
      </trkpt>
      <trkpt lat="48.2568" lon="-3.52501">
        <ele>102</ele>
        <time>2020-10-18T13:03:33.000Z</time>
      </trkpt>
      <trkpt lat="48.2568" lon="-3.52501">
        <ele>102</ele>
        <time>2020-10-18T13:03:34.000Z</time>
      </trkpt>
      <trkpt lat="48.2568" lon="-3.52501">
        <ele>102</ele>
        <time>2020-10-18T13:03:35.000Z</time>
      </trkpt>
      <trkpt lat="48.2568" lon="-3.52501">
        <ele>102</ele>
        <time>2020-10-18T13:03:36.000Z</time>
      </trkpt>
      <trkpt lat="48.2568" lon="-3.52501">
        <ele>102</ele>
        <time>2020-10-18T13:03:37.000Z</time>
      </trkpt>
      <trkpt lat="48.2568" lon="-3.52501">
        <ele>102</ele>
        <time>2020-10-18T13:03:38.000Z</time>
      </trkpt>
      <trkpt lat="48.2568" lon="-3.52501">
        <ele>102</ele>
        <time>2020-10-18T13:03:39.000Z</time>
      </trkpt>
      <trkpt lat="48.2568" lon="-3.52501">
        <ele>102</ele>
        <time>2020-10-18T13:03:40.000Z</time>
      </trkpt>
      <trkpt lat="48.2568" lon="-3.52501">
        <ele>102</ele>
        <time>2020-10-18T13:03:41.000Z</time>
      </trkpt>
      <trkpt lat="48.2568" lon="-3.52501">
        <ele>102</ele>
        <time>2020-10-18T13:03:42.000Z</time>
      </trkpt>
      <trkpt lat="48.2568" lon="-3.52501">
        <ele>102</ele>
        <time>2020-10-18T13:03:43.000Z</time>
      </trkpt>
      <trkpt lat="48.2568" lon="-3.52501">
        <ele>102</ele>
        <time>2020-10-18T13:03:44.000Z</time>
      </trkpt>
      <trkpt lat="48.2568" lon="-3.52501">
        <ele>102</ele>
        <time>2020-10-18T13:03:45.000Z</time>
      </trkpt>
      <trkpt lat="48.2568" lon="-3.52501">
        <ele>102</ele>
        <time>2020-10-18T13:03:46.000Z</time>
      </trkpt>
      <trkpt lat="48.2568" lon="-3.52501">
        <ele>102</ele>
        <time>2020-10-18T13:03:47.000Z</time>
      </trkpt>
      <trkpt lat="48.2568" lon="-3.52501">
        <ele>102</ele>
        <time>2020-10-18T13:03:48.000Z</time>
      </trkpt>
      <trkpt lat="48.2568" lon="-3.52501">
        <ele>102</ele>
        <time>2020-10-18T13:03:49.000Z</time>
      </trkpt>
      <trkpt lat="48.2568" lon="-3.52501">
        <ele>102</ele>
        <time>2020-10-18T13:03:50.000Z</time>
      </trkpt>
      <trkpt lat="48.2568" lon="-3.52501">
        <ele>102</ele>
        <time>2020-10-18T13:03:51.000Z</time>
      </trkpt>
      <trkpt lat="48.2568" lon="-3.52501">
        <ele>102</ele>
        <time>2020-10-18T13:03:52.000Z</time>
      </trkpt>
      <trkpt lat="48.2568" lon="-3.52501">
        <ele>102</ele>
        <time>2020-10-18T13:03:53.000Z</time>
      </trkpt>
      <trkpt lat="48.2568" lon="-3.52501">
        <ele>102</ele>
        <time>2020-10-18T13:03:54.000Z</time>
      </trkpt>
      <trkpt lat="48.2568" lon="-3.52501">
        <ele>102</ele>
        <time>2020-10-18T13:03:55.000Z</time>
      </trkpt>
      <trkpt lat="48.2568" lon="-3.52501">
        <ele>102</ele>
        <time>2020-10-18T13:03:56.000Z</time>
      </trkpt>
      <trkpt lat="48.2568" lon="-3.52501">
        <ele>102</ele>
        <time>2020-10-18T13:03:57.000Z</time>
      </trkpt>
      <trkpt lat="48.2568" lon="-3.52501">
        <ele>102</ele>
        <time>2020-10-18T13:03:58.000Z</time>
      </trkpt>
      <trkpt lat="48.2568" lon="-3.52501">
        <ele>102</ele>
        <time>2020-10-18T13:03:59.000Z</time>
      </trkpt>
      <trkpt lat="48.2568" lon="-3.52501">
        <ele>102</ele>
        <time>2020-10-18T13:04:00.000Z</time>
      </trkpt>
      <trkpt lat="48.2568" lon="-3.52501">
        <ele>102</ele>
        <time>2020-10-18T13:04:01.000Z</time>
      </trkpt>
      <trkpt lat="48.2568" lon="-3.52501">
        <ele>102</ele>
        <time>2020-10-18T13:04:02.000Z</time>
      </trkpt>
      <trkpt lat="48.2568" lon="-3.52501">
        <ele>102</ele>
        <time>2020-10-18T13:04:03.000Z</time>
      </trkpt>
      <trkpt lat="48.2568" lon="-3.52501">
        <ele>102</ele>
        <time>2020-10-18T13:04:04.000Z</time>
      </trkpt>
      <trkpt lat="48.2568" lon="-3.52501">
        <ele>102</ele>
        <time>2020-10-18T13:04:05.000Z</time>
      </trkpt>
      <trkpt lat="48.2568" lon="-3.52501">
        <ele>102</ele>
        <time>2020-10-18T13:04:06.000Z</time>
      </trkpt>
      <trkpt lat="48.2568" lon="-3.52501">
        <ele>102</ele>
        <time>2020-10-18T13:04:07.000Z</time>
      </trkpt>
      <trkpt lat="48.2568" lon="-3.52501">
        <ele>102</ele>
        <time>2020-10-18T13:04:08.000Z</time>
      </trkpt>
      <trkpt lat="48.2568" lon="-3.52501">
        <ele>102</ele>
        <time>2020-10-18T13:04:09.000Z</time>
      </trkpt>
      <trkpt lat="48.2568" lon="-3.52501">
        <ele>102</ele>
        <time>2020-10-18T13:04:10.000Z</time>
      </trkpt>
      <trkpt lat="48.2568" lon="-3.52501">
        <ele>102</ele>
        <time>2020-10-18T13:04:11.000Z</time>
      </trkpt>
      <trkpt lat="48.2568" lon="-3.52501">
        <ele>102</ele>
        <time>2020-10-18T13:04:12.000Z</time>
      </trkpt>
      <trkpt lat="48.2568" lon="-3.52501">
        <ele>102</ele>
        <time>2020-10-18T13:04:13.000Z</time>
      </trkpt>
      <trkpt lat="48.2568" lon="-3.52501">
        <ele>102</ele>
        <time>2020-10-18T13:04:14.000Z</time>
      </trkpt>
      <trkpt lat="48.2568" lon="-3.52501">
        <ele>102</ele>
        <time>2020-10-18T13:04:15.000Z</time>
      </trkpt>
      <trkpt lat="48.2568" lon="-3.52501">
        <ele>102</ele>
        <time>2020-10-18T13:04:16.000Z</time>
      </trkpt>
      <trkpt lat="48.2568" lon="-3.52501">
        <ele>102</ele>
        <time>2020-10-18T13:04:17.000Z</time>
      </trkpt>
      <trkpt lat="48.2568" lon="-3.52501">
        <ele>102</ele>
        <time>2020-10-18T13:04:18.000Z</time>
      </trkpt>
      <trkpt lat="48.2568" lon="-3.52501">
        <ele>102</ele>
        <time>2020-10-18T13:04:19.000Z</time>
      </trkpt>
      <trkpt lat="48.2568" lon="-3.52501">
        <ele>102</ele>
        <time>2020-10-18T13:04:20.000Z</time>
      </trkpt>
      <trkpt lat="48.2568" lon="-3.52501">
        <ele>102</ele>
        <time>2020-10-18T13:04:21.000Z</time>
      </trkpt>
      <trkpt lat="48.2568" lon="-3.52501">
        <ele>102</ele>
        <time>2020-10-18T13:04:22.000Z</time>
      </trkpt>
      <trkpt lat="48.2568" lon="-3.52501">
        <ele>102</ele>
        <time>2020-10-18T13:04:23.000Z</time>
      </trkpt>
      <trkpt lat="48.2568" lon="-3.52501">
        <ele>102</ele>
        <time>2020-10-18T13:04:24.000Z</time>
      </trkpt>
      <trkpt lat="48.2568" lon="-3.52501">
        <ele>102</ele>
        <time>2020-10-18T13:04:25.000Z</time>
      </trkpt>
      <trkpt lat="48.2568" lon="-3.52501">
        <ele>102</ele>
        <time>2020-10-18T13:04:26.000Z</time>
      </trkpt>
      <trkpt lat="48.2568" lon="-3.52501">
        <ele>102</ele>
        <time>2020-10-18T13:04:27.000Z</time>
      </trkpt>
      <trkpt lat="48.2568" lon="-3.52501">
        <ele>102</ele>
        <time>2020-10-18T13:04:28.000Z</time>
      </trkpt>
      <trkpt lat="48.2568" lon="-3.52501">
        <ele>102</ele>
        <time>2020-10-18T13:04:29.000Z</time>
      </trkpt>
      <trkpt lat="48.2568" lon="-3.52501">
        <ele>102</ele>
        <time>2020-10-18T13:04:30.000Z</time>
      </trkpt>
      <trkpt lat="48.2568" lon="-3.52501">
        <ele>102</ele>
        <time>2020-10-18T13:04:31.000Z</time>
      </trkpt>
      <trkpt lat="48.2568" lon="-3.52501">
        <ele>102</ele>
        <time>2020-10-18T13:04:32.000Z</time>
      </trkpt>
      <trkpt lat="48.2568" lon="-3.52501">
        <ele>102</ele>
        <time>2020-10-18T13:04:33.000Z</time>
      </trkpt>
      <trkpt lat="48.2568" lon="-3.52501">
        <ele>102</ele>
        <time>2020-10-18T13:04:34.000Z</time>
      </trkpt>
      <trkpt lat="48.2568" lon="-3.52501">
        <ele>102</ele>
        <time>2020-10-18T13:04:35.000Z</time>
      </trkpt>
      <trkpt lat="48.2568" lon="-3.52501">
        <ele>102</ele>
        <time>2020-10-18T13:04:36.000Z</time>
      </trkpt>
      <trkpt lat="48.2568" lon="-3.52501">
        <ele>102</ele>
        <time>2020-10-18T13:04:37.000Z</time>
      </trkpt>
      <trkpt lat="48.2568" lon="-3.52501">
        <ele>102</ele>
        <time>2020-10-18T13:04:38.000Z</time>
      </trkpt>
      <trkpt lat="48.2568" lon="-3.52501">
        <ele>102</ele>
        <time>2020-10-18T13:04:39.000Z</time>
      </trkpt>
      <trkpt lat="48.2568" lon="-3.52501">
        <ele>102</ele>
        <time>2020-10-18T13:04:40.000Z</time>
      </trkpt>
      <trkpt lat="48.2568" lon="-3.52501">
        <ele>102</ele>
        <time>2020-10-18T13:04:41.000Z</time>
      </trkpt>
      <trkpt lat="48.2568" lon="-3.52501">
        <ele>102</ele>
        <time>2020-10-18T13:04:42.000Z</time>
      </trkpt>
      <trkpt lat="48.2568" lon="-3.52501">
        <ele>102</ele>
        <time>2020-10-18T13:04:43.000Z</time>
      </trkpt>
      <trkpt lat="48.2568" lon="-3.52501">
        <ele>102</ele>
        <time>2020-10-18T13:04:44.000Z</time>
      </trkpt>
      <trkpt lat="48.2568" lon="-3.52501">
        <ele>102</ele>
        <time>2020-10-18T13:04:45.000Z</time>
      </trkpt>
      <trkpt lat="48.2568" lon="-3.52501">
        <ele>102</ele>
        <time>2020-10-18T13:04:46.000Z</time>
      </trkpt>
      <trkpt lat="48.2568" lon="-3.52501">
        <ele>102</ele>
        <time>2020-10-18T13:04:47.000Z</time>
      </trkpt>
      <trkpt lat="48.2568" lon="-3.52501">
        <ele>102</ele>
        <time>2020-10-18T13:04:48.000Z</time>
      </trkpt>
      <trkpt lat="48.2568" lon="-3.52501">
        <ele>102</ele>
        <time>2020-10-18T13:04:49.000Z</time>
      </trkpt>
      <trkpt lat="48.2568" lon="-3.52501">
        <ele>102</ele>
        <time>2020-10-18T13:04:50.000Z</time>
      </trkpt>
      <trkpt lat="48.2568" lon="-3.52501">
        <ele>102</ele>
        <time>2020-10-18T13:04:51.000Z</time>
      </trkpt>
      <trkpt lat="48.2568" lon="-3.52501">
        <ele>102</ele>
        <time>2020-10-18T13:04:52.000Z</time>
      </trkpt>
      <trkpt lat="48.2568" lon="-3.52501">
        <ele>102</ele>
        <time>2020-10-18T13:04:53.000Z</time>
      </trkpt>
      <trkpt lat="48.2568" lon="-3.52501">
        <ele>102</ele>
        <time>2020-10-18T13:04:54.000Z</time>
      </trkpt>
      <trkpt lat="48.2568" lon="-3.52501">
        <ele>102</ele>
        <time>2020-10-18T13:04:55.000Z</time>
      </trkpt>
      <trkpt lat="48.2568" lon="-3.52501">
        <ele>102</ele>
        <time>2020-10-18T13:04:56.000Z</time>
      </trkpt>
      <trkpt lat="48.2568" lon="-3.52501">
        <ele>102</ele>
        <time>2020-10-18T13:04:57.000Z</time>
      </trkpt>
      <trkpt lat="48.2568" lon="-3.52501">
        <ele>102</ele>
        <time>2020-10-18T13:04:58.000Z</time>
      </trkpt>
      <trkpt lat="48.2568" lon="-3.52501">
        <ele>102</ele>
        <time>2020-10-18T13:04:59.000Z</time>
      </trkpt>
      <trkpt lat="48.2568" lon="-3.52501">
        <ele>102</ele>
        <time>2020-10-18T13:05:00.000Z</time>
      </trkpt>
      <trkpt lat="48.2568" lon="-3.52501">
        <ele>102</ele>
        <time>2020-10-18T13:05:01.000Z</time>
      </trkpt>
      <trkpt lat="48.2568" lon="-3.52501">
        <ele>102</ele>
        <time>2020-10-18T13:05:02.000Z</time>
      </trkpt>
      <trkpt lat="48.2568" lon="-3.52501">
        <ele>102</ele>
        <time>2020-10-18T13:05:03.000Z</time>
      </trkpt>
      <trkpt lat="48.2568" lon="-3.52501">
        <ele>102</ele>
        <time>2020-10-18T13:05:04.000Z</time>
      </trkpt>
      <trkpt lat="48.2568" lon="-3.52501">
        <ele>102</ele>
        <time>2020-10-18T13:05:05.000Z</time>
      </trkpt>
      <trkpt lat="48.2568" lon="-3.52501">
        <ele>102</ele>
        <time>2020-10-18T13:05:06.000Z</time>
      </trkpt>
      <trkpt lat="48.2568" lon="-3.52501">
        <ele>102</ele>
        <time>2020-10-18T13:05:07.000Z</time>
      </trkpt>
      <trkpt lat="48.2568" lon="-3.52501">
        <ele>102</ele>
        <time>2020-10-18T13:05:08.000Z</time>
      </trkpt>
      <trkpt lat="48.2568" lon="-3.52501">
        <ele>102</ele>
        <time>2020-10-18T13:05:09.000Z</time>
      </trkpt>
      <trkpt lat="48.2568" lon="-3.52501">
        <ele>102</ele>
        <time>2020-10-18T13:05:10.000Z</time>
      </trkpt>
      <trkpt lat="48.2568" lon="-3.52501">
        <ele>102</ele>
        <time>2020-10-18T13:05:11.000Z</time>
      </trkpt>
      <trkpt lat="48.2568" lon="-3.52501">
        <ele>102</ele>
        <time>2020-10-18T13:05:12.000Z</time>
      </trkpt>
      <trkpt lat="48.2568" lon="-3.52501">
        <ele>102</ele>
        <time>2020-10-18T13:05:13.000Z</time>
      </trkpt>
      <trkpt lat="48.2568" lon="-3.52501">
        <ele>102</ele>
        <time>2020-10-18T13:05:14.000Z</time>
      </trkpt>
      <trkpt lat="48.2568" lon="-3.52501">
        <ele>102</ele>
        <time>2020-10-18T13:05:15.000Z</time>
      </trkpt>
      <trkpt lat="48.2568" lon="-3.52501">
        <ele>102</ele>
        <time>2020-10-18T13:05:16.000Z</time>
      </trkpt>
      <trkpt lat="48.2568" lon="-3.52501">
        <ele>102</ele>
        <time>2020-10-18T13:05:17.000Z</time>
      </trkpt>
      <trkpt lat="48.2568" lon="-3.52501">
        <ele>102</ele>
        <time>2020-10-18T13:05:18.000Z</time>
      </trkpt>
      <trkpt lat="48.2568" lon="-3.52501">
        <ele>102</ele>
        <time>2020-10-18T13:05:19.000Z</time>
      </trkpt>
      <trkpt lat="48.2568" lon="-3.52501">
        <ele>102</ele>
        <time>2020-10-18T13:05:20.000Z</time>
      </trkpt>
      <trkpt lat="48.2568" lon="-3.52501">
        <ele>102</ele>
        <time>2020-10-18T13:05:21.000Z</time>
      </trkpt>
      <trkpt lat="48.2568" lon="-3.52501">
        <ele>102</ele>
        <time>2020-10-18T13:05:22.000Z</time>
      </trkpt>
      <trkpt lat="48.2568" lon="-3.52501">
        <ele>102</ele>
        <time>2020-10-18T13:05:23.000Z</time>
      </trkpt>
      <trkpt lat="48.2568" lon="-3.52501">
        <ele>102</ele>
        <time>2020-10-18T13:05:24.000Z</time>
      </trkpt>
      <trkpt lat="48.2568" lon="-3.52501">
        <ele>102</ele>
        <time>2020-10-18T13:05:25.000Z</time>
      </trkpt>
      <trkpt lat="48.2568" lon="-3.52501">
        <ele>102</ele>
        <time>2020-10-18T13:05:26.000Z</time>
      </trkpt>
      <trkpt lat="48.2568" lon="-3.52501">
        <ele>102</ele>
        <time>2020-10-18T13:05:27.000Z</time>
      </trkpt>
      <trkpt lat="48.2568" lon="-3.52501">
        <ele>102</ele>
        <time>2020-10-18T13:05:28.000Z</time>
      </trkpt>
      <trkpt lat="48.2568" lon="-3.52501">
        <ele>102</ele>
        <time>2020-10-18T13:05:29.000Z</time>
      </trkpt>
      <trkpt lat="48.2568" lon="-3.52501">
        <ele>102</ele>
        <time>2020-10-18T13:05:30.000Z</time>
      </trkpt>
      <trkpt lat="48.2568" lon="-3.52501">
        <ele>102</ele>
        <time>2020-10-18T13:05:31.000Z</time>
      </trkpt>
      <trkpt lat="48.2568" lon="-3.52501">
        <ele>102</ele>
        <time>2020-10-18T13:05:32.000Z</time>
      </trkpt>
      <trkpt lat="48.2568" lon="-3.52501">
        <ele>102</ele>
        <time>2020-10-18T13:05:33.000Z</time>
      </trkpt>
      <trkpt lat="48.2568" lon="-3.52501">
        <ele>102</ele>
        <time>2020-10-18T13:05:34.000Z</time>
      </trkpt>
      <trkpt lat="48.25681" lon="-3.52501">
        <ele>102.19999694824</ele>
        <time>2020-10-18T13:05:35.000Z</time>
      </trkpt>
      <trkpt lat="48.25681" lon="-3.52501">
        <ele>102.19999694824</ele>
        <time>2020-10-18T13:05:36.000Z</time>
      </trkpt>
      <trkpt lat="48.25681" lon="-3.525">
        <ele>102.19999694824</ele>
        <time>2020-10-18T13:05:37.000Z</time>
      </trkpt>
      <trkpt lat="48.25684" lon="-3.52498">
        <ele>102.40000152588</ele>
        <time>2020-10-18T13:05:38.000Z</time>
      </trkpt>
      <trkpt lat="48.25684" lon="-3.52498">
        <ele>102.40000152588</ele>
        <time>2020-10-18T13:05:39.000Z</time>
      </trkpt>
      <trkpt lat="48.25688" lon="-3.52496">
        <ele>102.80000305176</ele>
        <time>2020-10-18T13:05:40.000Z</time>
      </trkpt>
      <trkpt lat="48.25688" lon="-3.52496">
        <ele>102.80000305176</ele>
        <time>2020-10-18T13:05:41.000Z</time>
      </trkpt>
      <trkpt lat="48.25692" lon="-3.52493">
        <ele>103.40000152588</ele>
        <time>2020-10-18T13:05:42.000Z</time>
      </trkpt>
      <trkpt lat="48.25694" lon="-3.52492">
        <ele>103.59999847412</ele>
        <time>2020-10-18T13:05:43.000Z</time>
      </trkpt>
      <trkpt lat="48.25694" lon="-3.52492">
        <ele>103.59999847412</ele>
        <time>2020-10-18T13:05:44.000Z</time>
      </trkpt>
      <trkpt lat="48.25696" lon="-3.52491">
        <ele>103.80000305176</ele>
        <time>2020-10-18T13:05:45.000Z</time>
      </trkpt>
      <trkpt lat="48.25701" lon="-3.52488">
        <ele>104.40000152588</ele>
        <time>2020-10-18T13:05:46.000Z</time>
      </trkpt>
      <trkpt lat="48.25703" lon="-3.52486">
        <ele>104.59999847412</ele>
        <time>2020-10-18T13:05:47.000Z</time>
      </trkpt>
      <trkpt lat="48.25706" lon="-3.52484">
        <ele>105</ele>
        <time>2020-10-18T13:05:48.000Z</time>
      </trkpt>
      <trkpt lat="48.25706" lon="-3.52484">
        <ele>105</ele>
        <time>2020-10-18T13:05:49.000Z</time>
      </trkpt>
      <trkpt lat="48.25712" lon="-3.52478">
        <ele>105.59999847412</ele>
        <time>2020-10-18T13:05:50.000Z</time>
      </trkpt>
      <trkpt lat="48.25712" lon="-3.52478">
        <ele>105.59999847412</ele>
        <time>2020-10-18T13:05:51.000Z</time>
      </trkpt>
      <trkpt lat="48.25717" lon="-3.52471">
        <ele>106</ele>
        <time>2020-10-18T13:05:52.000Z</time>
      </trkpt>
      <trkpt lat="48.25717" lon="-3.52471">
        <ele>106</ele>
        <time>2020-10-18T13:05:53.000Z</time>
      </trkpt>
      <trkpt lat="48.2572" lon="-3.52461">
        <ele>106.40000152588</ele>
        <time>2020-10-18T13:05:54.000Z</time>
      </trkpt>
      <trkpt lat="48.2572" lon="-3.52461">
        <ele>106.40000152588</ele>
        <time>2020-10-18T13:05:55.000Z</time>
      </trkpt>
      <trkpt lat="48.25721" lon="-3.52456">
        <ele>106.40000152588</ele>
        <time>2020-10-18T13:05:56.000Z</time>
      </trkpt>
      <trkpt lat="48.25722" lon="-3.52446">
        <ele>106.59999847412</ele>
        <time>2020-10-18T13:05:57.000Z</time>
      </trkpt>
      <trkpt lat="48.25722" lon="-3.52446">
        <ele>106.59999847412</ele>
        <time>2020-10-18T13:05:58.000Z</time>
      </trkpt>
      <trkpt lat="48.25722" lon="-3.52436">
        <ele>106.59999847412</ele>
        <time>2020-10-18T13:05:59.000Z</time>
      </trkpt>
      <trkpt lat="48.25722" lon="-3.52436">
        <ele>106.59999847412</ele>
        <time>2020-10-18T13:06:00.000Z</time>
      </trkpt>
      <trkpt lat="48.25721" lon="-3.52431">
        <ele>106.59999847412</ele>
        <time>2020-10-18T13:06:01.000Z</time>
      </trkpt>
      <trkpt lat="48.25718" lon="-3.52421">
        <ele>106.59999847412</ele>
        <time>2020-10-18T13:06:02.000Z</time>
      </trkpt>
      <trkpt lat="48.25716" lon="-3.52416">
        <ele>106.40000152588</ele>
        <time>2020-10-18T13:06:03.000Z</time>
      </trkpt>
      <trkpt lat="48.25716" lon="-3.52416">
        <ele>106.40000152588</ele>
        <time>2020-10-18T13:06:04.000Z</time>
      </trkpt>
      <trkpt lat="48.25712" lon="-3.52407">
        <ele>106.19999694824</ele>
        <time>2020-10-18T13:06:05.000Z</time>
      </trkpt>
      <trkpt lat="48.25712" lon="-3.52407">
        <ele>106.19999694824</ele>
        <time>2020-10-18T13:06:06.000Z</time>
      </trkpt>
      <trkpt lat="48.25709" lon="-3.52404">
        <ele>106</ele>
        <time>2020-10-18T13:06:07.000Z</time>
      </trkpt>
      <trkpt lat="48.25703" lon="-3.52396">
        <ele>105.80000305176</ele>
        <time>2020-10-18T13:06:08.000Z</time>
      </trkpt>
      <trkpt lat="48.25703" lon="-3.52396">
        <ele>105.80000305176</ele>
        <time>2020-10-18T13:06:09.000Z</time>
      </trkpt>
      <trkpt lat="48.25699" lon="-3.52393">
        <ele>105.59999847412</ele>
        <time>2020-10-18T13:06:10.000Z</time>
      </trkpt>
      <trkpt lat="48.25693" lon="-3.52388">
        <ele>105.40000152588</ele>
        <time>2020-10-18T13:06:11.000Z</time>
      </trkpt>
      <trkpt lat="48.25693" lon="-3.52388">
        <ele>105.40000152588</ele>
        <time>2020-10-18T13:06:12.000Z</time>
      </trkpt>
      <trkpt lat="48.25689" lon="-3.52385">
        <ele>105.19999694824</ele>
        <time>2020-10-18T13:06:13.000Z</time>
      </trkpt>
      <trkpt lat="48.25682" lon="-3.52378">
        <ele>104.80000305176</ele>
        <time>2020-10-18T13:06:14.000Z</time>
      </trkpt>
      <trkpt lat="48.25682" lon="-3.52378">
        <ele>104.80000305176</ele>
        <time>2020-10-18T13:06:15.000Z</time>
      </trkpt>
      <trkpt lat="48.25678" lon="-3.52375">
        <ele>105</ele>
        <time>2020-10-18T13:06:16.000Z</time>
      </trkpt>
      <trkpt lat="48.25671" lon="-3.52368">
        <ele>105.59999847412</ele>
        <time>2020-10-18T13:06:17.000Z</time>
      </trkpt>
      <trkpt lat="48.25671" lon="-3.52368">
        <ele>105.59999847412</ele>
        <time>2020-10-18T13:06:18.000Z</time>
      </trkpt>
      <trkpt lat="48.25668" lon="-3.52365">
        <ele>106</ele>
        <time>2020-10-18T13:06:19.000Z</time>
      </trkpt>
      <trkpt lat="48.25661" lon="-3.5236">
        <ele>106.40000152588</ele>
        <time>2020-10-18T13:06:20.000Z</time>
      </trkpt>
      <trkpt lat="48.25661" lon="-3.5236">
        <ele>106.40000152588</ele>
        <time>2020-10-18T13:06:21.000Z</time>
      </trkpt>
      <trkpt lat="48.25655" lon="-3.52355">
        <ele>106.59999847412</ele>
        <time>2020-10-18T13:06:22.000Z</time>
      </trkpt>
      <trkpt lat="48.25655" lon="-3.52355">
        <ele>106.59999847412</ele>
        <time>2020-10-18T13:06:23.000Z</time>
      </trkpt>
      <trkpt lat="48.25649" lon="-3.52349">
        <ele>106.80000305176</ele>
        <time>2020-10-18T13:06:24.000Z</time>
      </trkpt>
      <trkpt lat="48.25649" lon="-3.52349">
        <ele>106.80000305176</ele>
        <time>2020-10-18T13:06:25.000Z</time>
      </trkpt>
      <trkpt lat="48.25646" lon="-3.52347">
        <ele>107.19999694824</ele>
        <time>2020-10-18T13:06:26.000Z</time>
      </trkpt>
      <trkpt lat="48.25639" lon="-3.52342">
        <ele>108</ele>
        <time>2020-10-18T13:06:27.000Z</time>
      </trkpt>
      <trkpt lat="48.25639" lon="-3.52342">
        <ele>108</ele>
        <time>2020-10-18T13:06:28.000Z</time>
      </trkpt>
      <trkpt lat="48.25636" lon="-3.52339">
        <ele>108.40000152588</ele>
        <time>2020-10-18T13:06:29.000Z</time>
      </trkpt>
      <trkpt lat="48.25631" lon="-3.52333">
        <ele>109.19999694824</ele>
        <time>2020-10-18T13:06:30.000Z</time>
      </trkpt>
      <trkpt lat="48.25631" lon="-3.52333">
        <ele>109.19999694824</ele>
        <time>2020-10-18T13:06:31.000Z</time>
      </trkpt>
      <trkpt lat="48.25628" lon="-3.5233">
        <ele>109.59999847412</ele>
        <time>2020-10-18T13:06:32.000Z</time>
      </trkpt>
      <trkpt lat="48.25621" lon="-3.52325">
        <ele>110.40000152588</ele>
        <time>2020-10-18T13:06:33.000Z</time>
      </trkpt>
      <trkpt lat="48.25621" lon="-3.52325">
        <ele>110.40000152588</ele>
        <time>2020-10-18T13:06:34.000Z</time>
      </trkpt>
      <trkpt lat="48.25614" lon="-3.52319">
        <ele>109.59999847412</ele>
        <time>2020-10-18T13:06:35.000Z</time>
      </trkpt>
      <trkpt lat="48.25614" lon="-3.52319">
        <ele>109.59999847412</ele>
        <time>2020-10-18T13:06:36.000Z</time>
      </trkpt>
      <trkpt lat="48.25611" lon="-3.52316">
        <ele>109.19999694824</ele>
        <time>2020-10-18T13:06:37.000Z</time>
      </trkpt>
      <trkpt lat="48.25604" lon="-3.52309">
        <ele>108.40000152588</ele>
        <time>2020-10-18T13:06:38.000Z</time>
      </trkpt>
      <trkpt lat="48.25604" lon="-3.52309">
        <ele>108.40000152588</ele>
        <time>2020-10-18T13:06:39.000Z</time>
      </trkpt>
      <trkpt lat="48.25598" lon="-3.52302">
        <ele>107.59999847412</ele>
        <time>2020-10-18T13:06:40.000Z</time>
      </trkpt>
      <trkpt lat="48.25598" lon="-3.52302">
        <ele>107.59999847412</ele>
        <time>2020-10-18T13:06:41.000Z</time>
      </trkpt>
      <trkpt lat="48.25594" lon="-3.52299">
        <ele>107.80000305176</ele>
        <time>2020-10-18T13:06:42.000Z</time>
      </trkpt>
      <trkpt lat="48.25586" lon="-3.52293">
        <ele>109</ele>
        <time>2020-10-18T13:06:43.000Z</time>
      </trkpt>
      <trkpt lat="48.25586" lon="-3.52293">
        <ele>109</ele>
        <time>2020-10-18T13:06:44.000Z</time>
      </trkpt>
      <trkpt lat="48.25582" lon="-3.5229">
        <ele>109.80000305176</ele>
        <time>2020-10-18T13:06:45.000Z</time>
      </trkpt>
      <trkpt lat="48.25575" lon="-3.52284">
        <ele>110.59999847412</ele>
        <time>2020-10-18T13:06:46.000Z</time>
      </trkpt>
      <trkpt lat="48.25575" lon="-3.52284">
        <ele>110.59999847412</ele>
        <time>2020-10-18T13:06:47.000Z</time>
      </trkpt>
      <trkpt lat="48.25569" lon="-3.52278">
        <ele>110.59999847412</ele>
        <time>2020-10-18T13:06:48.000Z</time>
      </trkpt>
      <trkpt lat="48.25569" lon="-3.52278">
        <ele>110.59999847412</ele>
        <time>2020-10-18T13:06:49.000Z</time>
      </trkpt>
      <trkpt lat="48.25565" lon="-3.52275">
        <ele>110.40000152588</ele>
        <time>2020-10-18T13:06:50.000Z</time>
      </trkpt>
      <trkpt lat="48.25559" lon="-3.52268">
        <ele>110.19999694824</ele>
        <time>2020-10-18T13:06:51.000Z</time>
      </trkpt>
      <trkpt lat="48.25559" lon="-3.52268">
        <ele>110.19999694824</ele>
        <time>2020-10-18T13:06:52.000Z</time>
      </trkpt>
      <trkpt lat="48.25556" lon="-3.52265">
        <ele>110.40000152588</ele>
        <time>2020-10-18T13:06:53.000Z</time>
      </trkpt>
      <trkpt lat="48.25548" lon="-3.52255">
        <ele>111.59999847412</ele>
        <time>2020-10-18T13:06:54.000Z</time>
      </trkpt>
      <trkpt lat="48.25548" lon="-3.52255">
        <ele>111.59999847412</ele>
        <time>2020-10-18T13:06:55.000Z</time>
      </trkpt>
      <trkpt lat="48.25545" lon="-3.52251">
        <ele>112</ele>
        <time>2020-10-18T13:06:56.000Z</time>
      </trkpt>
      <trkpt lat="48.2554" lon="-3.52241">
        <ele>113</ele>
        <time>2020-10-18T13:06:57.000Z</time>
      </trkpt>
      <trkpt lat="48.2554" lon="-3.52241">
        <ele>113</ele>
        <time>2020-10-18T13:06:58.000Z</time>
      </trkpt>
      <trkpt lat="48.25539" lon="-3.52236">
        <ele>112.59999847412</ele>
        <time>2020-10-18T13:06:59.000Z</time>
      </trkpt>
      <trkpt lat="48.25537" lon="-3.52228">
        <ele>112</ele>
        <time>2020-10-18T13:07:00.000Z</time>
      </trkpt>
      <trkpt lat="48.25536" lon="-3.52225">
        <ele>111.59999847412</ele>
        <time>2020-10-18T13:07:01.000Z</time>
      </trkpt>
      <trkpt lat="48.25536" lon="-3.52221">
        <ele>111.19999694824</ele>
        <time>2020-10-18T13:07:02.000Z</time>
      </trkpt>
      <trkpt lat="48.25536" lon="-3.52221">
        <ele>111.19999694824</ele>
        <time>2020-10-18T13:07:03.000Z</time>
      </trkpt>
      <trkpt lat="48.25535" lon="-3.52214">
        <ele>110.59999847412</ele>
        <time>2020-10-18T13:07:04.000Z</time>
      </trkpt>
      <trkpt lat="48.25535" lon="-3.52214">
        <ele>110.59999847412</ele>
        <time>2020-10-18T13:07:05.000Z</time>
      </trkpt>
      <trkpt lat="48.25534" lon="-3.5221">
        <ele>110.19999694824</ele>
        <time>2020-10-18T13:07:06.000Z</time>
      </trkpt>
      <trkpt lat="48.25532" lon="-3.52204">
        <ele>109.59999847412</ele>
        <time>2020-10-18T13:07:07.000Z</time>
      </trkpt>
      <trkpt lat="48.25532" lon="-3.52204">
        <ele>109.59999847412</ele>
        <time>2020-10-18T13:07:08.000Z</time>
      </trkpt>
      <trkpt lat="48.25531" lon="-3.522">
        <ele>109.19999694824</ele>
        <time>2020-10-18T13:07:09.000Z</time>
      </trkpt>
      <trkpt lat="48.25529" lon="-3.52191">
        <ele>108.40000152588</ele>
        <time>2020-10-18T13:07:10.000Z</time>
      </trkpt>
      <trkpt lat="48.25529" lon="-3.52191">
        <ele>108.40000152588</ele>
        <time>2020-10-18T13:07:11.000Z</time>
      </trkpt>
      <trkpt lat="48.25529" lon="-3.52185">
        <ele>108</ele>
        <time>2020-10-18T13:07:12.000Z</time>
      </trkpt>
      <trkpt lat="48.25528" lon="-3.52172">
        <ele>108.19999694824</ele>
        <time>2020-10-18T13:07:13.000Z</time>
      </trkpt>
      <trkpt lat="48.25528" lon="-3.52172">
        <ele>108.19999694824</ele>
        <time>2020-10-18T13:07:14.000Z</time>
      </trkpt>
      <trkpt lat="48.25528" lon="-3.52164">
        <ele>108.40000152588</ele>
        <time>2020-10-18T13:07:15.000Z</time>
      </trkpt>
      <trkpt lat="48.2553" lon="-3.52149">
        <ele>108.40000152588</ele>
        <time>2020-10-18T13:07:16.000Z</time>
      </trkpt>
      <trkpt lat="48.2553" lon="-3.52149">
        <ele>108.40000152588</ele>
        <time>2020-10-18T13:07:17.000Z</time>
      </trkpt>
      <trkpt lat="48.25532" lon="-3.52142">
        <ele>108.59999847412</ele>
        <time>2020-10-18T13:07:18.000Z</time>
      </trkpt>
      <trkpt lat="48.25535" lon="-3.52128">
        <ele>108.80000305176</ele>
        <time>2020-10-18T13:07:19.000Z</time>
      </trkpt>
      <trkpt lat="48.25535" lon="-3.52128">
        <ele>108.80000305176</ele>
        <time>2020-10-18T13:07:20.000Z</time>
      </trkpt>
      <trkpt lat="48.25536" lon="-3.52121">
        <ele>108.80000305176</ele>
        <time>2020-10-18T13:07:21.000Z</time>
      </trkpt>
      <trkpt lat="48.25539" lon="-3.52109">
        <ele>109</ele>
        <time>2020-10-18T13:07:22.000Z</time>
      </trkpt>
      <trkpt lat="48.25539" lon="-3.52109">
        <ele>109</ele>
        <time>2020-10-18T13:07:23.000Z</time>
      </trkpt>
      <trkpt lat="48.2554" lon="-3.52102">
        <ele>109</ele>
        <time>2020-10-18T13:07:24.000Z</time>
      </trkpt>
      <trkpt lat="48.25545" lon="-3.5209">
        <ele>109.19999694824</ele>
        <time>2020-10-18T13:07:25.000Z</time>
      </trkpt>
      <trkpt lat="48.25545" lon="-3.5209">
        <ele>109.19999694824</ele>
        <time>2020-10-18T13:07:26.000Z</time>
      </trkpt>
      <trkpt lat="48.25547" lon="-3.52084">
        <ele>109.40000152588</ele>
        <time>2020-10-18T13:07:27.000Z</time>
      </trkpt>
      <trkpt lat="48.2555" lon="-3.52072">
        <ele>109.40000152588</ele>
        <time>2020-10-18T13:07:28.000Z</time>
      </trkpt>
      <trkpt lat="48.2555" lon="-3.52072">
        <ele>109.40000152588</ele>
        <time>2020-10-18T13:07:29.000Z</time>
      </trkpt>
      <trkpt lat="48.25552" lon="-3.52067">
        <ele>109.40000152588</ele>
        <time>2020-10-18T13:07:30.000Z</time>
      </trkpt>
      <trkpt lat="48.25555" lon="-3.52055">
        <ele>109.59999847412</ele>
        <time>2020-10-18T13:07:31.000Z</time>
      </trkpt>
      <trkpt lat="48.25555" lon="-3.52055">
        <ele>109.59999847412</ele>
        <time>2020-10-18T13:07:32.000Z</time>
      </trkpt>
      <trkpt lat="48.25557" lon="-3.5205">
        <ele>109.80000305176</ele>
        <time>2020-10-18T13:07:33.000Z</time>
      </trkpt>
      <trkpt lat="48.2556" lon="-3.5204">
        <ele>110.19999694824</ele>
        <time>2020-10-18T13:07:34.000Z</time>
      </trkpt>
      <trkpt lat="48.2556" lon="-3.5204">
        <ele>110.19999694824</ele>
        <time>2020-10-18T13:07:35.000Z</time>
      </trkpt>
      <trkpt lat="48.25561" lon="-3.52035">
        <ele>110.40000152588</ele>
        <time>2020-10-18T13:07:36.000Z</time>
      </trkpt>
      <trkpt lat="48.25564" lon="-3.52025">
        <ele>110.80000305176</ele>
        <time>2020-10-18T13:07:37.000Z</time>
      </trkpt>
      <trkpt lat="48.25564" lon="-3.52025">
        <ele>110.80000305176</ele>
        <time>2020-10-18T13:07:38.000Z</time>
      </trkpt>
      <trkpt lat="48.25565" lon="-3.5202">
        <ele>111</ele>
        <time>2020-10-18T13:07:39.000Z</time>
      </trkpt>
      <trkpt lat="48.25568" lon="-3.52009">
        <ele>110.80000305176</ele>
        <time>2020-10-18T13:07:40.000Z</time>
      </trkpt>
      <trkpt lat="48.25569" lon="-3.52003">
        <ele>110.59999847412</ele>
        <time>2020-10-18T13:07:41.000Z</time>
      </trkpt>
      <trkpt lat="48.25569" lon="-3.52003">
        <ele>110.59999847412</ele>
        <time>2020-10-18T13:07:42.000Z</time>
      </trkpt>
      <trkpt lat="48.25571" lon="-3.51998">
        <ele>110.40000152588</ele>
        <time>2020-10-18T13:07:43.000Z</time>
      </trkpt>
      <trkpt lat="48.25574" lon="-3.51986">
        <ele>109.80000305176</ele>
        <time>2020-10-18T13:07:44.000Z</time>
      </trkpt>
      <trkpt lat="48.25574" lon="-3.51986">
        <ele>109.80000305176</ele>
        <time>2020-10-18T13:07:45.000Z</time>
      </trkpt>
      <trkpt lat="48.25576" lon="-3.5198">
        <ele>109.59999847412</ele>
        <time>2020-10-18T13:07:46.000Z</time>
      </trkpt>
      <trkpt lat="48.25578" lon="-3.5197">
        <ele>109.19999694824</ele>
        <time>2020-10-18T13:07:47.000Z</time>
      </trkpt>
      <trkpt lat="48.25578" lon="-3.5197">
        <ele>109.19999694824</ele>
        <time>2020-10-18T13:07:48.000Z</time>
      </trkpt>
      <trkpt lat="48.25582" lon="-3.5196">
        <ele>108.80000305176</ele>
        <time>2020-10-18T13:07:49.000Z</time>
      </trkpt>
      <trkpt lat="48.25582" lon="-3.5196">
        <ele>108.80000305176</ele>
        <time>2020-10-18T13:07:50.000Z</time>
      </trkpt>
      <trkpt lat="48.25584" lon="-3.51955">
        <ele>108.59999847412</ele>
        <time>2020-10-18T13:07:51.000Z</time>
      </trkpt>
      <trkpt lat="48.25589" lon="-3.51945">
        <ele>108.19999694824</ele>
        <time>2020-10-18T13:07:52.000Z</time>
      </trkpt>
      <trkpt lat="48.25589" lon="-3.51945">
        <ele>108.19999694824</ele>
        <time>2020-10-18T13:07:53.000Z</time>
      </trkpt>
      <trkpt lat="48.25591" lon="-3.51939">
        <ele>108</ele>
        <time>2020-10-18T13:07:54.000Z</time>
      </trkpt>
      <trkpt lat="48.25595" lon="-3.51929">
        <ele>108</ele>
        <time>2020-10-18T13:07:55.000Z</time>
      </trkpt>
      <trkpt lat="48.25595" lon="-3.51929">
        <ele>108</ele>
        <time>2020-10-18T13:07:56.000Z</time>
      </trkpt>
      <trkpt lat="48.25596" lon="-3.51924">
        <ele>108.19999694824</ele>
        <time>2020-10-18T13:07:57.000Z</time>
      </trkpt>
      <trkpt lat="48.25599" lon="-3.51911">
        <ele>108.40000152588</ele>
        <time>2020-10-18T13:07:58.000Z</time>
      </trkpt>
      <trkpt lat="48.25599" lon="-3.51911">
        <ele>108.40000152588</ele>
        <time>2020-10-18T13:07:59.000Z</time>
      </trkpt>
      <trkpt lat="48.25601" lon="-3.51905">
        <ele>108.59999847412</ele>
        <time>2020-10-18T13:08:00.000Z</time>
      </trkpt>
      <trkpt lat="48.25605" lon="-3.51892">
        <ele>108.80000305176</ele>
        <time>2020-10-18T13:08:01.000Z</time>
      </trkpt>
      <trkpt lat="48.25605" lon="-3.51892">
        <ele>108.80000305176</ele>
        <time>2020-10-18T13:08:02.000Z</time>
      </trkpt>
      <trkpt lat="48.25607" lon="-3.51886">
        <ele>109</ele>
        <time>2020-10-18T13:08:03.000Z</time>
      </trkpt>
      <trkpt lat="48.2561" lon="-3.51874">
        <ele>109.19999694824</ele>
        <time>2020-10-18T13:08:04.000Z</time>
      </trkpt>
      <trkpt lat="48.2561" lon="-3.51874">
        <ele>109.19999694824</ele>
        <time>2020-10-18T13:08:05.000Z</time>
      </trkpt>
      <trkpt lat="48.25611" lon="-3.51869">
        <ele>109.40000152588</ele>
        <time>2020-10-18T13:08:06.000Z</time>
      </trkpt>
      <trkpt lat="48.25612" lon="-3.51858">
        <ele>109.40000152588</ele>
        <time>2020-10-18T13:08:07.000Z</time>
      </trkpt>
      <trkpt lat="48.25612" lon="-3.51858">
        <ele>109.40000152588</ele>
        <time>2020-10-18T13:08:08.000Z</time>
      </trkpt>
      <trkpt lat="48.25613" lon="-3.51852">
        <ele>109.59999847412</ele>
        <time>2020-10-18T13:08:09.000Z</time>
      </trkpt>
      <trkpt lat="48.25614" lon="-3.51842">
        <ele>109</ele>
        <time>2020-10-18T13:08:10.000Z</time>
      </trkpt>
      <trkpt lat="48.25614" lon="-3.51842">
        <ele>109</ele>
        <time>2020-10-18T13:08:11.000Z</time>
      </trkpt>
      <trkpt lat="48.25615" lon="-3.51836">
        <ele>108.59999847412</ele>
        <time>2020-10-18T13:08:12.000Z</time>
      </trkpt>
      <trkpt lat="48.25618" lon="-3.51825">
        <ele>108.19999694824</ele>
        <time>2020-10-18T13:08:13.000Z</time>
      </trkpt>
      <trkpt lat="48.25618" lon="-3.51825">
        <ele>108.19999694824</ele>
        <time>2020-10-18T13:08:14.000Z</time>
      </trkpt>
      <trkpt lat="48.2562" lon="-3.51819">
        <ele>108.19999694824</ele>
        <time>2020-10-18T13:08:15.000Z</time>
      </trkpt>
      <trkpt lat="48.25621" lon="-3.51813">
        <ele>108</ele>
        <time>2020-10-18T13:08:16.000Z</time>
      </trkpt>
      <trkpt lat="48.25623" lon="-3.51801">
        <ele>108</ele>
        <time>2020-10-18T13:08:17.000Z</time>
      </trkpt>
      <trkpt lat="48.25623" lon="-3.51801">
        <ele>108</ele>
        <time>2020-10-18T13:08:18.000Z</time>
      </trkpt>
      <trkpt lat="48.25627" lon="-3.51789">
        <ele>107.80000305176</ele>
        <time>2020-10-18T13:08:19.000Z</time>
      </trkpt>
      <trkpt lat="48.25629" lon="-3.51783">
        <ele>107.80000305176</ele>
        <time>2020-10-18T13:08:20.000Z</time>
      </trkpt>
      <trkpt lat="48.25629" lon="-3.51783">
        <ele>107.80000305176</ele>
        <time>2020-10-18T13:08:21.000Z</time>
      </trkpt>
      <trkpt lat="48.25631" lon="-3.51777">
        <ele>107.80000305176</ele>
        <time>2020-10-18T13:08:22.000Z</time>
      </trkpt>
      <trkpt lat="48.25634" lon="-3.51764">
        <ele>107.59999847412</ele>
        <time>2020-10-18T13:08:23.000Z</time>
      </trkpt>
      <trkpt lat="48.25634" lon="-3.51764">
        <ele>107.59999847412</ele>
        <time>2020-10-18T13:08:24.000Z</time>
      </trkpt>
      <trkpt lat="48.25636" lon="-3.51757">
        <ele>107.19999694824</ele>
        <time>2020-10-18T13:08:25.000Z</time>
      </trkpt>
      <trkpt lat="48.25639" lon="-3.51744">
        <ele>106.59999847412</ele>
        <time>2020-10-18T13:08:26.000Z</time>
      </trkpt>
      <trkpt lat="48.25639" lon="-3.51744">
        <ele>106.59999847412</ele>
        <time>2020-10-18T13:08:27.000Z</time>
      </trkpt>
      <trkpt lat="48.25641" lon="-3.51737">
        <ele>106.40000152588</ele>
        <time>2020-10-18T13:08:28.000Z</time>
      </trkpt>
      <trkpt lat="48.25644" lon="-3.51725">
        <ele>105.80000305176</ele>
        <time>2020-10-18T13:08:29.000Z</time>
      </trkpt>
      <trkpt lat="48.25644" lon="-3.51725">
        <ele>105.80000305176</ele>
        <time>2020-10-18T13:08:30.000Z</time>
      </trkpt>
      <trkpt lat="48.25645" lon="-3.51718">
        <ele>105.40000152588</ele>
        <time>2020-10-18T13:08:31.000Z</time>
      </trkpt>
      <trkpt lat="48.25648" lon="-3.51705">
        <ele>105.19999694824</ele>
        <time>2020-10-18T13:08:32.000Z</time>
      </trkpt>
      <trkpt lat="48.25648" lon="-3.51705">
        <ele>105.19999694824</ele>
        <time>2020-10-18T13:08:33.000Z</time>
      </trkpt>
      <trkpt lat="48.2565" lon="-3.51699">
        <ele>105</ele>
        <time>2020-10-18T13:08:34.000Z</time>
      </trkpt>
      <trkpt lat="48.25653" lon="-3.51687">
        <ele>104.59999847412</ele>
        <time>2020-10-18T13:08:35.000Z</time>
      </trkpt>
      <trkpt lat="48.25653" lon="-3.51687">
        <ele>104.59999847412</ele>
        <time>2020-10-18T13:08:36.000Z</time>
      </trkpt>
      <trkpt lat="48.25654" lon="-3.51681">
        <ele>104.40000152588</ele>
        <time>2020-10-18T13:08:37.000Z</time>
      </trkpt>
      <trkpt lat="48.25658" lon="-3.51669">
        <ele>104.19999694824</ele>
        <time>2020-10-18T13:08:38.000Z</time>
      </trkpt>
      <trkpt lat="48.25658" lon="-3.51669">
        <ele>104.19999694824</ele>
        <time>2020-10-18T13:08:39.000Z</time>
      </trkpt>
      <trkpt lat="48.25659" lon="-3.51662">
        <ele>104</ele>
        <time>2020-10-18T13:08:40.000Z</time>
      </trkpt>
      <trkpt lat="48.25663" lon="-3.51649">
        <ele>103.59999847412</ele>
        <time>2020-10-18T13:08:41.000Z</time>
      </trkpt>
      <trkpt lat="48.25663" lon="-3.51649">
        <ele>103.59999847412</ele>
        <time>2020-10-18T13:08:42.000Z</time>
      </trkpt>
      <trkpt lat="48.25665" lon="-3.51642">
        <ele>103.40000152588</ele>
        <time>2020-10-18T13:08:43.000Z</time>
      </trkpt>
      <trkpt lat="48.25668" lon="-3.51631">
        <ele>103</ele>
        <time>2020-10-18T13:08:44.000Z</time>
      </trkpt>
      <trkpt lat="48.25668" lon="-3.51631">
        <ele>103</ele>
        <time>2020-10-18T13:08:45.000Z</time>
      </trkpt>
      <trkpt lat="48.2567" lon="-3.51624">
        <ele>102.80000305176</ele>
        <time>2020-10-18T13:08:46.000Z</time>
      </trkpt>
      <trkpt lat="48.25671" lon="-3.51618">
        <ele>102.80000305176</ele>
        <time>2020-10-18T13:08:47.000Z</time>
      </trkpt>
      <trkpt lat="48.25673" lon="-3.51612">
        <ele>102.59999847412</ele>
        <time>2020-10-18T13:08:48.000Z</time>
      </trkpt>
      <trkpt lat="48.25676" lon="-3.51601">
        <ele>102.59999847412</ele>
        <time>2020-10-18T13:08:49.000Z</time>
      </trkpt>
      <trkpt lat="48.25676" lon="-3.51601">
        <ele>102.59999847412</ele>
        <time>2020-10-18T13:08:50.000Z</time>
      </trkpt>
      <trkpt lat="48.25677" lon="-3.51597">
        <ele>102.40000152588</ele>
        <time>2020-10-18T13:08:51.000Z</time>
      </trkpt>
      <trkpt lat="48.2568" lon="-3.51587">
        <ele>102.19999694824</ele>
        <time>2020-10-18T13:08:52.000Z</time>
      </trkpt>
      <trkpt lat="48.2568" lon="-3.51587">
        <ele>102.19999694824</ele>
        <time>2020-10-18T13:08:53.000Z</time>
      </trkpt>
      <trkpt lat="48.25683" lon="-3.51577">
        <ele>102.40000152588</ele>
        <time>2020-10-18T13:08:54.000Z</time>
      </trkpt>
      <trkpt lat="48.25683" lon="-3.51577">
        <ele>102.40000152588</ele>
        <time>2020-10-18T13:08:55.000Z</time>
      </trkpt>
      <trkpt lat="48.25684" lon="-3.51572">
        <ele>102.59999847412</ele>
        <time>2020-10-18T13:08:56.000Z</time>
      </trkpt>
      <trkpt lat="48.25685" lon="-3.51562">
        <ele>102.80000305176</ele>
        <time>2020-10-18T13:08:57.000Z</time>
      </trkpt>
      <trkpt lat="48.25685" lon="-3.51562">
        <ele>102.80000305176</ele>
        <time>2020-10-18T13:08:58.000Z</time>
      </trkpt>
      <trkpt lat="48.25686" lon="-3.51557">
        <ele>102.80000305176</ele>
        <time>2020-10-18T13:08:59.000Z</time>
      </trkpt>
      <trkpt lat="48.25688" lon="-3.51547">
        <ele>103</ele>
        <time>2020-10-18T13:09:00.000Z</time>
      </trkpt>
      <trkpt lat="48.25688" lon="-3.51547">
        <ele>103</ele>
        <time>2020-10-18T13:09:01.000Z</time>
      </trkpt>
      <trkpt lat="48.25689" lon="-3.51542">
        <ele>103.19999694824</ele>
        <time>2020-10-18T13:09:02.000Z</time>
      </trkpt>
      <trkpt lat="48.25692" lon="-3.51532">
        <ele>103.40000152588</ele>
        <time>2020-10-18T13:09:03.000Z</time>
      </trkpt>
      <trkpt lat="48.25692" lon="-3.51532">
        <ele>103.40000152588</ele>
        <time>2020-10-18T13:09:04.000Z</time>
      </trkpt>
      <trkpt lat="48.25693" lon="-3.51528">
        <ele>103.59999847412</ele>
        <time>2020-10-18T13:09:05.000Z</time>
      </trkpt>
      <trkpt lat="48.25695" lon="-3.51517">
        <ele>103.80000305176</ele>
        <time>2020-10-18T13:09:06.000Z</time>
      </trkpt>
      <trkpt lat="48.25695" lon="-3.51517">
        <ele>103.80000305176</ele>
        <time>2020-10-18T13:09:07.000Z</time>
      </trkpt>
      <trkpt lat="48.25696" lon="-3.51511">
        <ele>103.80000305176</ele>
        <time>2020-10-18T13:09:08.000Z</time>
      </trkpt>
      <trkpt lat="48.25698" lon="-3.51501">
        <ele>104.19999694824</ele>
        <time>2020-10-18T13:09:09.000Z</time>
      </trkpt>
      <trkpt lat="48.25698" lon="-3.51501">
        <ele>104.19999694824</ele>
        <time>2020-10-18T13:09:10.000Z</time>
      </trkpt>
      <trkpt lat="48.257" lon="-3.51496">
        <ele>104.19999694824</ele>
        <time>2020-10-18T13:09:11.000Z</time>
      </trkpt>
      <trkpt lat="48.25702" lon="-3.51487">
        <ele>104.59999847412</ele>
        <time>2020-10-18T13:09:12.000Z</time>
      </trkpt>
      <trkpt lat="48.25702" lon="-3.51487">
        <ele>104.59999847412</ele>
        <time>2020-10-18T13:09:13.000Z</time>
      </trkpt>
      <trkpt lat="48.25704" lon="-3.51482">
        <ele>104.59999847412</ele>
        <time>2020-10-18T13:09:14.000Z</time>
      </trkpt>
      <trkpt lat="48.25706" lon="-3.51472">
        <ele>105</ele>
        <time>2020-10-18T13:09:15.000Z</time>
      </trkpt>
      <trkpt lat="48.25706" lon="-3.51472">
        <ele>105</ele>
        <time>2020-10-18T13:09:16.000Z</time>
      </trkpt>
      <trkpt lat="48.25708" lon="-3.51467">
        <ele>105.19999694824</ele>
        <time>2020-10-18T13:09:17.000Z</time>
      </trkpt>
      <trkpt lat="48.2571" lon="-3.51457">
        <ele>105.59999847412</ele>
        <time>2020-10-18T13:09:18.000Z</time>
      </trkpt>
      <trkpt lat="48.25711" lon="-3.51452">
        <ele>105.59999847412</ele>
        <time>2020-10-18T13:09:19.000Z</time>
      </trkpt>
      <trkpt lat="48.25711" lon="-3.51452">
        <ele>105.59999847412</ele>
        <time>2020-10-18T13:09:20.000Z</time>
      </trkpt>
      <trkpt lat="48.25711" lon="-3.51447">
        <ele>105.80000305176</ele>
        <time>2020-10-18T13:09:21.000Z</time>
      </trkpt>
      <trkpt lat="48.25713" lon="-3.51435">
        <ele>106.19999694824</ele>
        <time>2020-10-18T13:09:22.000Z</time>
      </trkpt>
      <trkpt lat="48.25713" lon="-3.51435">
        <ele>106.19999694824</ele>
        <time>2020-10-18T13:09:23.000Z</time>
      </trkpt>
      <trkpt lat="48.25713" lon="-3.51429">
        <ele>106.19999694824</ele>
        <time>2020-10-18T13:09:24.000Z</time>
      </trkpt>
      <trkpt lat="48.25714" lon="-3.51417">
        <ele>106.40000152588</ele>
        <time>2020-10-18T13:09:25.000Z</time>
      </trkpt>
      <trkpt lat="48.25714" lon="-3.51417">
        <ele>106.40000152588</ele>
        <time>2020-10-18T13:09:26.000Z</time>
      </trkpt>
      <trkpt lat="48.25714" lon="-3.51412">
        <ele>106.59999847412</ele>
        <time>2020-10-18T13:09:27.000Z</time>
      </trkpt>
      <trkpt lat="48.25714" lon="-3.514">
        <ele>106.59999847412</ele>
        <time>2020-10-18T13:09:28.000Z</time>
      </trkpt>
      <trkpt lat="48.25714" lon="-3.514">
        <ele>106.59999847412</ele>
        <time>2020-10-18T13:09:29.000Z</time>
      </trkpt>
      <trkpt lat="48.25714" lon="-3.51395">
        <ele>106.80000305176</ele>
        <time>2020-10-18T13:09:30.000Z</time>
      </trkpt>
      <trkpt lat="48.25713" lon="-3.51386">
        <ele>107</ele>
        <time>2020-10-18T13:09:31.000Z</time>
      </trkpt>
      <trkpt lat="48.25713" lon="-3.51386">
        <ele>107</ele>
        <time>2020-10-18T13:09:32.000Z</time>
      </trkpt>
      <trkpt lat="48.25712" lon="-3.51381">
        <ele>107</ele>
        <time>2020-10-18T13:09:33.000Z</time>
      </trkpt>
      <trkpt lat="48.2571" lon="-3.51371">
        <ele>107.19999694824</ele>
        <time>2020-10-18T13:09:34.000Z</time>
      </trkpt>
      <trkpt lat="48.2571" lon="-3.51371">
        <ele>107.19999694824</ele>
        <time>2020-10-18T13:09:35.000Z</time>
      </trkpt>
      <trkpt lat="48.25709" lon="-3.51366">
        <ele>107.40000152588</ele>
        <time>2020-10-18T13:09:36.000Z</time>
      </trkpt>
      <trkpt lat="48.25707" lon="-3.51357">
        <ele>107.40000152588</ele>
        <time>2020-10-18T13:09:37.000Z</time>
      </trkpt>
      <trkpt lat="48.25707" lon="-3.51357">
        <ele>107.40000152588</ele>
        <time>2020-10-18T13:09:38.000Z</time>
      </trkpt>
      <trkpt lat="48.25705" lon="-3.51352">
        <ele>107.59999847412</ele>
        <time>2020-10-18T13:09:39.000Z</time>
      </trkpt>
      <trkpt lat="48.25701" lon="-3.5134">
        <ele>107.59999847412</ele>
        <time>2020-10-18T13:09:40.000Z</time>
      </trkpt>
      <trkpt lat="48.25701" lon="-3.5134">
        <ele>107.59999847412</ele>
        <time>2020-10-18T13:09:41.000Z</time>
      </trkpt>
      <trkpt lat="48.25699" lon="-3.51335">
        <ele>107.59999847412</ele>
        <time>2020-10-18T13:09:42.000Z</time>
      </trkpt>
      <trkpt lat="48.25694" lon="-3.51323">
        <ele>107.59999847412</ele>
        <time>2020-10-18T13:09:43.000Z</time>
      </trkpt>
      <trkpt lat="48.25694" lon="-3.51323">
        <ele>107.59999847412</ele>
        <time>2020-10-18T13:09:44.000Z</time>
      </trkpt>
      <trkpt lat="48.25693" lon="-3.51317">
        <ele>107.40000152588</ele>
        <time>2020-10-18T13:09:45.000Z</time>
      </trkpt>
      <trkpt lat="48.25689" lon="-3.51305">
        <ele>107.40000152588</ele>
        <time>2020-10-18T13:09:46.000Z</time>
      </trkpt>
      <trkpt lat="48.25687" lon="-3.51299">
        <ele>107.19999694824</ele>
        <time>2020-10-18T13:09:47.000Z</time>
      </trkpt>
      <trkpt lat="48.25686" lon="-3.51292">
        <ele>107.19999694824</ele>
        <time>2020-10-18T13:09:48.000Z</time>
      </trkpt>
      <trkpt lat="48.25686" lon="-3.51292">
        <ele>107.19999694824</ele>
        <time>2020-10-18T13:09:49.000Z</time>
      </trkpt>
      <trkpt lat="48.25684" lon="-3.51286">
        <ele>107.19999694824</ele>
        <time>2020-10-18T13:09:50.000Z</time>
      </trkpt>
      <trkpt lat="48.25681" lon="-3.51276">
        <ele>107</ele>
        <time>2020-10-18T13:09:51.000Z</time>
      </trkpt>
      <trkpt lat="48.25681" lon="-3.51276">
        <ele>107</ele>
        <time>2020-10-18T13:09:52.000Z</time>
      </trkpt>
      <trkpt lat="48.25679" lon="-3.5127">
        <ele>107</ele>
        <time>2020-10-18T13:09:53.000Z</time>
      </trkpt>
      <trkpt lat="48.25677" lon="-3.51257">
        <ele>107</ele>
        <time>2020-10-18T13:09:54.000Z</time>
      </trkpt>
      <trkpt lat="48.25677" lon="-3.51257">
        <ele>107</ele>
        <time>2020-10-18T13:09:55.000Z</time>
      </trkpt>
      <trkpt lat="48.25676" lon="-3.5125">
        <ele>107</ele>
        <time>2020-10-18T13:09:56.000Z</time>
      </trkpt>
      <trkpt lat="48.25673" lon="-3.51238">
        <ele>107</ele>
        <time>2020-10-18T13:09:57.000Z</time>
      </trkpt>
      <trkpt lat="48.25673" lon="-3.51238">
        <ele>107</ele>
        <time>2020-10-18T13:09:58.000Z</time>
      </trkpt>
      <trkpt lat="48.25672" lon="-3.51233">
        <ele>107</ele>
        <time>2020-10-18T13:09:59.000Z</time>
      </trkpt>
      <trkpt lat="48.2567" lon="-3.51222">
        <ele>107</ele>
        <time>2020-10-18T13:10:00.000Z</time>
      </trkpt>
      <trkpt lat="48.2567" lon="-3.51222">
        <ele>107</ele>
        <time>2020-10-18T13:10:01.000Z</time>
      </trkpt>
      <trkpt lat="48.25667" lon="-3.5121">
        <ele>107</ele>
        <time>2020-10-18T13:10:02.000Z</time>
      </trkpt>
      <trkpt lat="48.25667" lon="-3.5121">
        <ele>107</ele>
        <time>2020-10-18T13:10:03.000Z</time>
      </trkpt>
      <trkpt lat="48.25664" lon="-3.51198">
        <ele>107</ele>
        <time>2020-10-18T13:10:04.000Z</time>
      </trkpt>
      <trkpt lat="48.25664" lon="-3.51198">
        <ele>107</ele>
        <time>2020-10-18T13:10:05.000Z</time>
      </trkpt>
      <trkpt lat="48.25662" lon="-3.51191">
        <ele>106.80000305176</ele>
        <time>2020-10-18T13:10:06.000Z</time>
      </trkpt>
      <trkpt lat="48.25659" lon="-3.51179">
        <ele>106.59999847412</ele>
        <time>2020-10-18T13:10:07.000Z</time>
      </trkpt>
      <trkpt lat="48.25659" lon="-3.51179">
        <ele>106.59999847412</ele>
        <time>2020-10-18T13:10:08.000Z</time>
      </trkpt>
      <trkpt lat="48.25657" lon="-3.51172">
        <ele>106.40000152588</ele>
        <time>2020-10-18T13:10:09.000Z</time>
      </trkpt>
      <trkpt lat="48.25654" lon="-3.5116">
        <ele>106.40000152588</ele>
        <time>2020-10-18T13:10:10.000Z</time>
      </trkpt>
      <trkpt lat="48.25654" lon="-3.5116">
        <ele>106.40000152588</ele>
        <time>2020-10-18T13:10:11.000Z</time>
      </trkpt>
      <trkpt lat="48.25652" lon="-3.51154">
        <ele>106.40000152588</ele>
        <time>2020-10-18T13:10:12.000Z</time>
      </trkpt>
      <trkpt lat="48.25649" lon="-3.51141">
        <ele>106.19999694824</ele>
        <time>2020-10-18T13:10:13.000Z</time>
      </trkpt>
      <trkpt lat="48.25649" lon="-3.51141">
        <ele>106.19999694824</ele>
        <time>2020-10-18T13:10:14.000Z</time>
      </trkpt>
      <trkpt lat="48.25647" lon="-3.51135">
        <ele>106.19999694824</ele>
        <time>2020-10-18T13:10:15.000Z</time>
      </trkpt>
      <trkpt lat="48.25644" lon="-3.51122">
        <ele>106.40000152588</ele>
        <time>2020-10-18T13:10:16.000Z</time>
      </trkpt>
      <trkpt lat="48.25644" lon="-3.51122">
        <ele>106.40000152588</ele>
        <time>2020-10-18T13:10:17.000Z</time>
      </trkpt>
      <trkpt lat="48.25643" lon="-3.51116">
        <ele>106.40000152588</ele>
        <time>2020-10-18T13:10:18.000Z</time>
      </trkpt>
      <trkpt lat="48.2564" lon="-3.51103">
        <ele>106.40000152588</ele>
        <time>2020-10-18T13:10:19.000Z</time>
      </trkpt>
      <trkpt lat="48.2564" lon="-3.51103">
        <ele>106.40000152588</ele>
        <time>2020-10-18T13:10:20.000Z</time>
      </trkpt>
      <trkpt lat="48.25638" lon="-3.51096">
        <ele>106.59999847412</ele>
        <time>2020-10-18T13:10:21.000Z</time>
      </trkpt>
      <trkpt lat="48.25636" lon="-3.51083">
        <ele>106.59999847412</ele>
        <time>2020-10-18T13:10:22.000Z</time>
      </trkpt>
      <trkpt lat="48.25636" lon="-3.51083">
        <ele>106.59999847412</ele>
        <time>2020-10-18T13:10:23.000Z</time>
      </trkpt>
      <trkpt lat="48.25635" lon="-3.51077">
        <ele>106.80000305176</ele>
        <time>2020-10-18T13:10:24.000Z</time>
      </trkpt>
      <trkpt lat="48.25632" lon="-3.51065">
        <ele>106.80000305176</ele>
        <time>2020-10-18T13:10:25.000Z</time>
      </trkpt>
      <trkpt lat="48.25632" lon="-3.51065">
        <ele>106.80000305176</ele>
        <time>2020-10-18T13:10:26.000Z</time>
      </trkpt>
      <trkpt lat="48.25631" lon="-3.51058">
        <ele>107</ele>
        <time>2020-10-18T13:10:27.000Z</time>
      </trkpt>
      <trkpt lat="48.25627" lon="-3.51046">
        <ele>107</ele>
        <time>2020-10-18T13:10:28.000Z</time>
      </trkpt>
      <trkpt lat="48.25627" lon="-3.51046">
        <ele>107</ele>
        <time>2020-10-18T13:10:29.000Z</time>
      </trkpt>
      <trkpt lat="48.25626" lon="-3.51041">
        <ele>107</ele>
        <time>2020-10-18T13:10:30.000Z</time>
      </trkpt>
      <trkpt lat="48.25624" lon="-3.5103">
        <ele>107.19999694824</ele>
        <time>2020-10-18T13:10:31.000Z</time>
      </trkpt>
      <trkpt lat="48.25624" lon="-3.5103">
        <ele>107.19999694824</ele>
        <time>2020-10-18T13:10:32.000Z</time>
      </trkpt>
      <trkpt lat="48.25623" lon="-3.51025">
        <ele>107.19999694824</ele>
        <time>2020-10-18T13:10:33.000Z</time>
      </trkpt>
      <trkpt lat="48.2562" lon="-3.51014">
        <ele>107.40000152588</ele>
        <time>2020-10-18T13:10:34.000Z</time>
      </trkpt>
      <trkpt lat="48.2562" lon="-3.51014">
        <ele>107.40000152588</ele>
        <time>2020-10-18T13:10:35.000Z</time>
      </trkpt>
      <trkpt lat="48.25619" lon="-3.51009">
        <ele>107.40000152588</ele>
        <time>2020-10-18T13:10:36.000Z</time>
      </trkpt>
      <trkpt lat="48.25615" lon="-3.50998">
        <ele>107.40000152588</ele>
        <time>2020-10-18T13:10:37.000Z</time>
      </trkpt>
      <trkpt lat="48.25614" lon="-3.50992">
        <ele>107.40000152588</ele>
        <time>2020-10-18T13:10:38.000Z</time>
      </trkpt>
      <trkpt lat="48.25614" lon="-3.50992">
        <ele>107.40000152588</ele>
        <time>2020-10-18T13:10:39.000Z</time>
      </trkpt>
      <trkpt lat="48.25613" lon="-3.50987">
        <ele>107.40000152588</ele>
        <time>2020-10-18T13:10:40.000Z</time>
      </trkpt>
      <trkpt lat="48.2561" lon="-3.50977">
        <ele>107.40000152588</ele>
        <time>2020-10-18T13:10:41.000Z</time>
      </trkpt>
      <trkpt lat="48.2561" lon="-3.50977">
        <ele>107.40000152588</ele>
        <time>2020-10-18T13:10:42.000Z</time>
      </trkpt>
      <trkpt lat="48.25608" lon="-3.50971">
        <ele>107.19999694824</ele>
        <time>2020-10-18T13:10:43.000Z</time>
      </trkpt>
      <trkpt lat="48.25606" lon="-3.50961">
        <ele>107.19999694824</ele>
        <time>2020-10-18T13:10:44.000Z</time>
      </trkpt>
      <trkpt lat="48.25606" lon="-3.50961">
        <ele>107.19999694824</ele>
        <time>2020-10-18T13:10:45.000Z</time>
      </trkpt>
      <trkpt lat="48.25605" lon="-3.50956">
        <ele>107.19999694824</ele>
        <time>2020-10-18T13:10:46.000Z</time>
      </trkpt>
      <trkpt lat="48.25605" lon="-3.5095">
        <ele>107.19999694824</ele>
        <time>2020-10-18T13:10:47.000Z</time>
      </trkpt>
      <trkpt lat="48.25604" lon="-3.50945">
        <ele>107.19999694824</ele>
        <time>2020-10-18T13:10:48.000Z</time>
      </trkpt>
      <trkpt lat="48.25601" lon="-3.50936">
        <ele>107.19999694824</ele>
        <time>2020-10-18T13:10:49.000Z</time>
      </trkpt>
      <trkpt lat="48.25601" lon="-3.50936">
        <ele>107.19999694824</ele>
        <time>2020-10-18T13:10:50.000Z</time>
      </trkpt>
      <trkpt lat="48.256" lon="-3.50932">
        <ele>107.19999694824</ele>
        <time>2020-10-18T13:10:51.000Z</time>
      </trkpt>
      <trkpt lat="48.25597" lon="-3.50921">
        <ele>107</ele>
        <time>2020-10-18T13:10:52.000Z</time>
      </trkpt>
      <trkpt lat="48.25597" lon="-3.50921">
        <ele>107</ele>
        <time>2020-10-18T13:10:53.000Z</time>
      </trkpt>
      <trkpt lat="48.25596" lon="-3.50916">
        <ele>107</ele>
        <time>2020-10-18T13:10:54.000Z</time>
      </trkpt>
      <trkpt lat="48.25594" lon="-3.50905">
        <ele>106.80000305176</ele>
        <time>2020-10-18T13:10:55.000Z</time>
      </trkpt>
      <trkpt lat="48.25594" lon="-3.50905">
        <ele>106.80000305176</ele>
        <time>2020-10-18T13:10:56.000Z</time>
      </trkpt>
      <trkpt lat="48.25592" lon="-3.50899">
        <ele>106.80000305176</ele>
        <time>2020-10-18T13:10:57.000Z</time>
      </trkpt>
      <trkpt lat="48.25589" lon="-3.50887">
        <ele>106.59999847412</ele>
        <time>2020-10-18T13:10:58.000Z</time>
      </trkpt>
      <trkpt lat="48.25589" lon="-3.50887">
        <ele>106.59999847412</ele>
        <time>2020-10-18T13:10:59.000Z</time>
      </trkpt>
      <trkpt lat="48.25587" lon="-3.5088">
        <ele>106.59999847412</ele>
        <time>2020-10-18T13:11:00.000Z</time>
      </trkpt>
      <trkpt lat="48.25584" lon="-3.50867">
        <ele>106.40000152588</ele>
        <time>2020-10-18T13:11:01.000Z</time>
      </trkpt>
      <trkpt lat="48.25583" lon="-3.50861">
        <ele>106.40000152588</ele>
        <time>2020-10-18T13:11:02.000Z</time>
      </trkpt>
      <trkpt lat="48.25583" lon="-3.50861">
        <ele>106.40000152588</ele>
        <time>2020-10-18T13:11:03.000Z</time>
      </trkpt>
      <trkpt lat="48.25579" lon="-3.50849">
        <ele>106.80000305176</ele>
        <time>2020-10-18T13:11:04.000Z</time>
      </trkpt>
      <trkpt lat="48.25579" lon="-3.50849">
        <ele>106.80000305176</ele>
        <time>2020-10-18T13:11:05.000Z</time>
      </trkpt>
      <trkpt lat="48.25577" lon="-3.50843">
        <ele>106.80000305176</ele>
        <time>2020-10-18T13:11:06.000Z</time>
      </trkpt>
      <trkpt lat="48.25574" lon="-3.5083">
        <ele>107</ele>
        <time>2020-10-18T13:11:07.000Z</time>
      </trkpt>
      <trkpt lat="48.25574" lon="-3.5083">
        <ele>107</ele>
        <time>2020-10-18T13:11:08.000Z</time>
      </trkpt>
      <trkpt lat="48.25572" lon="-3.50824">
        <ele>107</ele>
        <time>2020-10-18T13:11:09.000Z</time>
      </trkpt>
      <trkpt lat="48.25569" lon="-3.50811">
        <ele>107.19999694824</ele>
        <time>2020-10-18T13:11:10.000Z</time>
      </trkpt>
      <trkpt lat="48.25569" lon="-3.50811">
        <ele>107.19999694824</ele>
        <time>2020-10-18T13:11:11.000Z</time>
      </trkpt>
      <trkpt lat="48.25568" lon="-3.50805">
        <ele>107.19999694824</ele>
        <time>2020-10-18T13:11:12.000Z</time>
      </trkpt>
      <trkpt lat="48.25566" lon="-3.50792">
        <ele>107.40000152588</ele>
        <time>2020-10-18T13:11:13.000Z</time>
      </trkpt>
      <trkpt lat="48.25566" lon="-3.50792">
        <ele>107.40000152588</ele>
        <time>2020-10-18T13:11:14.000Z</time>
      </trkpt>
      <trkpt lat="48.25565" lon="-3.50785">
        <ele>107.40000152588</ele>
        <time>2020-10-18T13:11:15.000Z</time>
      </trkpt>
      <trkpt lat="48.25564" lon="-3.50772">
        <ele>107.59999847412</ele>
        <time>2020-10-18T13:11:16.000Z</time>
      </trkpt>
      <trkpt lat="48.25565" lon="-3.50765">
        <ele>107.59999847412</ele>
        <time>2020-10-18T13:11:17.000Z</time>
      </trkpt>
      <trkpt lat="48.25565" lon="-3.50765">
        <ele>107.59999847412</ele>
        <time>2020-10-18T13:11:18.000Z</time>
      </trkpt>
      <trkpt lat="48.25565" lon="-3.50759">
        <ele>107.80000305176</ele>
        <time>2020-10-18T13:11:19.000Z</time>
      </trkpt>
      <trkpt lat="48.25566" lon="-3.50747">
        <ele>108.19999694824</ele>
        <time>2020-10-18T13:11:20.000Z</time>
      </trkpt>
      <trkpt lat="48.25566" lon="-3.50747">
        <ele>108.19999694824</ele>
        <time>2020-10-18T13:11:21.000Z</time>
      </trkpt>
      <trkpt lat="48.25568" lon="-3.50741">
        <ele>108.19999694824</ele>
        <time>2020-10-18T13:11:22.000Z</time>
      </trkpt>
      <trkpt lat="48.25572" lon="-3.50728">
        <ele>108.59999847412</ele>
        <time>2020-10-18T13:11:23.000Z</time>
      </trkpt>
      <trkpt lat="48.25572" lon="-3.50728">
        <ele>108.59999847412</ele>
        <time>2020-10-18T13:11:24.000Z</time>
      </trkpt>
      <trkpt lat="48.25574" lon="-3.50722">
        <ele>108.80000305176</ele>
        <time>2020-10-18T13:11:25.000Z</time>
      </trkpt>
      <trkpt lat="48.25579" lon="-3.50711">
        <ele>109.19999694824</ele>
        <time>2020-10-18T13:11:26.000Z</time>
      </trkpt>
      <trkpt lat="48.25579" lon="-3.50711">
        <ele>109.19999694824</ele>
        <time>2020-10-18T13:11:27.000Z</time>
      </trkpt>
      <trkpt lat="48.25583" lon="-3.50705">
        <ele>109.40000152588</ele>
        <time>2020-10-18T13:11:28.000Z</time>
      </trkpt>
      <trkpt lat="48.25589" lon="-3.50694">
        <ele>109.59999847412</ele>
        <time>2020-10-18T13:11:29.000Z</time>
      </trkpt>
      <trkpt lat="48.25589" lon="-3.50694">
        <ele>109.59999847412</ele>
        <time>2020-10-18T13:11:30.000Z</time>
      </trkpt>
      <trkpt lat="48.25592" lon="-3.50689">
        <ele>109.80000305176</ele>
        <time>2020-10-18T13:11:31.000Z</time>
      </trkpt>
      <trkpt lat="48.25597" lon="-3.50677">
        <ele>110.19999694824</ele>
        <time>2020-10-18T13:11:32.000Z</time>
      </trkpt>
      <trkpt lat="48.25597" lon="-3.50677">
        <ele>110.19999694824</ele>
        <time>2020-10-18T13:11:33.000Z</time>
      </trkpt>
      <trkpt lat="48.25601" lon="-3.50672">
        <ele>110.19999694824</ele>
        <time>2020-10-18T13:11:34.000Z</time>
      </trkpt>
      <trkpt lat="48.25608" lon="-3.50661">
        <ele>110.59999847412</ele>
        <time>2020-10-18T13:11:35.000Z</time>
      </trkpt>
      <trkpt lat="48.25608" lon="-3.50661">
        <ele>110.59999847412</ele>
        <time>2020-10-18T13:11:36.000Z</time>
      </trkpt>
      <trkpt lat="48.25611" lon="-3.50655">
        <ele>110.59999847412</ele>
        <time>2020-10-18T13:11:37.000Z</time>
      </trkpt>
      <trkpt lat="48.25617" lon="-3.50644">
        <ele>111</ele>
        <time>2020-10-18T13:11:38.000Z</time>
      </trkpt>
      <trkpt lat="48.25617" lon="-3.50644">
        <ele>111</ele>
        <time>2020-10-18T13:11:39.000Z</time>
      </trkpt>
      <trkpt lat="48.25621" lon="-3.50639">
        <ele>111.19999694824</ele>
        <time>2020-10-18T13:11:40.000Z</time>
      </trkpt>
      <trkpt lat="48.25627" lon="-3.50628">
        <ele>111.40000152588</ele>
        <time>2020-10-18T13:11:41.000Z</time>
      </trkpt>
      <trkpt lat="48.25627" lon="-3.50628">
        <ele>111.40000152588</ele>
        <time>2020-10-18T13:11:42.000Z</time>
      </trkpt>
      <trkpt lat="48.25634" lon="-3.50618">
        <ele>111.59999847412</ele>
        <time>2020-10-18T13:11:43.000Z</time>
      </trkpt>
      <trkpt lat="48.25634" lon="-3.50618">
        <ele>111.59999847412</ele>
        <time>2020-10-18T13:11:44.000Z</time>
      </trkpt>
      <trkpt lat="48.25637" lon="-3.50612">
        <ele>111.80000305176</ele>
        <time>2020-10-18T13:11:45.000Z</time>
      </trkpt>
      <trkpt lat="48.25643" lon="-3.506">
        <ele>112.19999694824</ele>
        <time>2020-10-18T13:11:46.000Z</time>
      </trkpt>
      <trkpt lat="48.25645" lon="-3.50595">
        <ele>112</ele>
        <time>2020-10-18T13:11:47.000Z</time>
      </trkpt>
      <trkpt lat="48.25648" lon="-3.50589">
        <ele>112</ele>
        <time>2020-10-18T13:11:48.000Z</time>
      </trkpt>
      <trkpt lat="48.25648" lon="-3.50589">
        <ele>112</ele>
        <time>2020-10-18T13:11:49.000Z</time>
      </trkpt>
      <trkpt lat="48.25651" lon="-3.50584">
        <ele>112</ele>
        <time>2020-10-18T13:11:50.000Z</time>
      </trkpt>
      <trkpt lat="48.25657" lon="-3.50573">
        <ele>111.80000305176</ele>
        <time>2020-10-18T13:11:51.000Z</time>
      </trkpt>
      <trkpt lat="48.25657" lon="-3.50573">
        <ele>111.80000305176</ele>
        <time>2020-10-18T13:11:52.000Z</time>
      </trkpt>
      <trkpt lat="48.2566" lon="-3.50568">
        <ele>111.80000305176</ele>
        <time>2020-10-18T13:11:53.000Z</time>
      </trkpt>
      <trkpt lat="48.25666" lon="-3.50558">
        <ele>111.59999847412</ele>
        <time>2020-10-18T13:11:54.000Z</time>
      </trkpt>
      <trkpt lat="48.25666" lon="-3.50558">
        <ele>111.59999847412</ele>
        <time>2020-10-18T13:11:55.000Z</time>
      </trkpt>
      <trkpt lat="48.25672" lon="-3.50547">
        <ele>111.59999847412</ele>
        <time>2020-10-18T13:11:56.000Z</time>
      </trkpt>
      <trkpt lat="48.25675" lon="-3.50541">
        <ele>111.40000152588</ele>
        <time>2020-10-18T13:11:57.000Z</time>
      </trkpt>
      <trkpt lat="48.25675" lon="-3.50541">
        <ele>111.40000152588</ele>
        <time>2020-10-18T13:11:58.000Z</time>
      </trkpt>
      <trkpt lat="48.25678" lon="-3.50536">
        <ele>111.40000152588</ele>
        <time>2020-10-18T13:11:59.000Z</time>
      </trkpt>
      <trkpt lat="48.25684" lon="-3.50525">
        <ele>111.80000305176</ele>
        <time>2020-10-18T13:12:00.000Z</time>
      </trkpt>
      <trkpt lat="48.25684" lon="-3.50525">
        <ele>111.80000305176</ele>
        <time>2020-10-18T13:12:01.000Z</time>
      </trkpt>
      <trkpt lat="48.25687" lon="-3.50519">
        <ele>112</ele>
        <time>2020-10-18T13:12:02.000Z</time>
      </trkpt>
      <trkpt lat="48.25692" lon="-3.50508">
        <ele>112.40000152588</ele>
        <time>2020-10-18T13:12:03.000Z</time>
      </trkpt>
      <trkpt lat="48.25692" lon="-3.50508">
        <ele>112.40000152588</ele>
        <time>2020-10-18T13:12:04.000Z</time>
      </trkpt>
      <trkpt lat="48.25695" lon="-3.50502">
        <ele>112.59999847412</ele>
        <time>2020-10-18T13:12:05.000Z</time>
      </trkpt>
      <trkpt lat="48.25701" lon="-3.50491">
        <ele>113.19999694824</ele>
        <time>2020-10-18T13:12:06.000Z</time>
      </trkpt>
      <trkpt lat="48.25701" lon="-3.50491">
        <ele>113.19999694824</ele>
        <time>2020-10-18T13:12:07.000Z</time>
      </trkpt>
      <trkpt lat="48.25704" lon="-3.50486">
        <ele>113.40000152588</ele>
        <time>2020-10-18T13:12:08.000Z</time>
      </trkpt>
      <trkpt lat="48.2571" lon="-3.50475">
        <ele>114</ele>
        <time>2020-10-18T13:12:09.000Z</time>
      </trkpt>
      <trkpt lat="48.2571" lon="-3.50475">
        <ele>114</ele>
        <time>2020-10-18T13:12:10.000Z</time>
      </trkpt>
      <trkpt lat="48.25712" lon="-3.50469">
        <ele>114.40000152588</ele>
        <time>2020-10-18T13:12:11.000Z</time>
      </trkpt>
      <trkpt lat="48.25716" lon="-3.50457">
        <ele>114.80000305176</ele>
        <time>2020-10-18T13:12:12.000Z</time>
      </trkpt>
      <trkpt lat="48.25716" lon="-3.50457">
        <ele>114.80000305176</ele>
        <time>2020-10-18T13:12:13.000Z</time>
      </trkpt>
      <trkpt lat="48.25718" lon="-3.50451">
        <ele>115</ele>
        <time>2020-10-18T13:12:14.000Z</time>
      </trkpt>
      <trkpt lat="48.25721" lon="-3.50438">
        <ele>115.40000152588</ele>
        <time>2020-10-18T13:12:15.000Z</time>
      </trkpt>
      <trkpt lat="48.25721" lon="-3.50431">
        <ele>115.40000152588</ele>
        <time>2020-10-18T13:12:16.000Z</time>
      </trkpt>
      <trkpt lat="48.25721" lon="-3.50431">
        <ele>115.40000152588</ele>
        <time>2020-10-18T13:12:17.000Z</time>
      </trkpt>
      <trkpt lat="48.25722" lon="-3.50425">
        <ele>115.19999694824</ele>
        <time>2020-10-18T13:12:18.000Z</time>
      </trkpt>
      <trkpt lat="48.25723" lon="-3.5041">
        <ele>114.80000305176</ele>
        <time>2020-10-18T13:12:19.000Z</time>
      </trkpt>
      <trkpt lat="48.25723" lon="-3.5041">
        <ele>114.80000305176</ele>
        <time>2020-10-18T13:12:20.000Z</time>
      </trkpt>
      <trkpt lat="48.25723" lon="-3.50403">
        <ele>114.59999847412</ele>
        <time>2020-10-18T13:12:21.000Z</time>
      </trkpt>
      <trkpt lat="48.25722" lon="-3.50389">
        <ele>114</ele>
        <time>2020-10-18T13:12:22.000Z</time>
      </trkpt>
      <trkpt lat="48.25722" lon="-3.50389">
        <ele>114</ele>
        <time>2020-10-18T13:12:23.000Z</time>
      </trkpt>
      <trkpt lat="48.25722" lon="-3.50382">
        <ele>114</ele>
        <time>2020-10-18T13:12:24.000Z</time>
      </trkpt>
      <trkpt lat="48.25721" lon="-3.50369">
        <ele>114</ele>
        <time>2020-10-18T13:12:25.000Z</time>
      </trkpt>
      <trkpt lat="48.25721" lon="-3.50369">
        <ele>114</ele>
        <time>2020-10-18T13:12:26.000Z</time>
      </trkpt>
      <trkpt lat="48.2572" lon="-3.50363">
        <ele>114</ele>
        <time>2020-10-18T13:12:27.000Z</time>
      </trkpt>
      <trkpt lat="48.25719" lon="-3.50352">
        <ele>113.80000305176</ele>
        <time>2020-10-18T13:12:28.000Z</time>
      </trkpt>
      <trkpt lat="48.25719" lon="-3.50352">
        <ele>113.80000305176</ele>
        <time>2020-10-18T13:12:29.000Z</time>
      </trkpt>
      <trkpt lat="48.25718" lon="-3.50347">
        <ele>114</ele>
        <time>2020-10-18T13:12:30.000Z</time>
      </trkpt>
      <trkpt lat="48.25716" lon="-3.50339">
        <ele>114</ele>
        <time>2020-10-18T13:12:31.000Z</time>
      </trkpt>
      <trkpt lat="48.25716" lon="-3.50339">
        <ele>114</ele>
        <time>2020-10-18T13:12:32.000Z</time>
      </trkpt>
      <trkpt lat="48.25715" lon="-3.50335">
        <ele>114</ele>
        <time>2020-10-18T13:12:33.000Z</time>
      </trkpt>
      <trkpt lat="48.25712" lon="-3.50326">
        <ele>114.19999694824</ele>
        <time>2020-10-18T13:12:34.000Z</time>
      </trkpt>
      <trkpt lat="48.25712" lon="-3.50326">
        <ele>114.19999694824</ele>
        <time>2020-10-18T13:12:35.000Z</time>
      </trkpt>
      <trkpt lat="48.2571" lon="-3.50322">
        <ele>114.19999694824</ele>
        <time>2020-10-18T13:12:36.000Z</time>
      </trkpt>
      <trkpt lat="48.25708" lon="-3.50312">
        <ele>113.80000305176</ele>
        <time>2020-10-18T13:12:37.000Z</time>
      </trkpt>
      <trkpt lat="48.25708" lon="-3.50312">
        <ele>113.80000305176</ele>
        <time>2020-10-18T13:12:38.000Z</time>
      </trkpt>
      <trkpt lat="48.25706" lon="-3.50307">
        <ele>113.59999847412</ele>
        <time>2020-10-18T13:12:39.000Z</time>
      </trkpt>
      <trkpt lat="48.25703" lon="-3.50298">
        <ele>113</ele>
        <time>2020-10-18T13:12:40.000Z</time>
      </trkpt>
      <trkpt lat="48.25703" lon="-3.50298">
        <ele>113</ele>
        <time>2020-10-18T13:12:41.000Z</time>
      </trkpt>
      <trkpt lat="48.25702" lon="-3.50293">
        <ele>112.80000305176</ele>
        <time>2020-10-18T13:12:42.000Z</time>
      </trkpt>
      <trkpt lat="48.25699" lon="-3.50285">
        <ele>112.40000152588</ele>
        <time>2020-10-18T13:12:43.000Z</time>
      </trkpt>
      <trkpt lat="48.25699" lon="-3.50285">
        <ele>112.40000152588</ele>
        <time>2020-10-18T13:12:44.000Z</time>
      </trkpt>
      <trkpt lat="48.25698" lon="-3.50281">
        <ele>112.19999694824</ele>
        <time>2020-10-18T13:12:45.000Z</time>
      </trkpt>
      <trkpt lat="48.25696" lon="-3.50272">
        <ele>111.80000305176</ele>
        <time>2020-10-18T13:12:46.000Z</time>
      </trkpt>
      <trkpt lat="48.25696" lon="-3.50272">
        <ele>111.80000305176</ele>
        <time>2020-10-18T13:12:47.000Z</time>
      </trkpt>
      <trkpt lat="48.25693" lon="-3.50265">
        <ele>111.40000152588</ele>
        <time>2020-10-18T13:12:48.000Z</time>
      </trkpt>
      <trkpt lat="48.25693" lon="-3.50265">
        <ele>111.40000152588</ele>
        <time>2020-10-18T13:12:49.000Z</time>
      </trkpt>
      <trkpt lat="48.25692" lon="-3.50261">
        <ele>111.59999847412</ele>
        <time>2020-10-18T13:12:50.000Z</time>
      </trkpt>
      <trkpt lat="48.25691" lon="-3.50253">
        <ele>111.59999847412</ele>
        <time>2020-10-18T13:12:51.000Z</time>
      </trkpt>
      <trkpt lat="48.25691" lon="-3.50253">
        <ele>111.59999847412</ele>
        <time>2020-10-18T13:12:52.000Z</time>
      </trkpt>
      <trkpt lat="48.2569" lon="-3.5025">
        <ele>111.40000152588</ele>
        <time>2020-10-18T13:12:53.000Z</time>
      </trkpt>
      <trkpt lat="48.25687" lon="-3.50242">
        <ele>111</ele>
        <time>2020-10-18T13:12:54.000Z</time>
      </trkpt>
      <trkpt lat="48.25687" lon="-3.50242">
        <ele>111</ele>
        <time>2020-10-18T13:12:55.000Z</time>
      </trkpt>
      <trkpt lat="48.25686" lon="-3.50238">
        <ele>110.80000305176</ele>
        <time>2020-10-18T13:12:56.000Z</time>
      </trkpt>
      <trkpt lat="48.25684" lon="-3.5023">
        <ele>110.19999694824</ele>
        <time>2020-10-18T13:12:57.000Z</time>
      </trkpt>
      <trkpt lat="48.25684" lon="-3.5023">
        <ele>110.19999694824</ele>
        <time>2020-10-18T13:12:58.000Z</time>
      </trkpt>
      <trkpt lat="48.25682" lon="-3.50225">
        <ele>110</ele>
        <time>2020-10-18T13:12:59.000Z</time>
      </trkpt>
      <trkpt lat="48.25679" lon="-3.50215">
        <ele>109.40000152588</ele>
        <time>2020-10-18T13:13:00.000Z</time>
      </trkpt>
      <trkpt lat="48.25679" lon="-3.50215">
        <ele>109.40000152588</ele>
        <time>2020-10-18T13:13:01.000Z</time>
      </trkpt>
      <trkpt lat="48.25678" lon="-3.5021">
        <ele>109.59999847412</ele>
        <time>2020-10-18T13:13:02.000Z</time>
      </trkpt>
      <trkpt lat="48.25675" lon="-3.50199">
        <ele>109.80000305176</ele>
        <time>2020-10-18T13:13:03.000Z</time>
      </trkpt>
      <trkpt lat="48.25675" lon="-3.50199">
        <ele>109.80000305176</ele>
        <time>2020-10-18T13:13:04.000Z</time>
      </trkpt>
      <trkpt lat="48.25674" lon="-3.50194">
        <ele>110</ele>
        <time>2020-10-18T13:13:05.000Z</time>
      </trkpt>
      <trkpt lat="48.2567" lon="-3.50184">
        <ele>110</ele>
        <time>2020-10-18T13:13:06.000Z</time>
      </trkpt>
      <trkpt lat="48.2567" lon="-3.50184">
        <ele>110</ele>
        <time>2020-10-18T13:13:07.000Z</time>
      </trkpt>
      <trkpt lat="48.25669" lon="-3.50179">
        <ele>110.40000152588</ele>
        <time>2020-10-18T13:13:08.000Z</time>
      </trkpt>
      <trkpt lat="48.25665" lon="-3.50168">
        <ele>111.19999694824</ele>
        <time>2020-10-18T13:13:09.000Z</time>
      </trkpt>
      <trkpt lat="48.25665" lon="-3.50168">
        <ele>111.19999694824</ele>
        <time>2020-10-18T13:13:10.000Z</time>
      </trkpt>
      <trkpt lat="48.25664" lon="-3.50162">
        <ele>111.59999847412</ele>
        <time>2020-10-18T13:13:11.000Z</time>
      </trkpt>
      <trkpt lat="48.2566" lon="-3.50151">
        <ele>112.59999847412</ele>
        <time>2020-10-18T13:13:12.000Z</time>
      </trkpt>
      <trkpt lat="48.2566" lon="-3.50151">
        <ele>112.59999847412</ele>
        <time>2020-10-18T13:13:13.000Z</time>
      </trkpt>
      <trkpt lat="48.25659" lon="-3.50145">
        <ele>113</ele>
        <time>2020-10-18T13:13:14.000Z</time>
      </trkpt>
      <trkpt lat="48.25655" lon="-3.50135">
        <ele>114</ele>
        <time>2020-10-18T13:13:15.000Z</time>
      </trkpt>
      <trkpt lat="48.25655" lon="-3.50135">
        <ele>114</ele>
        <time>2020-10-18T13:13:16.000Z</time>
      </trkpt>
      <trkpt lat="48.25653" lon="-3.50129">
        <ele>114.40000152588</ele>
        <time>2020-10-18T13:13:17.000Z</time>
      </trkpt>
      <trkpt lat="48.25649" lon="-3.50118">
        <ele>114.19999694824</ele>
        <time>2020-10-18T13:13:18.000Z</time>
      </trkpt>
      <trkpt lat="48.25649" lon="-3.50118">
        <ele>114.19999694824</ele>
        <time>2020-10-18T13:13:19.000Z</time>
      </trkpt>
      <trkpt lat="48.25647" lon="-3.50112">
        <ele>114</ele>
        <time>2020-10-18T13:13:20.000Z</time>
      </trkpt>
      <trkpt lat="48.25643" lon="-3.50099">
        <ele>113.59999847412</ele>
        <time>2020-10-18T13:13:21.000Z</time>
      </trkpt>
      <trkpt lat="48.25643" lon="-3.50099">
        <ele>113.59999847412</ele>
        <time>2020-10-18T13:13:22.000Z</time>
      </trkpt>
      <trkpt lat="48.25641" lon="-3.50093">
        <ele>114.19999694824</ele>
        <time>2020-10-18T13:13:23.000Z</time>
      </trkpt>
      <trkpt lat="48.25638" lon="-3.50081">
        <ele>115.80000305176</ele>
        <time>2020-10-18T13:13:24.000Z</time>
      </trkpt>
      <trkpt lat="48.25638" lon="-3.50081">
        <ele>115.80000305176</ele>
        <time>2020-10-18T13:13:25.000Z</time>
      </trkpt>
      <trkpt lat="48.25636" lon="-3.50076">
        <ele>116.40000152588</ele>
        <time>2020-10-18T13:13:26.000Z</time>
      </trkpt>
      <trkpt lat="48.25633" lon="-3.50065">
        <ele>117.80000305176</ele>
        <time>2020-10-18T13:13:27.000Z</time>
      </trkpt>
      <trkpt lat="48.25633" lon="-3.50065">
        <ele>117.80000305176</ele>
        <time>2020-10-18T13:13:28.000Z</time>
      </trkpt>
      <trkpt lat="48.25632" lon="-3.5006">
        <ele>118</ele>
        <time>2020-10-18T13:13:29.000Z</time>
      </trkpt>
      <trkpt lat="48.25627" lon="-3.50049">
        <ele>117.59999847412</ele>
        <time>2020-10-18T13:13:30.000Z</time>
      </trkpt>
      <trkpt lat="48.25627" lon="-3.50049">
        <ele>117.59999847412</ele>
        <time>2020-10-18T13:13:31.000Z</time>
      </trkpt>
      <trkpt lat="48.25625" lon="-3.50043">
        <ele>117.40000152588</ele>
        <time>2020-10-18T13:13:32.000Z</time>
      </trkpt>
      <trkpt lat="48.2562" lon="-3.50033">
        <ele>117</ele>
        <time>2020-10-18T13:13:33.000Z</time>
      </trkpt>
      <trkpt lat="48.2562" lon="-3.50033">
        <ele>117</ele>
        <time>2020-10-18T13:13:34.000Z</time>
      </trkpt>
      <trkpt lat="48.25617" lon="-3.50028">
        <ele>116.80000305176</ele>
        <time>2020-10-18T13:13:35.000Z</time>
      </trkpt>
      <trkpt lat="48.2561" lon="-3.5002">
        <ele>116.40000152588</ele>
        <time>2020-10-18T13:13:36.000Z</time>
      </trkpt>
      <trkpt lat="48.2561" lon="-3.5002">
        <ele>116.40000152588</ele>
        <time>2020-10-18T13:13:37.000Z</time>
      </trkpt>
      <trkpt lat="48.25607" lon="-3.50015">
        <ele>116.19999694824</ele>
        <time>2020-10-18T13:13:38.000Z</time>
      </trkpt>
      <trkpt lat="48.256" lon="-3.50009">
        <ele>116.59999847412</ele>
        <time>2020-10-18T13:13:39.000Z</time>
      </trkpt>
      <trkpt lat="48.256" lon="-3.50009">
        <ele>116.59999847412</ele>
        <time>2020-10-18T13:13:40.000Z</time>
      </trkpt>
      <trkpt lat="48.25596" lon="-3.50006">
        <ele>116.59999847412</ele>
        <time>2020-10-18T13:13:41.000Z</time>
      </trkpt>
      <trkpt lat="48.25589" lon="-3.5">
        <ele>117.40000152588</ele>
        <time>2020-10-18T13:13:42.000Z</time>
      </trkpt>
      <trkpt lat="48.25589" lon="-3.5">
        <ele>117.40000152588</ele>
        <time>2020-10-18T13:13:43.000Z</time>
      </trkpt>
      <trkpt lat="48.25581" lon="-3.49994">
        <ele>118.19999694824</ele>
        <time>2020-10-18T13:13:44.000Z</time>
      </trkpt>
      <trkpt lat="48.25581" lon="-3.49994">
        <ele>118.19999694824</ele>
        <time>2020-10-18T13:13:45.000Z</time>
      </trkpt>
      <trkpt lat="48.25577" lon="-3.49991">
        <ele>118.59999847412</ele>
        <time>2020-10-18T13:13:46.000Z</time>
      </trkpt>
      <trkpt lat="48.2557" lon="-3.49987">
        <ele>119.40000152588</ele>
        <time>2020-10-18T13:13:47.000Z</time>
      </trkpt>
      <trkpt lat="48.2557" lon="-3.49987">
        <ele>119.40000152588</ele>
        <time>2020-10-18T13:13:48.000Z</time>
      </trkpt>
      <trkpt lat="48.25563" lon="-3.49981">
        <ele>120.19999694824</ele>
        <time>2020-10-18T13:13:49.000Z</time>
      </trkpt>
      <trkpt lat="48.25563" lon="-3.49981">
        <ele>120.19999694824</ele>
        <time>2020-10-18T13:13:50.000Z</time>
      </trkpt>
      <trkpt lat="48.2556" lon="-3.49977">
        <ele>120.59999847412</ele>
        <time>2020-10-18T13:13:51.000Z</time>
      </trkpt>
      <trkpt lat="48.25552" lon="-3.49972">
        <ele>120.80000305176</ele>
        <time>2020-10-18T13:13:52.000Z</time>
      </trkpt>
      <trkpt lat="48.25552" lon="-3.49972">
        <ele>120.80000305176</ele>
        <time>2020-10-18T13:13:53.000Z</time>
      </trkpt>
      <trkpt lat="48.25544" lon="-3.49966">
        <ele>119.80000305176</ele>
        <time>2020-10-18T13:13:54.000Z</time>
      </trkpt>
      <trkpt lat="48.25544" lon="-3.49966">
        <ele>119.80000305176</ele>
        <time>2020-10-18T13:13:55.000Z</time>
      </trkpt>
      <trkpt lat="48.25541" lon="-3.49963">
        <ele>119.40000152588</ele>
        <time>2020-10-18T13:13:56.000Z</time>
      </trkpt>
      <trkpt lat="48.25533" lon="-3.49957">
        <ele>118.40000152588</ele>
        <time>2020-10-18T13:13:57.000Z</time>
      </trkpt>
      <trkpt lat="48.25533" lon="-3.49957">
        <ele>118.40000152588</ele>
        <time>2020-10-18T13:13:58.000Z</time>
      </trkpt>
      <trkpt lat="48.25529" lon="-3.49954">
        <ele>118</ele>
        <time>2020-10-18T13:13:59.000Z</time>
      </trkpt>
      <trkpt lat="48.25522" lon="-3.49949">
        <ele>117</ele>
        <time>2020-10-18T13:14:00.000Z</time>
      </trkpt>
      <trkpt lat="48.25522" lon="-3.49949">
        <ele>117</ele>
        <time>2020-10-18T13:14:01.000Z</time>
      </trkpt>
      <trkpt lat="48.25518" lon="-3.49946">
        <ele>116.59999847412</ele>
        <time>2020-10-18T13:14:02.000Z</time>
      </trkpt>
      <trkpt lat="48.25511" lon="-3.49941">
        <ele>116.19999694824</ele>
        <time>2020-10-18T13:14:03.000Z</time>
      </trkpt>
      <trkpt lat="48.25511" lon="-3.49941">
        <ele>116.19999694824</ele>
        <time>2020-10-18T13:14:04.000Z</time>
      </trkpt>
      <trkpt lat="48.25507" lon="-3.49939">
        <ele>116.59999847412</ele>
        <time>2020-10-18T13:14:05.000Z</time>
      </trkpt>
      <trkpt lat="48.255" lon="-3.49933">
        <ele>116.40000152588</ele>
        <time>2020-10-18T13:14:06.000Z</time>
      </trkpt>
      <trkpt lat="48.255" lon="-3.49933">
        <ele>116.40000152588</ele>
        <time>2020-10-18T13:14:07.000Z</time>
      </trkpt>
      <trkpt lat="48.25496" lon="-3.49931">
        <ele>117</ele>
        <time>2020-10-18T13:14:08.000Z</time>
      </trkpt>
      <trkpt lat="48.25488" lon="-3.49926">
        <ele>118.19999694824</ele>
        <time>2020-10-18T13:14:09.000Z</time>
      </trkpt>
      <trkpt lat="48.25488" lon="-3.49926">
        <ele>118.19999694824</ele>
        <time>2020-10-18T13:14:10.000Z</time>
      </trkpt>
      <trkpt lat="48.25484" lon="-3.49924">
        <ele>118.80000305176</ele>
        <time>2020-10-18T13:14:11.000Z</time>
      </trkpt>
      <trkpt lat="48.25476" lon="-3.49919">
        <ele>120</ele>
        <time>2020-10-18T13:14:12.000Z</time>
      </trkpt>
      <trkpt lat="48.25476" lon="-3.49919">
        <ele>120</ele>
        <time>2020-10-18T13:14:13.000Z</time>
      </trkpt>
      <trkpt lat="48.25472" lon="-3.49916">
        <ele>120.59999847412</ele>
        <time>2020-10-18T13:14:14.000Z</time>
      </trkpt>
      <trkpt lat="48.25465" lon="-3.49911">
        <ele>121.80000305176</ele>
        <time>2020-10-18T13:14:15.000Z</time>
      </trkpt>
      <trkpt lat="48.25465" lon="-3.49911">
        <ele>121.80000305176</ele>
        <time>2020-10-18T13:14:16.000Z</time>
      </trkpt>
      <trkpt lat="48.25461" lon="-3.49908">
        <ele>122.40000152588</ele>
        <time>2020-10-18T13:14:17.000Z</time>
      </trkpt>
      <trkpt lat="48.25453" lon="-3.49902">
        <ele>122.59999847412</ele>
        <time>2020-10-18T13:14:18.000Z</time>
      </trkpt>
      <trkpt lat="48.25453" lon="-3.49902">
        <ele>122.59999847412</ele>
        <time>2020-10-18T13:14:19.000Z</time>
      </trkpt>
      <trkpt lat="48.25449" lon="-3.499">
        <ele>122.40000152588</ele>
        <time>2020-10-18T13:14:20.000Z</time>
      </trkpt>
      <trkpt lat="48.25441" lon="-3.49893">
        <ele>121.80000305176</ele>
        <time>2020-10-18T13:14:21.000Z</time>
      </trkpt>
      <trkpt lat="48.25441" lon="-3.49893">
        <ele>121.80000305176</ele>
        <time>2020-10-18T13:14:22.000Z</time>
      </trkpt>
      <trkpt lat="48.25437" lon="-3.4989">
        <ele>121.40000152588</ele>
        <time>2020-10-18T13:14:23.000Z</time>
      </trkpt>
      <trkpt lat="48.2543" lon="-3.49884">
        <ele>120.80000305176</ele>
        <time>2020-10-18T13:14:24.000Z</time>
      </trkpt>
      <trkpt lat="48.2543" lon="-3.49884">
        <ele>120.80000305176</ele>
        <time>2020-10-18T13:14:25.000Z</time>
      </trkpt>
      <trkpt lat="48.25426" lon="-3.49882">
        <ele>120.80000305176</ele>
        <time>2020-10-18T13:14:26.000Z</time>
      </trkpt>
      <trkpt lat="48.25419" lon="-3.49876">
        <ele>121</ele>
        <time>2020-10-18T13:14:27.000Z</time>
      </trkpt>
      <trkpt lat="48.25419" lon="-3.49876">
        <ele>121</ele>
        <time>2020-10-18T13:14:28.000Z</time>
      </trkpt>
      <trkpt lat="48.25415" lon="-3.49874">
        <ele>121</ele>
        <time>2020-10-18T13:14:29.000Z</time>
      </trkpt>
      <trkpt lat="48.25407" lon="-3.49869">
        <ele>121</ele>
        <time>2020-10-18T13:14:30.000Z</time>
      </trkpt>
      <trkpt lat="48.25407" lon="-3.49869">
        <ele>121</ele>
        <time>2020-10-18T13:14:31.000Z</time>
      </trkpt>
      <trkpt lat="48.25404" lon="-3.49866">
        <ele>120.59999847412</ele>
        <time>2020-10-18T13:14:32.000Z</time>
      </trkpt>
      <trkpt lat="48.25396" lon="-3.49862">
        <ele>120.19999694824</ele>
        <time>2020-10-18T13:14:33.000Z</time>
      </trkpt>
      <trkpt lat="48.25392" lon="-3.49859">
        <ele>119.80000305176</ele>
        <time>2020-10-18T13:14:34.000Z</time>
      </trkpt>
      <trkpt lat="48.25392" lon="-3.49859">
        <ele>119.80000305176</ele>
        <time>2020-10-18T13:14:35.000Z</time>
      </trkpt>
      <trkpt lat="48.25389" lon="-3.49857">
        <ele>119.59999847412</ele>
        <time>2020-10-18T13:14:36.000Z</time>
      </trkpt>
      <trkpt lat="48.25383" lon="-3.49851">
        <ele>119.19999694824</ele>
        <time>2020-10-18T13:14:37.000Z</time>
      </trkpt>
      <trkpt lat="48.25383" lon="-3.49851">
        <ele>119.19999694824</ele>
        <time>2020-10-18T13:14:38.000Z</time>
      </trkpt>
      <trkpt lat="48.25379" lon="-3.49848">
        <ele>119.19999694824</ele>
        <time>2020-10-18T13:14:39.000Z</time>
      </trkpt>
      <trkpt lat="48.25373" lon="-3.4984">
        <ele>119.80000305176</ele>
        <time>2020-10-18T13:14:40.000Z</time>
      </trkpt>
      <trkpt lat="48.25373" lon="-3.4984">
        <ele>119.80000305176</ele>
        <time>2020-10-18T13:14:41.000Z</time>
      </trkpt>
      <trkpt lat="48.2537" lon="-3.49837">
        <ele>120</ele>
        <time>2020-10-18T13:14:42.000Z</time>
      </trkpt>
      <trkpt lat="48.25363" lon="-3.49829">
        <ele>120.19999694824</ele>
        <time>2020-10-18T13:14:43.000Z</time>
      </trkpt>
      <trkpt lat="48.25363" lon="-3.49829">
        <ele>120.19999694824</ele>
        <time>2020-10-18T13:14:44.000Z</time>
      </trkpt>
      <trkpt lat="48.25359" lon="-3.49823">
        <ele>119.80000305176</ele>
        <time>2020-10-18T13:14:45.000Z</time>
      </trkpt>
      <trkpt lat="48.25354" lon="-3.49813">
        <ele>119.40000152588</ele>
        <time>2020-10-18T13:14:46.000Z</time>
      </trkpt>
      <trkpt lat="48.25354" lon="-3.49813">
        <ele>119.40000152588</ele>
        <time>2020-10-18T13:14:47.000Z</time>
      </trkpt>
      <trkpt lat="48.25349" lon="-3.49801">
        <ele>119.19999694824</ele>
        <time>2020-10-18T13:14:48.000Z</time>
      </trkpt>
      <trkpt lat="48.25349" lon="-3.49801">
        <ele>119.19999694824</ele>
        <time>2020-10-18T13:14:49.000Z</time>
      </trkpt>
      <trkpt lat="48.25347" lon="-3.49796">
        <ele>119.19999694824</ele>
        <time>2020-10-18T13:14:50.000Z</time>
      </trkpt>
      <trkpt lat="48.25344" lon="-3.49785">
        <ele>119.40000152588</ele>
        <time>2020-10-18T13:14:51.000Z</time>
      </trkpt>
      <trkpt lat="48.25344" lon="-3.49785">
        <ele>119.40000152588</ele>
        <time>2020-10-18T13:14:52.000Z</time>
      </trkpt>
      <trkpt lat="48.25343" lon="-3.49779">
        <ele>119.80000305176</ele>
        <time>2020-10-18T13:14:53.000Z</time>
      </trkpt>
      <trkpt lat="48.2534" lon="-3.49768">
        <ele>121</ele>
        <time>2020-10-18T13:14:54.000Z</time>
      </trkpt>
      <trkpt lat="48.2534" lon="-3.49768">
        <ele>121</ele>
        <time>2020-10-18T13:14:55.000Z</time>
      </trkpt>
      <trkpt lat="48.25339" lon="-3.49762">
        <ele>121.40000152588</ele>
        <time>2020-10-18T13:14:56.000Z</time>
      </trkpt>
      <trkpt lat="48.25338" lon="-3.49749">
        <ele>121.80000305176</ele>
        <time>2020-10-18T13:14:57.000Z</time>
      </trkpt>
      <trkpt lat="48.25338" lon="-3.49749">
        <ele>121.80000305176</ele>
        <time>2020-10-18T13:14:58.000Z</time>
      </trkpt>
      <trkpt lat="48.25338" lon="-3.49737">
        <ele>122</ele>
        <time>2020-10-18T13:14:59.000Z</time>
      </trkpt>
      <trkpt lat="48.25338" lon="-3.49737">
        <ele>122</ele>
        <time>2020-10-18T13:15:00.000Z</time>
      </trkpt>
      <trkpt lat="48.25338" lon="-3.49731">
        <ele>122</ele>
        <time>2020-10-18T13:15:01.000Z</time>
      </trkpt>
      <trkpt lat="48.2534" lon="-3.49718">
        <ele>121.80000305176</ele>
        <time>2020-10-18T13:15:02.000Z</time>
      </trkpt>
      <trkpt lat="48.2534" lon="-3.49718">
        <ele>121.80000305176</ele>
        <time>2020-10-18T13:15:03.000Z</time>
      </trkpt>
      <trkpt lat="48.25342" lon="-3.49706">
        <ele>121.59999847412</ele>
        <time>2020-10-18T13:15:04.000Z</time>
      </trkpt>
      <trkpt lat="48.25342" lon="-3.49706">
        <ele>121.59999847412</ele>
        <time>2020-10-18T13:15:05.000Z</time>
      </trkpt>
      <trkpt lat="48.25343" lon="-3.49694">
        <ele>121.40000152588</ele>
        <time>2020-10-18T13:15:06.000Z</time>
      </trkpt>
      <trkpt lat="48.25343" lon="-3.49694">
        <ele>121.40000152588</ele>
        <time>2020-10-18T13:15:07.000Z</time>
      </trkpt>
      <trkpt lat="48.25344" lon="-3.49689">
        <ele>121.40000152588</ele>
        <time>2020-10-18T13:15:08.000Z</time>
      </trkpt>
      <trkpt lat="48.25345" lon="-3.49678">
        <ele>121.19999694824</ele>
        <time>2020-10-18T13:15:09.000Z</time>
      </trkpt>
      <trkpt lat="48.25345" lon="-3.49678">
        <ele>121.19999694824</ele>
        <time>2020-10-18T13:15:10.000Z</time>
      </trkpt>
      <trkpt lat="48.25346" lon="-3.49672">
        <ele>121.19999694824</ele>
        <time>2020-10-18T13:15:11.000Z</time>
      </trkpt>
      <trkpt lat="48.25347" lon="-3.49661">
        <ele>121.40000152588</ele>
        <time>2020-10-18T13:15:12.000Z</time>
      </trkpt>
      <trkpt lat="48.25347" lon="-3.49656">
        <ele>121.59999847412</ele>
        <time>2020-10-18T13:15:13.000Z</time>
      </trkpt>
      <trkpt lat="48.25347" lon="-3.49656">
        <ele>121.59999847412</ele>
        <time>2020-10-18T13:15:14.000Z</time>
      </trkpt>
      <trkpt lat="48.25348" lon="-3.49652">
        <ele>121.59999847412</ele>
        <time>2020-10-18T13:15:15.000Z</time>
      </trkpt>
      <trkpt lat="48.25349" lon="-3.49642">
        <ele>121.80000305176</ele>
        <time>2020-10-18T13:15:16.000Z</time>
      </trkpt>
      <trkpt lat="48.25349" lon="-3.49642">
        <ele>121.80000305176</ele>
        <time>2020-10-18T13:15:17.000Z</time>
      </trkpt>
      <trkpt lat="48.2535" lon="-3.49631">
        <ele>122.19999694824</ele>
        <time>2020-10-18T13:15:18.000Z</time>
      </trkpt>
      <trkpt lat="48.2535" lon="-3.49631">
        <ele>122.19999694824</ele>
        <time>2020-10-18T13:15:19.000Z</time>
      </trkpt>
      <trkpt lat="48.25351" lon="-3.49625">
        <ele>122.40000152588</ele>
        <time>2020-10-18T13:15:20.000Z</time>
      </trkpt>
      <trkpt lat="48.25353" lon="-3.49613">
        <ele>122.80000305176</ele>
        <time>2020-10-18T13:15:21.000Z</time>
      </trkpt>
      <trkpt lat="48.25353" lon="-3.49613">
        <ele>122.80000305176</ele>
        <time>2020-10-18T13:15:22.000Z</time>
      </trkpt>
      <trkpt lat="48.25353" lon="-3.49607">
        <ele>122.80000305176</ele>
        <time>2020-10-18T13:15:23.000Z</time>
      </trkpt>
      <trkpt lat="48.25354" lon="-3.49597">
        <ele>123</ele>
        <time>2020-10-18T13:15:24.000Z</time>
      </trkpt>
      <trkpt lat="48.25354" lon="-3.49597">
        <ele>123</ele>
        <time>2020-10-18T13:15:25.000Z</time>
      </trkpt>
      <trkpt lat="48.25355" lon="-3.49591">
        <ele>122.80000305176</ele>
        <time>2020-10-18T13:15:26.000Z</time>
      </trkpt>
      <trkpt lat="48.25355" lon="-3.49577">
        <ele>122</ele>
        <time>2020-10-18T13:15:27.000Z</time>
      </trkpt>
      <trkpt lat="48.25355" lon="-3.49577">
        <ele>122</ele>
        <time>2020-10-18T13:15:28.000Z</time>
      </trkpt>
      <trkpt lat="48.25355" lon="-3.49571">
        <ele>121.80000305176</ele>
        <time>2020-10-18T13:15:29.000Z</time>
      </trkpt>
      <trkpt lat="48.25355" lon="-3.49559">
        <ele>121.19999694824</ele>
        <time>2020-10-18T13:15:30.000Z</time>
      </trkpt>
      <trkpt lat="48.25355" lon="-3.49559">
        <ele>121.19999694824</ele>
        <time>2020-10-18T13:15:31.000Z</time>
      </trkpt>
      <trkpt lat="48.25355" lon="-3.49553">
        <ele>121</ele>
        <time>2020-10-18T13:15:32.000Z</time>
      </trkpt>
      <trkpt lat="48.25356" lon="-3.49541">
        <ele>120.40000152588</ele>
        <time>2020-10-18T13:15:33.000Z</time>
      </trkpt>
      <trkpt lat="48.25356" lon="-3.49541">
        <ele>120.40000152588</ele>
        <time>2020-10-18T13:15:34.000Z</time>
      </trkpt>
      <trkpt lat="48.25356" lon="-3.49537">
        <ele>120.19999694824</ele>
        <time>2020-10-18T13:15:35.000Z</time>
      </trkpt>
      <trkpt lat="48.25356" lon="-3.49527">
        <ele>119.80000305176</ele>
        <time>2020-10-18T13:15:36.000Z</time>
      </trkpt>
      <trkpt lat="48.25356" lon="-3.49527">
        <ele>119.80000305176</ele>
        <time>2020-10-18T13:15:37.000Z</time>
      </trkpt>
      <trkpt lat="48.25357" lon="-3.49523">
        <ele>119.80000305176</ele>
        <time>2020-10-18T13:15:38.000Z</time>
      </trkpt>
      <trkpt lat="48.25357" lon="-3.49515">
        <ele>119.40000152588</ele>
        <time>2020-10-18T13:15:39.000Z</time>
      </trkpt>
      <trkpt lat="48.25357" lon="-3.49515">
        <ele>119.40000152588</ele>
        <time>2020-10-18T13:15:40.000Z</time>
      </trkpt>
      <trkpt lat="48.25358" lon="-3.4951">
        <ele>119.40000152588</ele>
        <time>2020-10-18T13:15:41.000Z</time>
      </trkpt>
      <trkpt lat="48.25359" lon="-3.49498">
        <ele>119.40000152588</ele>
        <time>2020-10-18T13:15:42.000Z</time>
      </trkpt>
      <trkpt lat="48.25359" lon="-3.49498">
        <ele>119.40000152588</ele>
        <time>2020-10-18T13:15:43.000Z</time>
      </trkpt>
      <trkpt lat="48.25362" lon="-3.49486">
        <ele>119.59999847412</ele>
        <time>2020-10-18T13:15:44.000Z</time>
      </trkpt>
      <trkpt lat="48.25362" lon="-3.49486">
        <ele>119.59999847412</ele>
        <time>2020-10-18T13:15:45.000Z</time>
      </trkpt>
      <trkpt lat="48.25362" lon="-3.4948">
        <ele>119.80000305176</ele>
        <time>2020-10-18T13:15:46.000Z</time>
      </trkpt>
      <trkpt lat="48.25364" lon="-3.49467">
        <ele>120.19999694824</ele>
        <time>2020-10-18T13:15:47.000Z</time>
      </trkpt>
      <trkpt lat="48.25364" lon="-3.49467">
        <ele>120.19999694824</ele>
        <time>2020-10-18T13:15:48.000Z</time>
      </trkpt>
      <trkpt lat="48.25366" lon="-3.49455">
        <ele>120.40000152588</ele>
        <time>2020-10-18T13:15:49.000Z</time>
      </trkpt>
      <trkpt lat="48.25366" lon="-3.49455">
        <ele>120.40000152588</ele>
        <time>2020-10-18T13:15:50.000Z</time>
      </trkpt>
      <trkpt lat="48.25366" lon="-3.4945">
        <ele>120.40000152588</ele>
        <time>2020-10-18T13:15:51.000Z</time>
      </trkpt>
      <trkpt lat="48.25366" lon="-3.49441">
        <ele>120.59999847412</ele>
        <time>2020-10-18T13:15:52.000Z</time>
      </trkpt>
      <trkpt lat="48.25365" lon="-3.49435">
        <ele>120.59999847412</ele>
        <time>2020-10-18T13:15:53.000Z</time>
      </trkpt>
      <trkpt lat="48.25365" lon="-3.49435">
        <ele>120.59999847412</ele>
        <time>2020-10-18T13:15:54.000Z</time>
      </trkpt>
      <trkpt lat="48.25366" lon="-3.49428">
        <ele>120.40000152588</ele>
        <time>2020-10-18T13:15:55.000Z</time>
      </trkpt>
      <trkpt lat="48.25366" lon="-3.49418">
        <ele>119.80000305176</ele>
        <time>2020-10-18T13:15:56.000Z</time>
      </trkpt>
      <trkpt lat="48.25366" lon="-3.49418">
        <ele>119.80000305176</ele>
        <time>2020-10-18T13:15:57.000Z</time>
      </trkpt>
      <trkpt lat="48.25366" lon="-3.49413">
        <ele>119.40000152588</ele>
        <time>2020-10-18T13:15:58.000Z</time>
      </trkpt>
      <trkpt lat="48.25368" lon="-3.49401">
        <ele>119.19999694824</ele>
        <time>2020-10-18T13:15:59.000Z</time>
      </trkpt>
      <trkpt lat="48.25368" lon="-3.49401">
        <ele>119.19999694824</ele>
        <time>2020-10-18T13:16:00.000Z</time>
      </trkpt>
      <trkpt lat="48.25369" lon="-3.49395">
        <ele>119.19999694824</ele>
        <time>2020-10-18T13:16:01.000Z</time>
      </trkpt>
      <trkpt lat="48.2537" lon="-3.49381">
        <ele>119</ele>
        <time>2020-10-18T13:16:02.000Z</time>
      </trkpt>
      <trkpt lat="48.2537" lon="-3.49381">
        <ele>119</ele>
        <time>2020-10-18T13:16:03.000Z</time>
      </trkpt>
      <trkpt lat="48.25371" lon="-3.49374">
        <ele>118.80000305176</ele>
        <time>2020-10-18T13:16:04.000Z</time>
      </trkpt>
      <trkpt lat="48.25372" lon="-3.49359">
        <ele>118.40000152588</ele>
        <time>2020-10-18T13:16:05.000Z</time>
      </trkpt>
      <trkpt lat="48.25372" lon="-3.49359">
        <ele>118.40000152588</ele>
        <time>2020-10-18T13:16:06.000Z</time>
      </trkpt>
      <trkpt lat="48.25372" lon="-3.49353">
        <ele>118.40000152588</ele>
        <time>2020-10-18T13:16:07.000Z</time>
      </trkpt>
      <trkpt lat="48.25372" lon="-3.4934">
        <ele>118.19999694824</ele>
        <time>2020-10-18T13:16:08.000Z</time>
      </trkpt>
      <trkpt lat="48.25372" lon="-3.4934">
        <ele>118.19999694824</ele>
        <time>2020-10-18T13:16:09.000Z</time>
      </trkpt>
      <trkpt lat="48.25372" lon="-3.49334">
        <ele>118</ele>
        <time>2020-10-18T13:16:10.000Z</time>
      </trkpt>
      <trkpt lat="48.25372" lon="-3.49322">
        <ele>117.80000305176</ele>
        <time>2020-10-18T13:16:11.000Z</time>
      </trkpt>
      <trkpt lat="48.25371" lon="-3.49316">
        <ele>117.80000305176</ele>
        <time>2020-10-18T13:16:12.000Z</time>
      </trkpt>
      <trkpt lat="48.25371" lon="-3.49316">
        <ele>117.80000305176</ele>
        <time>2020-10-18T13:16:13.000Z</time>
      </trkpt>
      <trkpt lat="48.25371" lon="-3.4931">
        <ele>117.59999847412</ele>
        <time>2020-10-18T13:16:14.000Z</time>
      </trkpt>
      <trkpt lat="48.2537" lon="-3.49299">
        <ele>117.19999694824</ele>
        <time>2020-10-18T13:16:15.000Z</time>
      </trkpt>
      <trkpt lat="48.2537" lon="-3.49299">
        <ele>117.19999694824</ele>
        <time>2020-10-18T13:16:16.000Z</time>
      </trkpt>
      <trkpt lat="48.2537" lon="-3.49293">
        <ele>117</ele>
        <time>2020-10-18T13:16:17.000Z</time>
      </trkpt>
      <trkpt lat="48.25368" lon="-3.4928">
        <ele>116.59999847412</ele>
        <time>2020-10-18T13:16:18.000Z</time>
      </trkpt>
      <trkpt lat="48.25368" lon="-3.4928">
        <ele>116.59999847412</ele>
        <time>2020-10-18T13:16:19.000Z</time>
      </trkpt>
      <trkpt lat="48.25368" lon="-3.49274">
        <ele>116.40000152588</ele>
        <time>2020-10-18T13:16:20.000Z</time>
      </trkpt>
      <trkpt lat="48.25367" lon="-3.49262">
        <ele>116.19999694824</ele>
        <time>2020-10-18T13:16:21.000Z</time>
      </trkpt>
      <trkpt lat="48.25367" lon="-3.49262">
        <ele>116.19999694824</ele>
        <time>2020-10-18T13:16:22.000Z</time>
      </trkpt>
      <trkpt lat="48.25367" lon="-3.49257">
        <ele>116</ele>
        <time>2020-10-18T13:16:23.000Z</time>
      </trkpt>
      <trkpt lat="48.25367" lon="-3.49245">
        <ele>115.80000305176</ele>
        <time>2020-10-18T13:16:24.000Z</time>
      </trkpt>
      <trkpt lat="48.25367" lon="-3.49245">
        <ele>115.80000305176</ele>
        <time>2020-10-18T13:16:25.000Z</time>
      </trkpt>
      <trkpt lat="48.25367" lon="-3.49239">
        <ele>115.59999847412</ele>
        <time>2020-10-18T13:16:26.000Z</time>
      </trkpt>
      <trkpt lat="48.25366" lon="-3.49226">
        <ele>115.40000152588</ele>
        <time>2020-10-18T13:16:27.000Z</time>
      </trkpt>
      <trkpt lat="48.25366" lon="-3.49226">
        <ele>115.40000152588</ele>
        <time>2020-10-18T13:16:28.000Z</time>
      </trkpt>
      <trkpt lat="48.25365" lon="-3.49219">
        <ele>115.40000152588</ele>
        <time>2020-10-18T13:16:29.000Z</time>
      </trkpt>
      <trkpt lat="48.25363" lon="-3.49206">
        <ele>115.19999694824</ele>
        <time>2020-10-18T13:16:30.000Z</time>
      </trkpt>
      <trkpt lat="48.25363" lon="-3.49206">
        <ele>115.19999694824</ele>
        <time>2020-10-18T13:16:31.000Z</time>
      </trkpt>
      <trkpt lat="48.25363" lon="-3.492">
        <ele>115</ele>
        <time>2020-10-18T13:16:32.000Z</time>
      </trkpt>
      <trkpt lat="48.25362" lon="-3.49188">
        <ele>114.80000305176</ele>
        <time>2020-10-18T13:16:33.000Z</time>
      </trkpt>
      <trkpt lat="48.25362" lon="-3.49188">
        <ele>114.80000305176</ele>
        <time>2020-10-18T13:16:34.000Z</time>
      </trkpt>
      <trkpt lat="48.25361" lon="-3.49182">
        <ele>114.80000305176</ele>
        <time>2020-10-18T13:16:35.000Z</time>
      </trkpt>
      <trkpt lat="48.2536" lon="-3.4917">
        <ele>114.80000305176</ele>
        <time>2020-10-18T13:16:36.000Z</time>
      </trkpt>
      <trkpt lat="48.2536" lon="-3.4917">
        <ele>114.80000305176</ele>
        <time>2020-10-18T13:16:37.000Z</time>
      </trkpt>
      <trkpt lat="48.25359" lon="-3.49164">
        <ele>114.80000305176</ele>
        <time>2020-10-18T13:16:38.000Z</time>
      </trkpt>
      <trkpt lat="48.25357" lon="-3.49152">
        <ele>115</ele>
        <time>2020-10-18T13:16:39.000Z</time>
      </trkpt>
      <trkpt lat="48.25357" lon="-3.49152">
        <ele>115</ele>
        <time>2020-10-18T13:16:40.000Z</time>
      </trkpt>
      <trkpt lat="48.25356" lon="-3.49146">
        <ele>115</ele>
        <time>2020-10-18T13:16:41.000Z</time>
      </trkpt>
      <trkpt lat="48.25355" lon="-3.49134">
        <ele>115</ele>
        <time>2020-10-18T13:16:42.000Z</time>
      </trkpt>
      <trkpt lat="48.25355" lon="-3.49134">
        <ele>115</ele>
        <time>2020-10-18T13:16:43.000Z</time>
      </trkpt>
      <trkpt lat="48.25355" lon="-3.49128">
        <ele>115.19999694824</ele>
        <time>2020-10-18T13:16:44.000Z</time>
      </trkpt>
      <trkpt lat="48.25355" lon="-3.49115">
        <ele>115.19999694824</ele>
        <time>2020-10-18T13:16:45.000Z</time>
      </trkpt>
      <trkpt lat="48.25355" lon="-3.49115">
        <ele>115.19999694824</ele>
        <time>2020-10-18T13:16:46.000Z</time>
      </trkpt>
      <trkpt lat="48.25354" lon="-3.4911">
        <ele>115.19999694824</ele>
        <time>2020-10-18T13:16:47.000Z</time>
      </trkpt>
      <trkpt lat="48.25354" lon="-3.49104">
        <ele>115.40000152588</ele>
        <time>2020-10-18T13:16:48.000Z</time>
      </trkpt>
      <trkpt lat="48.25352" lon="-3.49091">
        <ele>115.40000152588</ele>
        <time>2020-10-18T13:16:49.000Z</time>
      </trkpt>
      <trkpt lat="48.25352" lon="-3.49091">
        <ele>115.40000152588</ele>
        <time>2020-10-18T13:16:50.000Z</time>
      </trkpt>
      <trkpt lat="48.25351" lon="-3.49085">
        <ele>115.40000152588</ele>
        <time>2020-10-18T13:16:51.000Z</time>
      </trkpt>
      <trkpt lat="48.25349" lon="-3.49071">
        <ele>115.19999694824</ele>
        <time>2020-10-18T13:16:52.000Z</time>
      </trkpt>
      <trkpt lat="48.25349" lon="-3.49071">
        <ele>115.19999694824</ele>
        <time>2020-10-18T13:16:53.000Z</time>
      </trkpt>
      <trkpt lat="48.25348" lon="-3.49065">
        <ele>115.19999694824</ele>
        <time>2020-10-18T13:16:54.000Z</time>
      </trkpt>
      <trkpt lat="48.25347" lon="-3.49051">
        <ele>115</ele>
        <time>2020-10-18T13:16:55.000Z</time>
      </trkpt>
      <trkpt lat="48.25347" lon="-3.49051">
        <ele>115</ele>
        <time>2020-10-18T13:16:56.000Z</time>
      </trkpt>
      <trkpt lat="48.25346" lon="-3.49044">
        <ele>115</ele>
        <time>2020-10-18T13:16:57.000Z</time>
      </trkpt>
      <trkpt lat="48.25345" lon="-3.49031">
        <ele>115</ele>
        <time>2020-10-18T13:16:58.000Z</time>
      </trkpt>
      <trkpt lat="48.25345" lon="-3.49031">
        <ele>115</ele>
        <time>2020-10-18T13:16:59.000Z</time>
      </trkpt>
      <trkpt lat="48.25345" lon="-3.49024">
        <ele>115</ele>
        <time>2020-10-18T13:17:00.000Z</time>
      </trkpt>
      <trkpt lat="48.25344" lon="-3.49011">
        <ele>115</ele>
        <time>2020-10-18T13:17:01.000Z</time>
      </trkpt>
      <trkpt lat="48.25344" lon="-3.49011">
        <ele>115</ele>
        <time>2020-10-18T13:17:02.000Z</time>
      </trkpt>
      <trkpt lat="48.25342" lon="-3.48999">
        <ele>115</ele>
        <time>2020-10-18T13:17:03.000Z</time>
      </trkpt>
      <trkpt lat="48.25341" lon="-3.48993">
        <ele>115</ele>
        <time>2020-10-18T13:17:04.000Z</time>
      </trkpt>
      <trkpt lat="48.25341" lon="-3.48993">
        <ele>115</ele>
        <time>2020-10-18T13:17:05.000Z</time>
      </trkpt>
      <trkpt lat="48.2534" lon="-3.48987">
        <ele>115</ele>
        <time>2020-10-18T13:17:06.000Z</time>
      </trkpt>
      <trkpt lat="48.25339" lon="-3.48976">
        <ele>115</ele>
        <time>2020-10-18T13:17:07.000Z</time>
      </trkpt>
      <trkpt lat="48.25339" lon="-3.48976">
        <ele>115</ele>
        <time>2020-10-18T13:17:08.000Z</time>
      </trkpt>
      <trkpt lat="48.25338" lon="-3.4897">
        <ele>115</ele>
        <time>2020-10-18T13:17:09.000Z</time>
      </trkpt>
      <trkpt lat="48.25337" lon="-3.48959">
        <ele>115</ele>
        <time>2020-10-18T13:17:10.000Z</time>
      </trkpt>
      <trkpt lat="48.25336" lon="-3.48954">
        <ele>115</ele>
        <time>2020-10-18T13:17:11.000Z</time>
      </trkpt>
      <trkpt lat="48.25336" lon="-3.48954">
        <ele>115</ele>
        <time>2020-10-18T13:17:12.000Z</time>
      </trkpt>
      <trkpt lat="48.25335" lon="-3.48949">
        <ele>115</ele>
        <time>2020-10-18T13:17:13.000Z</time>
      </trkpt>
      <trkpt lat="48.25334" lon="-3.48938">
        <ele>115.19999694824</ele>
        <time>2020-10-18T13:17:14.000Z</time>
      </trkpt>
      <trkpt lat="48.25334" lon="-3.48938">
        <ele>115.19999694824</ele>
        <time>2020-10-18T13:17:15.000Z</time>
      </trkpt>
      <trkpt lat="48.25334" lon="-3.48933">
        <ele>115.19999694824</ele>
        <time>2020-10-18T13:17:16.000Z</time>
      </trkpt>
      <trkpt lat="48.25333" lon="-3.48922">
        <ele>115.40000152588</ele>
        <time>2020-10-18T13:17:17.000Z</time>
      </trkpt>
      <trkpt lat="48.25333" lon="-3.48922">
        <ele>115.40000152588</ele>
        <time>2020-10-18T13:17:18.000Z</time>
      </trkpt>
      <trkpt lat="48.25332" lon="-3.48917">
        <ele>115.40000152588</ele>
        <time>2020-10-18T13:17:19.000Z</time>
      </trkpt>
      <trkpt lat="48.25331" lon="-3.48906">
        <ele>115.40000152588</ele>
        <time>2020-10-18T13:17:20.000Z</time>
      </trkpt>
      <trkpt lat="48.25331" lon="-3.48906">
        <ele>115.40000152588</ele>
        <time>2020-10-18T13:17:21.000Z</time>
      </trkpt>
      <trkpt lat="48.25331" lon="-3.489">
        <ele>115.40000152588</ele>
        <time>2020-10-18T13:17:22.000Z</time>
      </trkpt>
      <trkpt lat="48.2533" lon="-3.48888">
        <ele>115.40000152588</ele>
        <time>2020-10-18T13:17:23.000Z</time>
      </trkpt>
      <trkpt lat="48.2533" lon="-3.48888">
        <ele>115.40000152588</ele>
        <time>2020-10-18T13:17:24.000Z</time>
      </trkpt>
      <trkpt lat="48.25329" lon="-3.48881">
        <ele>115.40000152588</ele>
        <time>2020-10-18T13:17:25.000Z</time>
      </trkpt>
      <trkpt lat="48.25328" lon="-3.48869">
        <ele>115.40000152588</ele>
        <time>2020-10-18T13:17:26.000Z</time>
      </trkpt>
      <trkpt lat="48.25328" lon="-3.48869">
        <ele>115.40000152588</ele>
        <time>2020-10-18T13:17:27.000Z</time>
      </trkpt>
      <trkpt lat="48.25327" lon="-3.48863">
        <ele>115.59999847412</ele>
        <time>2020-10-18T13:17:28.000Z</time>
      </trkpt>
      <trkpt lat="48.25325" lon="-3.48852">
        <ele>115.80000305176</ele>
        <time>2020-10-18T13:17:29.000Z</time>
      </trkpt>
      <trkpt lat="48.25325" lon="-3.48852">
        <ele>115.80000305176</ele>
        <time>2020-10-18T13:17:30.000Z</time>
      </trkpt>
      <trkpt lat="48.25325" lon="-3.48846">
        <ele>115.80000305176</ele>
        <time>2020-10-18T13:17:31.000Z</time>
      </trkpt>
      <trkpt lat="48.25323" lon="-3.48834">
        <ele>115.59999847412</ele>
        <time>2020-10-18T13:17:32.000Z</time>
      </trkpt>
      <trkpt lat="48.25323" lon="-3.48834">
        <ele>115.59999847412</ele>
        <time>2020-10-18T13:17:33.000Z</time>
      </trkpt>
      <trkpt lat="48.25322" lon="-3.48827">
        <ele>115.59999847412</ele>
        <time>2020-10-18T13:17:34.000Z</time>
      </trkpt>
      <trkpt lat="48.25321" lon="-3.48814">
        <ele>115.40000152588</ele>
        <time>2020-10-18T13:17:35.000Z</time>
      </trkpt>
      <trkpt lat="48.25321" lon="-3.48814">
        <ele>115.40000152588</ele>
        <time>2020-10-18T13:17:36.000Z</time>
      </trkpt>
      <trkpt lat="48.25321" lon="-3.48808">
        <ele>115.40000152588</ele>
        <time>2020-10-18T13:17:37.000Z</time>
      </trkpt>
      <trkpt lat="48.2532" lon="-3.48795">
        <ele>115.19999694824</ele>
        <time>2020-10-18T13:17:38.000Z</time>
      </trkpt>
      <trkpt lat="48.2532" lon="-3.48795">
        <ele>115.19999694824</ele>
        <time>2020-10-18T13:17:39.000Z</time>
      </trkpt>
      <trkpt lat="48.25319" lon="-3.48789">
        <ele>115.40000152588</ele>
        <time>2020-10-18T13:17:40.000Z</time>
      </trkpt>
      <trkpt lat="48.25318" lon="-3.48777">
        <ele>115.59999847412</ele>
        <time>2020-10-18T13:17:41.000Z</time>
      </trkpt>
      <trkpt lat="48.25318" lon="-3.48777">
        <ele>115.59999847412</ele>
        <time>2020-10-18T13:17:42.000Z</time>
      </trkpt>
      <trkpt lat="48.25318" lon="-3.4877">
        <ele>115.59999847412</ele>
        <time>2020-10-18T13:17:43.000Z</time>
      </trkpt>
      <trkpt lat="48.2532" lon="-3.48757">
        <ele>115.59999847412</ele>
        <time>2020-10-18T13:17:44.000Z</time>
      </trkpt>
      <trkpt lat="48.2532" lon="-3.48757">
        <ele>115.59999847412</ele>
        <time>2020-10-18T13:17:45.000Z</time>
      </trkpt>
      <trkpt lat="48.25321" lon="-3.48751">
        <ele>115.59999847412</ele>
        <time>2020-10-18T13:17:46.000Z</time>
      </trkpt>
      <trkpt lat="48.25324" lon="-3.48738">
        <ele>115.59999847412</ele>
        <time>2020-10-18T13:17:47.000Z</time>
      </trkpt>
      <trkpt lat="48.25324" lon="-3.48738">
        <ele>115.59999847412</ele>
        <time>2020-10-18T13:17:48.000Z</time>
      </trkpt>
      <trkpt lat="48.25327" lon="-3.48726">
        <ele>115.59999847412</ele>
        <time>2020-10-18T13:17:49.000Z</time>
      </trkpt>
      <trkpt lat="48.25327" lon="-3.48726">
        <ele>115.59999847412</ele>
        <time>2020-10-18T13:17:50.000Z</time>
      </trkpt>
      <trkpt lat="48.25329" lon="-3.4872">
        <ele>115.59999847412</ele>
        <time>2020-10-18T13:17:51.000Z</time>
      </trkpt>
      <trkpt lat="48.25333" lon="-3.48709">
        <ele>115.40000152588</ele>
        <time>2020-10-18T13:17:52.000Z</time>
      </trkpt>
      <trkpt lat="48.25333" lon="-3.48709">
        <ele>115.40000152588</ele>
        <time>2020-10-18T13:17:53.000Z</time>
      </trkpt>
      <trkpt lat="48.25337" lon="-3.48704">
        <ele>115.19999694824</ele>
        <time>2020-10-18T13:17:54.000Z</time>
      </trkpt>
      <trkpt lat="48.25343" lon="-3.48694">
        <ele>115</ele>
        <time>2020-10-18T13:17:55.000Z</time>
      </trkpt>
      <trkpt lat="48.25343" lon="-3.48694">
        <ele>115</ele>
        <time>2020-10-18T13:17:56.000Z</time>
      </trkpt>
      <trkpt lat="48.25348" lon="-3.48686">
        <ele>115.19999694824</ele>
        <time>2020-10-18T13:17:57.000Z</time>
      </trkpt>
      <trkpt lat="48.25348" lon="-3.48686">
        <ele>115.19999694824</ele>
        <time>2020-10-18T13:17:58.000Z</time>
      </trkpt>
      <trkpt lat="48.25354" lon="-3.48678">
        <ele>115.59999847412</ele>
        <time>2020-10-18T13:17:59.000Z</time>
      </trkpt>
      <trkpt lat="48.25354" lon="-3.48678">
        <ele>115.59999847412</ele>
        <time>2020-10-18T13:18:00.000Z</time>
      </trkpt>
      <trkpt lat="48.25357" lon="-3.48674">
        <ele>115.59999847412</ele>
        <time>2020-10-18T13:18:01.000Z</time>
      </trkpt>
      <trkpt lat="48.25363" lon="-3.48666">
        <ele>115.80000305176</ele>
        <time>2020-10-18T13:18:02.000Z</time>
      </trkpt>
      <trkpt lat="48.25363" lon="-3.48666">
        <ele>115.80000305176</ele>
        <time>2020-10-18T13:18:03.000Z</time>
      </trkpt>
      <trkpt lat="48.25369" lon="-3.48658">
        <ele>116.19999694824</ele>
        <time>2020-10-18T13:18:04.000Z</time>
      </trkpt>
      <trkpt lat="48.25369" lon="-3.48658">
        <ele>116.19999694824</ele>
        <time>2020-10-18T13:18:05.000Z</time>
      </trkpt>
      <trkpt lat="48.25371" lon="-3.48655">
        <ele>116.40000152588</ele>
        <time>2020-10-18T13:18:06.000Z</time>
      </trkpt>
      <trkpt lat="48.25378" lon="-3.48648">
        <ele>116.59999847412</ele>
        <time>2020-10-18T13:18:07.000Z</time>
      </trkpt>
      <trkpt lat="48.25378" lon="-3.48648">
        <ele>116.59999847412</ele>
        <time>2020-10-18T13:18:08.000Z</time>
      </trkpt>
      <trkpt lat="48.25382" lon="-3.48644">
        <ele>116.80000305176</ele>
        <time>2020-10-18T13:18:09.000Z</time>
      </trkpt>
      <trkpt lat="48.25389" lon="-3.48637">
        <ele>117.19999694824</ele>
        <time>2020-10-18T13:18:10.000Z</time>
      </trkpt>
      <trkpt lat="48.25389" lon="-3.48637">
        <ele>117.19999694824</ele>
        <time>2020-10-18T13:18:11.000Z</time>
      </trkpt>
      <trkpt lat="48.25393" lon="-3.48634">
        <ele>117.40000152588</ele>
        <time>2020-10-18T13:18:12.000Z</time>
      </trkpt>
      <trkpt lat="48.254" lon="-3.48627">
        <ele>117.59999847412</ele>
        <time>2020-10-18T13:18:13.000Z</time>
      </trkpt>
      <trkpt lat="48.254" lon="-3.48627">
        <ele>117.59999847412</ele>
        <time>2020-10-18T13:18:14.000Z</time>
      </trkpt>
      <trkpt lat="48.25404" lon="-3.48624">
        <ele>117.80000305176</ele>
        <time>2020-10-18T13:18:15.000Z</time>
      </trkpt>
      <trkpt lat="48.25411" lon="-3.48616">
        <ele>118.19999694824</ele>
        <time>2020-10-18T13:18:16.000Z</time>
      </trkpt>
      <trkpt lat="48.25411" lon="-3.48616">
        <ele>118.19999694824</ele>
        <time>2020-10-18T13:18:17.000Z</time>
      </trkpt>
      <trkpt lat="48.25418" lon="-3.48608">
        <ele>118.59999847412</ele>
        <time>2020-10-18T13:18:18.000Z</time>
      </trkpt>
      <trkpt lat="48.25418" lon="-3.48608">
        <ele>118.59999847412</ele>
        <time>2020-10-18T13:18:19.000Z</time>
      </trkpt>
      <trkpt lat="48.25422" lon="-3.48605">
        <ele>118.80000305176</ele>
        <time>2020-10-18T13:18:20.000Z</time>
      </trkpt>
      <trkpt lat="48.25429" lon="-3.48597">
        <ele>119</ele>
        <time>2020-10-18T13:18:21.000Z</time>
      </trkpt>
      <trkpt lat="48.25429" lon="-3.48597">
        <ele>119</ele>
        <time>2020-10-18T13:18:22.000Z</time>
      </trkpt>
      <trkpt lat="48.25432" lon="-3.48594">
        <ele>119</ele>
        <time>2020-10-18T13:18:23.000Z</time>
      </trkpt>
      <trkpt lat="48.25438" lon="-3.48586">
        <ele>119.19999694824</ele>
        <time>2020-10-18T13:18:24.000Z</time>
      </trkpt>
      <trkpt lat="48.25438" lon="-3.48586">
        <ele>119.19999694824</ele>
        <time>2020-10-18T13:18:25.000Z</time>
      </trkpt>
      <trkpt lat="48.25441" lon="-3.48581">
        <ele>119.19999694824</ele>
        <time>2020-10-18T13:18:26.000Z</time>
      </trkpt>
      <trkpt lat="48.25447" lon="-3.48573">
        <ele>119.40000152588</ele>
        <time>2020-10-18T13:18:27.000Z</time>
      </trkpt>
      <trkpt lat="48.25447" lon="-3.48573">
        <ele>119.40000152588</ele>
        <time>2020-10-18T13:18:28.000Z</time>
      </trkpt>
      <trkpt lat="48.2545" lon="-3.4857">
        <ele>119.40000152588</ele>
        <time>2020-10-18T13:18:29.000Z</time>
      </trkpt>
      <trkpt lat="48.25456" lon="-3.48563">
        <ele>119.59999847412</ele>
        <time>2020-10-18T13:18:30.000Z</time>
      </trkpt>
      <trkpt lat="48.25456" lon="-3.48563">
        <ele>119.59999847412</ele>
        <time>2020-10-18T13:18:31.000Z</time>
      </trkpt>
      <trkpt lat="48.25459" lon="-3.48559">
        <ele>119.80000305176</ele>
        <time>2020-10-18T13:18:32.000Z</time>
      </trkpt>
      <trkpt lat="48.25465" lon="-3.48552">
        <ele>119.80000305176</ele>
        <time>2020-10-18T13:18:33.000Z</time>
      </trkpt>
      <trkpt lat="48.25465" lon="-3.48552">
        <ele>119.80000305176</ele>
        <time>2020-10-18T13:18:34.000Z</time>
      </trkpt>
      <trkpt lat="48.25468" lon="-3.48548">
        <ele>120</ele>
        <time>2020-10-18T13:18:35.000Z</time>
      </trkpt>
      <trkpt lat="48.25476" lon="-3.4854">
        <ele>120.19999694824</ele>
        <time>2020-10-18T13:18:36.000Z</time>
      </trkpt>
      <trkpt lat="48.25476" lon="-3.4854">
        <ele>120.19999694824</ele>
        <time>2020-10-18T13:18:37.000Z</time>
      </trkpt>
      <trkpt lat="48.25479" lon="-3.48536">
        <ele>120.19999694824</ele>
        <time>2020-10-18T13:18:38.000Z</time>
      </trkpt>
      <trkpt lat="48.25486" lon="-3.48528">
        <ele>120.40000152588</ele>
        <time>2020-10-18T13:18:39.000Z</time>
      </trkpt>
      <trkpt lat="48.25486" lon="-3.48528">
        <ele>120.40000152588</ele>
        <time>2020-10-18T13:18:40.000Z</time>
      </trkpt>
      <trkpt lat="48.25489" lon="-3.48524">
        <ele>120.40000152588</ele>
        <time>2020-10-18T13:18:41.000Z</time>
      </trkpt>
      <trkpt lat="48.25496" lon="-3.48516">
        <ele>120.59999847412</ele>
        <time>2020-10-18T13:18:42.000Z</time>
      </trkpt>
      <trkpt lat="48.25496" lon="-3.48516">
        <ele>120.59999847412</ele>
        <time>2020-10-18T13:18:43.000Z</time>
      </trkpt>
      <trkpt lat="48.25499" lon="-3.48513">
        <ele>120.59999847412</ele>
        <time>2020-10-18T13:18:44.000Z</time>
      </trkpt>
      <trkpt lat="48.25506" lon="-3.48505">
        <ele>120.80000305176</ele>
        <time>2020-10-18T13:18:45.000Z</time>
      </trkpt>
      <trkpt lat="48.25506" lon="-3.48505">
        <ele>120.80000305176</ele>
        <time>2020-10-18T13:18:46.000Z</time>
      </trkpt>
      <trkpt lat="48.25508" lon="-3.485">
        <ele>120.80000305176</ele>
        <time>2020-10-18T13:18:47.000Z</time>
      </trkpt>
      <trkpt lat="48.25511" lon="-3.48496">
        <ele>121</ele>
        <time>2020-10-18T13:18:48.000Z</time>
      </trkpt>
      <trkpt lat="48.25519" lon="-3.48488">
        <ele>121.59999847412</ele>
        <time>2020-10-18T13:18:49.000Z</time>
      </trkpt>
      <trkpt lat="48.25519" lon="-3.48488">
        <ele>121.59999847412</ele>
        <time>2020-10-18T13:18:50.000Z</time>
      </trkpt>
      <trkpt lat="48.25522" lon="-3.48483">
        <ele>122</ele>
        <time>2020-10-18T13:18:51.000Z</time>
      </trkpt>
      <trkpt lat="48.25529" lon="-3.48475">
        <ele>122.80000305176</ele>
        <time>2020-10-18T13:18:52.000Z</time>
      </trkpt>
      <trkpt lat="48.25529" lon="-3.48475">
        <ele>122.80000305176</ele>
        <time>2020-10-18T13:18:53.000Z</time>
      </trkpt>
      <trkpt lat="48.25531" lon="-3.4847">
        <ele>123</ele>
        <time>2020-10-18T13:18:54.000Z</time>
      </trkpt>
      <trkpt lat="48.25537" lon="-3.4846">
        <ele>123.59999847412</ele>
        <time>2020-10-18T13:18:55.000Z</time>
      </trkpt>
      <trkpt lat="48.25537" lon="-3.4846">
        <ele>123.59999847412</ele>
        <time>2020-10-18T13:18:56.000Z</time>
      </trkpt>
      <trkpt lat="48.25539" lon="-3.48455">
        <ele>123.80000305176</ele>
        <time>2020-10-18T13:18:57.000Z</time>
      </trkpt>
      <trkpt lat="48.25544" lon="-3.48445">
        <ele>124.40000152588</ele>
        <time>2020-10-18T13:18:58.000Z</time>
      </trkpt>
      <trkpt lat="48.25544" lon="-3.48445">
        <ele>124.40000152588</ele>
        <time>2020-10-18T13:18:59.000Z</time>
      </trkpt>
      <trkpt lat="48.25549" lon="-3.48434">
        <ele>124.80000305176</ele>
        <time>2020-10-18T13:19:00.000Z</time>
      </trkpt>
      <trkpt lat="48.25549" lon="-3.48434">
        <ele>124.80000305176</ele>
        <time>2020-10-18T13:19:01.000Z</time>
      </trkpt>
      <trkpt lat="48.25551" lon="-3.48429">
        <ele>125</ele>
        <time>2020-10-18T13:19:02.000Z</time>
      </trkpt>
      <trkpt lat="48.25553" lon="-3.48417">
        <ele>124.80000305176</ele>
        <time>2020-10-18T13:19:03.000Z</time>
      </trkpt>
      <trkpt lat="48.25553" lon="-3.48417">
        <ele>124.80000305176</ele>
        <time>2020-10-18T13:19:04.000Z</time>
      </trkpt>
      <trkpt lat="48.25554" lon="-3.48409">
        <ele>124.59999847412</ele>
        <time>2020-10-18T13:19:05.000Z</time>
      </trkpt>
      <trkpt lat="48.25555" lon="-3.48395">
        <ele>124.19999694824</ele>
        <time>2020-10-18T13:19:06.000Z</time>
      </trkpt>
      <trkpt lat="48.25555" lon="-3.48395">
        <ele>124.19999694824</ele>
        <time>2020-10-18T13:19:07.000Z</time>
      </trkpt>
      <trkpt lat="48.25556" lon="-3.48388">
        <ele>124.19999694824</ele>
        <time>2020-10-18T13:19:08.000Z</time>
      </trkpt>
      <trkpt lat="48.25557" lon="-3.48382">
        <ele>124.19999694824</ele>
        <time>2020-10-18T13:19:09.000Z</time>
      </trkpt>
      <trkpt lat="48.25557" lon="-3.48369">
        <ele>124.40000152588</ele>
        <time>2020-10-18T13:19:10.000Z</time>
      </trkpt>
      <trkpt lat="48.25557" lon="-3.48369">
        <ele>124.40000152588</ele>
        <time>2020-10-18T13:19:11.000Z</time>
      </trkpt>
      <trkpt lat="48.25556" lon="-3.48363">
        <ele>124.40000152588</ele>
        <time>2020-10-18T13:19:12.000Z</time>
      </trkpt>
      <trkpt lat="48.25555" lon="-3.4835">
        <ele>124.59999847412</ele>
        <time>2020-10-18T13:19:13.000Z</time>
      </trkpt>
      <trkpt lat="48.25555" lon="-3.4835">
        <ele>124.59999847412</ele>
        <time>2020-10-18T13:19:14.000Z</time>
      </trkpt>
      <trkpt lat="48.25554" lon="-3.48344">
        <ele>124.59999847412</ele>
        <time>2020-10-18T13:19:15.000Z</time>
      </trkpt>
      <trkpt lat="48.25552" lon="-3.48331">
        <ele>124.80000305176</ele>
        <time>2020-10-18T13:19:16.000Z</time>
      </trkpt>
      <trkpt lat="48.25552" lon="-3.48331">
        <ele>124.80000305176</ele>
        <time>2020-10-18T13:19:17.000Z</time>
      </trkpt>
      <trkpt lat="48.2555" lon="-3.48324">
        <ele>124.80000305176</ele>
        <time>2020-10-18T13:19:18.000Z</time>
      </trkpt>
      <trkpt lat="48.25547" lon="-3.48311">
        <ele>124.80000305176</ele>
        <time>2020-10-18T13:19:19.000Z</time>
      </trkpt>
      <trkpt lat="48.25547" lon="-3.48311">
        <ele>124.80000305176</ele>
        <time>2020-10-18T13:19:20.000Z</time>
      </trkpt>
      <trkpt lat="48.25545" lon="-3.48304">
        <ele>124.40000152588</ele>
        <time>2020-10-18T13:19:21.000Z</time>
      </trkpt>
      <trkpt lat="48.25542" lon="-3.48291">
        <ele>123.80000305176</ele>
        <time>2020-10-18T13:19:22.000Z</time>
      </trkpt>
      <trkpt lat="48.25542" lon="-3.48291">
        <ele>123.80000305176</ele>
        <time>2020-10-18T13:19:23.000Z</time>
      </trkpt>
      <trkpt lat="48.25541" lon="-3.48284">
        <ele>123.40000152588</ele>
        <time>2020-10-18T13:19:24.000Z</time>
      </trkpt>
      <trkpt lat="48.25537" lon="-3.48271">
        <ele>122.80000305176</ele>
        <time>2020-10-18T13:19:25.000Z</time>
      </trkpt>
      <trkpt lat="48.25537" lon="-3.48271">
        <ele>122.80000305176</ele>
        <time>2020-10-18T13:19:26.000Z</time>
      </trkpt>
      <trkpt lat="48.25536" lon="-3.48264">
        <ele>122.59999847412</ele>
        <time>2020-10-18T13:19:27.000Z</time>
      </trkpt>
      <trkpt lat="48.25532" lon="-3.48251">
        <ele>122.59999847412</ele>
        <time>2020-10-18T13:19:28.000Z</time>
      </trkpt>
      <trkpt lat="48.25531" lon="-3.48244">
        <ele>122.59999847412</ele>
        <time>2020-10-18T13:19:29.000Z</time>
      </trkpt>
      <trkpt lat="48.25531" lon="-3.48244">
        <ele>122.59999847412</ele>
        <time>2020-10-18T13:19:30.000Z</time>
      </trkpt>
      <trkpt lat="48.25529" lon="-3.48238">
        <ele>122.40000152588</ele>
        <time>2020-10-18T13:19:31.000Z</time>
      </trkpt>
      <trkpt lat="48.25526" lon="-3.48225">
        <ele>121.80000305176</ele>
        <time>2020-10-18T13:19:32.000Z</time>
      </trkpt>
      <trkpt lat="48.25526" lon="-3.48225">
        <ele>121.80000305176</ele>
        <time>2020-10-18T13:19:33.000Z</time>
      </trkpt>
      <trkpt lat="48.25524" lon="-3.48218">
        <ele>121.59999847412</ele>
        <time>2020-10-18T13:19:34.000Z</time>
      </trkpt>
      <trkpt lat="48.25521" lon="-3.48204">
        <ele>121.19999694824</ele>
        <time>2020-10-18T13:19:35.000Z</time>
      </trkpt>
      <trkpt lat="48.25521" lon="-3.48204">
        <ele>121.19999694824</ele>
        <time>2020-10-18T13:19:36.000Z</time>
      </trkpt>
      <trkpt lat="48.25519" lon="-3.48197">
        <ele>121</ele>
        <time>2020-10-18T13:19:37.000Z</time>
      </trkpt>
      <trkpt lat="48.25516" lon="-3.48183">
        <ele>120.40000152588</ele>
        <time>2020-10-18T13:19:38.000Z</time>
      </trkpt>
      <trkpt lat="48.25516" lon="-3.48183">
        <ele>120.40000152588</ele>
        <time>2020-10-18T13:19:39.000Z</time>
      </trkpt>
      <trkpt lat="48.25514" lon="-3.48177">
        <ele>120</ele>
        <time>2020-10-18T13:19:40.000Z</time>
      </trkpt>
      <trkpt lat="48.25511" lon="-3.48164">
        <ele>119.59999847412</ele>
        <time>2020-10-18T13:19:41.000Z</time>
      </trkpt>
      <trkpt lat="48.25511" lon="-3.48164">
        <ele>119.59999847412</ele>
        <time>2020-10-18T13:19:42.000Z</time>
      </trkpt>
      <trkpt lat="48.25509" lon="-3.48158">
        <ele>119.40000152588</ele>
        <time>2020-10-18T13:19:43.000Z</time>
      </trkpt>
      <trkpt lat="48.25506" lon="-3.48145">
        <ele>119</ele>
        <time>2020-10-18T13:19:44.000Z</time>
      </trkpt>
      <trkpt lat="48.25506" lon="-3.48145">
        <ele>119</ele>
        <time>2020-10-18T13:19:45.000Z</time>
      </trkpt>
      <trkpt lat="48.25504" lon="-3.48138">
        <ele>119</ele>
        <time>2020-10-18T13:19:46.000Z</time>
      </trkpt>
      <trkpt lat="48.25501" lon="-3.48125">
        <ele>118.59999847412</ele>
        <time>2020-10-18T13:19:47.000Z</time>
      </trkpt>
      <trkpt lat="48.255" lon="-3.48118">
        <ele>118.40000152588</ele>
        <time>2020-10-18T13:19:48.000Z</time>
      </trkpt>
      <trkpt lat="48.255" lon="-3.48118">
        <ele>118.40000152588</ele>
        <time>2020-10-18T13:19:49.000Z</time>
      </trkpt>
      <trkpt lat="48.25499" lon="-3.48112">
        <ele>118.40000152588</ele>
        <time>2020-10-18T13:19:50.000Z</time>
      </trkpt>
      <trkpt lat="48.25496" lon="-3.48098">
        <ele>118.40000152588</ele>
        <time>2020-10-18T13:19:51.000Z</time>
      </trkpt>
      <trkpt lat="48.25496" lon="-3.48098">
        <ele>118.40000152588</ele>
        <time>2020-10-18T13:19:52.000Z</time>
      </trkpt>
      <trkpt lat="48.25494" lon="-3.48091">
        <ele>118.40000152588</ele>
        <time>2020-10-18T13:19:53.000Z</time>
      </trkpt>
      <trkpt lat="48.25491" lon="-3.48078">
        <ele>118.19999694824</ele>
        <time>2020-10-18T13:19:54.000Z</time>
      </trkpt>
      <trkpt lat="48.25491" lon="-3.48078">
        <ele>118.19999694824</ele>
        <time>2020-10-18T13:19:55.000Z</time>
      </trkpt>
      <trkpt lat="48.25489" lon="-3.48071">
        <ele>118.19999694824</ele>
        <time>2020-10-18T13:19:56.000Z</time>
      </trkpt>
      <trkpt lat="48.25486" lon="-3.48058">
        <ele>118.19999694824</ele>
        <time>2020-10-18T13:19:57.000Z</time>
      </trkpt>
      <trkpt lat="48.25486" lon="-3.48058">
        <ele>118.19999694824</ele>
        <time>2020-10-18T13:19:58.000Z</time>
      </trkpt>
      <trkpt lat="48.25483" lon="-3.48045">
        <ele>118</ele>
        <time>2020-10-18T13:19:59.000Z</time>
      </trkpt>
      <trkpt lat="48.25483" lon="-3.48045">
        <ele>118</ele>
        <time>2020-10-18T13:20:00.000Z</time>
      </trkpt>
      <trkpt lat="48.2548" lon="-3.48031">
        <ele>118.19999694824</ele>
        <time>2020-10-18T13:20:01.000Z</time>
      </trkpt>
      <trkpt lat="48.25478" lon="-3.48024">
        <ele>118.19999694824</ele>
        <time>2020-10-18T13:20:02.000Z</time>
      </trkpt>
      <trkpt lat="48.25478" lon="-3.48024">
        <ele>118.19999694824</ele>
        <time>2020-10-18T13:20:03.000Z</time>
      </trkpt>
      <trkpt lat="48.25476" lon="-3.48011">
        <ele>118.40000152588</ele>
        <time>2020-10-18T13:20:04.000Z</time>
      </trkpt>
      <trkpt lat="48.25476" lon="-3.48011">
        <ele>118.40000152588</ele>
        <time>2020-10-18T13:20:05.000Z</time>
      </trkpt>
      <trkpt lat="48.25475" lon="-3.48004">
        <ele>118.59999847412</ele>
        <time>2020-10-18T13:20:06.000Z</time>
      </trkpt>
      <trkpt lat="48.25473" lon="-3.47992">
        <ele>118.80000305176</ele>
        <time>2020-10-18T13:20:07.000Z</time>
      </trkpt>
      <trkpt lat="48.25473" lon="-3.47986">
        <ele>118.80000305176</ele>
        <time>2020-10-18T13:20:08.000Z</time>
      </trkpt>
      <trkpt lat="48.25473" lon="-3.47986">
        <ele>118.80000305176</ele>
        <time>2020-10-18T13:20:09.000Z</time>
      </trkpt>
      <trkpt lat="48.25473" lon="-3.4798">
        <ele>118.80000305176</ele>
        <time>2020-10-18T13:20:10.000Z</time>
      </trkpt>
      <trkpt lat="48.25475" lon="-3.47967">
        <ele>118.80000305176</ele>
        <time>2020-10-18T13:20:11.000Z</time>
      </trkpt>
      <trkpt lat="48.25475" lon="-3.47967">
        <ele>118.80000305176</ele>
        <time>2020-10-18T13:20:12.000Z</time>
      </trkpt>
      <trkpt lat="48.25477" lon="-3.4796">
        <ele>118.80000305176</ele>
        <time>2020-10-18T13:20:13.000Z</time>
      </trkpt>
      <trkpt lat="48.2548" lon="-3.47948">
        <ele>118.59999847412</ele>
        <time>2020-10-18T13:20:14.000Z</time>
      </trkpt>
      <trkpt lat="48.2548" lon="-3.47948">
        <ele>118.59999847412</ele>
        <time>2020-10-18T13:20:15.000Z</time>
      </trkpt>
      <trkpt lat="48.25481" lon="-3.47942">
        <ele>118.40000152588</ele>
        <time>2020-10-18T13:20:16.000Z</time>
      </trkpt>
      <trkpt lat="48.25484" lon="-3.47931">
        <ele>118.40000152588</ele>
        <time>2020-10-18T13:20:17.000Z</time>
      </trkpt>
      <trkpt lat="48.25484" lon="-3.47931">
        <ele>118.40000152588</ele>
        <time>2020-10-18T13:20:18.000Z</time>
      </trkpt>
      <trkpt lat="48.25486" lon="-3.47926">
        <ele>118.19999694824</ele>
        <time>2020-10-18T13:20:19.000Z</time>
      </trkpt>
      <trkpt lat="48.25489" lon="-3.47915">
        <ele>117.80000305176</ele>
        <time>2020-10-18T13:20:20.000Z</time>
      </trkpt>
      <trkpt lat="48.25489" lon="-3.47915">
        <ele>117.80000305176</ele>
        <time>2020-10-18T13:20:21.000Z</time>
      </trkpt>
      <trkpt lat="48.25491" lon="-3.47909">
        <ele>117.80000305176</ele>
        <time>2020-10-18T13:20:22.000Z</time>
      </trkpt>
      <trkpt lat="48.25494" lon="-3.47898">
        <ele>117.40000152588</ele>
        <time>2020-10-18T13:20:23.000Z</time>
      </trkpt>
      <trkpt lat="48.25494" lon="-3.47898">
        <ele>117.40000152588</ele>
        <time>2020-10-18T13:20:24.000Z</time>
      </trkpt>
      <trkpt lat="48.25496" lon="-3.47891">
        <ele>117.19999694824</ele>
        <time>2020-10-18T13:20:25.000Z</time>
      </trkpt>
      <trkpt lat="48.255" lon="-3.47877">
        <ele>116.80000305176</ele>
        <time>2020-10-18T13:20:26.000Z</time>
      </trkpt>
      <trkpt lat="48.255" lon="-3.47877">
        <ele>116.80000305176</ele>
        <time>2020-10-18T13:20:27.000Z</time>
      </trkpt>
      <trkpt lat="48.25503" lon="-3.4787">
        <ele>116.59999847412</ele>
        <time>2020-10-18T13:20:28.000Z</time>
      </trkpt>
      <trkpt lat="48.25508" lon="-3.47856">
        <ele>116.19999694824</ele>
        <time>2020-10-18T13:20:29.000Z</time>
      </trkpt>
      <trkpt lat="48.25508" lon="-3.47856">
        <ele>116.19999694824</ele>
        <time>2020-10-18T13:20:30.000Z</time>
      </trkpt>
      <trkpt lat="48.25511" lon="-3.47849">
        <ele>116</ele>
        <time>2020-10-18T13:20:31.000Z</time>
      </trkpt>
      <trkpt lat="48.25516" lon="-3.47837">
        <ele>115.80000305176</ele>
        <time>2020-10-18T13:20:32.000Z</time>
      </trkpt>
      <trkpt lat="48.25516" lon="-3.47837">
        <ele>115.80000305176</ele>
        <time>2020-10-18T13:20:33.000Z</time>
      </trkpt>
      <trkpt lat="48.25518" lon="-3.4783">
        <ele>115.80000305176</ele>
        <time>2020-10-18T13:20:34.000Z</time>
      </trkpt>
      <trkpt lat="48.25521" lon="-3.47818">
        <ele>115.80000305176</ele>
        <time>2020-10-18T13:20:35.000Z</time>
      </trkpt>
      <trkpt lat="48.25521" lon="-3.47818">
        <ele>115.80000305176</ele>
        <time>2020-10-18T13:20:36.000Z</time>
      </trkpt>
      <trkpt lat="48.25523" lon="-3.47813">
        <ele>115.59999847412</ele>
        <time>2020-10-18T13:20:37.000Z</time>
      </trkpt>
      <trkpt lat="48.25526" lon="-3.47802">
        <ele>115.59999847412</ele>
        <time>2020-10-18T13:20:38.000Z</time>
      </trkpt>
      <trkpt lat="48.25526" lon="-3.47802">
        <ele>115.59999847412</ele>
        <time>2020-10-18T13:20:39.000Z</time>
      </trkpt>
      <trkpt lat="48.25528" lon="-3.47796">
        <ele>115.59999847412</ele>
        <time>2020-10-18T13:20:40.000Z</time>
      </trkpt>
      <trkpt lat="48.25531" lon="-3.47784">
        <ele>115.40000152588</ele>
        <time>2020-10-18T13:20:41.000Z</time>
      </trkpt>
      <trkpt lat="48.25531" lon="-3.47784">
        <ele>115.40000152588</ele>
        <time>2020-10-18T13:20:42.000Z</time>
      </trkpt>
      <trkpt lat="48.25534" lon="-3.47778">
        <ele>115.40000152588</ele>
        <time>2020-10-18T13:20:43.000Z</time>
      </trkpt>
      <trkpt lat="48.25537" lon="-3.47767">
        <ele>115.19999694824</ele>
        <time>2020-10-18T13:20:44.000Z</time>
      </trkpt>
      <trkpt lat="48.25537" lon="-3.47767">
        <ele>115.19999694824</ele>
        <time>2020-10-18T13:20:45.000Z</time>
      </trkpt>
      <trkpt lat="48.25539" lon="-3.47761">
        <ele>115.40000152588</ele>
        <time>2020-10-18T13:20:46.000Z</time>
      </trkpt>
      <trkpt lat="48.2554" lon="-3.47756">
        <ele>115.40000152588</ele>
        <time>2020-10-18T13:20:47.000Z</time>
      </trkpt>
      <trkpt lat="48.25544" lon="-3.47744">
        <ele>115.40000152588</ele>
        <time>2020-10-18T13:20:48.000Z</time>
      </trkpt>
      <trkpt lat="48.25544" lon="-3.47744">
        <ele>115.40000152588</ele>
        <time>2020-10-18T13:20:49.000Z</time>
      </trkpt>
      <trkpt lat="48.25545" lon="-3.47739">
        <ele>115.40000152588</ele>
        <time>2020-10-18T13:20:50.000Z</time>
      </trkpt>
      <trkpt lat="48.25549" lon="-3.47726">
        <ele>115.59999847412</ele>
        <time>2020-10-18T13:20:51.000Z</time>
      </trkpt>
      <trkpt lat="48.25549" lon="-3.47726">
        <ele>115.59999847412</ele>
        <time>2020-10-18T13:20:52.000Z</time>
      </trkpt>
      <trkpt lat="48.25551" lon="-3.4772">
        <ele>115.59999847412</ele>
        <time>2020-10-18T13:20:53.000Z</time>
      </trkpt>
      <trkpt lat="48.25555" lon="-3.47708">
        <ele>115.80000305176</ele>
        <time>2020-10-18T13:20:54.000Z</time>
      </trkpt>
      <trkpt lat="48.25555" lon="-3.47708">
        <ele>115.80000305176</ele>
        <time>2020-10-18T13:20:55.000Z</time>
      </trkpt>
      <trkpt lat="48.25558" lon="-3.47702">
        <ele>116</ele>
        <time>2020-10-18T13:20:56.000Z</time>
      </trkpt>
      <trkpt lat="48.25562" lon="-3.4769">
        <ele>116.19999694824</ele>
        <time>2020-10-18T13:20:57.000Z</time>
      </trkpt>
      <trkpt lat="48.25562" lon="-3.4769">
        <ele>116.19999694824</ele>
        <time>2020-10-18T13:20:58.000Z</time>
      </trkpt>
      <trkpt lat="48.25565" lon="-3.47683">
        <ele>116.40000152588</ele>
        <time>2020-10-18T13:20:59.000Z</time>
      </trkpt>
      <trkpt lat="48.25569" lon="-3.47671">
        <ele>117</ele>
        <time>2020-10-18T13:21:00.000Z</time>
      </trkpt>
      <trkpt lat="48.25569" lon="-3.47671">
        <ele>117</ele>
        <time>2020-10-18T13:21:01.000Z</time>
      </trkpt>
      <trkpt lat="48.25571" lon="-3.47665">
        <ele>117.19999694824</ele>
        <time>2020-10-18T13:21:02.000Z</time>
      </trkpt>
      <trkpt lat="48.25575" lon="-3.47653">
        <ele>117.80000305176</ele>
        <time>2020-10-18T13:21:03.000Z</time>
      </trkpt>
      <trkpt lat="48.25575" lon="-3.47653">
        <ele>117.80000305176</ele>
        <time>2020-10-18T13:21:04.000Z</time>
      </trkpt>
      <trkpt lat="48.25577" lon="-3.47646">
        <ele>118</ele>
        <time>2020-10-18T13:21:05.000Z</time>
      </trkpt>
      <trkpt lat="48.25582" lon="-3.47633">
        <ele>118.59999847412</ele>
        <time>2020-10-18T13:21:06.000Z</time>
      </trkpt>
      <trkpt lat="48.25584" lon="-3.47627">
        <ele>118.80000305176</ele>
        <time>2020-10-18T13:21:07.000Z</time>
      </trkpt>
      <trkpt lat="48.25584" lon="-3.47627">
        <ele>118.80000305176</ele>
        <time>2020-10-18T13:21:08.000Z</time>
      </trkpt>
      <trkpt lat="48.25586" lon="-3.4762">
        <ele>119.19999694824</ele>
        <time>2020-10-18T13:21:09.000Z</time>
      </trkpt>
      <trkpt lat="48.25591" lon="-3.47606">
        <ele>119.80000305176</ele>
        <time>2020-10-18T13:21:10.000Z</time>
      </trkpt>
      <trkpt lat="48.25591" lon="-3.47606">
        <ele>119.80000305176</ele>
        <time>2020-10-18T13:21:11.000Z</time>
      </trkpt>
      <trkpt lat="48.25593" lon="-3.476">
        <ele>120</ele>
        <time>2020-10-18T13:21:12.000Z</time>
      </trkpt>
      <trkpt lat="48.25598" lon="-3.47587">
        <ele>120</ele>
        <time>2020-10-18T13:21:13.000Z</time>
      </trkpt>
      <trkpt lat="48.25598" lon="-3.47587">
        <ele>120</ele>
        <time>2020-10-18T13:21:14.000Z</time>
      </trkpt>
      <trkpt lat="48.256" lon="-3.4758">
        <ele>119.80000305176</ele>
        <time>2020-10-18T13:21:15.000Z</time>
      </trkpt>
      <trkpt lat="48.25604" lon="-3.47568">
        <ele>119.80000305176</ele>
        <time>2020-10-18T13:21:16.000Z</time>
      </trkpt>
      <trkpt lat="48.25604" lon="-3.47568">
        <ele>119.80000305176</ele>
        <time>2020-10-18T13:21:17.000Z</time>
      </trkpt>
      <trkpt lat="48.25607" lon="-3.47562">
        <ele>119.80000305176</ele>
        <time>2020-10-18T13:21:18.000Z</time>
      </trkpt>
      <trkpt lat="48.25612" lon="-3.47549">
        <ele>119.59999847412</ele>
        <time>2020-10-18T13:21:19.000Z</time>
      </trkpt>
      <trkpt lat="48.25612" lon="-3.47549">
        <ele>119.59999847412</ele>
        <time>2020-10-18T13:21:20.000Z</time>
      </trkpt>
      <trkpt lat="48.25614" lon="-3.47543">
        <ele>119.59999847412</ele>
        <time>2020-10-18T13:21:21.000Z</time>
      </trkpt>
      <trkpt lat="48.25618" lon="-3.47531">
        <ele>119.40000152588</ele>
        <time>2020-10-18T13:21:22.000Z</time>
      </trkpt>
      <trkpt lat="48.25618" lon="-3.47531">
        <ele>119.40000152588</ele>
        <time>2020-10-18T13:21:23.000Z</time>
      </trkpt>
      <trkpt lat="48.2562" lon="-3.47525">
        <ele>119.40000152588</ele>
        <time>2020-10-18T13:21:24.000Z</time>
      </trkpt>
      <trkpt lat="48.25624" lon="-3.47513">
        <ele>119.40000152588</ele>
        <time>2020-10-18T13:21:25.000Z</time>
      </trkpt>
      <trkpt lat="48.25624" lon="-3.47513">
        <ele>119.40000152588</ele>
        <time>2020-10-18T13:21:26.000Z</time>
      </trkpt>
      <trkpt lat="48.25626" lon="-3.47507">
        <ele>119.40000152588</ele>
        <time>2020-10-18T13:21:27.000Z</time>
      </trkpt>
      <trkpt lat="48.25629" lon="-3.47495">
        <ele>119.40000152588</ele>
        <time>2020-10-18T13:21:28.000Z</time>
      </trkpt>
      <trkpt lat="48.25629" lon="-3.47495">
        <ele>119.40000152588</ele>
        <time>2020-10-18T13:21:29.000Z</time>
      </trkpt>
      <trkpt lat="48.25631" lon="-3.4749">
        <ele>119.40000152588</ele>
        <time>2020-10-18T13:21:30.000Z</time>
      </trkpt>
      <trkpt lat="48.25634" lon="-3.47478">
        <ele>119.59999847412</ele>
        <time>2020-10-18T13:21:31.000Z</time>
      </trkpt>
      <trkpt lat="48.25634" lon="-3.47478">
        <ele>119.59999847412</ele>
        <time>2020-10-18T13:21:32.000Z</time>
      </trkpt>
      <trkpt lat="48.25636" lon="-3.47473">
        <ele>119.59999847412</ele>
        <time>2020-10-18T13:21:33.000Z</time>
      </trkpt>
      <trkpt lat="48.25639" lon="-3.47463">
        <ele>119.80000305176</ele>
        <time>2020-10-18T13:21:34.000Z</time>
      </trkpt>
      <trkpt lat="48.25639" lon="-3.47463">
        <ele>119.80000305176</ele>
        <time>2020-10-18T13:21:35.000Z</time>
      </trkpt>
      <trkpt lat="48.25641" lon="-3.47457">
        <ele>119.80000305176</ele>
        <time>2020-10-18T13:21:36.000Z</time>
      </trkpt>
      <trkpt lat="48.25644" lon="-3.47446">
        <ele>120</ele>
        <time>2020-10-18T13:21:37.000Z</time>
      </trkpt>
      <trkpt lat="48.25644" lon="-3.47446">
        <ele>120</ele>
        <time>2020-10-18T13:21:38.000Z</time>
      </trkpt>
      <trkpt lat="48.25646" lon="-3.4744">
        <ele>120</ele>
        <time>2020-10-18T13:21:39.000Z</time>
      </trkpt>
      <trkpt lat="48.2565" lon="-3.47429">
        <ele>120.19999694824</ele>
        <time>2020-10-18T13:21:40.000Z</time>
      </trkpt>
      <trkpt lat="48.2565" lon="-3.47429">
        <ele>120.19999694824</ele>
        <time>2020-10-18T13:21:41.000Z</time>
      </trkpt>
      <trkpt lat="48.25652" lon="-3.47423">
        <ele>120.40000152588</ele>
        <time>2020-10-18T13:21:42.000Z</time>
      </trkpt>
      <trkpt lat="48.25656" lon="-3.47411">
        <ele>120.59999847412</ele>
        <time>2020-10-18T13:21:43.000Z</time>
      </trkpt>
      <trkpt lat="48.25656" lon="-3.47411">
        <ele>120.59999847412</ele>
        <time>2020-10-18T13:21:44.000Z</time>
      </trkpt>
      <trkpt lat="48.25658" lon="-3.47405">
        <ele>120.80000305176</ele>
        <time>2020-10-18T13:21:45.000Z</time>
      </trkpt>
      <trkpt lat="48.25662" lon="-3.47393">
        <ele>121</ele>
        <time>2020-10-18T13:21:46.000Z</time>
      </trkpt>
      <trkpt lat="48.25664" lon="-3.47387">
        <ele>121.19999694824</ele>
        <time>2020-10-18T13:21:47.000Z</time>
      </trkpt>
      <trkpt lat="48.25664" lon="-3.47387">
        <ele>121.19999694824</ele>
        <time>2020-10-18T13:21:48.000Z</time>
      </trkpt>
      <trkpt lat="48.25667" lon="-3.47374">
        <ele>121.59999847412</ele>
        <time>2020-10-18T13:21:49.000Z</time>
      </trkpt>
      <trkpt lat="48.25667" lon="-3.47374">
        <ele>121.59999847412</ele>
        <time>2020-10-18T13:21:50.000Z</time>
      </trkpt>
      <trkpt lat="48.25669" lon="-3.47367">
        <ele>121.80000305176</ele>
        <time>2020-10-18T13:21:51.000Z</time>
      </trkpt>
      <trkpt lat="48.25672" lon="-3.47353">
        <ele>122</ele>
        <time>2020-10-18T13:21:52.000Z</time>
      </trkpt>
      <trkpt lat="48.25672" lon="-3.47353">
        <ele>122</ele>
        <time>2020-10-18T13:21:53.000Z</time>
      </trkpt>
      <trkpt lat="48.25674" lon="-3.47346">
        <ele>122</ele>
        <time>2020-10-18T13:21:54.000Z</time>
      </trkpt>
      <trkpt lat="48.25676" lon="-3.47332">
        <ele>122</ele>
        <time>2020-10-18T13:21:55.000Z</time>
      </trkpt>
      <trkpt lat="48.25676" lon="-3.47332">
        <ele>122</ele>
        <time>2020-10-18T13:21:56.000Z</time>
      </trkpt>
      <trkpt lat="48.25677" lon="-3.47325">
        <ele>122</ele>
        <time>2020-10-18T13:21:57.000Z</time>
      </trkpt>
      <trkpt lat="48.25677" lon="-3.47312">
        <ele>122</ele>
        <time>2020-10-18T13:21:58.000Z</time>
      </trkpt>
      <trkpt lat="48.25677" lon="-3.47312">
        <ele>122</ele>
        <time>2020-10-18T13:21:59.000Z</time>
      </trkpt>
      <trkpt lat="48.25677" lon="-3.47305">
        <ele>122</ele>
        <time>2020-10-18T13:22:00.000Z</time>
      </trkpt>
      <trkpt lat="48.25676" lon="-3.4729">
        <ele>122</ele>
        <time>2020-10-18T13:22:01.000Z</time>
      </trkpt>
      <trkpt lat="48.25675" lon="-3.47284">
        <ele>122</ele>
        <time>2020-10-18T13:22:02.000Z</time>
      </trkpt>
      <trkpt lat="48.25675" lon="-3.47284">
        <ele>122</ele>
        <time>2020-10-18T13:22:03.000Z</time>
      </trkpt>
      <trkpt lat="48.25673" lon="-3.47271">
        <ele>122</ele>
        <time>2020-10-18T13:22:04.000Z</time>
      </trkpt>
      <trkpt lat="48.25673" lon="-3.47271">
        <ele>122</ele>
        <time>2020-10-18T13:22:05.000Z</time>
      </trkpt>
      <trkpt lat="48.25672" lon="-3.47264">
        <ele>122</ele>
        <time>2020-10-18T13:22:06.000Z</time>
      </trkpt>
      <trkpt lat="48.2567" lon="-3.47252">
        <ele>121.59999847412</ele>
        <time>2020-10-18T13:22:07.000Z</time>
      </trkpt>
      <trkpt lat="48.2567" lon="-3.47252">
        <ele>121.59999847412</ele>
        <time>2020-10-18T13:22:08.000Z</time>
      </trkpt>
      <trkpt lat="48.25669" lon="-3.47247">
        <ele>121.59999847412</ele>
        <time>2020-10-18T13:22:09.000Z</time>
      </trkpt>
      <trkpt lat="48.25667" lon="-3.47235">
        <ele>121.19999694824</ele>
        <time>2020-10-18T13:22:10.000Z</time>
      </trkpt>
      <trkpt lat="48.25667" lon="-3.47235">
        <ele>121.19999694824</ele>
        <time>2020-10-18T13:22:11.000Z</time>
      </trkpt>
      <trkpt lat="48.25666" lon="-3.4723">
        <ele>121.19999694824</ele>
        <time>2020-10-18T13:22:12.000Z</time>
      </trkpt>
      <trkpt lat="48.25664" lon="-3.47218">
        <ele>120.80000305176</ele>
        <time>2020-10-18T13:22:13.000Z</time>
      </trkpt>
      <trkpt lat="48.25664" lon="-3.47218">
        <ele>120.80000305176</ele>
        <time>2020-10-18T13:22:14.000Z</time>
      </trkpt>
      <trkpt lat="48.25663" lon="-3.47212">
        <ele>120.59999847412</ele>
        <time>2020-10-18T13:22:15.000Z</time>
      </trkpt>
      <trkpt lat="48.25661" lon="-3.47201">
        <ele>120.40000152588</ele>
        <time>2020-10-18T13:22:16.000Z</time>
      </trkpt>
      <trkpt lat="48.25661" lon="-3.47201">
        <ele>120.40000152588</ele>
        <time>2020-10-18T13:22:17.000Z</time>
      </trkpt>
      <trkpt lat="48.2566" lon="-3.47197">
        <ele>120.40000152588</ele>
        <time>2020-10-18T13:22:18.000Z</time>
      </trkpt>
      <trkpt lat="48.25658" lon="-3.47187">
        <ele>120.40000152588</ele>
        <time>2020-10-18T13:22:19.000Z</time>
      </trkpt>
      <trkpt lat="48.25658" lon="-3.47187">
        <ele>120.40000152588</ele>
        <time>2020-10-18T13:22:20.000Z</time>
      </trkpt>
      <trkpt lat="48.25657" lon="-3.47183">
        <ele>120.19999694824</ele>
        <time>2020-10-18T13:22:21.000Z</time>
      </trkpt>
      <trkpt lat="48.25656" lon="-3.47176">
        <ele>120.19999694824</ele>
        <time>2020-10-18T13:22:22.000Z</time>
      </trkpt>
      <trkpt lat="48.25656" lon="-3.47176">
        <ele>120.19999694824</ele>
        <time>2020-10-18T13:22:23.000Z</time>
      </trkpt>
      <trkpt lat="48.25656" lon="-3.47172">
        <ele>120.19999694824</ele>
        <time>2020-10-18T13:22:24.000Z</time>
      </trkpt>
      <trkpt lat="48.25654" lon="-3.47165">
        <ele>120</ele>
        <time>2020-10-18T13:22:25.000Z</time>
      </trkpt>
      <trkpt lat="48.25653" lon="-3.47161">
        <ele>120</ele>
        <time>2020-10-18T13:22:26.000Z</time>
      </trkpt>
      <trkpt lat="48.25653" lon="-3.47161">
        <ele>120</ele>
        <time>2020-10-18T13:22:27.000Z</time>
      </trkpt>
      <trkpt lat="48.25651" lon="-3.47151">
        <ele>120</ele>
        <time>2020-10-18T13:22:28.000Z</time>
      </trkpt>
      <trkpt lat="48.25651" lon="-3.47151">
        <ele>120</ele>
        <time>2020-10-18T13:22:29.000Z</time>
      </trkpt>
      <trkpt lat="48.2565" lon="-3.47141">
        <ele>119.80000305176</ele>
        <time>2020-10-18T13:22:30.000Z</time>
      </trkpt>
      <trkpt lat="48.2565" lon="-3.47141">
        <ele>119.80000305176</ele>
        <time>2020-10-18T13:22:31.000Z</time>
      </trkpt>
      <trkpt lat="48.25648" lon="-3.47131">
        <ele>119.80000305176</ele>
        <time>2020-10-18T13:22:32.000Z</time>
      </trkpt>
      <trkpt lat="48.25648" lon="-3.47131">
        <ele>119.80000305176</ele>
        <time>2020-10-18T13:22:33.000Z</time>
      </trkpt>
      <trkpt lat="48.25646" lon="-3.4712">
        <ele>119.59999847412</ele>
        <time>2020-10-18T13:22:34.000Z</time>
      </trkpt>
      <trkpt lat="48.25646" lon="-3.4712">
        <ele>119.59999847412</ele>
        <time>2020-10-18T13:22:35.000Z</time>
      </trkpt>
      <trkpt lat="48.25644" lon="-3.47108">
        <ele>119.19999694824</ele>
        <time>2020-10-18T13:22:36.000Z</time>
      </trkpt>
      <trkpt lat="48.25644" lon="-3.47108">
        <ele>119.19999694824</ele>
        <time>2020-10-18T13:22:37.000Z</time>
      </trkpt>
      <trkpt lat="48.25642" lon="-3.47095">
        <ele>119</ele>
        <time>2020-10-18T13:22:38.000Z</time>
      </trkpt>
      <trkpt lat="48.25642" lon="-3.47095">
        <ele>119</ele>
        <time>2020-10-18T13:22:39.000Z</time>
      </trkpt>
      <trkpt lat="48.25639" lon="-3.47082">
        <ele>119.19999694824</ele>
        <time>2020-10-18T13:22:40.000Z</time>
      </trkpt>
      <trkpt lat="48.25639" lon="-3.47082">
        <ele>119.19999694824</ele>
        <time>2020-10-18T13:22:41.000Z</time>
      </trkpt>
      <trkpt lat="48.25636" lon="-3.47068">
        <ele>119.40000152588</ele>
        <time>2020-10-18T13:22:42.000Z</time>
      </trkpt>
      <trkpt lat="48.25636" lon="-3.47068">
        <ele>119.40000152588</ele>
        <time>2020-10-18T13:22:43.000Z</time>
      </trkpt>
      <trkpt lat="48.25633" lon="-3.47054">
        <ele>119.59999847412</ele>
        <time>2020-10-18T13:22:44.000Z</time>
      </trkpt>
      <trkpt lat="48.25633" lon="-3.47054">
        <ele>119.59999847412</ele>
        <time>2020-10-18T13:22:45.000Z</time>
      </trkpt>
      <trkpt lat="48.25631" lon="-3.47042">
        <ele>119.59999847412</ele>
        <time>2020-10-18T13:22:46.000Z</time>
      </trkpt>
      <trkpt lat="48.25631" lon="-3.47042">
        <ele>119.59999847412</ele>
        <time>2020-10-18T13:22:47.000Z</time>
      </trkpt>
      <trkpt lat="48.25628" lon="-3.4703">
        <ele>119.80000305176</ele>
        <time>2020-10-18T13:22:48.000Z</time>
      </trkpt>
      <trkpt lat="48.25628" lon="-3.4703">
        <ele>119.80000305176</ele>
        <time>2020-10-18T13:22:49.000Z</time>
      </trkpt>
      <trkpt lat="48.25625" lon="-3.47017">
        <ele>120</ele>
        <time>2020-10-18T13:22:50.000Z</time>
      </trkpt>
      <trkpt lat="48.25625" lon="-3.47017">
        <ele>120</ele>
        <time>2020-10-18T13:22:51.000Z</time>
      </trkpt>
      <trkpt lat="48.25623" lon="-3.47006">
        <ele>120.19999694824</ele>
        <time>2020-10-18T13:22:52.000Z</time>
      </trkpt>
      <trkpt lat="48.25623" lon="-3.47006">
        <ele>120.19999694824</ele>
        <time>2020-10-18T13:22:53.000Z</time>
      </trkpt>
      <trkpt lat="48.25621" lon="-3.46993">
        <ele>120.19999694824</ele>
        <time>2020-10-18T13:22:54.000Z</time>
      </trkpt>
      <trkpt lat="48.25621" lon="-3.46993">
        <ele>120.19999694824</ele>
        <time>2020-10-18T13:22:55.000Z</time>
      </trkpt>
      <trkpt lat="48.25618" lon="-3.46981">
        <ele>120.40000152588</ele>
        <time>2020-10-18T13:22:56.000Z</time>
      </trkpt>
      <trkpt lat="48.25618" lon="-3.46981">
        <ele>120.40000152588</ele>
        <time>2020-10-18T13:22:57.000Z</time>
      </trkpt>
      <trkpt lat="48.25614" lon="-3.46967">
        <ele>120.59999847412</ele>
        <time>2020-10-18T13:22:58.000Z</time>
      </trkpt>
      <trkpt lat="48.25614" lon="-3.46967">
        <ele>120.59999847412</ele>
        <time>2020-10-18T13:22:59.000Z</time>
      </trkpt>
      <trkpt lat="48.25611" lon="-3.46954">
        <ele>120.80000305176</ele>
        <time>2020-10-18T13:23:00.000Z</time>
      </trkpt>
      <trkpt lat="48.25611" lon="-3.46954">
        <ele>120.80000305176</ele>
        <time>2020-10-18T13:23:01.000Z</time>
      </trkpt>
      <trkpt lat="48.25608" lon="-3.4694">
        <ele>121</ele>
        <time>2020-10-18T13:23:02.000Z</time>
      </trkpt>
      <trkpt lat="48.25608" lon="-3.4694">
        <ele>121</ele>
        <time>2020-10-18T13:23:03.000Z</time>
      </trkpt>
      <trkpt lat="48.25605" lon="-3.46927">
        <ele>121</ele>
        <time>2020-10-18T13:23:04.000Z</time>
      </trkpt>
      <trkpt lat="48.25604" lon="-3.46921">
        <ele>121</ele>
        <time>2020-10-18T13:23:05.000Z</time>
      </trkpt>
      <trkpt lat="48.25604" lon="-3.46921">
        <ele>121</ele>
        <time>2020-10-18T13:23:06.000Z</time>
      </trkpt>
      <trkpt lat="48.25603" lon="-3.46916">
        <ele>121</ele>
        <time>2020-10-18T13:23:07.000Z</time>
      </trkpt>
      <trkpt lat="48.25601" lon="-3.46903">
        <ele>121</ele>
        <time>2020-10-18T13:23:08.000Z</time>
      </trkpt>
      <trkpt lat="48.25601" lon="-3.46903">
        <ele>121</ele>
        <time>2020-10-18T13:23:09.000Z</time>
      </trkpt>
      <trkpt lat="48.25598" lon="-3.46889">
        <ele>121</ele>
        <time>2020-10-18T13:23:10.000Z</time>
      </trkpt>
      <trkpt lat="48.25598" lon="-3.46889">
        <ele>121</ele>
        <time>2020-10-18T13:23:11.000Z</time>
      </trkpt>
      <trkpt lat="48.25597" lon="-3.46883">
        <ele>121</ele>
        <time>2020-10-18T13:23:12.000Z</time>
      </trkpt>
      <trkpt lat="48.25594" lon="-3.4687">
        <ele>121</ele>
        <time>2020-10-18T13:23:13.000Z</time>
      </trkpt>
      <trkpt lat="48.25594" lon="-3.4687">
        <ele>121</ele>
        <time>2020-10-18T13:23:14.000Z</time>
      </trkpt>
      <trkpt lat="48.25591" lon="-3.46856">
        <ele>120.80000305176</ele>
        <time>2020-10-18T13:23:15.000Z</time>
      </trkpt>
      <trkpt lat="48.25591" lon="-3.46856">
        <ele>120.80000305176</ele>
        <time>2020-10-18T13:23:16.000Z</time>
      </trkpt>
      <trkpt lat="48.2559" lon="-3.46849">
        <ele>121</ele>
        <time>2020-10-18T13:23:17.000Z</time>
      </trkpt>
      <trkpt lat="48.25588" lon="-3.46836">
        <ele>121</ele>
        <time>2020-10-18T13:23:18.000Z</time>
      </trkpt>
      <trkpt lat="48.25588" lon="-3.46836">
        <ele>121</ele>
        <time>2020-10-18T13:23:19.000Z</time>
      </trkpt>
      <trkpt lat="48.25586" lon="-3.46822">
        <ele>120.80000305176</ele>
        <time>2020-10-18T13:23:20.000Z</time>
      </trkpt>
      <trkpt lat="48.25586" lon="-3.46822">
        <ele>120.80000305176</ele>
        <time>2020-10-18T13:23:21.000Z</time>
      </trkpt>
      <trkpt lat="48.25585" lon="-3.46814">
        <ele>120.80000305176</ele>
        <time>2020-10-18T13:23:22.000Z</time>
      </trkpt>
      <trkpt lat="48.25583" lon="-3.468">
        <ele>120.80000305176</ele>
        <time>2020-10-18T13:23:23.000Z</time>
      </trkpt>
      <trkpt lat="48.25583" lon="-3.468">
        <ele>120.80000305176</ele>
        <time>2020-10-18T13:23:24.000Z</time>
      </trkpt>
      <trkpt lat="48.25581" lon="-3.46788">
        <ele>120.80000305176</ele>
        <time>2020-10-18T13:23:25.000Z</time>
      </trkpt>
      <trkpt lat="48.25581" lon="-3.46788">
        <ele>120.80000305176</ele>
        <time>2020-10-18T13:23:26.000Z</time>
      </trkpt>
      <trkpt lat="48.25582" lon="-3.46781">
        <ele>120.80000305176</ele>
        <time>2020-10-18T13:23:27.000Z</time>
      </trkpt>
      <trkpt lat="48.25583" lon="-3.46767">
        <ele>121</ele>
        <time>2020-10-18T13:23:28.000Z</time>
      </trkpt>
      <trkpt lat="48.25583" lon="-3.46767">
        <ele>121</ele>
        <time>2020-10-18T13:23:29.000Z</time>
      </trkpt>
      <trkpt lat="48.25583" lon="-3.46755">
        <ele>121.19999694824</ele>
        <time>2020-10-18T13:23:30.000Z</time>
      </trkpt>
      <trkpt lat="48.25583" lon="-3.46755">
        <ele>121.19999694824</ele>
        <time>2020-10-18T13:23:31.000Z</time>
      </trkpt>
      <trkpt lat="48.25585" lon="-3.46744">
        <ele>121.59999847412</ele>
        <time>2020-10-18T13:23:32.000Z</time>
      </trkpt>
      <trkpt lat="48.25585" lon="-3.46744">
        <ele>121.59999847412</ele>
        <time>2020-10-18T13:23:33.000Z</time>
      </trkpt>
      <trkpt lat="48.25587" lon="-3.46733">
        <ele>121.80000305176</ele>
        <time>2020-10-18T13:23:34.000Z</time>
      </trkpt>
      <trkpt lat="48.25587" lon="-3.46733">
        <ele>121.80000305176</ele>
        <time>2020-10-18T13:23:35.000Z</time>
      </trkpt>
      <trkpt lat="48.25589" lon="-3.46722">
        <ele>122</ele>
        <time>2020-10-18T13:23:36.000Z</time>
      </trkpt>
      <trkpt lat="48.25589" lon="-3.46722">
        <ele>122</ele>
        <time>2020-10-18T13:23:37.000Z</time>
      </trkpt>
      <trkpt lat="48.25594" lon="-3.46708">
        <ele>122.40000152588</ele>
        <time>2020-10-18T13:23:38.000Z</time>
      </trkpt>
      <trkpt lat="48.25594" lon="-3.46708">
        <ele>122.40000152588</ele>
        <time>2020-10-18T13:23:39.000Z</time>
      </trkpt>
      <trkpt lat="48.25595" lon="-3.46702">
        <ele>122.59999847412</ele>
        <time>2020-10-18T13:23:40.000Z</time>
      </trkpt>
      <trkpt lat="48.25599" lon="-3.46691">
        <ele>122.80000305176</ele>
        <time>2020-10-18T13:23:41.000Z</time>
      </trkpt>
      <trkpt lat="48.25599" lon="-3.46691">
        <ele>122.80000305176</ele>
        <time>2020-10-18T13:23:42.000Z</time>
      </trkpt>
      <trkpt lat="48.25603" lon="-3.46679">
        <ele>123.19999694824</ele>
        <time>2020-10-18T13:23:43.000Z</time>
      </trkpt>
      <trkpt lat="48.25605" lon="-3.46673">
        <ele>123.19999694824</ele>
        <time>2020-10-18T13:23:44.000Z</time>
      </trkpt>
      <trkpt lat="48.25605" lon="-3.46673">
        <ele>123.19999694824</ele>
        <time>2020-10-18T13:23:45.000Z</time>
      </trkpt>
      <trkpt lat="48.25607" lon="-3.46667">
        <ele>123.19999694824</ele>
        <time>2020-10-18T13:23:46.000Z</time>
      </trkpt>
      <trkpt lat="48.25612" lon="-3.46654">
        <ele>123.19999694824</ele>
        <time>2020-10-18T13:23:47.000Z</time>
      </trkpt>
      <trkpt lat="48.25612" lon="-3.46654">
        <ele>123.19999694824</ele>
        <time>2020-10-18T13:23:48.000Z</time>
      </trkpt>
      <trkpt lat="48.25617" lon="-3.46643">
        <ele>123.19999694824</ele>
        <time>2020-10-18T13:23:49.000Z</time>
      </trkpt>
      <trkpt lat="48.25617" lon="-3.46643">
        <ele>123.19999694824</ele>
        <time>2020-10-18T13:23:50.000Z</time>
      </trkpt>
      <trkpt lat="48.25623" lon="-3.46631">
        <ele>123.40000152588</ele>
        <time>2020-10-18T13:23:51.000Z</time>
      </trkpt>
      <trkpt lat="48.25623" lon="-3.46631">
        <ele>123.40000152588</ele>
        <time>2020-10-18T13:23:52.000Z</time>
      </trkpt>
      <trkpt lat="48.25629" lon="-3.46619">
        <ele>123.40000152588</ele>
        <time>2020-10-18T13:23:53.000Z</time>
      </trkpt>
      <trkpt lat="48.25629" lon="-3.46619">
        <ele>123.40000152588</ele>
        <time>2020-10-18T13:23:54.000Z</time>
      </trkpt>
      <trkpt lat="48.25633" lon="-3.46606">
        <ele>123.40000152588</ele>
        <time>2020-10-18T13:23:55.000Z</time>
      </trkpt>
      <trkpt lat="48.25633" lon="-3.46606">
        <ele>123.40000152588</ele>
        <time>2020-10-18T13:23:56.000Z</time>
      </trkpt>
      <trkpt lat="48.25635" lon="-3.466">
        <ele>123.40000152588</ele>
        <time>2020-10-18T13:23:57.000Z</time>
      </trkpt>
      <trkpt lat="48.25639" lon="-3.46587">
        <ele>123.80000305176</ele>
        <time>2020-10-18T13:23:58.000Z</time>
      </trkpt>
      <trkpt lat="48.25639" lon="-3.46587">
        <ele>123.80000305176</ele>
        <time>2020-10-18T13:23:59.000Z</time>
      </trkpt>
      <trkpt lat="48.25644" lon="-3.46575">
        <ele>124</ele>
        <time>2020-10-18T13:24:00.000Z</time>
      </trkpt>
      <trkpt lat="48.25644" lon="-3.46575">
        <ele>124</ele>
        <time>2020-10-18T13:24:01.000Z</time>
      </trkpt>
      <trkpt lat="48.25648" lon="-3.46563">
        <ele>124.40000152588</ele>
        <time>2020-10-18T13:24:02.000Z</time>
      </trkpt>
      <trkpt lat="48.25648" lon="-3.46563">
        <ele>124.40000152588</ele>
        <time>2020-10-18T13:24:03.000Z</time>
      </trkpt>
      <trkpt lat="48.2565" lon="-3.46557">
        <ele>124.40000152588</ele>
        <time>2020-10-18T13:24:04.000Z</time>
      </trkpt>
      <trkpt lat="48.25653" lon="-3.46546">
        <ele>124.59999847412</ele>
        <time>2020-10-18T13:24:05.000Z</time>
      </trkpt>
      <trkpt lat="48.25653" lon="-3.46546">
        <ele>124.59999847412</ele>
        <time>2020-10-18T13:24:06.000Z</time>
      </trkpt>
      <trkpt lat="48.25655" lon="-3.46536">
        <ele>125</ele>
        <time>2020-10-18T13:24:07.000Z</time>
      </trkpt>
      <trkpt lat="48.25655" lon="-3.46536">
        <ele>125</ele>
        <time>2020-10-18T13:24:08.000Z</time>
      </trkpt>
      <trkpt lat="48.25658" lon="-3.46525">
        <ele>125.40000152588</ele>
        <time>2020-10-18T13:24:09.000Z</time>
      </trkpt>
      <trkpt lat="48.25658" lon="-3.46525">
        <ele>125.40000152588</ele>
        <time>2020-10-18T13:24:10.000Z</time>
      </trkpt>
      <trkpt lat="48.2566" lon="-3.46519">
        <ele>125.59999847412</ele>
        <time>2020-10-18T13:24:11.000Z</time>
      </trkpt>
      <trkpt lat="48.25665" lon="-3.46505">
        <ele>125.80000305176</ele>
        <time>2020-10-18T13:24:12.000Z</time>
      </trkpt>
      <trkpt lat="48.25665" lon="-3.46505">
        <ele>125.80000305176</ele>
        <time>2020-10-18T13:24:13.000Z</time>
      </trkpt>
      <trkpt lat="48.25668" lon="-3.46493">
        <ele>125.80000305176</ele>
        <time>2020-10-18T13:24:14.000Z</time>
      </trkpt>
      <trkpt lat="48.25668" lon="-3.46493">
        <ele>125.80000305176</ele>
        <time>2020-10-18T13:24:15.000Z</time>
      </trkpt>
      <trkpt lat="48.25669" lon="-3.46486">
        <ele>125.80000305176</ele>
        <time>2020-10-18T13:24:16.000Z</time>
      </trkpt>
      <trkpt lat="48.25671" lon="-3.46473">
        <ele>125.80000305176</ele>
        <time>2020-10-18T13:24:17.000Z</time>
      </trkpt>
      <trkpt lat="48.25671" lon="-3.46473">
        <ele>125.80000305176</ele>
        <time>2020-10-18T13:24:18.000Z</time>
      </trkpt>
      <trkpt lat="48.25672" lon="-3.4646">
        <ele>126</ele>
        <time>2020-10-18T13:24:19.000Z</time>
      </trkpt>
      <trkpt lat="48.25672" lon="-3.4646">
        <ele>126</ele>
        <time>2020-10-18T13:24:20.000Z</time>
      </trkpt>
      <trkpt lat="48.25673" lon="-3.46452">
        <ele>126</ele>
        <time>2020-10-18T13:24:21.000Z</time>
      </trkpt>
      <trkpt lat="48.25674" lon="-3.46437">
        <ele>126</ele>
        <time>2020-10-18T13:24:22.000Z</time>
      </trkpt>
      <trkpt lat="48.25674" lon="-3.46437">
        <ele>126</ele>
        <time>2020-10-18T13:24:23.000Z</time>
      </trkpt>
      <trkpt lat="48.25674" lon="-3.4643">
        <ele>126.40000152588</ele>
        <time>2020-10-18T13:24:24.000Z</time>
      </trkpt>
      <trkpt lat="48.25673" lon="-3.46416">
        <ele>126.19999694824</ele>
        <time>2020-10-18T13:24:25.000Z</time>
      </trkpt>
      <trkpt lat="48.25673" lon="-3.46416">
        <ele>126.19999694824</ele>
        <time>2020-10-18T13:24:26.000Z</time>
      </trkpt>
      <trkpt lat="48.25672" lon="-3.46409">
        <ele>126.19999694824</ele>
        <time>2020-10-18T13:24:27.000Z</time>
      </trkpt>
      <trkpt lat="48.2567" lon="-3.46396">
        <ele>126.19999694824</ele>
        <time>2020-10-18T13:24:28.000Z</time>
      </trkpt>
      <trkpt lat="48.2567" lon="-3.46396">
        <ele>126.19999694824</ele>
        <time>2020-10-18T13:24:29.000Z</time>
      </trkpt>
      <trkpt lat="48.25668" lon="-3.46382">
        <ele>126.19999694824</ele>
        <time>2020-10-18T13:24:30.000Z</time>
      </trkpt>
      <trkpt lat="48.25668" lon="-3.46382">
        <ele>126.19999694824</ele>
        <time>2020-10-18T13:24:31.000Z</time>
      </trkpt>
      <trkpt lat="48.25666" lon="-3.46376">
        <ele>126.19999694824</ele>
        <time>2020-10-18T13:24:32.000Z</time>
      </trkpt>
      <trkpt lat="48.25663" lon="-3.46364">
        <ele>126.40000152588</ele>
        <time>2020-10-18T13:24:33.000Z</time>
      </trkpt>
      <trkpt lat="48.25663" lon="-3.46364">
        <ele>126.40000152588</ele>
        <time>2020-10-18T13:24:34.000Z</time>
      </trkpt>
      <trkpt lat="48.25662" lon="-3.46358">
        <ele>126.40000152588</ele>
        <time>2020-10-18T13:24:35.000Z</time>
      </trkpt>
      <trkpt lat="48.25658" lon="-3.46346">
        <ele>127</ele>
        <time>2020-10-18T13:24:36.000Z</time>
      </trkpt>
      <trkpt lat="48.25658" lon="-3.46346">
        <ele>127</ele>
        <time>2020-10-18T13:24:37.000Z</time>
      </trkpt>
      <trkpt lat="48.25656" lon="-3.4634">
        <ele>127.80000305176</ele>
        <time>2020-10-18T13:24:38.000Z</time>
      </trkpt>
      <trkpt lat="48.25651" lon="-3.4633">
        <ele>129.39999389648</ele>
        <time>2020-10-18T13:24:39.000Z</time>
      </trkpt>
      <trkpt lat="48.25651" lon="-3.4633">
        <ele>129.39999389648</ele>
        <time>2020-10-18T13:24:40.000Z</time>
      </trkpt>
      <trkpt lat="48.25649" lon="-3.46324">
        <ele>130.19999694824</ele>
        <time>2020-10-18T13:24:41.000Z</time>
      </trkpt>
      <trkpt lat="48.25643" lon="-3.46315">
        <ele>131.80000305176</ele>
        <time>2020-10-18T13:24:42.000Z</time>
      </trkpt>
      <trkpt lat="48.2564" lon="-3.46311">
        <ele>132.39999389648</ele>
        <time>2020-10-18T13:24:43.000Z</time>
      </trkpt>
      <trkpt lat="48.2564" lon="-3.46311">
        <ele>132.39999389648</ele>
        <time>2020-10-18T13:24:44.000Z</time>
      </trkpt>
      <trkpt lat="48.25637" lon="-3.46307">
        <ele>133</ele>
        <time>2020-10-18T13:24:45.000Z</time>
      </trkpt>
      <trkpt lat="48.2563" lon="-3.463">
        <ele>132.39999389648</ele>
        <time>2020-10-18T13:24:46.000Z</time>
      </trkpt>
      <trkpt lat="48.2563" lon="-3.463">
        <ele>132.39999389648</ele>
        <time>2020-10-18T13:24:47.000Z</time>
      </trkpt>
      <trkpt lat="48.25623" lon="-3.46295">
        <ele>131.60000610352</ele>
        <time>2020-10-18T13:24:48.000Z</time>
      </trkpt>
      <trkpt lat="48.25623" lon="-3.46295">
        <ele>131.60000610352</ele>
        <time>2020-10-18T13:24:49.000Z</time>
      </trkpt>
      <trkpt lat="48.2562" lon="-3.46293">
        <ele>131.39999389648</ele>
        <time>2020-10-18T13:24:50.000Z</time>
      </trkpt>
      <trkpt lat="48.25612" lon="-3.46288">
        <ele>130.60000610352</ele>
        <time>2020-10-18T13:24:51.000Z</time>
      </trkpt>
      <trkpt lat="48.25612" lon="-3.46288">
        <ele>130.60000610352</ele>
        <time>2020-10-18T13:24:52.000Z</time>
      </trkpt>
      <trkpt lat="48.25608" lon="-3.46286">
        <ele>130.39999389648</ele>
        <time>2020-10-18T13:24:53.000Z</time>
      </trkpt>
      <trkpt lat="48.256" lon="-3.46281">
        <ele>129.60000610352</ele>
        <time>2020-10-18T13:24:54.000Z</time>
      </trkpt>
      <trkpt lat="48.256" lon="-3.46281">
        <ele>129.60000610352</ele>
        <time>2020-10-18T13:24:55.000Z</time>
      </trkpt>
      <trkpt lat="48.25596" lon="-3.46278">
        <ele>129.39999389648</ele>
        <time>2020-10-18T13:24:56.000Z</time>
      </trkpt>
      <trkpt lat="48.2559" lon="-3.46273">
        <ele>129.39999389648</ele>
        <time>2020-10-18T13:24:57.000Z</time>
      </trkpt>
      <trkpt lat="48.2559" lon="-3.46273">
        <ele>129.39999389648</ele>
        <time>2020-10-18T13:24:58.000Z</time>
      </trkpt>
      <trkpt lat="48.25587" lon="-3.4627">
        <ele>129.19999694824</ele>
        <time>2020-10-18T13:24:59.000Z</time>
      </trkpt>
      <trkpt lat="48.2558" lon="-3.46265">
        <ele>129</ele>
        <time>2020-10-18T13:25:00.000Z</time>
      </trkpt>
      <trkpt lat="48.2558" lon="-3.46265">
        <ele>129</ele>
        <time>2020-10-18T13:25:01.000Z</time>
      </trkpt>
      <trkpt lat="48.25576" lon="-3.46263">
        <ele>129.19999694824</ele>
        <time>2020-10-18T13:25:02.000Z</time>
      </trkpt>
      <trkpt lat="48.25568" lon="-3.46257">
        <ele>130.19999694824</ele>
        <time>2020-10-18T13:25:03.000Z</time>
      </trkpt>
      <trkpt lat="48.25568" lon="-3.46257">
        <ele>130.19999694824</ele>
        <time>2020-10-18T13:25:04.000Z</time>
      </trkpt>
      <trkpt lat="48.25565" lon="-3.46254">
        <ele>130.60000610352</ele>
        <time>2020-10-18T13:25:05.000Z</time>
      </trkpt>
      <trkpt lat="48.25558" lon="-3.46247">
        <ele>131.60000610352</ele>
        <time>2020-10-18T13:25:06.000Z</time>
      </trkpt>
      <trkpt lat="48.25558" lon="-3.46247">
        <ele>131.60000610352</ele>
        <time>2020-10-18T13:25:07.000Z</time>
      </trkpt>
      <trkpt lat="48.25554" lon="-3.46243">
        <ele>132</ele>
        <time>2020-10-18T13:25:08.000Z</time>
      </trkpt>
      <trkpt lat="48.25547" lon="-3.46238">
        <ele>132.80000305176</ele>
        <time>2020-10-18T13:25:09.000Z</time>
      </trkpt>
      <trkpt lat="48.25547" lon="-3.46238">
        <ele>132.80000305176</ele>
        <time>2020-10-18T13:25:10.000Z</time>
      </trkpt>
      <trkpt lat="48.25543" lon="-3.46235">
        <ele>133.19999694824</ele>
        <time>2020-10-18T13:25:11.000Z</time>
      </trkpt>
      <trkpt lat="48.25535" lon="-3.46233">
        <ele>132.19999694824</ele>
        <time>2020-10-18T13:25:12.000Z</time>
      </trkpt>
      <trkpt lat="48.25535" lon="-3.46233">
        <ele>132.19999694824</ele>
        <time>2020-10-18T13:25:13.000Z</time>
      </trkpt>
      <trkpt lat="48.25531" lon="-3.46232">
        <ele>131.60000610352</ele>
        <time>2020-10-18T13:25:14.000Z</time>
      </trkpt>
      <trkpt lat="48.25523" lon="-3.46228">
        <ele>130.60000610352</ele>
        <time>2020-10-18T13:25:15.000Z</time>
      </trkpt>
      <trkpt lat="48.25523" lon="-3.46228">
        <ele>130.60000610352</ele>
        <time>2020-10-18T13:25:16.000Z</time>
      </trkpt>
      <trkpt lat="48.25515" lon="-3.46224">
        <ele>129.80000305176</ele>
        <time>2020-10-18T13:25:17.000Z</time>
      </trkpt>
      <trkpt lat="48.25515" lon="-3.46224">
        <ele>129.80000305176</ele>
        <time>2020-10-18T13:25:18.000Z</time>
      </trkpt>
      <trkpt lat="48.25511" lon="-3.46222">
        <ele>129.60000610352</ele>
        <time>2020-10-18T13:25:19.000Z</time>
      </trkpt>
      <trkpt lat="48.25504" lon="-3.46217">
        <ele>130</ele>
        <time>2020-10-18T13:25:20.000Z</time>
      </trkpt>
      <trkpt lat="48.25504" lon="-3.46217">
        <ele>130</ele>
        <time>2020-10-18T13:25:21.000Z</time>
      </trkpt>
      <trkpt lat="48.255" lon="-3.46214">
        <ele>130.19999694824</ele>
        <time>2020-10-18T13:25:22.000Z</time>
      </trkpt>
      <trkpt lat="48.25492" lon="-3.46208">
        <ele>130.60000610352</ele>
        <time>2020-10-18T13:25:23.000Z</time>
      </trkpt>
      <trkpt lat="48.25492" lon="-3.46208">
        <ele>130.60000610352</ele>
        <time>2020-10-18T13:25:24.000Z</time>
      </trkpt>
      <trkpt lat="48.25488" lon="-3.46205">
        <ele>130.60000610352</ele>
        <time>2020-10-18T13:25:25.000Z</time>
      </trkpt>
      <trkpt lat="48.25479" lon="-3.46199">
        <ele>130.19999694824</ele>
        <time>2020-10-18T13:25:26.000Z</time>
      </trkpt>
      <trkpt lat="48.25479" lon="-3.46199">
        <ele>130.19999694824</ele>
        <time>2020-10-18T13:25:27.000Z</time>
      </trkpt>
      <trkpt lat="48.25475" lon="-3.46196">
        <ele>130</ele>
        <time>2020-10-18T13:25:28.000Z</time>
      </trkpt>
      <trkpt lat="48.25467" lon="-3.4619">
        <ele>129.60000610352</ele>
        <time>2020-10-18T13:25:29.000Z</time>
      </trkpt>
      <trkpt lat="48.25467" lon="-3.4619">
        <ele>129.60000610352</ele>
        <time>2020-10-18T13:25:30.000Z</time>
      </trkpt>
      <trkpt lat="48.25463" lon="-3.46187">
        <ele>129.39999389648</ele>
        <time>2020-10-18T13:25:31.000Z</time>
      </trkpt>
      <trkpt lat="48.25455" lon="-3.46181">
        <ele>129</ele>
        <time>2020-10-18T13:25:32.000Z</time>
      </trkpt>
      <trkpt lat="48.25455" lon="-3.46181">
        <ele>129</ele>
        <time>2020-10-18T13:25:33.000Z</time>
      </trkpt>
      <trkpt lat="48.25451" lon="-3.46178">
        <ele>129</ele>
        <time>2020-10-18T13:25:34.000Z</time>
      </trkpt>
      <trkpt lat="48.25443" lon="-3.46172">
        <ele>129.19999694824</ele>
        <time>2020-10-18T13:25:35.000Z</time>
      </trkpt>
      <trkpt lat="48.25443" lon="-3.46172">
        <ele>129.19999694824</ele>
        <time>2020-10-18T13:25:36.000Z</time>
      </trkpt>
      <trkpt lat="48.25439" lon="-3.46169">
        <ele>129.19999694824</ele>
        <time>2020-10-18T13:25:37.000Z</time>
      </trkpt>
      <trkpt lat="48.25431" lon="-3.46164">
        <ele>128.39999389648</ele>
        <time>2020-10-18T13:25:38.000Z</time>
      </trkpt>
      <trkpt lat="48.25431" lon="-3.46164">
        <ele>128.39999389648</ele>
        <time>2020-10-18T13:25:39.000Z</time>
      </trkpt>
      <trkpt lat="48.25427" lon="-3.46161">
        <ele>128.19999694824</ele>
        <time>2020-10-18T13:25:40.000Z</time>
      </trkpt>
      <trkpt lat="48.2542" lon="-3.46155">
        <ele>128</ele>
        <time>2020-10-18T13:25:41.000Z</time>
      </trkpt>
      <trkpt lat="48.25417" lon="-3.46152">
        <ele>128</ele>
        <time>2020-10-18T13:25:42.000Z</time>
      </trkpt>
      <trkpt lat="48.25417" lon="-3.46152">
        <ele>128</ele>
        <time>2020-10-18T13:25:43.000Z</time>
      </trkpt>
      <trkpt lat="48.25414" lon="-3.4615">
        <ele>127.80000305176</ele>
        <time>2020-10-18T13:25:44.000Z</time>
      </trkpt>
      <trkpt lat="48.25409" lon="-3.46145">
        <ele>127.80000305176</ele>
        <time>2020-10-18T13:25:45.000Z</time>
      </trkpt>
      <trkpt lat="48.25409" lon="-3.46145">
        <ele>127.80000305176</ele>
        <time>2020-10-18T13:25:46.000Z</time>
      </trkpt>
      <trkpt lat="48.25403" lon="-3.46141">
        <ele>127.59999847412</ele>
        <time>2020-10-18T13:25:47.000Z</time>
      </trkpt>
      <trkpt lat="48.25403" lon="-3.46141">
        <ele>127.59999847412</ele>
        <time>2020-10-18T13:25:48.000Z</time>
      </trkpt>
      <trkpt lat="48.25398" lon="-3.46137">
        <ele>127.40000152588</ele>
        <time>2020-10-18T13:25:49.000Z</time>
      </trkpt>
      <trkpt lat="48.25398" lon="-3.46137">
        <ele>127.40000152588</ele>
        <time>2020-10-18T13:25:50.000Z</time>
      </trkpt>
      <trkpt lat="48.25392" lon="-3.46133">
        <ele>127.19999694824</ele>
        <time>2020-10-18T13:25:51.000Z</time>
      </trkpt>
      <trkpt lat="48.25392" lon="-3.46133">
        <ele>127.19999694824</ele>
        <time>2020-10-18T13:25:52.000Z</time>
      </trkpt>
      <trkpt lat="48.25389" lon="-3.46131">
        <ele>127.19999694824</ele>
        <time>2020-10-18T13:25:53.000Z</time>
      </trkpt>
      <trkpt lat="48.25381" lon="-3.46127">
        <ele>127</ele>
        <time>2020-10-18T13:25:54.000Z</time>
      </trkpt>
      <trkpt lat="48.25381" lon="-3.46127">
        <ele>127</ele>
        <time>2020-10-18T13:25:55.000Z</time>
      </trkpt>
      <trkpt lat="48.25378" lon="-3.46125">
        <ele>126.80000305176</ele>
        <time>2020-10-18T13:25:56.000Z</time>
      </trkpt>
      <trkpt lat="48.2537" lon="-3.4612">
        <ele>126.59999847412</ele>
        <time>2020-10-18T13:25:57.000Z</time>
      </trkpt>
      <trkpt lat="48.2537" lon="-3.4612">
        <ele>126.59999847412</ele>
        <time>2020-10-18T13:25:58.000Z</time>
      </trkpt>
      <trkpt lat="48.25366" lon="-3.46117">
        <ele>126.59999847412</ele>
        <time>2020-10-18T13:25:59.000Z</time>
      </trkpt>
      <trkpt lat="48.25359" lon="-3.46111">
        <ele>126.40000152588</ele>
        <time>2020-10-18T13:26:00.000Z</time>
      </trkpt>
      <trkpt lat="48.25359" lon="-3.46111">
        <ele>126.40000152588</ele>
        <time>2020-10-18T13:26:01.000Z</time>
      </trkpt>
      <trkpt lat="48.25355" lon="-3.46108">
        <ele>126.19999694824</ele>
        <time>2020-10-18T13:26:02.000Z</time>
      </trkpt>
      <trkpt lat="48.25347" lon="-3.46102">
        <ele>126</ele>
        <time>2020-10-18T13:26:03.000Z</time>
      </trkpt>
      <trkpt lat="48.25347" lon="-3.46102">
        <ele>126</ele>
        <time>2020-10-18T13:26:04.000Z</time>
      </trkpt>
      <trkpt lat="48.25343" lon="-3.46099">
        <ele>126</ele>
        <time>2020-10-18T13:26:05.000Z</time>
      </trkpt>
      <trkpt lat="48.25334" lon="-3.46092">
        <ele>126</ele>
        <time>2020-10-18T13:26:06.000Z</time>
      </trkpt>
      <trkpt lat="48.25334" lon="-3.46092">
        <ele>126</ele>
        <time>2020-10-18T13:26:07.000Z</time>
      </trkpt>
      <trkpt lat="48.2533" lon="-3.46089">
        <ele>126</ele>
        <time>2020-10-18T13:26:08.000Z</time>
      </trkpt>
      <trkpt lat="48.25322" lon="-3.46083">
        <ele>126.19999694824</ele>
        <time>2020-10-18T13:26:09.000Z</time>
      </trkpt>
      <trkpt lat="48.25322" lon="-3.46083">
        <ele>126.19999694824</ele>
        <time>2020-10-18T13:26:10.000Z</time>
      </trkpt>
      <trkpt lat="48.25318" lon="-3.46079">
        <ele>126.19999694824</ele>
        <time>2020-10-18T13:26:11.000Z</time>
      </trkpt>
      <trkpt lat="48.25311" lon="-3.46072">
        <ele>126.19999694824</ele>
        <time>2020-10-18T13:26:12.000Z</time>
      </trkpt>
      <trkpt lat="48.25311" lon="-3.46072">
        <ele>126.19999694824</ele>
        <time>2020-10-18T13:26:13.000Z</time>
      </trkpt>
      <trkpt lat="48.25307" lon="-3.46068">
        <ele>126.19999694824</ele>
        <time>2020-10-18T13:26:14.000Z</time>
      </trkpt>
      <trkpt lat="48.253" lon="-3.46061">
        <ele>126.40000152588</ele>
        <time>2020-10-18T13:26:15.000Z</time>
      </trkpt>
      <trkpt lat="48.253" lon="-3.46061">
        <ele>126.40000152588</ele>
        <time>2020-10-18T13:26:16.000Z</time>
      </trkpt>
      <trkpt lat="48.25296" lon="-3.46058">
        <ele>126.40000152588</ele>
        <time>2020-10-18T13:26:17.000Z</time>
      </trkpt>
      <trkpt lat="48.25289" lon="-3.4605">
        <ele>126.19999694824</ele>
        <time>2020-10-18T13:26:18.000Z</time>
      </trkpt>
      <trkpt lat="48.25289" lon="-3.4605">
        <ele>126.19999694824</ele>
        <time>2020-10-18T13:26:19.000Z</time>
      </trkpt>
      <trkpt lat="48.25286" lon="-3.46046">
        <ele>126.19999694824</ele>
        <time>2020-10-18T13:26:20.000Z</time>
      </trkpt>
      <trkpt lat="48.25279" lon="-3.46038">
        <ele>126.19999694824</ele>
        <time>2020-10-18T13:26:21.000Z</time>
      </trkpt>
      <trkpt lat="48.25277" lon="-3.46034">
        <ele>126.19999694824</ele>
        <time>2020-10-18T13:26:22.000Z</time>
      </trkpt>
      <trkpt lat="48.25277" lon="-3.46034">
        <ele>126.19999694824</ele>
        <time>2020-10-18T13:26:23.000Z</time>
      </trkpt>
      <trkpt lat="48.25274" lon="-3.4603">
        <ele>126</ele>
        <time>2020-10-18T13:26:24.000Z</time>
      </trkpt>
      <trkpt lat="48.25267" lon="-3.46021">
        <ele>126</ele>
        <time>2020-10-18T13:26:25.000Z</time>
      </trkpt>
      <trkpt lat="48.25267" lon="-3.46021">
        <ele>126</ele>
        <time>2020-10-18T13:26:26.000Z</time>
      </trkpt>
      <trkpt lat="48.25264" lon="-3.46017">
        <ele>126</ele>
        <time>2020-10-18T13:26:27.000Z</time>
      </trkpt>
      <trkpt lat="48.25257" lon="-3.46009">
        <ele>126</ele>
        <time>2020-10-18T13:26:28.000Z</time>
      </trkpt>
      <trkpt lat="48.25257" lon="-3.46009">
        <ele>126</ele>
        <time>2020-10-18T13:26:29.000Z</time>
      </trkpt>
      <trkpt lat="48.25254" lon="-3.46005">
        <ele>125.80000305176</ele>
        <time>2020-10-18T13:26:30.000Z</time>
      </trkpt>
      <trkpt lat="48.25248" lon="-3.45996">
        <ele>125.80000305176</ele>
        <time>2020-10-18T13:26:31.000Z</time>
      </trkpt>
      <trkpt lat="48.25248" lon="-3.45996">
        <ele>125.80000305176</ele>
        <time>2020-10-18T13:26:32.000Z</time>
      </trkpt>
      <trkpt lat="48.25245" lon="-3.45991">
        <ele>125.59999847412</ele>
        <time>2020-10-18T13:26:33.000Z</time>
      </trkpt>
      <trkpt lat="48.25239" lon="-3.45981">
        <ele>125.59999847412</ele>
        <time>2020-10-18T13:26:34.000Z</time>
      </trkpt>
      <trkpt lat="48.25239" lon="-3.45981">
        <ele>125.59999847412</ele>
        <time>2020-10-18T13:26:35.000Z</time>
      </trkpt>
      <trkpt lat="48.25236" lon="-3.45976">
        <ele>125.59999847412</ele>
        <time>2020-10-18T13:26:36.000Z</time>
      </trkpt>
      <trkpt lat="48.2523" lon="-3.45966">
        <ele>125.40000152588</ele>
        <time>2020-10-18T13:26:37.000Z</time>
      </trkpt>
      <trkpt lat="48.2523" lon="-3.45966">
        <ele>125.40000152588</ele>
        <time>2020-10-18T13:26:38.000Z</time>
      </trkpt>
      <trkpt lat="48.25227" lon="-3.4596">
        <ele>125.40000152588</ele>
        <time>2020-10-18T13:26:39.000Z</time>
      </trkpt>
      <trkpt lat="48.25221" lon="-3.45949">
        <ele>125.59999847412</ele>
        <time>2020-10-18T13:26:40.000Z</time>
      </trkpt>
      <trkpt lat="48.25221" lon="-3.45949">
        <ele>125.59999847412</ele>
        <time>2020-10-18T13:26:41.000Z</time>
      </trkpt>
      <trkpt lat="48.25218" lon="-3.45943">
        <ele>125.59999847412</ele>
        <time>2020-10-18T13:26:42.000Z</time>
      </trkpt>
      <trkpt lat="48.25213" lon="-3.45931">
        <ele>125.80000305176</ele>
        <time>2020-10-18T13:26:43.000Z</time>
      </trkpt>
      <trkpt lat="48.25213" lon="-3.45931">
        <ele>125.80000305176</ele>
        <time>2020-10-18T13:26:44.000Z</time>
      </trkpt>
      <trkpt lat="48.2521" lon="-3.45924">
        <ele>126.19999694824</ele>
        <time>2020-10-18T13:26:45.000Z</time>
      </trkpt>
      <trkpt lat="48.25205" lon="-3.45912">
        <ele>126.59999847412</ele>
        <time>2020-10-18T13:26:46.000Z</time>
      </trkpt>
      <trkpt lat="48.25205" lon="-3.45912">
        <ele>126.59999847412</ele>
        <time>2020-10-18T13:26:47.000Z</time>
      </trkpt>
      <trkpt lat="48.252" lon="-3.45899">
        <ele>126.80000305176</ele>
        <time>2020-10-18T13:26:48.000Z</time>
      </trkpt>
      <trkpt lat="48.252" lon="-3.45899">
        <ele>126.80000305176</ele>
        <time>2020-10-18T13:26:49.000Z</time>
      </trkpt>
      <trkpt lat="48.25197" lon="-3.45893">
        <ele>126.80000305176</ele>
        <time>2020-10-18T13:26:50.000Z</time>
      </trkpt>
      <trkpt lat="48.25193" lon="-3.45882">
        <ele>126.80000305176</ele>
        <time>2020-10-18T13:26:51.000Z</time>
      </trkpt>
      <trkpt lat="48.25193" lon="-3.45882">
        <ele>126.80000305176</ele>
        <time>2020-10-18T13:26:52.000Z</time>
      </trkpt>
      <trkpt lat="48.25188" lon="-3.45871">
        <ele>126.80000305176</ele>
        <time>2020-10-18T13:26:53.000Z</time>
      </trkpt>
      <trkpt lat="48.25188" lon="-3.45871">
        <ele>126.80000305176</ele>
        <time>2020-10-18T13:26:54.000Z</time>
      </trkpt>
      <trkpt lat="48.25186" lon="-3.45865">
        <ele>127</ele>
        <time>2020-10-18T13:26:55.000Z</time>
      </trkpt>
      <trkpt lat="48.25181" lon="-3.45853">
        <ele>127</ele>
        <time>2020-10-18T13:26:56.000Z</time>
      </trkpt>
      <trkpt lat="48.25181" lon="-3.45853">
        <ele>127</ele>
        <time>2020-10-18T13:26:57.000Z</time>
      </trkpt>
      <trkpt lat="48.25179" lon="-3.45846">
        <ele>127</ele>
        <time>2020-10-18T13:26:58.000Z</time>
      </trkpt>
      <trkpt lat="48.25175" lon="-3.45833">
        <ele>127</ele>
        <time>2020-10-18T13:26:59.000Z</time>
      </trkpt>
      <trkpt lat="48.25175" lon="-3.45833">
        <ele>127</ele>
        <time>2020-10-18T13:27:00.000Z</time>
      </trkpt>
      <trkpt lat="48.25173" lon="-3.45826">
        <ele>127</ele>
        <time>2020-10-18T13:27:01.000Z</time>
      </trkpt>
      <trkpt lat="48.2517" lon="-3.45812">
        <ele>127.19999694824</ele>
        <time>2020-10-18T13:27:02.000Z</time>
      </trkpt>
      <trkpt lat="48.2517" lon="-3.45812">
        <ele>127.19999694824</ele>
        <time>2020-10-18T13:27:03.000Z</time>
      </trkpt>
      <trkpt lat="48.25166" lon="-3.45798">
        <ele>127.19999694824</ele>
        <time>2020-10-18T13:27:04.000Z</time>
      </trkpt>
      <trkpt lat="48.25166" lon="-3.45798">
        <ele>127.19999694824</ele>
        <time>2020-10-18T13:27:05.000Z</time>
      </trkpt>
      <trkpt lat="48.25166" lon="-3.45791">
        <ele>127.19999694824</ele>
        <time>2020-10-18T13:27:06.000Z</time>
      </trkpt>
      <trkpt lat="48.25163" lon="-3.45779">
        <ele>127.40000152588</ele>
        <time>2020-10-18T13:27:07.000Z</time>
      </trkpt>
      <trkpt lat="48.25163" lon="-3.45779">
        <ele>127.40000152588</ele>
        <time>2020-10-18T13:27:08.000Z</time>
      </trkpt>
      <trkpt lat="48.25162" lon="-3.45773">
        <ele>127.40000152588</ele>
        <time>2020-10-18T13:27:09.000Z</time>
      </trkpt>
      <trkpt lat="48.25161" lon="-3.45761">
        <ele>127.59999847412</ele>
        <time>2020-10-18T13:27:10.000Z</time>
      </trkpt>
      <trkpt lat="48.25161" lon="-3.45761">
        <ele>127.59999847412</ele>
        <time>2020-10-18T13:27:11.000Z</time>
      </trkpt>
      <trkpt lat="48.2516" lon="-3.45755">
        <ele>127.80000305176</ele>
        <time>2020-10-18T13:27:12.000Z</time>
      </trkpt>
      <trkpt lat="48.25157" lon="-3.45742">
        <ele>128</ele>
        <time>2020-10-18T13:27:13.000Z</time>
      </trkpt>
      <trkpt lat="48.25157" lon="-3.45742">
        <ele>128</ele>
        <time>2020-10-18T13:27:14.000Z</time>
      </trkpt>
      <trkpt lat="48.25156" lon="-3.45735">
        <ele>128.19999694824</ele>
        <time>2020-10-18T13:27:15.000Z</time>
      </trkpt>
      <trkpt lat="48.25154" lon="-3.45723">
        <ele>128.39999389648</ele>
        <time>2020-10-18T13:27:16.000Z</time>
      </trkpt>
      <trkpt lat="48.25154" lon="-3.45723">
        <ele>128.39999389648</ele>
        <time>2020-10-18T13:27:17.000Z</time>
      </trkpt>
      <trkpt lat="48.25152" lon="-3.45712">
        <ele>128.60000610352</ele>
        <time>2020-10-18T13:27:18.000Z</time>
      </trkpt>
      <trkpt lat="48.25152" lon="-3.45712">
        <ele>128.60000610352</ele>
        <time>2020-10-18T13:27:19.000Z</time>
      </trkpt>
      <trkpt lat="48.25152" lon="-3.45706">
        <ele>128.80000305176</ele>
        <time>2020-10-18T13:27:20.000Z</time>
      </trkpt>
      <trkpt lat="48.25151" lon="-3.45693">
        <ele>128.80000305176</ele>
        <time>2020-10-18T13:27:21.000Z</time>
      </trkpt>
      <trkpt lat="48.25151" lon="-3.45693">
        <ele>128.80000305176</ele>
        <time>2020-10-18T13:27:22.000Z</time>
      </trkpt>
      <trkpt lat="48.25151" lon="-3.45686">
        <ele>129</ele>
        <time>2020-10-18T13:27:23.000Z</time>
      </trkpt>
      <trkpt lat="48.25151" lon="-3.45673">
        <ele>129.19999694824</ele>
        <time>2020-10-18T13:27:24.000Z</time>
      </trkpt>
      <trkpt lat="48.25151" lon="-3.45673">
        <ele>129.19999694824</ele>
        <time>2020-10-18T13:27:25.000Z</time>
      </trkpt>
      <trkpt lat="48.25151" lon="-3.45666">
        <ele>129.39999389648</ele>
        <time>2020-10-18T13:27:26.000Z</time>
      </trkpt>
      <trkpt lat="48.25151" lon="-3.45654">
        <ele>129.60000610352</ele>
        <time>2020-10-18T13:27:27.000Z</time>
      </trkpt>
      <trkpt lat="48.25151" lon="-3.45654">
        <ele>129.60000610352</ele>
        <time>2020-10-18T13:27:28.000Z</time>
      </trkpt>
      <trkpt lat="48.25151" lon="-3.45647">
        <ele>129.80000305176</ele>
        <time>2020-10-18T13:27:29.000Z</time>
      </trkpt>
      <trkpt lat="48.25151" lon="-3.45634">
        <ele>130.19999694824</ele>
        <time>2020-10-18T13:27:30.000Z</time>
      </trkpt>
      <trkpt lat="48.25151" lon="-3.45634">
        <ele>130.19999694824</ele>
        <time>2020-10-18T13:27:31.000Z</time>
      </trkpt>
      <trkpt lat="48.25151" lon="-3.45627">
        <ele>130.39999389648</ele>
        <time>2020-10-18T13:27:32.000Z</time>
      </trkpt>
      <trkpt lat="48.25152" lon="-3.45614">
        <ele>130.60000610352</ele>
        <time>2020-10-18T13:27:33.000Z</time>
      </trkpt>
      <trkpt lat="48.25152" lon="-3.45614">
        <ele>130.60000610352</ele>
        <time>2020-10-18T13:27:34.000Z</time>
      </trkpt>
      <trkpt lat="48.25152" lon="-3.45608">
        <ele>130.60000610352</ele>
        <time>2020-10-18T13:27:35.000Z</time>
      </trkpt>
      <trkpt lat="48.25153" lon="-3.45595">
        <ele>130.80000305176</ele>
        <time>2020-10-18T13:27:36.000Z</time>
      </trkpt>
      <trkpt lat="48.25153" lon="-3.45595">
        <ele>130.80000305176</ele>
        <time>2020-10-18T13:27:37.000Z</time>
      </trkpt>
      <trkpt lat="48.25153" lon="-3.45588">
        <ele>130.80000305176</ele>
        <time>2020-10-18T13:27:38.000Z</time>
      </trkpt>
      <trkpt lat="48.25154" lon="-3.45574">
        <ele>130.80000305176</ele>
        <time>2020-10-18T13:27:39.000Z</time>
      </trkpt>
      <trkpt lat="48.25154" lon="-3.45574">
        <ele>130.80000305176</ele>
        <time>2020-10-18T13:27:40.000Z</time>
      </trkpt>
      <trkpt lat="48.25154" lon="-3.45567">
        <ele>130.80000305176</ele>
        <time>2020-10-18T13:27:41.000Z</time>
      </trkpt>
      <trkpt lat="48.25154" lon="-3.45551">
        <ele>130.80000305176</ele>
        <time>2020-10-18T13:27:42.000Z</time>
      </trkpt>
      <trkpt lat="48.25154" lon="-3.45551">
        <ele>130.80000305176</ele>
        <time>2020-10-18T13:27:43.000Z</time>
      </trkpt>
      <trkpt lat="48.25154" lon="-3.45544">
        <ele>130.80000305176</ele>
        <time>2020-10-18T13:27:44.000Z</time>
      </trkpt>
      <trkpt lat="48.25154" lon="-3.45529">
        <ele>131.19999694824</ele>
        <time>2020-10-18T13:27:45.000Z</time>
      </trkpt>
      <trkpt lat="48.25154" lon="-3.45529">
        <ele>131.19999694824</ele>
        <time>2020-10-18T13:27:46.000Z</time>
      </trkpt>
      <trkpt lat="48.25153" lon="-3.45515">
        <ele>131.80000305176</ele>
        <time>2020-10-18T13:27:47.000Z</time>
      </trkpt>
      <trkpt lat="48.25153" lon="-3.45515">
        <ele>131.80000305176</ele>
        <time>2020-10-18T13:27:48.000Z</time>
      </trkpt>
      <trkpt lat="48.25153" lon="-3.455">
        <ele>131.80000305176</ele>
        <time>2020-10-18T13:27:49.000Z</time>
      </trkpt>
      <trkpt lat="48.25153" lon="-3.455">
        <ele>131.80000305176</ele>
        <time>2020-10-18T13:27:50.000Z</time>
      </trkpt>
      <trkpt lat="48.25153" lon="-3.45485">
        <ele>132</ele>
        <time>2020-10-18T13:27:51.000Z</time>
      </trkpt>
      <trkpt lat="48.25153" lon="-3.45485">
        <ele>132</ele>
        <time>2020-10-18T13:27:52.000Z</time>
      </trkpt>
      <trkpt lat="48.25153" lon="-3.45471">
        <ele>132.19999694824</ele>
        <time>2020-10-18T13:27:53.000Z</time>
      </trkpt>
      <trkpt lat="48.25153" lon="-3.45471">
        <ele>132.19999694824</ele>
        <time>2020-10-18T13:27:54.000Z</time>
      </trkpt>
      <trkpt lat="48.25153" lon="-3.45464">
        <ele>132.39999389648</ele>
        <time>2020-10-18T13:27:55.000Z</time>
      </trkpt>
      <trkpt lat="48.25154" lon="-3.4545">
        <ele>132.80000305176</ele>
        <time>2020-10-18T13:27:56.000Z</time>
      </trkpt>
      <trkpt lat="48.25154" lon="-3.4545">
        <ele>132.80000305176</ele>
        <time>2020-10-18T13:27:57.000Z</time>
      </trkpt>
      <trkpt lat="48.25154" lon="-3.45443">
        <ele>133.19999694824</ele>
        <time>2020-10-18T13:27:58.000Z</time>
      </trkpt>
      <trkpt lat="48.25154" lon="-3.45429">
        <ele>133.60000610352</ele>
        <time>2020-10-18T13:27:59.000Z</time>
      </trkpt>
      <trkpt lat="48.25154" lon="-3.45421">
        <ele>133.80000305176</ele>
        <time>2020-10-18T13:28:00.000Z</time>
      </trkpt>
      <trkpt lat="48.25154" lon="-3.45421">
        <ele>133.80000305176</ele>
        <time>2020-10-18T13:28:01.000Z</time>
      </trkpt>
      <trkpt lat="48.25154" lon="-3.45414">
        <ele>134</ele>
        <time>2020-10-18T13:28:02.000Z</time>
      </trkpt>
      <trkpt lat="48.25155" lon="-3.45399">
        <ele>134.39999389648</ele>
        <time>2020-10-18T13:28:03.000Z</time>
      </trkpt>
      <trkpt lat="48.25155" lon="-3.45399">
        <ele>134.39999389648</ele>
        <time>2020-10-18T13:28:04.000Z</time>
      </trkpt>
      <trkpt lat="48.25156" lon="-3.45385">
        <ele>134.80000305176</ele>
        <time>2020-10-18T13:28:05.000Z</time>
      </trkpt>
      <trkpt lat="48.25156" lon="-3.45385">
        <ele>134.80000305176</ele>
        <time>2020-10-18T13:28:06.000Z</time>
      </trkpt>
      <trkpt lat="48.25156" lon="-3.45378">
        <ele>134.80000305176</ele>
        <time>2020-10-18T13:28:07.000Z</time>
      </trkpt>
      <trkpt lat="48.25157" lon="-3.45363">
        <ele>135</ele>
        <time>2020-10-18T13:28:08.000Z</time>
      </trkpt>
      <trkpt lat="48.25157" lon="-3.45363">
        <ele>135</ele>
        <time>2020-10-18T13:28:09.000Z</time>
      </trkpt>
      <trkpt lat="48.25158" lon="-3.45356">
        <ele>135</ele>
        <time>2020-10-18T13:28:10.000Z</time>
      </trkpt>
      <trkpt lat="48.25158" lon="-3.45342">
        <ele>135</ele>
        <time>2020-10-18T13:28:11.000Z</time>
      </trkpt>
      <trkpt lat="48.25158" lon="-3.45342">
        <ele>135</ele>
        <time>2020-10-18T13:28:12.000Z</time>
      </trkpt>
      <trkpt lat="48.25159" lon="-3.45336">
        <ele>135</ele>
        <time>2020-10-18T13:28:13.000Z</time>
      </trkpt>
      <trkpt lat="48.25159" lon="-3.45322">
        <ele>135</ele>
        <time>2020-10-18T13:28:14.000Z</time>
      </trkpt>
      <trkpt lat="48.25159" lon="-3.45322">
        <ele>135</ele>
        <time>2020-10-18T13:28:15.000Z</time>
      </trkpt>
      <trkpt lat="48.25159" lon="-3.45315">
        <ele>135</ele>
        <time>2020-10-18T13:28:16.000Z</time>
      </trkpt>
      <trkpt lat="48.2516" lon="-3.45309">
        <ele>135</ele>
        <time>2020-10-18T13:28:17.000Z</time>
      </trkpt>
      <trkpt lat="48.25161" lon="-3.45299">
        <ele>135</ele>
        <time>2020-10-18T13:28:18.000Z</time>
      </trkpt>
      <trkpt lat="48.25161" lon="-3.45299">
        <ele>135</ele>
        <time>2020-10-18T13:28:19.000Z</time>
      </trkpt>
      <trkpt lat="48.25161" lon="-3.45295">
        <ele>135</ele>
        <time>2020-10-18T13:28:20.000Z</time>
      </trkpt>
      <trkpt lat="48.2516" lon="-3.45287">
        <ele>135</ele>
        <time>2020-10-18T13:28:21.000Z</time>
      </trkpt>
      <trkpt lat="48.2516" lon="-3.45287">
        <ele>135</ele>
        <time>2020-10-18T13:28:22.000Z</time>
      </trkpt>
      <trkpt lat="48.2516" lon="-3.45283">
        <ele>135</ele>
        <time>2020-10-18T13:28:23.000Z</time>
      </trkpt>
      <trkpt lat="48.2516" lon="-3.45276">
        <ele>134.80000305176</ele>
        <time>2020-10-18T13:28:24.000Z</time>
      </trkpt>
      <trkpt lat="48.2516" lon="-3.45276">
        <ele>134.80000305176</ele>
        <time>2020-10-18T13:28:25.000Z</time>
      </trkpt>
      <trkpt lat="48.2516" lon="-3.45272">
        <ele>134.80000305176</ele>
        <time>2020-10-18T13:28:26.000Z</time>
      </trkpt>
      <trkpt lat="48.2516" lon="-3.45264">
        <ele>134.80000305176</ele>
        <time>2020-10-18T13:28:27.000Z</time>
      </trkpt>
      <trkpt lat="48.2516" lon="-3.45264">
        <ele>134.80000305176</ele>
        <time>2020-10-18T13:28:28.000Z</time>
      </trkpt>
      <trkpt lat="48.25159" lon="-3.4526">
        <ele>134.80000305176</ele>
        <time>2020-10-18T13:28:29.000Z</time>
      </trkpt>
      <trkpt lat="48.25159" lon="-3.45249">
        <ele>134.80000305176</ele>
        <time>2020-10-18T13:28:30.000Z</time>
      </trkpt>
      <trkpt lat="48.25159" lon="-3.45249">
        <ele>134.80000305176</ele>
        <time>2020-10-18T13:28:31.000Z</time>
      </trkpt>
      <trkpt lat="48.25159" lon="-3.45245">
        <ele>134.80000305176</ele>
        <time>2020-10-18T13:28:32.000Z</time>
      </trkpt>
      <trkpt lat="48.25161" lon="-3.45234">
        <ele>134.80000305176</ele>
        <time>2020-10-18T13:28:33.000Z</time>
      </trkpt>
      <trkpt lat="48.25161" lon="-3.45234">
        <ele>134.80000305176</ele>
        <time>2020-10-18T13:28:34.000Z</time>
      </trkpt>
      <trkpt lat="48.25162" lon="-3.45228">
        <ele>134.80000305176</ele>
        <time>2020-10-18T13:28:35.000Z</time>
      </trkpt>
      <trkpt lat="48.25165" lon="-3.45216">
        <ele>134.80000305176</ele>
        <time>2020-10-18T13:28:36.000Z</time>
      </trkpt>
      <trkpt lat="48.25165" lon="-3.45216">
        <ele>134.80000305176</ele>
        <time>2020-10-18T13:28:37.000Z</time>
      </trkpt>
      <trkpt lat="48.25167" lon="-3.4521">
        <ele>134.80000305176</ele>
        <time>2020-10-18T13:28:38.000Z</time>
      </trkpt>
      <trkpt lat="48.25171" lon="-3.45201">
        <ele>134.80000305176</ele>
        <time>2020-10-18T13:28:39.000Z</time>
      </trkpt>
      <trkpt lat="48.25171" lon="-3.45201">
        <ele>134.80000305176</ele>
        <time>2020-10-18T13:28:40.000Z</time>
      </trkpt>
      <trkpt lat="48.25173" lon="-3.45195">
        <ele>135</ele>
        <time>2020-10-18T13:28:41.000Z</time>
      </trkpt>
      <trkpt lat="48.25177" lon="-3.45185">
        <ele>135</ele>
        <time>2020-10-18T13:28:42.000Z</time>
      </trkpt>
      <trkpt lat="48.25177" lon="-3.45185">
        <ele>135</ele>
        <time>2020-10-18T13:28:43.000Z</time>
      </trkpt>
      <trkpt lat="48.2518" lon="-3.4518">
        <ele>135</ele>
        <time>2020-10-18T13:28:44.000Z</time>
      </trkpt>
      <trkpt lat="48.25186" lon="-3.4517">
        <ele>134.80000305176</ele>
        <time>2020-10-18T13:28:45.000Z</time>
      </trkpt>
      <trkpt lat="48.25186" lon="-3.4517">
        <ele>134.80000305176</ele>
        <time>2020-10-18T13:28:46.000Z</time>
      </trkpt>
      <trkpt lat="48.25189" lon="-3.45166">
        <ele>134.60000610352</ele>
        <time>2020-10-18T13:28:47.000Z</time>
      </trkpt>
      <trkpt lat="48.25192" lon="-3.45161">
        <ele>134.39999389648</ele>
        <time>2020-10-18T13:28:48.000Z</time>
      </trkpt>
      <trkpt lat="48.25198" lon="-3.45154">
        <ele>134.39999389648</ele>
        <time>2020-10-18T13:28:49.000Z</time>
      </trkpt>
      <trkpt lat="48.25198" lon="-3.45154">
        <ele>134.39999389648</ele>
        <time>2020-10-18T13:28:50.000Z</time>
      </trkpt>
      <trkpt lat="48.25201" lon="-3.45152">
        <ele>134.19999694824</ele>
        <time>2020-10-18T13:28:51.000Z</time>
      </trkpt>
      <trkpt lat="48.25206" lon="-3.45145">
        <ele>134.19999694824</ele>
        <time>2020-10-18T13:28:52.000Z</time>
      </trkpt>
      <trkpt lat="48.25206" lon="-3.45145">
        <ele>134.19999694824</ele>
        <time>2020-10-18T13:28:53.000Z</time>
      </trkpt>
      <trkpt lat="48.25211" lon="-3.45138">
        <ele>134</ele>
        <time>2020-10-18T13:28:54.000Z</time>
      </trkpt>
      <trkpt lat="48.25211" lon="-3.45138">
        <ele>134</ele>
        <time>2020-10-18T13:28:55.000Z</time>
      </trkpt>
      <trkpt lat="48.25214" lon="-3.45134">
        <ele>133.80000305176</ele>
        <time>2020-10-18T13:28:56.000Z</time>
      </trkpt>
      <trkpt lat="48.2522" lon="-3.45126">
        <ele>133.60000610352</ele>
        <time>2020-10-18T13:28:57.000Z</time>
      </trkpt>
      <trkpt lat="48.2522" lon="-3.45126">
        <ele>133.60000610352</ele>
        <time>2020-10-18T13:28:58.000Z</time>
      </trkpt>
      <trkpt lat="48.25223" lon="-3.45122">
        <ele>133.60000610352</ele>
        <time>2020-10-18T13:28:59.000Z</time>
      </trkpt>
      <trkpt lat="48.25229" lon="-3.45114">
        <ele>133.39999389648</ele>
        <time>2020-10-18T13:29:00.000Z</time>
      </trkpt>
      <trkpt lat="48.25229" lon="-3.45114">
        <ele>133.39999389648</ele>
        <time>2020-10-18T13:29:01.000Z</time>
      </trkpt>
      <trkpt lat="48.25233" lon="-3.45111">
        <ele>133.19999694824</ele>
        <time>2020-10-18T13:29:02.000Z</time>
      </trkpt>
      <trkpt lat="48.25241" lon="-3.45103">
        <ele>133.19999694824</ele>
        <time>2020-10-18T13:29:03.000Z</time>
      </trkpt>
      <trkpt lat="48.25241" lon="-3.45103">
        <ele>133.19999694824</ele>
        <time>2020-10-18T13:29:04.000Z</time>
      </trkpt>
      <trkpt lat="48.25245" lon="-3.451">
        <ele>133</ele>
        <time>2020-10-18T13:29:05.000Z</time>
      </trkpt>
      <trkpt lat="48.25252" lon="-3.45092">
        <ele>133</ele>
        <time>2020-10-18T13:29:06.000Z</time>
      </trkpt>
      <trkpt lat="48.25252" lon="-3.45092">
        <ele>133</ele>
        <time>2020-10-18T13:29:07.000Z</time>
      </trkpt>
      <trkpt lat="48.25256" lon="-3.45088">
        <ele>133</ele>
        <time>2020-10-18T13:29:08.000Z</time>
      </trkpt>
      <trkpt lat="48.25263" lon="-3.45082">
        <ele>133</ele>
        <time>2020-10-18T13:29:09.000Z</time>
      </trkpt>
      <trkpt lat="48.25263" lon="-3.45082">
        <ele>133</ele>
        <time>2020-10-18T13:29:10.000Z</time>
      </trkpt>
      <trkpt lat="48.25267" lon="-3.45079">
        <ele>133</ele>
        <time>2020-10-18T13:29:11.000Z</time>
      </trkpt>
      <trkpt lat="48.25275" lon="-3.45073">
        <ele>133</ele>
        <time>2020-10-18T13:29:12.000Z</time>
      </trkpt>
      <trkpt lat="48.25275" lon="-3.45073">
        <ele>133</ele>
        <time>2020-10-18T13:29:13.000Z</time>
      </trkpt>
      <trkpt lat="48.25279" lon="-3.4507">
        <ele>133</ele>
        <time>2020-10-18T13:29:14.000Z</time>
      </trkpt>
      <trkpt lat="48.25287" lon="-3.45065">
        <ele>133</ele>
        <time>2020-10-18T13:29:15.000Z</time>
      </trkpt>
      <trkpt lat="48.25287" lon="-3.45065">
        <ele>133</ele>
        <time>2020-10-18T13:29:16.000Z</time>
      </trkpt>
      <trkpt lat="48.25291" lon="-3.45061">
        <ele>133</ele>
        <time>2020-10-18T13:29:17.000Z</time>
      </trkpt>
      <trkpt lat="48.25299" lon="-3.45055">
        <ele>133</ele>
        <time>2020-10-18T13:29:18.000Z</time>
      </trkpt>
      <trkpt lat="48.25303" lon="-3.45052">
        <ele>133</ele>
        <time>2020-10-18T13:29:19.000Z</time>
      </trkpt>
      <trkpt lat="48.25303" lon="-3.45052">
        <ele>133</ele>
        <time>2020-10-18T13:29:20.000Z</time>
      </trkpt>
      <trkpt lat="48.25307" lon="-3.45049">
        <ele>133</ele>
        <time>2020-10-18T13:29:21.000Z</time>
      </trkpt>
      <trkpt lat="48.25314" lon="-3.45043">
        <ele>133</ele>
        <time>2020-10-18T13:29:22.000Z</time>
      </trkpt>
      <trkpt lat="48.25314" lon="-3.45043">
        <ele>133</ele>
        <time>2020-10-18T13:29:23.000Z</time>
      </trkpt>
      <trkpt lat="48.25317" lon="-3.4504">
        <ele>133</ele>
        <time>2020-10-18T13:29:24.000Z</time>
      </trkpt>
      <trkpt lat="48.25324" lon="-3.45034">
        <ele>133</ele>
        <time>2020-10-18T13:29:25.000Z</time>
      </trkpt>
      <trkpt lat="48.25324" lon="-3.45034">
        <ele>133</ele>
        <time>2020-10-18T13:29:26.000Z</time>
      </trkpt>
      <trkpt lat="48.25328" lon="-3.45031">
        <ele>133</ele>
        <time>2020-10-18T13:29:27.000Z</time>
      </trkpt>
      <trkpt lat="48.25336" lon="-3.45024">
        <ele>133</ele>
        <time>2020-10-18T13:29:28.000Z</time>
      </trkpt>
      <trkpt lat="48.25336" lon="-3.45024">
        <ele>133</ele>
        <time>2020-10-18T13:29:29.000Z</time>
      </trkpt>
      <trkpt lat="48.2534" lon="-3.4502">
        <ele>133</ele>
        <time>2020-10-18T13:29:30.000Z</time>
      </trkpt>
      <trkpt lat="48.25348" lon="-3.45014">
        <ele>133</ele>
        <time>2020-10-18T13:29:31.000Z</time>
      </trkpt>
      <trkpt lat="48.25348" lon="-3.45014">
        <ele>133</ele>
        <time>2020-10-18T13:29:32.000Z</time>
      </trkpt>
      <trkpt lat="48.25352" lon="-3.45011">
        <ele>133</ele>
        <time>2020-10-18T13:29:33.000Z</time>
      </trkpt>
      <trkpt lat="48.25359" lon="-3.45006">
        <ele>132.80000305176</ele>
        <time>2020-10-18T13:29:34.000Z</time>
      </trkpt>
      <trkpt lat="48.25359" lon="-3.45006">
        <ele>132.80000305176</ele>
        <time>2020-10-18T13:29:35.000Z</time>
      </trkpt>
      <trkpt lat="48.25363" lon="-3.45002">
        <ele>132.80000305176</ele>
        <time>2020-10-18T13:29:36.000Z</time>
      </trkpt>
      <trkpt lat="48.25372" lon="-3.44995">
        <ele>132.80000305176</ele>
        <time>2020-10-18T13:29:37.000Z</time>
      </trkpt>
      <trkpt lat="48.25376" lon="-3.44992">
        <ele>132.80000305176</ele>
        <time>2020-10-18T13:29:38.000Z</time>
      </trkpt>
      <trkpt lat="48.25376" lon="-3.44992">
        <ele>132.80000305176</ele>
        <time>2020-10-18T13:29:39.000Z</time>
      </trkpt>
      <trkpt lat="48.25381" lon="-3.44989">
        <ele>132.80000305176</ele>
        <time>2020-10-18T13:29:40.000Z</time>
      </trkpt>
      <trkpt lat="48.25389" lon="-3.44981">
        <ele>132.80000305176</ele>
        <time>2020-10-18T13:29:41.000Z</time>
      </trkpt>
      <trkpt lat="48.25389" lon="-3.44981">
        <ele>132.80000305176</ele>
        <time>2020-10-18T13:29:42.000Z</time>
      </trkpt>
      <trkpt lat="48.25393" lon="-3.44978">
        <ele>132.60000610352</ele>
        <time>2020-10-18T13:29:43.000Z</time>
      </trkpt>
      <trkpt lat="48.25401" lon="-3.44971">
        <ele>132.60000610352</ele>
        <time>2020-10-18T13:29:44.000Z</time>
      </trkpt>
      <trkpt lat="48.25401" lon="-3.44971">
        <ele>132.60000610352</ele>
        <time>2020-10-18T13:29:45.000Z</time>
      </trkpt>
      <trkpt lat="48.25405" lon="-3.44967">
        <ele>132.60000610352</ele>
        <time>2020-10-18T13:29:46.000Z</time>
      </trkpt>
      <trkpt lat="48.25413" lon="-3.4496">
        <ele>132.60000610352</ele>
        <time>2020-10-18T13:29:47.000Z</time>
      </trkpt>
      <trkpt lat="48.25413" lon="-3.4496">
        <ele>132.60000610352</ele>
        <time>2020-10-18T13:29:48.000Z</time>
      </trkpt>
      <trkpt lat="48.25421" lon="-3.44953">
        <ele>132.60000610352</ele>
        <time>2020-10-18T13:29:49.000Z</time>
      </trkpt>
      <trkpt lat="48.25421" lon="-3.44953">
        <ele>132.60000610352</ele>
        <time>2020-10-18T13:29:50.000Z</time>
      </trkpt>
      <trkpt lat="48.25425" lon="-3.44949">
        <ele>132.60000610352</ele>
        <time>2020-10-18T13:29:51.000Z</time>
      </trkpt>
      <trkpt lat="48.25433" lon="-3.44943">
        <ele>132.60000610352</ele>
        <time>2020-10-18T13:29:52.000Z</time>
      </trkpt>
      <trkpt lat="48.25433" lon="-3.44943">
        <ele>132.60000610352</ele>
        <time>2020-10-18T13:29:53.000Z</time>
      </trkpt>
      <trkpt lat="48.25437" lon="-3.4494">
        <ele>132.80000305176</ele>
        <time>2020-10-18T13:29:54.000Z</time>
      </trkpt>
      <trkpt lat="48.25445" lon="-3.44934">
        <ele>133.19999694824</ele>
        <time>2020-10-18T13:29:55.000Z</time>
      </trkpt>
      <trkpt lat="48.25445" lon="-3.44934">
        <ele>133.19999694824</ele>
        <time>2020-10-18T13:29:56.000Z</time>
      </trkpt>
      <trkpt lat="48.25448" lon="-3.44931">
        <ele>133.19999694824</ele>
        <time>2020-10-18T13:29:57.000Z</time>
      </trkpt>
      <trkpt lat="48.25455" lon="-3.44924">
        <ele>133.19999694824</ele>
        <time>2020-10-18T13:29:58.000Z</time>
      </trkpt>
      <trkpt lat="48.25455" lon="-3.44924">
        <ele>133.19999694824</ele>
        <time>2020-10-18T13:29:59.000Z</time>
      </trkpt>
      <trkpt lat="48.25458" lon="-3.44921">
        <ele>133</ele>
        <time>2020-10-18T13:30:00.000Z</time>
      </trkpt>
      <trkpt lat="48.25463" lon="-3.44916">
        <ele>133</ele>
        <time>2020-10-18T13:30:01.000Z</time>
      </trkpt>
      <trkpt lat="48.25466" lon="-3.44913">
        <ele>133</ele>
        <time>2020-10-18T13:30:02.000Z</time>
      </trkpt>
      <trkpt lat="48.25466" lon="-3.44913">
        <ele>133</ele>
        <time>2020-10-18T13:30:03.000Z</time>
      </trkpt>
      <trkpt lat="48.25472" lon="-3.44908">
        <ele>133</ele>
        <time>2020-10-18T13:30:04.000Z</time>
      </trkpt>
      <trkpt lat="48.25472" lon="-3.44908">
        <ele>133</ele>
        <time>2020-10-18T13:30:05.000Z</time>
      </trkpt>
      <trkpt lat="48.25476" lon="-3.44905">
        <ele>132.80000305176</ele>
        <time>2020-10-18T13:30:06.000Z</time>
      </trkpt>
      <trkpt lat="48.25483" lon="-3.44897">
        <ele>132.80000305176</ele>
        <time>2020-10-18T13:30:07.000Z</time>
      </trkpt>
      <trkpt lat="48.25483" lon="-3.44897">
        <ele>132.80000305176</ele>
        <time>2020-10-18T13:30:08.000Z</time>
      </trkpt>
      <trkpt lat="48.25487" lon="-3.44893">
        <ele>132.80000305176</ele>
        <time>2020-10-18T13:30:09.000Z</time>
      </trkpt>
      <trkpt lat="48.25494" lon="-3.44887">
        <ele>132.60000610352</ele>
        <time>2020-10-18T13:30:10.000Z</time>
      </trkpt>
      <trkpt lat="48.25494" lon="-3.44887">
        <ele>132.60000610352</ele>
        <time>2020-10-18T13:30:11.000Z</time>
      </trkpt>
      <trkpt lat="48.25498" lon="-3.44884">
        <ele>132.60000610352</ele>
        <time>2020-10-18T13:30:12.000Z</time>
      </trkpt>
      <trkpt lat="48.25506" lon="-3.44878">
        <ele>132.60000610352</ele>
        <time>2020-10-18T13:30:13.000Z</time>
      </trkpt>
      <trkpt lat="48.25506" lon="-3.44878">
        <ele>132.60000610352</ele>
        <time>2020-10-18T13:30:14.000Z</time>
      </trkpt>
      <trkpt lat="48.2551" lon="-3.44875">
        <ele>132.60000610352</ele>
        <time>2020-10-18T13:30:15.000Z</time>
      </trkpt>
      <trkpt lat="48.25518" lon="-3.44868">
        <ele>132.60000610352</ele>
        <time>2020-10-18T13:30:16.000Z</time>
      </trkpt>
      <trkpt lat="48.25518" lon="-3.44868">
        <ele>132.60000610352</ele>
        <time>2020-10-18T13:30:17.000Z</time>
      </trkpt>
      <trkpt lat="48.25522" lon="-3.44865">
        <ele>132.80000305176</ele>
        <time>2020-10-18T13:30:18.000Z</time>
      </trkpt>
      <trkpt lat="48.2553" lon="-3.44859">
        <ele>132.80000305176</ele>
        <time>2020-10-18T13:30:19.000Z</time>
      </trkpt>
      <trkpt lat="48.2553" lon="-3.44859">
        <ele>132.80000305176</ele>
        <time>2020-10-18T13:30:20.000Z</time>
      </trkpt>
      <trkpt lat="48.25538" lon="-3.44852">
        <ele>133</ele>
        <time>2020-10-18T13:30:21.000Z</time>
      </trkpt>
      <trkpt lat="48.25538" lon="-3.44852">
        <ele>133</ele>
        <time>2020-10-18T13:30:22.000Z</time>
      </trkpt>
      <trkpt lat="48.25542" lon="-3.44848">
        <ele>133</ele>
        <time>2020-10-18T13:30:23.000Z</time>
      </trkpt>
      <trkpt lat="48.2555" lon="-3.44842">
        <ele>133.19999694824</ele>
        <time>2020-10-18T13:30:24.000Z</time>
      </trkpt>
      <trkpt lat="48.2555" lon="-3.44842">
        <ele>133.19999694824</ele>
        <time>2020-10-18T13:30:25.000Z</time>
      </trkpt>
      <trkpt lat="48.25557" lon="-3.44836">
        <ele>133.39999389648</ele>
        <time>2020-10-18T13:30:26.000Z</time>
      </trkpt>
      <trkpt lat="48.25557" lon="-3.44836">
        <ele>133.39999389648</ele>
        <time>2020-10-18T13:30:27.000Z</time>
      </trkpt>
      <trkpt lat="48.25561" lon="-3.44834">
        <ele>133.60000610352</ele>
        <time>2020-10-18T13:30:28.000Z</time>
      </trkpt>
      <trkpt lat="48.25568" lon="-3.44827">
        <ele>133.80000305176</ele>
        <time>2020-10-18T13:30:29.000Z</time>
      </trkpt>
      <trkpt lat="48.25568" lon="-3.44827">
        <ele>133.80000305176</ele>
        <time>2020-10-18T13:30:30.000Z</time>
      </trkpt>
      <trkpt lat="48.25572" lon="-3.44824">
        <ele>133.80000305176</ele>
        <time>2020-10-18T13:30:31.000Z</time>
      </trkpt>
      <trkpt lat="48.2558" lon="-3.44817">
        <ele>134</ele>
        <time>2020-10-18T13:30:32.000Z</time>
      </trkpt>
      <trkpt lat="48.2558" lon="-3.44817">
        <ele>134</ele>
        <time>2020-10-18T13:30:33.000Z</time>
      </trkpt>
      <trkpt lat="48.25584" lon="-3.44814">
        <ele>134.19999694824</ele>
        <time>2020-10-18T13:30:34.000Z</time>
      </trkpt>
      <trkpt lat="48.25592" lon="-3.44806">
        <ele>134.39999389648</ele>
        <time>2020-10-18T13:30:35.000Z</time>
      </trkpt>
      <trkpt lat="48.25592" lon="-3.44806">
        <ele>134.39999389648</ele>
        <time>2020-10-18T13:30:36.000Z</time>
      </trkpt>
      <trkpt lat="48.25595" lon="-3.44802">
        <ele>134.39999389648</ele>
        <time>2020-10-18T13:30:37.000Z</time>
      </trkpt>
      <trkpt lat="48.256" lon="-3.44792">
        <ele>134.39999389648</ele>
        <time>2020-10-18T13:30:38.000Z</time>
      </trkpt>
      <trkpt lat="48.256" lon="-3.44792">
        <ele>134.39999389648</ele>
        <time>2020-10-18T13:30:39.000Z</time>
      </trkpt>
      <trkpt lat="48.25603" lon="-3.44787">
        <ele>134.19999694824</ele>
        <time>2020-10-18T13:30:40.000Z</time>
      </trkpt>
      <trkpt lat="48.25608" lon="-3.44775">
        <ele>134.19999694824</ele>
        <time>2020-10-18T13:30:41.000Z</time>
      </trkpt>
      <trkpt lat="48.25608" lon="-3.44775">
        <ele>134.19999694824</ele>
        <time>2020-10-18T13:30:42.000Z</time>
      </trkpt>
      <trkpt lat="48.2561" lon="-3.4477">
        <ele>134</ele>
        <time>2020-10-18T13:30:43.000Z</time>
      </trkpt>
      <trkpt lat="48.25614" lon="-3.44759">
        <ele>134</ele>
        <time>2020-10-18T13:30:44.000Z</time>
      </trkpt>
      <trkpt lat="48.25614" lon="-3.44759">
        <ele>134</ele>
        <time>2020-10-18T13:30:45.000Z</time>
      </trkpt>
      <trkpt lat="48.25616" lon="-3.44753">
        <ele>134</ele>
        <time>2020-10-18T13:30:46.000Z</time>
      </trkpt>
      <trkpt lat="48.25617" lon="-3.44747">
        <ele>134</ele>
        <time>2020-10-18T13:30:47.000Z</time>
      </trkpt>
      <trkpt lat="48.25618" lon="-3.44741">
        <ele>134</ele>
        <time>2020-10-18T13:30:48.000Z</time>
      </trkpt>
      <trkpt lat="48.2562" lon="-3.44729">
        <ele>134</ele>
        <time>2020-10-18T13:30:49.000Z</time>
      </trkpt>
      <trkpt lat="48.2562" lon="-3.44729">
        <ele>134</ele>
        <time>2020-10-18T13:30:50.000Z</time>
      </trkpt>
      <trkpt lat="48.25621" lon="-3.44723">
        <ele>134</ele>
        <time>2020-10-18T13:30:51.000Z</time>
      </trkpt>
      <trkpt lat="48.25621" lon="-3.44711">
        <ele>134</ele>
        <time>2020-10-18T13:30:52.000Z</time>
      </trkpt>
      <trkpt lat="48.25621" lon="-3.44711">
        <ele>134</ele>
        <time>2020-10-18T13:30:53.000Z</time>
      </trkpt>
      <trkpt lat="48.25621" lon="-3.44704">
        <ele>134</ele>
        <time>2020-10-18T13:30:54.000Z</time>
      </trkpt>
      <trkpt lat="48.25622" lon="-3.44692">
        <ele>134</ele>
        <time>2020-10-18T13:30:55.000Z</time>
      </trkpt>
      <trkpt lat="48.25622" lon="-3.44692">
        <ele>134</ele>
        <time>2020-10-18T13:30:56.000Z</time>
      </trkpt>
      <trkpt lat="48.25622" lon="-3.44686">
        <ele>134</ele>
        <time>2020-10-18T13:30:57.000Z</time>
      </trkpt>
      <trkpt lat="48.25622" lon="-3.44672">
        <ele>134.19999694824</ele>
        <time>2020-10-18T13:30:58.000Z</time>
      </trkpt>
      <trkpt lat="48.25622" lon="-3.44672">
        <ele>134.19999694824</ele>
        <time>2020-10-18T13:30:59.000Z</time>
      </trkpt>
      <trkpt lat="48.25622" lon="-3.44667">
        <ele>134.19999694824</ele>
        <time>2020-10-18T13:31:00.000Z</time>
      </trkpt>
      <trkpt lat="48.25622" lon="-3.44656">
        <ele>134.39999389648</ele>
        <time>2020-10-18T13:31:01.000Z</time>
      </trkpt>
      <trkpt lat="48.25622" lon="-3.44656">
        <ele>134.39999389648</ele>
        <time>2020-10-18T13:31:02.000Z</time>
      </trkpt>
      <trkpt lat="48.25622" lon="-3.4465">
        <ele>134.39999389648</ele>
        <time>2020-10-18T13:31:03.000Z</time>
      </trkpt>
      <trkpt lat="48.25621" lon="-3.4464">
        <ele>134.39999389648</ele>
        <time>2020-10-18T13:31:04.000Z</time>
      </trkpt>
      <trkpt lat="48.25621" lon="-3.4464">
        <ele>134.39999389648</ele>
        <time>2020-10-18T13:31:05.000Z</time>
      </trkpt>
      <trkpt lat="48.25621" lon="-3.4463">
        <ele>134.19999694824</ele>
        <time>2020-10-18T13:31:06.000Z</time>
      </trkpt>
      <trkpt lat="48.25621" lon="-3.4463">
        <ele>134.19999694824</ele>
        <time>2020-10-18T13:31:07.000Z</time>
      </trkpt>
      <trkpt lat="48.2562" lon="-3.44625">
        <ele>134.19999694824</ele>
        <time>2020-10-18T13:31:08.000Z</time>
      </trkpt>
      <trkpt lat="48.2562" lon="-3.44618">
        <ele>134.19999694824</ele>
        <time>2020-10-18T13:31:09.000Z</time>
      </trkpt>
      <trkpt lat="48.2562" lon="-3.44618">
        <ele>134.19999694824</ele>
        <time>2020-10-18T13:31:10.000Z</time>
      </trkpt>
      <trkpt lat="48.2562" lon="-3.44614">
        <ele>134.19999694824</ele>
        <time>2020-10-18T13:31:11.000Z</time>
      </trkpt>
      <trkpt lat="48.2562" lon="-3.44607">
        <ele>134.19999694824</ele>
        <time>2020-10-18T13:31:12.000Z</time>
      </trkpt>
      <trkpt lat="48.2562" lon="-3.44607">
        <ele>134.19999694824</ele>
        <time>2020-10-18T13:31:13.000Z</time>
      </trkpt>
      <trkpt lat="48.25619" lon="-3.44603">
        <ele>134.19999694824</ele>
        <time>2020-10-18T13:31:14.000Z</time>
      </trkpt>
      <trkpt lat="48.25619" lon="-3.44594">
        <ele>134.39999389648</ele>
        <time>2020-10-18T13:31:15.000Z</time>
      </trkpt>
      <trkpt lat="48.25619" lon="-3.44594">
        <ele>134.39999389648</ele>
        <time>2020-10-18T13:31:16.000Z</time>
      </trkpt>
      <trkpt lat="48.25619" lon="-3.4459">
        <ele>134.39999389648</ele>
        <time>2020-10-18T13:31:17.000Z</time>
      </trkpt>
      <trkpt lat="48.25619" lon="-3.4458">
        <ele>134.60000610352</ele>
        <time>2020-10-18T13:31:18.000Z</time>
      </trkpt>
      <trkpt lat="48.25619" lon="-3.4458">
        <ele>134.60000610352</ele>
        <time>2020-10-18T13:31:19.000Z</time>
      </trkpt>
      <trkpt lat="48.25619" lon="-3.44575">
        <ele>134.60000610352</ele>
        <time>2020-10-18T13:31:20.000Z</time>
      </trkpt>
      <trkpt lat="48.25619" lon="-3.44565">
        <ele>134.60000610352</ele>
        <time>2020-10-18T13:31:21.000Z</time>
      </trkpt>
      <trkpt lat="48.25619" lon="-3.44565">
        <ele>134.60000610352</ele>
        <time>2020-10-18T13:31:22.000Z</time>
      </trkpt>
      <trkpt lat="48.25619" lon="-3.44561">
        <ele>134.60000610352</ele>
        <time>2020-10-18T13:31:23.000Z</time>
      </trkpt>
      <trkpt lat="48.2562" lon="-3.44551">
        <ele>134.60000610352</ele>
        <time>2020-10-18T13:31:24.000Z</time>
      </trkpt>
      <trkpt lat="48.2562" lon="-3.44551">
        <ele>134.60000610352</ele>
        <time>2020-10-18T13:31:25.000Z</time>
      </trkpt>
      <trkpt lat="48.2562" lon="-3.44547">
        <ele>134.60000610352</ele>
        <time>2020-10-18T13:31:26.000Z</time>
      </trkpt>
      <trkpt lat="48.25619" lon="-3.44536">
        <ele>134.60000610352</ele>
        <time>2020-10-18T13:31:27.000Z</time>
      </trkpt>
      <trkpt lat="48.25619" lon="-3.44536">
        <ele>134.60000610352</ele>
        <time>2020-10-18T13:31:28.000Z</time>
      </trkpt>
      <trkpt lat="48.25619" lon="-3.44531">
        <ele>134.60000610352</ele>
        <time>2020-10-18T13:31:29.000Z</time>
      </trkpt>
      <trkpt lat="48.25619" lon="-3.4452">
        <ele>134.60000610352</ele>
        <time>2020-10-18T13:31:30.000Z</time>
      </trkpt>
      <trkpt lat="48.25619" lon="-3.4452">
        <ele>134.60000610352</ele>
        <time>2020-10-18T13:31:31.000Z</time>
      </trkpt>
      <trkpt lat="48.25619" lon="-3.44515">
        <ele>134.60000610352</ele>
        <time>2020-10-18T13:31:32.000Z</time>
      </trkpt>
      <trkpt lat="48.25619" lon="-3.44504">
        <ele>134.39999389648</ele>
        <time>2020-10-18T13:31:33.000Z</time>
      </trkpt>
      <trkpt lat="48.25619" lon="-3.44504">
        <ele>134.39999389648</ele>
        <time>2020-10-18T13:31:34.000Z</time>
      </trkpt>
      <trkpt lat="48.25618" lon="-3.44499">
        <ele>134.39999389648</ele>
        <time>2020-10-18T13:31:35.000Z</time>
      </trkpt>
      <trkpt lat="48.25618" lon="-3.44493">
        <ele>134.19999694824</ele>
        <time>2020-10-18T13:31:36.000Z</time>
      </trkpt>
      <trkpt lat="48.25618" lon="-3.44482">
        <ele>134.39999389648</ele>
        <time>2020-10-18T13:31:37.000Z</time>
      </trkpt>
      <trkpt lat="48.25618" lon="-3.44482">
        <ele>134.39999389648</ele>
        <time>2020-10-18T13:31:38.000Z</time>
      </trkpt>
      <trkpt lat="48.25617" lon="-3.44476">
        <ele>134.39999389648</ele>
        <time>2020-10-18T13:31:39.000Z</time>
      </trkpt>
      <trkpt lat="48.25617" lon="-3.44464">
        <ele>134.60000610352</ele>
        <time>2020-10-18T13:31:40.000Z</time>
      </trkpt>
      <trkpt lat="48.25617" lon="-3.44464">
        <ele>134.60000610352</ele>
        <time>2020-10-18T13:31:41.000Z</time>
      </trkpt>
      <trkpt lat="48.25617" lon="-3.44458">
        <ele>134.60000610352</ele>
        <time>2020-10-18T13:31:42.000Z</time>
      </trkpt>
      <trkpt lat="48.25616" lon="-3.44445">
        <ele>134.80000305176</ele>
        <time>2020-10-18T13:31:43.000Z</time>
      </trkpt>
      <trkpt lat="48.25616" lon="-3.44445">
        <ele>134.80000305176</ele>
        <time>2020-10-18T13:31:44.000Z</time>
      </trkpt>
      <trkpt lat="48.25616" lon="-3.44439">
        <ele>135</ele>
        <time>2020-10-18T13:31:45.000Z</time>
      </trkpt>
      <trkpt lat="48.25615" lon="-3.44425">
        <ele>135</ele>
        <time>2020-10-18T13:31:46.000Z</time>
      </trkpt>
      <trkpt lat="48.25615" lon="-3.44419">
        <ele>134.80000305176</ele>
        <time>2020-10-18T13:31:47.000Z</time>
      </trkpt>
      <trkpt lat="48.25615" lon="-3.44412">
        <ele>134.80000305176</ele>
        <time>2020-10-18T13:31:48.000Z</time>
      </trkpt>
      <trkpt lat="48.25615" lon="-3.44412">
        <ele>134.80000305176</ele>
        <time>2020-10-18T13:31:49.000Z</time>
      </trkpt>
      <trkpt lat="48.25615" lon="-3.44407">
        <ele>134.80000305176</ele>
        <time>2020-10-18T13:31:50.000Z</time>
      </trkpt>
      <trkpt lat="48.25614" lon="-3.44395">
        <ele>134.80000305176</ele>
        <time>2020-10-18T13:31:51.000Z</time>
      </trkpt>
      <trkpt lat="48.25614" lon="-3.44395">
        <ele>134.80000305176</ele>
        <time>2020-10-18T13:31:52.000Z</time>
      </trkpt>
      <trkpt lat="48.25613" lon="-3.44389">
        <ele>134.80000305176</ele>
        <time>2020-10-18T13:31:53.000Z</time>
      </trkpt>
      <trkpt lat="48.25612" lon="-3.44377">
        <ele>134.80000305176</ele>
        <time>2020-10-18T13:31:54.000Z</time>
      </trkpt>
      <trkpt lat="48.25612" lon="-3.44377">
        <ele>134.80000305176</ele>
        <time>2020-10-18T13:31:55.000Z</time>
      </trkpt>
      <trkpt lat="48.25612" lon="-3.44364">
        <ele>134.80000305176</ele>
        <time>2020-10-18T13:31:56.000Z</time>
      </trkpt>
      <trkpt lat="48.25612" lon="-3.44364">
        <ele>134.80000305176</ele>
        <time>2020-10-18T13:31:57.000Z</time>
      </trkpt>
      <trkpt lat="48.25611" lon="-3.44358">
        <ele>134.80000305176</ele>
        <time>2020-10-18T13:31:58.000Z</time>
      </trkpt>
      <trkpt lat="48.2561" lon="-3.44345">
        <ele>134.80000305176</ele>
        <time>2020-10-18T13:31:59.000Z</time>
      </trkpt>
      <trkpt lat="48.2561" lon="-3.44345">
        <ele>134.80000305176</ele>
        <time>2020-10-18T13:32:00.000Z</time>
      </trkpt>
      <trkpt lat="48.2561" lon="-3.44338">
        <ele>135</ele>
        <time>2020-10-18T13:32:01.000Z</time>
      </trkpt>
      <trkpt lat="48.25608" lon="-3.44324">
        <ele>135</ele>
        <time>2020-10-18T13:32:02.000Z</time>
      </trkpt>
      <trkpt lat="48.25608" lon="-3.44324">
        <ele>135</ele>
        <time>2020-10-18T13:32:03.000Z</time>
      </trkpt>
      <trkpt lat="48.25606" lon="-3.44311">
        <ele>135</ele>
        <time>2020-10-18T13:32:04.000Z</time>
      </trkpt>
      <trkpt lat="48.25606" lon="-3.44311">
        <ele>135</ele>
        <time>2020-10-18T13:32:05.000Z</time>
      </trkpt>
      <trkpt lat="48.25606" lon="-3.44304">
        <ele>135</ele>
        <time>2020-10-18T13:32:06.000Z</time>
      </trkpt>
      <trkpt lat="48.25605" lon="-3.44288">
        <ele>135</ele>
        <time>2020-10-18T13:32:07.000Z</time>
      </trkpt>
      <trkpt lat="48.25605" lon="-3.44288">
        <ele>135</ele>
        <time>2020-10-18T13:32:08.000Z</time>
      </trkpt>
      <trkpt lat="48.25605" lon="-3.4428">
        <ele>135</ele>
        <time>2020-10-18T13:32:09.000Z</time>
      </trkpt>
      <trkpt lat="48.25604" lon="-3.44264">
        <ele>135</ele>
        <time>2020-10-18T13:32:10.000Z</time>
      </trkpt>
      <trkpt lat="48.25604" lon="-3.44264">
        <ele>135</ele>
        <time>2020-10-18T13:32:11.000Z</time>
      </trkpt>
      <trkpt lat="48.25603" lon="-3.44256">
        <ele>135</ele>
        <time>2020-10-18T13:32:12.000Z</time>
      </trkpt>
      <trkpt lat="48.25601" lon="-3.44241">
        <ele>135</ele>
        <time>2020-10-18T13:32:13.000Z</time>
      </trkpt>
      <trkpt lat="48.25601" lon="-3.44241">
        <ele>135</ele>
        <time>2020-10-18T13:32:14.000Z</time>
      </trkpt>
      <trkpt lat="48.25599" lon="-3.44234">
        <ele>135</ele>
        <time>2020-10-18T13:32:15.000Z</time>
      </trkpt>
      <trkpt lat="48.25596" lon="-3.44221">
        <ele>135</ele>
        <time>2020-10-18T13:32:16.000Z</time>
      </trkpt>
      <trkpt lat="48.25596" lon="-3.44221">
        <ele>135</ele>
        <time>2020-10-18T13:32:17.000Z</time>
      </trkpt>
      <trkpt lat="48.25595" lon="-3.44215">
        <ele>135</ele>
        <time>2020-10-18T13:32:18.000Z</time>
      </trkpt>
      <trkpt lat="48.25591" lon="-3.44203">
        <ele>135</ele>
        <time>2020-10-18T13:32:19.000Z</time>
      </trkpt>
      <trkpt lat="48.25591" lon="-3.44203">
        <ele>135</ele>
        <time>2020-10-18T13:32:20.000Z</time>
      </trkpt>
      <trkpt lat="48.25586" lon="-3.44192">
        <ele>134.80000305176</ele>
        <time>2020-10-18T13:32:21.000Z</time>
      </trkpt>
      <trkpt lat="48.25586" lon="-3.44192">
        <ele>134.80000305176</ele>
        <time>2020-10-18T13:32:22.000Z</time>
      </trkpt>
      <trkpt lat="48.25583" lon="-3.44186">
        <ele>135</ele>
        <time>2020-10-18T13:32:23.000Z</time>
      </trkpt>
      <trkpt lat="48.25578" lon="-3.44174">
        <ele>135.19999694824</ele>
        <time>2020-10-18T13:32:24.000Z</time>
      </trkpt>
      <trkpt lat="48.25578" lon="-3.44174">
        <ele>135.19999694824</ele>
        <time>2020-10-18T13:32:25.000Z</time>
      </trkpt>
      <trkpt lat="48.25575" lon="-3.44169">
        <ele>135.19999694824</ele>
        <time>2020-10-18T13:32:26.000Z</time>
      </trkpt>
      <trkpt lat="48.2557" lon="-3.44157">
        <ele>135.39999389648</ele>
        <time>2020-10-18T13:32:27.000Z</time>
      </trkpt>
      <trkpt lat="48.2557" lon="-3.44157">
        <ele>135.39999389648</ele>
        <time>2020-10-18T13:32:28.000Z</time>
      </trkpt>
      <trkpt lat="48.25567" lon="-3.44152">
        <ele>135.39999389648</ele>
        <time>2020-10-18T13:32:29.000Z</time>
      </trkpt>
      <trkpt lat="48.25562" lon="-3.44141">
        <ele>135.39999389648</ele>
        <time>2020-10-18T13:32:30.000Z</time>
      </trkpt>
      <trkpt lat="48.25562" lon="-3.44141">
        <ele>135.39999389648</ele>
        <time>2020-10-18T13:32:31.000Z</time>
      </trkpt>
      <trkpt lat="48.25559" lon="-3.44136">
        <ele>135.39999389648</ele>
        <time>2020-10-18T13:32:32.000Z</time>
      </trkpt>
      <trkpt lat="48.25554" lon="-3.44124">
        <ele>135.60000610352</ele>
        <time>2020-10-18T13:32:33.000Z</time>
      </trkpt>
      <trkpt lat="48.25554" lon="-3.44124">
        <ele>135.60000610352</ele>
        <time>2020-10-18T13:32:34.000Z</time>
      </trkpt>
      <trkpt lat="48.25551" lon="-3.44118">
        <ele>135.60000610352</ele>
        <time>2020-10-18T13:32:35.000Z</time>
      </trkpt>
      <trkpt lat="48.25545" lon="-3.44107">
        <ele>135.60000610352</ele>
        <time>2020-10-18T13:32:36.000Z</time>
      </trkpt>
      <trkpt lat="48.25545" lon="-3.44107">
        <ele>135.60000610352</ele>
        <time>2020-10-18T13:32:37.000Z</time>
      </trkpt>
      <trkpt lat="48.25539" lon="-3.44095">
        <ele>135.80000305176</ele>
        <time>2020-10-18T13:32:38.000Z</time>
      </trkpt>
      <trkpt lat="48.25539" lon="-3.44095">
        <ele>135.80000305176</ele>
        <time>2020-10-18T13:32:39.000Z</time>
      </trkpt>
      <trkpt lat="48.25533" lon="-3.44084">
        <ele>136.19999694824</ele>
        <time>2020-10-18T13:32:40.000Z</time>
      </trkpt>
      <trkpt lat="48.25533" lon="-3.44084">
        <ele>136.19999694824</ele>
        <time>2020-10-18T13:32:41.000Z</time>
      </trkpt>
      <trkpt lat="48.25528" lon="-3.44074">
        <ele>136.39999389648</ele>
        <time>2020-10-18T13:32:42.000Z</time>
      </trkpt>
      <trkpt lat="48.25528" lon="-3.44074">
        <ele>136.39999389648</ele>
        <time>2020-10-18T13:32:43.000Z</time>
      </trkpt>
      <trkpt lat="48.25522" lon="-3.44062">
        <ele>136.39999389648</ele>
        <time>2020-10-18T13:32:44.000Z</time>
      </trkpt>
      <trkpt lat="48.25522" lon="-3.44062">
        <ele>136.39999389648</ele>
        <time>2020-10-18T13:32:45.000Z</time>
      </trkpt>
      <trkpt lat="48.25517" lon="-3.4405">
        <ele>136.60000610352</ele>
        <time>2020-10-18T13:32:46.000Z</time>
      </trkpt>
      <trkpt lat="48.25517" lon="-3.4405">
        <ele>136.60000610352</ele>
        <time>2020-10-18T13:32:47.000Z</time>
      </trkpt>
      <trkpt lat="48.25512" lon="-3.44039">
        <ele>136.80000305176</ele>
        <time>2020-10-18T13:32:48.000Z</time>
      </trkpt>
      <trkpt lat="48.25512" lon="-3.44039">
        <ele>136.80000305176</ele>
        <time>2020-10-18T13:32:49.000Z</time>
      </trkpt>
      <trkpt lat="48.25508" lon="-3.44029">
        <ele>137</ele>
        <time>2020-10-18T13:32:50.000Z</time>
      </trkpt>
      <trkpt lat="48.25508" lon="-3.44029">
        <ele>137</ele>
        <time>2020-10-18T13:32:51.000Z</time>
      </trkpt>
      <trkpt lat="48.25503" lon="-3.44018">
        <ele>137.19999694824</ele>
        <time>2020-10-18T13:32:52.000Z</time>
      </trkpt>
      <trkpt lat="48.25503" lon="-3.44018">
        <ele>137.19999694824</ele>
        <time>2020-10-18T13:32:53.000Z</time>
      </trkpt>
      <trkpt lat="48.25501" lon="-3.44013">
        <ele>137.39999389648</ele>
        <time>2020-10-18T13:32:54.000Z</time>
      </trkpt>
      <trkpt lat="48.25497" lon="-3.44004">
        <ele>137.80000305176</ele>
        <time>2020-10-18T13:32:55.000Z</time>
      </trkpt>
      <trkpt lat="48.25497" lon="-3.44004">
        <ele>137.80000305176</ele>
        <time>2020-10-18T13:32:56.000Z</time>
      </trkpt>
      <trkpt lat="48.25493" lon="-3.43995">
        <ele>138.19999694824</ele>
        <time>2020-10-18T13:32:57.000Z</time>
      </trkpt>
      <trkpt lat="48.25493" lon="-3.43995">
        <ele>138.19999694824</ele>
        <time>2020-10-18T13:32:58.000Z</time>
      </trkpt>
      <trkpt lat="48.25489" lon="-3.43985">
        <ele>138.60000610352</ele>
        <time>2020-10-18T13:32:59.000Z</time>
      </trkpt>
      <trkpt lat="48.25489" lon="-3.43985">
        <ele>138.60000610352</ele>
        <time>2020-10-18T13:33:00.000Z</time>
      </trkpt>
      <trkpt lat="48.25484" lon="-3.43975">
        <ele>139</ele>
        <time>2020-10-18T13:33:01.000Z</time>
      </trkpt>
      <trkpt lat="48.25482" lon="-3.4397">
        <ele>139.19999694824</ele>
        <time>2020-10-18T13:33:02.000Z</time>
      </trkpt>
      <trkpt lat="48.25479" lon="-3.43965">
        <ele>139.39999389648</ele>
        <time>2020-10-18T13:33:03.000Z</time>
      </trkpt>
      <trkpt lat="48.25479" lon="-3.43965">
        <ele>139.39999389648</ele>
        <time>2020-10-18T13:33:04.000Z</time>
      </trkpt>
      <trkpt lat="48.25475" lon="-3.43954">
        <ele>139.39999389648</ele>
        <time>2020-10-18T13:33:05.000Z</time>
      </trkpt>
      <trkpt lat="48.25475" lon="-3.43954">
        <ele>139.39999389648</ele>
        <time>2020-10-18T13:33:06.000Z</time>
      </trkpt>
      <trkpt lat="48.2547" lon="-3.43943">
        <ele>139.60000610352</ele>
        <time>2020-10-18T13:33:07.000Z</time>
      </trkpt>
      <trkpt lat="48.2547" lon="-3.43943">
        <ele>139.60000610352</ele>
        <time>2020-10-18T13:33:08.000Z</time>
      </trkpt>
      <trkpt lat="48.25467" lon="-3.43937">
        <ele>139.60000610352</ele>
        <time>2020-10-18T13:33:09.000Z</time>
      </trkpt>
      <trkpt lat="48.25462" lon="-3.43925">
        <ele>139.60000610352</ele>
        <time>2020-10-18T13:33:10.000Z</time>
      </trkpt>
      <trkpt lat="48.25462" lon="-3.43925">
        <ele>139.60000610352</ele>
        <time>2020-10-18T13:33:11.000Z</time>
      </trkpt>
      <trkpt lat="48.25459" lon="-3.4392">
        <ele>139.60000610352</ele>
        <time>2020-10-18T13:33:12.000Z</time>
      </trkpt>
      <trkpt lat="48.25454" lon="-3.4391">
        <ele>139.80000305176</ele>
        <time>2020-10-18T13:33:13.000Z</time>
      </trkpt>
      <trkpt lat="48.25454" lon="-3.4391">
        <ele>139.80000305176</ele>
        <time>2020-10-18T13:33:14.000Z</time>
      </trkpt>
      <trkpt lat="48.25449" lon="-3.43899">
        <ele>139.80000305176</ele>
        <time>2020-10-18T13:33:15.000Z</time>
      </trkpt>
      <trkpt lat="48.25449" lon="-3.43899">
        <ele>139.80000305176</ele>
        <time>2020-10-18T13:33:16.000Z</time>
      </trkpt>
      <trkpt lat="48.25448" lon="-3.43894">
        <ele>139.80000305176</ele>
        <time>2020-10-18T13:33:17.000Z</time>
      </trkpt>
      <trkpt lat="48.25444" lon="-3.43884">
        <ele>139.80000305176</ele>
        <time>2020-10-18T13:33:18.000Z</time>
      </trkpt>
      <trkpt lat="48.25444" lon="-3.43884">
        <ele>139.80000305176</ele>
        <time>2020-10-18T13:33:19.000Z</time>
      </trkpt>
      <trkpt lat="48.25439" lon="-3.43874">
        <ele>139.80000305176</ele>
        <time>2020-10-18T13:33:20.000Z</time>
      </trkpt>
      <trkpt lat="48.25439" lon="-3.43874">
        <ele>139.80000305176</ele>
        <time>2020-10-18T13:33:21.000Z</time>
      </trkpt>
      <trkpt lat="48.25434" lon="-3.43864">
        <ele>140</ele>
        <time>2020-10-18T13:33:22.000Z</time>
      </trkpt>
      <trkpt lat="48.25434" lon="-3.43864">
        <ele>140</ele>
        <time>2020-10-18T13:33:23.000Z</time>
      </trkpt>
      <trkpt lat="48.25429" lon="-3.43854">
        <ele>140</ele>
        <time>2020-10-18T13:33:24.000Z</time>
      </trkpt>
      <trkpt lat="48.25429" lon="-3.43854">
        <ele>140</ele>
        <time>2020-10-18T13:33:25.000Z</time>
      </trkpt>
      <trkpt lat="48.25424" lon="-3.43844">
        <ele>140.19999694824</ele>
        <time>2020-10-18T13:33:26.000Z</time>
      </trkpt>
      <trkpt lat="48.25424" lon="-3.43844">
        <ele>140.19999694824</ele>
        <time>2020-10-18T13:33:27.000Z</time>
      </trkpt>
      <trkpt lat="48.25419" lon="-3.43833">
        <ele>140.39999389648</ele>
        <time>2020-10-18T13:33:28.000Z</time>
      </trkpt>
      <trkpt lat="48.25419" lon="-3.43833">
        <ele>140.39999389648</ele>
        <time>2020-10-18T13:33:29.000Z</time>
      </trkpt>
      <trkpt lat="48.25417" lon="-3.43828">
        <ele>140.60000610352</ele>
        <time>2020-10-18T13:33:30.000Z</time>
      </trkpt>
      <trkpt lat="48.25411" lon="-3.43817">
        <ele>140.80000305176</ele>
        <time>2020-10-18T13:33:31.000Z</time>
      </trkpt>
      <trkpt lat="48.25411" lon="-3.43817">
        <ele>140.80000305176</ele>
        <time>2020-10-18T13:33:32.000Z</time>
      </trkpt>
      <trkpt lat="48.25409" lon="-3.43811">
        <ele>141</ele>
        <time>2020-10-18T13:33:33.000Z</time>
      </trkpt>
      <trkpt lat="48.25403" lon="-3.438">
        <ele>141.19999694824</ele>
        <time>2020-10-18T13:33:34.000Z</time>
      </trkpt>
      <trkpt lat="48.25403" lon="-3.438">
        <ele>141.19999694824</ele>
        <time>2020-10-18T13:33:35.000Z</time>
      </trkpt>
      <trkpt lat="48.25401" lon="-3.43794">
        <ele>141.39999389648</ele>
        <time>2020-10-18T13:33:36.000Z</time>
      </trkpt>
      <trkpt lat="48.25395" lon="-3.43781">
        <ele>141.39999389648</ele>
        <time>2020-10-18T13:33:37.000Z</time>
      </trkpt>
      <trkpt lat="48.25395" lon="-3.43781">
        <ele>141.39999389648</ele>
        <time>2020-10-18T13:33:38.000Z</time>
      </trkpt>
      <trkpt lat="48.2539" lon="-3.4377">
        <ele>141.39999389648</ele>
        <time>2020-10-18T13:33:39.000Z</time>
      </trkpt>
      <trkpt lat="48.2539" lon="-3.4377">
        <ele>141.39999389648</ele>
        <time>2020-10-18T13:33:40.000Z</time>
      </trkpt>
      <trkpt lat="48.25384" lon="-3.43758">
        <ele>141.60000610352</ele>
        <time>2020-10-18T13:33:41.000Z</time>
      </trkpt>
      <trkpt lat="48.25384" lon="-3.43758">
        <ele>141.60000610352</ele>
        <time>2020-10-18T13:33:42.000Z</time>
      </trkpt>
      <trkpt lat="48.25379" lon="-3.43747">
        <ele>141.80000305176</ele>
        <time>2020-10-18T13:33:43.000Z</time>
      </trkpt>
      <trkpt lat="48.25379" lon="-3.43747">
        <ele>141.80000305176</ele>
        <time>2020-10-18T13:33:44.000Z</time>
      </trkpt>
      <trkpt lat="48.25374" lon="-3.43735">
        <ele>142</ele>
        <time>2020-10-18T13:33:45.000Z</time>
      </trkpt>
      <trkpt lat="48.25374" lon="-3.43735">
        <ele>142</ele>
        <time>2020-10-18T13:33:46.000Z</time>
      </trkpt>
      <trkpt lat="48.2537" lon="-3.43724">
        <ele>141.80000305176</ele>
        <time>2020-10-18T13:33:47.000Z</time>
      </trkpt>
      <trkpt lat="48.2537" lon="-3.43724">
        <ele>141.80000305176</ele>
        <time>2020-10-18T13:33:48.000Z</time>
      </trkpt>
      <trkpt lat="48.25364" lon="-3.43714">
        <ele>141.60000610352</ele>
        <time>2020-10-18T13:33:49.000Z</time>
      </trkpt>
      <trkpt lat="48.25364" lon="-3.43714">
        <ele>141.60000610352</ele>
        <time>2020-10-18T13:33:50.000Z</time>
      </trkpt>
      <trkpt lat="48.25359" lon="-3.43704">
        <ele>141.39999389648</ele>
        <time>2020-10-18T13:33:51.000Z</time>
      </trkpt>
      <trkpt lat="48.25359" lon="-3.43704">
        <ele>141.39999389648</ele>
        <time>2020-10-18T13:33:52.000Z</time>
      </trkpt>
      <trkpt lat="48.25357" lon="-3.43699">
        <ele>141.39999389648</ele>
        <time>2020-10-18T13:33:53.000Z</time>
      </trkpt>
      <trkpt lat="48.25352" lon="-3.43689">
        <ele>141.19999694824</ele>
        <time>2020-10-18T13:33:54.000Z</time>
      </trkpt>
      <trkpt lat="48.25352" lon="-3.43689">
        <ele>141.19999694824</ele>
        <time>2020-10-18T13:33:55.000Z</time>
      </trkpt>
      <trkpt lat="48.25349" lon="-3.43681">
        <ele>141.19999694824</ele>
        <time>2020-10-18T13:33:56.000Z</time>
      </trkpt>
      <trkpt lat="48.25349" lon="-3.43681">
        <ele>141.19999694824</ele>
        <time>2020-10-18T13:33:57.000Z</time>
      </trkpt>
      <trkpt lat="48.25345" lon="-3.43673">
        <ele>141.39999389648</ele>
        <time>2020-10-18T13:33:58.000Z</time>
      </trkpt>
      <trkpt lat="48.25345" lon="-3.43673">
        <ele>141.39999389648</ele>
        <time>2020-10-18T13:33:59.000Z</time>
      </trkpt>
      <trkpt lat="48.25341" lon="-3.43666">
        <ele>141.80000305176</ele>
        <time>2020-10-18T13:34:00.000Z</time>
      </trkpt>
      <trkpt lat="48.25341" lon="-3.43666">
        <ele>141.80000305176</ele>
        <time>2020-10-18T13:34:01.000Z</time>
      </trkpt>
      <trkpt lat="48.25337" lon="-3.43658">
        <ele>142.19999694824</ele>
        <time>2020-10-18T13:34:02.000Z</time>
      </trkpt>
      <trkpt lat="48.25337" lon="-3.43658">
        <ele>142.19999694824</ele>
        <time>2020-10-18T13:34:03.000Z</time>
      </trkpt>
      <trkpt lat="48.25334" lon="-3.4365">
        <ele>142.60000610352</ele>
        <time>2020-10-18T13:34:04.000Z</time>
      </trkpt>
      <trkpt lat="48.25334" lon="-3.4365">
        <ele>142.60000610352</ele>
        <time>2020-10-18T13:34:05.000Z</time>
      </trkpt>
      <trkpt lat="48.25329" lon="-3.4364">
        <ele>143.19999694824</ele>
        <time>2020-10-18T13:34:06.000Z</time>
      </trkpt>
      <trkpt lat="48.25329" lon="-3.4364">
        <ele>143.19999694824</ele>
        <time>2020-10-18T13:34:07.000Z</time>
      </trkpt>
      <trkpt lat="48.25326" lon="-3.43631">
        <ele>143.60000610352</ele>
        <time>2020-10-18T13:34:08.000Z</time>
      </trkpt>
      <trkpt lat="48.25326" lon="-3.43631">
        <ele>143.60000610352</ele>
        <time>2020-10-18T13:34:09.000Z</time>
      </trkpt>
      <trkpt lat="48.25322" lon="-3.43622">
        <ele>144</ele>
        <time>2020-10-18T13:34:10.000Z</time>
      </trkpt>
      <trkpt lat="48.25322" lon="-3.43622">
        <ele>144</ele>
        <time>2020-10-18T13:34:11.000Z</time>
      </trkpt>
      <trkpt lat="48.25317" lon="-3.43614">
        <ele>144</ele>
        <time>2020-10-18T13:34:12.000Z</time>
      </trkpt>
      <trkpt lat="48.25317" lon="-3.43614">
        <ele>144</ele>
        <time>2020-10-18T13:34:13.000Z</time>
      </trkpt>
      <trkpt lat="48.25312" lon="-3.43606">
        <ele>144</ele>
        <time>2020-10-18T13:34:14.000Z</time>
      </trkpt>
      <trkpt lat="48.25312" lon="-3.43606">
        <ele>144</ele>
        <time>2020-10-18T13:34:15.000Z</time>
      </trkpt>
      <trkpt lat="48.25307" lon="-3.43596">
        <ele>144.19999694824</ele>
        <time>2020-10-18T13:34:16.000Z</time>
      </trkpt>
      <trkpt lat="48.25307" lon="-3.43596">
        <ele>144.19999694824</ele>
        <time>2020-10-18T13:34:17.000Z</time>
      </trkpt>
      <trkpt lat="48.25302" lon="-3.43585">
        <ele>144.60000610352</ele>
        <time>2020-10-18T13:34:18.000Z</time>
      </trkpt>
      <trkpt lat="48.25302" lon="-3.43585">
        <ele>144.60000610352</ele>
        <time>2020-10-18T13:34:19.000Z</time>
      </trkpt>
      <trkpt lat="48.25296" lon="-3.43573">
        <ele>145.19999694824</ele>
        <time>2020-10-18T13:34:20.000Z</time>
      </trkpt>
      <trkpt lat="48.25296" lon="-3.43573">
        <ele>145.19999694824</ele>
        <time>2020-10-18T13:34:21.000Z</time>
      </trkpt>
      <trkpt lat="48.25291" lon="-3.43562">
        <ele>145.39999389648</ele>
        <time>2020-10-18T13:34:22.000Z</time>
      </trkpt>
      <trkpt lat="48.25291" lon="-3.43562">
        <ele>145.39999389648</ele>
        <time>2020-10-18T13:34:23.000Z</time>
      </trkpt>
      <trkpt lat="48.25286" lon="-3.43551">
        <ele>145.39999389648</ele>
        <time>2020-10-18T13:34:24.000Z</time>
      </trkpt>
      <trkpt lat="48.25286" lon="-3.43551">
        <ele>145.39999389648</ele>
        <time>2020-10-18T13:34:25.000Z</time>
      </trkpt>
      <trkpt lat="48.2528" lon="-3.43539">
        <ele>145.39999389648</ele>
        <time>2020-10-18T13:34:26.000Z</time>
      </trkpt>
      <trkpt lat="48.2528" lon="-3.43539">
        <ele>145.39999389648</ele>
        <time>2020-10-18T13:34:27.000Z</time>
      </trkpt>
      <trkpt lat="48.25278" lon="-3.43533">
        <ele>145.39999389648</ele>
        <time>2020-10-18T13:34:28.000Z</time>
      </trkpt>
      <trkpt lat="48.25272" lon="-3.4352">
        <ele>145.19999694824</ele>
        <time>2020-10-18T13:34:29.000Z</time>
      </trkpt>
      <trkpt lat="48.25272" lon="-3.4352">
        <ele>145.19999694824</ele>
        <time>2020-10-18T13:34:30.000Z</time>
      </trkpt>
      <trkpt lat="48.25267" lon="-3.43507">
        <ele>145.19999694824</ele>
        <time>2020-10-18T13:34:31.000Z</time>
      </trkpt>
      <trkpt lat="48.25267" lon="-3.43507">
        <ele>145.19999694824</ele>
        <time>2020-10-18T13:34:32.000Z</time>
      </trkpt>
      <trkpt lat="48.25262" lon="-3.43494">
        <ele>145</ele>
        <time>2020-10-18T13:34:33.000Z</time>
      </trkpt>
      <trkpt lat="48.25262" lon="-3.43494">
        <ele>145</ele>
        <time>2020-10-18T13:34:34.000Z</time>
      </trkpt>
      <trkpt lat="48.25257" lon="-3.43484">
        <ele>144.80000305176</ele>
        <time>2020-10-18T13:34:35.000Z</time>
      </trkpt>
      <trkpt lat="48.25257" lon="-3.43484">
        <ele>144.80000305176</ele>
        <time>2020-10-18T13:34:36.000Z</time>
      </trkpt>
      <trkpt lat="48.25253" lon="-3.43474">
        <ele>144.60000610352</ele>
        <time>2020-10-18T13:34:37.000Z</time>
      </trkpt>
      <trkpt lat="48.25253" lon="-3.43474">
        <ele>144.60000610352</ele>
        <time>2020-10-18T13:34:38.000Z</time>
      </trkpt>
      <trkpt lat="48.25248" lon="-3.43463">
        <ele>144.39999389648</ele>
        <time>2020-10-18T13:34:39.000Z</time>
      </trkpt>
      <trkpt lat="48.25248" lon="-3.43463">
        <ele>144.39999389648</ele>
        <time>2020-10-18T13:34:40.000Z</time>
      </trkpt>
      <trkpt lat="48.25243" lon="-3.43452">
        <ele>144.19999694824</ele>
        <time>2020-10-18T13:34:41.000Z</time>
      </trkpt>
      <trkpt lat="48.25243" lon="-3.43452">
        <ele>144.19999694824</ele>
        <time>2020-10-18T13:34:42.000Z</time>
      </trkpt>
      <trkpt lat="48.2524" lon="-3.43447">
        <ele>144.39999389648</ele>
        <time>2020-10-18T13:34:43.000Z</time>
      </trkpt>
      <trkpt lat="48.25234" lon="-3.43436">
        <ele>144.60000610352</ele>
        <time>2020-10-18T13:34:44.000Z</time>
      </trkpt>
      <trkpt lat="48.25234" lon="-3.43436">
        <ele>144.60000610352</ele>
        <time>2020-10-18T13:34:45.000Z</time>
      </trkpt>
      <trkpt lat="48.25228" lon="-3.43424">
        <ele>144.60000610352</ele>
        <time>2020-10-18T13:34:46.000Z</time>
      </trkpt>
      <trkpt lat="48.25228" lon="-3.43424">
        <ele>144.60000610352</ele>
        <time>2020-10-18T13:34:47.000Z</time>
      </trkpt>
      <trkpt lat="48.25222" lon="-3.43413">
        <ele>144.60000610352</ele>
        <time>2020-10-18T13:34:48.000Z</time>
      </trkpt>
      <trkpt lat="48.25222" lon="-3.43413">
        <ele>144.60000610352</ele>
        <time>2020-10-18T13:34:49.000Z</time>
      </trkpt>
      <trkpt lat="48.25219" lon="-3.43407">
        <ele>144.39999389648</ele>
        <time>2020-10-18T13:34:50.000Z</time>
      </trkpt>
      <trkpt lat="48.25213" lon="-3.43396">
        <ele>144.39999389648</ele>
        <time>2020-10-18T13:34:51.000Z</time>
      </trkpt>
      <trkpt lat="48.25213" lon="-3.43396">
        <ele>144.39999389648</ele>
        <time>2020-10-18T13:34:52.000Z</time>
      </trkpt>
      <trkpt lat="48.2521" lon="-3.4339">
        <ele>144.39999389648</ele>
        <time>2020-10-18T13:34:53.000Z</time>
      </trkpt>
      <trkpt lat="48.25204" lon="-3.43379">
        <ele>144.19999694824</ele>
        <time>2020-10-18T13:34:54.000Z</time>
      </trkpt>
      <trkpt lat="48.25204" lon="-3.43379">
        <ele>144.19999694824</ele>
        <time>2020-10-18T13:34:55.000Z</time>
      </trkpt>
      <trkpt lat="48.25201" lon="-3.43373">
        <ele>144.19999694824</ele>
        <time>2020-10-18T13:34:56.000Z</time>
      </trkpt>
      <trkpt lat="48.25197" lon="-3.43362">
        <ele>144.19999694824</ele>
        <time>2020-10-18T13:34:57.000Z</time>
      </trkpt>
      <trkpt lat="48.25197" lon="-3.43362">
        <ele>144.19999694824</ele>
        <time>2020-10-18T13:34:58.000Z</time>
      </trkpt>
      <trkpt lat="48.25194" lon="-3.43357">
        <ele>144.19999694824</ele>
        <time>2020-10-18T13:34:59.000Z</time>
      </trkpt>
      <trkpt lat="48.25191" lon="-3.43348">
        <ele>144.19999694824</ele>
        <time>2020-10-18T13:35:00.000Z</time>
      </trkpt>
      <trkpt lat="48.25191" lon="-3.43348">
        <ele>144.19999694824</ele>
        <time>2020-10-18T13:35:01.000Z</time>
      </trkpt>
      <trkpt lat="48.25189" lon="-3.43344">
        <ele>144.19999694824</ele>
        <time>2020-10-18T13:35:02.000Z</time>
      </trkpt>
      <trkpt lat="48.25186" lon="-3.43338">
        <ele>144.39999389648</ele>
        <time>2020-10-18T13:35:03.000Z</time>
      </trkpt>
      <trkpt lat="48.25186" lon="-3.43338">
        <ele>144.39999389648</ele>
        <time>2020-10-18T13:35:04.000Z</time>
      </trkpt>
      <trkpt lat="48.25184" lon="-3.43335">
        <ele>144.19999694824</ele>
        <time>2020-10-18T13:35:05.000Z</time>
      </trkpt>
      <trkpt lat="48.25184" lon="-3.43333">
        <ele>144.19999694824</ele>
        <time>2020-10-18T13:35:06.000Z</time>
      </trkpt>
      <trkpt lat="48.25184" lon="-3.43333">
        <ele>144.19999694824</ele>
        <time>2020-10-18T13:35:07.000Z</time>
      </trkpt>
      <trkpt lat="48.25184" lon="-3.43332">
        <ele>144.19999694824</ele>
        <time>2020-10-18T13:35:08.000Z</time>
      </trkpt>
      <trkpt lat="48.25184" lon="-3.43332">
        <ele>144.19999694824</ele>
        <time>2020-10-18T13:35:09.000Z</time>
      </trkpt>
      <trkpt lat="48.25183" lon="-3.43332">
        <ele>144.19999694824</ele>
        <time>2020-10-18T13:35:10.000Z</time>
      </trkpt>
      <trkpt lat="48.25183" lon="-3.43332">
        <ele>144.19999694824</ele>
        <time>2020-10-18T13:35:11.000Z</time>
      </trkpt>
      <trkpt lat="48.25183" lon="-3.43332">
        <ele>144.19999694824</ele>
        <time>2020-10-18T13:35:12.000Z</time>
      </trkpt>
      <trkpt lat="48.25183" lon="-3.43332">
        <ele>144.19999694824</ele>
        <time>2020-10-18T13:35:13.000Z</time>
      </trkpt>
      <trkpt lat="48.25183" lon="-3.43332">
        <ele>144.19999694824</ele>
        <time>2020-10-18T13:35:14.000Z</time>
      </trkpt>
      <trkpt lat="48.25183" lon="-3.43332">
        <ele>144.19999694824</ele>
        <time>2020-10-18T13:35:15.000Z</time>
      </trkpt>
      <trkpt lat="48.25183" lon="-3.43332">
        <ele>144.19999694824</ele>
        <time>2020-10-18T13:35:16.000Z</time>
      </trkpt>
      <trkpt lat="48.25183" lon="-3.43332">
        <ele>144.19999694824</ele>
        <time>2020-10-18T13:35:17.000Z</time>
      </trkpt>
      <trkpt lat="48.25183" lon="-3.43332">
        <ele>144.19999694824</ele>
        <time>2020-10-18T13:35:18.000Z</time>
      </trkpt>
      <trkpt lat="48.25183" lon="-3.43332">
        <ele>144.19999694824</ele>
        <time>2020-10-18T13:35:19.000Z</time>
      </trkpt>
      <trkpt lat="48.25183" lon="-3.43332">
        <ele>144.19999694824</ele>
        <time>2020-10-18T13:35:20.000Z</time>
      </trkpt>
      <trkpt lat="48.25183" lon="-3.43332">
        <ele>144.19999694824</ele>
        <time>2020-10-18T13:35:21.000Z</time>
      </trkpt>
      <trkpt lat="48.25183" lon="-3.43332">
        <ele>144.19999694824</ele>
        <time>2020-10-18T13:35:22.000Z</time>
      </trkpt>
      <trkpt lat="48.25183" lon="-3.43332">
        <ele>144.19999694824</ele>
        <time>2020-10-18T13:35:23.000Z</time>
      </trkpt>
      <trkpt lat="48.25183" lon="-3.43332">
        <ele>144.19999694824</ele>
        <time>2020-10-18T13:35:24.000Z</time>
      </trkpt>
      <trkpt lat="48.25183" lon="-3.43332">
        <ele>144.19999694824</ele>
        <time>2020-10-18T13:35:25.000Z</time>
      </trkpt>
      <trkpt lat="48.25183" lon="-3.43332">
        <ele>144.19999694824</ele>
        <time>2020-10-18T13:35:26.000Z</time>
      </trkpt>
      <trkpt lat="48.25183" lon="-3.43332">
        <ele>144.19999694824</ele>
        <time>2020-10-18T13:35:27.000Z</time>
      </trkpt>
      <trkpt lat="48.25183" lon="-3.43332">
        <ele>144.19999694824</ele>
        <time>2020-10-18T13:35:28.000Z</time>
      </trkpt>
      <trkpt lat="48.25183" lon="-3.43332">
        <ele>144.19999694824</ele>
        <time>2020-10-18T13:35:29.000Z</time>
      </trkpt>
      <trkpt lat="48.25183" lon="-3.43332">
        <ele>144.19999694824</ele>
        <time>2020-10-18T13:35:30.000Z</time>
      </trkpt>
      <trkpt lat="48.25183" lon="-3.43332">
        <ele>144.19999694824</ele>
        <time>2020-10-18T13:35:31.000Z</time>
      </trkpt>
      <trkpt lat="48.25183" lon="-3.43332">
        <ele>144.19999694824</ele>
        <time>2020-10-18T13:35:32.000Z</time>
      </trkpt>
      <trkpt lat="48.25183" lon="-3.43332">
        <ele>144.19999694824</ele>
        <time>2020-10-18T13:35:33.000Z</time>
      </trkpt>
      <trkpt lat="48.25183" lon="-3.43332">
        <ele>144.19999694824</ele>
        <time>2020-10-18T13:35:34.000Z</time>
      </trkpt>
      <trkpt lat="48.25183" lon="-3.43332">
        <ele>144.19999694824</ele>
        <time>2020-10-18T13:35:35.000Z</time>
      </trkpt>
      <trkpt lat="48.25183" lon="-3.43332">
        <ele>144.19999694824</ele>
        <time>2020-10-18T13:35:36.000Z</time>
      </trkpt>
      <trkpt lat="48.25183" lon="-3.43332">
        <ele>144.19999694824</ele>
        <time>2020-10-18T13:35:37.000Z</time>
      </trkpt>
      <trkpt lat="48.25183" lon="-3.43332">
        <ele>144.19999694824</ele>
        <time>2020-10-18T13:35:38.000Z</time>
      </trkpt>
      <trkpt lat="48.25183" lon="-3.43332">
        <ele>144.19999694824</ele>
        <time>2020-10-18T13:35:39.000Z</time>
      </trkpt>
      <trkpt lat="48.25183" lon="-3.43332">
        <ele>144.19999694824</ele>
        <time>2020-10-18T13:35:40.000Z</time>
      </trkpt>
      <trkpt lat="48.25183" lon="-3.43332">
        <ele>144.19999694824</ele>
        <time>2020-10-18T13:35:41.000Z</time>
      </trkpt>
      <trkpt lat="48.25183" lon="-3.43332">
        <ele>144.19999694824</ele>
        <time>2020-10-18T13:35:42.000Z</time>
      </trkpt>
      <trkpt lat="48.25183" lon="-3.43332">
        <ele>144.19999694824</ele>
        <time>2020-10-18T13:35:43.000Z</time>
      </trkpt>
      <trkpt lat="48.25183" lon="-3.43332">
        <ele>144.19999694824</ele>
        <time>2020-10-18T13:35:44.000Z</time>
      </trkpt>
      <trkpt lat="48.25183" lon="-3.43332">
        <ele>144.19999694824</ele>
        <time>2020-10-18T13:35:45.000Z</time>
      </trkpt>
      <trkpt lat="48.25183" lon="-3.43332">
        <ele>144.19999694824</ele>
        <time>2020-10-18T13:35:46.000Z</time>
      </trkpt>
      <trkpt lat="48.25183" lon="-3.43332">
        <ele>144.19999694824</ele>
        <time>2020-10-18T13:35:47.000Z</time>
      </trkpt>
      <trkpt lat="48.25183" lon="-3.43332">
        <ele>144.19999694824</ele>
        <time>2020-10-18T13:35:48.000Z</time>
      </trkpt>
      <trkpt lat="48.25183" lon="-3.43332">
        <ele>144.19999694824</ele>
        <time>2020-10-18T13:35:49.000Z</time>
      </trkpt>
      <trkpt lat="48.25183" lon="-3.43332">
        <ele>144.19999694824</ele>
        <time>2020-10-18T13:35:50.000Z</time>
      </trkpt>
      <trkpt lat="48.25183" lon="-3.43332">
        <ele>144.19999694824</ele>
        <time>2020-10-18T13:35:51.000Z</time>
      </trkpt>
      <trkpt lat="48.25183" lon="-3.43332">
        <ele>144.19999694824</ele>
        <time>2020-10-18T13:35:52.000Z</time>
      </trkpt>
      <trkpt lat="48.25183" lon="-3.43332">
        <ele>144.19999694824</ele>
        <time>2020-10-18T13:35:53.000Z</time>
      </trkpt>
      <trkpt lat="48.25183" lon="-3.43332">
        <ele>144.19999694824</ele>
        <time>2020-10-18T13:35:54.000Z</time>
      </trkpt>
      <trkpt lat="48.25183" lon="-3.43332">
        <ele>144.19999694824</ele>
        <time>2020-10-18T13:35:55.000Z</time>
      </trkpt>
      <trkpt lat="48.25183" lon="-3.43332">
        <ele>144.19999694824</ele>
        <time>2020-10-18T13:35:56.000Z</time>
      </trkpt>
      <trkpt lat="48.25183" lon="-3.43332">
        <ele>144.19999694824</ele>
        <time>2020-10-18T13:35:57.000Z</time>
      </trkpt>
      <trkpt lat="48.25183" lon="-3.43332">
        <ele>144.19999694824</ele>
        <time>2020-10-18T13:35:58.000Z</time>
      </trkpt>
      <trkpt lat="48.25183" lon="-3.43332">
        <ele>144.19999694824</ele>
        <time>2020-10-18T13:35:59.000Z</time>
      </trkpt>
      <trkpt lat="48.25183" lon="-3.43332">
        <ele>144.19999694824</ele>
        <time>2020-10-18T13:36:00.000Z</time>
      </trkpt>
      <trkpt lat="48.25183" lon="-3.43332">
        <ele>144.19999694824</ele>
        <time>2020-10-18T13:36:01.000Z</time>
      </trkpt>
      <trkpt lat="48.25183" lon="-3.43332">
        <ele>144.19999694824</ele>
        <time>2020-10-18T13:36:02.000Z</time>
      </trkpt>
      <trkpt lat="48.25183" lon="-3.43332">
        <ele>144.19999694824</ele>
        <time>2020-10-18T13:36:03.000Z</time>
      </trkpt>
      <trkpt lat="48.25183" lon="-3.43332">
        <ele>144.19999694824</ele>
        <time>2020-10-18T13:36:04.000Z</time>
      </trkpt>
      <trkpt lat="48.25183" lon="-3.43332">
        <ele>144.19999694824</ele>
        <time>2020-10-18T13:36:05.000Z</time>
      </trkpt>
      <trkpt lat="48.25183" lon="-3.43332">
        <ele>144.19999694824</ele>
        <time>2020-10-18T13:36:06.000Z</time>
      </trkpt>
      <trkpt lat="48.25183" lon="-3.43332">
        <ele>144.19999694824</ele>
        <time>2020-10-18T13:36:07.000Z</time>
      </trkpt>
      <trkpt lat="48.25183" lon="-3.43332">
        <ele>144.19999694824</ele>
        <time>2020-10-18T13:36:08.000Z</time>
      </trkpt>
      <trkpt lat="48.25183" lon="-3.43332">
        <ele>144.19999694824</ele>
        <time>2020-10-18T13:36:09.000Z</time>
      </trkpt>
      <trkpt lat="48.25183" lon="-3.43332">
        <ele>144.19999694824</ele>
        <time>2020-10-18T13:36:10.000Z</time>
      </trkpt>
      <trkpt lat="48.25183" lon="-3.43332">
        <ele>144.19999694824</ele>
        <time>2020-10-18T13:36:11.000Z</time>
      </trkpt>
      <trkpt lat="48.25183" lon="-3.43332">
        <ele>144.19999694824</ele>
        <time>2020-10-18T13:36:12.000Z</time>
      </trkpt>
      <trkpt lat="48.25183" lon="-3.43332">
        <ele>144.19999694824</ele>
        <time>2020-10-18T13:36:13.000Z</time>
      </trkpt>
      <trkpt lat="48.25183" lon="-3.43332">
        <ele>144.19999694824</ele>
        <time>2020-10-18T13:36:14.000Z</time>
      </trkpt>
      <trkpt lat="48.25183" lon="-3.43332">
        <ele>144.19999694824</ele>
        <time>2020-10-18T13:36:15.000Z</time>
      </trkpt>
      <trkpt lat="48.25183" lon="-3.43332">
        <ele>144.19999694824</ele>
        <time>2020-10-18T13:36:16.000Z</time>
      </trkpt>
      <trkpt lat="48.25183" lon="-3.43332">
        <ele>144.19999694824</ele>
        <time>2020-10-18T13:36:17.000Z</time>
      </trkpt>
      <trkpt lat="48.25183" lon="-3.43332">
        <ele>144.19999694824</ele>
        <time>2020-10-18T13:36:18.000Z</time>
      </trkpt>
      <trkpt lat="48.25183" lon="-3.43332">
        <ele>144.19999694824</ele>
        <time>2020-10-18T13:36:19.000Z</time>
      </trkpt>
      <trkpt lat="48.25183" lon="-3.43332">
        <ele>144.19999694824</ele>
        <time>2020-10-18T13:36:20.000Z</time>
      </trkpt>
      <trkpt lat="48.25183" lon="-3.43332">
        <ele>144.19999694824</ele>
        <time>2020-10-18T13:36:21.000Z</time>
      </trkpt>
      <trkpt lat="48.25183" lon="-3.43332">
        <ele>144.19999694824</ele>
        <time>2020-10-18T13:36:22.000Z</time>
      </trkpt>
      <trkpt lat="48.25183" lon="-3.43332">
        <ele>144.19999694824</ele>
        <time>2020-10-18T13:36:23.000Z</time>
      </trkpt>
      <trkpt lat="48.25183" lon="-3.43332">
        <ele>144.19999694824</ele>
        <time>2020-10-18T13:36:24.000Z</time>
      </trkpt>
      <trkpt lat="48.25183" lon="-3.43332">
        <ele>144.19999694824</ele>
        <time>2020-10-18T13:36:25.000Z</time>
      </trkpt>
      <trkpt lat="48.25183" lon="-3.43332">
        <ele>144.19999694824</ele>
        <time>2020-10-18T13:36:26.000Z</time>
      </trkpt>
      <trkpt lat="48.25183" lon="-3.43332">
        <ele>144.19999694824</ele>
        <time>2020-10-18T13:36:27.000Z</time>
      </trkpt>
      <trkpt lat="48.25183" lon="-3.43332">
        <ele>144.19999694824</ele>
        <time>2020-10-18T13:36:28.000Z</time>
      </trkpt>
      <trkpt lat="48.25183" lon="-3.43332">
        <ele>144.19999694824</ele>
        <time>2020-10-18T13:36:29.000Z</time>
      </trkpt>
      <trkpt lat="48.25183" lon="-3.43332">
        <ele>144.19999694824</ele>
        <time>2020-10-18T13:36:30.000Z</time>
      </trkpt>
      <trkpt lat="48.25183" lon="-3.43332">
        <ele>144.19999694824</ele>
        <time>2020-10-18T13:36:31.000Z</time>
      </trkpt>
      <trkpt lat="48.25183" lon="-3.43332">
        <ele>144.19999694824</ele>
        <time>2020-10-18T13:36:32.000Z</time>
      </trkpt>
      <trkpt lat="48.25183" lon="-3.43332">
        <ele>144.19999694824</ele>
        <time>2020-10-18T13:36:33.000Z</time>
      </trkpt>
      <trkpt lat="48.25183" lon="-3.43332">
        <ele>144.19999694824</ele>
        <time>2020-10-18T13:36:34.000Z</time>
      </trkpt>
      <trkpt lat="48.25183" lon="-3.43332">
        <ele>144.19999694824</ele>
        <time>2020-10-18T13:36:35.000Z</time>
      </trkpt>
      <trkpt lat="48.25183" lon="-3.43332">
        <ele>144.19999694824</ele>
        <time>2020-10-18T13:36:36.000Z</time>
      </trkpt>
      <trkpt lat="48.25183" lon="-3.43332">
        <ele>144.19999694824</ele>
        <time>2020-10-18T13:36:37.000Z</time>
      </trkpt>
      <trkpt lat="48.25183" lon="-3.43332">
        <ele>144.19999694824</ele>
        <time>2020-10-18T13:36:38.000Z</time>
      </trkpt>
      <trkpt lat="48.25183" lon="-3.43332">
        <ele>144.19999694824</ele>
        <time>2020-10-18T13:36:39.000Z</time>
      </trkpt>
      <trkpt lat="48.25183" lon="-3.43332">
        <ele>144.19999694824</ele>
        <time>2020-10-18T13:36:40.000Z</time>
      </trkpt>
      <trkpt lat="48.25183" lon="-3.43332">
        <ele>144.19999694824</ele>
        <time>2020-10-18T13:36:41.000Z</time>
      </trkpt>
      <trkpt lat="48.25183" lon="-3.43332">
        <ele>144.19999694824</ele>
        <time>2020-10-18T13:36:42.000Z</time>
      </trkpt>
      <trkpt lat="48.25183" lon="-3.43332">
        <ele>144.19999694824</ele>
        <time>2020-10-18T13:36:43.000Z</time>
      </trkpt>
      <trkpt lat="48.25183" lon="-3.43332">
        <ele>144.19999694824</ele>
        <time>2020-10-18T13:36:44.000Z</time>
      </trkpt>
      <trkpt lat="48.25183" lon="-3.43332">
        <ele>144.19999694824</ele>
        <time>2020-10-18T13:36:45.000Z</time>
      </trkpt>
      <trkpt lat="48.25183" lon="-3.43332">
        <ele>144.19999694824</ele>
        <time>2020-10-18T13:36:46.000Z</time>
      </trkpt>
      <trkpt lat="48.25183" lon="-3.43332">
        <ele>144.19999694824</ele>
        <time>2020-10-18T13:36:47.000Z</time>
      </trkpt>
      <trkpt lat="48.25183" lon="-3.43332">
        <ele>144.19999694824</ele>
        <time>2020-10-18T13:36:48.000Z</time>
      </trkpt>
      <trkpt lat="48.25183" lon="-3.43332">
        <ele>144.19999694824</ele>
        <time>2020-10-18T13:36:49.000Z</time>
      </trkpt>
      <trkpt lat="48.25183" lon="-3.43332">
        <ele>144.19999694824</ele>
        <time>2020-10-18T13:36:50.000Z</time>
      </trkpt>
      <trkpt lat="48.25183" lon="-3.43332">
        <ele>144.19999694824</ele>
        <time>2020-10-18T13:36:51.000Z</time>
      </trkpt>
      <trkpt lat="48.25183" lon="-3.43332">
        <ele>144.19999694824</ele>
        <time>2020-10-18T13:36:52.000Z</time>
      </trkpt>
      <trkpt lat="48.25183" lon="-3.43332">
        <ele>144.19999694824</ele>
        <time>2020-10-18T13:36:53.000Z</time>
      </trkpt>
      <trkpt lat="48.25183" lon="-3.43332">
        <ele>144.19999694824</ele>
        <time>2020-10-18T13:36:54.000Z</time>
      </trkpt>
      <trkpt lat="48.25183" lon="-3.43332">
        <ele>144.19999694824</ele>
        <time>2020-10-18T13:36:55.000Z</time>
      </trkpt>
      <trkpt lat="48.25183" lon="-3.43332">
        <ele>144.19999694824</ele>
        <time>2020-10-18T13:36:56.000Z</time>
      </trkpt>
      <trkpt lat="48.25183" lon="-3.43332">
        <ele>144.19999694824</ele>
        <time>2020-10-18T13:36:57.000Z</time>
      </trkpt>
      <trkpt lat="48.25183" lon="-3.43332">
        <ele>144.19999694824</ele>
        <time>2020-10-18T13:36:58.000Z</time>
      </trkpt>
      <trkpt lat="48.25183" lon="-3.43332">
        <ele>144.19999694824</ele>
        <time>2020-10-18T13:36:59.000Z</time>
      </trkpt>
      <trkpt lat="48.25183" lon="-3.43332">
        <ele>144.19999694824</ele>
        <time>2020-10-18T13:37:00.000Z</time>
      </trkpt>
      <trkpt lat="48.25183" lon="-3.43332">
        <ele>144.19999694824</ele>
        <time>2020-10-18T13:37:01.000Z</time>
      </trkpt>
      <trkpt lat="48.25183" lon="-3.43332">
        <ele>144.19999694824</ele>
        <time>2020-10-18T13:37:02.000Z</time>
      </trkpt>
      <trkpt lat="48.25183" lon="-3.43332">
        <ele>144.19999694824</ele>
        <time>2020-10-18T13:37:03.000Z</time>
      </trkpt>
      <trkpt lat="48.25183" lon="-3.43332">
        <ele>144.19999694824</ele>
        <time>2020-10-18T13:37:04.000Z</time>
      </trkpt>
      <trkpt lat="48.25183" lon="-3.43332">
        <ele>144.19999694824</ele>
        <time>2020-10-18T13:37:05.000Z</time>
      </trkpt>
      <trkpt lat="48.25183" lon="-3.43332">
        <ele>144.19999694824</ele>
        <time>2020-10-18T13:37:06.000Z</time>
      </trkpt>
      <trkpt lat="48.25183" lon="-3.43332">
        <ele>144.19999694824</ele>
        <time>2020-10-18T13:37:07.000Z</time>
      </trkpt>
      <trkpt lat="48.25183" lon="-3.43332">
        <ele>144.19999694824</ele>
        <time>2020-10-18T13:37:08.000Z</time>
      </trkpt>
      <trkpt lat="48.25183" lon="-3.43332">
        <ele>144.19999694824</ele>
        <time>2020-10-18T13:37:09.000Z</time>
      </trkpt>
      <trkpt lat="48.25183" lon="-3.43332">
        <ele>144.19999694824</ele>
        <time>2020-10-18T13:37:10.000Z</time>
      </trkpt>
      <trkpt lat="48.25183" lon="-3.43332">
        <ele>144.19999694824</ele>
        <time>2020-10-18T13:37:11.000Z</time>
      </trkpt>
      <trkpt lat="48.25183" lon="-3.43332">
        <ele>144.19999694824</ele>
        <time>2020-10-18T13:37:12.000Z</time>
      </trkpt>
      <trkpt lat="48.25183" lon="-3.43332">
        <ele>144.19999694824</ele>
        <time>2020-10-18T13:37:13.000Z</time>
      </trkpt>
      <trkpt lat="48.25183" lon="-3.43332">
        <ele>144.19999694824</ele>
        <time>2020-10-18T13:37:14.000Z</time>
      </trkpt>
      <trkpt lat="48.25183" lon="-3.43332">
        <ele>144.19999694824</ele>
        <time>2020-10-18T13:37:15.000Z</time>
      </trkpt>
      <trkpt lat="48.25183" lon="-3.43332">
        <ele>144.19999694824</ele>
        <time>2020-10-18T13:37:16.000Z</time>
      </trkpt>
      <trkpt lat="48.25183" lon="-3.43332">
        <ele>144.19999694824</ele>
        <time>2020-10-18T13:37:17.000Z</time>
      </trkpt>
      <trkpt lat="48.25183" lon="-3.43332">
        <ele>144.19999694824</ele>
        <time>2020-10-18T13:37:18.000Z</time>
      </trkpt>
      <trkpt lat="48.25183" lon="-3.43332">
        <ele>144.19999694824</ele>
        <time>2020-10-18T13:37:19.000Z</time>
      </trkpt>
      <trkpt lat="48.25183" lon="-3.43332">
        <ele>144.19999694824</ele>
        <time>2020-10-18T13:37:20.000Z</time>
      </trkpt>
      <trkpt lat="48.25183" lon="-3.43332">
        <ele>144.19999694824</ele>
        <time>2020-10-18T13:37:21.000Z</time>
      </trkpt>
      <trkpt lat="48.25183" lon="-3.43332">
        <ele>144.19999694824</ele>
        <time>2020-10-18T13:37:22.000Z</time>
      </trkpt>
      <trkpt lat="48.25183" lon="-3.43332">
        <ele>144.19999694824</ele>
        <time>2020-10-18T13:37:23.000Z</time>
      </trkpt>
      <trkpt lat="48.25183" lon="-3.43332">
        <ele>144.19999694824</ele>
        <time>2020-10-18T13:37:24.000Z</time>
      </trkpt>
      <trkpt lat="48.25183" lon="-3.43332">
        <ele>144.19999694824</ele>
        <time>2020-10-18T13:37:25.000Z</time>
      </trkpt>
      <trkpt lat="48.25183" lon="-3.43332">
        <ele>144.19999694824</ele>
        <time>2020-10-18T13:37:26.000Z</time>
      </trkpt>
      <trkpt lat="48.25183" lon="-3.43332">
        <ele>144.19999694824</ele>
        <time>2020-10-18T13:37:27.000Z</time>
      </trkpt>
      <trkpt lat="48.25183" lon="-3.43332">
        <ele>144.19999694824</ele>
        <time>2020-10-18T13:37:28.000Z</time>
      </trkpt>
      <trkpt lat="48.25183" lon="-3.43332">
        <ele>144.19999694824</ele>
        <time>2020-10-18T13:37:29.000Z</time>
      </trkpt>
      <trkpt lat="48.25183" lon="-3.43332">
        <ele>144.19999694824</ele>
        <time>2020-10-18T13:37:30.000Z</time>
      </trkpt>
      <trkpt lat="48.25183" lon="-3.43332">
        <ele>144.19999694824</ele>
        <time>2020-10-18T13:37:31.000Z</time>
      </trkpt>
      <trkpt lat="48.25183" lon="-3.43332">
        <ele>144.19999694824</ele>
        <time>2020-10-18T13:37:32.000Z</time>
      </trkpt>
      <trkpt lat="48.25183" lon="-3.43332">
        <ele>144.19999694824</ele>
        <time>2020-10-18T13:37:33.000Z</time>
      </trkpt>
      <trkpt lat="48.25183" lon="-3.43332">
        <ele>144.19999694824</ele>
        <time>2020-10-18T13:37:34.000Z</time>
      </trkpt>
      <trkpt lat="48.25183" lon="-3.43332">
        <ele>144.19999694824</ele>
        <time>2020-10-18T13:37:35.000Z</time>
      </trkpt>
      <trkpt lat="48.25183" lon="-3.43332">
        <ele>144.19999694824</ele>
        <time>2020-10-18T13:37:36.000Z</time>
      </trkpt>
      <trkpt lat="48.25183" lon="-3.43332">
        <ele>144.19999694824</ele>
        <time>2020-10-18T13:37:37.000Z</time>
      </trkpt>
      <trkpt lat="48.25183" lon="-3.43332">
        <ele>144.19999694824</ele>
        <time>2020-10-18T13:37:38.000Z</time>
      </trkpt>
      <trkpt lat="48.25183" lon="-3.43332">
        <ele>144.19999694824</ele>
        <time>2020-10-18T13:37:39.000Z</time>
      </trkpt>
      <trkpt lat="48.25183" lon="-3.43332">
        <ele>144.19999694824</ele>
        <time>2020-10-18T13:37:40.000Z</time>
      </trkpt>
      <trkpt lat="48.25183" lon="-3.43332">
        <ele>144.19999694824</ele>
        <time>2020-10-18T13:37:41.000Z</time>
      </trkpt>
      <trkpt lat="48.25183" lon="-3.43332">
        <ele>144.19999694824</ele>
        <time>2020-10-18T13:37:42.000Z</time>
      </trkpt>
      <trkpt lat="48.25183" lon="-3.43332">
        <ele>144.19999694824</ele>
        <time>2020-10-18T13:37:43.000Z</time>
      </trkpt>
      <trkpt lat="48.25183" lon="-3.43332">
        <ele>144.19999694824</ele>
        <time>2020-10-18T13:37:44.000Z</time>
      </trkpt>
      <trkpt lat="48.25183" lon="-3.43332">
        <ele>144.19999694824</ele>
        <time>2020-10-18T13:37:45.000Z</time>
      </trkpt>
      <trkpt lat="48.25183" lon="-3.43332">
        <ele>144.19999694824</ele>
        <time>2020-10-18T13:37:46.000Z</time>
      </trkpt>
      <trkpt lat="48.25183" lon="-3.43332">
        <ele>144.19999694824</ele>
        <time>2020-10-18T13:37:47.000Z</time>
      </trkpt>
      <trkpt lat="48.25183" lon="-3.43332">
        <ele>144.19999694824</ele>
        <time>2020-10-18T13:37:48.000Z</time>
      </trkpt>
      <trkpt lat="48.25183" lon="-3.43332">
        <ele>144.19999694824</ele>
        <time>2020-10-18T13:37:49.000Z</time>
      </trkpt>
      <trkpt lat="48.25183" lon="-3.43332">
        <ele>144.19999694824</ele>
        <time>2020-10-18T13:37:50.000Z</time>
      </trkpt>
      <trkpt lat="48.25183" lon="-3.43332">
        <ele>144.19999694824</ele>
        <time>2020-10-18T13:37:51.000Z</time>
      </trkpt>
      <trkpt lat="48.25183" lon="-3.43332">
        <ele>144.19999694824</ele>
        <time>2020-10-18T13:37:52.000Z</time>
      </trkpt>
      <trkpt lat="48.25183" lon="-3.43332">
        <ele>144.19999694824</ele>
        <time>2020-10-18T13:37:53.000Z</time>
      </trkpt>
      <trkpt lat="48.25183" lon="-3.43332">
        <ele>144.19999694824</ele>
        <time>2020-10-18T13:37:54.000Z</time>
      </trkpt>
      <trkpt lat="48.25183" lon="-3.43332">
        <ele>144.19999694824</ele>
        <time>2020-10-18T13:37:55.000Z</time>
      </trkpt>
      <trkpt lat="48.25183" lon="-3.43332">
        <ele>144.19999694824</ele>
        <time>2020-10-18T13:37:56.000Z</time>
      </trkpt>
      <trkpt lat="48.25183" lon="-3.43332">
        <ele>144.19999694824</ele>
        <time>2020-10-18T13:37:57.000Z</time>
      </trkpt>
      <trkpt lat="48.25183" lon="-3.43332">
        <ele>144.19999694824</ele>
        <time>2020-10-18T13:37:58.000Z</time>
      </trkpt>
      <trkpt lat="48.25183" lon="-3.43332">
        <ele>144.19999694824</ele>
        <time>2020-10-18T13:37:59.000Z</time>
      </trkpt>
      <trkpt lat="48.25183" lon="-3.43332">
        <ele>144.19999694824</ele>
        <time>2020-10-18T13:38:00.000Z</time>
      </trkpt>
      <trkpt lat="48.25183" lon="-3.43332">
        <ele>144.19999694824</ele>
        <time>2020-10-18T13:38:01.000Z</time>
      </trkpt>
      <trkpt lat="48.25183" lon="-3.43332">
        <ele>144.19999694824</ele>
        <time>2020-10-18T13:38:02.000Z</time>
      </trkpt>
      <trkpt lat="48.25183" lon="-3.43332">
        <ele>144.19999694824</ele>
        <time>2020-10-18T13:38:03.000Z</time>
      </trkpt>
      <trkpt lat="48.25183" lon="-3.43332">
        <ele>144.19999694824</ele>
        <time>2020-10-18T13:38:04.000Z</time>
      </trkpt>
      <trkpt lat="48.25183" lon="-3.43332">
        <ele>144.19999694824</ele>
        <time>2020-10-18T13:38:05.000Z</time>
      </trkpt>
      <trkpt lat="48.25183" lon="-3.43332">
        <ele>144.19999694824</ele>
        <time>2020-10-18T13:38:06.000Z</time>
      </trkpt>
      <trkpt lat="48.25183" lon="-3.43332">
        <ele>144.19999694824</ele>
        <time>2020-10-18T13:38:07.000Z</time>
      </trkpt>
      <trkpt lat="48.25183" lon="-3.43332">
        <ele>144.19999694824</ele>
        <time>2020-10-18T13:38:08.000Z</time>
      </trkpt>
      <trkpt lat="48.25183" lon="-3.43332">
        <ele>144.19999694824</ele>
        <time>2020-10-18T13:38:09.000Z</time>
      </trkpt>
      <trkpt lat="48.25183" lon="-3.43332">
        <ele>144.19999694824</ele>
        <time>2020-10-18T13:38:10.000Z</time>
      </trkpt>
      <trkpt lat="48.25183" lon="-3.43332">
        <ele>144.19999694824</ele>
        <time>2020-10-18T13:38:11.000Z</time>
      </trkpt>
      <trkpt lat="48.25183" lon="-3.43332">
        <ele>144.19999694824</ele>
        <time>2020-10-18T13:38:12.000Z</time>
      </trkpt>
      <trkpt lat="48.25183" lon="-3.43332">
        <ele>144.19999694824</ele>
        <time>2020-10-18T13:38:13.000Z</time>
      </trkpt>
      <trkpt lat="48.25183" lon="-3.43332">
        <ele>144.19999694824</ele>
        <time>2020-10-18T13:38:14.000Z</time>
      </trkpt>
      <trkpt lat="48.25183" lon="-3.43332">
        <ele>144.19999694824</ele>
        <time>2020-10-18T13:38:15.000Z</time>
      </trkpt>
      <trkpt lat="48.25183" lon="-3.43332">
        <ele>144.19999694824</ele>
        <time>2020-10-18T13:38:16.000Z</time>
      </trkpt>
      <trkpt lat="48.25183" lon="-3.43332">
        <ele>144.19999694824</ele>
        <time>2020-10-18T13:38:17.000Z</time>
      </trkpt>
      <trkpt lat="48.25183" lon="-3.43332">
        <ele>144.19999694824</ele>
        <time>2020-10-18T13:38:18.000Z</time>
      </trkpt>
      <trkpt lat="48.25183" lon="-3.43332">
        <ele>144.19999694824</ele>
        <time>2020-10-18T13:38:19.000Z</time>
      </trkpt>
      <trkpt lat="48.25183" lon="-3.43332">
        <ele>144.19999694824</ele>
        <time>2020-10-18T13:38:20.000Z</time>
      </trkpt>
      <trkpt lat="48.25183" lon="-3.43332">
        <ele>144.19999694824</ele>
        <time>2020-10-18T13:38:21.000Z</time>
      </trkpt>
      <trkpt lat="48.25183" lon="-3.43332">
        <ele>144.19999694824</ele>
        <time>2020-10-18T13:38:22.000Z</time>
      </trkpt>
      <trkpt lat="48.25183" lon="-3.43332">
        <ele>144.19999694824</ele>
        <time>2020-10-18T13:38:23.000Z</time>
      </trkpt>
      <trkpt lat="48.25183" lon="-3.43332">
        <ele>144.19999694824</ele>
        <time>2020-10-18T13:38:24.000Z</time>
      </trkpt>
      <trkpt lat="48.25183" lon="-3.43332">
        <ele>144.19999694824</ele>
        <time>2020-10-18T13:38:25.000Z</time>
      </trkpt>
      <trkpt lat="48.25183" lon="-3.43332">
        <ele>144.19999694824</ele>
        <time>2020-10-18T13:38:26.000Z</time>
      </trkpt>
      <trkpt lat="48.25183" lon="-3.43332">
        <ele>144.19999694824</ele>
        <time>2020-10-18T13:38:27.000Z</time>
      </trkpt>
      <trkpt lat="48.25183" lon="-3.43332">
        <ele>144.19999694824</ele>
        <time>2020-10-18T13:38:28.000Z</time>
      </trkpt>
      <trkpt lat="48.25183" lon="-3.43332">
        <ele>144.19999694824</ele>
        <time>2020-10-18T13:38:29.000Z</time>
      </trkpt>
      <trkpt lat="48.25183" lon="-3.43332">
        <ele>144.19999694824</ele>
        <time>2020-10-18T13:38:30.000Z</time>
      </trkpt>
      <trkpt lat="48.25183" lon="-3.43332">
        <ele>144.19999694824</ele>
        <time>2020-10-18T13:38:31.000Z</time>
      </trkpt>
      <trkpt lat="48.25183" lon="-3.43332">
        <ele>144.19999694824</ele>
        <time>2020-10-18T13:38:32.000Z</time>
      </trkpt>
      <trkpt lat="48.25183" lon="-3.43332">
        <ele>144.19999694824</ele>
        <time>2020-10-18T13:38:33.000Z</time>
      </trkpt>
      <trkpt lat="48.25183" lon="-3.43332">
        <ele>144.19999694824</ele>
        <time>2020-10-18T13:38:34.000Z</time>
      </trkpt>
      <trkpt lat="48.25183" lon="-3.43332">
        <ele>144.19999694824</ele>
        <time>2020-10-18T13:38:35.000Z</time>
      </trkpt>
      <trkpt lat="48.25183" lon="-3.43332">
        <ele>144.19999694824</ele>
        <time>2020-10-18T13:38:36.000Z</time>
      </trkpt>
      <trkpt lat="48.25183" lon="-3.43332">
        <ele>144.19999694824</ele>
        <time>2020-10-18T13:38:37.000Z</time>
      </trkpt>
      <trkpt lat="48.25183" lon="-3.43332">
        <ele>144.19999694824</ele>
        <time>2020-10-18T13:38:38.000Z</time>
      </trkpt>
      <trkpt lat="48.25183" lon="-3.43332">
        <ele>144.19999694824</ele>
        <time>2020-10-18T13:38:39.000Z</time>
      </trkpt>
      <trkpt lat="48.25183" lon="-3.43332">
        <ele>144.19999694824</ele>
        <time>2020-10-18T13:38:40.000Z</time>
      </trkpt>
      <trkpt lat="48.25183" lon="-3.43332">
        <ele>144.19999694824</ele>
        <time>2020-10-18T13:38:41.000Z</time>
      </trkpt>
      <trkpt lat="48.25183" lon="-3.43332">
        <ele>144.19999694824</ele>
        <time>2020-10-18T13:38:42.000Z</time>
      </trkpt>
      <trkpt lat="48.25183" lon="-3.43332">
        <ele>144.19999694824</ele>
        <time>2020-10-18T13:38:43.000Z</time>
      </trkpt>
      <trkpt lat="48.25183" lon="-3.43332">
        <ele>144.19999694824</ele>
        <time>2020-10-18T13:38:44.000Z</time>
      </trkpt>
      <trkpt lat="48.25183" lon="-3.43332">
        <ele>144.19999694824</ele>
        <time>2020-10-18T13:38:45.000Z</time>
      </trkpt>
      <trkpt lat="48.25183" lon="-3.43332">
        <ele>144.19999694824</ele>
        <time>2020-10-18T13:38:46.000Z</time>
      </trkpt>
      <trkpt lat="48.25183" lon="-3.43332">
        <ele>144.19999694824</ele>
        <time>2020-10-18T13:38:47.000Z</time>
      </trkpt>
      <trkpt lat="48.25183" lon="-3.43332">
        <ele>144.19999694824</ele>
        <time>2020-10-18T13:38:48.000Z</time>
      </trkpt>
      <trkpt lat="48.25183" lon="-3.43332">
        <ele>144.19999694824</ele>
        <time>2020-10-18T13:38:49.000Z</time>
      </trkpt>
      <trkpt lat="48.25183" lon="-3.43332">
        <ele>144.19999694824</ele>
        <time>2020-10-18T13:38:50.000Z</time>
      </trkpt>
      <trkpt lat="48.25183" lon="-3.43332">
        <ele>144.19999694824</ele>
        <time>2020-10-18T13:38:51.000Z</time>
      </trkpt>
      <trkpt lat="48.25183" lon="-3.43332">
        <ele>144.19999694824</ele>
        <time>2020-10-18T13:38:52.000Z</time>
      </trkpt>
      <trkpt lat="48.25183" lon="-3.43332">
        <ele>144.19999694824</ele>
        <time>2020-10-18T13:38:53.000Z</time>
      </trkpt>
      <trkpt lat="48.25183" lon="-3.43332">
        <ele>144.19999694824</ele>
        <time>2020-10-18T13:38:54.000Z</time>
      </trkpt>
      <trkpt lat="48.25183" lon="-3.43332">
        <ele>144.19999694824</ele>
        <time>2020-10-18T13:38:55.000Z</time>
      </trkpt>
      <trkpt lat="48.25183" lon="-3.43332">
        <ele>144.19999694824</ele>
        <time>2020-10-18T13:38:56.000Z</time>
      </trkpt>
      <trkpt lat="48.25183" lon="-3.43332">
        <ele>144.19999694824</ele>
        <time>2020-10-18T13:38:57.000Z</time>
      </trkpt>
      <trkpt lat="48.25183" lon="-3.43332">
        <ele>144.19999694824</ele>
        <time>2020-10-18T13:38:58.000Z</time>
      </trkpt>
      <trkpt lat="48.25183" lon="-3.43332">
        <ele>144.19999694824</ele>
        <time>2020-10-18T13:38:59.000Z</time>
      </trkpt>
      <trkpt lat="48.25183" lon="-3.43332">
        <ele>144.19999694824</ele>
        <time>2020-10-18T13:39:00.000Z</time>
      </trkpt>
      <trkpt lat="48.25183" lon="-3.43332">
        <ele>144.19999694824</ele>
        <time>2020-10-18T13:39:01.000Z</time>
      </trkpt>
      <trkpt lat="48.25183" lon="-3.43332">
        <ele>144.19999694824</ele>
        <time>2020-10-18T13:39:02.000Z</time>
      </trkpt>
      <trkpt lat="48.25183" lon="-3.43332">
        <ele>144.19999694824</ele>
        <time>2020-10-18T13:39:03.000Z</time>
      </trkpt>
      <trkpt lat="48.25183" lon="-3.43332">
        <ele>144.19999694824</ele>
        <time>2020-10-18T13:39:04.000Z</time>
      </trkpt>
      <trkpt lat="48.25182" lon="-3.43331">
        <ele>144.19999694824</ele>
        <time>2020-10-18T13:39:05.000Z</time>
      </trkpt>
      <trkpt lat="48.25181" lon="-3.43329">
        <ele>144</ele>
        <time>2020-10-18T13:39:06.000Z</time>
      </trkpt>
      <trkpt lat="48.2518" lon="-3.43327">
        <ele>144</ele>
        <time>2020-10-18T13:39:07.000Z</time>
      </trkpt>
      <trkpt lat="48.25179" lon="-3.43325">
        <ele>144</ele>
        <time>2020-10-18T13:39:08.000Z</time>
      </trkpt>
      <trkpt lat="48.25178" lon="-3.43324">
        <ele>144</ele>
        <time>2020-10-18T13:39:09.000Z</time>
      </trkpt>
      <trkpt lat="48.25178" lon="-3.43322">
        <ele>144.19999694824</ele>
        <time>2020-10-18T13:39:10.000Z</time>
      </trkpt>
      <trkpt lat="48.25177" lon="-3.4332">
        <ele>144.19999694824</ele>
        <time>2020-10-18T13:39:11.000Z</time>
      </trkpt>
      <trkpt lat="48.25175" lon="-3.43317">
        <ele>144.39999389648</ele>
        <time>2020-10-18T13:39:12.000Z</time>
      </trkpt>
      <trkpt lat="48.25174" lon="-3.43314">
        <ele>144.39999389648</ele>
        <time>2020-10-18T13:39:13.000Z</time>
      </trkpt>
      <trkpt lat="48.25173" lon="-3.43312">
        <ele>144.60000610352</ele>
        <time>2020-10-18T13:39:14.000Z</time>
      </trkpt>
      <trkpt lat="48.25172" lon="-3.43309">
        <ele>144.60000610352</ele>
        <time>2020-10-18T13:39:15.000Z</time>
      </trkpt>
      <trkpt lat="48.25171" lon="-3.43306">
        <ele>144.80000305176</ele>
        <time>2020-10-18T13:39:16.000Z</time>
      </trkpt>
      <trkpt lat="48.2517" lon="-3.43303">
        <ele>144.80000305176</ele>
        <time>2020-10-18T13:39:17.000Z</time>
      </trkpt>
      <trkpt lat="48.25169" lon="-3.433">
        <ele>144.80000305176</ele>
        <time>2020-10-18T13:39:18.000Z</time>
      </trkpt>
      <trkpt lat="48.25168" lon="-3.43297">
        <ele>145</ele>
        <time>2020-10-18T13:39:19.000Z</time>
      </trkpt>
      <trkpt lat="48.25167" lon="-3.43294">
        <ele>145</ele>
        <time>2020-10-18T13:39:20.000Z</time>
      </trkpt>
      <trkpt lat="48.25165" lon="-3.43291">
        <ele>145.19999694824</ele>
        <time>2020-10-18T13:39:21.000Z</time>
      </trkpt>
      <trkpt lat="48.25164" lon="-3.43288">
        <ele>145.39999389648</ele>
        <time>2020-10-18T13:39:22.000Z</time>
      </trkpt>
      <trkpt lat="48.25162" lon="-3.43285">
        <ele>145.39999389648</ele>
        <time>2020-10-18T13:39:23.000Z</time>
      </trkpt>
      <trkpt lat="48.25161" lon="-3.4328">
        <ele>145.39999389648</ele>
        <time>2020-10-18T13:39:24.000Z</time>
      </trkpt>
      <trkpt lat="48.25159" lon="-3.43275">
        <ele>145.39999389648</ele>
        <time>2020-10-18T13:39:25.000Z</time>
      </trkpt>
      <trkpt lat="48.25156" lon="-3.4327">
        <ele>145.19999694824</ele>
        <time>2020-10-18T13:39:26.000Z</time>
      </trkpt>
      <trkpt lat="48.25151" lon="-3.4326">
        <ele>145.39999389648</ele>
        <time>2020-10-18T13:39:27.000Z</time>
      </trkpt>
      <trkpt lat="48.25151" lon="-3.4326">
        <ele>145.39999389648</ele>
        <time>2020-10-18T13:39:28.000Z</time>
      </trkpt>
      <trkpt lat="48.25148" lon="-3.43255">
        <ele>145.60000610352</ele>
        <time>2020-10-18T13:39:29.000Z</time>
      </trkpt>
      <trkpt lat="48.25146" lon="-3.4325">
        <ele>145.80000305176</ele>
        <time>2020-10-18T13:39:30.000Z</time>
      </trkpt>
      <trkpt lat="48.25143" lon="-3.43245">
        <ele>146</ele>
        <time>2020-10-18T13:39:31.000Z</time>
      </trkpt>
      <trkpt lat="48.25141" lon="-3.4324">
        <ele>146.19999694824</ele>
        <time>2020-10-18T13:39:32.000Z</time>
      </trkpt>
      <trkpt lat="48.25138" lon="-3.43234">
        <ele>146.39999389648</ele>
        <time>2020-10-18T13:39:33.000Z</time>
      </trkpt>
      <trkpt lat="48.25135" lon="-3.43229">
        <ele>146.60000610352</ele>
        <time>2020-10-18T13:39:34.000Z</time>
      </trkpt>
      <trkpt lat="48.25131" lon="-3.43225">
        <ele>146.39999389648</ele>
        <time>2020-10-18T13:39:35.000Z</time>
      </trkpt>
      <trkpt lat="48.25127" lon="-3.4322">
        <ele>146.19999694824</ele>
        <time>2020-10-18T13:39:36.000Z</time>
      </trkpt>
      <trkpt lat="48.25124" lon="-3.43216">
        <ele>146</ele>
        <time>2020-10-18T13:39:37.000Z</time>
      </trkpt>
      <trkpt lat="48.2512" lon="-3.43213">
        <ele>145.80000305176</ele>
        <time>2020-10-18T13:39:38.000Z</time>
      </trkpt>
      <trkpt lat="48.25117" lon="-3.4321">
        <ele>145.60000610352</ele>
        <time>2020-10-18T13:39:39.000Z</time>
      </trkpt>
      <trkpt lat="48.25113" lon="-3.43206">
        <ele>145.39999389648</ele>
        <time>2020-10-18T13:39:40.000Z</time>
      </trkpt>
      <trkpt lat="48.2511" lon="-3.43203">
        <ele>145.19999694824</ele>
        <time>2020-10-18T13:39:41.000Z</time>
      </trkpt>
      <trkpt lat="48.25106" lon="-3.43201">
        <ele>145</ele>
        <time>2020-10-18T13:39:42.000Z</time>
      </trkpt>
      <trkpt lat="48.25102" lon="-3.43199">
        <ele>144.80000305176</ele>
        <time>2020-10-18T13:39:43.000Z</time>
      </trkpt>
      <trkpt lat="48.25099" lon="-3.43196">
        <ele>144.80000305176</ele>
        <time>2020-10-18T13:39:44.000Z</time>
      </trkpt>
      <trkpt lat="48.25096" lon="-3.43194">
        <ele>144.60000610352</ele>
        <time>2020-10-18T13:39:45.000Z</time>
      </trkpt>
      <trkpt lat="48.25092" lon="-3.43192">
        <ele>144.60000610352</ele>
        <time>2020-10-18T13:39:46.000Z</time>
      </trkpt>
      <trkpt lat="48.25085" lon="-3.43188">
        <ele>144.80000305176</ele>
        <time>2020-10-18T13:39:47.000Z</time>
      </trkpt>
      <trkpt lat="48.25085" lon="-3.43188">
        <ele>144.80000305176</ele>
        <time>2020-10-18T13:39:48.000Z</time>
      </trkpt>
      <trkpt lat="48.25081" lon="-3.43186">
        <ele>144.80000305176</ele>
        <time>2020-10-18T13:39:49.000Z</time>
      </trkpt>
      <trkpt lat="48.25077" lon="-3.43184">
        <ele>144.80000305176</ele>
        <time>2020-10-18T13:39:50.000Z</time>
      </trkpt>
      <trkpt lat="48.25068" lon="-3.43178">
        <ele>145</ele>
        <time>2020-10-18T13:39:51.000Z</time>
      </trkpt>
      <trkpt lat="48.25068" lon="-3.43178">
        <ele>145</ele>
        <time>2020-10-18T13:39:52.000Z</time>
      </trkpt>
      <trkpt lat="48.25064" lon="-3.43175">
        <ele>145</ele>
        <time>2020-10-18T13:39:53.000Z</time>
      </trkpt>
      <trkpt lat="48.2506" lon="-3.43173">
        <ele>145.19999694824</ele>
        <time>2020-10-18T13:39:54.000Z</time>
      </trkpt>
      <trkpt lat="48.25056" lon="-3.43169">
        <ele>145.19999694824</ele>
        <time>2020-10-18T13:39:55.000Z</time>
      </trkpt>
      <trkpt lat="48.25051" lon="-3.43166">
        <ele>145.39999389648</ele>
        <time>2020-10-18T13:39:56.000Z</time>
      </trkpt>
      <trkpt lat="48.25047" lon="-3.43163">
        <ele>145.60000610352</ele>
        <time>2020-10-18T13:39:57.000Z</time>
      </trkpt>
      <trkpt lat="48.25043" lon="-3.4316">
        <ele>145.60000610352</ele>
        <time>2020-10-18T13:39:58.000Z</time>
      </trkpt>
      <trkpt lat="48.25039" lon="-3.43158">
        <ele>145.80000305176</ele>
        <time>2020-10-18T13:39:59.000Z</time>
      </trkpt>
      <trkpt lat="48.25035" lon="-3.43156">
        <ele>145.80000305176</ele>
        <time>2020-10-18T13:40:00.000Z</time>
      </trkpt>
      <trkpt lat="48.25031" lon="-3.43153">
        <ele>145.80000305176</ele>
        <time>2020-10-18T13:40:01.000Z</time>
      </trkpt>
      <trkpt lat="48.25027" lon="-3.43152">
        <ele>145.80000305176</ele>
        <time>2020-10-18T13:40:02.000Z</time>
      </trkpt>
      <trkpt lat="48.25023" lon="-3.4315">
        <ele>145.80000305176</ele>
        <time>2020-10-18T13:40:03.000Z</time>
      </trkpt>
      <trkpt lat="48.25019" lon="-3.43147">
        <ele>145.60000610352</ele>
        <time>2020-10-18T13:40:04.000Z</time>
      </trkpt>
      <trkpt lat="48.25014" lon="-3.43144">
        <ele>145.60000610352</ele>
        <time>2020-10-18T13:40:05.000Z</time>
      </trkpt>
      <trkpt lat="48.2501" lon="-3.43141">
        <ele>145.60000610352</ele>
        <time>2020-10-18T13:40:06.000Z</time>
      </trkpt>
      <trkpt lat="48.25001" lon="-3.43135">
        <ele>146</ele>
        <time>2020-10-18T13:40:07.000Z</time>
      </trkpt>
      <trkpt lat="48.25001" lon="-3.43135">
        <ele>146</ele>
        <time>2020-10-18T13:40:08.000Z</time>
      </trkpt>
      <trkpt lat="48.24997" lon="-3.43132">
        <ele>146.19999694824</ele>
        <time>2020-10-18T13:40:09.000Z</time>
      </trkpt>
      <trkpt lat="48.24993" lon="-3.43129">
        <ele>146.19999694824</ele>
        <time>2020-10-18T13:40:10.000Z</time>
      </trkpt>
      <trkpt lat="48.24988" lon="-3.43126">
        <ele>146.39999389648</ele>
        <time>2020-10-18T13:40:11.000Z</time>
      </trkpt>
      <trkpt lat="48.24983" lon="-3.43122">
        <ele>146.39999389648</ele>
        <time>2020-10-18T13:40:12.000Z</time>
      </trkpt>
      <trkpt lat="48.24979" lon="-3.43118">
        <ele>146.39999389648</ele>
        <time>2020-10-18T13:40:13.000Z</time>
      </trkpt>
      <trkpt lat="48.24974" lon="-3.43116">
        <ele>146.39999389648</ele>
        <time>2020-10-18T13:40:14.000Z</time>
      </trkpt>
      <trkpt lat="48.2497" lon="-3.43112">
        <ele>146.39999389648</ele>
        <time>2020-10-18T13:40:15.000Z</time>
      </trkpt>
      <trkpt lat="48.24965" lon="-3.43109">
        <ele>146.39999389648</ele>
        <time>2020-10-18T13:40:16.000Z</time>
      </trkpt>
      <trkpt lat="48.2496" lon="-3.43105">
        <ele>146.19999694824</ele>
        <time>2020-10-18T13:40:17.000Z</time>
      </trkpt>
      <trkpt lat="48.24955" lon="-3.43101">
        <ele>146.19999694824</ele>
        <time>2020-10-18T13:40:18.000Z</time>
      </trkpt>
      <trkpt lat="48.2495" lon="-3.43098">
        <ele>146.19999694824</ele>
        <time>2020-10-18T13:40:19.000Z</time>
      </trkpt>
      <trkpt lat="48.24945" lon="-3.43095">
        <ele>146.60000610352</ele>
        <time>2020-10-18T13:40:20.000Z</time>
      </trkpt>
      <trkpt lat="48.24941" lon="-3.43092">
        <ele>146.80000305176</ele>
        <time>2020-10-18T13:40:21.000Z</time>
      </trkpt>
      <trkpt lat="48.24933" lon="-3.43086">
        <ele>146.80000305176</ele>
        <time>2020-10-18T13:40:22.000Z</time>
      </trkpt>
      <trkpt lat="48.24933" lon="-3.43086">
        <ele>146.80000305176</ele>
        <time>2020-10-18T13:40:23.000Z</time>
      </trkpt>
      <trkpt lat="48.24929" lon="-3.43084">
        <ele>146.80000305176</ele>
        <time>2020-10-18T13:40:24.000Z</time>
      </trkpt>
      <trkpt lat="48.24926" lon="-3.43081">
        <ele>146.80000305176</ele>
        <time>2020-10-18T13:40:25.000Z</time>
      </trkpt>
      <trkpt lat="48.24922" lon="-3.43077">
        <ele>146.80000305176</ele>
        <time>2020-10-18T13:40:26.000Z</time>
      </trkpt>
      <trkpt lat="48.24918" lon="-3.43074">
        <ele>146.80000305176</ele>
        <time>2020-10-18T13:40:27.000Z</time>
      </trkpt>
      <trkpt lat="48.24915" lon="-3.43072">
        <ele>146.60000610352</ele>
        <time>2020-10-18T13:40:28.000Z</time>
      </trkpt>
      <trkpt lat="48.24912" lon="-3.4307">
        <ele>146.60000610352</ele>
        <time>2020-10-18T13:40:29.000Z</time>
      </trkpt>
      <trkpt lat="48.24909" lon="-3.43068">
        <ele>146.60000610352</ele>
        <time>2020-10-18T13:40:30.000Z</time>
      </trkpt>
      <trkpt lat="48.24906" lon="-3.43067">
        <ele>146.60000610352</ele>
        <time>2020-10-18T13:40:31.000Z</time>
      </trkpt>
      <trkpt lat="48.24903" lon="-3.43065">
        <ele>146.60000610352</ele>
        <time>2020-10-18T13:40:32.000Z</time>
      </trkpt>
      <trkpt lat="48.249" lon="-3.43063">
        <ele>146.60000610352</ele>
        <time>2020-10-18T13:40:33.000Z</time>
      </trkpt>
      <trkpt lat="48.24897" lon="-3.43061">
        <ele>146.60000610352</ele>
        <time>2020-10-18T13:40:34.000Z</time>
      </trkpt>
      <trkpt lat="48.24894" lon="-3.43059">
        <ele>146.60000610352</ele>
        <time>2020-10-18T13:40:35.000Z</time>
      </trkpt>
      <trkpt lat="48.24891" lon="-3.43057">
        <ele>146.60000610352</ele>
        <time>2020-10-18T13:40:36.000Z</time>
      </trkpt>
      <trkpt lat="48.24887" lon="-3.43055">
        <ele>146.60000610352</ele>
        <time>2020-10-18T13:40:37.000Z</time>
      </trkpt>
      <trkpt lat="48.24884" lon="-3.43052">
        <ele>146.60000610352</ele>
        <time>2020-10-18T13:40:38.000Z</time>
      </trkpt>
      <trkpt lat="48.2488" lon="-3.4305">
        <ele>146.60000610352</ele>
        <time>2020-10-18T13:40:39.000Z</time>
      </trkpt>
      <trkpt lat="48.24876" lon="-3.43047">
        <ele>146.60000610352</ele>
        <time>2020-10-18T13:40:40.000Z</time>
      </trkpt>
      <trkpt lat="48.24873" lon="-3.43044">
        <ele>146.60000610352</ele>
        <time>2020-10-18T13:40:41.000Z</time>
      </trkpt>
      <trkpt lat="48.24869" lon="-3.43041">
        <ele>146.80000305176</ele>
        <time>2020-10-18T13:40:42.000Z</time>
      </trkpt>
      <trkpt lat="48.24865" lon="-3.43038">
        <ele>146.80000305176</ele>
        <time>2020-10-18T13:40:43.000Z</time>
      </trkpt>
      <trkpt lat="48.24861" lon="-3.43036">
        <ele>146.80000305176</ele>
        <time>2020-10-18T13:40:44.000Z</time>
      </trkpt>
      <trkpt lat="48.24857" lon="-3.43033">
        <ele>146.80000305176</ele>
        <time>2020-10-18T13:40:45.000Z</time>
      </trkpt>
      <trkpt lat="48.24849" lon="-3.43028">
        <ele>147</ele>
        <time>2020-10-18T13:40:46.000Z</time>
      </trkpt>
      <trkpt lat="48.24845" lon="-3.43026">
        <ele>147</ele>
        <time>2020-10-18T13:40:47.000Z</time>
      </trkpt>
      <trkpt lat="48.24845" lon="-3.43026">
        <ele>147</ele>
        <time>2020-10-18T13:40:48.000Z</time>
      </trkpt>
      <trkpt lat="48.24841" lon="-3.43024">
        <ele>147</ele>
        <time>2020-10-18T13:40:49.000Z</time>
      </trkpt>
      <trkpt lat="48.24837" lon="-3.43021">
        <ele>147</ele>
        <time>2020-10-18T13:40:50.000Z</time>
      </trkpt>
      <trkpt lat="48.24833" lon="-3.43018">
        <ele>147</ele>
        <time>2020-10-18T13:40:51.000Z</time>
      </trkpt>
      <trkpt lat="48.24829" lon="-3.43016">
        <ele>147</ele>
        <time>2020-10-18T13:40:52.000Z</time>
      </trkpt>
      <trkpt lat="48.24825" lon="-3.43013">
        <ele>147</ele>
        <time>2020-10-18T13:40:53.000Z</time>
      </trkpt>
      <trkpt lat="48.24821" lon="-3.4301">
        <ele>147</ele>
        <time>2020-10-18T13:40:54.000Z</time>
      </trkpt>
      <trkpt lat="48.24816" lon="-3.43007">
        <ele>147</ele>
        <time>2020-10-18T13:40:55.000Z</time>
      </trkpt>
      <trkpt lat="48.24812" lon="-3.43004">
        <ele>147</ele>
        <time>2020-10-18T13:40:56.000Z</time>
      </trkpt>
      <trkpt lat="48.24808" lon="-3.43">
        <ele>147</ele>
        <time>2020-10-18T13:40:57.000Z</time>
      </trkpt>
      <trkpt lat="48.24804" lon="-3.42996">
        <ele>147</ele>
        <time>2020-10-18T13:40:58.000Z</time>
      </trkpt>
      <trkpt lat="48.248" lon="-3.42991">
        <ele>147</ele>
        <time>2020-10-18T13:40:59.000Z</time>
      </trkpt>
      <trkpt lat="48.24797" lon="-3.42986">
        <ele>147</ele>
        <time>2020-10-18T13:41:00.000Z</time>
      </trkpt>
      <trkpt lat="48.24793" lon="-3.42981">
        <ele>147</ele>
        <time>2020-10-18T13:41:01.000Z</time>
      </trkpt>
      <trkpt lat="48.2479" lon="-3.42975">
        <ele>147.19999694824</ele>
        <time>2020-10-18T13:41:02.000Z</time>
      </trkpt>
      <trkpt lat="48.24787" lon="-3.4297">
        <ele>147.19999694824</ele>
        <time>2020-10-18T13:41:03.000Z</time>
      </trkpt>
      <trkpt lat="48.24781" lon="-3.42958">
        <ele>147.39999389648</ele>
        <time>2020-10-18T13:41:04.000Z</time>
      </trkpt>
      <trkpt lat="48.24781" lon="-3.42958">
        <ele>147.39999389648</ele>
        <time>2020-10-18T13:41:05.000Z</time>
      </trkpt>
      <trkpt lat="48.24778" lon="-3.42952">
        <ele>147.60000610352</ele>
        <time>2020-10-18T13:41:06.000Z</time>
      </trkpt>
      <trkpt lat="48.24776" lon="-3.42946">
        <ele>147.60000610352</ele>
        <time>2020-10-18T13:41:07.000Z</time>
      </trkpt>
      <trkpt lat="48.24773" lon="-3.4294">
        <ele>147.80000305176</ele>
        <time>2020-10-18T13:41:08.000Z</time>
      </trkpt>
      <trkpt lat="48.24771" lon="-3.42933">
        <ele>147.80000305176</ele>
        <time>2020-10-18T13:41:09.000Z</time>
      </trkpt>
      <trkpt lat="48.24768" lon="-3.42927">
        <ele>148.19999694824</ele>
        <time>2020-10-18T13:41:10.000Z</time>
      </trkpt>
      <trkpt lat="48.24766" lon="-3.42921">
        <ele>148.19999694824</ele>
        <time>2020-10-18T13:41:11.000Z</time>
      </trkpt>
      <trkpt lat="48.24764" lon="-3.42916">
        <ele>148.19999694824</ele>
        <time>2020-10-18T13:41:12.000Z</time>
      </trkpt>
      <trkpt lat="48.24761" lon="-3.42909">
        <ele>148.19999694824</ele>
        <time>2020-10-18T13:41:13.000Z</time>
      </trkpt>
      <trkpt lat="48.24759" lon="-3.42903">
        <ele>148.39999389648</ele>
        <time>2020-10-18T13:41:14.000Z</time>
      </trkpt>
      <trkpt lat="48.24756" lon="-3.42897">
        <ele>148.39999389648</ele>
        <time>2020-10-18T13:41:15.000Z</time>
      </trkpt>
      <trkpt lat="48.24754" lon="-3.4289">
        <ele>148.39999389648</ele>
        <time>2020-10-18T13:41:16.000Z</time>
      </trkpt>
      <trkpt lat="48.24751" lon="-3.42884">
        <ele>148.39999389648</ele>
        <time>2020-10-18T13:41:17.000Z</time>
      </trkpt>
      <trkpt lat="48.24749" lon="-3.42877">
        <ele>148.39999389648</ele>
        <time>2020-10-18T13:41:18.000Z</time>
      </trkpt>
      <trkpt lat="48.24747" lon="-3.42871">
        <ele>148.60000610352</ele>
        <time>2020-10-18T13:41:19.000Z</time>
      </trkpt>
      <trkpt lat="48.24744" lon="-3.42865">
        <ele>148.60000610352</ele>
        <time>2020-10-18T13:41:20.000Z</time>
      </trkpt>
      <trkpt lat="48.24742" lon="-3.42858">
        <ele>148.60000610352</ele>
        <time>2020-10-18T13:41:21.000Z</time>
      </trkpt>
      <trkpt lat="48.2474" lon="-3.42852">
        <ele>148.60000610352</ele>
        <time>2020-10-18T13:41:22.000Z</time>
      </trkpt>
      <trkpt lat="48.24738" lon="-3.42847">
        <ele>148.80000305176</ele>
        <time>2020-10-18T13:41:23.000Z</time>
      </trkpt>
      <trkpt lat="48.24735" lon="-3.42841">
        <ele>149</ele>
        <time>2020-10-18T13:41:24.000Z</time>
      </trkpt>
      <trkpt lat="48.2473" lon="-3.42829">
        <ele>149.39999389648</ele>
        <time>2020-10-18T13:41:25.000Z</time>
      </trkpt>
      <trkpt lat="48.2473" lon="-3.42829">
        <ele>149.39999389648</ele>
        <time>2020-10-18T13:41:26.000Z</time>
      </trkpt>
      <trkpt lat="48.24728" lon="-3.42823">
        <ele>149.60000610352</ele>
        <time>2020-10-18T13:41:27.000Z</time>
      </trkpt>
      <trkpt lat="48.24726" lon="-3.42817">
        <ele>149.80000305176</ele>
        <time>2020-10-18T13:41:28.000Z</time>
      </trkpt>
      <trkpt lat="48.24724" lon="-3.4281">
        <ele>150</ele>
        <time>2020-10-18T13:41:29.000Z</time>
      </trkpt>
      <trkpt lat="48.24722" lon="-3.42803">
        <ele>150.19999694824</ele>
        <time>2020-10-18T13:41:30.000Z</time>
      </trkpt>
      <trkpt lat="48.2472" lon="-3.42797">
        <ele>150.39999389648</ele>
        <time>2020-10-18T13:41:31.000Z</time>
      </trkpt>
      <trkpt lat="48.24717" lon="-3.42792">
        <ele>150.60000610352</ele>
        <time>2020-10-18T13:41:32.000Z</time>
      </trkpt>
      <trkpt lat="48.24715" lon="-3.42786">
        <ele>150.60000610352</ele>
        <time>2020-10-18T13:41:33.000Z</time>
      </trkpt>
      <trkpt lat="48.24713" lon="-3.4278">
        <ele>150.80000305176</ele>
        <time>2020-10-18T13:41:34.000Z</time>
      </trkpt>
      <trkpt lat="48.2471" lon="-3.42774">
        <ele>151</ele>
        <time>2020-10-18T13:41:35.000Z</time>
      </trkpt>
      <trkpt lat="48.24709" lon="-3.42769">
        <ele>151.19999694824</ele>
        <time>2020-10-18T13:41:36.000Z</time>
      </trkpt>
      <trkpt lat="48.24706" lon="-3.42763">
        <ele>151.39999389648</ele>
        <time>2020-10-18T13:41:37.000Z</time>
      </trkpt>
      <trkpt lat="48.24704" lon="-3.42758">
        <ele>151.60000610352</ele>
        <time>2020-10-18T13:41:38.000Z</time>
      </trkpt>
      <trkpt lat="48.24702" lon="-3.42752">
        <ele>152</ele>
        <time>2020-10-18T13:41:39.000Z</time>
      </trkpt>
      <trkpt lat="48.247" lon="-3.42747">
        <ele>152.19999694824</ele>
        <time>2020-10-18T13:41:40.000Z</time>
      </trkpt>
      <trkpt lat="48.24698" lon="-3.42741">
        <ele>152.19999694824</ele>
        <time>2020-10-18T13:41:41.000Z</time>
      </trkpt>
      <trkpt lat="48.24695" lon="-3.42736">
        <ele>152</ele>
        <time>2020-10-18T13:41:42.000Z</time>
      </trkpt>
      <trkpt lat="48.24693" lon="-3.4273">
        <ele>151.80000305176</ele>
        <time>2020-10-18T13:41:43.000Z</time>
      </trkpt>
      <trkpt lat="48.24691" lon="-3.42725">
        <ele>151.80000305176</ele>
        <time>2020-10-18T13:41:44.000Z</time>
      </trkpt>
      <trkpt lat="48.24689" lon="-3.4272">
        <ele>151.60000610352</ele>
        <time>2020-10-18T13:41:45.000Z</time>
      </trkpt>
      <trkpt lat="48.24687" lon="-3.42715">
        <ele>151.39999389648</ele>
        <time>2020-10-18T13:41:46.000Z</time>
      </trkpt>
      <trkpt lat="48.24684" lon="-3.4271">
        <ele>151.39999389648</ele>
        <time>2020-10-18T13:41:47.000Z</time>
      </trkpt>
      <trkpt lat="48.24682" lon="-3.42704">
        <ele>151.19999694824</ele>
        <time>2020-10-18T13:41:48.000Z</time>
      </trkpt>
      <trkpt lat="48.2468" lon="-3.42699">
        <ele>151</ele>
        <time>2020-10-18T13:41:49.000Z</time>
      </trkpt>
      <trkpt lat="48.24678" lon="-3.42694">
        <ele>151</ele>
        <time>2020-10-18T13:41:50.000Z</time>
      </trkpt>
      <trkpt lat="48.24676" lon="-3.42688">
        <ele>151</ele>
        <time>2020-10-18T13:41:51.000Z</time>
      </trkpt>
      <trkpt lat="48.24674" lon="-3.42683">
        <ele>151</ele>
        <time>2020-10-18T13:41:52.000Z</time>
      </trkpt>
      <trkpt lat="48.24672" lon="-3.42678">
        <ele>151.39999389648</ele>
        <time>2020-10-18T13:41:53.000Z</time>
      </trkpt>
      <trkpt lat="48.2467" lon="-3.42672">
        <ele>151.60000610352</ele>
        <time>2020-10-18T13:41:54.000Z</time>
      </trkpt>
      <trkpt lat="48.24668" lon="-3.42666">
        <ele>151.80000305176</ele>
        <time>2020-10-18T13:41:55.000Z</time>
      </trkpt>
      <trkpt lat="48.24665" lon="-3.4266">
        <ele>152.19999694824</ele>
        <time>2020-10-18T13:41:56.000Z</time>
      </trkpt>
      <trkpt lat="48.24664" lon="-3.42654">
        <ele>152.60000610352</ele>
        <time>2020-10-18T13:41:57.000Z</time>
      </trkpt>
      <trkpt lat="48.24662" lon="-3.42648">
        <ele>152.80000305176</ele>
        <time>2020-10-18T13:41:58.000Z</time>
      </trkpt>
      <trkpt lat="48.2466" lon="-3.42643">
        <ele>153.19999694824</ele>
        <time>2020-10-18T13:41:59.000Z</time>
      </trkpt>
      <trkpt lat="48.24658" lon="-3.42637">
        <ele>153.39999389648</ele>
        <time>2020-10-18T13:42:00.000Z</time>
      </trkpt>
      <trkpt lat="48.24655" lon="-3.42631">
        <ele>153.80000305176</ele>
        <time>2020-10-18T13:42:01.000Z</time>
      </trkpt>
      <trkpt lat="48.24653" lon="-3.42625">
        <ele>154</ele>
        <time>2020-10-18T13:42:02.000Z</time>
      </trkpt>
      <trkpt lat="48.24651" lon="-3.42618">
        <ele>153.80000305176</ele>
        <time>2020-10-18T13:42:03.000Z</time>
      </trkpt>
      <trkpt lat="48.24649" lon="-3.42612">
        <ele>153.80000305176</ele>
        <time>2020-10-18T13:42:04.000Z</time>
      </trkpt>
      <trkpt lat="48.24647" lon="-3.42605">
        <ele>153.60000610352</ele>
        <time>2020-10-18T13:42:05.000Z</time>
      </trkpt>
      <trkpt lat="48.24645" lon="-3.42599">
        <ele>153.39999389648</ele>
        <time>2020-10-18T13:42:06.000Z</time>
      </trkpt>
      <trkpt lat="48.24642" lon="-3.42593">
        <ele>153.39999389648</ele>
        <time>2020-10-18T13:42:07.000Z</time>
      </trkpt>
      <trkpt lat="48.2464" lon="-3.42587">
        <ele>153.60000610352</ele>
        <time>2020-10-18T13:42:08.000Z</time>
      </trkpt>
      <trkpt lat="48.24637" lon="-3.4258">
        <ele>153.60000610352</ele>
        <time>2020-10-18T13:42:09.000Z</time>
      </trkpt>
      <trkpt lat="48.24635" lon="-3.42574">
        <ele>153.80000305176</ele>
        <time>2020-10-18T13:42:10.000Z</time>
      </trkpt>
      <trkpt lat="48.24632" lon="-3.42568">
        <ele>153.80000305176</ele>
        <time>2020-10-18T13:42:11.000Z</time>
      </trkpt>
      <trkpt lat="48.2463" lon="-3.42562">
        <ele>153.80000305176</ele>
        <time>2020-10-18T13:42:12.000Z</time>
      </trkpt>
      <trkpt lat="48.24627" lon="-3.42555">
        <ele>153.60000610352</ele>
        <time>2020-10-18T13:42:13.000Z</time>
      </trkpt>
      <trkpt lat="48.24625" lon="-3.42549">
        <ele>153.39999389648</ele>
        <time>2020-10-18T13:42:14.000Z</time>
      </trkpt>
      <trkpt lat="48.24622" lon="-3.42543">
        <ele>153.19999694824</ele>
        <time>2020-10-18T13:42:15.000Z</time>
      </trkpt>
      <trkpt lat="48.2462" lon="-3.42537">
        <ele>153</ele>
        <time>2020-10-18T13:42:16.000Z</time>
      </trkpt>
      <trkpt lat="48.24618" lon="-3.42532">
        <ele>152.80000305176</ele>
        <time>2020-10-18T13:42:17.000Z</time>
      </trkpt>
      <trkpt lat="48.24615" lon="-3.42526">
        <ele>152.60000610352</ele>
        <time>2020-10-18T13:42:18.000Z</time>
      </trkpt>
      <trkpt lat="48.24613" lon="-3.4252">
        <ele>152.39999389648</ele>
        <time>2020-10-18T13:42:19.000Z</time>
      </trkpt>
      <trkpt lat="48.2461" lon="-3.42514">
        <ele>152.19999694824</ele>
        <time>2020-10-18T13:42:20.000Z</time>
      </trkpt>
      <trkpt lat="48.24608" lon="-3.42508">
        <ele>152.39999389648</ele>
        <time>2020-10-18T13:42:21.000Z</time>
      </trkpt>
      <trkpt lat="48.24605" lon="-3.42503">
        <ele>152.39999389648</ele>
        <time>2020-10-18T13:42:22.000Z</time>
      </trkpt>
      <trkpt lat="48.246" lon="-3.42491">
        <ele>151.80000305176</ele>
        <time>2020-10-18T13:42:23.000Z</time>
      </trkpt>
      <trkpt lat="48.246" lon="-3.42491">
        <ele>151.80000305176</ele>
        <time>2020-10-18T13:42:24.000Z</time>
      </trkpt>
      <trkpt lat="48.24597" lon="-3.42486">
        <ele>151.39999389648</ele>
        <time>2020-10-18T13:42:25.000Z</time>
      </trkpt>
      <trkpt lat="48.24594" lon="-3.42481">
        <ele>151.39999389648</ele>
        <time>2020-10-18T13:42:26.000Z</time>
      </trkpt>
      <trkpt lat="48.24591" lon="-3.42476">
        <ele>151.39999389648</ele>
        <time>2020-10-18T13:42:27.000Z</time>
      </trkpt>
      <trkpt lat="48.24588" lon="-3.42471">
        <ele>151.60000610352</ele>
        <time>2020-10-18T13:42:28.000Z</time>
      </trkpt>
      <trkpt lat="48.24584" lon="-3.42467">
        <ele>151.60000610352</ele>
        <time>2020-10-18T13:42:29.000Z</time>
      </trkpt>
      <trkpt lat="48.24581" lon="-3.42463">
        <ele>151.60000610352</ele>
        <time>2020-10-18T13:42:30.000Z</time>
      </trkpt>
      <trkpt lat="48.24577" lon="-3.42459">
        <ele>151.60000610352</ele>
        <time>2020-10-18T13:42:31.000Z</time>
      </trkpt>
      <trkpt lat="48.24573" lon="-3.42455">
        <ele>151.80000305176</ele>
        <time>2020-10-18T13:42:32.000Z</time>
      </trkpt>
      <trkpt lat="48.24569" lon="-3.42452">
        <ele>151.60000610352</ele>
        <time>2020-10-18T13:42:33.000Z</time>
      </trkpt>
      <trkpt lat="48.24564" lon="-3.42448">
        <ele>151.39999389648</ele>
        <time>2020-10-18T13:42:34.000Z</time>
      </trkpt>
      <trkpt lat="48.2456" lon="-3.42445">
        <ele>151.19999694824</ele>
        <time>2020-10-18T13:42:35.000Z</time>
      </trkpt>
      <trkpt lat="48.24555" lon="-3.42443">
        <ele>151.19999694824</ele>
        <time>2020-10-18T13:42:36.000Z</time>
      </trkpt>
      <trkpt lat="48.24551" lon="-3.42441">
        <ele>151</ele>
        <time>2020-10-18T13:42:37.000Z</time>
      </trkpt>
      <trkpt lat="48.24546" lon="-3.42439">
        <ele>150.80000305176</ele>
        <time>2020-10-18T13:42:38.000Z</time>
      </trkpt>
      <trkpt lat="48.24541" lon="-3.42438">
        <ele>150.80000305176</ele>
        <time>2020-10-18T13:42:39.000Z</time>
      </trkpt>
      <trkpt lat="48.24536" lon="-3.42437">
        <ele>150.60000610352</ele>
        <time>2020-10-18T13:42:40.000Z</time>
      </trkpt>
      <trkpt lat="48.24532" lon="-3.42436">
        <ele>150.60000610352</ele>
        <time>2020-10-18T13:42:41.000Z</time>
      </trkpt>
      <trkpt lat="48.24527" lon="-3.42435">
        <ele>150.39999389648</ele>
        <time>2020-10-18T13:42:42.000Z</time>
      </trkpt>
      <trkpt lat="48.24523" lon="-3.42435">
        <ele>150.19999694824</ele>
        <time>2020-10-18T13:42:43.000Z</time>
      </trkpt>
      <trkpt lat="48.24519" lon="-3.42435">
        <ele>150.19999694824</ele>
        <time>2020-10-18T13:42:44.000Z</time>
      </trkpt>
      <trkpt lat="48.24515" lon="-3.42435">
        <ele>150</ele>
        <time>2020-10-18T13:42:45.000Z</time>
      </trkpt>
      <trkpt lat="48.2451" lon="-3.42435">
        <ele>150</ele>
        <time>2020-10-18T13:42:46.000Z</time>
      </trkpt>
      <trkpt lat="48.24506" lon="-3.42436">
        <ele>150.19999694824</ele>
        <time>2020-10-18T13:42:47.000Z</time>
      </trkpt>
      <trkpt lat="48.24503" lon="-3.42437">
        <ele>150.19999694824</ele>
        <time>2020-10-18T13:42:48.000Z</time>
      </trkpt>
      <trkpt lat="48.24499" lon="-3.42438">
        <ele>150.39999389648</ele>
        <time>2020-10-18T13:42:49.000Z</time>
      </trkpt>
      <trkpt lat="48.24495" lon="-3.42438">
        <ele>150.39999389648</ele>
        <time>2020-10-18T13:42:50.000Z</time>
      </trkpt>
      <trkpt lat="48.24491" lon="-3.42439">
        <ele>150.60000610352</ele>
        <time>2020-10-18T13:42:51.000Z</time>
      </trkpt>
      <trkpt lat="48.24487" lon="-3.42439">
        <ele>150.60000610352</ele>
        <time>2020-10-18T13:42:52.000Z</time>
      </trkpt>
      <trkpt lat="48.24483" lon="-3.4244">
        <ele>150.80000305176</ele>
        <time>2020-10-18T13:42:53.000Z</time>
      </trkpt>
      <trkpt lat="48.24479" lon="-3.42441">
        <ele>150.80000305176</ele>
        <time>2020-10-18T13:42:54.000Z</time>
      </trkpt>
      <trkpt lat="48.24476" lon="-3.42441">
        <ele>150.80000305176</ele>
        <time>2020-10-18T13:42:55.000Z</time>
      </trkpt>
      <trkpt lat="48.24472" lon="-3.42442">
        <ele>151</ele>
        <time>2020-10-18T13:42:56.000Z</time>
      </trkpt>
      <trkpt lat="48.24468" lon="-3.42442">
        <ele>151</ele>
        <time>2020-10-18T13:42:57.000Z</time>
      </trkpt>
      <trkpt lat="48.24464" lon="-3.42443">
        <ele>151.19999694824</ele>
        <time>2020-10-18T13:42:58.000Z</time>
      </trkpt>
      <trkpt lat="48.2446" lon="-3.42444">
        <ele>151.19999694824</ele>
        <time>2020-10-18T13:42:59.000Z</time>
      </trkpt>
      <trkpt lat="48.24457" lon="-3.42445">
        <ele>151.39999389648</ele>
        <time>2020-10-18T13:43:00.000Z</time>
      </trkpt>
      <trkpt lat="48.24453" lon="-3.42446">
        <ele>151.39999389648</ele>
        <time>2020-10-18T13:43:01.000Z</time>
      </trkpt>
      <trkpt lat="48.2445" lon="-3.42447">
        <ele>151.60000610352</ele>
        <time>2020-10-18T13:43:02.000Z</time>
      </trkpt>
      <trkpt lat="48.24446" lon="-3.42448">
        <ele>151.60000610352</ele>
        <time>2020-10-18T13:43:03.000Z</time>
      </trkpt>
      <trkpt lat="48.24442" lon="-3.42449">
        <ele>151.60000610352</ele>
        <time>2020-10-18T13:43:04.000Z</time>
      </trkpt>
      <trkpt lat="48.24438" lon="-3.42449">
        <ele>151.80000305176</ele>
        <time>2020-10-18T13:43:05.000Z</time>
      </trkpt>
      <trkpt lat="48.24434" lon="-3.42449">
        <ele>151.80000305176</ele>
        <time>2020-10-18T13:43:06.000Z</time>
      </trkpt>
      <trkpt lat="48.24431" lon="-3.4245">
        <ele>152</ele>
        <time>2020-10-18T13:43:07.000Z</time>
      </trkpt>
      <trkpt lat="48.24427" lon="-3.42451">
        <ele>152</ele>
        <time>2020-10-18T13:43:08.000Z</time>
      </trkpt>
      <trkpt lat="48.24422" lon="-3.42452">
        <ele>152.19999694824</ele>
        <time>2020-10-18T13:43:09.000Z</time>
      </trkpt>
      <trkpt lat="48.24418" lon="-3.42452">
        <ele>152.19999694824</ele>
        <time>2020-10-18T13:43:10.000Z</time>
      </trkpt>
      <trkpt lat="48.24413" lon="-3.42453">
        <ele>152.39999389648</ele>
        <time>2020-10-18T13:43:11.000Z</time>
      </trkpt>
      <trkpt lat="48.24409" lon="-3.42454">
        <ele>152.39999389648</ele>
        <time>2020-10-18T13:43:12.000Z</time>
      </trkpt>
      <trkpt lat="48.24405" lon="-3.42455">
        <ele>152.60000610352</ele>
        <time>2020-10-18T13:43:13.000Z</time>
      </trkpt>
      <trkpt lat="48.244" lon="-3.42455">
        <ele>152.60000610352</ele>
        <time>2020-10-18T13:43:14.000Z</time>
      </trkpt>
      <trkpt lat="48.24396" lon="-3.42456">
        <ele>152.60000610352</ele>
        <time>2020-10-18T13:43:15.000Z</time>
      </trkpt>
      <trkpt lat="48.24391" lon="-3.42457">
        <ele>152.80000305176</ele>
        <time>2020-10-18T13:43:16.000Z</time>
      </trkpt>
      <trkpt lat="48.24387" lon="-3.42458">
        <ele>152.80000305176</ele>
        <time>2020-10-18T13:43:17.000Z</time>
      </trkpt>
      <trkpt lat="48.24382" lon="-3.42459">
        <ele>152.80000305176</ele>
        <time>2020-10-18T13:43:18.000Z</time>
      </trkpt>
      <trkpt lat="48.24377" lon="-3.4246">
        <ele>153</ele>
        <time>2020-10-18T13:43:19.000Z</time>
      </trkpt>
      <trkpt lat="48.24372" lon="-3.42461">
        <ele>153</ele>
        <time>2020-10-18T13:43:20.000Z</time>
      </trkpt>
      <trkpt lat="48.24368" lon="-3.42462">
        <ele>153</ele>
        <time>2020-10-18T13:43:21.000Z</time>
      </trkpt>
      <trkpt lat="48.24363" lon="-3.42462">
        <ele>153.19999694824</ele>
        <time>2020-10-18T13:43:22.000Z</time>
      </trkpt>
      <trkpt lat="48.24358" lon="-3.42463">
        <ele>153.19999694824</ele>
        <time>2020-10-18T13:43:23.000Z</time>
      </trkpt>
      <trkpt lat="48.24354" lon="-3.42464">
        <ele>153.19999694824</ele>
        <time>2020-10-18T13:43:24.000Z</time>
      </trkpt>
      <trkpt lat="48.24349" lon="-3.42464">
        <ele>153.39999389648</ele>
        <time>2020-10-18T13:43:25.000Z</time>
      </trkpt>
      <trkpt lat="48.24345" lon="-3.42465">
        <ele>153.39999389648</ele>
        <time>2020-10-18T13:43:26.000Z</time>
      </trkpt>
      <trkpt lat="48.24341" lon="-3.42466">
        <ele>153.39999389648</ele>
        <time>2020-10-18T13:43:27.000Z</time>
      </trkpt>
      <trkpt lat="48.24337" lon="-3.42467">
        <ele>153.60000610352</ele>
        <time>2020-10-18T13:43:28.000Z</time>
      </trkpt>
      <trkpt lat="48.24333" lon="-3.42468">
        <ele>153.60000610352</ele>
        <time>2020-10-18T13:43:29.000Z</time>
      </trkpt>
      <trkpt lat="48.24329" lon="-3.42469">
        <ele>153.60000610352</ele>
        <time>2020-10-18T13:43:30.000Z</time>
      </trkpt>
      <trkpt lat="48.24325" lon="-3.42469">
        <ele>153.60000610352</ele>
        <time>2020-10-18T13:43:31.000Z</time>
      </trkpt>
      <trkpt lat="48.24322" lon="-3.42469">
        <ele>153.80000305176</ele>
        <time>2020-10-18T13:43:32.000Z</time>
      </trkpt>
      <trkpt lat="48.24319" lon="-3.4247">
        <ele>153.80000305176</ele>
        <time>2020-10-18T13:43:33.000Z</time>
      </trkpt>
      <trkpt lat="48.24315" lon="-3.4247">
        <ele>153.80000305176</ele>
        <time>2020-10-18T13:43:34.000Z</time>
      </trkpt>
      <trkpt lat="48.24312" lon="-3.42471">
        <ele>153.80000305176</ele>
        <time>2020-10-18T13:43:35.000Z</time>
      </trkpt>
      <trkpt lat="48.24308" lon="-3.42472">
        <ele>154</ele>
        <time>2020-10-18T13:43:36.000Z</time>
      </trkpt>
      <trkpt lat="48.24305" lon="-3.42472">
        <ele>154</ele>
        <time>2020-10-18T13:43:37.000Z</time>
      </trkpt>
      <trkpt lat="48.24301" lon="-3.42473">
        <ele>154</ele>
        <time>2020-10-18T13:43:38.000Z</time>
      </trkpt>
      <trkpt lat="48.24298" lon="-3.42473">
        <ele>154.19999694824</ele>
        <time>2020-10-18T13:43:39.000Z</time>
      </trkpt>
      <trkpt lat="48.24294" lon="-3.42473">
        <ele>154.19999694824</ele>
        <time>2020-10-18T13:43:40.000Z</time>
      </trkpt>
      <trkpt lat="48.24291" lon="-3.42474">
        <ele>154.39999389648</ele>
        <time>2020-10-18T13:43:41.000Z</time>
      </trkpt>
      <trkpt lat="48.24287" lon="-3.42474">
        <ele>154.39999389648</ele>
        <time>2020-10-18T13:43:42.000Z</time>
      </trkpt>
      <trkpt lat="48.24283" lon="-3.42475">
        <ele>154.60000610352</ele>
        <time>2020-10-18T13:43:43.000Z</time>
      </trkpt>
      <trkpt lat="48.24279" lon="-3.42475">
        <ele>154.60000610352</ele>
        <time>2020-10-18T13:43:44.000Z</time>
      </trkpt>
      <trkpt lat="48.24275" lon="-3.42476">
        <ele>154.60000610352</ele>
        <time>2020-10-18T13:43:45.000Z</time>
      </trkpt>
      <trkpt lat="48.24271" lon="-3.42477">
        <ele>154.80000305176</ele>
        <time>2020-10-18T13:43:46.000Z</time>
      </trkpt>
      <trkpt lat="48.24267" lon="-3.42478">
        <ele>154.80000305176</ele>
        <time>2020-10-18T13:43:47.000Z</time>
      </trkpt>
      <trkpt lat="48.24263" lon="-3.42479">
        <ele>155</ele>
        <time>2020-10-18T13:43:48.000Z</time>
      </trkpt>
      <trkpt lat="48.24258" lon="-3.42479">
        <ele>155</ele>
        <time>2020-10-18T13:43:49.000Z</time>
      </trkpt>
      <trkpt lat="48.24254" lon="-3.4248">
        <ele>155</ele>
        <time>2020-10-18T13:43:50.000Z</time>
      </trkpt>
      <trkpt lat="48.24249" lon="-3.42481">
        <ele>155</ele>
        <time>2020-10-18T13:43:51.000Z</time>
      </trkpt>
      <trkpt lat="48.24245" lon="-3.42482">
        <ele>155</ele>
        <time>2020-10-18T13:43:52.000Z</time>
      </trkpt>
      <trkpt lat="48.24241" lon="-3.42483">
        <ele>155</ele>
        <time>2020-10-18T13:43:53.000Z</time>
      </trkpt>
      <trkpt lat="48.24236" lon="-3.42483">
        <ele>155</ele>
        <time>2020-10-18T13:43:54.000Z</time>
      </trkpt>
      <trkpt lat="48.24232" lon="-3.42484">
        <ele>155</ele>
        <time>2020-10-18T13:43:55.000Z</time>
      </trkpt>
      <trkpt lat="48.24227" lon="-3.42485">
        <ele>155</ele>
        <time>2020-10-18T13:43:56.000Z</time>
      </trkpt>
      <trkpt lat="48.24222" lon="-3.42485">
        <ele>155</ele>
        <time>2020-10-18T13:43:57.000Z</time>
      </trkpt>
      <trkpt lat="48.24217" lon="-3.42486">
        <ele>155</ele>
        <time>2020-10-18T13:43:58.000Z</time>
      </trkpt>
      <trkpt lat="48.24212" lon="-3.42486">
        <ele>155</ele>
        <time>2020-10-18T13:43:59.000Z</time>
      </trkpt>
      <trkpt lat="48.24207" lon="-3.42487">
        <ele>155</ele>
        <time>2020-10-18T13:44:00.000Z</time>
      </trkpt>
      <trkpt lat="48.24203" lon="-3.42487">
        <ele>155</ele>
        <time>2020-10-18T13:44:01.000Z</time>
      </trkpt>
      <trkpt lat="48.24199" lon="-3.42487">
        <ele>154.80000305176</ele>
        <time>2020-10-18T13:44:02.000Z</time>
      </trkpt>
      <trkpt lat="48.24194" lon="-3.42486">
        <ele>154.80000305176</ele>
        <time>2020-10-18T13:44:03.000Z</time>
      </trkpt>
      <trkpt lat="48.2419" lon="-3.42486">
        <ele>154.80000305176</ele>
        <time>2020-10-18T13:44:04.000Z</time>
      </trkpt>
      <trkpt lat="48.24185" lon="-3.42484">
        <ele>154.60000610352</ele>
        <time>2020-10-18T13:44:05.000Z</time>
      </trkpt>
      <trkpt lat="48.24181" lon="-3.42482">
        <ele>154.60000610352</ele>
        <time>2020-10-18T13:44:06.000Z</time>
      </trkpt>
      <trkpt lat="48.24176" lon="-3.4248">
        <ele>154.60000610352</ele>
        <time>2020-10-18T13:44:07.000Z</time>
      </trkpt>
      <trkpt lat="48.24172" lon="-3.42477">
        <ele>154.80000305176</ele>
        <time>2020-10-18T13:44:08.000Z</time>
      </trkpt>
      <trkpt lat="48.24168" lon="-3.42474">
        <ele>155</ele>
        <time>2020-10-18T13:44:09.000Z</time>
      </trkpt>
      <trkpt lat="48.24163" lon="-3.42471">
        <ele>155</ele>
        <time>2020-10-18T13:44:10.000Z</time>
      </trkpt>
      <trkpt lat="48.24159" lon="-3.42468">
        <ele>155.19999694824</ele>
        <time>2020-10-18T13:44:11.000Z</time>
      </trkpt>
      <trkpt lat="48.24154" lon="-3.42465">
        <ele>155.19999694824</ele>
        <time>2020-10-18T13:44:12.000Z</time>
      </trkpt>
      <trkpt lat="48.2415" lon="-3.42462">
        <ele>155.39999389648</ele>
        <time>2020-10-18T13:44:13.000Z</time>
      </trkpt>
      <trkpt lat="48.24146" lon="-3.42459">
        <ele>155.60000610352</ele>
        <time>2020-10-18T13:44:14.000Z</time>
      </trkpt>
      <trkpt lat="48.24142" lon="-3.42456">
        <ele>155.60000610352</ele>
        <time>2020-10-18T13:44:15.000Z</time>
      </trkpt>
      <trkpt lat="48.24138" lon="-3.42454">
        <ele>155.80000305176</ele>
        <time>2020-10-18T13:44:16.000Z</time>
      </trkpt>
      <trkpt lat="48.24134" lon="-3.42452">
        <ele>155.80000305176</ele>
        <time>2020-10-18T13:44:17.000Z</time>
      </trkpt>
      <trkpt lat="48.24131" lon="-3.42449">
        <ele>156</ele>
        <time>2020-10-18T13:44:18.000Z</time>
      </trkpt>
      <trkpt lat="48.24127" lon="-3.42447">
        <ele>156</ele>
        <time>2020-10-18T13:44:19.000Z</time>
      </trkpt>
      <trkpt lat="48.24124" lon="-3.42445">
        <ele>156.19999694824</ele>
        <time>2020-10-18T13:44:20.000Z</time>
      </trkpt>
      <trkpt lat="48.2412" lon="-3.42443">
        <ele>156.19999694824</ele>
        <time>2020-10-18T13:44:21.000Z</time>
      </trkpt>
      <trkpt lat="48.24117" lon="-3.4244">
        <ele>156.39999389648</ele>
        <time>2020-10-18T13:44:22.000Z</time>
      </trkpt>
      <trkpt lat="48.24114" lon="-3.42438">
        <ele>156.39999389648</ele>
        <time>2020-10-18T13:44:23.000Z</time>
      </trkpt>
      <trkpt lat="48.2411" lon="-3.42435">
        <ele>156.60000610352</ele>
        <time>2020-10-18T13:44:24.000Z</time>
      </trkpt>
      <trkpt lat="48.24107" lon="-3.42433">
        <ele>156.60000610352</ele>
        <time>2020-10-18T13:44:25.000Z</time>
      </trkpt>
      <trkpt lat="48.24103" lon="-3.42431">
        <ele>156.80000305176</ele>
        <time>2020-10-18T13:44:26.000Z</time>
      </trkpt>
      <trkpt lat="48.241" lon="-3.4243">
        <ele>157</ele>
        <time>2020-10-18T13:44:27.000Z</time>
      </trkpt>
      <trkpt lat="48.24097" lon="-3.42428">
        <ele>157.19999694824</ele>
        <time>2020-10-18T13:44:28.000Z</time>
      </trkpt>
      <trkpt lat="48.24093" lon="-3.42426">
        <ele>157.19999694824</ele>
        <time>2020-10-18T13:44:29.000Z</time>
      </trkpt>
      <trkpt lat="48.2409" lon="-3.42424">
        <ele>157.39999389648</ele>
        <time>2020-10-18T13:44:30.000Z</time>
      </trkpt>
      <trkpt lat="48.24086" lon="-3.42422">
        <ele>157.39999389648</ele>
        <time>2020-10-18T13:44:31.000Z</time>
      </trkpt>
      <trkpt lat="48.24083" lon="-3.4242">
        <ele>157.60000610352</ele>
        <time>2020-10-18T13:44:32.000Z</time>
      </trkpt>
      <trkpt lat="48.24079" lon="-3.42418">
        <ele>157.80000305176</ele>
        <time>2020-10-18T13:44:33.000Z</time>
      </trkpt>
      <trkpt lat="48.24075" lon="-3.42415">
        <ele>157.80000305176</ele>
        <time>2020-10-18T13:44:34.000Z</time>
      </trkpt>
      <trkpt lat="48.24072" lon="-3.42412">
        <ele>158</ele>
        <time>2020-10-18T13:44:35.000Z</time>
      </trkpt>
      <trkpt lat="48.24068" lon="-3.4241">
        <ele>158.19999694824</ele>
        <time>2020-10-18T13:44:36.000Z</time>
      </trkpt>
      <trkpt lat="48.24064" lon="-3.42407">
        <ele>158.39999389648</ele>
        <time>2020-10-18T13:44:37.000Z</time>
      </trkpt>
      <trkpt lat="48.2406" lon="-3.42405">
        <ele>158.60000610352</ele>
        <time>2020-10-18T13:44:38.000Z</time>
      </trkpt>
      <trkpt lat="48.24055" lon="-3.42403">
        <ele>158.60000610352</ele>
        <time>2020-10-18T13:44:39.000Z</time>
      </trkpt>
      <trkpt lat="48.24051" lon="-3.42401">
        <ele>158.80000305176</ele>
        <time>2020-10-18T13:44:40.000Z</time>
      </trkpt>
      <trkpt lat="48.24047" lon="-3.42398">
        <ele>159</ele>
        <time>2020-10-18T13:44:41.000Z</time>
      </trkpt>
      <trkpt lat="48.24043" lon="-3.42396">
        <ele>159</ele>
        <time>2020-10-18T13:44:42.000Z</time>
      </trkpt>
      <trkpt lat="48.24039" lon="-3.42394">
        <ele>158.80000305176</ele>
        <time>2020-10-18T13:44:43.000Z</time>
      </trkpt>
      <trkpt lat="48.24034" lon="-3.42392">
        <ele>158.80000305176</ele>
        <time>2020-10-18T13:44:44.000Z</time>
      </trkpt>
      <trkpt lat="48.2403" lon="-3.42389">
        <ele>158.60000610352</ele>
        <time>2020-10-18T13:44:45.000Z</time>
      </trkpt>
      <trkpt lat="48.24025" lon="-3.42386">
        <ele>158.60000610352</ele>
        <time>2020-10-18T13:44:46.000Z</time>
      </trkpt>
      <trkpt lat="48.2402" lon="-3.42383">
        <ele>158.60000610352</ele>
        <time>2020-10-18T13:44:47.000Z</time>
      </trkpt>
      <trkpt lat="48.24016" lon="-3.4238">
        <ele>158.39999389648</ele>
        <time>2020-10-18T13:44:48.000Z</time>
      </trkpt>
      <trkpt lat="48.24012" lon="-3.42377">
        <ele>158.39999389648</ele>
        <time>2020-10-18T13:44:49.000Z</time>
      </trkpt>
      <trkpt lat="48.24007" lon="-3.42374">
        <ele>158.19999694824</ele>
        <time>2020-10-18T13:44:50.000Z</time>
      </trkpt>
      <trkpt lat="48.24003" lon="-3.42371">
        <ele>158.19999694824</ele>
        <time>2020-10-18T13:44:51.000Z</time>
      </trkpt>
      <trkpt lat="48.23998" lon="-3.42368">
        <ele>158</ele>
        <time>2020-10-18T13:44:52.000Z</time>
      </trkpt>
      <trkpt lat="48.23993" lon="-3.42365">
        <ele>158</ele>
        <time>2020-10-18T13:44:53.000Z</time>
      </trkpt>
      <trkpt lat="48.23989" lon="-3.42362">
        <ele>158</ele>
        <time>2020-10-18T13:44:54.000Z</time>
      </trkpt>
      <trkpt lat="48.23985" lon="-3.42359">
        <ele>158</ele>
        <time>2020-10-18T13:44:55.000Z</time>
      </trkpt>
      <trkpt lat="48.2398" lon="-3.42356">
        <ele>158</ele>
        <time>2020-10-18T13:44:56.000Z</time>
      </trkpt>
      <trkpt lat="48.23976" lon="-3.42353">
        <ele>158</ele>
        <time>2020-10-18T13:44:57.000Z</time>
      </trkpt>
      <trkpt lat="48.23972" lon="-3.4235">
        <ele>158</ele>
        <time>2020-10-18T13:44:58.000Z</time>
      </trkpt>
      <trkpt lat="48.23967" lon="-3.42347">
        <ele>158</ele>
        <time>2020-10-18T13:44:59.000Z</time>
      </trkpt>
      <trkpt lat="48.23962" lon="-3.42344">
        <ele>158.19999694824</ele>
        <time>2020-10-18T13:45:00.000Z</time>
      </trkpt>
      <trkpt lat="48.23958" lon="-3.42342">
        <ele>158.39999389648</ele>
        <time>2020-10-18T13:45:01.000Z</time>
      </trkpt>
      <trkpt lat="48.23948" lon="-3.42337">
        <ele>158.60000610352</ele>
        <time>2020-10-18T13:45:02.000Z</time>
      </trkpt>
      <trkpt lat="48.23948" lon="-3.42337">
        <ele>158.60000610352</ele>
        <time>2020-10-18T13:45:03.000Z</time>
      </trkpt>
      <trkpt lat="48.23944" lon="-3.42335">
        <ele>158.60000610352</ele>
        <time>2020-10-18T13:45:04.000Z</time>
      </trkpt>
      <trkpt lat="48.2394" lon="-3.42332">
        <ele>158.60000610352</ele>
        <time>2020-10-18T13:45:05.000Z</time>
      </trkpt>
      <trkpt lat="48.23935" lon="-3.4233">
        <ele>158.60000610352</ele>
        <time>2020-10-18T13:45:06.000Z</time>
      </trkpt>
      <trkpt lat="48.23931" lon="-3.42327">
        <ele>158.60000610352</ele>
        <time>2020-10-18T13:45:07.000Z</time>
      </trkpt>
      <trkpt lat="48.23927" lon="-3.42324">
        <ele>158.60000610352</ele>
        <time>2020-10-18T13:45:08.000Z</time>
      </trkpt>
      <trkpt lat="48.23923" lon="-3.42321">
        <ele>158.80000305176</ele>
        <time>2020-10-18T13:45:09.000Z</time>
      </trkpt>
      <trkpt lat="48.23919" lon="-3.42318">
        <ele>159</ele>
        <time>2020-10-18T13:45:10.000Z</time>
      </trkpt>
      <trkpt lat="48.23915" lon="-3.42316">
        <ele>159.19999694824</ele>
        <time>2020-10-18T13:45:11.000Z</time>
      </trkpt>
      <trkpt lat="48.23911" lon="-3.42313">
        <ele>159.39999389648</ele>
        <time>2020-10-18T13:45:12.000Z</time>
      </trkpt>
      <trkpt lat="48.23908" lon="-3.42311">
        <ele>159.60000610352</ele>
        <time>2020-10-18T13:45:13.000Z</time>
      </trkpt>
      <trkpt lat="48.23904" lon="-3.42309">
        <ele>159.80000305176</ele>
        <time>2020-10-18T13:45:14.000Z</time>
      </trkpt>
      <trkpt lat="48.23901" lon="-3.42307">
        <ele>160</ele>
        <time>2020-10-18T13:45:15.000Z</time>
      </trkpt>
      <trkpt lat="48.23898" lon="-3.42305">
        <ele>160.19999694824</ele>
        <time>2020-10-18T13:45:16.000Z</time>
      </trkpt>
      <trkpt lat="48.23894" lon="-3.42303">
        <ele>160.39999389648</ele>
        <time>2020-10-18T13:45:17.000Z</time>
      </trkpt>
      <trkpt lat="48.23891" lon="-3.42301">
        <ele>160.39999389648</ele>
        <time>2020-10-18T13:45:18.000Z</time>
      </trkpt>
      <trkpt lat="48.23888" lon="-3.42299">
        <ele>160.39999389648</ele>
        <time>2020-10-18T13:45:19.000Z</time>
      </trkpt>
      <trkpt lat="48.23885" lon="-3.42297">
        <ele>160.60000610352</ele>
        <time>2020-10-18T13:45:20.000Z</time>
      </trkpt>
      <trkpt lat="48.23881" lon="-3.42295">
        <ele>160.60000610352</ele>
        <time>2020-10-18T13:45:21.000Z</time>
      </trkpt>
      <trkpt lat="48.23877" lon="-3.42293">
        <ele>160.60000610352</ele>
        <time>2020-10-18T13:45:22.000Z</time>
      </trkpt>
      <trkpt lat="48.23874" lon="-3.4229">
        <ele>160.60000610352</ele>
        <time>2020-10-18T13:45:23.000Z</time>
      </trkpt>
      <trkpt lat="48.2387" lon="-3.42287">
        <ele>160.80000305176</ele>
        <time>2020-10-18T13:45:24.000Z</time>
      </trkpt>
      <trkpt lat="48.23866" lon="-3.42285">
        <ele>160.80000305176</ele>
        <time>2020-10-18T13:45:25.000Z</time>
      </trkpt>
      <trkpt lat="48.23862" lon="-3.42282">
        <ele>160.80000305176</ele>
        <time>2020-10-18T13:45:26.000Z</time>
      </trkpt>
      <trkpt lat="48.23858" lon="-3.4228">
        <ele>160.80000305176</ele>
        <time>2020-10-18T13:45:27.000Z</time>
      </trkpt>
      <trkpt lat="48.23853" lon="-3.42277">
        <ele>161</ele>
        <time>2020-10-18T13:45:28.000Z</time>
      </trkpt>
      <trkpt lat="48.23849" lon="-3.42274">
        <ele>161</ele>
        <time>2020-10-18T13:45:29.000Z</time>
      </trkpt>
      <trkpt lat="48.23845" lon="-3.42272">
        <ele>161</ele>
        <time>2020-10-18T13:45:30.000Z</time>
      </trkpt>
      <trkpt lat="48.23841" lon="-3.42269">
        <ele>161</ele>
        <time>2020-10-18T13:45:31.000Z</time>
      </trkpt>
      <trkpt lat="48.23836" lon="-3.42266">
        <ele>161.39999389648</ele>
        <time>2020-10-18T13:45:32.000Z</time>
      </trkpt>
      <trkpt lat="48.23832" lon="-3.42263">
        <ele>161.60000610352</ele>
        <time>2020-10-18T13:45:33.000Z</time>
      </trkpt>
      <trkpt lat="48.23828" lon="-3.4226">
        <ele>161.80000305176</ele>
        <time>2020-10-18T13:45:34.000Z</time>
      </trkpt>
      <trkpt lat="48.23823" lon="-3.42257">
        <ele>162</ele>
        <time>2020-10-18T13:45:35.000Z</time>
      </trkpt>
      <trkpt lat="48.23819" lon="-3.42254">
        <ele>162.39999389648</ele>
        <time>2020-10-18T13:45:36.000Z</time>
      </trkpt>
      <trkpt lat="48.23815" lon="-3.4225">
        <ele>162.60000610352</ele>
        <time>2020-10-18T13:45:37.000Z</time>
      </trkpt>
      <trkpt lat="48.23811" lon="-3.42246">
        <ele>163</ele>
        <time>2020-10-18T13:45:38.000Z</time>
      </trkpt>
      <trkpt lat="48.23807" lon="-3.42242">
        <ele>163.19999694824</ele>
        <time>2020-10-18T13:45:39.000Z</time>
      </trkpt>
      <trkpt lat="48.23804" lon="-3.42237">
        <ele>163.60000610352</ele>
        <time>2020-10-18T13:45:40.000Z</time>
      </trkpt>
      <trkpt lat="48.238" lon="-3.42232">
        <ele>163.80000305176</ele>
        <time>2020-10-18T13:45:41.000Z</time>
      </trkpt>
      <trkpt lat="48.23797" lon="-3.42227">
        <ele>164</ele>
        <time>2020-10-18T13:45:42.000Z</time>
      </trkpt>
      <trkpt lat="48.23795" lon="-3.42221">
        <ele>164</ele>
        <time>2020-10-18T13:45:43.000Z</time>
      </trkpt>
      <trkpt lat="48.23792" lon="-3.42216">
        <ele>164</ele>
        <time>2020-10-18T13:45:44.000Z</time>
      </trkpt>
      <trkpt lat="48.2379" lon="-3.4221">
        <ele>164</ele>
        <time>2020-10-18T13:45:45.000Z</time>
      </trkpt>
      <trkpt lat="48.23788" lon="-3.42205">
        <ele>164</ele>
        <time>2020-10-18T13:45:46.000Z</time>
      </trkpt>
      <trkpt lat="48.23786" lon="-3.42199">
        <ele>164</ele>
        <time>2020-10-18T13:45:47.000Z</time>
      </trkpt>
      <trkpt lat="48.23784" lon="-3.42194">
        <ele>164</ele>
        <time>2020-10-18T13:45:48.000Z</time>
      </trkpt>
      <trkpt lat="48.23783" lon="-3.42188">
        <ele>164</ele>
        <time>2020-10-18T13:45:49.000Z</time>
      </trkpt>
      <trkpt lat="48.23782" lon="-3.42182">
        <ele>164</ele>
        <time>2020-10-18T13:45:50.000Z</time>
      </trkpt>
      <trkpt lat="48.23782" lon="-3.42176">
        <ele>164.19999694824</ele>
        <time>2020-10-18T13:45:51.000Z</time>
      </trkpt>
      <trkpt lat="48.23781" lon="-3.42171">
        <ele>164.19999694824</ele>
        <time>2020-10-18T13:45:52.000Z</time>
      </trkpt>
      <trkpt lat="48.2378" lon="-3.42165">
        <ele>164.39999389648</ele>
        <time>2020-10-18T13:45:53.000Z</time>
      </trkpt>
      <trkpt lat="48.23779" lon="-3.4216">
        <ele>164.39999389648</ele>
        <time>2020-10-18T13:45:54.000Z</time>
      </trkpt>
      <trkpt lat="48.23778" lon="-3.42155">
        <ele>164.60000610352</ele>
        <time>2020-10-18T13:45:55.000Z</time>
      </trkpt>
      <trkpt lat="48.23778" lon="-3.4215">
        <ele>164.60000610352</ele>
        <time>2020-10-18T13:45:56.000Z</time>
      </trkpt>
      <trkpt lat="48.23777" lon="-3.42146">
        <ele>164.60000610352</ele>
        <time>2020-10-18T13:45:57.000Z</time>
      </trkpt>
      <trkpt lat="48.23776" lon="-3.42141">
        <ele>164.60000610352</ele>
        <time>2020-10-18T13:45:58.000Z</time>
      </trkpt>
      <trkpt lat="48.23776" lon="-3.42136">
        <ele>164.80000305176</ele>
        <time>2020-10-18T13:45:59.000Z</time>
      </trkpt>
      <trkpt lat="48.23775" lon="-3.42132">
        <ele>164.80000305176</ele>
        <time>2020-10-18T13:46:00.000Z</time>
      </trkpt>
      <trkpt lat="48.23774" lon="-3.42127">
        <ele>164.80000305176</ele>
        <time>2020-10-18T13:46:01.000Z</time>
      </trkpt>
      <trkpt lat="48.23772" lon="-3.42122">
        <ele>164.80000305176</ele>
        <time>2020-10-18T13:46:02.000Z</time>
      </trkpt>
      <trkpt lat="48.2377" lon="-3.4211">
        <ele>165</ele>
        <time>2020-10-18T13:46:03.000Z</time>
      </trkpt>
      <trkpt lat="48.2377" lon="-3.4211">
        <ele>165</ele>
        <time>2020-10-18T13:46:04.000Z</time>
      </trkpt>
      <trkpt lat="48.2377" lon="-3.42104">
        <ele>165</ele>
        <time>2020-10-18T13:46:05.000Z</time>
      </trkpt>
      <trkpt lat="48.23769" lon="-3.42098">
        <ele>165</ele>
        <time>2020-10-18T13:46:06.000Z</time>
      </trkpt>
      <trkpt lat="48.23768" lon="-3.42091">
        <ele>165</ele>
        <time>2020-10-18T13:46:07.000Z</time>
      </trkpt>
      <trkpt lat="48.23767" lon="-3.42085">
        <ele>165.19999694824</ele>
        <time>2020-10-18T13:46:08.000Z</time>
      </trkpt>
      <trkpt lat="48.23765" lon="-3.42078">
        <ele>165.19999694824</ele>
        <time>2020-10-18T13:46:09.000Z</time>
      </trkpt>
      <trkpt lat="48.23764" lon="-3.42072">
        <ele>165.19999694824</ele>
        <time>2020-10-18T13:46:10.000Z</time>
      </trkpt>
      <trkpt lat="48.23763" lon="-3.42066">
        <ele>165.39999389648</ele>
        <time>2020-10-18T13:46:11.000Z</time>
      </trkpt>
      <trkpt lat="48.23762" lon="-3.42059">
        <ele>165.39999389648</ele>
        <time>2020-10-18T13:46:12.000Z</time>
      </trkpt>
      <trkpt lat="48.23761" lon="-3.42053">
        <ele>165.60000610352</ele>
        <time>2020-10-18T13:46:13.000Z</time>
      </trkpt>
      <trkpt lat="48.2376" lon="-3.42046">
        <ele>165.60000610352</ele>
        <time>2020-10-18T13:46:14.000Z</time>
      </trkpt>
      <trkpt lat="48.2376" lon="-3.4204">
        <ele>165.60000610352</ele>
        <time>2020-10-18T13:46:15.000Z</time>
      </trkpt>
      <trkpt lat="48.23759" lon="-3.42035">
        <ele>165.80000305176</ele>
        <time>2020-10-18T13:46:16.000Z</time>
      </trkpt>
      <trkpt lat="48.23758" lon="-3.42029">
        <ele>165.80000305176</ele>
        <time>2020-10-18T13:46:17.000Z</time>
      </trkpt>
      <trkpt lat="48.23758" lon="-3.42023">
        <ele>166</ele>
        <time>2020-10-18T13:46:18.000Z</time>
      </trkpt>
      <trkpt lat="48.23757" lon="-3.42017">
        <ele>165.80000305176</ele>
        <time>2020-10-18T13:46:19.000Z</time>
      </trkpt>
      <trkpt lat="48.23756" lon="-3.42011">
        <ele>165.80000305176</ele>
        <time>2020-10-18T13:46:20.000Z</time>
      </trkpt>
      <trkpt lat="48.23755" lon="-3.42005">
        <ele>166</ele>
        <time>2020-10-18T13:46:21.000Z</time>
      </trkpt>
      <trkpt lat="48.23754" lon="-3.41999">
        <ele>166</ele>
        <time>2020-10-18T13:46:22.000Z</time>
      </trkpt>
      <trkpt lat="48.23753" lon="-3.41993">
        <ele>166</ele>
        <time>2020-10-18T13:46:23.000Z</time>
      </trkpt>
      <trkpt lat="48.23752" lon="-3.41988">
        <ele>166</ele>
        <time>2020-10-18T13:46:24.000Z</time>
      </trkpt>
      <trkpt lat="48.23751" lon="-3.41983">
        <ele>166.19999694824</ele>
        <time>2020-10-18T13:46:25.000Z</time>
      </trkpt>
      <trkpt lat="48.23751" lon="-3.41978">
        <ele>166.19999694824</ele>
        <time>2020-10-18T13:46:26.000Z</time>
      </trkpt>
      <trkpt lat="48.2375" lon="-3.41973">
        <ele>166.19999694824</ele>
        <time>2020-10-18T13:46:27.000Z</time>
      </trkpt>
      <trkpt lat="48.23749" lon="-3.41967">
        <ele>166.19999694824</ele>
        <time>2020-10-18T13:46:28.000Z</time>
      </trkpt>
      <trkpt lat="48.23748" lon="-3.41962">
        <ele>166.39999389648</ele>
        <time>2020-10-18T13:46:29.000Z</time>
      </trkpt>
      <trkpt lat="48.23747" lon="-3.41956">
        <ele>166.39999389648</ele>
        <time>2020-10-18T13:46:30.000Z</time>
      </trkpt>
      <trkpt lat="48.23746" lon="-3.4195">
        <ele>166.39999389648</ele>
        <time>2020-10-18T13:46:31.000Z</time>
      </trkpt>
      <trkpt lat="48.23745" lon="-3.41944">
        <ele>166.39999389648</ele>
        <time>2020-10-18T13:46:32.000Z</time>
      </trkpt>
      <trkpt lat="48.23744" lon="-3.41937">
        <ele>166.39999389648</ele>
        <time>2020-10-18T13:46:33.000Z</time>
      </trkpt>
      <trkpt lat="48.23742" lon="-3.41931">
        <ele>166.60000610352</ele>
        <time>2020-10-18T13:46:34.000Z</time>
      </trkpt>
      <trkpt lat="48.23741" lon="-3.41924">
        <ele>166.60000610352</ele>
        <time>2020-10-18T13:46:35.000Z</time>
      </trkpt>
      <trkpt lat="48.2374" lon="-3.41918">
        <ele>166.80000305176</ele>
        <time>2020-10-18T13:46:36.000Z</time>
      </trkpt>
      <trkpt lat="48.23738" lon="-3.41911">
        <ele>167</ele>
        <time>2020-10-18T13:46:37.000Z</time>
      </trkpt>
      <trkpt lat="48.23737" lon="-3.41904">
        <ele>167</ele>
        <time>2020-10-18T13:46:38.000Z</time>
      </trkpt>
      <trkpt lat="48.23736" lon="-3.41898">
        <ele>167.19999694824</ele>
        <time>2020-10-18T13:46:39.000Z</time>
      </trkpt>
      <trkpt lat="48.23734" lon="-3.41891">
        <ele>167.39999389648</ele>
        <time>2020-10-18T13:46:40.000Z</time>
      </trkpt>
      <trkpt lat="48.23733" lon="-3.41885">
        <ele>167.39999389648</ele>
        <time>2020-10-18T13:46:41.000Z</time>
      </trkpt>
      <trkpt lat="48.23732" lon="-3.41879">
        <ele>167.60000610352</ele>
        <time>2020-10-18T13:46:42.000Z</time>
      </trkpt>
      <trkpt lat="48.23731" lon="-3.41872">
        <ele>167.60000610352</ele>
        <time>2020-10-18T13:46:43.000Z</time>
      </trkpt>
      <trkpt lat="48.23729" lon="-3.41866">
        <ele>167.80000305176</ele>
        <time>2020-10-18T13:46:44.000Z</time>
      </trkpt>
      <trkpt lat="48.23728" lon="-3.4186">
        <ele>168</ele>
        <time>2020-10-18T13:46:45.000Z</time>
      </trkpt>
      <trkpt lat="48.23728" lon="-3.41854">
        <ele>168</ele>
        <time>2020-10-18T13:46:46.000Z</time>
      </trkpt>
      <trkpt lat="48.23727" lon="-3.41848">
        <ele>168.19999694824</ele>
        <time>2020-10-18T13:46:47.000Z</time>
      </trkpt>
      <trkpt lat="48.23727" lon="-3.41842">
        <ele>168.39999389648</ele>
        <time>2020-10-18T13:46:48.000Z</time>
      </trkpt>
      <trkpt lat="48.23726" lon="-3.41836">
        <ele>168.39999389648</ele>
        <time>2020-10-18T13:46:49.000Z</time>
      </trkpt>
      <trkpt lat="48.23727" lon="-3.4183">
        <ele>168.60000610352</ele>
        <time>2020-10-18T13:46:50.000Z</time>
      </trkpt>
      <trkpt lat="48.23726" lon="-3.41825">
        <ele>168.80000305176</ele>
        <time>2020-10-18T13:46:51.000Z</time>
      </trkpt>
      <trkpt lat="48.23726" lon="-3.4182">
        <ele>168.80000305176</ele>
        <time>2020-10-18T13:46:52.000Z</time>
      </trkpt>
      <trkpt lat="48.23726" lon="-3.41815">
        <ele>169</ele>
        <time>2020-10-18T13:46:53.000Z</time>
      </trkpt>
      <trkpt lat="48.23725" lon="-3.4181">
        <ele>169</ele>
        <time>2020-10-18T13:46:54.000Z</time>
      </trkpt>
      <trkpt lat="48.23723" lon="-3.418">
        <ele>169.19999694824</ele>
        <time>2020-10-18T13:46:55.000Z</time>
      </trkpt>
      <trkpt lat="48.23723" lon="-3.418">
        <ele>169.19999694824</ele>
        <time>2020-10-18T13:46:56.000Z</time>
      </trkpt>
      <trkpt lat="48.23723" lon="-3.41796">
        <ele>169.39999389648</ele>
        <time>2020-10-18T13:46:57.000Z</time>
      </trkpt>
      <trkpt lat="48.23722" lon="-3.41792">
        <ele>169.60000610352</ele>
        <time>2020-10-18T13:46:58.000Z</time>
      </trkpt>
      <trkpt lat="48.23721" lon="-3.41787">
        <ele>169.80000305176</ele>
        <time>2020-10-18T13:46:59.000Z</time>
      </trkpt>
      <trkpt lat="48.2372" lon="-3.41782">
        <ele>169.80000305176</ele>
        <time>2020-10-18T13:47:00.000Z</time>
      </trkpt>
      <trkpt lat="48.23719" lon="-3.41777">
        <ele>170</ele>
        <time>2020-10-18T13:47:01.000Z</time>
      </trkpt>
      <trkpt lat="48.23718" lon="-3.41772">
        <ele>170.19999694824</ele>
        <time>2020-10-18T13:47:02.000Z</time>
      </trkpt>
      <trkpt lat="48.23717" lon="-3.41766">
        <ele>170.39999389648</ele>
        <time>2020-10-18T13:47:03.000Z</time>
      </trkpt>
      <trkpt lat="48.23716" lon="-3.41761">
        <ele>170.60000610352</ele>
        <time>2020-10-18T13:47:04.000Z</time>
      </trkpt>
      <trkpt lat="48.23715" lon="-3.41756">
        <ele>170.80000305176</ele>
        <time>2020-10-18T13:47:05.000Z</time>
      </trkpt>
      <trkpt lat="48.23714" lon="-3.41751">
        <ele>171</ele>
        <time>2020-10-18T13:47:06.000Z</time>
      </trkpt>
      <trkpt lat="48.23712" lon="-3.41746">
        <ele>171</ele>
        <time>2020-10-18T13:47:07.000Z</time>
      </trkpt>
      <trkpt lat="48.23711" lon="-3.4174">
        <ele>171.19999694824</ele>
        <time>2020-10-18T13:47:08.000Z</time>
      </trkpt>
      <trkpt lat="48.23709" lon="-3.41734">
        <ele>171.39999389648</ele>
        <time>2020-10-18T13:47:09.000Z</time>
      </trkpt>
      <trkpt lat="48.23708" lon="-3.41728">
        <ele>171.39999389648</ele>
        <time>2020-10-18T13:47:10.000Z</time>
      </trkpt>
      <trkpt lat="48.23706" lon="-3.41722">
        <ele>171.19999694824</ele>
        <time>2020-10-18T13:47:11.000Z</time>
      </trkpt>
      <trkpt lat="48.23704" lon="-3.41717">
        <ele>171.19999694824</ele>
        <time>2020-10-18T13:47:12.000Z</time>
      </trkpt>
      <trkpt lat="48.23702" lon="-3.41711">
        <ele>171</ele>
        <time>2020-10-18T13:47:13.000Z</time>
      </trkpt>
      <trkpt lat="48.23699" lon="-3.41705">
        <ele>171</ele>
        <time>2020-10-18T13:47:14.000Z</time>
      </trkpt>
      <trkpt lat="48.23697" lon="-3.41699">
        <ele>170.80000305176</ele>
        <time>2020-10-18T13:47:15.000Z</time>
      </trkpt>
      <trkpt lat="48.23694" lon="-3.41694">
        <ele>170.80000305176</ele>
        <time>2020-10-18T13:47:16.000Z</time>
      </trkpt>
      <trkpt lat="48.23691" lon="-3.41688">
        <ele>170.60000610352</ele>
        <time>2020-10-18T13:47:17.000Z</time>
      </trkpt>
      <trkpt lat="48.23688" lon="-3.41683">
        <ele>170.39999389648</ele>
        <time>2020-10-18T13:47:18.000Z</time>
      </trkpt>
      <trkpt lat="48.23685" lon="-3.41678">
        <ele>170.39999389648</ele>
        <time>2020-10-18T13:47:19.000Z</time>
      </trkpt>
      <trkpt lat="48.23682" lon="-3.41673">
        <ele>170.19999694824</ele>
        <time>2020-10-18T13:47:20.000Z</time>
      </trkpt>
      <trkpt lat="48.23679" lon="-3.41669">
        <ele>170</ele>
        <time>2020-10-18T13:47:21.000Z</time>
      </trkpt>
      <trkpt lat="48.23675" lon="-3.41665">
        <ele>170</ele>
        <time>2020-10-18T13:47:22.000Z</time>
      </trkpt>
      <trkpt lat="48.23672" lon="-3.41661">
        <ele>170</ele>
        <time>2020-10-18T13:47:23.000Z</time>
      </trkpt>
      <trkpt lat="48.23668" lon="-3.41657">
        <ele>170</ele>
        <time>2020-10-18T13:47:24.000Z</time>
      </trkpt>
      <trkpt lat="48.23664" lon="-3.41654">
        <ele>170</ele>
        <time>2020-10-18T13:47:25.000Z</time>
      </trkpt>
      <trkpt lat="48.2366" lon="-3.4165">
        <ele>170</ele>
        <time>2020-10-18T13:47:26.000Z</time>
      </trkpt>
      <trkpt lat="48.23657" lon="-3.41647">
        <ele>170</ele>
        <time>2020-10-18T13:47:27.000Z</time>
      </trkpt>
      <trkpt lat="48.23653" lon="-3.41643">
        <ele>170</ele>
        <time>2020-10-18T13:47:28.000Z</time>
      </trkpt>
      <trkpt lat="48.23649" lon="-3.4164">
        <ele>170</ele>
        <time>2020-10-18T13:47:29.000Z</time>
      </trkpt>
      <trkpt lat="48.23646" lon="-3.41637">
        <ele>170</ele>
        <time>2020-10-18T13:47:30.000Z</time>
      </trkpt>
      <trkpt lat="48.23643" lon="-3.41635">
        <ele>170</ele>
        <time>2020-10-18T13:47:31.000Z</time>
      </trkpt>
      <trkpt lat="48.23639" lon="-3.41632">
        <ele>169.80000305176</ele>
        <time>2020-10-18T13:47:32.000Z</time>
      </trkpt>
      <trkpt lat="48.23636" lon="-3.41629">
        <ele>169.80000305176</ele>
        <time>2020-10-18T13:47:33.000Z</time>
      </trkpt>
      <trkpt lat="48.23632" lon="-3.41627">
        <ele>169.60000610352</ele>
        <time>2020-10-18T13:47:34.000Z</time>
      </trkpt>
      <trkpt lat="48.23628" lon="-3.41624">
        <ele>169.39999389648</ele>
        <time>2020-10-18T13:47:35.000Z</time>
      </trkpt>
      <trkpt lat="48.23625" lon="-3.41621">
        <ele>169.19999694824</ele>
        <time>2020-10-18T13:47:36.000Z</time>
      </trkpt>
      <trkpt lat="48.23621" lon="-3.41618">
        <ele>169</ele>
        <time>2020-10-18T13:47:37.000Z</time>
      </trkpt>
      <trkpt lat="48.23617" lon="-3.41614">
        <ele>168.80000305176</ele>
        <time>2020-10-18T13:47:38.000Z</time>
      </trkpt>
      <trkpt lat="48.23614" lon="-3.4161">
        <ele>168.80000305176</ele>
        <time>2020-10-18T13:47:39.000Z</time>
      </trkpt>
      <trkpt lat="48.2361" lon="-3.41606">
        <ele>168.60000610352</ele>
        <time>2020-10-18T13:47:40.000Z</time>
      </trkpt>
      <trkpt lat="48.23606" lon="-3.41603">
        <ele>168.39999389648</ele>
        <time>2020-10-18T13:47:41.000Z</time>
      </trkpt>
      <trkpt lat="48.23602" lon="-3.41599">
        <ele>168.19999694824</ele>
        <time>2020-10-18T13:47:42.000Z</time>
      </trkpt>
      <trkpt lat="48.23599" lon="-3.41596">
        <ele>168.19999694824</ele>
        <time>2020-10-18T13:47:43.000Z</time>
      </trkpt>
      <trkpt lat="48.23595" lon="-3.41592">
        <ele>168</ele>
        <time>2020-10-18T13:47:44.000Z</time>
      </trkpt>
      <trkpt lat="48.23591" lon="-3.41588">
        <ele>168.19999694824</ele>
        <time>2020-10-18T13:47:45.000Z</time>
      </trkpt>
      <trkpt lat="48.23587" lon="-3.41584">
        <ele>168.60000610352</ele>
        <time>2020-10-18T13:47:46.000Z</time>
      </trkpt>
      <trkpt lat="48.23583" lon="-3.41581">
        <ele>168.80000305176</ele>
        <time>2020-10-18T13:47:47.000Z</time>
      </trkpt>
      <trkpt lat="48.23579" lon="-3.41578">
        <ele>169</ele>
        <time>2020-10-18T13:47:48.000Z</time>
      </trkpt>
      <trkpt lat="48.23575" lon="-3.41575">
        <ele>169.19999694824</ele>
        <time>2020-10-18T13:47:49.000Z</time>
      </trkpt>
      <trkpt lat="48.23572" lon="-3.41572">
        <ele>169.39999389648</ele>
        <time>2020-10-18T13:47:50.000Z</time>
      </trkpt>
      <trkpt lat="48.23568" lon="-3.41569">
        <ele>169.60000610352</ele>
        <time>2020-10-18T13:47:51.000Z</time>
      </trkpt>
      <trkpt lat="48.23564" lon="-3.41566">
        <ele>170</ele>
        <time>2020-10-18T13:47:52.000Z</time>
      </trkpt>
      <trkpt lat="48.23556" lon="-3.4156">
        <ele>170.39999389648</ele>
        <time>2020-10-18T13:47:53.000Z</time>
      </trkpt>
      <trkpt lat="48.23556" lon="-3.4156">
        <ele>170.39999389648</ele>
        <time>2020-10-18T13:47:54.000Z</time>
      </trkpt>
      <trkpt lat="48.23553" lon="-3.41557">
        <ele>170.60000610352</ele>
        <time>2020-10-18T13:47:55.000Z</time>
      </trkpt>
      <trkpt lat="48.23549" lon="-3.41554">
        <ele>170.80000305176</ele>
        <time>2020-10-18T13:47:56.000Z</time>
      </trkpt>
      <trkpt lat="48.23546" lon="-3.41551">
        <ele>171</ele>
        <time>2020-10-18T13:47:57.000Z</time>
      </trkpt>
      <trkpt lat="48.23543" lon="-3.41548">
        <ele>171.19999694824</ele>
        <time>2020-10-18T13:47:58.000Z</time>
      </trkpt>
      <trkpt lat="48.23539" lon="-3.41545">
        <ele>171.39999389648</ele>
        <time>2020-10-18T13:47:59.000Z</time>
      </trkpt>
      <trkpt lat="48.23536" lon="-3.41543">
        <ele>171.60000610352</ele>
        <time>2020-10-18T13:48:00.000Z</time>
      </trkpt>
      <trkpt lat="48.23533" lon="-3.4154">
        <ele>171.80000305176</ele>
        <time>2020-10-18T13:48:01.000Z</time>
      </trkpt>
      <trkpt lat="48.2353" lon="-3.41537">
        <ele>172</ele>
        <time>2020-10-18T13:48:02.000Z</time>
      </trkpt>
      <trkpt lat="48.23527" lon="-3.41534">
        <ele>172.19999694824</ele>
        <time>2020-10-18T13:48:03.000Z</time>
      </trkpt>
      <trkpt lat="48.23524" lon="-3.41531">
        <ele>172.39999389648</ele>
        <time>2020-10-18T13:48:04.000Z</time>
      </trkpt>
      <trkpt lat="48.2352" lon="-3.41528">
        <ele>172.60000610352</ele>
        <time>2020-10-18T13:48:05.000Z</time>
      </trkpt>
      <trkpt lat="48.23517" lon="-3.41524">
        <ele>172.80000305176</ele>
        <time>2020-10-18T13:48:06.000Z</time>
      </trkpt>
      <trkpt lat="48.23513" lon="-3.4152">
        <ele>173</ele>
        <time>2020-10-18T13:48:07.000Z</time>
      </trkpt>
      <trkpt lat="48.23509" lon="-3.41517">
        <ele>173</ele>
        <time>2020-10-18T13:48:08.000Z</time>
      </trkpt>
      <trkpt lat="48.23506" lon="-3.41513">
        <ele>173.19999694824</ele>
        <time>2020-10-18T13:48:09.000Z</time>
      </trkpt>
      <trkpt lat="48.23502" lon="-3.4151">
        <ele>173.19999694824</ele>
        <time>2020-10-18T13:48:10.000Z</time>
      </trkpt>
      <trkpt lat="48.23498" lon="-3.41506">
        <ele>173.19999694824</ele>
        <time>2020-10-18T13:48:11.000Z</time>
      </trkpt>
      <trkpt lat="48.23494" lon="-3.41503">
        <ele>173.19999694824</ele>
        <time>2020-10-18T13:48:12.000Z</time>
      </trkpt>
      <trkpt lat="48.2349" lon="-3.41499">
        <ele>173.19999694824</ele>
        <time>2020-10-18T13:48:13.000Z</time>
      </trkpt>
      <trkpt lat="48.23486" lon="-3.41496">
        <ele>173.19999694824</ele>
        <time>2020-10-18T13:48:14.000Z</time>
      </trkpt>
      <trkpt lat="48.23482" lon="-3.41493">
        <ele>173.19999694824</ele>
        <time>2020-10-18T13:48:15.000Z</time>
      </trkpt>
      <trkpt lat="48.23479" lon="-3.41489">
        <ele>173.19999694824</ele>
        <time>2020-10-18T13:48:16.000Z</time>
      </trkpt>
      <trkpt lat="48.23475" lon="-3.41485">
        <ele>173.19999694824</ele>
        <time>2020-10-18T13:48:17.000Z</time>
      </trkpt>
      <trkpt lat="48.23471" lon="-3.41482">
        <ele>173.19999694824</ele>
        <time>2020-10-18T13:48:18.000Z</time>
      </trkpt>
      <trkpt lat="48.23467" lon="-3.41478">
        <ele>173.19999694824</ele>
        <time>2020-10-18T13:48:19.000Z</time>
      </trkpt>
      <trkpt lat="48.23463" lon="-3.41475">
        <ele>173.39999389648</ele>
        <time>2020-10-18T13:48:20.000Z</time>
      </trkpt>
      <trkpt lat="48.23459" lon="-3.41471">
        <ele>173.60000610352</ele>
        <time>2020-10-18T13:48:21.000Z</time>
      </trkpt>
      <trkpt lat="48.23455" lon="-3.41468">
        <ele>173.80000305176</ele>
        <time>2020-10-18T13:48:22.000Z</time>
      </trkpt>
      <trkpt lat="48.23451" lon="-3.41464">
        <ele>174</ele>
        <time>2020-10-18T13:48:23.000Z</time>
      </trkpt>
      <trkpt lat="48.23447" lon="-3.41461">
        <ele>174.19999694824</ele>
        <time>2020-10-18T13:48:24.000Z</time>
      </trkpt>
      <trkpt lat="48.23444" lon="-3.41458">
        <ele>174.19999694824</ele>
        <time>2020-10-18T13:48:25.000Z</time>
      </trkpt>
      <trkpt lat="48.2344" lon="-3.41455">
        <ele>174.39999389648</ele>
        <time>2020-10-18T13:48:26.000Z</time>
      </trkpt>
      <trkpt lat="48.23436" lon="-3.41453">
        <ele>174.60000610352</ele>
        <time>2020-10-18T13:48:27.000Z</time>
      </trkpt>
      <trkpt lat="48.23433" lon="-3.4145">
        <ele>174.80000305176</ele>
        <time>2020-10-18T13:48:28.000Z</time>
      </trkpt>
      <trkpt lat="48.2343" lon="-3.41447">
        <ele>175</ele>
        <time>2020-10-18T13:48:29.000Z</time>
      </trkpt>
      <trkpt lat="48.23426" lon="-3.41444">
        <ele>175.19999694824</ele>
        <time>2020-10-18T13:48:30.000Z</time>
      </trkpt>
      <trkpt lat="48.23423" lon="-3.41441">
        <ele>175.39999389648</ele>
        <time>2020-10-18T13:48:31.000Z</time>
      </trkpt>
      <trkpt lat="48.23419" lon="-3.41438">
        <ele>175.60000610352</ele>
        <time>2020-10-18T13:48:32.000Z</time>
      </trkpt>
      <trkpt lat="48.23416" lon="-3.41435">
        <ele>175.60000610352</ele>
        <time>2020-10-18T13:48:33.000Z</time>
      </trkpt>
      <trkpt lat="48.23412" lon="-3.41432">
        <ele>175.60000610352</ele>
        <time>2020-10-18T13:48:34.000Z</time>
      </trkpt>
      <trkpt lat="48.23408" lon="-3.41428">
        <ele>175.80000305176</ele>
        <time>2020-10-18T13:48:35.000Z</time>
      </trkpt>
      <trkpt lat="48.23404" lon="-3.41425">
        <ele>176</ele>
        <time>2020-10-18T13:48:36.000Z</time>
      </trkpt>
      <trkpt lat="48.23401" lon="-3.41422">
        <ele>176.19999694824</ele>
        <time>2020-10-18T13:48:37.000Z</time>
      </trkpt>
      <trkpt lat="48.23397" lon="-3.41419">
        <ele>176.39999389648</ele>
        <time>2020-10-18T13:48:38.000Z</time>
      </trkpt>
      <trkpt lat="48.23393" lon="-3.41415">
        <ele>176.80000305176</ele>
        <time>2020-10-18T13:48:39.000Z</time>
      </trkpt>
      <trkpt lat="48.23389" lon="-3.41411">
        <ele>177</ele>
        <time>2020-10-18T13:48:40.000Z</time>
      </trkpt>
      <trkpt lat="48.23385" lon="-3.41408">
        <ele>177.19999694824</ele>
        <time>2020-10-18T13:48:41.000Z</time>
      </trkpt>
      <trkpt lat="48.23382" lon="-3.41404">
        <ele>177.39999389648</ele>
        <time>2020-10-18T13:48:42.000Z</time>
      </trkpt>
      <trkpt lat="48.23378" lon="-3.41401">
        <ele>177.60000610352</ele>
        <time>2020-10-18T13:48:43.000Z</time>
      </trkpt>
      <trkpt lat="48.23374" lon="-3.41398">
        <ele>177.80000305176</ele>
        <time>2020-10-18T13:48:44.000Z</time>
      </trkpt>
      <trkpt lat="48.2337" lon="-3.41395">
        <ele>177.80000305176</ele>
        <time>2020-10-18T13:48:45.000Z</time>
      </trkpt>
      <trkpt lat="48.23367" lon="-3.41392">
        <ele>178</ele>
        <time>2020-10-18T13:48:46.000Z</time>
      </trkpt>
      <trkpt lat="48.23364" lon="-3.41389">
        <ele>178</ele>
        <time>2020-10-18T13:48:47.000Z</time>
      </trkpt>
      <trkpt lat="48.23361" lon="-3.41386">
        <ele>178.19999694824</ele>
        <time>2020-10-18T13:48:48.000Z</time>
      </trkpt>
      <trkpt lat="48.23358" lon="-3.41383">
        <ele>178.19999694824</ele>
        <time>2020-10-18T13:48:49.000Z</time>
      </trkpt>
      <trkpt lat="48.23355" lon="-3.41381">
        <ele>178.39999389648</ele>
        <time>2020-10-18T13:48:50.000Z</time>
      </trkpt>
      <trkpt lat="48.23352" lon="-3.41378">
        <ele>178.39999389648</ele>
        <time>2020-10-18T13:48:51.000Z</time>
      </trkpt>
      <trkpt lat="48.23349" lon="-3.41376">
        <ele>178.60000610352</ele>
        <time>2020-10-18T13:48:52.000Z</time>
      </trkpt>
      <trkpt lat="48.23347" lon="-3.41374">
        <ele>178.60000610352</ele>
        <time>2020-10-18T13:48:53.000Z</time>
      </trkpt>
      <trkpt lat="48.23344" lon="-3.41372">
        <ele>178.80000305176</ele>
        <time>2020-10-18T13:48:54.000Z</time>
      </trkpt>
      <trkpt lat="48.23342" lon="-3.4137">
        <ele>178.80000305176</ele>
        <time>2020-10-18T13:48:55.000Z</time>
      </trkpt>
      <trkpt lat="48.2334" lon="-3.41368">
        <ele>179</ele>
        <time>2020-10-18T13:48:56.000Z</time>
      </trkpt>
      <trkpt lat="48.23338" lon="-3.41366">
        <ele>179</ele>
        <time>2020-10-18T13:48:57.000Z</time>
      </trkpt>
      <trkpt lat="48.23337" lon="-3.41364">
        <ele>179</ele>
        <time>2020-10-18T13:48:58.000Z</time>
      </trkpt>
      <trkpt lat="48.23335" lon="-3.41363">
        <ele>179</ele>
        <time>2020-10-18T13:48:59.000Z</time>
      </trkpt>
      <trkpt lat="48.23332" lon="-3.41362">
        <ele>179.19999694824</ele>
        <time>2020-10-18T13:49:00.000Z</time>
      </trkpt>
      <trkpt lat="48.2333" lon="-3.4136">
        <ele>179.19999694824</ele>
        <time>2020-10-18T13:49:01.000Z</time>
      </trkpt>
      <trkpt lat="48.23327" lon="-3.41358">
        <ele>179.19999694824</ele>
        <time>2020-10-18T13:49:02.000Z</time>
      </trkpt>
      <trkpt lat="48.23325" lon="-3.41356">
        <ele>179.19999694824</ele>
        <time>2020-10-18T13:49:03.000Z</time>
      </trkpt>
      <trkpt lat="48.23322" lon="-3.41353">
        <ele>179.19999694824</ele>
        <time>2020-10-18T13:49:04.000Z</time>
      </trkpt>
      <trkpt lat="48.2332" lon="-3.4135">
        <ele>179.39999389648</ele>
        <time>2020-10-18T13:49:05.000Z</time>
      </trkpt>
      <trkpt lat="48.23317" lon="-3.41347">
        <ele>179.39999389648</ele>
        <time>2020-10-18T13:49:06.000Z</time>
      </trkpt>
      <trkpt lat="48.23314" lon="-3.41345">
        <ele>179.60000610352</ele>
        <time>2020-10-18T13:49:07.000Z</time>
      </trkpt>
      <trkpt lat="48.23312" lon="-3.41342">
        <ele>179.80000305176</ele>
        <time>2020-10-18T13:49:08.000Z</time>
      </trkpt>
      <trkpt lat="48.23309" lon="-3.41339">
        <ele>180</ele>
        <time>2020-10-18T13:49:09.000Z</time>
      </trkpt>
      <trkpt lat="48.23306" lon="-3.41336">
        <ele>180</ele>
        <time>2020-10-18T13:49:10.000Z</time>
      </trkpt>
      <trkpt lat="48.23302" lon="-3.41333">
        <ele>180.19999694824</ele>
        <time>2020-10-18T13:49:11.000Z</time>
      </trkpt>
      <trkpt lat="48.23299" lon="-3.4133">
        <ele>180.39999389648</ele>
        <time>2020-10-18T13:49:12.000Z</time>
      </trkpt>
      <trkpt lat="48.23295" lon="-3.41327">
        <ele>180.60000610352</ele>
        <time>2020-10-18T13:49:13.000Z</time>
      </trkpt>
      <trkpt lat="48.23291" lon="-3.41324">
        <ele>180.80000305176</ele>
        <time>2020-10-18T13:49:14.000Z</time>
      </trkpt>
      <trkpt lat="48.23288" lon="-3.41321">
        <ele>181</ele>
        <time>2020-10-18T13:49:15.000Z</time>
      </trkpt>
      <trkpt lat="48.23284" lon="-3.41317">
        <ele>181</ele>
        <time>2020-10-18T13:49:16.000Z</time>
      </trkpt>
      <trkpt lat="48.23281" lon="-3.41314">
        <ele>180.80000305176</ele>
        <time>2020-10-18T13:49:17.000Z</time>
      </trkpt>
      <trkpt lat="48.23277" lon="-3.4131">
        <ele>180.80000305176</ele>
        <time>2020-10-18T13:49:18.000Z</time>
      </trkpt>
      <trkpt lat="48.23273" lon="-3.41306">
        <ele>180.80000305176</ele>
        <time>2020-10-18T13:49:19.000Z</time>
      </trkpt>
      <trkpt lat="48.23269" lon="-3.41302">
        <ele>180.80000305176</ele>
        <time>2020-10-18T13:49:20.000Z</time>
      </trkpt>
      <trkpt lat="48.23265" lon="-3.41298">
        <ele>180.60000610352</ele>
        <time>2020-10-18T13:49:21.000Z</time>
      </trkpt>
      <trkpt lat="48.23262" lon="-3.41294">
        <ele>180.60000610352</ele>
        <time>2020-10-18T13:49:22.000Z</time>
      </trkpt>
      <trkpt lat="48.23259" lon="-3.41289">
        <ele>180.80000305176</ele>
        <time>2020-10-18T13:49:23.000Z</time>
      </trkpt>
      <trkpt lat="48.23256" lon="-3.41284">
        <ele>180.80000305176</ele>
        <time>2020-10-18T13:49:24.000Z</time>
      </trkpt>
      <trkpt lat="48.23254" lon="-3.41279">
        <ele>181</ele>
        <time>2020-10-18T13:49:25.000Z</time>
      </trkpt>
      <trkpt lat="48.23251" lon="-3.41273">
        <ele>181</ele>
        <time>2020-10-18T13:49:26.000Z</time>
      </trkpt>
      <trkpt lat="48.23249" lon="-3.41268">
        <ele>181.19999694824</ele>
        <time>2020-10-18T13:49:27.000Z</time>
      </trkpt>
      <trkpt lat="48.23247" lon="-3.41263">
        <ele>181.19999694824</ele>
        <time>2020-10-18T13:49:28.000Z</time>
      </trkpt>
      <trkpt lat="48.23245" lon="-3.41257">
        <ele>181.39999389648</ele>
        <time>2020-10-18T13:49:29.000Z</time>
      </trkpt>
      <trkpt lat="48.23243" lon="-3.41252">
        <ele>181.80000305176</ele>
        <time>2020-10-18T13:49:30.000Z</time>
      </trkpt>
      <trkpt lat="48.2324" lon="-3.41247">
        <ele>182</ele>
        <time>2020-10-18T13:49:31.000Z</time>
      </trkpt>
      <trkpt lat="48.23238" lon="-3.41242">
        <ele>182.19999694824</ele>
        <time>2020-10-18T13:49:32.000Z</time>
      </trkpt>
      <trkpt lat="48.23236" lon="-3.41237">
        <ele>182.39999389648</ele>
        <time>2020-10-18T13:49:33.000Z</time>
      </trkpt>
      <trkpt lat="48.23234" lon="-3.41233">
        <ele>182.60000610352</ele>
        <time>2020-10-18T13:49:34.000Z</time>
      </trkpt>
      <trkpt lat="48.23232" lon="-3.41228">
        <ele>182.60000610352</ele>
        <time>2020-10-18T13:49:35.000Z</time>
      </trkpt>
      <trkpt lat="48.2323" lon="-3.41223">
        <ele>182.80000305176</ele>
        <time>2020-10-18T13:49:36.000Z</time>
      </trkpt>
      <trkpt lat="48.23229" lon="-3.41219">
        <ele>183</ele>
        <time>2020-10-18T13:49:37.000Z</time>
      </trkpt>
      <trkpt lat="48.23227" lon="-3.41214">
        <ele>183.19999694824</ele>
        <time>2020-10-18T13:49:38.000Z</time>
      </trkpt>
      <trkpt lat="48.23225" lon="-3.4121">
        <ele>183.19999694824</ele>
        <time>2020-10-18T13:49:39.000Z</time>
      </trkpt>
      <trkpt lat="48.23223" lon="-3.41205">
        <ele>183.19999694824</ele>
        <time>2020-10-18T13:49:40.000Z</time>
      </trkpt>
      <trkpt lat="48.23221" lon="-3.41201">
        <ele>183.19999694824</ele>
        <time>2020-10-18T13:49:41.000Z</time>
      </trkpt>
      <trkpt lat="48.23219" lon="-3.41196">
        <ele>183.39999389648</ele>
        <time>2020-10-18T13:49:42.000Z</time>
      </trkpt>
      <trkpt lat="48.23216" lon="-3.41192">
        <ele>183.39999389648</ele>
        <time>2020-10-18T13:49:43.000Z</time>
      </trkpt>
      <trkpt lat="48.23214" lon="-3.41187">
        <ele>183.39999389648</ele>
        <time>2020-10-18T13:49:44.000Z</time>
      </trkpt>
      <trkpt lat="48.23212" lon="-3.41183">
        <ele>183.39999389648</ele>
        <time>2020-10-18T13:49:45.000Z</time>
      </trkpt>
      <trkpt lat="48.2321" lon="-3.41178">
        <ele>183.39999389648</ele>
        <time>2020-10-18T13:49:46.000Z</time>
      </trkpt>
      <trkpt lat="48.23208" lon="-3.41173">
        <ele>183.39999389648</ele>
        <time>2020-10-18T13:49:47.000Z</time>
      </trkpt>
      <trkpt lat="48.23206" lon="-3.41167">
        <ele>183.60000610352</ele>
        <time>2020-10-18T13:49:48.000Z</time>
      </trkpt>
      <trkpt lat="48.23204" lon="-3.41162">
        <ele>183.60000610352</ele>
        <time>2020-10-18T13:49:49.000Z</time>
      </trkpt>
      <trkpt lat="48.23201" lon="-3.41156">
        <ele>183.39999389648</ele>
        <time>2020-10-18T13:49:50.000Z</time>
      </trkpt>
      <trkpt lat="48.23198" lon="-3.4115">
        <ele>183.39999389648</ele>
        <time>2020-10-18T13:49:51.000Z</time>
      </trkpt>
      <trkpt lat="48.23196" lon="-3.41144">
        <ele>183.19999694824</ele>
        <time>2020-10-18T13:49:52.000Z</time>
      </trkpt>
      <trkpt lat="48.23193" lon="-3.41138">
        <ele>183</ele>
        <time>2020-10-18T13:49:53.000Z</time>
      </trkpt>
      <trkpt lat="48.23189" lon="-3.41128">
        <ele>182.80000305176</ele>
        <time>2020-10-18T13:49:54.000Z</time>
      </trkpt>
      <trkpt lat="48.23189" lon="-3.41128">
        <ele>182.80000305176</ele>
        <time>2020-10-18T13:49:55.000Z</time>
      </trkpt>
      <trkpt lat="48.23186" lon="-3.41124">
        <ele>182.60000610352</ele>
        <time>2020-10-18T13:49:56.000Z</time>
      </trkpt>
      <trkpt lat="48.23185" lon="-3.41121">
        <ele>182.39999389648</ele>
        <time>2020-10-18T13:49:57.000Z</time>
      </trkpt>
      <trkpt lat="48.23183" lon="-3.41117">
        <ele>182.39999389648</ele>
        <time>2020-10-18T13:49:58.000Z</time>
      </trkpt>
      <trkpt lat="48.23181" lon="-3.41114">
        <ele>182.19999694824</ele>
        <time>2020-10-18T13:49:59.000Z</time>
      </trkpt>
      <trkpt lat="48.2318" lon="-3.41111">
        <ele>182.19999694824</ele>
        <time>2020-10-18T13:50:00.000Z</time>
      </trkpt>
      <trkpt lat="48.23178" lon="-3.41108">
        <ele>182.19999694824</ele>
        <time>2020-10-18T13:50:01.000Z</time>
      </trkpt>
      <trkpt lat="48.23177" lon="-3.41105">
        <ele>182.19999694824</ele>
        <time>2020-10-18T13:50:02.000Z</time>
      </trkpt>
      <trkpt lat="48.23175" lon="-3.41102">
        <ele>182.19999694824</ele>
        <time>2020-10-18T13:50:03.000Z</time>
      </trkpt>
      <trkpt lat="48.23173" lon="-3.41098">
        <ele>182.19999694824</ele>
        <time>2020-10-18T13:50:04.000Z</time>
      </trkpt>
      <trkpt lat="48.23171" lon="-3.41094">
        <ele>182.39999389648</ele>
        <time>2020-10-18T13:50:05.000Z</time>
      </trkpt>
      <trkpt lat="48.23169" lon="-3.4109">
        <ele>182.60000610352</ele>
        <time>2020-10-18T13:50:06.000Z</time>
      </trkpt>
      <trkpt lat="48.23167" lon="-3.41086">
        <ele>182.80000305176</ele>
        <time>2020-10-18T13:50:07.000Z</time>
      </trkpt>
      <trkpt lat="48.23165" lon="-3.4108">
        <ele>183</ele>
        <time>2020-10-18T13:50:08.000Z</time>
      </trkpt>
      <trkpt lat="48.23163" lon="-3.41075">
        <ele>183.19999694824</ele>
        <time>2020-10-18T13:50:09.000Z</time>
      </trkpt>
      <trkpt lat="48.23161" lon="-3.4107">
        <ele>183.39999389648</ele>
        <time>2020-10-18T13:50:10.000Z</time>
      </trkpt>
      <trkpt lat="48.23158" lon="-3.41064">
        <ele>183.60000610352</ele>
        <time>2020-10-18T13:50:11.000Z</time>
      </trkpt>
      <trkpt lat="48.23156" lon="-3.41059">
        <ele>183.80000305176</ele>
        <time>2020-10-18T13:50:12.000Z</time>
      </trkpt>
      <trkpt lat="48.23153" lon="-3.41053">
        <ele>184</ele>
        <time>2020-10-18T13:50:13.000Z</time>
      </trkpt>
      <trkpt lat="48.23151" lon="-3.41047">
        <ele>184.19999694824</ele>
        <time>2020-10-18T13:50:14.000Z</time>
      </trkpt>
      <trkpt lat="48.23148" lon="-3.41041">
        <ele>184.39999389648</ele>
        <time>2020-10-18T13:50:15.000Z</time>
      </trkpt>
      <trkpt lat="48.23146" lon="-3.41036">
        <ele>184.60000610352</ele>
        <time>2020-10-18T13:50:16.000Z</time>
      </trkpt>
      <trkpt lat="48.23144" lon="-3.41031">
        <ele>184.80000305176</ele>
        <time>2020-10-18T13:50:17.000Z</time>
      </trkpt>
      <trkpt lat="48.23141" lon="-3.41026">
        <ele>185</ele>
        <time>2020-10-18T13:50:18.000Z</time>
      </trkpt>
      <trkpt lat="48.23139" lon="-3.41022">
        <ele>185.19999694824</ele>
        <time>2020-10-18T13:50:19.000Z</time>
      </trkpt>
      <trkpt lat="48.23138" lon="-3.41017">
        <ele>185.39999389648</ele>
        <time>2020-10-18T13:50:20.000Z</time>
      </trkpt>
      <trkpt lat="48.23136" lon="-3.41013">
        <ele>185.60000610352</ele>
        <time>2020-10-18T13:50:21.000Z</time>
      </trkpt>
      <trkpt lat="48.23134" lon="-3.41009">
        <ele>185.80000305176</ele>
        <time>2020-10-18T13:50:22.000Z</time>
      </trkpt>
      <trkpt lat="48.23133" lon="-3.41005">
        <ele>186</ele>
        <time>2020-10-18T13:50:23.000Z</time>
      </trkpt>
      <trkpt lat="48.23132" lon="-3.41001">
        <ele>186.19999694824</ele>
        <time>2020-10-18T13:50:24.000Z</time>
      </trkpt>
      <trkpt lat="48.2313" lon="-3.40997">
        <ele>186.39999389648</ele>
        <time>2020-10-18T13:50:25.000Z</time>
      </trkpt>
      <trkpt lat="48.23128" lon="-3.40994">
        <ele>186.60000610352</ele>
        <time>2020-10-18T13:50:26.000Z</time>
      </trkpt>
      <trkpt lat="48.23127" lon="-3.4099">
        <ele>186.80000305176</ele>
        <time>2020-10-18T13:50:27.000Z</time>
      </trkpt>
      <trkpt lat="48.23126" lon="-3.40986">
        <ele>187</ele>
        <time>2020-10-18T13:50:28.000Z</time>
      </trkpt>
      <trkpt lat="48.23124" lon="-3.40982">
        <ele>187</ele>
        <time>2020-10-18T13:50:29.000Z</time>
      </trkpt>
      <trkpt lat="48.23122" lon="-3.40979">
        <ele>187</ele>
        <time>2020-10-18T13:50:30.000Z</time>
      </trkpt>
      <trkpt lat="48.23121" lon="-3.40975">
        <ele>187</ele>
        <time>2020-10-18T13:50:31.000Z</time>
      </trkpt>
      <trkpt lat="48.23119" lon="-3.40972">
        <ele>187</ele>
        <time>2020-10-18T13:50:32.000Z</time>
      </trkpt>
      <trkpt lat="48.23117" lon="-3.40968">
        <ele>187</ele>
        <time>2020-10-18T13:50:33.000Z</time>
      </trkpt>
      <trkpt lat="48.23116" lon="-3.40963">
        <ele>187</ele>
        <time>2020-10-18T13:50:34.000Z</time>
      </trkpt>
      <trkpt lat="48.23114" lon="-3.40959">
        <ele>187</ele>
        <time>2020-10-18T13:50:35.000Z</time>
      </trkpt>
      <trkpt lat="48.23112" lon="-3.40954">
        <ele>187</ele>
        <time>2020-10-18T13:50:36.000Z</time>
      </trkpt>
      <trkpt lat="48.23111" lon="-3.4095">
        <ele>187</ele>
        <time>2020-10-18T13:50:37.000Z</time>
      </trkpt>
      <trkpt lat="48.23108" lon="-3.40946">
        <ele>187</ele>
        <time>2020-10-18T13:50:38.000Z</time>
      </trkpt>
      <trkpt lat="48.23106" lon="-3.40942">
        <ele>187</ele>
        <time>2020-10-18T13:50:39.000Z</time>
      </trkpt>
      <trkpt lat="48.23104" lon="-3.40937">
        <ele>187</ele>
        <time>2020-10-18T13:50:40.000Z</time>
      </trkpt>
      <trkpt lat="48.23102" lon="-3.40932">
        <ele>187</ele>
        <time>2020-10-18T13:50:41.000Z</time>
      </trkpt>
      <trkpt lat="48.231" lon="-3.40927">
        <ele>187.39999389648</ele>
        <time>2020-10-18T13:50:42.000Z</time>
      </trkpt>
      <trkpt lat="48.23098" lon="-3.40923">
        <ele>187.60000610352</ele>
        <time>2020-10-18T13:50:43.000Z</time>
      </trkpt>
      <trkpt lat="48.23097" lon="-3.40918">
        <ele>187.80000305176</ele>
        <time>2020-10-18T13:50:44.000Z</time>
      </trkpt>
      <trkpt lat="48.23095" lon="-3.40913">
        <ele>188</ele>
        <time>2020-10-18T13:50:45.000Z</time>
      </trkpt>
      <trkpt lat="48.23093" lon="-3.40908">
        <ele>188.19999694824</ele>
        <time>2020-10-18T13:50:46.000Z</time>
      </trkpt>
      <trkpt lat="48.2309" lon="-3.40903">
        <ele>188.39999389648</ele>
        <time>2020-10-18T13:50:47.000Z</time>
      </trkpt>
      <trkpt lat="48.23088" lon="-3.40898">
        <ele>188.60000610352</ele>
        <time>2020-10-18T13:50:48.000Z</time>
      </trkpt>
      <trkpt lat="48.23085" lon="-3.40893">
        <ele>188.80000305176</ele>
        <time>2020-10-18T13:50:49.000Z</time>
      </trkpt>
      <trkpt lat="48.23083" lon="-3.40887">
        <ele>189.19999694824</ele>
        <time>2020-10-18T13:50:50.000Z</time>
      </trkpt>
      <trkpt lat="48.23081" lon="-3.40882">
        <ele>189.39999389648</ele>
        <time>2020-10-18T13:50:51.000Z</time>
      </trkpt>
      <trkpt lat="48.23079" lon="-3.40878">
        <ele>189.60000610352</ele>
        <time>2020-10-18T13:50:52.000Z</time>
      </trkpt>
      <trkpt lat="48.23076" lon="-3.40873">
        <ele>189.80000305176</ele>
        <time>2020-10-18T13:50:53.000Z</time>
      </trkpt>
      <trkpt lat="48.23074" lon="-3.40869">
        <ele>190</ele>
        <time>2020-10-18T13:50:54.000Z</time>
      </trkpt>
      <trkpt lat="48.23072" lon="-3.40864">
        <ele>190</ele>
        <time>2020-10-18T13:50:55.000Z</time>
      </trkpt>
      <trkpt lat="48.23069" lon="-3.40859">
        <ele>190</ele>
        <time>2020-10-18T13:50:56.000Z</time>
      </trkpt>
      <trkpt lat="48.23067" lon="-3.40854">
        <ele>190</ele>
        <time>2020-10-18T13:50:57.000Z</time>
      </trkpt>
      <trkpt lat="48.23065" lon="-3.40849">
        <ele>189.80000305176</ele>
        <time>2020-10-18T13:50:58.000Z</time>
      </trkpt>
      <trkpt lat="48.23063" lon="-3.40844">
        <ele>190.19999694824</ele>
        <time>2020-10-18T13:50:59.000Z</time>
      </trkpt>
      <trkpt lat="48.23061" lon="-3.4084">
        <ele>190.39999389648</ele>
        <time>2020-10-18T13:51:00.000Z</time>
      </trkpt>
      <trkpt lat="48.23059" lon="-3.40835">
        <ele>190.60000610352</ele>
        <time>2020-10-18T13:51:01.000Z</time>
      </trkpt>
      <trkpt lat="48.23056" lon="-3.40826">
        <ele>191.19999694824</ele>
        <time>2020-10-18T13:51:02.000Z</time>
      </trkpt>
      <trkpt lat="48.23056" lon="-3.40826">
        <ele>191.19999694824</ele>
        <time>2020-10-18T13:51:03.000Z</time>
      </trkpt>
      <trkpt lat="48.23055" lon="-3.40821">
        <ele>191.60000610352</ele>
        <time>2020-10-18T13:51:04.000Z</time>
      </trkpt>
      <trkpt lat="48.23054" lon="-3.40815">
        <ele>192</ele>
        <time>2020-10-18T13:51:05.000Z</time>
      </trkpt>
      <trkpt lat="48.23053" lon="-3.40809">
        <ele>192.39999389648</ele>
        <time>2020-10-18T13:51:06.000Z</time>
      </trkpt>
      <trkpt lat="48.23053" lon="-3.40804">
        <ele>192.60000610352</ele>
        <time>2020-10-18T13:51:07.000Z</time>
      </trkpt>
      <trkpt lat="48.23053" lon="-3.40798">
        <ele>193.19999694824</ele>
        <time>2020-10-18T13:51:08.000Z</time>
      </trkpt>
      <trkpt lat="48.23053" lon="-3.40792">
        <ele>193.60000610352</ele>
        <time>2020-10-18T13:51:09.000Z</time>
      </trkpt>
      <trkpt lat="48.23053" lon="-3.40787">
        <ele>194</ele>
        <time>2020-10-18T13:51:10.000Z</time>
      </trkpt>
      <trkpt lat="48.23054" lon="-3.40781">
        <ele>194.39999389648</ele>
        <time>2020-10-18T13:51:11.000Z</time>
      </trkpt>
      <trkpt lat="48.23055" lon="-3.40776">
        <ele>194.80000305176</ele>
        <time>2020-10-18T13:51:12.000Z</time>
      </trkpt>
      <trkpt lat="48.23056" lon="-3.4077">
        <ele>195.19999694824</ele>
        <time>2020-10-18T13:51:13.000Z</time>
      </trkpt>
      <trkpt lat="48.23056" lon="-3.40765">
        <ele>195.60000610352</ele>
        <time>2020-10-18T13:51:14.000Z</time>
      </trkpt>
      <trkpt lat="48.23056" lon="-3.4076">
        <ele>195.60000610352</ele>
        <time>2020-10-18T13:51:15.000Z</time>
      </trkpt>
      <trkpt lat="48.23058" lon="-3.40754">
        <ele>195.80000305176</ele>
        <time>2020-10-18T13:51:16.000Z</time>
      </trkpt>
      <trkpt lat="48.2306" lon="-3.40748">
        <ele>196</ele>
        <time>2020-10-18T13:51:17.000Z</time>
      </trkpt>
      <trkpt lat="48.23063" lon="-3.40742">
        <ele>196</ele>
        <time>2020-10-18T13:51:18.000Z</time>
      </trkpt>
      <trkpt lat="48.23065" lon="-3.40736">
        <ele>196.19999694824</ele>
        <time>2020-10-18T13:51:19.000Z</time>
      </trkpt>
      <trkpt lat="48.23067" lon="-3.40731">
        <ele>196.39999389648</ele>
        <time>2020-10-18T13:51:20.000Z</time>
      </trkpt>
      <trkpt lat="48.2307" lon="-3.40727">
        <ele>196.60000610352</ele>
        <time>2020-10-18T13:51:21.000Z</time>
      </trkpt>
      <trkpt lat="48.23072" lon="-3.40722">
        <ele>196.60000610352</ele>
        <time>2020-10-18T13:51:22.000Z</time>
      </trkpt>
      <trkpt lat="48.23075" lon="-3.40718">
        <ele>196.80000305176</ele>
        <time>2020-10-18T13:51:23.000Z</time>
      </trkpt>
      <trkpt lat="48.23078" lon="-3.40713">
        <ele>197</ele>
        <time>2020-10-18T13:51:24.000Z</time>
      </trkpt>
      <trkpt lat="48.23081" lon="-3.40709">
        <ele>197.19999694824</ele>
        <time>2020-10-18T13:51:25.000Z</time>
      </trkpt>
      <trkpt lat="48.23085" lon="-3.40705">
        <ele>197.39999389648</ele>
        <time>2020-10-18T13:51:26.000Z</time>
      </trkpt>
      <trkpt lat="48.23088" lon="-3.40699">
        <ele>197.60000610352</ele>
        <time>2020-10-18T13:51:27.000Z</time>
      </trkpt>
      <trkpt lat="48.23091" lon="-3.40694">
        <ele>197.60000610352</ele>
        <time>2020-10-18T13:51:28.000Z</time>
      </trkpt>
      <trkpt lat="48.23096" lon="-3.40684">
        <ele>198</ele>
        <time>2020-10-18T13:51:29.000Z</time>
      </trkpt>
      <trkpt lat="48.23096" lon="-3.40684">
        <ele>198</ele>
        <time>2020-10-18T13:51:30.000Z</time>
      </trkpt>
      <trkpt lat="48.23099" lon="-3.4068">
        <ele>198.19999694824</ele>
        <time>2020-10-18T13:51:31.000Z</time>
      </trkpt>
      <trkpt lat="48.23101" lon="-3.40675">
        <ele>198.19999694824</ele>
        <time>2020-10-18T13:51:32.000Z</time>
      </trkpt>
      <trkpt lat="48.23104" lon="-3.4067">
        <ele>198.39999389648</ele>
        <time>2020-10-18T13:51:33.000Z</time>
      </trkpt>
      <trkpt lat="48.23107" lon="-3.40666">
        <ele>198.60000610352</ele>
        <time>2020-10-18T13:51:34.000Z</time>
      </trkpt>
      <trkpt lat="48.2311" lon="-3.40661">
        <ele>198.80000305176</ele>
        <time>2020-10-18T13:51:35.000Z</time>
      </trkpt>
      <trkpt lat="48.23112" lon="-3.40657">
        <ele>199</ele>
        <time>2020-10-18T13:51:36.000Z</time>
      </trkpt>
      <trkpt lat="48.23115" lon="-3.40652">
        <ele>199</ele>
        <time>2020-10-18T13:51:37.000Z</time>
      </trkpt>
      <trkpt lat="48.23117" lon="-3.40646">
        <ele>199.19999694824</ele>
        <time>2020-10-18T13:51:38.000Z</time>
      </trkpt>
      <trkpt lat="48.23121" lon="-3.40641">
        <ele>199.39999389648</ele>
        <time>2020-10-18T13:51:39.000Z</time>
      </trkpt>
      <trkpt lat="48.23123" lon="-3.40636">
        <ele>199.60000610352</ele>
        <time>2020-10-18T13:51:40.000Z</time>
      </trkpt>
      <trkpt lat="48.23126" lon="-3.40632">
        <ele>199.80000305176</ele>
        <time>2020-10-18T13:51:41.000Z</time>
      </trkpt>
      <trkpt lat="48.23128" lon="-3.40627">
        <ele>200</ele>
        <time>2020-10-18T13:51:42.000Z</time>
      </trkpt>
      <trkpt lat="48.23131" lon="-3.40622">
        <ele>200.19999694824</ele>
        <time>2020-10-18T13:51:43.000Z</time>
      </trkpt>
      <trkpt lat="48.23133" lon="-3.40618">
        <ele>200.19999694824</ele>
        <time>2020-10-18T13:51:44.000Z</time>
      </trkpt>
      <trkpt lat="48.23135" lon="-3.40614">
        <ele>200.39999389648</ele>
        <time>2020-10-18T13:51:45.000Z</time>
      </trkpt>
      <trkpt lat="48.23137" lon="-3.40611">
        <ele>200.60000610352</ele>
        <time>2020-10-18T13:51:46.000Z</time>
      </trkpt>
      <trkpt lat="48.23139" lon="-3.40608">
        <ele>200.60000610352</ele>
        <time>2020-10-18T13:51:47.000Z</time>
      </trkpt>
      <trkpt lat="48.23141" lon="-3.40605">
        <ele>200.80000305176</ele>
        <time>2020-10-18T13:51:48.000Z</time>
      </trkpt>
      <trkpt lat="48.23143" lon="-3.40601">
        <ele>200.80000305176</ele>
        <time>2020-10-18T13:51:49.000Z</time>
      </trkpt>
      <trkpt lat="48.23146" lon="-3.40598">
        <ele>201</ele>
        <time>2020-10-18T13:51:50.000Z</time>
      </trkpt>
      <trkpt lat="48.23148" lon="-3.40595">
        <ele>201.19999694824</ele>
        <time>2020-10-18T13:51:51.000Z</time>
      </trkpt>
      <trkpt lat="48.2315" lon="-3.40591">
        <ele>201.39999389648</ele>
        <time>2020-10-18T13:51:52.000Z</time>
      </trkpt>
      <trkpt lat="48.23152" lon="-3.40588">
        <ele>201.60000610352</ele>
        <time>2020-10-18T13:51:53.000Z</time>
      </trkpt>
      <trkpt lat="48.23154" lon="-3.40585">
        <ele>201.80000305176</ele>
        <time>2020-10-18T13:51:54.000Z</time>
      </trkpt>
      <trkpt lat="48.23155" lon="-3.40581">
        <ele>202</ele>
        <time>2020-10-18T13:51:55.000Z</time>
      </trkpt>
      <trkpt lat="48.23157" lon="-3.40578">
        <ele>202.19999694824</ele>
        <time>2020-10-18T13:51:56.000Z</time>
      </trkpt>
      <trkpt lat="48.23159" lon="-3.40574">
        <ele>202.39999389648</ele>
        <time>2020-10-18T13:51:57.000Z</time>
      </trkpt>
      <trkpt lat="48.23161" lon="-3.4057">
        <ele>202.60000610352</ele>
        <time>2020-10-18T13:51:58.000Z</time>
      </trkpt>
      <trkpt lat="48.23163" lon="-3.40567">
        <ele>202.80000305176</ele>
        <time>2020-10-18T13:51:59.000Z</time>
      </trkpt>
      <trkpt lat="48.23166" lon="-3.40564">
        <ele>203</ele>
        <time>2020-10-18T13:52:00.000Z</time>
      </trkpt>
      <trkpt lat="48.23168" lon="-3.4056">
        <ele>203.19999694824</ele>
        <time>2020-10-18T13:52:01.000Z</time>
      </trkpt>
      <trkpt lat="48.23171" lon="-3.40556">
        <ele>203.60000610352</ele>
        <time>2020-10-18T13:52:02.000Z</time>
      </trkpt>
      <trkpt lat="48.23174" lon="-3.40553">
        <ele>203.80000305176</ele>
        <time>2020-10-18T13:52:03.000Z</time>
      </trkpt>
      <trkpt lat="48.23176" lon="-3.40549">
        <ele>204</ele>
        <time>2020-10-18T13:52:04.000Z</time>
      </trkpt>
      <trkpt lat="48.23179" lon="-3.40544">
        <ele>204.19999694824</ele>
        <time>2020-10-18T13:52:05.000Z</time>
      </trkpt>
      <trkpt lat="48.23181" lon="-3.4054">
        <ele>204.60000610352</ele>
        <time>2020-10-18T13:52:06.000Z</time>
      </trkpt>
      <trkpt lat="48.23185" lon="-3.40537">
        <ele>204.80000305176</ele>
        <time>2020-10-18T13:52:07.000Z</time>
      </trkpt>
      <trkpt lat="48.23187" lon="-3.40534">
        <ele>205</ele>
        <time>2020-10-18T13:52:08.000Z</time>
      </trkpt>
      <trkpt lat="48.2319" lon="-3.4053">
        <ele>205.19999694824</ele>
        <time>2020-10-18T13:52:09.000Z</time>
      </trkpt>
      <trkpt lat="48.23193" lon="-3.40526">
        <ele>205.60000610352</ele>
        <time>2020-10-18T13:52:10.000Z</time>
      </trkpt>
      <trkpt lat="48.23196" lon="-3.40522">
        <ele>205.80000305176</ele>
        <time>2020-10-18T13:52:11.000Z</time>
      </trkpt>
      <trkpt lat="48.23199" lon="-3.40517">
        <ele>206.19999694824</ele>
        <time>2020-10-18T13:52:12.000Z</time>
      </trkpt>
      <trkpt lat="48.23201" lon="-3.40513">
        <ele>206.19999694824</ele>
        <time>2020-10-18T13:52:13.000Z</time>
      </trkpt>
      <trkpt lat="48.23204" lon="-3.40509">
        <ele>206</ele>
        <time>2020-10-18T13:52:14.000Z</time>
      </trkpt>
      <trkpt lat="48.23207" lon="-3.40505">
        <ele>206</ele>
        <time>2020-10-18T13:52:15.000Z</time>
      </trkpt>
      <trkpt lat="48.23209" lon="-3.40501">
        <ele>205.80000305176</ele>
        <time>2020-10-18T13:52:16.000Z</time>
      </trkpt>
      <trkpt lat="48.23212" lon="-3.40498">
        <ele>205.80000305176</ele>
        <time>2020-10-18T13:52:17.000Z</time>
      </trkpt>
      <trkpt lat="48.23215" lon="-3.40494">
        <ele>205.60000610352</ele>
        <time>2020-10-18T13:52:18.000Z</time>
      </trkpt>
      <trkpt lat="48.23217" lon="-3.40489">
        <ele>205.60000610352</ele>
        <time>2020-10-18T13:52:19.000Z</time>
      </trkpt>
      <trkpt lat="48.2322" lon="-3.40484">
        <ele>205.39999389648</ele>
        <time>2020-10-18T13:52:20.000Z</time>
      </trkpt>
      <trkpt lat="48.23222" lon="-3.4048">
        <ele>205.19999694824</ele>
        <time>2020-10-18T13:52:21.000Z</time>
      </trkpt>
      <trkpt lat="48.23225" lon="-3.40476">
        <ele>205.19999694824</ele>
        <time>2020-10-18T13:52:22.000Z</time>
      </trkpt>
      <trkpt lat="48.23228" lon="-3.40471">
        <ele>205</ele>
        <time>2020-10-18T13:52:23.000Z</time>
      </trkpt>
      <trkpt lat="48.2323" lon="-3.40467">
        <ele>204.80000305176</ele>
        <time>2020-10-18T13:52:24.000Z</time>
      </trkpt>
      <trkpt lat="48.23232" lon="-3.40462">
        <ele>204.80000305176</ele>
        <time>2020-10-18T13:52:25.000Z</time>
      </trkpt>
      <trkpt lat="48.23235" lon="-3.40458">
        <ele>204.80000305176</ele>
        <time>2020-10-18T13:52:26.000Z</time>
      </trkpt>
      <trkpt lat="48.23237" lon="-3.40454">
        <ele>204.80000305176</ele>
        <time>2020-10-18T13:52:27.000Z</time>
      </trkpt>
      <trkpt lat="48.2324" lon="-3.40451">
        <ele>204.80000305176</ele>
        <time>2020-10-18T13:52:28.000Z</time>
      </trkpt>
      <trkpt lat="48.23242" lon="-3.40447">
        <ele>204.80000305176</ele>
        <time>2020-10-18T13:52:29.000Z</time>
      </trkpt>
      <trkpt lat="48.23244" lon="-3.40442">
        <ele>204.80000305176</ele>
        <time>2020-10-18T13:52:30.000Z</time>
      </trkpt>
      <trkpt lat="48.23246" lon="-3.40438">
        <ele>205</ele>
        <time>2020-10-18T13:52:31.000Z</time>
      </trkpt>
      <trkpt lat="48.23248" lon="-3.40434">
        <ele>205</ele>
        <time>2020-10-18T13:52:32.000Z</time>
      </trkpt>
      <trkpt lat="48.23251" lon="-3.4043">
        <ele>205</ele>
        <time>2020-10-18T13:52:33.000Z</time>
      </trkpt>
      <trkpt lat="48.23253" lon="-3.40425">
        <ele>205</ele>
        <time>2020-10-18T13:52:34.000Z</time>
      </trkpt>
      <trkpt lat="48.23255" lon="-3.4042">
        <ele>205.19999694824</ele>
        <time>2020-10-18T13:52:35.000Z</time>
      </trkpt>
      <trkpt lat="48.23258" lon="-3.40415">
        <ele>205.19999694824</ele>
        <time>2020-10-18T13:52:36.000Z</time>
      </trkpt>
      <trkpt lat="48.2326" lon="-3.40412">
        <ele>205.19999694824</ele>
        <time>2020-10-18T13:52:37.000Z</time>
      </trkpt>
      <trkpt lat="48.23263" lon="-3.40407">
        <ele>205.19999694824</ele>
        <time>2020-10-18T13:52:38.000Z</time>
      </trkpt>
      <trkpt lat="48.23265" lon="-3.40402">
        <ele>205.19999694824</ele>
        <time>2020-10-18T13:52:39.000Z</time>
      </trkpt>
      <trkpt lat="48.23268" lon="-3.40398">
        <ele>205.39999389648</ele>
        <time>2020-10-18T13:52:40.000Z</time>
      </trkpt>
      <trkpt lat="48.23271" lon="-3.40394">
        <ele>205.60000610352</ele>
        <time>2020-10-18T13:52:41.000Z</time>
      </trkpt>
      <trkpt lat="48.23273" lon="-3.40391">
        <ele>205.60000610352</ele>
        <time>2020-10-18T13:52:42.000Z</time>
      </trkpt>
      <trkpt lat="48.23276" lon="-3.40387">
        <ele>205.60000610352</ele>
        <time>2020-10-18T13:52:43.000Z</time>
      </trkpt>
      <trkpt lat="48.23278" lon="-3.40384">
        <ele>205.80000305176</ele>
        <time>2020-10-18T13:52:44.000Z</time>
      </trkpt>
      <trkpt lat="48.2328" lon="-3.4038">
        <ele>205.80000305176</ele>
        <time>2020-10-18T13:52:45.000Z</time>
      </trkpt>
      <trkpt lat="48.23283" lon="-3.40376">
        <ele>206</ele>
        <time>2020-10-18T13:52:46.000Z</time>
      </trkpt>
      <trkpt lat="48.23285" lon="-3.40373">
        <ele>206</ele>
        <time>2020-10-18T13:52:47.000Z</time>
      </trkpt>
      <trkpt lat="48.23288" lon="-3.40369">
        <ele>206</ele>
        <time>2020-10-18T13:52:48.000Z</time>
      </trkpt>
      <trkpt lat="48.2329" lon="-3.40365">
        <ele>206.19999694824</ele>
        <time>2020-10-18T13:52:49.000Z</time>
      </trkpt>
      <trkpt lat="48.23292" lon="-3.40361">
        <ele>206.19999694824</ele>
        <time>2020-10-18T13:52:50.000Z</time>
      </trkpt>
      <trkpt lat="48.23295" lon="-3.40358">
        <ele>206.39999389648</ele>
        <time>2020-10-18T13:52:51.000Z</time>
      </trkpt>
      <trkpt lat="48.23297" lon="-3.40354">
        <ele>206.39999389648</ele>
        <time>2020-10-18T13:52:52.000Z</time>
      </trkpt>
      <trkpt lat="48.233" lon="-3.40351">
        <ele>206.60000610352</ele>
        <time>2020-10-18T13:52:53.000Z</time>
      </trkpt>
      <trkpt lat="48.23302" lon="-3.40346">
        <ele>206.60000610352</ele>
        <time>2020-10-18T13:52:54.000Z</time>
      </trkpt>
      <trkpt lat="48.23304" lon="-3.40343">
        <ele>206.60000610352</ele>
        <time>2020-10-18T13:52:55.000Z</time>
      </trkpt>
      <trkpt lat="48.23307" lon="-3.40339">
        <ele>206.60000610352</ele>
        <time>2020-10-18T13:52:56.000Z</time>
      </trkpt>
      <trkpt lat="48.23309" lon="-3.40336">
        <ele>206.60000610352</ele>
        <time>2020-10-18T13:52:57.000Z</time>
      </trkpt>
      <trkpt lat="48.23312" lon="-3.40333">
        <ele>206.60000610352</ele>
        <time>2020-10-18T13:52:58.000Z</time>
      </trkpt>
      <trkpt lat="48.23314" lon="-3.40329">
        <ele>206.60000610352</ele>
        <time>2020-10-18T13:52:59.000Z</time>
      </trkpt>
      <trkpt lat="48.23316" lon="-3.40326">
        <ele>206.60000610352</ele>
        <time>2020-10-18T13:53:00.000Z</time>
      </trkpt>
      <trkpt lat="48.23318" lon="-3.40322">
        <ele>206.60000610352</ele>
        <time>2020-10-18T13:53:01.000Z</time>
      </trkpt>
      <trkpt lat="48.23323" lon="-3.40315">
        <ele>206.60000610352</ele>
        <time>2020-10-18T13:53:02.000Z</time>
      </trkpt>
      <trkpt lat="48.23323" lon="-3.40315">
        <ele>206.60000610352</ele>
        <time>2020-10-18T13:53:03.000Z</time>
      </trkpt>
      <trkpt lat="48.23326" lon="-3.40311">
        <ele>206.60000610352</ele>
        <time>2020-10-18T13:53:04.000Z</time>
      </trkpt>
      <trkpt lat="48.23329" lon="-3.40307">
        <ele>206.60000610352</ele>
        <time>2020-10-18T13:53:05.000Z</time>
      </trkpt>
      <trkpt lat="48.23331" lon="-3.40302">
        <ele>206.60000610352</ele>
        <time>2020-10-18T13:53:06.000Z</time>
      </trkpt>
      <trkpt lat="48.23334" lon="-3.40298">
        <ele>206.60000610352</ele>
        <time>2020-10-18T13:53:07.000Z</time>
      </trkpt>
      <trkpt lat="48.23336" lon="-3.40294">
        <ele>206.60000610352</ele>
        <time>2020-10-18T13:53:08.000Z</time>
      </trkpt>
      <trkpt lat="48.23338" lon="-3.4029">
        <ele>206.60000610352</ele>
        <time>2020-10-18T13:53:09.000Z</time>
      </trkpt>
      <trkpt lat="48.23341" lon="-3.40286">
        <ele>206.60000610352</ele>
        <time>2020-10-18T13:53:10.000Z</time>
      </trkpt>
      <trkpt lat="48.23343" lon="-3.40283">
        <ele>206.60000610352</ele>
        <time>2020-10-18T13:53:11.000Z</time>
      </trkpt>
      <trkpt lat="48.23345" lon="-3.40279">
        <ele>206.60000610352</ele>
        <time>2020-10-18T13:53:12.000Z</time>
      </trkpt>
      <trkpt lat="48.23347" lon="-3.40276">
        <ele>206.80000305176</ele>
        <time>2020-10-18T13:53:13.000Z</time>
      </trkpt>
      <trkpt lat="48.2335" lon="-3.40272">
        <ele>207</ele>
        <time>2020-10-18T13:53:14.000Z</time>
      </trkpt>
      <trkpt lat="48.23352" lon="-3.40269">
        <ele>207.19999694824</ele>
        <time>2020-10-18T13:53:15.000Z</time>
      </trkpt>
      <trkpt lat="48.23354" lon="-3.40265">
        <ele>207.19999694824</ele>
        <time>2020-10-18T13:53:16.000Z</time>
      </trkpt>
      <trkpt lat="48.23356" lon="-3.4026">
        <ele>207.19999694824</ele>
        <time>2020-10-18T13:53:17.000Z</time>
      </trkpt>
      <trkpt lat="48.23358" lon="-3.40256">
        <ele>207.19999694824</ele>
        <time>2020-10-18T13:53:18.000Z</time>
      </trkpt>
      <trkpt lat="48.23361" lon="-3.40252">
        <ele>207.19999694824</ele>
        <time>2020-10-18T13:53:19.000Z</time>
      </trkpt>
      <trkpt lat="48.23364" lon="-3.40248">
        <ele>207</ele>
        <time>2020-10-18T13:53:20.000Z</time>
      </trkpt>
      <trkpt lat="48.23366" lon="-3.40244">
        <ele>207</ele>
        <time>2020-10-18T13:53:21.000Z</time>
      </trkpt>
      <trkpt lat="48.23368" lon="-3.4024">
        <ele>207.19999694824</ele>
        <time>2020-10-18T13:53:22.000Z</time>
      </trkpt>
      <trkpt lat="48.23371" lon="-3.40237">
        <ele>207.19999694824</ele>
        <time>2020-10-18T13:53:23.000Z</time>
      </trkpt>
      <trkpt lat="48.23374" lon="-3.40234">
        <ele>207.19999694824</ele>
        <time>2020-10-18T13:53:24.000Z</time>
      </trkpt>
      <trkpt lat="48.23377" lon="-3.4023">
        <ele>207.19999694824</ele>
        <time>2020-10-18T13:53:25.000Z</time>
      </trkpt>
      <trkpt lat="48.23379" lon="-3.40226">
        <ele>207.39999389648</ele>
        <time>2020-10-18T13:53:26.000Z</time>
      </trkpt>
      <trkpt lat="48.23382" lon="-3.40222">
        <ele>207.39999389648</ele>
        <time>2020-10-18T13:53:27.000Z</time>
      </trkpt>
      <trkpt lat="48.23384" lon="-3.40219">
        <ele>207.60000610352</ele>
        <time>2020-10-18T13:53:28.000Z</time>
      </trkpt>
      <trkpt lat="48.23387" lon="-3.40215">
        <ele>207.60000610352</ele>
        <time>2020-10-18T13:53:29.000Z</time>
      </trkpt>
      <trkpt lat="48.23389" lon="-3.40211">
        <ele>207.80000305176</ele>
        <time>2020-10-18T13:53:30.000Z</time>
      </trkpt>
      <trkpt lat="48.23391" lon="-3.40206">
        <ele>208</ele>
        <time>2020-10-18T13:53:31.000Z</time>
      </trkpt>
      <trkpt lat="48.23393" lon="-3.40202">
        <ele>208.19999694824</ele>
        <time>2020-10-18T13:53:32.000Z</time>
      </trkpt>
      <trkpt lat="48.23396" lon="-3.40198">
        <ele>208.19999694824</ele>
        <time>2020-10-18T13:53:33.000Z</time>
      </trkpt>
      <trkpt lat="48.23398" lon="-3.40194">
        <ele>208.39999389648</ele>
        <time>2020-10-18T13:53:34.000Z</time>
      </trkpt>
      <trkpt lat="48.234" lon="-3.4019">
        <ele>208.60000610352</ele>
        <time>2020-10-18T13:53:35.000Z</time>
      </trkpt>
      <trkpt lat="48.23402" lon="-3.40185">
        <ele>208.60000610352</ele>
        <time>2020-10-18T13:53:36.000Z</time>
      </trkpt>
      <trkpt lat="48.23404" lon="-3.40181">
        <ele>208.80000305176</ele>
        <time>2020-10-18T13:53:37.000Z</time>
      </trkpt>
      <trkpt lat="48.23406" lon="-3.40177">
        <ele>208.80000305176</ele>
        <time>2020-10-18T13:53:38.000Z</time>
      </trkpt>
      <trkpt lat="48.23407" lon="-3.40173">
        <ele>208.80000305176</ele>
        <time>2020-10-18T13:53:39.000Z</time>
      </trkpt>
      <trkpt lat="48.23409" lon="-3.40169">
        <ele>208.80000305176</ele>
        <time>2020-10-18T13:53:40.000Z</time>
      </trkpt>
      <trkpt lat="48.23411" lon="-3.40164">
        <ele>208.80000305176</ele>
        <time>2020-10-18T13:53:41.000Z</time>
      </trkpt>
      <trkpt lat="48.23413" lon="-3.4016">
        <ele>209</ele>
        <time>2020-10-18T13:53:42.000Z</time>
      </trkpt>
      <trkpt lat="48.23415" lon="-3.40155">
        <ele>209</ele>
        <time>2020-10-18T13:53:43.000Z</time>
      </trkpt>
      <trkpt lat="48.23417" lon="-3.40151">
        <ele>209</ele>
        <time>2020-10-18T13:53:44.000Z</time>
      </trkpt>
      <trkpt lat="48.23419" lon="-3.40147">
        <ele>209</ele>
        <time>2020-10-18T13:53:45.000Z</time>
      </trkpt>
      <trkpt lat="48.2342" lon="-3.40142">
        <ele>209</ele>
        <time>2020-10-18T13:53:46.000Z</time>
      </trkpt>
      <trkpt lat="48.23422" lon="-3.40138">
        <ele>209</ele>
        <time>2020-10-18T13:53:47.000Z</time>
      </trkpt>
      <trkpt lat="48.23424" lon="-3.40133">
        <ele>209.19999694824</ele>
        <time>2020-10-18T13:53:48.000Z</time>
      </trkpt>
      <trkpt lat="48.23426" lon="-3.40129">
        <ele>209.19999694824</ele>
        <time>2020-10-18T13:53:49.000Z</time>
      </trkpt>
      <trkpt lat="48.23428" lon="-3.40125">
        <ele>209</ele>
        <time>2020-10-18T13:53:50.000Z</time>
      </trkpt>
      <trkpt lat="48.2343" lon="-3.40121">
        <ele>209.19999694824</ele>
        <time>2020-10-18T13:53:51.000Z</time>
      </trkpt>
      <trkpt lat="48.23432" lon="-3.40116">
        <ele>209.39999389648</ele>
        <time>2020-10-18T13:53:52.000Z</time>
      </trkpt>
      <trkpt lat="48.23434" lon="-3.40111">
        <ele>209.60000610352</ele>
        <time>2020-10-18T13:53:53.000Z</time>
      </trkpt>
      <trkpt lat="48.23436" lon="-3.40107">
        <ele>209.80000305176</ele>
        <time>2020-10-18T13:53:54.000Z</time>
      </trkpt>
      <trkpt lat="48.23441" lon="-3.40097">
        <ele>210</ele>
        <time>2020-10-18T13:53:55.000Z</time>
      </trkpt>
      <trkpt lat="48.23441" lon="-3.40097">
        <ele>210</ele>
        <time>2020-10-18T13:53:56.000Z</time>
      </trkpt>
      <trkpt lat="48.23442" lon="-3.40093">
        <ele>209.60000610352</ele>
        <time>2020-10-18T13:53:57.000Z</time>
      </trkpt>
      <trkpt lat="48.23444" lon="-3.40088">
        <ele>209.19999694824</ele>
        <time>2020-10-18T13:53:58.000Z</time>
      </trkpt>
      <trkpt lat="48.23446" lon="-3.40084">
        <ele>209</ele>
        <time>2020-10-18T13:53:59.000Z</time>
      </trkpt>
      <trkpt lat="48.23448" lon="-3.4008">
        <ele>208.80000305176</ele>
        <time>2020-10-18T13:54:00.000Z</time>
      </trkpt>
      <trkpt lat="48.2345" lon="-3.40077">
        <ele>208.60000610352</ele>
        <time>2020-10-18T13:54:01.000Z</time>
      </trkpt>
      <trkpt lat="48.23452" lon="-3.40072">
        <ele>208.39999389648</ele>
        <time>2020-10-18T13:54:02.000Z</time>
      </trkpt>
      <trkpt lat="48.23455" lon="-3.40068">
        <ele>208.39999389648</ele>
        <time>2020-10-18T13:54:03.000Z</time>
      </trkpt>
      <trkpt lat="48.23457" lon="-3.40063">
        <ele>208.39999389648</ele>
        <time>2020-10-18T13:54:04.000Z</time>
      </trkpt>
      <trkpt lat="48.23459" lon="-3.40058">
        <ele>208.19999694824</ele>
        <time>2020-10-18T13:54:05.000Z</time>
      </trkpt>
      <trkpt lat="48.23462" lon="-3.40054">
        <ele>208.19999694824</ele>
        <time>2020-10-18T13:54:06.000Z</time>
      </trkpt>
      <trkpt lat="48.23464" lon="-3.4005">
        <ele>208.19999694824</ele>
        <time>2020-10-18T13:54:07.000Z</time>
      </trkpt>
      <trkpt lat="48.23466" lon="-3.40046">
        <ele>208</ele>
        <time>2020-10-18T13:54:08.000Z</time>
      </trkpt>
      <trkpt lat="48.23468" lon="-3.40042">
        <ele>208</ele>
        <time>2020-10-18T13:54:09.000Z</time>
      </trkpt>
      <trkpt lat="48.2347" lon="-3.40038">
        <ele>208</ele>
        <time>2020-10-18T13:54:10.000Z</time>
      </trkpt>
      <trkpt lat="48.23472" lon="-3.40034">
        <ele>208</ele>
        <time>2020-10-18T13:54:11.000Z</time>
      </trkpt>
      <trkpt lat="48.23475" lon="-3.40026">
        <ele>207.80000305176</ele>
        <time>2020-10-18T13:54:12.000Z</time>
      </trkpt>
      <trkpt lat="48.23475" lon="-3.40026">
        <ele>207.80000305176</ele>
        <time>2020-10-18T13:54:13.000Z</time>
      </trkpt>
      <trkpt lat="48.23477" lon="-3.40023">
        <ele>207.80000305176</ele>
        <time>2020-10-18T13:54:14.000Z</time>
      </trkpt>
      <trkpt lat="48.23479" lon="-3.40019">
        <ele>207.80000305176</ele>
        <time>2020-10-18T13:54:15.000Z</time>
      </trkpt>
      <trkpt lat="48.2348" lon="-3.40016">
        <ele>207.80000305176</ele>
        <time>2020-10-18T13:54:16.000Z</time>
      </trkpt>
      <trkpt lat="48.23481" lon="-3.40014">
        <ele>207.80000305176</ele>
        <time>2020-10-18T13:54:17.000Z</time>
      </trkpt>
      <trkpt lat="48.23482" lon="-3.40011">
        <ele>207.60000610352</ele>
        <time>2020-10-18T13:54:18.000Z</time>
      </trkpt>
      <trkpt lat="48.23484" lon="-3.40007">
        <ele>207.39999389648</ele>
        <time>2020-10-18T13:54:19.000Z</time>
      </trkpt>
      <trkpt lat="48.23485" lon="-3.40004">
        <ele>207.19999694824</ele>
        <time>2020-10-18T13:54:20.000Z</time>
      </trkpt>
      <trkpt lat="48.23486" lon="-3.40001">
        <ele>207.19999694824</ele>
        <time>2020-10-18T13:54:21.000Z</time>
      </trkpt>
      <trkpt lat="48.23487" lon="-3.39999">
        <ele>207</ele>
        <time>2020-10-18T13:54:22.000Z</time>
      </trkpt>
      <trkpt lat="48.23488" lon="-3.39997">
        <ele>206.80000305176</ele>
        <time>2020-10-18T13:54:23.000Z</time>
      </trkpt>
      <trkpt lat="48.23489" lon="-3.39995">
        <ele>206.80000305176</ele>
        <time>2020-10-18T13:54:24.000Z</time>
      </trkpt>
      <trkpt lat="48.2349" lon="-3.39993">
        <ele>206.60000610352</ele>
        <time>2020-10-18T13:54:25.000Z</time>
      </trkpt>
      <trkpt lat="48.23492" lon="-3.39992">
        <ele>206.39999389648</ele>
        <time>2020-10-18T13:54:26.000Z</time>
      </trkpt>
      <trkpt lat="48.23492" lon="-3.39992">
        <ele>206.39999389648</ele>
        <time>2020-10-18T13:54:27.000Z</time>
      </trkpt>
      <trkpt lat="48.23492" lon="-3.39992">
        <ele>206.39999389648</ele>
        <time>2020-10-18T13:54:28.000Z</time>
      </trkpt>
      <trkpt lat="48.23493" lon="-3.39991">
        <ele>206.39999389648</ele>
        <time>2020-10-18T13:54:29.000Z</time>
      </trkpt>
      <trkpt lat="48.23493" lon="-3.39991">
        <ele>206.19999694824</ele>
        <time>2020-10-18T13:54:30.000Z</time>
      </trkpt>
      <trkpt lat="48.23494" lon="-3.39991">
        <ele>206.19999694824</ele>
        <time>2020-10-18T13:54:31.000Z</time>
      </trkpt>
      <trkpt lat="48.23494" lon="-3.39991">
        <ele>206.19999694824</ele>
        <time>2020-10-18T13:54:32.000Z</time>
      </trkpt>
      <trkpt lat="48.23494" lon="-3.39991">
        <ele>206.19999694824</ele>
        <time>2020-10-18T13:54:33.000Z</time>
      </trkpt>
      <trkpt lat="48.23494" lon="-3.39991">
        <ele>206.19999694824</ele>
        <time>2020-10-18T13:54:34.000Z</time>
      </trkpt>
      <trkpt lat="48.23494" lon="-3.39991">
        <ele>206.19999694824</ele>
        <time>2020-10-18T13:54:35.000Z</time>
      </trkpt>
      <trkpt lat="48.23494" lon="-3.39991">
        <ele>206.19999694824</ele>
        <time>2020-10-18T13:54:36.000Z</time>
      </trkpt>
      <trkpt lat="48.23494" lon="-3.39991">
        <ele>206.19999694824</ele>
        <time>2020-10-18T13:54:37.000Z</time>
      </trkpt>
      <trkpt lat="48.23494" lon="-3.39991">
        <ele>206.19999694824</ele>
        <time>2020-10-18T13:54:38.000Z</time>
      </trkpt>
      <trkpt lat="48.23494" lon="-3.39991">
        <ele>206.19999694824</ele>
        <time>2020-10-18T13:54:39.000Z</time>
      </trkpt>
      <trkpt lat="48.23494" lon="-3.39991">
        <ele>206.19999694824</ele>
        <time>2020-10-18T13:54:40.000Z</time>
      </trkpt>
      <trkpt lat="48.23494" lon="-3.39991">
        <ele>206.19999694824</ele>
        <time>2020-10-18T13:54:41.000Z</time>
      </trkpt>
      <trkpt lat="48.23494" lon="-3.39991">
        <ele>206.19999694824</ele>
        <time>2020-10-18T13:54:42.000Z</time>
      </trkpt>
      <trkpt lat="48.23494" lon="-3.39991">
        <ele>206.19999694824</ele>
        <time>2020-10-18T13:54:43.000Z</time>
      </trkpt>
      <trkpt lat="48.23494" lon="-3.39991">
        <ele>206.19999694824</ele>
        <time>2020-10-18T13:54:44.000Z</time>
      </trkpt>
      <trkpt lat="48.23494" lon="-3.39991">
        <ele>206.19999694824</ele>
        <time>2020-10-18T13:54:45.000Z</time>
      </trkpt>
      <trkpt lat="48.23494" lon="-3.39991">
        <ele>206.19999694824</ele>
        <time>2020-10-18T13:54:46.000Z</time>
      </trkpt>
      <trkpt lat="48.23494" lon="-3.39991">
        <ele>206.19999694824</ele>
        <time>2020-10-18T13:54:47.000Z</time>
      </trkpt>
      <trkpt lat="48.23494" lon="-3.39991">
        <ele>206.19999694824</ele>
        <time>2020-10-18T13:54:48.000Z</time>
      </trkpt>
      <trkpt lat="48.23494" lon="-3.39991">
        <ele>206.19999694824</ele>
        <time>2020-10-18T13:54:49.000Z</time>
      </trkpt>
      <trkpt lat="48.23494" lon="-3.39991">
        <ele>206.19999694824</ele>
        <time>2020-10-18T13:54:50.000Z</time>
      </trkpt>
      <trkpt lat="48.23494" lon="-3.39991">
        <ele>206.19999694824</ele>
        <time>2020-10-18T13:54:51.000Z</time>
      </trkpt>
      <trkpt lat="48.23494" lon="-3.39991">
        <ele>206.19999694824</ele>
        <time>2020-10-18T13:54:52.000Z</time>
      </trkpt>
      <trkpt lat="48.23494" lon="-3.39991">
        <ele>206.19999694824</ele>
        <time>2020-10-18T13:54:53.000Z</time>
      </trkpt>
      <trkpt lat="48.23494" lon="-3.39991">
        <ele>206.19999694824</ele>
        <time>2020-10-18T13:54:54.000Z</time>
      </trkpt>
      <trkpt lat="48.23494" lon="-3.39991">
        <ele>206.19999694824</ele>
        <time>2020-10-18T13:54:55.000Z</time>
      </trkpt>
      <trkpt lat="48.23494" lon="-3.39991">
        <ele>206.19999694824</ele>
        <time>2020-10-18T13:54:56.000Z</time>
      </trkpt>
      <trkpt lat="48.23494" lon="-3.39991">
        <ele>206.19999694824</ele>
        <time>2020-10-18T13:54:57.000Z</time>
      </trkpt>
      <trkpt lat="48.23494" lon="-3.39991">
        <ele>206.19999694824</ele>
        <time>2020-10-18T13:54:58.000Z</time>
      </trkpt>
      <trkpt lat="48.23494" lon="-3.39991">
        <ele>206.19999694824</ele>
        <time>2020-10-18T13:54:59.000Z</time>
      </trkpt>
      <trkpt lat="48.23494" lon="-3.39991">
        <ele>206.19999694824</ele>
        <time>2020-10-18T13:55:00.000Z</time>
      </trkpt>
      <trkpt lat="48.23494" lon="-3.39991">
        <ele>206.19999694824</ele>
        <time>2020-10-18T13:55:01.000Z</time>
      </trkpt>
      <trkpt lat="48.23494" lon="-3.39991">
        <ele>206.19999694824</ele>
        <time>2020-10-18T13:55:02.000Z</time>
      </trkpt>
      <trkpt lat="48.23494" lon="-3.39991">
        <ele>206.19999694824</ele>
        <time>2020-10-18T13:55:03.000Z</time>
      </trkpt>
      <trkpt lat="48.23494" lon="-3.39991">
        <ele>206.19999694824</ele>
        <time>2020-10-18T13:55:04.000Z</time>
      </trkpt>
      <trkpt lat="48.23494" lon="-3.39991">
        <ele>206.19999694824</ele>
        <time>2020-10-18T13:55:05.000Z</time>
      </trkpt>
      <trkpt lat="48.23494" lon="-3.39991">
        <ele>206.19999694824</ele>
        <time>2020-10-18T13:55:06.000Z</time>
      </trkpt>
      <trkpt lat="48.23494" lon="-3.39991">
        <ele>206.19999694824</ele>
        <time>2020-10-18T13:55:07.000Z</time>
      </trkpt>
      <trkpt lat="48.23494" lon="-3.39991">
        <ele>206.19999694824</ele>
        <time>2020-10-18T13:55:08.000Z</time>
      </trkpt>
      <trkpt lat="48.23494" lon="-3.39991">
        <ele>206.19999694824</ele>
        <time>2020-10-18T13:55:09.000Z</time>
      </trkpt>
      <trkpt lat="48.23494" lon="-3.39991">
        <ele>206.19999694824</ele>
        <time>2020-10-18T13:55:10.000Z</time>
      </trkpt>
      <trkpt lat="48.23494" lon="-3.39991">
        <ele>206.19999694824</ele>
        <time>2020-10-18T13:55:11.000Z</time>
      </trkpt>
      <trkpt lat="48.23494" lon="-3.39991">
        <ele>206.19999694824</ele>
        <time>2020-10-18T13:55:12.000Z</time>
      </trkpt>
      <trkpt lat="48.23494" lon="-3.39991">
        <ele>206.19999694824</ele>
        <time>2020-10-18T13:55:13.000Z</time>
      </trkpt>
      <trkpt lat="48.23494" lon="-3.39991">
        <ele>206.19999694824</ele>
        <time>2020-10-18T13:55:14.000Z</time>
      </trkpt>
      <trkpt lat="48.23494" lon="-3.39991">
        <ele>206.19999694824</ele>
        <time>2020-10-18T13:55:15.000Z</time>
      </trkpt>
      <trkpt lat="48.23494" lon="-3.39991">
        <ele>206.19999694824</ele>
        <time>2020-10-18T13:55:16.000Z</time>
      </trkpt>
      <trkpt lat="48.23494" lon="-3.39991">
        <ele>206.19999694824</ele>
        <time>2020-10-18T13:55:17.000Z</time>
      </trkpt>
      <trkpt lat="48.23494" lon="-3.39991">
        <ele>206.19999694824</ele>
        <time>2020-10-18T13:55:18.000Z</time>
      </trkpt>
      <trkpt lat="48.23494" lon="-3.39991">
        <ele>206.19999694824</ele>
        <time>2020-10-18T13:55:19.000Z</time>
      </trkpt>
      <trkpt lat="48.23494" lon="-3.39991">
        <ele>206.19999694824</ele>
        <time>2020-10-18T13:55:20.000Z</time>
      </trkpt>
      <trkpt lat="48.23494" lon="-3.39991">
        <ele>206.19999694824</ele>
        <time>2020-10-18T13:55:21.000Z</time>
      </trkpt>
      <trkpt lat="48.23494" lon="-3.39991">
        <ele>206.19999694824</ele>
        <time>2020-10-18T13:55:22.000Z</time>
      </trkpt>
      <trkpt lat="48.23494" lon="-3.39991">
        <ele>206.19999694824</ele>
        <time>2020-10-18T13:55:23.000Z</time>
      </trkpt>
      <trkpt lat="48.23494" lon="-3.39991">
        <ele>206.19999694824</ele>
        <time>2020-10-18T13:55:24.000Z</time>
      </trkpt>
      <trkpt lat="48.23494" lon="-3.39991">
        <ele>206.19999694824</ele>
        <time>2020-10-18T13:55:25.000Z</time>
      </trkpt>
      <trkpt lat="48.23494" lon="-3.39991">
        <ele>206.19999694824</ele>
        <time>2020-10-18T13:55:26.000Z</time>
      </trkpt>
      <trkpt lat="48.23494" lon="-3.39991">
        <ele>206.19999694824</ele>
        <time>2020-10-18T13:55:27.000Z</time>
      </trkpt>
      <trkpt lat="48.23494" lon="-3.39991">
        <ele>206.19999694824</ele>
        <time>2020-10-18T13:55:28.000Z</time>
      </trkpt>
      <trkpt lat="48.23494" lon="-3.39991">
        <ele>206.19999694824</ele>
        <time>2020-10-18T13:55:29.000Z</time>
      </trkpt>
      <trkpt lat="48.23494" lon="-3.39991">
        <ele>206.19999694824</ele>
        <time>2020-10-18T13:55:30.000Z</time>
      </trkpt>
      <trkpt lat="48.23494" lon="-3.39991">
        <ele>206.19999694824</ele>
        <time>2020-10-18T13:55:31.000Z</time>
      </trkpt>
      <trkpt lat="48.23494" lon="-3.39991">
        <ele>206.19999694824</ele>
        <time>2020-10-18T13:55:32.000Z</time>
      </trkpt>
      <trkpt lat="48.23494" lon="-3.39991">
        <ele>206.19999694824</ele>
        <time>2020-10-18T13:55:33.000Z</time>
      </trkpt>
      <trkpt lat="48.23494" lon="-3.39991">
        <ele>206.19999694824</ele>
        <time>2020-10-18T13:55:34.000Z</time>
      </trkpt>
      <trkpt lat="48.23494" lon="-3.39991">
        <ele>206.19999694824</ele>
        <time>2020-10-18T13:55:35.000Z</time>
      </trkpt>
      <trkpt lat="48.23494" lon="-3.39991">
        <ele>206.19999694824</ele>
        <time>2020-10-18T13:55:36.000Z</time>
      </trkpt>
      <trkpt lat="48.23494" lon="-3.39991">
        <ele>206.19999694824</ele>
        <time>2020-10-18T13:55:37.000Z</time>
      </trkpt>
      <trkpt lat="48.23494" lon="-3.39991">
        <ele>206.19999694824</ele>
        <time>2020-10-18T13:55:38.000Z</time>
      </trkpt>
      <trkpt lat="48.23494" lon="-3.39991">
        <ele>206.19999694824</ele>
        <time>2020-10-18T13:55:39.000Z</time>
      </trkpt>
      <trkpt lat="48.23494" lon="-3.39991">
        <ele>206.19999694824</ele>
        <time>2020-10-18T13:55:40.000Z</time>
      </trkpt>
      <trkpt lat="48.23494" lon="-3.39991">
        <ele>206.19999694824</ele>
        <time>2020-10-18T13:55:41.000Z</time>
      </trkpt>
      <trkpt lat="48.23494" lon="-3.39991">
        <ele>206.19999694824</ele>
        <time>2020-10-18T13:55:42.000Z</time>
      </trkpt>
      <trkpt lat="48.23494" lon="-3.39991">
        <ele>206.19999694824</ele>
        <time>2020-10-18T13:55:43.000Z</time>
      </trkpt>
      <trkpt lat="48.23494" lon="-3.39991">
        <ele>206.19999694824</ele>
        <time>2020-10-18T13:55:44.000Z</time>
      </trkpt>
      <trkpt lat="48.23494" lon="-3.39991">
        <ele>206.19999694824</ele>
        <time>2020-10-18T13:55:45.000Z</time>
      </trkpt>
      <trkpt lat="48.23494" lon="-3.39991">
        <ele>206.19999694824</ele>
        <time>2020-10-18T13:55:46.000Z</time>
      </trkpt>
      <trkpt lat="48.23494" lon="-3.39991">
        <ele>206.19999694824</ele>
        <time>2020-10-18T13:55:47.000Z</time>
      </trkpt>
      <trkpt lat="48.23494" lon="-3.39991">
        <ele>206.19999694824</ele>
        <time>2020-10-18T13:55:48.000Z</time>
      </trkpt>
      <trkpt lat="48.23494" lon="-3.39991">
        <ele>206.19999694824</ele>
        <time>2020-10-18T13:55:49.000Z</time>
      </trkpt>
      <trkpt lat="48.23494" lon="-3.39991">
        <ele>206.19999694824</ele>
        <time>2020-10-18T13:55:50.000Z</time>
      </trkpt>
      <trkpt lat="48.23494" lon="-3.39991">
        <ele>206.19999694824</ele>
        <time>2020-10-18T13:55:51.000Z</time>
      </trkpt>
      <trkpt lat="48.23494" lon="-3.39991">
        <ele>206.19999694824</ele>
        <time>2020-10-18T13:55:52.000Z</time>
      </trkpt>
      <trkpt lat="48.23494" lon="-3.39991">
        <ele>206.19999694824</ele>
        <time>2020-10-18T13:55:53.000Z</time>
      </trkpt>
      <trkpt lat="48.23494" lon="-3.39991">
        <ele>206.19999694824</ele>
        <time>2020-10-18T13:55:54.000Z</time>
      </trkpt>
      <trkpt lat="48.23494" lon="-3.39991">
        <ele>206.19999694824</ele>
        <time>2020-10-18T13:55:55.000Z</time>
      </trkpt>
      <trkpt lat="48.23494" lon="-3.39991">
        <ele>206.19999694824</ele>
        <time>2020-10-18T13:55:56.000Z</time>
      </trkpt>
      <trkpt lat="48.23494" lon="-3.39991">
        <ele>206.19999694824</ele>
        <time>2020-10-18T13:55:57.000Z</time>
      </trkpt>
      <trkpt lat="48.23494" lon="-3.39991">
        <ele>206.19999694824</ele>
        <time>2020-10-18T13:55:58.000Z</time>
      </trkpt>
      <trkpt lat="48.23494" lon="-3.39991">
        <ele>206.19999694824</ele>
        <time>2020-10-18T13:55:59.000Z</time>
      </trkpt>
      <trkpt lat="48.23494" lon="-3.39991">
        <ele>206.19999694824</ele>
        <time>2020-10-18T13:56:00.000Z</time>
      </trkpt>
      <trkpt lat="48.23494" lon="-3.39991">
        <ele>206.19999694824</ele>
        <time>2020-10-18T13:56:01.000Z</time>
      </trkpt>
      <trkpt lat="48.23494" lon="-3.39991">
        <ele>206.19999694824</ele>
        <time>2020-10-18T13:56:02.000Z</time>
      </trkpt>
      <trkpt lat="48.23494" lon="-3.39991">
        <ele>206.19999694824</ele>
        <time>2020-10-18T13:56:03.000Z</time>
      </trkpt>
      <trkpt lat="48.23494" lon="-3.39991">
        <ele>206.19999694824</ele>
        <time>2020-10-18T13:56:04.000Z</time>
      </trkpt>
      <trkpt lat="48.23494" lon="-3.39991">
        <ele>206.19999694824</ele>
        <time>2020-10-18T13:56:05.000Z</time>
      </trkpt>
      <trkpt lat="48.23494" lon="-3.39991">
        <ele>206.19999694824</ele>
        <time>2020-10-18T13:56:06.000Z</time>
      </trkpt>
      <trkpt lat="48.23494" lon="-3.39991">
        <ele>206.19999694824</ele>
        <time>2020-10-18T13:56:07.000Z</time>
      </trkpt>
      <trkpt lat="48.23494" lon="-3.39991">
        <ele>206.19999694824</ele>
        <time>2020-10-18T13:56:08.000Z</time>
      </trkpt>
      <trkpt lat="48.23494" lon="-3.39991">
        <ele>206.19999694824</ele>
        <time>2020-10-18T13:56:09.000Z</time>
      </trkpt>
      <trkpt lat="48.23494" lon="-3.39991">
        <ele>206.19999694824</ele>
        <time>2020-10-18T13:56:10.000Z</time>
      </trkpt>
      <trkpt lat="48.23494" lon="-3.39991">
        <ele>206.19999694824</ele>
        <time>2020-10-18T13:56:11.000Z</time>
      </trkpt>
      <trkpt lat="48.23494" lon="-3.39991">
        <ele>206.19999694824</ele>
        <time>2020-10-18T13:56:12.000Z</time>
      </trkpt>
      <trkpt lat="48.23494" lon="-3.39991">
        <ele>206.19999694824</ele>
        <time>2020-10-18T13:56:13.000Z</time>
      </trkpt>
      <trkpt lat="48.23494" lon="-3.39991">
        <ele>206.19999694824</ele>
        <time>2020-10-18T13:56:14.000Z</time>
      </trkpt>
      <trkpt lat="48.23494" lon="-3.39991">
        <ele>206.19999694824</ele>
        <time>2020-10-18T13:56:15.000Z</time>
      </trkpt>
      <trkpt lat="48.23494" lon="-3.39991">
        <ele>206.19999694824</ele>
        <time>2020-10-18T13:56:16.000Z</time>
      </trkpt>
      <trkpt lat="48.23494" lon="-3.39991">
        <ele>206.19999694824</ele>
        <time>2020-10-18T13:56:17.000Z</time>
      </trkpt>
      <trkpt lat="48.23494" lon="-3.3999">
        <ele>206.19999694824</ele>
        <time>2020-10-18T13:56:18.000Z</time>
      </trkpt>
      <trkpt lat="48.23495" lon="-3.39989">
        <ele>206</ele>
        <time>2020-10-18T13:56:19.000Z</time>
      </trkpt>
      <trkpt lat="48.23495" lon="-3.39988">
        <ele>206</ele>
        <time>2020-10-18T13:56:20.000Z</time>
      </trkpt>
      <trkpt lat="48.23496" lon="-3.39987">
        <ele>206</ele>
        <time>2020-10-18T13:56:21.000Z</time>
      </trkpt>
      <trkpt lat="48.23496" lon="-3.39985">
        <ele>206</ele>
        <time>2020-10-18T13:56:22.000Z</time>
      </trkpt>
      <trkpt lat="48.23497" lon="-3.39982">
        <ele>205.80000305176</ele>
        <time>2020-10-18T13:56:23.000Z</time>
      </trkpt>
      <trkpt lat="48.23498" lon="-3.39979">
        <ele>205.80000305176</ele>
        <time>2020-10-18T13:56:24.000Z</time>
      </trkpt>
      <trkpt lat="48.23499" lon="-3.39976">
        <ele>205.60000610352</ele>
        <time>2020-10-18T13:56:25.000Z</time>
      </trkpt>
      <trkpt lat="48.23501" lon="-3.39972">
        <ele>205.39999389648</ele>
        <time>2020-10-18T13:56:26.000Z</time>
      </trkpt>
      <trkpt lat="48.23504" lon="-3.39967">
        <ele>205</ele>
        <time>2020-10-18T13:56:27.000Z</time>
      </trkpt>
      <trkpt lat="48.23506" lon="-3.39961">
        <ele>204.80000305176</ele>
        <time>2020-10-18T13:56:28.000Z</time>
      </trkpt>
      <trkpt lat="48.23508" lon="-3.39956">
        <ele>204.60000610352</ele>
        <time>2020-10-18T13:56:29.000Z</time>
      </trkpt>
      <trkpt lat="48.2351" lon="-3.39951">
        <ele>204.19999694824</ele>
        <time>2020-10-18T13:56:30.000Z</time>
      </trkpt>
      <trkpt lat="48.23513" lon="-3.39945">
        <ele>204</ele>
        <time>2020-10-18T13:56:31.000Z</time>
      </trkpt>
      <trkpt lat="48.23515" lon="-3.3994">
        <ele>204</ele>
        <time>2020-10-18T13:56:32.000Z</time>
      </trkpt>
      <trkpt lat="48.23517" lon="-3.39935">
        <ele>204.19999694824</ele>
        <time>2020-10-18T13:56:33.000Z</time>
      </trkpt>
      <trkpt lat="48.2352" lon="-3.3993">
        <ele>204.19999694824</ele>
        <time>2020-10-18T13:56:34.000Z</time>
      </trkpt>
      <trkpt lat="48.23522" lon="-3.39925">
        <ele>204</ele>
        <time>2020-10-18T13:56:35.000Z</time>
      </trkpt>
      <trkpt lat="48.23524" lon="-3.39921">
        <ele>203.60000610352</ele>
        <time>2020-10-18T13:56:36.000Z</time>
      </trkpt>
      <trkpt lat="48.23526" lon="-3.39917">
        <ele>203.60000610352</ele>
        <time>2020-10-18T13:56:37.000Z</time>
      </trkpt>
      <trkpt lat="48.23529" lon="-3.39913">
        <ele>203.60000610352</ele>
        <time>2020-10-18T13:56:38.000Z</time>
      </trkpt>
      <trkpt lat="48.23531" lon="-3.39908">
        <ele>203.60000610352</ele>
        <time>2020-10-18T13:56:39.000Z</time>
      </trkpt>
      <trkpt lat="48.23533" lon="-3.39904">
        <ele>203.60000610352</ele>
        <time>2020-10-18T13:56:40.000Z</time>
      </trkpt>
      <trkpt lat="48.23537" lon="-3.39895">
        <ele>203.80000305176</ele>
        <time>2020-10-18T13:56:41.000Z</time>
      </trkpt>
      <trkpt lat="48.23537" lon="-3.39895">
        <ele>203.80000305176</ele>
        <time>2020-10-18T13:56:42.000Z</time>
      </trkpt>
      <trkpt lat="48.2354" lon="-3.39891">
        <ele>204</ele>
        <time>2020-10-18T13:56:43.000Z</time>
      </trkpt>
      <trkpt lat="48.23542" lon="-3.39886">
        <ele>204.19999694824</ele>
        <time>2020-10-18T13:56:44.000Z</time>
      </trkpt>
      <trkpt lat="48.23544" lon="-3.39881">
        <ele>204.19999694824</ele>
        <time>2020-10-18T13:56:45.000Z</time>
      </trkpt>
      <trkpt lat="48.23546" lon="-3.39876">
        <ele>204.39999389648</ele>
        <time>2020-10-18T13:56:46.000Z</time>
      </trkpt>
      <trkpt lat="48.23549" lon="-3.39871">
        <ele>204.39999389648</ele>
        <time>2020-10-18T13:56:47.000Z</time>
      </trkpt>
      <trkpt lat="48.23552" lon="-3.39867">
        <ele>204.39999389648</ele>
        <time>2020-10-18T13:56:48.000Z</time>
      </trkpt>
      <trkpt lat="48.23555" lon="-3.39862">
        <ele>204.39999389648</ele>
        <time>2020-10-18T13:56:49.000Z</time>
      </trkpt>
      <trkpt lat="48.23557" lon="-3.39857">
        <ele>204.60000610352</ele>
        <time>2020-10-18T13:56:50.000Z</time>
      </trkpt>
      <trkpt lat="48.2356" lon="-3.39853">
        <ele>204.60000610352</ele>
        <time>2020-10-18T13:56:51.000Z</time>
      </trkpt>
      <trkpt lat="48.23562" lon="-3.39848">
        <ele>204.60000610352</ele>
        <time>2020-10-18T13:56:52.000Z</time>
      </trkpt>
      <trkpt lat="48.23564" lon="-3.39844">
        <ele>204.60000610352</ele>
        <time>2020-10-18T13:56:53.000Z</time>
      </trkpt>
      <trkpt lat="48.23566" lon="-3.3984">
        <ele>204.39999389648</ele>
        <time>2020-10-18T13:56:54.000Z</time>
      </trkpt>
      <trkpt lat="48.23568" lon="-3.39836">
        <ele>204.39999389648</ele>
        <time>2020-10-18T13:56:55.000Z</time>
      </trkpt>
      <trkpt lat="48.2357" lon="-3.39831">
        <ele>204.19999694824</ele>
        <time>2020-10-18T13:56:56.000Z</time>
      </trkpt>
      <trkpt lat="48.23571" lon="-3.39826">
        <ele>204.19999694824</ele>
        <time>2020-10-18T13:56:57.000Z</time>
      </trkpt>
      <trkpt lat="48.23573" lon="-3.39821">
        <ele>204.19999694824</ele>
        <time>2020-10-18T13:56:58.000Z</time>
      </trkpt>
      <trkpt lat="48.23575" lon="-3.39815">
        <ele>204</ele>
        <time>2020-10-18T13:56:59.000Z</time>
      </trkpt>
      <trkpt lat="48.23577" lon="-3.3981">
        <ele>204</ele>
        <time>2020-10-18T13:57:00.000Z</time>
      </trkpt>
      <trkpt lat="48.23579" lon="-3.39805">
        <ele>203.80000305176</ele>
        <time>2020-10-18T13:57:01.000Z</time>
      </trkpt>
      <trkpt lat="48.23582" lon="-3.398">
        <ele>203.60000610352</ele>
        <time>2020-10-18T13:57:02.000Z</time>
      </trkpt>
      <trkpt lat="48.23584" lon="-3.39794">
        <ele>203.60000610352</ele>
        <time>2020-10-18T13:57:03.000Z</time>
      </trkpt>
      <trkpt lat="48.23586" lon="-3.39789">
        <ele>203.39999389648</ele>
        <time>2020-10-18T13:57:04.000Z</time>
      </trkpt>
      <trkpt lat="48.23589" lon="-3.39783">
        <ele>203.39999389648</ele>
        <time>2020-10-18T13:57:05.000Z</time>
      </trkpt>
      <trkpt lat="48.23592" lon="-3.39777">
        <ele>203.19999694824</ele>
        <time>2020-10-18T13:57:06.000Z</time>
      </trkpt>
      <trkpt lat="48.23595" lon="-3.39771">
        <ele>203</ele>
        <time>2020-10-18T13:57:07.000Z</time>
      </trkpt>
      <trkpt lat="48.23597" lon="-3.39765">
        <ele>203</ele>
        <time>2020-10-18T13:57:08.000Z</time>
      </trkpt>
      <trkpt lat="48.236" lon="-3.3976">
        <ele>203</ele>
        <time>2020-10-18T13:57:09.000Z</time>
      </trkpt>
      <trkpt lat="48.23602" lon="-3.39755">
        <ele>203.19999694824</ele>
        <time>2020-10-18T13:57:10.000Z</time>
      </trkpt>
      <trkpt lat="48.23605" lon="-3.39749">
        <ele>203.39999389648</ele>
        <time>2020-10-18T13:57:11.000Z</time>
      </trkpt>
      <trkpt lat="48.23608" lon="-3.39744">
        <ele>203.60000610352</ele>
        <time>2020-10-18T13:57:12.000Z</time>
      </trkpt>
      <trkpt lat="48.23611" lon="-3.39738">
        <ele>203.60000610352</ele>
        <time>2020-10-18T13:57:13.000Z</time>
      </trkpt>
      <trkpt lat="48.23613" lon="-3.39733">
        <ele>203.80000305176</ele>
        <time>2020-10-18T13:57:14.000Z</time>
      </trkpt>
      <trkpt lat="48.23616" lon="-3.39728">
        <ele>204</ele>
        <time>2020-10-18T13:57:15.000Z</time>
      </trkpt>
      <trkpt lat="48.23618" lon="-3.39723">
        <ele>204.19999694824</ele>
        <time>2020-10-18T13:57:16.000Z</time>
      </trkpt>
      <trkpt lat="48.2362" lon="-3.39718">
        <ele>204.39999389648</ele>
        <time>2020-10-18T13:57:17.000Z</time>
      </trkpt>
      <trkpt lat="48.23623" lon="-3.39713">
        <ele>204.60000610352</ele>
        <time>2020-10-18T13:57:18.000Z</time>
      </trkpt>
      <trkpt lat="48.23625" lon="-3.39708">
        <ele>204.60000610352</ele>
        <time>2020-10-18T13:57:19.000Z</time>
      </trkpt>
      <trkpt lat="48.23627" lon="-3.39702">
        <ele>204.80000305176</ele>
        <time>2020-10-18T13:57:20.000Z</time>
      </trkpt>
      <trkpt lat="48.2363" lon="-3.39697">
        <ele>205</ele>
        <time>2020-10-18T13:57:21.000Z</time>
      </trkpt>
      <trkpt lat="48.23632" lon="-3.39692">
        <ele>205.19999694824</ele>
        <time>2020-10-18T13:57:22.000Z</time>
      </trkpt>
      <trkpt lat="48.23635" lon="-3.39687">
        <ele>205.39999389648</ele>
        <time>2020-10-18T13:57:23.000Z</time>
      </trkpt>
      <trkpt lat="48.23637" lon="-3.39682">
        <ele>205.39999389648</ele>
        <time>2020-10-18T13:57:24.000Z</time>
      </trkpt>
      <trkpt lat="48.23639" lon="-3.39677">
        <ele>205.19999694824</ele>
        <time>2020-10-18T13:57:25.000Z</time>
      </trkpt>
      <trkpt lat="48.23642" lon="-3.39672">
        <ele>205</ele>
        <time>2020-10-18T13:57:26.000Z</time>
      </trkpt>
      <trkpt lat="48.23644" lon="-3.39666">
        <ele>204.80000305176</ele>
        <time>2020-10-18T13:57:27.000Z</time>
      </trkpt>
      <trkpt lat="48.23647" lon="-3.39661">
        <ele>204.39999389648</ele>
        <time>2020-10-18T13:57:28.000Z</time>
      </trkpt>
      <trkpt lat="48.23649" lon="-3.39657">
        <ele>204.19999694824</ele>
        <time>2020-10-18T13:57:29.000Z</time>
      </trkpt>
      <trkpt lat="48.23651" lon="-3.39653">
        <ele>204</ele>
        <time>2020-10-18T13:57:30.000Z</time>
      </trkpt>
      <trkpt lat="48.23653" lon="-3.39648">
        <ele>203.80000305176</ele>
        <time>2020-10-18T13:57:31.000Z</time>
      </trkpt>
      <trkpt lat="48.23656" lon="-3.39643">
        <ele>203.39999389648</ele>
        <time>2020-10-18T13:57:32.000Z</time>
      </trkpt>
      <trkpt lat="48.23658" lon="-3.39638">
        <ele>203.19999694824</ele>
        <time>2020-10-18T13:57:33.000Z</time>
      </trkpt>
      <trkpt lat="48.2366" lon="-3.39632">
        <ele>203</ele>
        <time>2020-10-18T13:57:34.000Z</time>
      </trkpt>
      <trkpt lat="48.23664" lon="-3.39628">
        <ele>202.60000610352</ele>
        <time>2020-10-18T13:57:35.000Z</time>
      </trkpt>
      <trkpt lat="48.23666" lon="-3.39623">
        <ele>202.39999389648</ele>
        <time>2020-10-18T13:57:36.000Z</time>
      </trkpt>
      <trkpt lat="48.23669" lon="-3.39618">
        <ele>202.19999694824</ele>
        <time>2020-10-18T13:57:37.000Z</time>
      </trkpt>
      <trkpt lat="48.23671" lon="-3.39614">
        <ele>201.80000305176</ele>
        <time>2020-10-18T13:57:38.000Z</time>
      </trkpt>
      <trkpt lat="48.23674" lon="-3.39609">
        <ele>201.60000610352</ele>
        <time>2020-10-18T13:57:39.000Z</time>
      </trkpt>
      <trkpt lat="48.23676" lon="-3.39603">
        <ele>201.39999389648</ele>
        <time>2020-10-18T13:57:40.000Z</time>
      </trkpt>
      <trkpt lat="48.23678" lon="-3.39598">
        <ele>201.19999694824</ele>
        <time>2020-10-18T13:57:41.000Z</time>
      </trkpt>
      <trkpt lat="48.23681" lon="-3.39592">
        <ele>201.39999389648</ele>
        <time>2020-10-18T13:57:42.000Z</time>
      </trkpt>
      <trkpt lat="48.23684" lon="-3.39586">
        <ele>201.60000610352</ele>
        <time>2020-10-18T13:57:43.000Z</time>
      </trkpt>
      <trkpt lat="48.23686" lon="-3.3958">
        <ele>201.80000305176</ele>
        <time>2020-10-18T13:57:44.000Z</time>
      </trkpt>
      <trkpt lat="48.23689" lon="-3.39574">
        <ele>202.19999694824</ele>
        <time>2020-10-18T13:57:45.000Z</time>
      </trkpt>
      <trkpt lat="48.23692" lon="-3.39568">
        <ele>202.39999389648</ele>
        <time>2020-10-18T13:57:46.000Z</time>
      </trkpt>
      <trkpt lat="48.23694" lon="-3.39562">
        <ele>202.80000305176</ele>
        <time>2020-10-18T13:57:47.000Z</time>
      </trkpt>
      <trkpt lat="48.23696" lon="-3.39556">
        <ele>203</ele>
        <time>2020-10-18T13:57:48.000Z</time>
      </trkpt>
      <trkpt lat="48.23698" lon="-3.39551">
        <ele>203.19999694824</ele>
        <time>2020-10-18T13:57:49.000Z</time>
      </trkpt>
      <trkpt lat="48.237" lon="-3.39545">
        <ele>203.60000610352</ele>
        <time>2020-10-18T13:57:50.000Z</time>
      </trkpt>
      <trkpt lat="48.23702" lon="-3.39537">
        <ele>204</ele>
        <time>2020-10-18T13:57:51.000Z</time>
      </trkpt>
      <trkpt lat="48.23705" lon="-3.39531">
        <ele>204.19999694824</ele>
        <time>2020-10-18T13:57:52.000Z</time>
      </trkpt>
      <trkpt lat="48.23708" lon="-3.39526">
        <ele>204.39999389648</ele>
        <time>2020-10-18T13:57:53.000Z</time>
      </trkpt>
      <trkpt lat="48.23711" lon="-3.3952">
        <ele>204.80000305176</ele>
        <time>2020-10-18T13:57:54.000Z</time>
      </trkpt>
      <trkpt lat="48.23713" lon="-3.39515">
        <ele>205</ele>
        <time>2020-10-18T13:57:55.000Z</time>
      </trkpt>
      <trkpt lat="48.23716" lon="-3.3951">
        <ele>204.80000305176</ele>
        <time>2020-10-18T13:57:56.000Z</time>
      </trkpt>
      <trkpt lat="48.23718" lon="-3.39504">
        <ele>204.60000610352</ele>
        <time>2020-10-18T13:57:57.000Z</time>
      </trkpt>
      <trkpt lat="48.23721" lon="-3.39499">
        <ele>204.39999389648</ele>
        <time>2020-10-18T13:57:58.000Z</time>
      </trkpt>
      <trkpt lat="48.23723" lon="-3.39494">
        <ele>204</ele>
        <time>2020-10-18T13:57:59.000Z</time>
      </trkpt>
      <trkpt lat="48.23726" lon="-3.39489">
        <ele>203.80000305176</ele>
        <time>2020-10-18T13:58:00.000Z</time>
      </trkpt>
      <trkpt lat="48.23729" lon="-3.39484">
        <ele>203.60000610352</ele>
        <time>2020-10-18T13:58:01.000Z</time>
      </trkpt>
      <trkpt lat="48.23732" lon="-3.39479">
        <ele>203.39999389648</ele>
        <time>2020-10-18T13:58:02.000Z</time>
      </trkpt>
      <trkpt lat="48.23734" lon="-3.39474">
        <ele>203.19999694824</ele>
        <time>2020-10-18T13:58:03.000Z</time>
      </trkpt>
      <trkpt lat="48.23737" lon="-3.39469">
        <ele>203</ele>
        <time>2020-10-18T13:58:04.000Z</time>
      </trkpt>
      <trkpt lat="48.23739" lon="-3.39465">
        <ele>202.80000305176</ele>
        <time>2020-10-18T13:58:05.000Z</time>
      </trkpt>
      <trkpt lat="48.23741" lon="-3.39461">
        <ele>202.60000610352</ele>
        <time>2020-10-18T13:58:06.000Z</time>
      </trkpt>
      <trkpt lat="48.23743" lon="-3.39455">
        <ele>202.39999389648</ele>
        <time>2020-10-18T13:58:07.000Z</time>
      </trkpt>
      <trkpt lat="48.23745" lon="-3.3945">
        <ele>202.19999694824</ele>
        <time>2020-10-18T13:58:08.000Z</time>
      </trkpt>
      <trkpt lat="48.23748" lon="-3.39445">
        <ele>202.19999694824</ele>
        <time>2020-10-18T13:58:09.000Z</time>
      </trkpt>
      <trkpt lat="48.2375" lon="-3.3944">
        <ele>202</ele>
        <time>2020-10-18T13:58:10.000Z</time>
      </trkpt>
      <trkpt lat="48.23753" lon="-3.39434">
        <ele>202.19999694824</ele>
        <time>2020-10-18T13:58:11.000Z</time>
      </trkpt>
      <trkpt lat="48.23755" lon="-3.3943">
        <ele>202</ele>
        <time>2020-10-18T13:58:12.000Z</time>
      </trkpt>
      <trkpt lat="48.23757" lon="-3.39425">
        <ele>202</ele>
        <time>2020-10-18T13:58:13.000Z</time>
      </trkpt>
      <trkpt lat="48.2376" lon="-3.39419">
        <ele>201.80000305176</ele>
        <time>2020-10-18T13:58:14.000Z</time>
      </trkpt>
      <trkpt lat="48.23762" lon="-3.39414">
        <ele>201.80000305176</ele>
        <time>2020-10-18T13:58:15.000Z</time>
      </trkpt>
      <trkpt lat="48.23764" lon="-3.39409">
        <ele>201.80000305176</ele>
        <time>2020-10-18T13:58:16.000Z</time>
      </trkpt>
      <trkpt lat="48.23766" lon="-3.39404">
        <ele>202</ele>
        <time>2020-10-18T13:58:17.000Z</time>
      </trkpt>
      <trkpt lat="48.23768" lon="-3.39399">
        <ele>202.19999694824</ele>
        <time>2020-10-18T13:58:18.000Z</time>
      </trkpt>
      <trkpt lat="48.23771" lon="-3.39394">
        <ele>202.39999389648</ele>
        <time>2020-10-18T13:58:19.000Z</time>
      </trkpt>
      <trkpt lat="48.23774" lon="-3.39389">
        <ele>202.60000610352</ele>
        <time>2020-10-18T13:58:20.000Z</time>
      </trkpt>
      <trkpt lat="48.23776" lon="-3.39384">
        <ele>202.80000305176</ele>
        <time>2020-10-18T13:58:21.000Z</time>
      </trkpt>
      <trkpt lat="48.23778" lon="-3.39379">
        <ele>203</ele>
        <time>2020-10-18T13:58:22.000Z</time>
      </trkpt>
      <trkpt lat="48.2378" lon="-3.39374">
        <ele>203.19999694824</ele>
        <time>2020-10-18T13:58:23.000Z</time>
      </trkpt>
      <trkpt lat="48.23783" lon="-3.39368">
        <ele>203.60000610352</ele>
        <time>2020-10-18T13:58:24.000Z</time>
      </trkpt>
      <trkpt lat="48.23785" lon="-3.39364">
        <ele>203.80000305176</ele>
        <time>2020-10-18T13:58:25.000Z</time>
      </trkpt>
      <trkpt lat="48.23788" lon="-3.39359">
        <ele>204</ele>
        <time>2020-10-18T13:58:26.000Z</time>
      </trkpt>
      <trkpt lat="48.2379" lon="-3.39354">
        <ele>204.19999694824</ele>
        <time>2020-10-18T13:58:27.000Z</time>
      </trkpt>
      <trkpt lat="48.23793" lon="-3.39348">
        <ele>204.39999389648</ele>
        <time>2020-10-18T13:58:28.000Z</time>
      </trkpt>
      <trkpt lat="48.23796" lon="-3.39343">
        <ele>204.19999694824</ele>
        <time>2020-10-18T13:58:29.000Z</time>
      </trkpt>
      <trkpt lat="48.23798" lon="-3.39338">
        <ele>203.80000305176</ele>
        <time>2020-10-18T13:58:30.000Z</time>
      </trkpt>
      <trkpt lat="48.23801" lon="-3.39333">
        <ele>203.60000610352</ele>
        <time>2020-10-18T13:58:31.000Z</time>
      </trkpt>
      <trkpt lat="48.23803" lon="-3.39328">
        <ele>203.39999389648</ele>
        <time>2020-10-18T13:58:32.000Z</time>
      </trkpt>
      <trkpt lat="48.23806" lon="-3.39323">
        <ele>203</ele>
        <time>2020-10-18T13:58:33.000Z</time>
      </trkpt>
      <trkpt lat="48.23809" lon="-3.39319">
        <ele>202.80000305176</ele>
        <time>2020-10-18T13:58:34.000Z</time>
      </trkpt>
      <trkpt lat="48.23811" lon="-3.39314">
        <ele>202.60000610352</ele>
        <time>2020-10-18T13:58:35.000Z</time>
      </trkpt>
      <trkpt lat="48.23814" lon="-3.39308">
        <ele>202.19999694824</ele>
        <time>2020-10-18T13:58:36.000Z</time>
      </trkpt>
      <trkpt lat="48.23816" lon="-3.39302">
        <ele>201.80000305176</ele>
        <time>2020-10-18T13:58:37.000Z</time>
      </trkpt>
      <trkpt lat="48.23818" lon="-3.39297">
        <ele>201.60000610352</ele>
        <time>2020-10-18T13:58:38.000Z</time>
      </trkpt>
      <trkpt lat="48.23821" lon="-3.39292">
        <ele>201.39999389648</ele>
        <time>2020-10-18T13:58:39.000Z</time>
      </trkpt>
      <trkpt lat="48.23823" lon="-3.39286">
        <ele>201.19999694824</ele>
        <time>2020-10-18T13:58:40.000Z</time>
      </trkpt>
      <trkpt lat="48.23826" lon="-3.3928">
        <ele>201.19999694824</ele>
        <time>2020-10-18T13:58:41.000Z</time>
      </trkpt>
      <trkpt lat="48.23828" lon="-3.39275">
        <ele>201.39999389648</ele>
        <time>2020-10-18T13:58:42.000Z</time>
      </trkpt>
      <trkpt lat="48.2383" lon="-3.39269">
        <ele>201.39999389648</ele>
        <time>2020-10-18T13:58:43.000Z</time>
      </trkpt>
      <trkpt lat="48.23833" lon="-3.39263">
        <ele>201.39999389648</ele>
        <time>2020-10-18T13:58:44.000Z</time>
      </trkpt>
      <trkpt lat="48.23835" lon="-3.39257">
        <ele>201.39999389648</ele>
        <time>2020-10-18T13:58:45.000Z</time>
      </trkpt>
      <trkpt lat="48.23838" lon="-3.39252">
        <ele>201.19999694824</ele>
        <time>2020-10-18T13:58:46.000Z</time>
      </trkpt>
      <trkpt lat="48.2384" lon="-3.39247">
        <ele>201</ele>
        <time>2020-10-18T13:58:47.000Z</time>
      </trkpt>
      <trkpt lat="48.23843" lon="-3.39242">
        <ele>200.80000305176</ele>
        <time>2020-10-18T13:58:48.000Z</time>
      </trkpt>
      <trkpt lat="48.23845" lon="-3.39237">
        <ele>200.80000305176</ele>
        <time>2020-10-18T13:58:49.000Z</time>
      </trkpt>
      <trkpt lat="48.23847" lon="-3.39232">
        <ele>200.80000305176</ele>
        <time>2020-10-18T13:58:50.000Z</time>
      </trkpt>
      <trkpt lat="48.2385" lon="-3.39226">
        <ele>201</ele>
        <time>2020-10-18T13:58:51.000Z</time>
      </trkpt>
      <trkpt lat="48.23852" lon="-3.39221">
        <ele>201.19999694824</ele>
        <time>2020-10-18T13:58:52.000Z</time>
      </trkpt>
      <trkpt lat="48.23855" lon="-3.39216">
        <ele>201.39999389648</ele>
        <time>2020-10-18T13:58:53.000Z</time>
      </trkpt>
      <trkpt lat="48.23858" lon="-3.39212">
        <ele>201.60000610352</ele>
        <time>2020-10-18T13:58:54.000Z</time>
      </trkpt>
      <trkpt lat="48.2386" lon="-3.39207">
        <ele>201.80000305176</ele>
        <time>2020-10-18T13:58:55.000Z</time>
      </trkpt>
      <trkpt lat="48.23862" lon="-3.39202">
        <ele>202</ele>
        <time>2020-10-18T13:58:56.000Z</time>
      </trkpt>
      <trkpt lat="48.23864" lon="-3.39198">
        <ele>202</ele>
        <time>2020-10-18T13:58:57.000Z</time>
      </trkpt>
      <trkpt lat="48.23867" lon="-3.39193">
        <ele>202.19999694824</ele>
        <time>2020-10-18T13:58:58.000Z</time>
      </trkpt>
      <trkpt lat="48.2387" lon="-3.39189">
        <ele>202.39999389648</ele>
        <time>2020-10-18T13:58:59.000Z</time>
      </trkpt>
      <trkpt lat="48.23873" lon="-3.39183">
        <ele>202.60000610352</ele>
        <time>2020-10-18T13:59:00.000Z</time>
      </trkpt>
      <trkpt lat="48.23875" lon="-3.39177">
        <ele>202.60000610352</ele>
        <time>2020-10-18T13:59:01.000Z</time>
      </trkpt>
      <trkpt lat="48.23878" lon="-3.39172">
        <ele>202.39999389648</ele>
        <time>2020-10-18T13:59:02.000Z</time>
      </trkpt>
      <trkpt lat="48.23881" lon="-3.39166">
        <ele>202.39999389648</ele>
        <time>2020-10-18T13:59:03.000Z</time>
      </trkpt>
      <trkpt lat="48.23884" lon="-3.39161">
        <ele>202.19999694824</ele>
        <time>2020-10-18T13:59:04.000Z</time>
      </trkpt>
      <trkpt lat="48.23887" lon="-3.39155">
        <ele>202</ele>
        <time>2020-10-18T13:59:05.000Z</time>
      </trkpt>
      <trkpt lat="48.23889" lon="-3.3915">
        <ele>202</ele>
        <time>2020-10-18T13:59:06.000Z</time>
      </trkpt>
      <trkpt lat="48.23891" lon="-3.39145">
        <ele>201.80000305176</ele>
        <time>2020-10-18T13:59:07.000Z</time>
      </trkpt>
      <trkpt lat="48.23894" lon="-3.39139">
        <ele>201.60000610352</ele>
        <time>2020-10-18T13:59:08.000Z</time>
      </trkpt>
      <trkpt lat="48.23896" lon="-3.39133">
        <ele>201.39999389648</ele>
        <time>2020-10-18T13:59:09.000Z</time>
      </trkpt>
      <trkpt lat="48.23898" lon="-3.39128">
        <ele>201.39999389648</ele>
        <time>2020-10-18T13:59:10.000Z</time>
      </trkpt>
      <trkpt lat="48.23901" lon="-3.39122">
        <ele>201.60000610352</ele>
        <time>2020-10-18T13:59:11.000Z</time>
      </trkpt>
      <trkpt lat="48.23903" lon="-3.39115">
        <ele>201.80000305176</ele>
        <time>2020-10-18T13:59:12.000Z</time>
      </trkpt>
      <trkpt lat="48.23905" lon="-3.3911">
        <ele>202</ele>
        <time>2020-10-18T13:59:13.000Z</time>
      </trkpt>
      <trkpt lat="48.23908" lon="-3.39104">
        <ele>202.19999694824</ele>
        <time>2020-10-18T13:59:14.000Z</time>
      </trkpt>
      <trkpt lat="48.23911" lon="-3.39097">
        <ele>202.39999389648</ele>
        <time>2020-10-18T13:59:15.000Z</time>
      </trkpt>
      <trkpt lat="48.23914" lon="-3.39091">
        <ele>202.19999694824</ele>
        <time>2020-10-18T13:59:16.000Z</time>
      </trkpt>
      <trkpt lat="48.23916" lon="-3.39084">
        <ele>202.19999694824</ele>
        <time>2020-10-18T13:59:17.000Z</time>
      </trkpt>
      <trkpt lat="48.23919" lon="-3.39078">
        <ele>202.19999694824</ele>
        <time>2020-10-18T13:59:18.000Z</time>
      </trkpt>
      <trkpt lat="48.23922" lon="-3.39072">
        <ele>202.19999694824</ele>
        <time>2020-10-18T13:59:19.000Z</time>
      </trkpt>
      <trkpt lat="48.23924" lon="-3.39067">
        <ele>202</ele>
        <time>2020-10-18T13:59:20.000Z</time>
      </trkpt>
      <trkpt lat="48.23927" lon="-3.39062">
        <ele>202</ele>
        <time>2020-10-18T13:59:21.000Z</time>
      </trkpt>
      <trkpt lat="48.2393" lon="-3.39057">
        <ele>202</ele>
        <time>2020-10-18T13:59:22.000Z</time>
      </trkpt>
      <trkpt lat="48.23933" lon="-3.39052">
        <ele>202</ele>
        <time>2020-10-18T13:59:23.000Z</time>
      </trkpt>
      <trkpt lat="48.23935" lon="-3.39047">
        <ele>202.19999694824</ele>
        <time>2020-10-18T13:59:24.000Z</time>
      </trkpt>
      <trkpt lat="48.23937" lon="-3.39042">
        <ele>202.19999694824</ele>
        <time>2020-10-18T13:59:25.000Z</time>
      </trkpt>
      <trkpt lat="48.23939" lon="-3.39037">
        <ele>202.39999389648</ele>
        <time>2020-10-18T13:59:26.000Z</time>
      </trkpt>
      <trkpt lat="48.23941" lon="-3.39033">
        <ele>202.39999389648</ele>
        <time>2020-10-18T13:59:27.000Z</time>
      </trkpt>
      <trkpt lat="48.23943" lon="-3.39028">
        <ele>202.60000610352</ele>
        <time>2020-10-18T13:59:28.000Z</time>
      </trkpt>
      <trkpt lat="48.23945" lon="-3.39024">
        <ele>202.60000610352</ele>
        <time>2020-10-18T13:59:29.000Z</time>
      </trkpt>
      <trkpt lat="48.23946" lon="-3.39021">
        <ele>202.60000610352</ele>
        <time>2020-10-18T13:59:30.000Z</time>
      </trkpt>
      <trkpt lat="48.23946" lon="-3.39018">
        <ele>202.80000305176</ele>
        <time>2020-10-18T13:59:31.000Z</time>
      </trkpt>
      <trkpt lat="48.23947" lon="-3.39017">
        <ele>202.80000305176</ele>
        <time>2020-10-18T13:59:32.000Z</time>
      </trkpt>
      <trkpt lat="48.23946" lon="-3.39017">
        <ele>202.80000305176</ele>
        <time>2020-10-18T13:59:33.000Z</time>
      </trkpt>
      <trkpt lat="48.23946" lon="-3.39017">
        <ele>202.80000305176</ele>
        <time>2020-10-18T13:59:34.000Z</time>
      </trkpt>
      <trkpt lat="48.23945" lon="-3.39017">
        <ele>202.80000305176</ele>
        <time>2020-10-18T13:59:35.000Z</time>
      </trkpt>
      <trkpt lat="48.23945" lon="-3.39017">
        <ele>202.80000305176</ele>
        <time>2020-10-18T13:59:36.000Z</time>
      </trkpt>
      <trkpt lat="48.23945" lon="-3.39017">
        <ele>202.80000305176</ele>
        <time>2020-10-18T13:59:37.000Z</time>
      </trkpt>
      <trkpt lat="48.23945" lon="-3.39017">
        <ele>202.80000305176</ele>
        <time>2020-10-18T13:59:38.000Z</time>
      </trkpt>
      <trkpt lat="48.23945" lon="-3.39017">
        <ele>202.80000305176</ele>
        <time>2020-10-18T13:59:39.000Z</time>
      </trkpt>
      <trkpt lat="48.23945" lon="-3.39017">
        <ele>202.80000305176</ele>
        <time>2020-10-18T13:59:40.000Z</time>
      </trkpt>
      <trkpt lat="48.23945" lon="-3.39017">
        <ele>202.80000305176</ele>
        <time>2020-10-18T13:59:41.000Z</time>
      </trkpt>
      <trkpt lat="48.23945" lon="-3.39017">
        <ele>202.80000305176</ele>
        <time>2020-10-18T13:59:42.000Z</time>
      </trkpt>
      <trkpt lat="48.23945" lon="-3.39017">
        <ele>202.80000305176</ele>
        <time>2020-10-18T13:59:43.000Z</time>
      </trkpt>
      <trkpt lat="48.23945" lon="-3.39017">
        <ele>202.80000305176</ele>
        <time>2020-10-18T13:59:44.000Z</time>
      </trkpt>
      <trkpt lat="48.23945" lon="-3.39017">
        <ele>202.80000305176</ele>
        <time>2020-10-18T13:59:45.000Z</time>
      </trkpt>
      <trkpt lat="48.23945" lon="-3.39017">
        <ele>202.80000305176</ele>
        <time>2020-10-18T13:59:46.000Z</time>
      </trkpt>
      <trkpt lat="48.23945" lon="-3.39017">
        <ele>202.80000305176</ele>
        <time>2020-10-18T13:59:47.000Z</time>
      </trkpt>
      <trkpt lat="48.23945" lon="-3.39017">
        <ele>202.80000305176</ele>
        <time>2020-10-18T13:59:48.000Z</time>
      </trkpt>
      <trkpt lat="48.23945" lon="-3.39017">
        <ele>202.80000305176</ele>
        <time>2020-10-18T13:59:49.000Z</time>
      </trkpt>
      <trkpt lat="48.23945" lon="-3.39017">
        <ele>202.80000305176</ele>
        <time>2020-10-18T13:59:50.000Z</time>
      </trkpt>
      <trkpt lat="48.23945" lon="-3.39017">
        <ele>202.80000305176</ele>
        <time>2020-10-18T13:59:51.000Z</time>
      </trkpt>
      <trkpt lat="48.23945" lon="-3.39017">
        <ele>202.80000305176</ele>
        <time>2020-10-18T13:59:52.000Z</time>
      </trkpt>
      <trkpt lat="48.23945" lon="-3.39017">
        <ele>202.80000305176</ele>
        <time>2020-10-18T13:59:53.000Z</time>
      </trkpt>
      <trkpt lat="48.23945" lon="-3.39017">
        <ele>202.80000305176</ele>
        <time>2020-10-18T13:59:54.000Z</time>
      </trkpt>
      <trkpt lat="48.23945" lon="-3.39017">
        <ele>202.80000305176</ele>
        <time>2020-10-18T13:59:55.000Z</time>
      </trkpt>
      <trkpt lat="48.23945" lon="-3.39017">
        <ele>202.80000305176</ele>
        <time>2020-10-18T13:59:56.000Z</time>
      </trkpt>
      <trkpt lat="48.23945" lon="-3.39017">
        <ele>202.80000305176</ele>
        <time>2020-10-18T13:59:57.000Z</time>
      </trkpt>
      <trkpt lat="48.23945" lon="-3.39017">
        <ele>202.80000305176</ele>
        <time>2020-10-18T13:59:58.000Z</time>
      </trkpt>
      <trkpt lat="48.23945" lon="-3.39017">
        <ele>202.80000305176</ele>
        <time>2020-10-18T13:59:59.000Z</time>
      </trkpt>
      <trkpt lat="48.23945" lon="-3.39017">
        <ele>202.80000305176</ele>
        <time>2020-10-18T14:00:00.000Z</time>
      </trkpt>
      <trkpt lat="48.23945" lon="-3.39017">
        <ele>202.80000305176</ele>
        <time>2020-10-18T14:00:01.000Z</time>
      </trkpt>
      <trkpt lat="48.23945" lon="-3.39017">
        <ele>202.80000305176</ele>
        <time>2020-10-18T14:00:02.000Z</time>
      </trkpt>
      <trkpt lat="48.23945" lon="-3.39017">
        <ele>202.80000305176</ele>
        <time>2020-10-18T14:00:03.000Z</time>
      </trkpt>
      <trkpt lat="48.23945" lon="-3.39017">
        <ele>202.80000305176</ele>
        <time>2020-10-18T14:00:04.000Z</time>
      </trkpt>
      <trkpt lat="48.23945" lon="-3.39017">
        <ele>202.80000305176</ele>
        <time>2020-10-18T14:00:05.000Z</time>
      </trkpt>
      <trkpt lat="48.23945" lon="-3.39017">
        <ele>202.80000305176</ele>
        <time>2020-10-18T14:00:06.000Z</time>
      </trkpt>
      <trkpt lat="48.23945" lon="-3.39017">
        <ele>202.80000305176</ele>
        <time>2020-10-18T14:00:07.000Z</time>
      </trkpt>
      <trkpt lat="48.23945" lon="-3.39017">
        <ele>202.80000305176</ele>
        <time>2020-10-18T14:00:08.000Z</time>
      </trkpt>
      <trkpt lat="48.23945" lon="-3.39017">
        <ele>202.80000305176</ele>
        <time>2020-10-18T14:00:09.000Z</time>
      </trkpt>
      <trkpt lat="48.23945" lon="-3.39017">
        <ele>202.80000305176</ele>
        <time>2020-10-18T14:00:10.000Z</time>
      </trkpt>
      <trkpt lat="48.23945" lon="-3.39017">
        <ele>202.80000305176</ele>
        <time>2020-10-18T14:00:11.000Z</time>
      </trkpt>
      <trkpt lat="48.23945" lon="-3.39017">
        <ele>202.80000305176</ele>
        <time>2020-10-18T14:00:12.000Z</time>
      </trkpt>
      <trkpt lat="48.23945" lon="-3.39017">
        <ele>202.80000305176</ele>
        <time>2020-10-18T14:00:13.000Z</time>
      </trkpt>
      <trkpt lat="48.23945" lon="-3.39017">
        <ele>202.80000305176</ele>
        <time>2020-10-18T14:00:14.000Z</time>
      </trkpt>
      <trkpt lat="48.23945" lon="-3.39017">
        <ele>202.80000305176</ele>
        <time>2020-10-18T14:00:15.000Z</time>
      </trkpt>
      <trkpt lat="48.23945" lon="-3.39017">
        <ele>202.80000305176</ele>
        <time>2020-10-18T14:00:16.000Z</time>
      </trkpt>
      <trkpt lat="48.23945" lon="-3.39017">
        <ele>202.80000305176</ele>
        <time>2020-10-18T14:00:17.000Z</time>
      </trkpt>
      <trkpt lat="48.23945" lon="-3.39017">
        <ele>202.80000305176</ele>
        <time>2020-10-18T14:00:18.000Z</time>
      </trkpt>
      <trkpt lat="48.23945" lon="-3.39017">
        <ele>202.80000305176</ele>
        <time>2020-10-18T14:00:19.000Z</time>
      </trkpt>
      <trkpt lat="48.23945" lon="-3.39017">
        <ele>202.80000305176</ele>
        <time>2020-10-18T14:00:20.000Z</time>
      </trkpt>
      <trkpt lat="48.23945" lon="-3.39017">
        <ele>202.80000305176</ele>
        <time>2020-10-18T14:00:21.000Z</time>
      </trkpt>
      <trkpt lat="48.23945" lon="-3.39017">
        <ele>202.80000305176</ele>
        <time>2020-10-18T14:00:22.000Z</time>
      </trkpt>
      <trkpt lat="48.23945" lon="-3.39017">
        <ele>202.80000305176</ele>
        <time>2020-10-18T14:00:23.000Z</time>
      </trkpt>
      <trkpt lat="48.23945" lon="-3.39017">
        <ele>202.80000305176</ele>
        <time>2020-10-18T14:00:24.000Z</time>
      </trkpt>
      <trkpt lat="48.23945" lon="-3.39017">
        <ele>202.80000305176</ele>
        <time>2020-10-18T14:00:25.000Z</time>
      </trkpt>
      <trkpt lat="48.23945" lon="-3.39017">
        <ele>202.80000305176</ele>
        <time>2020-10-18T14:00:26.000Z</time>
      </trkpt>
      <trkpt lat="48.23945" lon="-3.39017">
        <ele>202.80000305176</ele>
        <time>2020-10-18T14:00:27.000Z</time>
      </trkpt>
      <trkpt lat="48.23945" lon="-3.39017">
        <ele>202.80000305176</ele>
        <time>2020-10-18T14:00:28.000Z</time>
      </trkpt>
      <trkpt lat="48.23945" lon="-3.39017">
        <ele>202.80000305176</ele>
        <time>2020-10-18T14:00:29.000Z</time>
      </trkpt>
      <trkpt lat="48.23945" lon="-3.39017">
        <ele>202.80000305176</ele>
        <time>2020-10-18T14:00:30.000Z</time>
      </trkpt>
      <trkpt lat="48.23945" lon="-3.39017">
        <ele>202.80000305176</ele>
        <time>2020-10-18T14:00:31.000Z</time>
      </trkpt>
      <trkpt lat="48.23945" lon="-3.39017">
        <ele>202.80000305176</ele>
        <time>2020-10-18T14:00:32.000Z</time>
      </trkpt>
      <trkpt lat="48.23945" lon="-3.39017">
        <ele>202.80000305176</ele>
        <time>2020-10-18T14:00:33.000Z</time>
      </trkpt>
      <trkpt lat="48.23945" lon="-3.39017">
        <ele>202.80000305176</ele>
        <time>2020-10-18T14:00:34.000Z</time>
      </trkpt>
      <trkpt lat="48.23945" lon="-3.39017">
        <ele>202.80000305176</ele>
        <time>2020-10-18T14:00:35.000Z</time>
      </trkpt>
      <trkpt lat="48.23945" lon="-3.39017">
        <ele>202.80000305176</ele>
        <time>2020-10-18T14:00:36.000Z</time>
      </trkpt>
      <trkpt lat="48.23945" lon="-3.39017">
        <ele>202.80000305176</ele>
        <time>2020-10-18T14:00:37.000Z</time>
      </trkpt>
      <trkpt lat="48.23945" lon="-3.39017">
        <ele>202.80000305176</ele>
        <time>2020-10-18T14:00:38.000Z</time>
      </trkpt>
      <trkpt lat="48.23945" lon="-3.39017">
        <ele>202.80000305176</ele>
        <time>2020-10-18T14:00:39.000Z</time>
      </trkpt>
      <trkpt lat="48.23945" lon="-3.39017">
        <ele>202.80000305176</ele>
        <time>2020-10-18T14:00:40.000Z</time>
      </trkpt>
      <trkpt lat="48.23945" lon="-3.39017">
        <ele>202.80000305176</ele>
        <time>2020-10-18T14:00:41.000Z</time>
      </trkpt>
      <trkpt lat="48.23945" lon="-3.39017">
        <ele>202.80000305176</ele>
        <time>2020-10-18T14:00:42.000Z</time>
      </trkpt>
      <trkpt lat="48.23945" lon="-3.39017">
        <ele>202.80000305176</ele>
        <time>2020-10-18T14:00:43.000Z</time>
      </trkpt>
      <trkpt lat="48.23945" lon="-3.39017">
        <ele>202.80000305176</ele>
        <time>2020-10-18T14:00:44.000Z</time>
      </trkpt>
      <trkpt lat="48.23945" lon="-3.39017">
        <ele>202.80000305176</ele>
        <time>2020-10-18T14:00:45.000Z</time>
      </trkpt>
      <trkpt lat="48.23945" lon="-3.39017">
        <ele>202.80000305176</ele>
        <time>2020-10-18T14:00:46.000Z</time>
      </trkpt>
      <trkpt lat="48.23945" lon="-3.39017">
        <ele>202.80000305176</ele>
        <time>2020-10-18T14:00:47.000Z</time>
      </trkpt>
      <trkpt lat="48.23945" lon="-3.39017">
        <ele>202.80000305176</ele>
        <time>2020-10-18T14:00:48.000Z</time>
      </trkpt>
      <trkpt lat="48.23945" lon="-3.39017">
        <ele>202.80000305176</ele>
        <time>2020-10-18T14:00:49.000Z</time>
      </trkpt>
      <trkpt lat="48.23945" lon="-3.39017">
        <ele>202.80000305176</ele>
        <time>2020-10-18T14:00:50.000Z</time>
      </trkpt>
      <trkpt lat="48.23945" lon="-3.39017">
        <ele>202.80000305176</ele>
        <time>2020-10-18T14:00:51.000Z</time>
      </trkpt>
      <trkpt lat="48.23945" lon="-3.39017">
        <ele>202.80000305176</ele>
        <time>2020-10-18T14:00:52.000Z</time>
      </trkpt>
      <trkpt lat="48.23945" lon="-3.39017">
        <ele>202.80000305176</ele>
        <time>2020-10-18T14:00:53.000Z</time>
      </trkpt>
      <trkpt lat="48.23945" lon="-3.39017">
        <ele>202.80000305176</ele>
        <time>2020-10-18T14:00:54.000Z</time>
      </trkpt>
      <trkpt lat="48.23945" lon="-3.39017">
        <ele>202.80000305176</ele>
        <time>2020-10-18T14:00:55.000Z</time>
      </trkpt>
      <trkpt lat="48.23945" lon="-3.39017">
        <ele>202.80000305176</ele>
        <time>2020-10-18T14:00:56.000Z</time>
      </trkpt>
      <trkpt lat="48.23945" lon="-3.39017">
        <ele>202.80000305176</ele>
        <time>2020-10-18T14:00:57.000Z</time>
      </trkpt>
      <trkpt lat="48.23945" lon="-3.39017">
        <ele>202.80000305176</ele>
        <time>2020-10-18T14:00:58.000Z</time>
      </trkpt>
      <trkpt lat="48.23945" lon="-3.39017">
        <ele>202.80000305176</ele>
        <time>2020-10-18T14:00:59.000Z</time>
      </trkpt>
      <trkpt lat="48.23945" lon="-3.39017">
        <ele>202.80000305176</ele>
        <time>2020-10-18T14:01:00.000Z</time>
      </trkpt>
      <trkpt lat="48.23945" lon="-3.39017">
        <ele>202.80000305176</ele>
        <time>2020-10-18T14:01:01.000Z</time>
      </trkpt>
      <trkpt lat="48.23945" lon="-3.39017">
        <ele>202.80000305176</ele>
        <time>2020-10-18T14:01:02.000Z</time>
      </trkpt>
      <trkpt lat="48.23945" lon="-3.39017">
        <ele>202.80000305176</ele>
        <time>2020-10-18T14:01:03.000Z</time>
      </trkpt>
      <trkpt lat="48.23945" lon="-3.39017">
        <ele>202.80000305176</ele>
        <time>2020-10-18T14:01:04.000Z</time>
      </trkpt>
      <trkpt lat="48.23945" lon="-3.39017">
        <ele>202.80000305176</ele>
        <time>2020-10-18T14:01:05.000Z</time>
      </trkpt>
      <trkpt lat="48.23945" lon="-3.39017">
        <ele>202.80000305176</ele>
        <time>2020-10-18T14:01:06.000Z</time>
      </trkpt>
      <trkpt lat="48.23945" lon="-3.39017">
        <ele>202.80000305176</ele>
        <time>2020-10-18T14:01:07.000Z</time>
      </trkpt>
      <trkpt lat="48.23945" lon="-3.39017">
        <ele>202.80000305176</ele>
        <time>2020-10-18T14:01:08.000Z</time>
      </trkpt>
      <trkpt lat="48.23945" lon="-3.39017">
        <ele>202.80000305176</ele>
        <time>2020-10-18T14:01:09.000Z</time>
      </trkpt>
      <trkpt lat="48.23945" lon="-3.39017">
        <ele>202.80000305176</ele>
        <time>2020-10-18T14:01:10.000Z</time>
      </trkpt>
      <trkpt lat="48.23945" lon="-3.39017">
        <ele>202.80000305176</ele>
        <time>2020-10-18T14:01:11.000Z</time>
      </trkpt>
      <trkpt lat="48.23945" lon="-3.39017">
        <ele>202.80000305176</ele>
        <time>2020-10-18T14:01:12.000Z</time>
      </trkpt>
      <trkpt lat="48.23945" lon="-3.39017">
        <ele>202.80000305176</ele>
        <time>2020-10-18T14:01:13.000Z</time>
      </trkpt>
      <trkpt lat="48.23945" lon="-3.39017">
        <ele>202.80000305176</ele>
        <time>2020-10-18T14:01:14.000Z</time>
      </trkpt>
      <trkpt lat="48.23945" lon="-3.39017">
        <ele>202.80000305176</ele>
        <time>2020-10-18T14:01:15.000Z</time>
      </trkpt>
      <trkpt lat="48.23945" lon="-3.39017">
        <ele>202.80000305176</ele>
        <time>2020-10-18T14:01:16.000Z</time>
      </trkpt>
      <trkpt lat="48.23945" lon="-3.39017">
        <ele>202.80000305176</ele>
        <time>2020-10-18T14:01:17.000Z</time>
      </trkpt>
      <trkpt lat="48.23945" lon="-3.39017">
        <ele>202.80000305176</ele>
        <time>2020-10-18T14:01:18.000Z</time>
      </trkpt>
      <trkpt lat="48.23945" lon="-3.39017">
        <ele>202.80000305176</ele>
        <time>2020-10-18T14:01:19.000Z</time>
      </trkpt>
      <trkpt lat="48.23945" lon="-3.39017">
        <ele>202.80000305176</ele>
        <time>2020-10-18T14:01:20.000Z</time>
      </trkpt>
      <trkpt lat="48.23945" lon="-3.39017">
        <ele>202.80000305176</ele>
        <time>2020-10-18T14:01:21.000Z</time>
      </trkpt>
      <trkpt lat="48.23945" lon="-3.39017">
        <ele>202.80000305176</ele>
        <time>2020-10-18T14:01:22.000Z</time>
      </trkpt>
      <trkpt lat="48.23945" lon="-3.39017">
        <ele>202.80000305176</ele>
        <time>2020-10-18T14:01:23.000Z</time>
      </trkpt>
      <trkpt lat="48.23945" lon="-3.39017">
        <ele>202.80000305176</ele>
        <time>2020-10-18T14:01:24.000Z</time>
      </trkpt>
      <trkpt lat="48.23945" lon="-3.39017">
        <ele>202.80000305176</ele>
        <time>2020-10-18T14:01:25.000Z</time>
      </trkpt>
      <trkpt lat="48.23945" lon="-3.39017">
        <ele>202.80000305176</ele>
        <time>2020-10-18T14:01:26.000Z</time>
      </trkpt>
      <trkpt lat="48.23945" lon="-3.39017">
        <ele>202.80000305176</ele>
        <time>2020-10-18T14:01:27.000Z</time>
      </trkpt>
      <trkpt lat="48.23945" lon="-3.39017">
        <ele>202.80000305176</ele>
        <time>2020-10-18T14:01:28.000Z</time>
      </trkpt>
      <trkpt lat="48.23945" lon="-3.39017">
        <ele>202.80000305176</ele>
        <time>2020-10-18T14:01:29.000Z</time>
      </trkpt>
      <trkpt lat="48.23945" lon="-3.39017">
        <ele>202.80000305176</ele>
        <time>2020-10-18T14:01:30.000Z</time>
      </trkpt>
      <trkpt lat="48.23945" lon="-3.39017">
        <ele>202.80000305176</ele>
        <time>2020-10-18T14:01:31.000Z</time>
      </trkpt>
      <trkpt lat="48.23945" lon="-3.39017">
        <ele>202.80000305176</ele>
        <time>2020-10-18T14:01:32.000Z</time>
      </trkpt>
      <trkpt lat="48.23945" lon="-3.39017">
        <ele>202.80000305176</ele>
        <time>2020-10-18T14:01:33.000Z</time>
      </trkpt>
      <trkpt lat="48.23945" lon="-3.39017">
        <ele>202.80000305176</ele>
        <time>2020-10-18T14:01:34.000Z</time>
      </trkpt>
      <trkpt lat="48.23945" lon="-3.39017">
        <ele>202.80000305176</ele>
        <time>2020-10-18T14:01:35.000Z</time>
      </trkpt>
      <trkpt lat="48.23945" lon="-3.39017">
        <ele>202.80000305176</ele>
        <time>2020-10-18T14:01:36.000Z</time>
      </trkpt>
      <trkpt lat="48.23945" lon="-3.39017">
        <ele>202.80000305176</ele>
        <time>2020-10-18T14:01:37.000Z</time>
      </trkpt>
      <trkpt lat="48.23945" lon="-3.39017">
        <ele>202.80000305176</ele>
        <time>2020-10-18T14:01:38.000Z</time>
      </trkpt>
      <trkpt lat="48.23945" lon="-3.39017">
        <ele>202.80000305176</ele>
        <time>2020-10-18T14:01:39.000Z</time>
      </trkpt>
      <trkpt lat="48.23945" lon="-3.39017">
        <ele>202.80000305176</ele>
        <time>2020-10-18T14:01:40.000Z</time>
      </trkpt>
      <trkpt lat="48.23945" lon="-3.39017">
        <ele>202.80000305176</ele>
        <time>2020-10-18T14:01:41.000Z</time>
      </trkpt>
      <trkpt lat="48.23945" lon="-3.39017">
        <ele>202.80000305176</ele>
        <time>2020-10-18T14:01:42.000Z</time>
      </trkpt>
      <trkpt lat="48.23945" lon="-3.39017">
        <ele>202.80000305176</ele>
        <time>2020-10-18T14:01:43.000Z</time>
      </trkpt>
      <trkpt lat="48.23945" lon="-3.39017">
        <ele>202.80000305176</ele>
        <time>2020-10-18T14:01:44.000Z</time>
      </trkpt>
      <trkpt lat="48.23945" lon="-3.39017">
        <ele>202.80000305176</ele>
        <time>2020-10-18T14:01:45.000Z</time>
      </trkpt>
      <trkpt lat="48.23945" lon="-3.39017">
        <ele>202.80000305176</ele>
        <time>2020-10-18T14:01:46.000Z</time>
      </trkpt>
      <trkpt lat="48.23945" lon="-3.39017">
        <ele>202.80000305176</ele>
        <time>2020-10-18T14:01:47.000Z</time>
      </trkpt>
      <trkpt lat="48.23945" lon="-3.39017">
        <ele>202.80000305176</ele>
        <time>2020-10-18T14:01:48.000Z</time>
      </trkpt>
      <trkpt lat="48.23945" lon="-3.39017">
        <ele>202.80000305176</ele>
        <time>2020-10-18T14:01:49.000Z</time>
      </trkpt>
      <trkpt lat="48.23945" lon="-3.39017">
        <ele>202.80000305176</ele>
        <time>2020-10-18T14:01:50.000Z</time>
      </trkpt>
      <trkpt lat="48.23945" lon="-3.39017">
        <ele>202.80000305176</ele>
        <time>2020-10-18T14:01:51.000Z</time>
      </trkpt>
      <trkpt lat="48.23945" lon="-3.39017">
        <ele>202.80000305176</ele>
        <time>2020-10-18T14:01:52.000Z</time>
      </trkpt>
      <trkpt lat="48.23945" lon="-3.39017">
        <ele>202.80000305176</ele>
        <time>2020-10-18T14:01:53.000Z</time>
      </trkpt>
      <trkpt lat="48.23945" lon="-3.39017">
        <ele>202.80000305176</ele>
        <time>2020-10-18T14:01:54.000Z</time>
      </trkpt>
      <trkpt lat="48.23945" lon="-3.39017">
        <ele>202.80000305176</ele>
        <time>2020-10-18T14:01:55.000Z</time>
      </trkpt>
      <trkpt lat="48.23945" lon="-3.39017">
        <ele>202.80000305176</ele>
        <time>2020-10-18T14:01:56.000Z</time>
      </trkpt>
      <trkpt lat="48.23945" lon="-3.39017">
        <ele>202.80000305176</ele>
        <time>2020-10-18T14:01:57.000Z</time>
      </trkpt>
      <trkpt lat="48.23945" lon="-3.39017">
        <ele>202.80000305176</ele>
        <time>2020-10-18T14:01:58.000Z</time>
      </trkpt>
      <trkpt lat="48.23945" lon="-3.39017">
        <ele>202.80000305176</ele>
        <time>2020-10-18T14:01:59.000Z</time>
      </trkpt>
      <trkpt lat="48.23945" lon="-3.39017">
        <ele>202.80000305176</ele>
        <time>2020-10-18T14:02:00.000Z</time>
      </trkpt>
      <trkpt lat="48.23945" lon="-3.39017">
        <ele>202.80000305176</ele>
        <time>2020-10-18T14:02:01.000Z</time>
      </trkpt>
      <trkpt lat="48.23945" lon="-3.39017">
        <ele>202.80000305176</ele>
        <time>2020-10-18T14:02:02.000Z</time>
      </trkpt>
      <trkpt lat="48.23945" lon="-3.39017">
        <ele>202.80000305176</ele>
        <time>2020-10-18T14:02:03.000Z</time>
      </trkpt>
      <trkpt lat="48.23945" lon="-3.39017">
        <ele>202.80000305176</ele>
        <time>2020-10-18T14:02:04.000Z</time>
      </trkpt>
      <trkpt lat="48.23945" lon="-3.39017">
        <ele>202.80000305176</ele>
        <time>2020-10-18T14:02:05.000Z</time>
      </trkpt>
      <trkpt lat="48.23945" lon="-3.39017">
        <ele>202.80000305176</ele>
        <time>2020-10-18T14:02:06.000Z</time>
      </trkpt>
      <trkpt lat="48.23945" lon="-3.39017">
        <ele>202.80000305176</ele>
        <time>2020-10-18T14:02:07.000Z</time>
      </trkpt>
      <trkpt lat="48.23945" lon="-3.39017">
        <ele>202.80000305176</ele>
        <time>2020-10-18T14:02:08.000Z</time>
      </trkpt>
      <trkpt lat="48.23945" lon="-3.39017">
        <ele>202.80000305176</ele>
        <time>2020-10-18T14:02:09.000Z</time>
      </trkpt>
      <trkpt lat="48.23945" lon="-3.39017">
        <ele>202.80000305176</ele>
        <time>2020-10-18T14:02:10.000Z</time>
      </trkpt>
      <trkpt lat="48.23945" lon="-3.39017">
        <ele>202.80000305176</ele>
        <time>2020-10-18T14:02:11.000Z</time>
      </trkpt>
      <trkpt lat="48.23945" lon="-3.39017">
        <ele>202.80000305176</ele>
        <time>2020-10-18T14:02:12.000Z</time>
      </trkpt>
      <trkpt lat="48.23945" lon="-3.39017">
        <ele>202.80000305176</ele>
        <time>2020-10-18T14:02:13.000Z</time>
      </trkpt>
      <trkpt lat="48.23945" lon="-3.39017">
        <ele>202.80000305176</ele>
        <time>2020-10-18T14:02:14.000Z</time>
      </trkpt>
      <trkpt lat="48.23945" lon="-3.39017">
        <ele>202.80000305176</ele>
        <time>2020-10-18T14:02:15.000Z</time>
      </trkpt>
      <trkpt lat="48.23945" lon="-3.39017">
        <ele>202.80000305176</ele>
        <time>2020-10-18T14:02:16.000Z</time>
      </trkpt>
      <trkpt lat="48.23945" lon="-3.39017">
        <ele>202.80000305176</ele>
        <time>2020-10-18T14:02:17.000Z</time>
      </trkpt>
      <trkpt lat="48.23945" lon="-3.39017">
        <ele>202.80000305176</ele>
        <time>2020-10-18T14:02:18.000Z</time>
      </trkpt>
      <trkpt lat="48.23945" lon="-3.39017">
        <ele>202.80000305176</ele>
        <time>2020-10-18T14:02:19.000Z</time>
      </trkpt>
      <trkpt lat="48.23945" lon="-3.39017">
        <ele>202.80000305176</ele>
        <time>2020-10-18T14:02:20.000Z</time>
      </trkpt>
      <trkpt lat="48.23945" lon="-3.39017">
        <ele>202.80000305176</ele>
        <time>2020-10-18T14:02:21.000Z</time>
      </trkpt>
      <trkpt lat="48.23945" lon="-3.39017">
        <ele>202.80000305176</ele>
        <time>2020-10-18T14:02:22.000Z</time>
      </trkpt>
      <trkpt lat="48.23945" lon="-3.39017">
        <ele>202.80000305176</ele>
        <time>2020-10-18T14:02:23.000Z</time>
      </trkpt>
      <trkpt lat="48.23945" lon="-3.39017">
        <ele>202.80000305176</ele>
        <time>2020-10-18T14:02:24.000Z</time>
      </trkpt>
      <trkpt lat="48.23945" lon="-3.39017">
        <ele>202.80000305176</ele>
        <time>2020-10-18T14:02:25.000Z</time>
      </trkpt>
      <trkpt lat="48.23945" lon="-3.39017">
        <ele>202.80000305176</ele>
        <time>2020-10-18T14:02:26.000Z</time>
      </trkpt>
      <trkpt lat="48.23945" lon="-3.39017">
        <ele>202.80000305176</ele>
        <time>2020-10-18T14:02:27.000Z</time>
      </trkpt>
      <trkpt lat="48.23945" lon="-3.39017">
        <ele>202.80000305176</ele>
        <time>2020-10-18T14:02:28.000Z</time>
      </trkpt>
      <trkpt lat="48.23945" lon="-3.39017">
        <ele>202.80000305176</ele>
        <time>2020-10-18T14:02:29.000Z</time>
      </trkpt>
      <trkpt lat="48.23945" lon="-3.39017">
        <ele>202.80000305176</ele>
        <time>2020-10-18T14:02:30.000Z</time>
      </trkpt>
      <trkpt lat="48.23945" lon="-3.39017">
        <ele>202.80000305176</ele>
        <time>2020-10-18T14:02:31.000Z</time>
      </trkpt>
      <trkpt lat="48.23945" lon="-3.39017">
        <ele>202.80000305176</ele>
        <time>2020-10-18T14:02:32.000Z</time>
      </trkpt>
      <trkpt lat="48.23944" lon="-3.39018">
        <ele>202.80000305176</ele>
        <time>2020-10-18T14:02:33.000Z</time>
      </trkpt>
      <trkpt lat="48.23943" lon="-3.3902">
        <ele>202.80000305176</ele>
        <time>2020-10-18T14:02:34.000Z</time>
      </trkpt>
      <trkpt lat="48.23942" lon="-3.39021">
        <ele>202.60000610352</ele>
        <time>2020-10-18T14:02:35.000Z</time>
      </trkpt>
      <trkpt lat="48.23941" lon="-3.39023">
        <ele>202.60000610352</ele>
        <time>2020-10-18T14:02:36.000Z</time>
      </trkpt>
      <trkpt lat="48.2394" lon="-3.39027">
        <ele>202.60000610352</ele>
        <time>2020-10-18T14:02:37.000Z</time>
      </trkpt>
      <trkpt lat="48.23938" lon="-3.39029">
        <ele>202.60000610352</ele>
        <time>2020-10-18T14:02:38.000Z</time>
      </trkpt>
      <trkpt lat="48.23935" lon="-3.39032">
        <ele>202.60000610352</ele>
        <time>2020-10-18T14:02:39.000Z</time>
      </trkpt>
      <trkpt lat="48.23933" lon="-3.39035">
        <ele>202.39999389648</ele>
        <time>2020-10-18T14:02:40.000Z</time>
      </trkpt>
      <trkpt lat="48.2393" lon="-3.39038">
        <ele>202.39999389648</ele>
        <time>2020-10-18T14:02:41.000Z</time>
      </trkpt>
      <trkpt lat="48.23927" lon="-3.3904">
        <ele>202.60000610352</ele>
        <time>2020-10-18T14:02:42.000Z</time>
      </trkpt>
      <trkpt lat="48.23924" lon="-3.39043">
        <ele>202.60000610352</ele>
        <time>2020-10-18T14:02:43.000Z</time>
      </trkpt>
      <trkpt lat="48.23921" lon="-3.39046">
        <ele>202.80000305176</ele>
        <time>2020-10-18T14:02:44.000Z</time>
      </trkpt>
      <trkpt lat="48.23919" lon="-3.39049">
        <ele>203</ele>
        <time>2020-10-18T14:02:45.000Z</time>
      </trkpt>
      <trkpt lat="48.23916" lon="-3.39053">
        <ele>203</ele>
        <time>2020-10-18T14:02:46.000Z</time>
      </trkpt>
      <trkpt lat="48.23914" lon="-3.39059">
        <ele>203</ele>
        <time>2020-10-18T14:02:47.000Z</time>
      </trkpt>
      <trkpt lat="48.23912" lon="-3.39064">
        <ele>203</ele>
        <time>2020-10-18T14:02:48.000Z</time>
      </trkpt>
      <trkpt lat="48.23909" lon="-3.39069">
        <ele>203.19999694824</ele>
        <time>2020-10-18T14:02:49.000Z</time>
      </trkpt>
      <trkpt lat="48.23906" lon="-3.39074">
        <ele>203.19999694824</ele>
        <time>2020-10-18T14:02:50.000Z</time>
      </trkpt>
      <trkpt lat="48.23904" lon="-3.3908">
        <ele>203.19999694824</ele>
        <time>2020-10-18T14:02:51.000Z</time>
      </trkpt>
      <trkpt lat="48.23901" lon="-3.39085">
        <ele>203.39999389648</ele>
        <time>2020-10-18T14:02:52.000Z</time>
      </trkpt>
      <trkpt lat="48.23898" lon="-3.3909">
        <ele>203.39999389648</ele>
        <time>2020-10-18T14:02:53.000Z</time>
      </trkpt>
      <trkpt lat="48.23895" lon="-3.39095">
        <ele>203.60000610352</ele>
        <time>2020-10-18T14:02:54.000Z</time>
      </trkpt>
      <trkpt lat="48.23891" lon="-3.391">
        <ele>203.60000610352</ele>
        <time>2020-10-18T14:02:55.000Z</time>
      </trkpt>
      <trkpt lat="48.23888" lon="-3.39104">
        <ele>203.60000610352</ele>
        <time>2020-10-18T14:02:56.000Z</time>
      </trkpt>
      <trkpt lat="48.23884" lon="-3.39108">
        <ele>203.60000610352</ele>
        <time>2020-10-18T14:02:57.000Z</time>
      </trkpt>
      <trkpt lat="48.23882" lon="-3.39115">
        <ele>203.39999389648</ele>
        <time>2020-10-18T14:02:58.000Z</time>
      </trkpt>
      <trkpt lat="48.23879" lon="-3.3912">
        <ele>203.19999694824</ele>
        <time>2020-10-18T14:02:59.000Z</time>
      </trkpt>
      <trkpt lat="48.23876" lon="-3.39125">
        <ele>203.19999694824</ele>
        <time>2020-10-18T14:03:00.000Z</time>
      </trkpt>
      <trkpt lat="48.23874" lon="-3.3913">
        <ele>203</ele>
        <time>2020-10-18T14:03:01.000Z</time>
      </trkpt>
      <trkpt lat="48.23871" lon="-3.39135">
        <ele>203</ele>
        <time>2020-10-18T14:03:02.000Z</time>
      </trkpt>
      <trkpt lat="48.23869" lon="-3.3914">
        <ele>202.80000305176</ele>
        <time>2020-10-18T14:03:03.000Z</time>
      </trkpt>
      <trkpt lat="48.23866" lon="-3.39144">
        <ele>202.80000305176</ele>
        <time>2020-10-18T14:03:04.000Z</time>
      </trkpt>
      <trkpt lat="48.23864" lon="-3.39148">
        <ele>202.60000610352</ele>
        <time>2020-10-18T14:03:05.000Z</time>
      </trkpt>
      <trkpt lat="48.23861" lon="-3.39153">
        <ele>202.60000610352</ele>
        <time>2020-10-18T14:03:06.000Z</time>
      </trkpt>
      <trkpt lat="48.23858" lon="-3.39157">
        <ele>202.60000610352</ele>
        <time>2020-10-18T14:03:07.000Z</time>
      </trkpt>
      <trkpt lat="48.23856" lon="-3.39162">
        <ele>202.39999389648</ele>
        <time>2020-10-18T14:03:08.000Z</time>
      </trkpt>
      <trkpt lat="48.23853" lon="-3.39166">
        <ele>202.39999389648</ele>
        <time>2020-10-18T14:03:09.000Z</time>
      </trkpt>
      <trkpt lat="48.23851" lon="-3.39171">
        <ele>202.19999694824</ele>
        <time>2020-10-18T14:03:10.000Z</time>
      </trkpt>
      <trkpt lat="48.23848" lon="-3.39176">
        <ele>202.19999694824</ele>
        <time>2020-10-18T14:03:11.000Z</time>
      </trkpt>
      <trkpt lat="48.23845" lon="-3.3918">
        <ele>202.19999694824</ele>
        <time>2020-10-18T14:03:12.000Z</time>
      </trkpt>
      <trkpt lat="48.23842" lon="-3.39184">
        <ele>202.39999389648</ele>
        <time>2020-10-18T14:03:13.000Z</time>
      </trkpt>
      <trkpt lat="48.2384" lon="-3.3919">
        <ele>202.39999389648</ele>
        <time>2020-10-18T14:03:14.000Z</time>
      </trkpt>
      <trkpt lat="48.23837" lon="-3.39195">
        <ele>202.60000610352</ele>
        <time>2020-10-18T14:03:15.000Z</time>
      </trkpt>
      <trkpt lat="48.23835" lon="-3.39199">
        <ele>202.80000305176</ele>
        <time>2020-10-18T14:03:16.000Z</time>
      </trkpt>
      <trkpt lat="48.23831" lon="-3.39203">
        <ele>203</ele>
        <time>2020-10-18T14:03:17.000Z</time>
      </trkpt>
      <trkpt lat="48.23829" lon="-3.39209">
        <ele>203.19999694824</ele>
        <time>2020-10-18T14:03:18.000Z</time>
      </trkpt>
      <trkpt lat="48.23826" lon="-3.39214">
        <ele>203.39999389648</ele>
        <time>2020-10-18T14:03:19.000Z</time>
      </trkpt>
      <trkpt lat="48.23823" lon="-3.39218">
        <ele>203.60000610352</ele>
        <time>2020-10-18T14:03:20.000Z</time>
      </trkpt>
      <trkpt lat="48.2382" lon="-3.39223">
        <ele>203.80000305176</ele>
        <time>2020-10-18T14:03:21.000Z</time>
      </trkpt>
      <trkpt lat="48.23817" lon="-3.39229">
        <ele>204</ele>
        <time>2020-10-18T14:03:22.000Z</time>
      </trkpt>
      <trkpt lat="48.23815" lon="-3.39235">
        <ele>204</ele>
        <time>2020-10-18T14:03:23.000Z</time>
      </trkpt>
      <trkpt lat="48.23812" lon="-3.3924">
        <ele>204.19999694824</ele>
        <time>2020-10-18T14:03:24.000Z</time>
      </trkpt>
      <trkpt lat="48.23809" lon="-3.39246">
        <ele>204.39999389648</ele>
        <time>2020-10-18T14:03:25.000Z</time>
      </trkpt>
      <trkpt lat="48.23806" lon="-3.39251">
        <ele>204.60000610352</ele>
        <time>2020-10-18T14:03:26.000Z</time>
      </trkpt>
      <trkpt lat="48.23804" lon="-3.39256">
        <ele>204.80000305176</ele>
        <time>2020-10-18T14:03:27.000Z</time>
      </trkpt>
      <trkpt lat="48.23801" lon="-3.3926">
        <ele>205</ele>
        <time>2020-10-18T14:03:28.000Z</time>
      </trkpt>
      <trkpt lat="48.23798" lon="-3.39265">
        <ele>205.19999694824</ele>
        <time>2020-10-18T14:03:29.000Z</time>
      </trkpt>
      <trkpt lat="48.23795" lon="-3.3927">
        <ele>205.19999694824</ele>
        <time>2020-10-18T14:03:30.000Z</time>
      </trkpt>
      <trkpt lat="48.23792" lon="-3.39276">
        <ele>205</ele>
        <time>2020-10-18T14:03:31.000Z</time>
      </trkpt>
      <trkpt lat="48.23789" lon="-3.39282">
        <ele>205</ele>
        <time>2020-10-18T14:03:32.000Z</time>
      </trkpt>
      <trkpt lat="48.23787" lon="-3.39287">
        <ele>205</ele>
        <time>2020-10-18T14:03:33.000Z</time>
      </trkpt>
      <trkpt lat="48.23783" lon="-3.39292">
        <ele>205</ele>
        <time>2020-10-18T14:03:34.000Z</time>
      </trkpt>
      <trkpt lat="48.2378" lon="-3.39296">
        <ele>205.19999694824</ele>
        <time>2020-10-18T14:03:35.000Z</time>
      </trkpt>
      <trkpt lat="48.23777" lon="-3.39301">
        <ele>205.19999694824</ele>
        <time>2020-10-18T14:03:36.000Z</time>
      </trkpt>
      <trkpt lat="48.23775" lon="-3.39307">
        <ele>205.19999694824</ele>
        <time>2020-10-18T14:03:37.000Z</time>
      </trkpt>
      <trkpt lat="48.23772" lon="-3.39313">
        <ele>205</ele>
        <time>2020-10-18T14:03:38.000Z</time>
      </trkpt>
      <trkpt lat="48.2377" lon="-3.39319">
        <ele>205</ele>
        <time>2020-10-18T14:03:39.000Z</time>
      </trkpt>
      <trkpt lat="48.23768" lon="-3.39325">
        <ele>204.80000305176</ele>
        <time>2020-10-18T14:03:40.000Z</time>
      </trkpt>
      <trkpt lat="48.23765" lon="-3.3933">
        <ele>204.80000305176</ele>
        <time>2020-10-18T14:03:41.000Z</time>
      </trkpt>
      <trkpt lat="48.23763" lon="-3.39336">
        <ele>204.80000305176</ele>
        <time>2020-10-18T14:03:42.000Z</time>
      </trkpt>
      <trkpt lat="48.2376" lon="-3.39342">
        <ele>204.60000610352</ele>
        <time>2020-10-18T14:03:43.000Z</time>
      </trkpt>
      <trkpt lat="48.23758" lon="-3.39348">
        <ele>204.39999389648</ele>
        <time>2020-10-18T14:03:44.000Z</time>
      </trkpt>
      <trkpt lat="48.23756" lon="-3.39354">
        <ele>204.60000610352</ele>
        <time>2020-10-18T14:03:45.000Z</time>
      </trkpt>
      <trkpt lat="48.23754" lon="-3.39359">
        <ele>204.80000305176</ele>
        <time>2020-10-18T14:03:46.000Z</time>
      </trkpt>
      <trkpt lat="48.23751" lon="-3.39365">
        <ele>205</ele>
        <time>2020-10-18T14:03:47.000Z</time>
      </trkpt>
      <trkpt lat="48.23749" lon="-3.39371">
        <ele>205</ele>
        <time>2020-10-18T14:03:48.000Z</time>
      </trkpt>
      <trkpt lat="48.23747" lon="-3.39377">
        <ele>205</ele>
        <time>2020-10-18T14:03:49.000Z</time>
      </trkpt>
      <trkpt lat="48.23744" lon="-3.39383">
        <ele>205.19999694824</ele>
        <time>2020-10-18T14:03:50.000Z</time>
      </trkpt>
      <trkpt lat="48.23742" lon="-3.39388">
        <ele>205.19999694824</ele>
        <time>2020-10-18T14:03:51.000Z</time>
      </trkpt>
      <trkpt lat="48.23739" lon="-3.39393">
        <ele>205.39999389648</ele>
        <time>2020-10-18T14:03:52.000Z</time>
      </trkpt>
      <trkpt lat="48.23737" lon="-3.39399">
        <ele>205.39999389648</ele>
        <time>2020-10-18T14:03:53.000Z</time>
      </trkpt>
      <trkpt lat="48.23735" lon="-3.39405">
        <ele>205.60000610352</ele>
        <time>2020-10-18T14:03:54.000Z</time>
      </trkpt>
      <trkpt lat="48.23732" lon="-3.3941">
        <ele>205.80000305176</ele>
        <time>2020-10-18T14:03:55.000Z</time>
      </trkpt>
      <trkpt lat="48.2373" lon="-3.39415">
        <ele>206</ele>
        <time>2020-10-18T14:03:56.000Z</time>
      </trkpt>
      <trkpt lat="48.23727" lon="-3.39419">
        <ele>206.19999694824</ele>
        <time>2020-10-18T14:03:57.000Z</time>
      </trkpt>
      <trkpt lat="48.23724" lon="-3.39424">
        <ele>206.39999389648</ele>
        <time>2020-10-18T14:03:58.000Z</time>
      </trkpt>
      <trkpt lat="48.23718" lon="-3.39434">
        <ele>206.60000610352</ele>
        <time>2020-10-18T14:03:59.000Z</time>
      </trkpt>
      <trkpt lat="48.23718" lon="-3.39434">
        <ele>206.60000610352</ele>
        <time>2020-10-18T14:04:00.000Z</time>
      </trkpt>
      <trkpt lat="48.23716" lon="-3.39439">
        <ele>206.60000610352</ele>
        <time>2020-10-18T14:04:01.000Z</time>
      </trkpt>
      <trkpt lat="48.23713" lon="-3.39444">
        <ele>206.80000305176</ele>
        <time>2020-10-18T14:04:02.000Z</time>
      </trkpt>
      <trkpt lat="48.2371" lon="-3.39449">
        <ele>206.80000305176</ele>
        <time>2020-10-18T14:04:03.000Z</time>
      </trkpt>
      <trkpt lat="48.23708" lon="-3.39455">
        <ele>206.80000305176</ele>
        <time>2020-10-18T14:04:04.000Z</time>
      </trkpt>
      <trkpt lat="48.23705" lon="-3.39461">
        <ele>206.80000305176</ele>
        <time>2020-10-18T14:04:05.000Z</time>
      </trkpt>
      <trkpt lat="48.23703" lon="-3.39467">
        <ele>206.80000305176</ele>
        <time>2020-10-18T14:04:06.000Z</time>
      </trkpt>
      <trkpt lat="48.23701" lon="-3.39473">
        <ele>206.60000610352</ele>
        <time>2020-10-18T14:04:07.000Z</time>
      </trkpt>
      <trkpt lat="48.23698" lon="-3.39479">
        <ele>206.60000610352</ele>
        <time>2020-10-18T14:04:08.000Z</time>
      </trkpt>
      <trkpt lat="48.23696" lon="-3.39485">
        <ele>206.60000610352</ele>
        <time>2020-10-18T14:04:09.000Z</time>
      </trkpt>
      <trkpt lat="48.23693" lon="-3.39491">
        <ele>206.60000610352</ele>
        <time>2020-10-18T14:04:10.000Z</time>
      </trkpt>
      <trkpt lat="48.2369" lon="-3.39497">
        <ele>206.60000610352</ele>
        <time>2020-10-18T14:04:11.000Z</time>
      </trkpt>
      <trkpt lat="48.23687" lon="-3.39504">
        <ele>206.60000610352</ele>
        <time>2020-10-18T14:04:12.000Z</time>
      </trkpt>
      <trkpt lat="48.23685" lon="-3.39511">
        <ele>206.60000610352</ele>
        <time>2020-10-18T14:04:13.000Z</time>
      </trkpt>
      <trkpt lat="48.23683" lon="-3.39517">
        <ele>206.60000610352</ele>
        <time>2020-10-18T14:04:14.000Z</time>
      </trkpt>
      <trkpt lat="48.23681" lon="-3.39524">
        <ele>206.19999694824</ele>
        <time>2020-10-18T14:04:15.000Z</time>
      </trkpt>
      <trkpt lat="48.23679" lon="-3.39531">
        <ele>206</ele>
        <time>2020-10-18T14:04:16.000Z</time>
      </trkpt>
      <trkpt lat="48.23677" lon="-3.39537">
        <ele>205.60000610352</ele>
        <time>2020-10-18T14:04:17.000Z</time>
      </trkpt>
      <trkpt lat="48.23675" lon="-3.39544">
        <ele>205.39999389648</ele>
        <time>2020-10-18T14:04:18.000Z</time>
      </trkpt>
      <trkpt lat="48.23673" lon="-3.39551">
        <ele>205.19999694824</ele>
        <time>2020-10-18T14:04:19.000Z</time>
      </trkpt>
      <trkpt lat="48.2367" lon="-3.39556">
        <ele>205.19999694824</ele>
        <time>2020-10-18T14:04:20.000Z</time>
      </trkpt>
      <trkpt lat="48.23668" lon="-3.39562">
        <ele>205</ele>
        <time>2020-10-18T14:04:21.000Z</time>
      </trkpt>
      <trkpt lat="48.23666" lon="-3.39567">
        <ele>205</ele>
        <time>2020-10-18T14:04:22.000Z</time>
      </trkpt>
      <trkpt lat="48.23664" lon="-3.39573">
        <ele>204.80000305176</ele>
        <time>2020-10-18T14:04:23.000Z</time>
      </trkpt>
      <trkpt lat="48.23661" lon="-3.39579">
        <ele>204.80000305176</ele>
        <time>2020-10-18T14:04:24.000Z</time>
      </trkpt>
      <trkpt lat="48.23658" lon="-3.39584">
        <ele>204.80000305176</ele>
        <time>2020-10-18T14:04:25.000Z</time>
      </trkpt>
      <trkpt lat="48.23656" lon="-3.3959">
        <ele>204.60000610352</ele>
        <time>2020-10-18T14:04:26.000Z</time>
      </trkpt>
      <trkpt lat="48.23654" lon="-3.39596">
        <ele>204.39999389648</ele>
        <time>2020-10-18T14:04:27.000Z</time>
      </trkpt>
      <trkpt lat="48.23651" lon="-3.39602">
        <ele>204.39999389648</ele>
        <time>2020-10-18T14:04:28.000Z</time>
      </trkpt>
      <trkpt lat="48.23649" lon="-3.39609">
        <ele>204.39999389648</ele>
        <time>2020-10-18T14:04:29.000Z</time>
      </trkpt>
      <trkpt lat="48.23647" lon="-3.39615">
        <ele>204.39999389648</ele>
        <time>2020-10-18T14:04:30.000Z</time>
      </trkpt>
      <trkpt lat="48.23644" lon="-3.3962">
        <ele>204.60000610352</ele>
        <time>2020-10-18T14:04:31.000Z</time>
      </trkpt>
      <trkpt lat="48.23641" lon="-3.39626">
        <ele>204.60000610352</ele>
        <time>2020-10-18T14:04:32.000Z</time>
      </trkpt>
      <trkpt lat="48.23639" lon="-3.39632">
        <ele>204.60000610352</ele>
        <time>2020-10-18T14:04:33.000Z</time>
      </trkpt>
      <trkpt lat="48.23636" lon="-3.39637">
        <ele>204.80000305176</ele>
        <time>2020-10-18T14:04:34.000Z</time>
      </trkpt>
      <trkpt lat="48.23633" lon="-3.39644">
        <ele>204.80000305176</ele>
        <time>2020-10-18T14:04:35.000Z</time>
      </trkpt>
      <trkpt lat="48.23631" lon="-3.3965">
        <ele>205.19999694824</ele>
        <time>2020-10-18T14:04:36.000Z</time>
      </trkpt>
      <trkpt lat="48.23628" lon="-3.39656">
        <ele>205.39999389648</ele>
        <time>2020-10-18T14:04:37.000Z</time>
      </trkpt>
      <trkpt lat="48.23626" lon="-3.39662">
        <ele>205.80000305176</ele>
        <time>2020-10-18T14:04:38.000Z</time>
      </trkpt>
      <trkpt lat="48.23624" lon="-3.39668">
        <ele>206</ele>
        <time>2020-10-18T14:04:39.000Z</time>
      </trkpt>
      <trkpt lat="48.23621" lon="-3.39673">
        <ele>206.19999694824</ele>
        <time>2020-10-18T14:04:40.000Z</time>
      </trkpt>
      <trkpt lat="48.23619" lon="-3.39679">
        <ele>206.60000610352</ele>
        <time>2020-10-18T14:04:41.000Z</time>
      </trkpt>
      <trkpt lat="48.23617" lon="-3.39684">
        <ele>206.60000610352</ele>
        <time>2020-10-18T14:04:42.000Z</time>
      </trkpt>
      <trkpt lat="48.23614" lon="-3.3969">
        <ele>206.39999389648</ele>
        <time>2020-10-18T14:04:43.000Z</time>
      </trkpt>
      <trkpt lat="48.23612" lon="-3.39695">
        <ele>206.19999694824</ele>
        <time>2020-10-18T14:04:44.000Z</time>
      </trkpt>
      <trkpt lat="48.2361" lon="-3.39701">
        <ele>206</ele>
        <time>2020-10-18T14:04:45.000Z</time>
      </trkpt>
      <trkpt lat="48.23607" lon="-3.39706">
        <ele>205.80000305176</ele>
        <time>2020-10-18T14:04:46.000Z</time>
      </trkpt>
      <trkpt lat="48.23605" lon="-3.39712">
        <ele>205.60000610352</ele>
        <time>2020-10-18T14:04:47.000Z</time>
      </trkpt>
      <trkpt lat="48.23602" lon="-3.39717">
        <ele>205.39999389648</ele>
        <time>2020-10-18T14:04:48.000Z</time>
      </trkpt>
      <trkpt lat="48.236" lon="-3.39724">
        <ele>205.19999694824</ele>
        <time>2020-10-18T14:04:49.000Z</time>
      </trkpt>
      <trkpt lat="48.23598" lon="-3.3973">
        <ele>205</ele>
        <time>2020-10-18T14:04:50.000Z</time>
      </trkpt>
      <trkpt lat="48.23595" lon="-3.39735">
        <ele>204.80000305176</ele>
        <time>2020-10-18T14:04:51.000Z</time>
      </trkpt>
      <trkpt lat="48.23592" lon="-3.39741">
        <ele>204.80000305176</ele>
        <time>2020-10-18T14:04:52.000Z</time>
      </trkpt>
      <trkpt lat="48.2359" lon="-3.39748">
        <ele>204.60000610352</ele>
        <time>2020-10-18T14:04:53.000Z</time>
      </trkpt>
      <trkpt lat="48.23587" lon="-3.39754">
        <ele>204.60000610352</ele>
        <time>2020-10-18T14:04:54.000Z</time>
      </trkpt>
      <trkpt lat="48.23585" lon="-3.39759">
        <ele>204.60000610352</ele>
        <time>2020-10-18T14:04:55.000Z</time>
      </trkpt>
      <trkpt lat="48.23582" lon="-3.39766">
        <ele>204.39999389648</ele>
        <time>2020-10-18T14:04:56.000Z</time>
      </trkpt>
      <trkpt lat="48.2358" lon="-3.39772">
        <ele>204.60000610352</ele>
        <time>2020-10-18T14:04:57.000Z</time>
      </trkpt>
      <trkpt lat="48.23578" lon="-3.39778">
        <ele>204.60000610352</ele>
        <time>2020-10-18T14:04:58.000Z</time>
      </trkpt>
      <trkpt lat="48.23575" lon="-3.39783">
        <ele>204.80000305176</ele>
        <time>2020-10-18T14:04:59.000Z</time>
      </trkpt>
      <trkpt lat="48.23572" lon="-3.39789">
        <ele>205</ele>
        <time>2020-10-18T14:05:00.000Z</time>
      </trkpt>
      <trkpt lat="48.2357" lon="-3.39795">
        <ele>205</ele>
        <time>2020-10-18T14:05:01.000Z</time>
      </trkpt>
      <trkpt lat="48.23567" lon="-3.398">
        <ele>205.19999694824</ele>
        <time>2020-10-18T14:05:02.000Z</time>
      </trkpt>
      <trkpt lat="48.23565" lon="-3.39806">
        <ele>205.39999389648</ele>
        <time>2020-10-18T14:05:03.000Z</time>
      </trkpt>
      <trkpt lat="48.23562" lon="-3.39812">
        <ele>205.39999389648</ele>
        <time>2020-10-18T14:05:04.000Z</time>
      </trkpt>
      <trkpt lat="48.23559" lon="-3.39817">
        <ele>205.60000610352</ele>
        <time>2020-10-18T14:05:05.000Z</time>
      </trkpt>
      <trkpt lat="48.23557" lon="-3.39822">
        <ele>205.80000305176</ele>
        <time>2020-10-18T14:05:06.000Z</time>
      </trkpt>
      <trkpt lat="48.23555" lon="-3.39829">
        <ele>205.80000305176</ele>
        <time>2020-10-18T14:05:07.000Z</time>
      </trkpt>
      <trkpt lat="48.23552" lon="-3.39835">
        <ele>206</ele>
        <time>2020-10-18T14:05:08.000Z</time>
      </trkpt>
      <trkpt lat="48.23549" lon="-3.39841">
        <ele>206.19999694824</ele>
        <time>2020-10-18T14:05:09.000Z</time>
      </trkpt>
      <trkpt lat="48.23547" lon="-3.39847">
        <ele>206.39999389648</ele>
        <time>2020-10-18T14:05:10.000Z</time>
      </trkpt>
      <trkpt lat="48.23544" lon="-3.39853">
        <ele>206.19999694824</ele>
        <time>2020-10-18T14:05:11.000Z</time>
      </trkpt>
      <trkpt lat="48.23541" lon="-3.39858">
        <ele>206.19999694824</ele>
        <time>2020-10-18T14:05:12.000Z</time>
      </trkpt>
      <trkpt lat="48.23539" lon="-3.39864">
        <ele>206</ele>
        <time>2020-10-18T14:05:13.000Z</time>
      </trkpt>
      <trkpt lat="48.23536" lon="-3.3987">
        <ele>205.80000305176</ele>
        <time>2020-10-18T14:05:14.000Z</time>
      </trkpt>
      <trkpt lat="48.23533" lon="-3.39876">
        <ele>205.80000305176</ele>
        <time>2020-10-18T14:05:15.000Z</time>
      </trkpt>
      <trkpt lat="48.23531" lon="-3.39882">
        <ele>205.60000610352</ele>
        <time>2020-10-18T14:05:16.000Z</time>
      </trkpt>
      <trkpt lat="48.23528" lon="-3.39888">
        <ele>205.39999389648</ele>
        <time>2020-10-18T14:05:17.000Z</time>
      </trkpt>
      <trkpt lat="48.23526" lon="-3.39894">
        <ele>205.19999694824</ele>
        <time>2020-10-18T14:05:18.000Z</time>
      </trkpt>
      <trkpt lat="48.23523" lon="-3.399">
        <ele>205</ele>
        <time>2020-10-18T14:05:19.000Z</time>
      </trkpt>
      <trkpt lat="48.23521" lon="-3.39906">
        <ele>204.80000305176</ele>
        <time>2020-10-18T14:05:20.000Z</time>
      </trkpt>
      <trkpt lat="48.23519" lon="-3.39913">
        <ele>204.60000610352</ele>
        <time>2020-10-18T14:05:21.000Z</time>
      </trkpt>
      <trkpt lat="48.23516" lon="-3.39919">
        <ele>204.60000610352</ele>
        <time>2020-10-18T14:05:22.000Z</time>
      </trkpt>
      <trkpt lat="48.23513" lon="-3.39925">
        <ele>204.39999389648</ele>
        <time>2020-10-18T14:05:23.000Z</time>
      </trkpt>
      <trkpt lat="48.23511" lon="-3.39931">
        <ele>204.19999694824</ele>
        <time>2020-10-18T14:05:24.000Z</time>
      </trkpt>
      <trkpt lat="48.23508" lon="-3.39936">
        <ele>204.39999389648</ele>
        <time>2020-10-18T14:05:25.000Z</time>
      </trkpt>
      <trkpt lat="48.23506" lon="-3.39941">
        <ele>204.80000305176</ele>
        <time>2020-10-18T14:05:26.000Z</time>
      </trkpt>
      <trkpt lat="48.23504" lon="-3.39947">
        <ele>205</ele>
        <time>2020-10-18T14:05:27.000Z</time>
      </trkpt>
      <trkpt lat="48.23502" lon="-3.39952">
        <ele>205.19999694824</ele>
        <time>2020-10-18T14:05:28.000Z</time>
      </trkpt>
      <trkpt lat="48.235" lon="-3.39955">
        <ele>205.39999389648</ele>
        <time>2020-10-18T14:05:29.000Z</time>
      </trkpt>
      <trkpt lat="48.23498" lon="-3.39958">
        <ele>205.60000610352</ele>
        <time>2020-10-18T14:05:30.000Z</time>
      </trkpt>
      <trkpt lat="48.23496" lon="-3.39961">
        <ele>206</ele>
        <time>2020-10-18T14:05:31.000Z</time>
      </trkpt>
      <trkpt lat="48.23495" lon="-3.39964">
        <ele>206</ele>
        <time>2020-10-18T14:05:32.000Z</time>
      </trkpt>
      <trkpt lat="48.23493" lon="-3.39968">
        <ele>206.19999694824</ele>
        <time>2020-10-18T14:05:33.000Z</time>
      </trkpt>
      <trkpt lat="48.23492" lon="-3.39972">
        <ele>206.39999389648</ele>
        <time>2020-10-18T14:05:34.000Z</time>
      </trkpt>
      <trkpt lat="48.2349" lon="-3.39974">
        <ele>206.60000610352</ele>
        <time>2020-10-18T14:05:35.000Z</time>
      </trkpt>
      <trkpt lat="48.23489" lon="-3.39977">
        <ele>206.80000305176</ele>
        <time>2020-10-18T14:05:36.000Z</time>
      </trkpt>
      <trkpt lat="48.23488" lon="-3.3998">
        <ele>207</ele>
        <time>2020-10-18T14:05:37.000Z</time>
      </trkpt>
      <trkpt lat="48.23487" lon="-3.39982">
        <ele>207</ele>
        <time>2020-10-18T14:05:38.000Z</time>
      </trkpt>
      <trkpt lat="48.23486" lon="-3.39984">
        <ele>207.19999694824</ele>
        <time>2020-10-18T14:05:39.000Z</time>
      </trkpt>
      <trkpt lat="48.23485" lon="-3.39986">
        <ele>207.19999694824</ele>
        <time>2020-10-18T14:05:40.000Z</time>
      </trkpt>
      <trkpt lat="48.23484" lon="-3.39988">
        <ele>207.39999389648</ele>
        <time>2020-10-18T14:05:41.000Z</time>
      </trkpt>
      <trkpt lat="48.23482" lon="-3.3999">
        <ele>207.60000610352</ele>
        <time>2020-10-18T14:05:42.000Z</time>
      </trkpt>
      <trkpt lat="48.2348" lon="-3.39991">
        <ele>207.80000305176</ele>
        <time>2020-10-18T14:05:43.000Z</time>
      </trkpt>
      <trkpt lat="48.23479" lon="-3.39993">
        <ele>208</ele>
        <time>2020-10-18T14:05:44.000Z</time>
      </trkpt>
      <trkpt lat="48.23477" lon="-3.39994">
        <ele>208.19999694824</ele>
        <time>2020-10-18T14:05:45.000Z</time>
      </trkpt>
      <trkpt lat="48.23474" lon="-3.39996">
        <ele>208.60000610352</ele>
        <time>2020-10-18T14:05:46.000Z</time>
      </trkpt>
      <trkpt lat="48.23471" lon="-3.39998">
        <ele>209</ele>
        <time>2020-10-18T14:05:47.000Z</time>
      </trkpt>
      <trkpt lat="48.23469" lon="-3.40002">
        <ele>209.19999694824</ele>
        <time>2020-10-18T14:05:48.000Z</time>
      </trkpt>
      <trkpt lat="48.23466" lon="-3.40006">
        <ele>209.60000610352</ele>
        <time>2020-10-18T14:05:49.000Z</time>
      </trkpt>
      <trkpt lat="48.23462" lon="-3.4001">
        <ele>210</ele>
        <time>2020-10-18T14:05:50.000Z</time>
      </trkpt>
      <trkpt lat="48.23459" lon="-3.40015">
        <ele>210.39999389648</ele>
        <time>2020-10-18T14:05:51.000Z</time>
      </trkpt>
      <trkpt lat="48.23456" lon="-3.40019">
        <ele>210.60000610352</ele>
        <time>2020-10-18T14:05:52.000Z</time>
      </trkpt>
      <trkpt lat="48.23452" lon="-3.40024">
        <ele>210.80000305176</ele>
        <time>2020-10-18T14:05:53.000Z</time>
      </trkpt>
      <trkpt lat="48.23449" lon="-3.40028">
        <ele>211</ele>
        <time>2020-10-18T14:05:54.000Z</time>
      </trkpt>
      <trkpt lat="48.23447" lon="-3.40033">
        <ele>211</ele>
        <time>2020-10-18T14:05:55.000Z</time>
      </trkpt>
      <trkpt lat="48.23445" lon="-3.40038">
        <ele>211</ele>
        <time>2020-10-18T14:05:56.000Z</time>
      </trkpt>
      <trkpt lat="48.23443" lon="-3.40042">
        <ele>211</ele>
        <time>2020-10-18T14:05:57.000Z</time>
      </trkpt>
      <trkpt lat="48.23442" lon="-3.40047">
        <ele>211</ele>
        <time>2020-10-18T14:05:58.000Z</time>
      </trkpt>
      <trkpt lat="48.2344" lon="-3.40051">
        <ele>211</ele>
        <time>2020-10-18T14:05:59.000Z</time>
      </trkpt>
      <trkpt lat="48.23437" lon="-3.40055">
        <ele>211</ele>
        <time>2020-10-18T14:06:00.000Z</time>
      </trkpt>
      <trkpt lat="48.23435" lon="-3.40058">
        <ele>211.19999694824</ele>
        <time>2020-10-18T14:06:01.000Z</time>
      </trkpt>
      <trkpt lat="48.23433" lon="-3.40062">
        <ele>211.19999694824</ele>
        <time>2020-10-18T14:06:02.000Z</time>
      </trkpt>
      <trkpt lat="48.23431" lon="-3.40066">
        <ele>211.39999389648</ele>
        <time>2020-10-18T14:06:03.000Z</time>
      </trkpt>
      <trkpt lat="48.23429" lon="-3.4007">
        <ele>211.39999389648</ele>
        <time>2020-10-18T14:06:04.000Z</time>
      </trkpt>
      <trkpt lat="48.23427" lon="-3.40074">
        <ele>211.39999389648</ele>
        <time>2020-10-18T14:06:05.000Z</time>
      </trkpt>
      <trkpt lat="48.23425" lon="-3.40078">
        <ele>211.39999389648</ele>
        <time>2020-10-18T14:06:06.000Z</time>
      </trkpt>
      <trkpt lat="48.23424" lon="-3.40082">
        <ele>211.39999389648</ele>
        <time>2020-10-18T14:06:07.000Z</time>
      </trkpt>
      <trkpt lat="48.23422" lon="-3.40085">
        <ele>211.19999694824</ele>
        <time>2020-10-18T14:06:08.000Z</time>
      </trkpt>
      <trkpt lat="48.23421" lon="-3.40088">
        <ele>211.19999694824</ele>
        <time>2020-10-18T14:06:09.000Z</time>
      </trkpt>
      <trkpt lat="48.2342" lon="-3.40091">
        <ele>211.19999694824</ele>
        <time>2020-10-18T14:06:10.000Z</time>
      </trkpt>
      <trkpt lat="48.2342" lon="-3.40093">
        <ele>211.19999694824</ele>
        <time>2020-10-18T14:06:11.000Z</time>
      </trkpt>
      <trkpt lat="48.2342" lon="-3.40095">
        <ele>211</ele>
        <time>2020-10-18T14:06:12.000Z</time>
      </trkpt>
      <trkpt lat="48.2342" lon="-3.40095">
        <ele>211</ele>
        <time>2020-10-18T14:06:13.000Z</time>
      </trkpt>
      <trkpt lat="48.23421" lon="-3.40095">
        <ele>211</ele>
        <time>2020-10-18T14:06:14.000Z</time>
      </trkpt>
      <trkpt lat="48.23421" lon="-3.40095">
        <ele>211</ele>
        <time>2020-10-18T14:06:15.000Z</time>
      </trkpt>
      <trkpt lat="48.23421" lon="-3.40094">
        <ele>211</ele>
        <time>2020-10-18T14:06:16.000Z</time>
      </trkpt>
      <trkpt lat="48.23421" lon="-3.40094">
        <ele>211</ele>
        <time>2020-10-18T14:06:17.000Z</time>
      </trkpt>
      <trkpt lat="48.23421" lon="-3.40094">
        <ele>211</ele>
        <time>2020-10-18T14:06:18.000Z</time>
      </trkpt>
      <trkpt lat="48.23421" lon="-3.40094">
        <ele>211</ele>
        <time>2020-10-18T14:06:19.000Z</time>
      </trkpt>
      <trkpt lat="48.23421" lon="-3.40094">
        <ele>211</ele>
        <time>2020-10-18T14:06:20.000Z</time>
      </trkpt>
      <trkpt lat="48.23421" lon="-3.40094">
        <ele>211</ele>
        <time>2020-10-18T14:06:21.000Z</time>
      </trkpt>
      <trkpt lat="48.23421" lon="-3.40094">
        <ele>211</ele>
        <time>2020-10-18T14:06:22.000Z</time>
      </trkpt>
      <trkpt lat="48.23421" lon="-3.40094">
        <ele>211</ele>
        <time>2020-10-18T14:06:23.000Z</time>
      </trkpt>
      <trkpt lat="48.23421" lon="-3.40094">
        <ele>211</ele>
        <time>2020-10-18T14:06:24.000Z</time>
      </trkpt>
      <trkpt lat="48.23421" lon="-3.40094">
        <ele>211</ele>
        <time>2020-10-18T14:06:25.000Z</time>
      </trkpt>
      <trkpt lat="48.23421" lon="-3.40094">
        <ele>211</ele>
        <time>2020-10-18T14:06:26.000Z</time>
      </trkpt>
      <trkpt lat="48.23421" lon="-3.40094">
        <ele>211</ele>
        <time>2020-10-18T14:06:27.000Z</time>
      </trkpt>
      <trkpt lat="48.23421" lon="-3.40094">
        <ele>211</ele>
        <time>2020-10-18T14:06:28.000Z</time>
      </trkpt>
      <trkpt lat="48.23421" lon="-3.40094">
        <ele>211</ele>
        <time>2020-10-18T14:06:29.000Z</time>
      </trkpt>
      <trkpt lat="48.23421" lon="-3.40094">
        <ele>211</ele>
        <time>2020-10-18T14:06:30.000Z</time>
      </trkpt>
      <trkpt lat="48.23421" lon="-3.40094">
        <ele>211</ele>
        <time>2020-10-18T14:06:31.000Z</time>
      </trkpt>
      <trkpt lat="48.23421" lon="-3.40094">
        <ele>211</ele>
        <time>2020-10-18T14:06:32.000Z</time>
      </trkpt>
      <trkpt lat="48.23421" lon="-3.40094">
        <ele>211</ele>
        <time>2020-10-18T14:06:33.000Z</time>
      </trkpt>
      <trkpt lat="48.23421" lon="-3.40094">
        <ele>211</ele>
        <time>2020-10-18T14:06:34.000Z</time>
      </trkpt>
      <trkpt lat="48.23421" lon="-3.40094">
        <ele>211</ele>
        <time>2020-10-18T14:06:35.000Z</time>
      </trkpt>
      <trkpt lat="48.23421" lon="-3.40094">
        <ele>211</ele>
        <time>2020-10-18T14:06:36.000Z</time>
      </trkpt>
      <trkpt lat="48.23421" lon="-3.40094">
        <ele>211</ele>
        <time>2020-10-18T14:06:37.000Z</time>
      </trkpt>
      <trkpt lat="48.23421" lon="-3.40094">
        <ele>211</ele>
        <time>2020-10-18T14:06:38.000Z</time>
      </trkpt>
      <trkpt lat="48.23421" lon="-3.40094">
        <ele>211</ele>
        <time>2020-10-18T14:06:39.000Z</time>
      </trkpt>
      <trkpt lat="48.23421" lon="-3.40094">
        <ele>211</ele>
        <time>2020-10-18T14:06:40.000Z</time>
      </trkpt>
      <trkpt lat="48.23421" lon="-3.40094">
        <ele>211</ele>
        <time>2020-10-18T14:06:41.000Z</time>
      </trkpt>
      <trkpt lat="48.23421" lon="-3.40094">
        <ele>211</ele>
        <time>2020-10-18T14:06:42.000Z</time>
      </trkpt>
      <trkpt lat="48.23421" lon="-3.40094">
        <ele>211</ele>
        <time>2020-10-18T14:06:43.000Z</time>
      </trkpt>
      <trkpt lat="48.23421" lon="-3.40094">
        <ele>211</ele>
        <time>2020-10-18T14:06:44.000Z</time>
      </trkpt>
      <trkpt lat="48.23421" lon="-3.40094">
        <ele>211</ele>
        <time>2020-10-18T14:06:45.000Z</time>
      </trkpt>
      <trkpt lat="48.23421" lon="-3.40094">
        <ele>211</ele>
        <time>2020-10-18T14:06:46.000Z</time>
      </trkpt>
      <trkpt lat="48.23421" lon="-3.40094">
        <ele>211</ele>
        <time>2020-10-18T14:06:47.000Z</time>
      </trkpt>
      <trkpt lat="48.23421" lon="-3.40094">
        <ele>211</ele>
        <time>2020-10-18T14:06:48.000Z</time>
      </trkpt>
      <trkpt lat="48.23421" lon="-3.40094">
        <ele>211</ele>
        <time>2020-10-18T14:06:49.000Z</time>
      </trkpt>
      <trkpt lat="48.23421" lon="-3.40094">
        <ele>211</ele>
        <time>2020-10-18T14:06:50.000Z</time>
      </trkpt>
      <trkpt lat="48.23421" lon="-3.40094">
        <ele>211</ele>
        <time>2020-10-18T14:06:51.000Z</time>
      </trkpt>
      <trkpt lat="48.23421" lon="-3.40094">
        <ele>211</ele>
        <time>2020-10-18T14:06:52.000Z</time>
      </trkpt>
      <trkpt lat="48.23421" lon="-3.40094">
        <ele>211</ele>
        <time>2020-10-18T14:06:53.000Z</time>
      </trkpt>
      <trkpt lat="48.23421" lon="-3.40094">
        <ele>211</ele>
        <time>2020-10-18T14:06:54.000Z</time>
      </trkpt>
      <trkpt lat="48.23421" lon="-3.40094">
        <ele>211</ele>
        <time>2020-10-18T14:06:55.000Z</time>
      </trkpt>
      <trkpt lat="48.23421" lon="-3.40094">
        <ele>211</ele>
        <time>2020-10-18T14:06:56.000Z</time>
      </trkpt>
      <trkpt lat="48.23421" lon="-3.40094">
        <ele>211</ele>
        <time>2020-10-18T14:06:57.000Z</time>
      </trkpt>
      <trkpt lat="48.23421" lon="-3.40094">
        <ele>211</ele>
        <time>2020-10-18T14:06:58.000Z</time>
      </trkpt>
      <trkpt lat="48.23421" lon="-3.40094">
        <ele>211</ele>
        <time>2020-10-18T14:06:59.000Z</time>
      </trkpt>
      <trkpt lat="48.23421" lon="-3.40094">
        <ele>211</ele>
        <time>2020-10-18T14:07:00.000Z</time>
      </trkpt>
      <trkpt lat="48.23421" lon="-3.40094">
        <ele>211</ele>
        <time>2020-10-18T14:07:01.000Z</time>
      </trkpt>
      <trkpt lat="48.23421" lon="-3.40094">
        <ele>211</ele>
        <time>2020-10-18T14:07:02.000Z</time>
      </trkpt>
      <trkpt lat="48.23421" lon="-3.40094">
        <ele>211</ele>
        <time>2020-10-18T14:07:03.000Z</time>
      </trkpt>
      <trkpt lat="48.23421" lon="-3.40094">
        <ele>211</ele>
        <time>2020-10-18T14:07:04.000Z</time>
      </trkpt>
      <trkpt lat="48.23421" lon="-3.40094">
        <ele>211</ele>
        <time>2020-10-18T14:07:05.000Z</time>
      </trkpt>
      <trkpt lat="48.23421" lon="-3.40094">
        <ele>211</ele>
        <time>2020-10-18T14:07:06.000Z</time>
      </trkpt>
      <trkpt lat="48.23421" lon="-3.40094">
        <ele>211</ele>
        <time>2020-10-18T14:07:07.000Z</time>
      </trkpt>
      <trkpt lat="48.23421" lon="-3.40094">
        <ele>211</ele>
        <time>2020-10-18T14:07:08.000Z</time>
      </trkpt>
      <trkpt lat="48.23421" lon="-3.40094">
        <ele>211</ele>
        <time>2020-10-18T14:07:09.000Z</time>
      </trkpt>
      <trkpt lat="48.23421" lon="-3.40094">
        <ele>211</ele>
        <time>2020-10-18T14:07:10.000Z</time>
      </trkpt>
      <trkpt lat="48.23421" lon="-3.40094">
        <ele>211</ele>
        <time>2020-10-18T14:07:11.000Z</time>
      </trkpt>
      <trkpt lat="48.23421" lon="-3.40094">
        <ele>211</ele>
        <time>2020-10-18T14:07:12.000Z</time>
      </trkpt>
      <trkpt lat="48.23421" lon="-3.40094">
        <ele>211</ele>
        <time>2020-10-18T14:07:13.000Z</time>
      </trkpt>
      <trkpt lat="48.23421" lon="-3.40094">
        <ele>211</ele>
        <time>2020-10-18T14:07:14.000Z</time>
      </trkpt>
      <trkpt lat="48.23421" lon="-3.40094">
        <ele>211</ele>
        <time>2020-10-18T14:07:15.000Z</time>
      </trkpt>
      <trkpt lat="48.23421" lon="-3.40094">
        <ele>211</ele>
        <time>2020-10-18T14:07:16.000Z</time>
      </trkpt>
      <trkpt lat="48.23421" lon="-3.40094">
        <ele>211</ele>
        <time>2020-10-18T14:07:17.000Z</time>
      </trkpt>
      <trkpt lat="48.23421" lon="-3.40094">
        <ele>211</ele>
        <time>2020-10-18T14:07:18.000Z</time>
      </trkpt>
      <trkpt lat="48.23421" lon="-3.40094">
        <ele>211</ele>
        <time>2020-10-18T14:07:19.000Z</time>
      </trkpt>
      <trkpt lat="48.23421" lon="-3.40094">
        <ele>211</ele>
        <time>2020-10-18T14:07:20.000Z</time>
      </trkpt>
      <trkpt lat="48.23421" lon="-3.40094">
        <ele>211</ele>
        <time>2020-10-18T14:07:21.000Z</time>
      </trkpt>
      <trkpt lat="48.23421" lon="-3.40094">
        <ele>211</ele>
        <time>2020-10-18T14:07:22.000Z</time>
      </trkpt>
      <trkpt lat="48.23421" lon="-3.40094">
        <ele>211</ele>
        <time>2020-10-18T14:07:23.000Z</time>
      </trkpt>
      <trkpt lat="48.23421" lon="-3.40094">
        <ele>211</ele>
        <time>2020-10-18T14:07:24.000Z</time>
      </trkpt>
      <trkpt lat="48.23421" lon="-3.40094">
        <ele>211</ele>
        <time>2020-10-18T14:07:25.000Z</time>
      </trkpt>
      <trkpt lat="48.23421" lon="-3.40094">
        <ele>211</ele>
        <time>2020-10-18T14:07:26.000Z</time>
      </trkpt>
      <trkpt lat="48.23421" lon="-3.40094">
        <ele>211</ele>
        <time>2020-10-18T14:07:27.000Z</time>
      </trkpt>
      <trkpt lat="48.23421" lon="-3.40094">
        <ele>211</ele>
        <time>2020-10-18T14:07:28.000Z</time>
      </trkpt>
      <trkpt lat="48.23421" lon="-3.40094">
        <ele>211</ele>
        <time>2020-10-18T14:07:29.000Z</time>
      </trkpt>
      <trkpt lat="48.23421" lon="-3.40094">
        <ele>211</ele>
        <time>2020-10-18T14:07:30.000Z</time>
      </trkpt>
      <trkpt lat="48.23421" lon="-3.40094">
        <ele>211</ele>
        <time>2020-10-18T14:07:31.000Z</time>
      </trkpt>
      <trkpt lat="48.23421" lon="-3.40094">
        <ele>211</ele>
        <time>2020-10-18T14:07:32.000Z</time>
      </trkpt>
      <trkpt lat="48.23421" lon="-3.40094">
        <ele>211</ele>
        <time>2020-10-18T14:07:33.000Z</time>
      </trkpt>
      <trkpt lat="48.23421" lon="-3.40094">
        <ele>211</ele>
        <time>2020-10-18T14:07:34.000Z</time>
      </trkpt>
      <trkpt lat="48.23421" lon="-3.40094">
        <ele>211</ele>
        <time>2020-10-18T14:07:35.000Z</time>
      </trkpt>
      <trkpt lat="48.23421" lon="-3.40094">
        <ele>211</ele>
        <time>2020-10-18T14:07:36.000Z</time>
      </trkpt>
      <trkpt lat="48.23421" lon="-3.40094">
        <ele>211</ele>
        <time>2020-10-18T14:07:37.000Z</time>
      </trkpt>
      <trkpt lat="48.23421" lon="-3.40094">
        <ele>211</ele>
        <time>2020-10-18T14:07:38.000Z</time>
      </trkpt>
      <trkpt lat="48.23421" lon="-3.40094">
        <ele>211</ele>
        <time>2020-10-18T14:07:39.000Z</time>
      </trkpt>
      <trkpt lat="48.23421" lon="-3.40094">
        <ele>211</ele>
        <time>2020-10-18T14:07:40.000Z</time>
      </trkpt>
      <trkpt lat="48.23421" lon="-3.40094">
        <ele>211</ele>
        <time>2020-10-18T14:07:41.000Z</time>
      </trkpt>
      <trkpt lat="48.23421" lon="-3.40094">
        <ele>211</ele>
        <time>2020-10-18T14:07:42.000Z</time>
      </trkpt>
      <trkpt lat="48.23421" lon="-3.40094">
        <ele>211</ele>
        <time>2020-10-18T14:07:43.000Z</time>
      </trkpt>
      <trkpt lat="48.23421" lon="-3.40094">
        <ele>211</ele>
        <time>2020-10-18T14:07:44.000Z</time>
      </trkpt>
      <trkpt lat="48.23421" lon="-3.40094">
        <ele>211</ele>
        <time>2020-10-18T14:07:45.000Z</time>
      </trkpt>
      <trkpt lat="48.23421" lon="-3.40094">
        <ele>211</ele>
        <time>2020-10-18T14:07:46.000Z</time>
      </trkpt>
      <trkpt lat="48.23421" lon="-3.40094">
        <ele>211</ele>
        <time>2020-10-18T14:07:47.000Z</time>
      </trkpt>
      <trkpt lat="48.23421" lon="-3.40094">
        <ele>211</ele>
        <time>2020-10-18T14:07:48.000Z</time>
      </trkpt>
      <trkpt lat="48.23421" lon="-3.40094">
        <ele>211</ele>
        <time>2020-10-18T14:07:49.000Z</time>
      </trkpt>
      <trkpt lat="48.23421" lon="-3.40094">
        <ele>211</ele>
        <time>2020-10-18T14:07:50.000Z</time>
      </trkpt>
      <trkpt lat="48.23421" lon="-3.40094">
        <ele>211</ele>
        <time>2020-10-18T14:07:51.000Z</time>
      </trkpt>
      <trkpt lat="48.23421" lon="-3.40094">
        <ele>211</ele>
        <time>2020-10-18T14:07:52.000Z</time>
      </trkpt>
      <trkpt lat="48.23421" lon="-3.40094">
        <ele>211</ele>
        <time>2020-10-18T14:07:53.000Z</time>
      </trkpt>
      <trkpt lat="48.23421" lon="-3.40094">
        <ele>211</ele>
        <time>2020-10-18T14:07:54.000Z</time>
      </trkpt>
      <trkpt lat="48.23421" lon="-3.40094">
        <ele>211</ele>
        <time>2020-10-18T14:07:55.000Z</time>
      </trkpt>
      <trkpt lat="48.23421" lon="-3.40094">
        <ele>211</ele>
        <time>2020-10-18T14:07:56.000Z</time>
      </trkpt>
      <trkpt lat="48.23421" lon="-3.40094">
        <ele>211</ele>
        <time>2020-10-18T14:07:57.000Z</time>
      </trkpt>
      <trkpt lat="48.23421" lon="-3.40094">
        <ele>211</ele>
        <time>2020-10-18T14:07:58.000Z</time>
      </trkpt>
      <trkpt lat="48.23421" lon="-3.40094">
        <ele>211</ele>
        <time>2020-10-18T14:07:59.000Z</time>
      </trkpt>
      <trkpt lat="48.23421" lon="-3.40094">
        <ele>211</ele>
        <time>2020-10-18T14:08:00.000Z</time>
      </trkpt>
      <trkpt lat="48.23421" lon="-3.40094">
        <ele>211</ele>
        <time>2020-10-18T14:08:01.000Z</time>
      </trkpt>
      <trkpt lat="48.23421" lon="-3.40094">
        <ele>211</ele>
        <time>2020-10-18T14:08:02.000Z</time>
      </trkpt>
      <trkpt lat="48.23421" lon="-3.40094">
        <ele>211</ele>
        <time>2020-10-18T14:08:03.000Z</time>
      </trkpt>
      <trkpt lat="48.23421" lon="-3.40094">
        <ele>211</ele>
        <time>2020-10-18T14:08:04.000Z</time>
      </trkpt>
      <trkpt lat="48.23421" lon="-3.40094">
        <ele>211</ele>
        <time>2020-10-18T14:08:05.000Z</time>
      </trkpt>
      <trkpt lat="48.23421" lon="-3.40094">
        <ele>211</ele>
        <time>2020-10-18T14:08:06.000Z</time>
      </trkpt>
      <trkpt lat="48.23421" lon="-3.40094">
        <ele>211</ele>
        <time>2020-10-18T14:08:07.000Z</time>
      </trkpt>
      <trkpt lat="48.23421" lon="-3.40094">
        <ele>211</ele>
        <time>2020-10-18T14:08:08.000Z</time>
      </trkpt>
      <trkpt lat="48.23421" lon="-3.40094">
        <ele>211</ele>
        <time>2020-10-18T14:08:09.000Z</time>
      </trkpt>
      <trkpt lat="48.23421" lon="-3.40094">
        <ele>211</ele>
        <time>2020-10-18T14:08:10.000Z</time>
      </trkpt>
      <trkpt lat="48.23421" lon="-3.40094">
        <ele>211</ele>
        <time>2020-10-18T14:08:11.000Z</time>
      </trkpt>
      <trkpt lat="48.23421" lon="-3.40094">
        <ele>211</ele>
        <time>2020-10-18T14:08:12.000Z</time>
      </trkpt>
      <trkpt lat="48.23421" lon="-3.40094">
        <ele>211</ele>
        <time>2020-10-18T14:08:13.000Z</time>
      </trkpt>
      <trkpt lat="48.23421" lon="-3.40094">
        <ele>211</ele>
        <time>2020-10-18T14:08:14.000Z</time>
      </trkpt>
      <trkpt lat="48.23421" lon="-3.40094">
        <ele>211</ele>
        <time>2020-10-18T14:08:15.000Z</time>
      </trkpt>
      <trkpt lat="48.23421" lon="-3.40094">
        <ele>211</ele>
        <time>2020-10-18T14:08:16.000Z</time>
      </trkpt>
      <trkpt lat="48.23421" lon="-3.40094">
        <ele>211</ele>
        <time>2020-10-18T14:08:17.000Z</time>
      </trkpt>
      <trkpt lat="48.23421" lon="-3.40094">
        <ele>211</ele>
        <time>2020-10-18T14:08:18.000Z</time>
      </trkpt>
      <trkpt lat="48.23421" lon="-3.40094">
        <ele>211</ele>
        <time>2020-10-18T14:08:19.000Z</time>
      </trkpt>
      <trkpt lat="48.23421" lon="-3.40094">
        <ele>211</ele>
        <time>2020-10-18T14:08:20.000Z</time>
      </trkpt>
      <trkpt lat="48.23421" lon="-3.40094">
        <ele>211</ele>
        <time>2020-10-18T14:08:21.000Z</time>
      </trkpt>
      <trkpt lat="48.23421" lon="-3.40094">
        <ele>211</ele>
        <time>2020-10-18T14:08:22.000Z</time>
      </trkpt>
      <trkpt lat="48.23421" lon="-3.40094">
        <ele>211</ele>
        <time>2020-10-18T14:08:23.000Z</time>
      </trkpt>
      <trkpt lat="48.23421" lon="-3.40094">
        <ele>211</ele>
        <time>2020-10-18T14:08:24.000Z</time>
      </trkpt>
      <trkpt lat="48.23421" lon="-3.40094">
        <ele>211</ele>
        <time>2020-10-18T14:08:25.000Z</time>
      </trkpt>
      <trkpt lat="48.23421" lon="-3.40094">
        <ele>211</ele>
        <time>2020-10-18T14:08:26.000Z</time>
      </trkpt>
      <trkpt lat="48.23421" lon="-3.40094">
        <ele>211</ele>
        <time>2020-10-18T14:08:27.000Z</time>
      </trkpt>
      <trkpt lat="48.23421" lon="-3.40094">
        <ele>211</ele>
        <time>2020-10-18T14:08:28.000Z</time>
      </trkpt>
      <trkpt lat="48.23421" lon="-3.40094">
        <ele>211</ele>
        <time>2020-10-18T14:08:29.000Z</time>
      </trkpt>
      <trkpt lat="48.23421" lon="-3.40094">
        <ele>211</ele>
        <time>2020-10-18T14:08:30.000Z</time>
      </trkpt>
      <trkpt lat="48.23421" lon="-3.40094">
        <ele>211</ele>
        <time>2020-10-18T14:08:31.000Z</time>
      </trkpt>
      <trkpt lat="48.23421" lon="-3.40094">
        <ele>211</ele>
        <time>2020-10-18T14:08:32.000Z</time>
      </trkpt>
      <trkpt lat="48.23421" lon="-3.40094">
        <ele>211</ele>
        <time>2020-10-18T14:08:33.000Z</time>
      </trkpt>
      <trkpt lat="48.23421" lon="-3.40094">
        <ele>211</ele>
        <time>2020-10-18T14:08:34.000Z</time>
      </trkpt>
      <trkpt lat="48.23421" lon="-3.40094">
        <ele>211</ele>
        <time>2020-10-18T14:08:35.000Z</time>
      </trkpt>
      <trkpt lat="48.23421" lon="-3.40094">
        <ele>211</ele>
        <time>2020-10-18T14:08:36.000Z</time>
      </trkpt>
      <trkpt lat="48.23421" lon="-3.40094">
        <ele>211</ele>
        <time>2020-10-18T14:08:37.000Z</time>
      </trkpt>
      <trkpt lat="48.23421" lon="-3.40094">
        <ele>211</ele>
        <time>2020-10-18T14:08:38.000Z</time>
      </trkpt>
      <trkpt lat="48.23421" lon="-3.40094">
        <ele>211</ele>
        <time>2020-10-18T14:08:39.000Z</time>
      </trkpt>
      <trkpt lat="48.23421" lon="-3.40094">
        <ele>211</ele>
        <time>2020-10-18T14:08:40.000Z</time>
      </trkpt>
      <trkpt lat="48.23421" lon="-3.40094">
        <ele>211</ele>
        <time>2020-10-18T14:08:41.000Z</time>
      </trkpt>
      <trkpt lat="48.23421" lon="-3.40094">
        <ele>211</ele>
        <time>2020-10-18T14:08:42.000Z</time>
      </trkpt>
      <trkpt lat="48.23421" lon="-3.40094">
        <ele>211</ele>
        <time>2020-10-18T14:08:43.000Z</time>
      </trkpt>
      <trkpt lat="48.23421" lon="-3.40095">
        <ele>211</ele>
        <time>2020-10-18T14:08:44.000Z</time>
      </trkpt>
      <trkpt lat="48.2342" lon="-3.40097">
        <ele>211</ele>
        <time>2020-10-18T14:08:45.000Z</time>
      </trkpt>
      <trkpt lat="48.23419" lon="-3.40098">
        <ele>211</ele>
        <time>2020-10-18T14:08:46.000Z</time>
      </trkpt>
      <trkpt lat="48.23418" lon="-3.40101">
        <ele>211</ele>
        <time>2020-10-18T14:08:47.000Z</time>
      </trkpt>
      <trkpt lat="48.23417" lon="-3.40105">
        <ele>210.80000305176</ele>
        <time>2020-10-18T14:08:48.000Z</time>
      </trkpt>
      <trkpt lat="48.23415" lon="-3.40108">
        <ele>210.80000305176</ele>
        <time>2020-10-18T14:08:49.000Z</time>
      </trkpt>
      <trkpt lat="48.23413" lon="-3.40111">
        <ele>210.80000305176</ele>
        <time>2020-10-18T14:08:50.000Z</time>
      </trkpt>
      <trkpt lat="48.23411" lon="-3.40114">
        <ele>210.80000305176</ele>
        <time>2020-10-18T14:08:51.000Z</time>
      </trkpt>
      <trkpt lat="48.23407" lon="-3.40121">
        <ele>210.80000305176</ele>
        <time>2020-10-18T14:08:52.000Z</time>
      </trkpt>
      <trkpt lat="48.23407" lon="-3.40121">
        <ele>210.80000305176</ele>
        <time>2020-10-18T14:08:53.000Z</time>
      </trkpt>
      <trkpt lat="48.23404" lon="-3.40126">
        <ele>210.80000305176</ele>
        <time>2020-10-18T14:08:54.000Z</time>
      </trkpt>
      <trkpt lat="48.23402" lon="-3.40131">
        <ele>210.80000305176</ele>
        <time>2020-10-18T14:08:55.000Z</time>
      </trkpt>
      <trkpt lat="48.234" lon="-3.40136">
        <ele>210.80000305176</ele>
        <time>2020-10-18T14:08:56.000Z</time>
      </trkpt>
      <trkpt lat="48.23398" lon="-3.40141">
        <ele>210.80000305176</ele>
        <time>2020-10-18T14:08:57.000Z</time>
      </trkpt>
      <trkpt lat="48.23395" lon="-3.40145">
        <ele>210.80000305176</ele>
        <time>2020-10-18T14:08:58.000Z</time>
      </trkpt>
      <trkpt lat="48.23393" lon="-3.40151">
        <ele>210.80000305176</ele>
        <time>2020-10-18T14:08:59.000Z</time>
      </trkpt>
      <trkpt lat="48.23391" lon="-3.40156">
        <ele>210.60000610352</ele>
        <time>2020-10-18T14:09:00.000Z</time>
      </trkpt>
      <trkpt lat="48.23388" lon="-3.40161">
        <ele>210.60000610352</ele>
        <time>2020-10-18T14:09:01.000Z</time>
      </trkpt>
      <trkpt lat="48.23385" lon="-3.40166">
        <ele>210.80000305176</ele>
        <time>2020-10-18T14:09:02.000Z</time>
      </trkpt>
      <trkpt lat="48.23382" lon="-3.4017">
        <ele>210.80000305176</ele>
        <time>2020-10-18T14:09:03.000Z</time>
      </trkpt>
      <trkpt lat="48.23379" lon="-3.40175">
        <ele>210.80000305176</ele>
        <time>2020-10-18T14:09:04.000Z</time>
      </trkpt>
      <trkpt lat="48.23377" lon="-3.4018">
        <ele>210.80000305176</ele>
        <time>2020-10-18T14:09:05.000Z</time>
      </trkpt>
      <trkpt lat="48.23374" lon="-3.40185">
        <ele>210.80000305176</ele>
        <time>2020-10-18T14:09:06.000Z</time>
      </trkpt>
      <trkpt lat="48.23371" lon="-3.4019">
        <ele>210.60000610352</ele>
        <time>2020-10-18T14:09:07.000Z</time>
      </trkpt>
      <trkpt lat="48.23368" lon="-3.40194">
        <ele>210.60000610352</ele>
        <time>2020-10-18T14:09:08.000Z</time>
      </trkpt>
      <trkpt lat="48.23365" lon="-3.40198">
        <ele>210.39999389648</ele>
        <time>2020-10-18T14:09:09.000Z</time>
      </trkpt>
      <trkpt lat="48.23362" lon="-3.40203">
        <ele>210.39999389648</ele>
        <time>2020-10-18T14:09:10.000Z</time>
      </trkpt>
      <trkpt lat="48.2336" lon="-3.40208">
        <ele>210</ele>
        <time>2020-10-18T14:09:11.000Z</time>
      </trkpt>
      <trkpt lat="48.23357" lon="-3.40214">
        <ele>209.80000305176</ele>
        <time>2020-10-18T14:09:12.000Z</time>
      </trkpt>
      <trkpt lat="48.23354" lon="-3.40218">
        <ele>209.80000305176</ele>
        <time>2020-10-18T14:09:13.000Z</time>
      </trkpt>
      <trkpt lat="48.2335" lon="-3.40223">
        <ele>209.60000610352</ele>
        <time>2020-10-18T14:09:14.000Z</time>
      </trkpt>
      <trkpt lat="48.23347" lon="-3.40227">
        <ele>209.60000610352</ele>
        <time>2020-10-18T14:09:15.000Z</time>
      </trkpt>
      <trkpt lat="48.23344" lon="-3.40232">
        <ele>209.60000610352</ele>
        <time>2020-10-18T14:09:16.000Z</time>
      </trkpt>
      <trkpt lat="48.23341" lon="-3.40236">
        <ele>209.39999389648</ele>
        <time>2020-10-18T14:09:17.000Z</time>
      </trkpt>
      <trkpt lat="48.23338" lon="-3.40241">
        <ele>209.39999389648</ele>
        <time>2020-10-18T14:09:18.000Z</time>
      </trkpt>
      <trkpt lat="48.23335" lon="-3.40245">
        <ele>209.39999389648</ele>
        <time>2020-10-18T14:09:19.000Z</time>
      </trkpt>
      <trkpt lat="48.23332" lon="-3.40249">
        <ele>209.39999389648</ele>
        <time>2020-10-18T14:09:20.000Z</time>
      </trkpt>
      <trkpt lat="48.23328" lon="-3.40252">
        <ele>209.39999389648</ele>
        <time>2020-10-18T14:09:21.000Z</time>
      </trkpt>
      <trkpt lat="48.23325" lon="-3.40254">
        <ele>209.60000610352</ele>
        <time>2020-10-18T14:09:22.000Z</time>
      </trkpt>
      <trkpt lat="48.23322" lon="-3.40257">
        <ele>209.60000610352</ele>
        <time>2020-10-18T14:09:23.000Z</time>
      </trkpt>
      <trkpt lat="48.23319" lon="-3.40262">
        <ele>209.39999389648</ele>
        <time>2020-10-18T14:09:24.000Z</time>
      </trkpt>
      <trkpt lat="48.23316" lon="-3.40265">
        <ele>209.39999389648</ele>
        <time>2020-10-18T14:09:25.000Z</time>
      </trkpt>
      <trkpt lat="48.23312" lon="-3.40268">
        <ele>209.60000610352</ele>
        <time>2020-10-18T14:09:26.000Z</time>
      </trkpt>
      <trkpt lat="48.23312" lon="-3.40278">
        <ele>208.80000305176</ele>
        <time>2020-10-18T14:09:27.000Z</time>
      </trkpt>
      <trkpt lat="48.23309" lon="-3.40282">
        <ele>208.80000305176</ele>
        <time>2020-10-18T14:09:28.000Z</time>
      </trkpt>
      <trkpt lat="48.23306" lon="-3.40286">
        <ele>208.80000305176</ele>
        <time>2020-10-18T14:09:29.000Z</time>
      </trkpt>
      <trkpt lat="48.23303" lon="-3.40289">
        <ele>208.80000305176</ele>
        <time>2020-10-18T14:09:30.000Z</time>
      </trkpt>
      <trkpt lat="48.23301" lon="-3.40295">
        <ele>208.60000610352</ele>
        <time>2020-10-18T14:09:31.000Z</time>
      </trkpt>
      <trkpt lat="48.23299" lon="-3.40298">
        <ele>208.60000610352</ele>
        <time>2020-10-18T14:09:32.000Z</time>
      </trkpt>
      <trkpt lat="48.23295" lon="-3.40302">
        <ele>208.60000610352</ele>
        <time>2020-10-18T14:09:33.000Z</time>
      </trkpt>
      <trkpt lat="48.23292" lon="-3.40306">
        <ele>208.60000610352</ele>
        <time>2020-10-18T14:09:34.000Z</time>
      </trkpt>
      <trkpt lat="48.23289" lon="-3.4031">
        <ele>208.60000610352</ele>
        <time>2020-10-18T14:09:35.000Z</time>
      </trkpt>
      <trkpt lat="48.23287" lon="-3.40314">
        <ele>208.39999389648</ele>
        <time>2020-10-18T14:09:36.000Z</time>
      </trkpt>
      <trkpt lat="48.23286" lon="-3.40322">
        <ele>207.80000305176</ele>
        <time>2020-10-18T14:09:37.000Z</time>
      </trkpt>
      <trkpt lat="48.23284" lon="-3.40327">
        <ele>207.80000305176</ele>
        <time>2020-10-18T14:09:38.000Z</time>
      </trkpt>
      <trkpt lat="48.23283" lon="-3.40333">
        <ele>207.60000610352</ele>
        <time>2020-10-18T14:09:39.000Z</time>
      </trkpt>
      <trkpt lat="48.2328" lon="-3.40337">
        <ele>207.60000610352</ele>
        <time>2020-10-18T14:09:40.000Z</time>
      </trkpt>
      <trkpt lat="48.23277" lon="-3.40342">
        <ele>207.60000610352</ele>
        <time>2020-10-18T14:09:41.000Z</time>
      </trkpt>
      <trkpt lat="48.23275" lon="-3.40348">
        <ele>207.60000610352</ele>
        <time>2020-10-18T14:09:42.000Z</time>
      </trkpt>
      <trkpt lat="48.23272" lon="-3.40352">
        <ele>207.39999389648</ele>
        <time>2020-10-18T14:09:43.000Z</time>
      </trkpt>
      <trkpt lat="48.23269" lon="-3.40356">
        <ele>207.39999389648</ele>
        <time>2020-10-18T14:09:44.000Z</time>
      </trkpt>
      <trkpt lat="48.23266" lon="-3.40359">
        <ele>207.39999389648</ele>
        <time>2020-10-18T14:09:45.000Z</time>
      </trkpt>
      <trkpt lat="48.23262" lon="-3.40363">
        <ele>207.39999389648</ele>
        <time>2020-10-18T14:09:46.000Z</time>
      </trkpt>
      <trkpt lat="48.23256" lon="-3.4037">
        <ele>207.39999389648</ele>
        <time>2020-10-18T14:09:47.000Z</time>
      </trkpt>
      <trkpt lat="48.23256" lon="-3.4037">
        <ele>207.39999389648</ele>
        <time>2020-10-18T14:09:48.000Z</time>
      </trkpt>
      <trkpt lat="48.23254" lon="-3.40374">
        <ele>207.39999389648</ele>
        <time>2020-10-18T14:09:49.000Z</time>
      </trkpt>
      <trkpt lat="48.23252" lon="-3.4038">
        <ele>207.39999389648</ele>
        <time>2020-10-18T14:09:50.000Z</time>
      </trkpt>
      <trkpt lat="48.23249" lon="-3.40384">
        <ele>207.39999389648</ele>
        <time>2020-10-18T14:09:51.000Z</time>
      </trkpt>
      <trkpt lat="48.23246" lon="-3.40389">
        <ele>207.39999389648</ele>
        <time>2020-10-18T14:09:52.000Z</time>
      </trkpt>
      <trkpt lat="48.23243" lon="-3.40393">
        <ele>207.39999389648</ele>
        <time>2020-10-18T14:09:53.000Z</time>
      </trkpt>
      <trkpt lat="48.2324" lon="-3.40397">
        <ele>207.60000610352</ele>
        <time>2020-10-18T14:09:54.000Z</time>
      </trkpt>
      <trkpt lat="48.23236" lon="-3.40401">
        <ele>207.60000610352</ele>
        <time>2020-10-18T14:09:55.000Z</time>
      </trkpt>
      <trkpt lat="48.23233" lon="-3.40404">
        <ele>207.80000305176</ele>
        <time>2020-10-18T14:09:56.000Z</time>
      </trkpt>
      <trkpt lat="48.23231" lon="-3.40409">
        <ele>207.80000305176</ele>
        <time>2020-10-18T14:09:57.000Z</time>
      </trkpt>
      <trkpt lat="48.23228" lon="-3.40413">
        <ele>207.80000305176</ele>
        <time>2020-10-18T14:09:58.000Z</time>
      </trkpt>
      <trkpt lat="48.23225" lon="-3.40417">
        <ele>207.80000305176</ele>
        <time>2020-10-18T14:09:59.000Z</time>
      </trkpt>
      <trkpt lat="48.23221" lon="-3.40419">
        <ele>208</ele>
        <time>2020-10-18T14:10:00.000Z</time>
      </trkpt>
      <trkpt lat="48.23218" lon="-3.40422">
        <ele>208.19999694824</ele>
        <time>2020-10-18T14:10:01.000Z</time>
      </trkpt>
      <trkpt lat="48.23213" lon="-3.40424">
        <ele>208.39999389648</ele>
        <time>2020-10-18T14:10:02.000Z</time>
      </trkpt>
      <trkpt lat="48.2321" lon="-3.40427">
        <ele>208.60000610352</ele>
        <time>2020-10-18T14:10:03.000Z</time>
      </trkpt>
      <trkpt lat="48.23206" lon="-3.4043">
        <ele>208.80000305176</ele>
        <time>2020-10-18T14:10:04.000Z</time>
      </trkpt>
      <trkpt lat="48.23203" lon="-3.40433">
        <ele>208.80000305176</ele>
        <time>2020-10-18T14:10:05.000Z</time>
      </trkpt>
      <trkpt lat="48.23201" lon="-3.40438">
        <ele>208.80000305176</ele>
        <time>2020-10-18T14:10:06.000Z</time>
      </trkpt>
      <trkpt lat="48.23198" lon="-3.40443">
        <ele>208.80000305176</ele>
        <time>2020-10-18T14:10:07.000Z</time>
      </trkpt>
      <trkpt lat="48.23195" lon="-3.40447">
        <ele>208.80000305176</ele>
        <time>2020-10-18T14:10:08.000Z</time>
      </trkpt>
      <trkpt lat="48.23192" lon="-3.40452">
        <ele>208.60000610352</ele>
        <time>2020-10-18T14:10:09.000Z</time>
      </trkpt>
      <trkpt lat="48.23189" lon="-3.40458">
        <ele>208.60000610352</ele>
        <time>2020-10-18T14:10:10.000Z</time>
      </trkpt>
      <trkpt lat="48.23186" lon="-3.40462">
        <ele>208.60000610352</ele>
        <time>2020-10-18T14:10:11.000Z</time>
      </trkpt>
      <trkpt lat="48.23183" lon="-3.40467">
        <ele>208.60000610352</ele>
        <time>2020-10-18T14:10:12.000Z</time>
      </trkpt>
      <trkpt lat="48.2318" lon="-3.40471">
        <ele>208.39999389648</ele>
        <time>2020-10-18T14:10:13.000Z</time>
      </trkpt>
      <trkpt lat="48.23177" lon="-3.40475">
        <ele>208.39999389648</ele>
        <time>2020-10-18T14:10:14.000Z</time>
      </trkpt>
      <trkpt lat="48.23174" lon="-3.40478">
        <ele>208</ele>
        <time>2020-10-18T14:10:15.000Z</time>
      </trkpt>
      <trkpt lat="48.23171" lon="-3.40482">
        <ele>207.80000305176</ele>
        <time>2020-10-18T14:10:16.000Z</time>
      </trkpt>
      <trkpt lat="48.23167" lon="-3.40484">
        <ele>207.60000610352</ele>
        <time>2020-10-18T14:10:17.000Z</time>
      </trkpt>
      <trkpt lat="48.23164" lon="-3.40487">
        <ele>207.39999389648</ele>
        <time>2020-10-18T14:10:18.000Z</time>
      </trkpt>
      <trkpt lat="48.23161" lon="-3.40491">
        <ele>207</ele>
        <time>2020-10-18T14:10:19.000Z</time>
      </trkpt>
      <trkpt lat="48.23159" lon="-3.40496">
        <ele>206.60000610352</ele>
        <time>2020-10-18T14:10:20.000Z</time>
      </trkpt>
      <trkpt lat="48.23156" lon="-3.405">
        <ele>206.39999389648</ele>
        <time>2020-10-18T14:10:21.000Z</time>
      </trkpt>
      <trkpt lat="48.23153" lon="-3.40504">
        <ele>206</ele>
        <time>2020-10-18T14:10:22.000Z</time>
      </trkpt>
      <trkpt lat="48.23151" lon="-3.40508">
        <ele>205.80000305176</ele>
        <time>2020-10-18T14:10:23.000Z</time>
      </trkpt>
      <trkpt lat="48.23147" lon="-3.4051">
        <ele>205.60000610352</ele>
        <time>2020-10-18T14:10:24.000Z</time>
      </trkpt>
      <trkpt lat="48.23144" lon="-3.40514">
        <ele>205.19999694824</ele>
        <time>2020-10-18T14:10:25.000Z</time>
      </trkpt>
      <trkpt lat="48.23142" lon="-3.40518">
        <ele>205</ele>
        <time>2020-10-18T14:10:26.000Z</time>
      </trkpt>
      <trkpt lat="48.23139" lon="-3.40522">
        <ele>204.80000305176</ele>
        <time>2020-10-18T14:10:27.000Z</time>
      </trkpt>
      <trkpt lat="48.23137" lon="-3.40526">
        <ele>204.60000610352</ele>
        <time>2020-10-18T14:10:28.000Z</time>
      </trkpt>
      <trkpt lat="48.23134" lon="-3.40529">
        <ele>204.39999389648</ele>
        <time>2020-10-18T14:10:29.000Z</time>
      </trkpt>
      <trkpt lat="48.23131" lon="-3.40533">
        <ele>204.19999694824</ele>
        <time>2020-10-18T14:10:30.000Z</time>
      </trkpt>
      <trkpt lat="48.23128" lon="-3.40536">
        <ele>204</ele>
        <time>2020-10-18T14:10:31.000Z</time>
      </trkpt>
      <trkpt lat="48.23126" lon="-3.4054">
        <ele>203.80000305176</ele>
        <time>2020-10-18T14:10:32.000Z</time>
      </trkpt>
      <trkpt lat="48.23123" lon="-3.40544">
        <ele>203.60000610352</ele>
        <time>2020-10-18T14:10:33.000Z</time>
      </trkpt>
      <trkpt lat="48.2312" lon="-3.40548">
        <ele>203.39999389648</ele>
        <time>2020-10-18T14:10:34.000Z</time>
      </trkpt>
      <trkpt lat="48.23118" lon="-3.40553">
        <ele>203.19999694824</ele>
        <time>2020-10-18T14:10:35.000Z</time>
      </trkpt>
      <trkpt lat="48.23115" lon="-3.40557">
        <ele>203</ele>
        <time>2020-10-18T14:10:36.000Z</time>
      </trkpt>
      <trkpt lat="48.23113" lon="-3.40562">
        <ele>202.80000305176</ele>
        <time>2020-10-18T14:10:37.000Z</time>
      </trkpt>
      <trkpt lat="48.23111" lon="-3.40566">
        <ele>202.60000610352</ele>
        <time>2020-10-18T14:10:38.000Z</time>
      </trkpt>
      <trkpt lat="48.23108" lon="-3.4057">
        <ele>202.39999389648</ele>
        <time>2020-10-18T14:10:39.000Z</time>
      </trkpt>
      <trkpt lat="48.23106" lon="-3.40575">
        <ele>202</ele>
        <time>2020-10-18T14:10:40.000Z</time>
      </trkpt>
      <trkpt lat="48.23103" lon="-3.40579">
        <ele>201.80000305176</ele>
        <time>2020-10-18T14:10:41.000Z</time>
      </trkpt>
      <trkpt lat="48.23102" lon="-3.40583">
        <ele>201.60000610352</ele>
        <time>2020-10-18T14:10:42.000Z</time>
      </trkpt>
      <trkpt lat="48.231" lon="-3.40587">
        <ele>201.60000610352</ele>
        <time>2020-10-18T14:10:43.000Z</time>
      </trkpt>
      <trkpt lat="48.23098" lon="-3.40591">
        <ele>201.39999389648</ele>
        <time>2020-10-18T14:10:44.000Z</time>
      </trkpt>
      <trkpt lat="48.23096" lon="-3.40593">
        <ele>201.19999694824</ele>
        <time>2020-10-18T14:10:45.000Z</time>
      </trkpt>
      <trkpt lat="48.23095" lon="-3.40597">
        <ele>201</ele>
        <time>2020-10-18T14:10:46.000Z</time>
      </trkpt>
      <trkpt lat="48.23093" lon="-3.406">
        <ele>200.80000305176</ele>
        <time>2020-10-18T14:10:47.000Z</time>
      </trkpt>
      <trkpt lat="48.23092" lon="-3.40604">
        <ele>200.60000610352</ele>
        <time>2020-10-18T14:10:48.000Z</time>
      </trkpt>
      <trkpt lat="48.2309" lon="-3.40609">
        <ele>200.39999389648</ele>
        <time>2020-10-18T14:10:49.000Z</time>
      </trkpt>
      <trkpt lat="48.23088" lon="-3.40613">
        <ele>200.19999694824</ele>
        <time>2020-10-18T14:10:50.000Z</time>
      </trkpt>
      <trkpt lat="48.23086" lon="-3.40618">
        <ele>200</ele>
        <time>2020-10-18T14:10:51.000Z</time>
      </trkpt>
      <trkpt lat="48.23084" lon="-3.40623">
        <ele>199.80000305176</ele>
        <time>2020-10-18T14:10:52.000Z</time>
      </trkpt>
      <trkpt lat="48.23081" lon="-3.40627">
        <ele>199.60000610352</ele>
        <time>2020-10-18T14:10:53.000Z</time>
      </trkpt>
      <trkpt lat="48.23079" lon="-3.40631">
        <ele>199.39999389648</ele>
        <time>2020-10-18T14:10:54.000Z</time>
      </trkpt>
      <trkpt lat="48.23076" lon="-3.40635">
        <ele>199.19999694824</ele>
        <time>2020-10-18T14:10:55.000Z</time>
      </trkpt>
      <trkpt lat="48.23074" lon="-3.40639">
        <ele>199</ele>
        <time>2020-10-18T14:10:56.000Z</time>
      </trkpt>
      <trkpt lat="48.23071" lon="-3.40643">
        <ele>198.80000305176</ele>
        <time>2020-10-18T14:10:57.000Z</time>
      </trkpt>
      <trkpt lat="48.23069" lon="-3.40647">
        <ele>198.60000610352</ele>
        <time>2020-10-18T14:10:58.000Z</time>
      </trkpt>
      <trkpt lat="48.23066" lon="-3.40652">
        <ele>198.39999389648</ele>
        <time>2020-10-18T14:10:59.000Z</time>
      </trkpt>
      <trkpt lat="48.23064" lon="-3.40657">
        <ele>198.19999694824</ele>
        <time>2020-10-18T14:11:00.000Z</time>
      </trkpt>
      <trkpt lat="48.23061" lon="-3.40661">
        <ele>198</ele>
        <time>2020-10-18T14:11:01.000Z</time>
      </trkpt>
      <trkpt lat="48.23058" lon="-3.40666">
        <ele>197.60000610352</ele>
        <time>2020-10-18T14:11:02.000Z</time>
      </trkpt>
      <trkpt lat="48.23055" lon="-3.4067">
        <ele>197.39999389648</ele>
        <time>2020-10-18T14:11:03.000Z</time>
      </trkpt>
      <trkpt lat="48.23052" lon="-3.40676">
        <ele>197.19999694824</ele>
        <time>2020-10-18T14:11:04.000Z</time>
      </trkpt>
      <trkpt lat="48.23049" lon="-3.40681">
        <ele>197</ele>
        <time>2020-10-18T14:11:05.000Z</time>
      </trkpt>
      <trkpt lat="48.23047" lon="-3.40686">
        <ele>196.80000305176</ele>
        <time>2020-10-18T14:11:06.000Z</time>
      </trkpt>
      <trkpt lat="48.23045" lon="-3.40691">
        <ele>196.60000610352</ele>
        <time>2020-10-18T14:11:07.000Z</time>
      </trkpt>
      <trkpt lat="48.23042" lon="-3.40696">
        <ele>196.39999389648</ele>
        <time>2020-10-18T14:11:08.000Z</time>
      </trkpt>
      <trkpt lat="48.23042" lon="-3.40704">
        <ele>196.19999694824</ele>
        <time>2020-10-18T14:11:09.000Z</time>
      </trkpt>
      <trkpt lat="48.2304" lon="-3.40709">
        <ele>196</ele>
        <time>2020-10-18T14:11:10.000Z</time>
      </trkpt>
      <trkpt lat="48.23039" lon="-3.40715">
        <ele>195.80000305176</ele>
        <time>2020-10-18T14:11:11.000Z</time>
      </trkpt>
      <trkpt lat="48.23039" lon="-3.40721">
        <ele>195.60000610352</ele>
        <time>2020-10-18T14:11:12.000Z</time>
      </trkpt>
      <trkpt lat="48.23039" lon="-3.40728">
        <ele>195.60000610352</ele>
        <time>2020-10-18T14:11:13.000Z</time>
      </trkpt>
      <trkpt lat="48.23039" lon="-3.40733">
        <ele>195.39999389648</ele>
        <time>2020-10-18T14:11:14.000Z</time>
      </trkpt>
      <trkpt lat="48.23039" lon="-3.40739">
        <ele>195.19999694824</ele>
        <time>2020-10-18T14:11:15.000Z</time>
      </trkpt>
      <trkpt lat="48.23039" lon="-3.40744">
        <ele>195.19999694824</ele>
        <time>2020-10-18T14:11:16.000Z</time>
      </trkpt>
      <trkpt lat="48.23038" lon="-3.4075">
        <ele>195.19999694824</ele>
        <time>2020-10-18T14:11:17.000Z</time>
      </trkpt>
      <trkpt lat="48.23039" lon="-3.40755">
        <ele>195</ele>
        <time>2020-10-18T14:11:18.000Z</time>
      </trkpt>
      <trkpt lat="48.2304" lon="-3.40763">
        <ele>195</ele>
        <time>2020-10-18T14:11:19.000Z</time>
      </trkpt>
      <trkpt lat="48.23041" lon="-3.40768">
        <ele>194.80000305176</ele>
        <time>2020-10-18T14:11:20.000Z</time>
      </trkpt>
      <trkpt lat="48.23043" lon="-3.40775">
        <ele>194.39999389648</ele>
        <time>2020-10-18T14:11:21.000Z</time>
      </trkpt>
      <trkpt lat="48.23047" lon="-3.40786">
        <ele>193.80000305176</ele>
        <time>2020-10-18T14:11:22.000Z</time>
      </trkpt>
      <trkpt lat="48.2305" lon="-3.40794">
        <ele>193.19999694824</ele>
        <time>2020-10-18T14:11:23.000Z</time>
      </trkpt>
      <trkpt lat="48.23053" lon="-3.40802">
        <ele>192.80000305176</ele>
        <time>2020-10-18T14:11:24.000Z</time>
      </trkpt>
      <trkpt lat="48.23056" lon="-3.4081">
        <ele>192.39999389648</ele>
        <time>2020-10-18T14:11:25.000Z</time>
      </trkpt>
      <trkpt lat="48.23059" lon="-3.40818">
        <ele>191.80000305176</ele>
        <time>2020-10-18T14:11:26.000Z</time>
      </trkpt>
      <trkpt lat="48.23062" lon="-3.40824">
        <ele>191.60000610352</ele>
        <time>2020-10-18T14:11:27.000Z</time>
      </trkpt>
      <trkpt lat="48.23064" lon="-3.40833">
        <ele>191</ele>
        <time>2020-10-18T14:11:28.000Z</time>
      </trkpt>
      <trkpt lat="48.23067" lon="-3.40838">
        <ele>190.60000610352</ele>
        <time>2020-10-18T14:11:29.000Z</time>
      </trkpt>
      <trkpt lat="48.23069" lon="-3.40843">
        <ele>190.39999389648</ele>
        <time>2020-10-18T14:11:30.000Z</time>
      </trkpt>
      <trkpt lat="48.23072" lon="-3.40848">
        <ele>190.19999694824</ele>
        <time>2020-10-18T14:11:31.000Z</time>
      </trkpt>
      <trkpt lat="48.23075" lon="-3.40853">
        <ele>190.19999694824</ele>
        <time>2020-10-18T14:11:32.000Z</time>
      </trkpt>
      <trkpt lat="48.23078" lon="-3.40859">
        <ele>190.19999694824</ele>
        <time>2020-10-18T14:11:33.000Z</time>
      </trkpt>
      <trkpt lat="48.23081" lon="-3.40864">
        <ele>190.19999694824</ele>
        <time>2020-10-18T14:11:34.000Z</time>
      </trkpt>
      <trkpt lat="48.23084" lon="-3.4087">
        <ele>190</ele>
        <time>2020-10-18T14:11:35.000Z</time>
      </trkpt>
      <trkpt lat="48.23086" lon="-3.40877">
        <ele>189.60000610352</ele>
        <time>2020-10-18T14:11:36.000Z</time>
      </trkpt>
      <trkpt lat="48.23089" lon="-3.40883">
        <ele>189.39999389648</ele>
        <time>2020-10-18T14:11:37.000Z</time>
      </trkpt>
      <trkpt lat="48.23092" lon="-3.40888">
        <ele>189</ele>
        <time>2020-10-18T14:11:38.000Z</time>
      </trkpt>
      <trkpt lat="48.23094" lon="-3.40895">
        <ele>188.80000305176</ele>
        <time>2020-10-18T14:11:39.000Z</time>
      </trkpt>
      <trkpt lat="48.23096" lon="-3.40901">
        <ele>188.60000610352</ele>
        <time>2020-10-18T14:11:40.000Z</time>
      </trkpt>
      <trkpt lat="48.23098" lon="-3.40907">
        <ele>188.19999694824</ele>
        <time>2020-10-18T14:11:41.000Z</time>
      </trkpt>
      <trkpt lat="48.231" lon="-3.40913">
        <ele>188</ele>
        <time>2020-10-18T14:11:42.000Z</time>
      </trkpt>
      <trkpt lat="48.23103" lon="-3.40919">
        <ele>187.80000305176</ele>
        <time>2020-10-18T14:11:43.000Z</time>
      </trkpt>
      <trkpt lat="48.23105" lon="-3.40924">
        <ele>187.60000610352</ele>
        <time>2020-10-18T14:11:44.000Z</time>
      </trkpt>
      <trkpt lat="48.23108" lon="-3.4093">
        <ele>187.19999694824</ele>
        <time>2020-10-18T14:11:45.000Z</time>
      </trkpt>
      <trkpt lat="48.2311" lon="-3.40935">
        <ele>187</ele>
        <time>2020-10-18T14:11:46.000Z</time>
      </trkpt>
      <trkpt lat="48.23114" lon="-3.40946">
        <ele>187</ele>
        <time>2020-10-18T14:11:47.000Z</time>
      </trkpt>
      <trkpt lat="48.23114" lon="-3.40946">
        <ele>187</ele>
        <time>2020-10-18T14:11:48.000Z</time>
      </trkpt>
      <trkpt lat="48.23116" lon="-3.4095">
        <ele>187</ele>
        <time>2020-10-18T14:11:49.000Z</time>
      </trkpt>
      <trkpt lat="48.23118" lon="-3.40956">
        <ele>187</ele>
        <time>2020-10-18T14:11:50.000Z</time>
      </trkpt>
      <trkpt lat="48.2312" lon="-3.4096">
        <ele>187</ele>
        <time>2020-10-18T14:11:51.000Z</time>
      </trkpt>
      <trkpt lat="48.23122" lon="-3.40965">
        <ele>187</ele>
        <time>2020-10-18T14:11:52.000Z</time>
      </trkpt>
      <trkpt lat="48.23124" lon="-3.40969">
        <ele>187</ele>
        <time>2020-10-18T14:11:53.000Z</time>
      </trkpt>
      <trkpt lat="48.23126" lon="-3.40973">
        <ele>187</ele>
        <time>2020-10-18T14:11:54.000Z</time>
      </trkpt>
      <trkpt lat="48.23129" lon="-3.40977">
        <ele>187</ele>
        <time>2020-10-18T14:11:55.000Z</time>
      </trkpt>
      <trkpt lat="48.23131" lon="-3.40981">
        <ele>187</ele>
        <time>2020-10-18T14:11:56.000Z</time>
      </trkpt>
      <trkpt lat="48.23133" lon="-3.40987">
        <ele>186.60000610352</ele>
        <time>2020-10-18T14:11:57.000Z</time>
      </trkpt>
      <trkpt lat="48.23135" lon="-3.40992">
        <ele>186.39999389648</ele>
        <time>2020-10-18T14:11:58.000Z</time>
      </trkpt>
      <trkpt lat="48.23138" lon="-3.40997">
        <ele>186.19999694824</ele>
        <time>2020-10-18T14:11:59.000Z</time>
      </trkpt>
      <trkpt lat="48.23139" lon="-3.41003">
        <ele>185.80000305176</ele>
        <time>2020-10-18T14:12:00.000Z</time>
      </trkpt>
      <trkpt lat="48.23141" lon="-3.41009">
        <ele>185.60000610352</ele>
        <time>2020-10-18T14:12:01.000Z</time>
      </trkpt>
      <trkpt lat="48.23144" lon="-3.41015">
        <ele>185.19999694824</ele>
        <time>2020-10-18T14:12:02.000Z</time>
      </trkpt>
      <trkpt lat="48.2315" lon="-3.41026">
        <ele>184.80000305176</ele>
        <time>2020-10-18T14:12:03.000Z</time>
      </trkpt>
      <trkpt lat="48.2315" lon="-3.41026">
        <ele>184.80000305176</ele>
        <time>2020-10-18T14:12:04.000Z</time>
      </trkpt>
      <trkpt lat="48.23153" lon="-3.41032">
        <ele>184.60000610352</ele>
        <time>2020-10-18T14:12:05.000Z</time>
      </trkpt>
      <trkpt lat="48.23156" lon="-3.41039">
        <ele>184.19999694824</ele>
        <time>2020-10-18T14:12:06.000Z</time>
      </trkpt>
      <trkpt lat="48.2316" lon="-3.41046">
        <ele>184</ele>
        <time>2020-10-18T14:12:07.000Z</time>
      </trkpt>
      <trkpt lat="48.23162" lon="-3.41052">
        <ele>183.60000610352</ele>
        <time>2020-10-18T14:12:08.000Z</time>
      </trkpt>
      <trkpt lat="48.23165" lon="-3.41059">
        <ele>183.39999389648</ele>
        <time>2020-10-18T14:12:09.000Z</time>
      </trkpt>
      <trkpt lat="48.23168" lon="-3.41065">
        <ele>183.19999694824</ele>
        <time>2020-10-18T14:12:10.000Z</time>
      </trkpt>
      <trkpt lat="48.2317" lon="-3.41071">
        <ele>183</ele>
        <time>2020-10-18T14:12:11.000Z</time>
      </trkpt>
      <trkpt lat="48.23173" lon="-3.41076">
        <ele>182.80000305176</ele>
        <time>2020-10-18T14:12:12.000Z</time>
      </trkpt>
      <trkpt lat="48.23175" lon="-3.41081">
        <ele>182.60000610352</ele>
        <time>2020-10-18T14:12:13.000Z</time>
      </trkpt>
      <trkpt lat="48.23177" lon="-3.41086">
        <ele>182.39999389648</ele>
        <time>2020-10-18T14:12:14.000Z</time>
      </trkpt>
      <trkpt lat="48.23179" lon="-3.41091">
        <ele>182.19999694824</ele>
        <time>2020-10-18T14:12:15.000Z</time>
      </trkpt>
      <trkpt lat="48.23181" lon="-3.41096">
        <ele>182.19999694824</ele>
        <time>2020-10-18T14:12:16.000Z</time>
      </trkpt>
      <trkpt lat="48.23183" lon="-3.411">
        <ele>182.19999694824</ele>
        <time>2020-10-18T14:12:17.000Z</time>
      </trkpt>
      <trkpt lat="48.23185" lon="-3.41103">
        <ele>182.19999694824</ele>
        <time>2020-10-18T14:12:18.000Z</time>
      </trkpt>
      <trkpt lat="48.23187" lon="-3.41108">
        <ele>182.39999389648</ele>
        <time>2020-10-18T14:12:19.000Z</time>
      </trkpt>
      <trkpt lat="48.2319" lon="-3.41114">
        <ele>182.60000610352</ele>
        <time>2020-10-18T14:12:20.000Z</time>
      </trkpt>
      <trkpt lat="48.23192" lon="-3.41119">
        <ele>182.80000305176</ele>
        <time>2020-10-18T14:12:21.000Z</time>
      </trkpt>
      <trkpt lat="48.23194" lon="-3.41125">
        <ele>182.80000305176</ele>
        <time>2020-10-18T14:12:22.000Z</time>
      </trkpt>
      <trkpt lat="48.23197" lon="-3.41133">
        <ele>183</ele>
        <time>2020-10-18T14:12:23.000Z</time>
      </trkpt>
      <trkpt lat="48.232" lon="-3.41139">
        <ele>183.19999694824</ele>
        <time>2020-10-18T14:12:24.000Z</time>
      </trkpt>
      <trkpt lat="48.23203" lon="-3.41146">
        <ele>183.39999389648</ele>
        <time>2020-10-18T14:12:25.000Z</time>
      </trkpt>
      <trkpt lat="48.23205" lon="-3.41153">
        <ele>183.60000610352</ele>
        <time>2020-10-18T14:12:26.000Z</time>
      </trkpt>
      <trkpt lat="48.23207" lon="-3.41159">
        <ele>183.60000610352</ele>
        <time>2020-10-18T14:12:27.000Z</time>
      </trkpt>
      <trkpt lat="48.23209" lon="-3.41164">
        <ele>183.60000610352</ele>
        <time>2020-10-18T14:12:28.000Z</time>
      </trkpt>
      <trkpt lat="48.23211" lon="-3.4117">
        <ele>183.60000610352</ele>
        <time>2020-10-18T14:12:29.000Z</time>
      </trkpt>
      <trkpt lat="48.23213" lon="-3.41176">
        <ele>183.39999389648</ele>
        <time>2020-10-18T14:12:30.000Z</time>
      </trkpt>
      <trkpt lat="48.23215" lon="-3.4118">
        <ele>183.39999389648</ele>
        <time>2020-10-18T14:12:31.000Z</time>
      </trkpt>
      <trkpt lat="48.23217" lon="-3.41185">
        <ele>183.39999389648</ele>
        <time>2020-10-18T14:12:32.000Z</time>
      </trkpt>
      <trkpt lat="48.23219" lon="-3.4119">
        <ele>183.39999389648</ele>
        <time>2020-10-18T14:12:33.000Z</time>
      </trkpt>
      <trkpt lat="48.23222" lon="-3.41194">
        <ele>183.39999389648</ele>
        <time>2020-10-18T14:12:34.000Z</time>
      </trkpt>
      <trkpt lat="48.23224" lon="-3.41199">
        <ele>183.39999389648</ele>
        <time>2020-10-18T14:12:35.000Z</time>
      </trkpt>
      <trkpt lat="48.23226" lon="-3.41204">
        <ele>183.39999389648</ele>
        <time>2020-10-18T14:12:36.000Z</time>
      </trkpt>
      <trkpt lat="48.23229" lon="-3.41208">
        <ele>183.19999694824</ele>
        <time>2020-10-18T14:12:37.000Z</time>
      </trkpt>
      <trkpt lat="48.23231" lon="-3.41213">
        <ele>183.19999694824</ele>
        <time>2020-10-18T14:12:38.000Z</time>
      </trkpt>
      <trkpt lat="48.23233" lon="-3.41218">
        <ele>183</ele>
        <time>2020-10-18T14:12:39.000Z</time>
      </trkpt>
      <trkpt lat="48.23236" lon="-3.41223">
        <ele>182.80000305176</ele>
        <time>2020-10-18T14:12:40.000Z</time>
      </trkpt>
      <trkpt lat="48.23239" lon="-3.41229">
        <ele>182.60000610352</ele>
        <time>2020-10-18T14:12:41.000Z</time>
      </trkpt>
      <trkpt lat="48.23241" lon="-3.41236">
        <ele>182.39999389648</ele>
        <time>2020-10-18T14:12:42.000Z</time>
      </trkpt>
      <trkpt lat="48.23244" lon="-3.41242">
        <ele>182</ele>
        <time>2020-10-18T14:12:43.000Z</time>
      </trkpt>
      <trkpt lat="48.23247" lon="-3.41249">
        <ele>181.80000305176</ele>
        <time>2020-10-18T14:12:44.000Z</time>
      </trkpt>
      <trkpt lat="48.2325" lon="-3.41257">
        <ele>181.39999389648</ele>
        <time>2020-10-18T14:12:45.000Z</time>
      </trkpt>
      <trkpt lat="48.23253" lon="-3.41265">
        <ele>181.19999694824</ele>
        <time>2020-10-18T14:12:46.000Z</time>
      </trkpt>
      <trkpt lat="48.23256" lon="-3.41272">
        <ele>181</ele>
        <time>2020-10-18T14:12:47.000Z</time>
      </trkpt>
      <trkpt lat="48.2326" lon="-3.41278">
        <ele>180.80000305176</ele>
        <time>2020-10-18T14:12:48.000Z</time>
      </trkpt>
      <trkpt lat="48.23264" lon="-3.41285">
        <ele>180.80000305176</ele>
        <time>2020-10-18T14:12:49.000Z</time>
      </trkpt>
      <trkpt lat="48.23267" lon="-3.4129">
        <ele>180.80000305176</ele>
        <time>2020-10-18T14:12:50.000Z</time>
      </trkpt>
      <trkpt lat="48.23271" lon="-3.41296">
        <ele>180.80000305176</ele>
        <time>2020-10-18T14:12:51.000Z</time>
      </trkpt>
      <trkpt lat="48.23275" lon="-3.413">
        <ele>180.80000305176</ele>
        <time>2020-10-18T14:12:52.000Z</time>
      </trkpt>
      <trkpt lat="48.23279" lon="-3.41305">
        <ele>181</ele>
        <time>2020-10-18T14:12:53.000Z</time>
      </trkpt>
      <trkpt lat="48.23283" lon="-3.41309">
        <ele>181</ele>
        <time>2020-10-18T14:12:54.000Z</time>
      </trkpt>
      <trkpt lat="48.23286" lon="-3.41314">
        <ele>181</ele>
        <time>2020-10-18T14:12:55.000Z</time>
      </trkpt>
      <trkpt lat="48.2329" lon="-3.41318">
        <ele>181</ele>
        <time>2020-10-18T14:12:56.000Z</time>
      </trkpt>
      <trkpt lat="48.23294" lon="-3.41321">
        <ele>181</ele>
        <time>2020-10-18T14:12:57.000Z</time>
      </trkpt>
      <trkpt lat="48.23298" lon="-3.41325">
        <ele>180.80000305176</ele>
        <time>2020-10-18T14:12:58.000Z</time>
      </trkpt>
      <trkpt lat="48.23302" lon="-3.41328">
        <ele>180.60000610352</ele>
        <time>2020-10-18T14:12:59.000Z</time>
      </trkpt>
      <trkpt lat="48.23305" lon="-3.41331">
        <ele>180.39999389648</ele>
        <time>2020-10-18T14:13:00.000Z</time>
      </trkpt>
      <trkpt lat="48.23309" lon="-3.41334">
        <ele>180.19999694824</ele>
        <time>2020-10-18T14:13:01.000Z</time>
      </trkpt>
      <trkpt lat="48.23316" lon="-3.41341">
        <ele>179.80000305176</ele>
        <time>2020-10-18T14:13:02.000Z</time>
      </trkpt>
      <trkpt lat="48.23316" lon="-3.41341">
        <ele>179.80000305176</ele>
        <time>2020-10-18T14:13:03.000Z</time>
      </trkpt>
      <trkpt lat="48.23319" lon="-3.41344">
        <ele>179.60000610352</ele>
        <time>2020-10-18T14:13:04.000Z</time>
      </trkpt>
      <trkpt lat="48.23322" lon="-3.41347">
        <ele>179.39999389648</ele>
        <time>2020-10-18T14:13:05.000Z</time>
      </trkpt>
      <trkpt lat="48.23325" lon="-3.41349">
        <ele>179.19999694824</ele>
        <time>2020-10-18T14:13:06.000Z</time>
      </trkpt>
      <trkpt lat="48.23328" lon="-3.41352">
        <ele>179.19999694824</ele>
        <time>2020-10-18T14:13:07.000Z</time>
      </trkpt>
      <trkpt lat="48.23331" lon="-3.41354">
        <ele>179.19999694824</ele>
        <time>2020-10-18T14:13:08.000Z</time>
      </trkpt>
      <trkpt lat="48.23333" lon="-3.41357">
        <ele>179.19999694824</ele>
        <time>2020-10-18T14:13:09.000Z</time>
      </trkpt>
      <trkpt lat="48.23336" lon="-3.4136">
        <ele>179.19999694824</ele>
        <time>2020-10-18T14:13:10.000Z</time>
      </trkpt>
      <trkpt lat="48.23337" lon="-3.41362">
        <ele>179</ele>
        <time>2020-10-18T14:13:11.000Z</time>
      </trkpt>
      <trkpt lat="48.23338" lon="-3.41365">
        <ele>179</ele>
        <time>2020-10-18T14:13:12.000Z</time>
      </trkpt>
      <trkpt lat="48.23337" lon="-3.41368">
        <ele>179</ele>
        <time>2020-10-18T14:13:13.000Z</time>
      </trkpt>
      <trkpt lat="48.23337" lon="-3.41372">
        <ele>179</ele>
        <time>2020-10-18T14:13:14.000Z</time>
      </trkpt>
      <trkpt lat="48.23336" lon="-3.41375">
        <ele>179</ele>
        <time>2020-10-18T14:13:15.000Z</time>
      </trkpt>
      <trkpt lat="48.23335" lon="-3.41378">
        <ele>179</ele>
        <time>2020-10-18T14:13:16.000Z</time>
      </trkpt>
      <trkpt lat="48.23334" lon="-3.41381">
        <ele>178.80000305176</ele>
        <time>2020-10-18T14:13:17.000Z</time>
      </trkpt>
      <trkpt lat="48.23332" lon="-3.41384">
        <ele>178.80000305176</ele>
        <time>2020-10-18T14:13:18.000Z</time>
      </trkpt>
      <trkpt lat="48.23331" lon="-3.41388">
        <ele>178.80000305176</ele>
        <time>2020-10-18T14:13:19.000Z</time>
      </trkpt>
      <trkpt lat="48.23329" lon="-3.41392">
        <ele>178.80000305176</ele>
        <time>2020-10-18T14:13:20.000Z</time>
      </trkpt>
      <trkpt lat="48.23327" lon="-3.41396">
        <ele>178.80000305176</ele>
        <time>2020-10-18T14:13:21.000Z</time>
      </trkpt>
      <trkpt lat="48.23326" lon="-3.414">
        <ele>178.80000305176</ele>
        <time>2020-10-18T14:13:22.000Z</time>
      </trkpt>
      <trkpt lat="48.23324" lon="-3.41405">
        <ele>178.80000305176</ele>
        <time>2020-10-18T14:13:23.000Z</time>
      </trkpt>
      <trkpt lat="48.23322" lon="-3.41409">
        <ele>178.80000305176</ele>
        <time>2020-10-18T14:13:24.000Z</time>
      </trkpt>
      <trkpt lat="48.23321" lon="-3.41413">
        <ele>178.80000305176</ele>
        <time>2020-10-18T14:13:25.000Z</time>
      </trkpt>
      <trkpt lat="48.23319" lon="-3.41418">
        <ele>178.80000305176</ele>
        <time>2020-10-18T14:13:26.000Z</time>
      </trkpt>
      <trkpt lat="48.23317" lon="-3.41422">
        <ele>178.80000305176</ele>
        <time>2020-10-18T14:13:27.000Z</time>
      </trkpt>
      <trkpt lat="48.23315" lon="-3.41425">
        <ele>178.80000305176</ele>
        <time>2020-10-18T14:13:28.000Z</time>
      </trkpt>
      <trkpt lat="48.23314" lon="-3.41428">
        <ele>178.80000305176</ele>
        <time>2020-10-18T14:13:29.000Z</time>
      </trkpt>
      <trkpt lat="48.23313" lon="-3.4143">
        <ele>178.80000305176</ele>
        <time>2020-10-18T14:13:30.000Z</time>
      </trkpt>
      <trkpt lat="48.23312" lon="-3.41433">
        <ele>178.80000305176</ele>
        <time>2020-10-18T14:13:31.000Z</time>
      </trkpt>
      <trkpt lat="48.23311" lon="-3.41436">
        <ele>178.80000305176</ele>
        <time>2020-10-18T14:13:32.000Z</time>
      </trkpt>
      <trkpt lat="48.23309" lon="-3.41439">
        <ele>178.80000305176</ele>
        <time>2020-10-18T14:13:33.000Z</time>
      </trkpt>
      <trkpt lat="48.23308" lon="-3.41442">
        <ele>179</ele>
        <time>2020-10-18T14:13:34.000Z</time>
      </trkpt>
      <trkpt lat="48.23306" lon="-3.41445">
        <ele>179</ele>
        <time>2020-10-18T14:13:35.000Z</time>
      </trkpt>
      <trkpt lat="48.23305" lon="-3.41447">
        <ele>179</ele>
        <time>2020-10-18T14:13:36.000Z</time>
      </trkpt>
      <trkpt lat="48.23303" lon="-3.4145">
        <ele>179</ele>
        <time>2020-10-18T14:13:37.000Z</time>
      </trkpt>
      <trkpt lat="48.23301" lon="-3.41452">
        <ele>179</ele>
        <time>2020-10-18T14:13:38.000Z</time>
      </trkpt>
      <trkpt lat="48.23299" lon="-3.41454">
        <ele>179.19999694824</ele>
        <time>2020-10-18T14:13:39.000Z</time>
      </trkpt>
      <trkpt lat="48.23298" lon="-3.41455">
        <ele>179.19999694824</ele>
        <time>2020-10-18T14:13:40.000Z</time>
      </trkpt>
      <trkpt lat="48.23297" lon="-3.41457">
        <ele>179.19999694824</ele>
        <time>2020-10-18T14:13:41.000Z</time>
      </trkpt>
      <trkpt lat="48.23296" lon="-3.41459">
        <ele>179.19999694824</ele>
        <time>2020-10-18T14:13:42.000Z</time>
      </trkpt>
      <trkpt lat="48.23295" lon="-3.4146">
        <ele>179.19999694824</ele>
        <time>2020-10-18T14:13:43.000Z</time>
      </trkpt>
      <trkpt lat="48.23294" lon="-3.41461">
        <ele>179.19999694824</ele>
        <time>2020-10-18T14:13:44.000Z</time>
      </trkpt>
      <trkpt lat="48.23293" lon="-3.41462">
        <ele>179.19999694824</ele>
        <time>2020-10-18T14:13:45.000Z</time>
      </trkpt>
      <trkpt lat="48.23293" lon="-3.41462">
        <ele>179.19999694824</ele>
        <time>2020-10-18T14:13:46.000Z</time>
      </trkpt>
      <trkpt lat="48.23294" lon="-3.41462">
        <ele>179.19999694824</ele>
        <time>2020-10-18T14:13:47.000Z</time>
      </trkpt>
      <trkpt lat="48.23294" lon="-3.41462">
        <ele>179.19999694824</ele>
        <time>2020-10-18T14:13:48.000Z</time>
      </trkpt>
      <trkpt lat="48.23294" lon="-3.41461">
        <ele>179.19999694824</ele>
        <time>2020-10-18T14:13:49.000Z</time>
      </trkpt>
      <trkpt lat="48.23294" lon="-3.41461">
        <ele>179.19999694824</ele>
        <time>2020-10-18T14:13:50.000Z</time>
      </trkpt>
      <trkpt lat="48.23294" lon="-3.41461">
        <ele>179.19999694824</ele>
        <time>2020-10-18T14:13:51.000Z</time>
      </trkpt>
      <trkpt lat="48.23294" lon="-3.41461">
        <ele>179.19999694824</ele>
        <time>2020-10-18T14:13:52.000Z</time>
      </trkpt>
      <trkpt lat="48.23294" lon="-3.41461">
        <ele>179.19999694824</ele>
        <time>2020-10-18T14:13:53.000Z</time>
      </trkpt>
      <trkpt lat="48.23294" lon="-3.41461">
        <ele>179.19999694824</ele>
        <time>2020-10-18T14:13:54.000Z</time>
      </trkpt>
      <trkpt lat="48.23294" lon="-3.41461">
        <ele>179.19999694824</ele>
        <time>2020-10-18T14:13:55.000Z</time>
      </trkpt>
      <trkpt lat="48.23294" lon="-3.41461">
        <ele>179.19999694824</ele>
        <time>2020-10-18T14:13:56.000Z</time>
      </trkpt>
      <trkpt lat="48.23294" lon="-3.41461">
        <ele>179.19999694824</ele>
        <time>2020-10-18T14:13:57.000Z</time>
      </trkpt>
      <trkpt lat="48.23294" lon="-3.41461">
        <ele>179.19999694824</ele>
        <time>2020-10-18T14:13:58.000Z</time>
      </trkpt>
      <trkpt lat="48.23294" lon="-3.41461">
        <ele>179.19999694824</ele>
        <time>2020-10-18T14:13:59.000Z</time>
      </trkpt>
      <trkpt lat="48.23294" lon="-3.41461">
        <ele>179.19999694824</ele>
        <time>2020-10-18T14:14:00.000Z</time>
      </trkpt>
      <trkpt lat="48.23294" lon="-3.41461">
        <ele>179.19999694824</ele>
        <time>2020-10-18T14:14:01.000Z</time>
      </trkpt>
      <trkpt lat="48.23294" lon="-3.41461">
        <ele>179.19999694824</ele>
        <time>2020-10-18T14:14:02.000Z</time>
      </trkpt>
      <trkpt lat="48.23294" lon="-3.41461">
        <ele>179.19999694824</ele>
        <time>2020-10-18T14:14:03.000Z</time>
      </trkpt>
      <trkpt lat="48.23294" lon="-3.41461">
        <ele>179.19999694824</ele>
        <time>2020-10-18T14:14:04.000Z</time>
      </trkpt>
      <trkpt lat="48.23294" lon="-3.41461">
        <ele>179.19999694824</ele>
        <time>2020-10-18T14:14:05.000Z</time>
      </trkpt>
      <trkpt lat="48.23294" lon="-3.41461">
        <ele>179.19999694824</ele>
        <time>2020-10-18T14:14:06.000Z</time>
      </trkpt>
      <trkpt lat="48.23294" lon="-3.41461">
        <ele>179.19999694824</ele>
        <time>2020-10-18T14:14:07.000Z</time>
      </trkpt>
      <trkpt lat="48.23294" lon="-3.41461">
        <ele>179.19999694824</ele>
        <time>2020-10-18T14:14:08.000Z</time>
      </trkpt>
      <trkpt lat="48.23294" lon="-3.41461">
        <ele>179.19999694824</ele>
        <time>2020-10-18T14:14:09.000Z</time>
      </trkpt>
      <trkpt lat="48.23294" lon="-3.41461">
        <ele>179.19999694824</ele>
        <time>2020-10-18T14:14:10.000Z</time>
      </trkpt>
      <trkpt lat="48.23294" lon="-3.41461">
        <ele>179.19999694824</ele>
        <time>2020-10-18T14:14:11.000Z</time>
      </trkpt>
      <trkpt lat="48.23294" lon="-3.41461">
        <ele>179.19999694824</ele>
        <time>2020-10-18T14:14:12.000Z</time>
      </trkpt>
      <trkpt lat="48.23294" lon="-3.41461">
        <ele>179.19999694824</ele>
        <time>2020-10-18T14:14:13.000Z</time>
      </trkpt>
      <trkpt lat="48.23294" lon="-3.41461">
        <ele>179.19999694824</ele>
        <time>2020-10-18T14:14:14.000Z</time>
      </trkpt>
      <trkpt lat="48.23294" lon="-3.41461">
        <ele>179.19999694824</ele>
        <time>2020-10-18T14:14:15.000Z</time>
      </trkpt>
      <trkpt lat="48.23294" lon="-3.41461">
        <ele>179.19999694824</ele>
        <time>2020-10-18T14:14:16.000Z</time>
      </trkpt>
      <trkpt lat="48.23294" lon="-3.41461">
        <ele>179.19999694824</ele>
        <time>2020-10-18T14:14:17.000Z</time>
      </trkpt>
      <trkpt lat="48.23294" lon="-3.41461">
        <ele>179.19999694824</ele>
        <time>2020-10-18T14:14:18.000Z</time>
      </trkpt>
      <trkpt lat="48.23294" lon="-3.41461">
        <ele>179.19999694824</ele>
        <time>2020-10-18T14:14:19.000Z</time>
      </trkpt>
      <trkpt lat="48.23294" lon="-3.41461">
        <ele>179.19999694824</ele>
        <time>2020-10-18T14:14:20.000Z</time>
      </trkpt>
      <trkpt lat="48.23294" lon="-3.41461">
        <ele>179.19999694824</ele>
        <time>2020-10-18T14:14:21.000Z</time>
      </trkpt>
      <trkpt lat="48.23294" lon="-3.41461">
        <ele>179.19999694824</ele>
        <time>2020-10-18T14:14:22.000Z</time>
      </trkpt>
      <trkpt lat="48.23294" lon="-3.41461">
        <ele>179.19999694824</ele>
        <time>2020-10-18T14:14:23.000Z</time>
      </trkpt>
      <trkpt lat="48.23294" lon="-3.41461">
        <ele>179.19999694824</ele>
        <time>2020-10-18T14:14:24.000Z</time>
      </trkpt>
      <trkpt lat="48.23294" lon="-3.41461">
        <ele>179.19999694824</ele>
        <time>2020-10-18T14:14:25.000Z</time>
      </trkpt>
      <trkpt lat="48.23294" lon="-3.41461">
        <ele>179.19999694824</ele>
        <time>2020-10-18T14:14:26.000Z</time>
      </trkpt>
      <trkpt lat="48.23294" lon="-3.41461">
        <ele>179.19999694824</ele>
        <time>2020-10-18T14:14:27.000Z</time>
      </trkpt>
      <trkpt lat="48.23294" lon="-3.41461">
        <ele>179.19999694824</ele>
        <time>2020-10-18T14:14:28.000Z</time>
      </trkpt>
      <trkpt lat="48.23294" lon="-3.41461">
        <ele>179.19999694824</ele>
        <time>2020-10-18T14:14:29.000Z</time>
      </trkpt>
      <trkpt lat="48.23294" lon="-3.41461">
        <ele>179.19999694824</ele>
        <time>2020-10-18T14:14:30.000Z</time>
      </trkpt>
      <trkpt lat="48.23294" lon="-3.41461">
        <ele>179.19999694824</ele>
        <time>2020-10-18T14:14:31.000Z</time>
      </trkpt>
      <trkpt lat="48.23294" lon="-3.41461">
        <ele>179.19999694824</ele>
        <time>2020-10-18T14:14:32.000Z</time>
      </trkpt>
      <trkpt lat="48.23294" lon="-3.41461">
        <ele>179.19999694824</ele>
        <time>2020-10-18T14:14:33.000Z</time>
      </trkpt>
      <trkpt lat="48.23294" lon="-3.41461">
        <ele>179.19999694824</ele>
        <time>2020-10-18T14:14:34.000Z</time>
      </trkpt>
      <trkpt lat="48.23294" lon="-3.41461">
        <ele>179.19999694824</ele>
        <time>2020-10-18T14:14:35.000Z</time>
      </trkpt>
      <trkpt lat="48.23294" lon="-3.41461">
        <ele>179.19999694824</ele>
        <time>2020-10-18T14:14:36.000Z</time>
      </trkpt>
      <trkpt lat="48.23294" lon="-3.41461">
        <ele>179.19999694824</ele>
        <time>2020-10-18T14:14:37.000Z</time>
      </trkpt>
      <trkpt lat="48.23294" lon="-3.41461">
        <ele>179.19999694824</ele>
        <time>2020-10-18T14:14:38.000Z</time>
      </trkpt>
      <trkpt lat="48.23294" lon="-3.41461">
        <ele>179.19999694824</ele>
        <time>2020-10-18T14:14:39.000Z</time>
      </trkpt>
      <trkpt lat="48.23294" lon="-3.41461">
        <ele>179.19999694824</ele>
        <time>2020-10-18T14:14:40.000Z</time>
      </trkpt>
      <trkpt lat="48.23294" lon="-3.41461">
        <ele>179.19999694824</ele>
        <time>2020-10-18T14:14:41.000Z</time>
      </trkpt>
      <trkpt lat="48.23294" lon="-3.41461">
        <ele>179.19999694824</ele>
        <time>2020-10-18T14:14:42.000Z</time>
      </trkpt>
      <trkpt lat="48.23294" lon="-3.41461">
        <ele>179.19999694824</ele>
        <time>2020-10-18T14:14:43.000Z</time>
      </trkpt>
      <trkpt lat="48.23294" lon="-3.41461">
        <ele>179.19999694824</ele>
        <time>2020-10-18T14:14:44.000Z</time>
      </trkpt>
      <trkpt lat="48.23294" lon="-3.41461">
        <ele>179.19999694824</ele>
        <time>2020-10-18T14:14:45.000Z</time>
      </trkpt>
      <trkpt lat="48.23294" lon="-3.41461">
        <ele>179.19999694824</ele>
        <time>2020-10-18T14:14:46.000Z</time>
      </trkpt>
      <trkpt lat="48.23294" lon="-3.41461">
        <ele>179.19999694824</ele>
        <time>2020-10-18T14:14:47.000Z</time>
      </trkpt>
      <trkpt lat="48.23294" lon="-3.41461">
        <ele>179.19999694824</ele>
        <time>2020-10-18T14:14:48.000Z</time>
      </trkpt>
      <trkpt lat="48.23294" lon="-3.41461">
        <ele>179.19999694824</ele>
        <time>2020-10-18T14:14:49.000Z</time>
      </trkpt>
      <trkpt lat="48.23294" lon="-3.41461">
        <ele>179.19999694824</ele>
        <time>2020-10-18T14:14:50.000Z</time>
      </trkpt>
      <trkpt lat="48.23294" lon="-3.41461">
        <ele>179.19999694824</ele>
        <time>2020-10-18T14:14:51.000Z</time>
      </trkpt>
      <trkpt lat="48.23294" lon="-3.41461">
        <ele>179.19999694824</ele>
        <time>2020-10-18T14:14:52.000Z</time>
      </trkpt>
      <trkpt lat="48.23293" lon="-3.41462">
        <ele>179.19999694824</ele>
        <time>2020-10-18T14:14:53.000Z</time>
      </trkpt>
      <trkpt lat="48.2329" lon="-3.41462">
        <ele>179.39999389648</ele>
        <time>2020-10-18T14:14:54.000Z</time>
      </trkpt>
      <trkpt lat="48.23288" lon="-3.41463">
        <ele>179.39999389648</ele>
        <time>2020-10-18T14:14:55.000Z</time>
      </trkpt>
      <trkpt lat="48.23285" lon="-3.41464">
        <ele>179.39999389648</ele>
        <time>2020-10-18T14:14:56.000Z</time>
      </trkpt>
      <trkpt lat="48.23281" lon="-3.41466">
        <ele>179.60000610352</ele>
        <time>2020-10-18T14:14:57.000Z</time>
      </trkpt>
      <trkpt lat="48.23277" lon="-3.41468">
        <ele>179.60000610352</ele>
        <time>2020-10-18T14:14:58.000Z</time>
      </trkpt>
      <trkpt lat="48.23274" lon="-3.4147">
        <ele>179.80000305176</ele>
        <time>2020-10-18T14:14:59.000Z</time>
      </trkpt>
      <trkpt lat="48.2327" lon="-3.41472">
        <ele>179.80000305176</ele>
        <time>2020-10-18T14:15:00.000Z</time>
      </trkpt>
      <trkpt lat="48.23266" lon="-3.41474">
        <ele>180</ele>
        <time>2020-10-18T14:15:01.000Z</time>
      </trkpt>
      <trkpt lat="48.23263" lon="-3.41477">
        <ele>180</ele>
        <time>2020-10-18T14:15:02.000Z</time>
      </trkpt>
      <trkpt lat="48.23259" lon="-3.41478">
        <ele>180</ele>
        <time>2020-10-18T14:15:03.000Z</time>
      </trkpt>
      <trkpt lat="48.23254" lon="-3.4148">
        <ele>180.19999694824</ele>
        <time>2020-10-18T14:15:04.000Z</time>
      </trkpt>
      <trkpt lat="48.2325" lon="-3.41482">
        <ele>180.19999694824</ele>
        <time>2020-10-18T14:15:05.000Z</time>
      </trkpt>
      <trkpt lat="48.23246" lon="-3.41483">
        <ele>180.39999389648</ele>
        <time>2020-10-18T14:15:06.000Z</time>
      </trkpt>
      <trkpt lat="48.23242" lon="-3.41485">
        <ele>180.39999389648</ele>
        <time>2020-10-18T14:15:07.000Z</time>
      </trkpt>
      <trkpt lat="48.23238" lon="-3.41486">
        <ele>180.60000610352</ele>
        <time>2020-10-18T14:15:08.000Z</time>
      </trkpt>
      <trkpt lat="48.23234" lon="-3.41487">
        <ele>180.60000610352</ele>
        <time>2020-10-18T14:15:09.000Z</time>
      </trkpt>
      <trkpt lat="48.23231" lon="-3.41489">
        <ele>180.80000305176</ele>
        <time>2020-10-18T14:15:10.000Z</time>
      </trkpt>
      <trkpt lat="48.23227" lon="-3.4149">
        <ele>180.80000305176</ele>
        <time>2020-10-18T14:15:11.000Z</time>
      </trkpt>
      <trkpt lat="48.23223" lon="-3.41491">
        <ele>181</ele>
        <time>2020-10-18T14:15:12.000Z</time>
      </trkpt>
      <trkpt lat="48.23219" lon="-3.41492">
        <ele>181</ele>
        <time>2020-10-18T14:15:13.000Z</time>
      </trkpt>
      <trkpt lat="48.23215" lon="-3.41493">
        <ele>181.19999694824</ele>
        <time>2020-10-18T14:15:14.000Z</time>
      </trkpt>
      <trkpt lat="48.23211" lon="-3.41494">
        <ele>181.19999694824</ele>
        <time>2020-10-18T14:15:15.000Z</time>
      </trkpt>
      <trkpt lat="48.23208" lon="-3.41495">
        <ele>181.39999389648</ele>
        <time>2020-10-18T14:15:16.000Z</time>
      </trkpt>
      <trkpt lat="48.23204" lon="-3.41496">
        <ele>181.39999389648</ele>
        <time>2020-10-18T14:15:17.000Z</time>
      </trkpt>
      <trkpt lat="48.23201" lon="-3.41498">
        <ele>181.39999389648</ele>
        <time>2020-10-18T14:15:18.000Z</time>
      </trkpt>
      <trkpt lat="48.23197" lon="-3.41499">
        <ele>181.60000610352</ele>
        <time>2020-10-18T14:15:19.000Z</time>
      </trkpt>
      <trkpt lat="48.23193" lon="-3.415">
        <ele>181.60000610352</ele>
        <time>2020-10-18T14:15:20.000Z</time>
      </trkpt>
      <trkpt lat="48.23189" lon="-3.41501">
        <ele>181.80000305176</ele>
        <time>2020-10-18T14:15:21.000Z</time>
      </trkpt>
      <trkpt lat="48.23185" lon="-3.41502">
        <ele>181.80000305176</ele>
        <time>2020-10-18T14:15:22.000Z</time>
      </trkpt>
      <trkpt lat="48.23181" lon="-3.41503">
        <ele>181.80000305176</ele>
        <time>2020-10-18T14:15:23.000Z</time>
      </trkpt>
      <trkpt lat="48.23177" lon="-3.41504">
        <ele>181.80000305176</ele>
        <time>2020-10-18T14:15:24.000Z</time>
      </trkpt>
      <trkpt lat="48.23172" lon="-3.41505">
        <ele>182</ele>
        <time>2020-10-18T14:15:25.000Z</time>
      </trkpt>
      <trkpt lat="48.23169" lon="-3.41506">
        <ele>182</ele>
        <time>2020-10-18T14:15:26.000Z</time>
      </trkpt>
      <trkpt lat="48.23165" lon="-3.41506">
        <ele>182</ele>
        <time>2020-10-18T14:15:27.000Z</time>
      </trkpt>
      <trkpt lat="48.23161" lon="-3.41507">
        <ele>182.19999694824</ele>
        <time>2020-10-18T14:15:28.000Z</time>
      </trkpt>
      <trkpt lat="48.23157" lon="-3.41508">
        <ele>182.19999694824</ele>
        <time>2020-10-18T14:15:29.000Z</time>
      </trkpt>
      <trkpt lat="48.23153" lon="-3.41508">
        <ele>182.19999694824</ele>
        <time>2020-10-18T14:15:30.000Z</time>
      </trkpt>
      <trkpt lat="48.23149" lon="-3.41508">
        <ele>182.19999694824</ele>
        <time>2020-10-18T14:15:31.000Z</time>
      </trkpt>
      <trkpt lat="48.23146" lon="-3.41509">
        <ele>182.39999389648</ele>
        <time>2020-10-18T14:15:32.000Z</time>
      </trkpt>
      <trkpt lat="48.23142" lon="-3.4151">
        <ele>182.39999389648</ele>
        <time>2020-10-18T14:15:33.000Z</time>
      </trkpt>
      <trkpt lat="48.23138" lon="-3.41511">
        <ele>182.39999389648</ele>
        <time>2020-10-18T14:15:34.000Z</time>
      </trkpt>
      <trkpt lat="48.23134" lon="-3.41513">
        <ele>182.60000610352</ele>
        <time>2020-10-18T14:15:35.000Z</time>
      </trkpt>
      <trkpt lat="48.2313" lon="-3.41514">
        <ele>182.60000610352</ele>
        <time>2020-10-18T14:15:36.000Z</time>
      </trkpt>
      <trkpt lat="48.23126" lon="-3.41516">
        <ele>182.60000610352</ele>
        <time>2020-10-18T14:15:37.000Z</time>
      </trkpt>
      <trkpt lat="48.23122" lon="-3.41517">
        <ele>182.80000305176</ele>
        <time>2020-10-18T14:15:38.000Z</time>
      </trkpt>
      <trkpt lat="48.23118" lon="-3.41519">
        <ele>182.80000305176</ele>
        <time>2020-10-18T14:15:39.000Z</time>
      </trkpt>
      <trkpt lat="48.23114" lon="-3.4152">
        <ele>183</ele>
        <time>2020-10-18T14:15:40.000Z</time>
      </trkpt>
      <trkpt lat="48.2311" lon="-3.41521">
        <ele>183</ele>
        <time>2020-10-18T14:15:41.000Z</time>
      </trkpt>
      <trkpt lat="48.23106" lon="-3.41523">
        <ele>183</ele>
        <time>2020-10-18T14:15:42.000Z</time>
      </trkpt>
      <trkpt lat="48.23102" lon="-3.41524">
        <ele>183.19999694824</ele>
        <time>2020-10-18T14:15:43.000Z</time>
      </trkpt>
      <trkpt lat="48.23099" lon="-3.41524">
        <ele>183.19999694824</ele>
        <time>2020-10-18T14:15:44.000Z</time>
      </trkpt>
      <trkpt lat="48.23095" lon="-3.41525">
        <ele>183.19999694824</ele>
        <time>2020-10-18T14:15:45.000Z</time>
      </trkpt>
      <trkpt lat="48.23091" lon="-3.41527">
        <ele>183.39999389648</ele>
        <time>2020-10-18T14:15:46.000Z</time>
      </trkpt>
      <trkpt lat="48.23087" lon="-3.41528">
        <ele>183.39999389648</ele>
        <time>2020-10-18T14:15:47.000Z</time>
      </trkpt>
      <trkpt lat="48.23084" lon="-3.41529">
        <ele>183.39999389648</ele>
        <time>2020-10-18T14:15:48.000Z</time>
      </trkpt>
      <trkpt lat="48.2308" lon="-3.4153">
        <ele>183.60000610352</ele>
        <time>2020-10-18T14:15:49.000Z</time>
      </trkpt>
      <trkpt lat="48.23076" lon="-3.41532">
        <ele>183.60000610352</ele>
        <time>2020-10-18T14:15:50.000Z</time>
      </trkpt>
      <trkpt lat="48.23072" lon="-3.41533">
        <ele>183.80000305176</ele>
        <time>2020-10-18T14:15:51.000Z</time>
      </trkpt>
      <trkpt lat="48.23069" lon="-3.41535">
        <ele>183.80000305176</ele>
        <time>2020-10-18T14:15:52.000Z</time>
      </trkpt>
      <trkpt lat="48.23065" lon="-3.41537">
        <ele>184</ele>
        <time>2020-10-18T14:15:53.000Z</time>
      </trkpt>
      <trkpt lat="48.23062" lon="-3.41538">
        <ele>184</ele>
        <time>2020-10-18T14:15:54.000Z</time>
      </trkpt>
      <trkpt lat="48.23058" lon="-3.4154">
        <ele>184.19999694824</ele>
        <time>2020-10-18T14:15:55.000Z</time>
      </trkpt>
      <trkpt lat="48.23055" lon="-3.41541">
        <ele>184.19999694824</ele>
        <time>2020-10-18T14:15:56.000Z</time>
      </trkpt>
      <trkpt lat="48.23052" lon="-3.41543">
        <ele>184.39999389648</ele>
        <time>2020-10-18T14:15:57.000Z</time>
      </trkpt>
      <trkpt lat="48.23048" lon="-3.41545">
        <ele>184.39999389648</ele>
        <time>2020-10-18T14:15:58.000Z</time>
      </trkpt>
      <trkpt lat="48.23045" lon="-3.41547">
        <ele>184.60000610352</ele>
        <time>2020-10-18T14:15:59.000Z</time>
      </trkpt>
      <trkpt lat="48.23041" lon="-3.41548">
        <ele>184.80000305176</ele>
        <time>2020-10-18T14:16:00.000Z</time>
      </trkpt>
      <trkpt lat="48.23037" lon="-3.4155">
        <ele>184.80000305176</ele>
        <time>2020-10-18T14:16:01.000Z</time>
      </trkpt>
      <trkpt lat="48.23033" lon="-3.41551">
        <ele>185</ele>
        <time>2020-10-18T14:16:02.000Z</time>
      </trkpt>
      <trkpt lat="48.23029" lon="-3.41553">
        <ele>185</ele>
        <time>2020-10-18T14:16:03.000Z</time>
      </trkpt>
      <trkpt lat="48.23026" lon="-3.41555">
        <ele>185.19999694824</ele>
        <time>2020-10-18T14:16:04.000Z</time>
      </trkpt>
      <trkpt lat="48.23022" lon="-3.41557">
        <ele>185.19999694824</ele>
        <time>2020-10-18T14:16:05.000Z</time>
      </trkpt>
      <trkpt lat="48.23018" lon="-3.41558">
        <ele>185.39999389648</ele>
        <time>2020-10-18T14:16:06.000Z</time>
      </trkpt>
      <trkpt lat="48.23014" lon="-3.4156">
        <ele>185.39999389648</ele>
        <time>2020-10-18T14:16:07.000Z</time>
      </trkpt>
      <trkpt lat="48.2301" lon="-3.41562">
        <ele>185.60000610352</ele>
        <time>2020-10-18T14:16:08.000Z</time>
      </trkpt>
      <trkpt lat="48.23006" lon="-3.41563">
        <ele>185.80000305176</ele>
        <time>2020-10-18T14:16:09.000Z</time>
      </trkpt>
      <trkpt lat="48.23002" lon="-3.41564">
        <ele>186</ele>
        <time>2020-10-18T14:16:10.000Z</time>
      </trkpt>
      <trkpt lat="48.22999" lon="-3.41565">
        <ele>186</ele>
        <time>2020-10-18T14:16:11.000Z</time>
      </trkpt>
      <trkpt lat="48.22995" lon="-3.41567">
        <ele>186.19999694824</ele>
        <time>2020-10-18T14:16:12.000Z</time>
      </trkpt>
      <trkpt lat="48.22991" lon="-3.41568">
        <ele>186.39999389648</ele>
        <time>2020-10-18T14:16:13.000Z</time>
      </trkpt>
      <trkpt lat="48.22988" lon="-3.4157">
        <ele>186.60000610352</ele>
        <time>2020-10-18T14:16:14.000Z</time>
      </trkpt>
      <trkpt lat="48.22984" lon="-3.41572">
        <ele>186.60000610352</ele>
        <time>2020-10-18T14:16:15.000Z</time>
      </trkpt>
      <trkpt lat="48.22981" lon="-3.41573">
        <ele>186.80000305176</ele>
        <time>2020-10-18T14:16:16.000Z</time>
      </trkpt>
      <trkpt lat="48.22977" lon="-3.41575">
        <ele>187</ele>
        <time>2020-10-18T14:16:17.000Z</time>
      </trkpt>
      <trkpt lat="48.22974" lon="-3.41576">
        <ele>187.19999694824</ele>
        <time>2020-10-18T14:16:18.000Z</time>
      </trkpt>
      <trkpt lat="48.2297" lon="-3.41578">
        <ele>187.19999694824</ele>
        <time>2020-10-18T14:16:19.000Z</time>
      </trkpt>
      <trkpt lat="48.22967" lon="-3.41579">
        <ele>187.39999389648</ele>
        <time>2020-10-18T14:16:20.000Z</time>
      </trkpt>
      <trkpt lat="48.22963" lon="-3.4158">
        <ele>187.60000610352</ele>
        <time>2020-10-18T14:16:21.000Z</time>
      </trkpt>
      <trkpt lat="48.2296" lon="-3.41582">
        <ele>187.60000610352</ele>
        <time>2020-10-18T14:16:22.000Z</time>
      </trkpt>
      <trkpt lat="48.22956" lon="-3.41583">
        <ele>187.80000305176</ele>
        <time>2020-10-18T14:16:23.000Z</time>
      </trkpt>
      <trkpt lat="48.22953" lon="-3.41584">
        <ele>188</ele>
        <time>2020-10-18T14:16:24.000Z</time>
      </trkpt>
      <trkpt lat="48.22949" lon="-3.41586">
        <ele>188.19999694824</ele>
        <time>2020-10-18T14:16:25.000Z</time>
      </trkpt>
      <trkpt lat="48.22946" lon="-3.41587">
        <ele>188.19999694824</ele>
        <time>2020-10-18T14:16:26.000Z</time>
      </trkpt>
      <trkpt lat="48.22943" lon="-3.41588">
        <ele>188.39999389648</ele>
        <time>2020-10-18T14:16:27.000Z</time>
      </trkpt>
      <trkpt lat="48.22939" lon="-3.41589">
        <ele>188.60000610352</ele>
        <time>2020-10-18T14:16:28.000Z</time>
      </trkpt>
      <trkpt lat="48.22936" lon="-3.4159">
        <ele>188.60000610352</ele>
        <time>2020-10-18T14:16:29.000Z</time>
      </trkpt>
      <trkpt lat="48.22933" lon="-3.41592">
        <ele>188.80000305176</ele>
        <time>2020-10-18T14:16:30.000Z</time>
      </trkpt>
      <trkpt lat="48.2293" lon="-3.41593">
        <ele>188.80000305176</ele>
        <time>2020-10-18T14:16:31.000Z</time>
      </trkpt>
      <trkpt lat="48.22926" lon="-3.41594">
        <ele>189</ele>
        <time>2020-10-18T14:16:32.000Z</time>
      </trkpt>
      <trkpt lat="48.22923" lon="-3.41596">
        <ele>189</ele>
        <time>2020-10-18T14:16:33.000Z</time>
      </trkpt>
      <trkpt lat="48.22919" lon="-3.41596">
        <ele>189.19999694824</ele>
        <time>2020-10-18T14:16:34.000Z</time>
      </trkpt>
      <trkpt lat="48.22916" lon="-3.41598">
        <ele>189.19999694824</ele>
        <time>2020-10-18T14:16:35.000Z</time>
      </trkpt>
      <trkpt lat="48.22913" lon="-3.416">
        <ele>189.39999389648</ele>
        <time>2020-10-18T14:16:36.000Z</time>
      </trkpt>
      <trkpt lat="48.2291" lon="-3.41602">
        <ele>189.39999389648</ele>
        <time>2020-10-18T14:16:37.000Z</time>
      </trkpt>
      <trkpt lat="48.22907" lon="-3.41604">
        <ele>189.60000610352</ele>
        <time>2020-10-18T14:16:38.000Z</time>
      </trkpt>
      <trkpt lat="48.22903" lon="-3.41606">
        <ele>189.80000305176</ele>
        <time>2020-10-18T14:16:39.000Z</time>
      </trkpt>
      <trkpt lat="48.229" lon="-3.41608">
        <ele>189.80000305176</ele>
        <time>2020-10-18T14:16:40.000Z</time>
      </trkpt>
      <trkpt lat="48.22896" lon="-3.41609">
        <ele>190</ele>
        <time>2020-10-18T14:16:41.000Z</time>
      </trkpt>
      <trkpt lat="48.22893" lon="-3.41611">
        <ele>190</ele>
        <time>2020-10-18T14:16:42.000Z</time>
      </trkpt>
      <trkpt lat="48.2289" lon="-3.41614">
        <ele>190.19999694824</ele>
        <time>2020-10-18T14:16:43.000Z</time>
      </trkpt>
      <trkpt lat="48.22886" lon="-3.41617">
        <ele>190.19999694824</ele>
        <time>2020-10-18T14:16:44.000Z</time>
      </trkpt>
      <trkpt lat="48.22883" lon="-3.4162">
        <ele>190.39999389648</ele>
        <time>2020-10-18T14:16:45.000Z</time>
      </trkpt>
      <trkpt lat="48.2288" lon="-3.41623">
        <ele>190.39999389648</ele>
        <time>2020-10-18T14:16:46.000Z</time>
      </trkpt>
      <trkpt lat="48.22877" lon="-3.41625">
        <ele>190.60000610352</ele>
        <time>2020-10-18T14:16:47.000Z</time>
      </trkpt>
      <trkpt lat="48.22873" lon="-3.41628">
        <ele>190.60000610352</ele>
        <time>2020-10-18T14:16:48.000Z</time>
      </trkpt>
      <trkpt lat="48.2287" lon="-3.41631">
        <ele>190.80000305176</ele>
        <time>2020-10-18T14:16:49.000Z</time>
      </trkpt>
      <trkpt lat="48.22867" lon="-3.41635">
        <ele>191</ele>
        <time>2020-10-18T14:16:50.000Z</time>
      </trkpt>
      <trkpt lat="48.22864" lon="-3.41638">
        <ele>191</ele>
        <time>2020-10-18T14:16:51.000Z</time>
      </trkpt>
      <trkpt lat="48.22861" lon="-3.41641">
        <ele>191.19999694824</ele>
        <time>2020-10-18T14:16:52.000Z</time>
      </trkpt>
      <trkpt lat="48.22858" lon="-3.41644">
        <ele>191.19999694824</ele>
        <time>2020-10-18T14:16:53.000Z</time>
      </trkpt>
      <trkpt lat="48.22855" lon="-3.41647">
        <ele>191.39999389648</ele>
        <time>2020-10-18T14:16:54.000Z</time>
      </trkpt>
      <trkpt lat="48.22852" lon="-3.4165">
        <ele>191.39999389648</ele>
        <time>2020-10-18T14:16:55.000Z</time>
      </trkpt>
      <trkpt lat="48.22848" lon="-3.41653">
        <ele>191.60000610352</ele>
        <time>2020-10-18T14:16:56.000Z</time>
      </trkpt>
      <trkpt lat="48.22845" lon="-3.41657">
        <ele>191.80000305176</ele>
        <time>2020-10-18T14:16:57.000Z</time>
      </trkpt>
      <trkpt lat="48.22842" lon="-3.41661">
        <ele>192</ele>
        <time>2020-10-18T14:16:58.000Z</time>
      </trkpt>
      <trkpt lat="48.22838" lon="-3.41664">
        <ele>192.19999694824</ele>
        <time>2020-10-18T14:16:59.000Z</time>
      </trkpt>
      <trkpt lat="48.22835" lon="-3.41667">
        <ele>192.60000610352</ele>
        <time>2020-10-18T14:17:00.000Z</time>
      </trkpt>
      <trkpt lat="48.22832" lon="-3.4167">
        <ele>192.80000305176</ele>
        <time>2020-10-18T14:17:01.000Z</time>
      </trkpt>
      <trkpt lat="48.2283" lon="-3.41673">
        <ele>193</ele>
        <time>2020-10-18T14:17:02.000Z</time>
      </trkpt>
      <trkpt lat="48.22827" lon="-3.41676">
        <ele>193.19999694824</ele>
        <time>2020-10-18T14:17:03.000Z</time>
      </trkpt>
      <trkpt lat="48.22824" lon="-3.41678">
        <ele>193.39999389648</ele>
        <time>2020-10-18T14:17:04.000Z</time>
      </trkpt>
      <trkpt lat="48.22822" lon="-3.4168">
        <ele>193.80000305176</ele>
        <time>2020-10-18T14:17:05.000Z</time>
      </trkpt>
      <trkpt lat="48.22819" lon="-3.41682">
        <ele>194</ele>
        <time>2020-10-18T14:17:06.000Z</time>
      </trkpt>
      <trkpt lat="48.22816" lon="-3.41682">
        <ele>194.19999694824</ele>
        <time>2020-10-18T14:17:07.000Z</time>
      </trkpt>
      <trkpt lat="48.22814" lon="-3.4168">
        <ele>194.19999694824</ele>
        <time>2020-10-18T14:17:08.000Z</time>
      </trkpt>
      <trkpt lat="48.22811" lon="-3.41677">
        <ele>194.39999389648</ele>
        <time>2020-10-18T14:17:09.000Z</time>
      </trkpt>
      <trkpt lat="48.22808" lon="-3.41673">
        <ele>194.60000610352</ele>
        <time>2020-10-18T14:17:10.000Z</time>
      </trkpt>
      <trkpt lat="48.22806" lon="-3.41668">
        <ele>194.80000305176</ele>
        <time>2020-10-18T14:17:11.000Z</time>
      </trkpt>
      <trkpt lat="48.22803" lon="-3.41664">
        <ele>194.80000305176</ele>
        <time>2020-10-18T14:17:12.000Z</time>
      </trkpt>
      <trkpt lat="48.22801" lon="-3.4166">
        <ele>195</ele>
        <time>2020-10-18T14:17:13.000Z</time>
      </trkpt>
      <trkpt lat="48.22798" lon="-3.41655">
        <ele>195</ele>
        <time>2020-10-18T14:17:14.000Z</time>
      </trkpt>
      <trkpt lat="48.22795" lon="-3.41651">
        <ele>195.19999694824</ele>
        <time>2020-10-18T14:17:15.000Z</time>
      </trkpt>
      <trkpt lat="48.22792" lon="-3.41646">
        <ele>195.60000610352</ele>
        <time>2020-10-18T14:17:16.000Z</time>
      </trkpt>
      <trkpt lat="48.22789" lon="-3.41642">
        <ele>195.80000305176</ele>
        <time>2020-10-18T14:17:17.000Z</time>
      </trkpt>
      <trkpt lat="48.22786" lon="-3.41638">
        <ele>196.19999694824</ele>
        <time>2020-10-18T14:17:18.000Z</time>
      </trkpt>
      <trkpt lat="48.22783" lon="-3.41634">
        <ele>196.60000610352</ele>
        <time>2020-10-18T14:17:19.000Z</time>
      </trkpt>
      <trkpt lat="48.22781" lon="-3.4163">
        <ele>196.80000305176</ele>
        <time>2020-10-18T14:17:20.000Z</time>
      </trkpt>
      <trkpt lat="48.22778" lon="-3.41626">
        <ele>197.19999694824</ele>
        <time>2020-10-18T14:17:21.000Z</time>
      </trkpt>
      <trkpt lat="48.22776" lon="-3.41621">
        <ele>197.39999389648</ele>
        <time>2020-10-18T14:17:22.000Z</time>
      </trkpt>
      <trkpt lat="48.22773" lon="-3.41618">
        <ele>197.60000610352</ele>
        <time>2020-10-18T14:17:23.000Z</time>
      </trkpt>
      <trkpt lat="48.22771" lon="-3.41614">
        <ele>198</ele>
        <time>2020-10-18T14:17:24.000Z</time>
      </trkpt>
      <trkpt lat="48.22769" lon="-3.41611">
        <ele>198.19999694824</ele>
        <time>2020-10-18T14:17:25.000Z</time>
      </trkpt>
      <trkpt lat="48.22767" lon="-3.41607">
        <ele>198.39999389648</ele>
        <time>2020-10-18T14:17:26.000Z</time>
      </trkpt>
      <trkpt lat="48.22764" lon="-3.41604">
        <ele>198.80000305176</ele>
        <time>2020-10-18T14:17:27.000Z</time>
      </trkpt>
      <trkpt lat="48.22761" lon="-3.416">
        <ele>199</ele>
        <time>2020-10-18T14:17:28.000Z</time>
      </trkpt>
      <trkpt lat="48.22759" lon="-3.41596">
        <ele>199.19999694824</ele>
        <time>2020-10-18T14:17:29.000Z</time>
      </trkpt>
      <trkpt lat="48.22756" lon="-3.41593">
        <ele>199.19999694824</ele>
        <time>2020-10-18T14:17:30.000Z</time>
      </trkpt>
      <trkpt lat="48.22754" lon="-3.41589">
        <ele>199.19999694824</ele>
        <time>2020-10-18T14:17:31.000Z</time>
      </trkpt>
      <trkpt lat="48.22751" lon="-3.41586">
        <ele>199.39999389648</ele>
        <time>2020-10-18T14:17:32.000Z</time>
      </trkpt>
      <trkpt lat="48.22749" lon="-3.41582">
        <ele>199.39999389648</ele>
        <time>2020-10-18T14:17:33.000Z</time>
      </trkpt>
      <trkpt lat="48.22746" lon="-3.41579">
        <ele>199.39999389648</ele>
        <time>2020-10-18T14:17:34.000Z</time>
      </trkpt>
      <trkpt lat="48.22745" lon="-3.41575">
        <ele>199.39999389648</ele>
        <time>2020-10-18T14:17:35.000Z</time>
      </trkpt>
      <trkpt lat="48.22742" lon="-3.41572">
        <ele>199.39999389648</ele>
        <time>2020-10-18T14:17:36.000Z</time>
      </trkpt>
      <trkpt lat="48.2274" lon="-3.41569">
        <ele>199.39999389648</ele>
        <time>2020-10-18T14:17:37.000Z</time>
      </trkpt>
      <trkpt lat="48.22738" lon="-3.41565">
        <ele>199.60000610352</ele>
        <time>2020-10-18T14:17:38.000Z</time>
      </trkpt>
      <trkpt lat="48.22736" lon="-3.41561">
        <ele>199.60000610352</ele>
        <time>2020-10-18T14:17:39.000Z</time>
      </trkpt>
      <trkpt lat="48.22733" lon="-3.41557">
        <ele>199.60000610352</ele>
        <time>2020-10-18T14:17:40.000Z</time>
      </trkpt>
      <trkpt lat="48.22731" lon="-3.41553">
        <ele>199.60000610352</ele>
        <time>2020-10-18T14:17:41.000Z</time>
      </trkpt>
      <trkpt lat="48.22729" lon="-3.41549">
        <ele>199.60000610352</ele>
        <time>2020-10-18T14:17:42.000Z</time>
      </trkpt>
      <trkpt lat="48.22726" lon="-3.41546">
        <ele>200</ele>
        <time>2020-10-18T14:17:43.000Z</time>
      </trkpt>
      <trkpt lat="48.22724" lon="-3.41542">
        <ele>200.19999694824</ele>
        <time>2020-10-18T14:17:44.000Z</time>
      </trkpt>
      <trkpt lat="48.22721" lon="-3.41538">
        <ele>200.60000610352</ele>
        <time>2020-10-18T14:17:45.000Z</time>
      </trkpt>
      <trkpt lat="48.22719" lon="-3.41535">
        <ele>201</ele>
        <time>2020-10-18T14:17:46.000Z</time>
      </trkpt>
      <trkpt lat="48.22714" lon="-3.41528">
        <ele>201.60000610352</ele>
        <time>2020-10-18T14:17:47.000Z</time>
      </trkpt>
      <trkpt lat="48.22714" lon="-3.41528">
        <ele>201.60000610352</ele>
        <time>2020-10-18T14:17:48.000Z</time>
      </trkpt>
      <trkpt lat="48.22711" lon="-3.41524">
        <ele>202</ele>
        <time>2020-10-18T14:17:49.000Z</time>
      </trkpt>
      <trkpt lat="48.22708" lon="-3.4152">
        <ele>202.39999389648</ele>
        <time>2020-10-18T14:17:50.000Z</time>
      </trkpt>
      <trkpt lat="48.22705" lon="-3.41515">
        <ele>202.80000305176</ele>
        <time>2020-10-18T14:17:51.000Z</time>
      </trkpt>
      <trkpt lat="48.22703" lon="-3.41511">
        <ele>203.19999694824</ele>
        <time>2020-10-18T14:17:52.000Z</time>
      </trkpt>
      <trkpt lat="48.227" lon="-3.41508">
        <ele>203.60000610352</ele>
        <time>2020-10-18T14:17:53.000Z</time>
      </trkpt>
      <trkpt lat="48.22698" lon="-3.41504">
        <ele>203.80000305176</ele>
        <time>2020-10-18T14:17:54.000Z</time>
      </trkpt>
      <trkpt lat="48.22696" lon="-3.415">
        <ele>204.19999694824</ele>
        <time>2020-10-18T14:17:55.000Z</time>
      </trkpt>
      <trkpt lat="48.22693" lon="-3.41496">
        <ele>204.39999389648</ele>
        <time>2020-10-18T14:17:56.000Z</time>
      </trkpt>
      <trkpt lat="48.2269" lon="-3.41493">
        <ele>204.60000610352</ele>
        <time>2020-10-18T14:17:57.000Z</time>
      </trkpt>
      <trkpt lat="48.22688" lon="-3.4149">
        <ele>204.60000610352</ele>
        <time>2020-10-18T14:17:58.000Z</time>
      </trkpt>
      <trkpt lat="48.22686" lon="-3.41487">
        <ele>204.80000305176</ele>
        <time>2020-10-18T14:17:59.000Z</time>
      </trkpt>
      <trkpt lat="48.22684" lon="-3.41484">
        <ele>204.80000305176</ele>
        <time>2020-10-18T14:18:00.000Z</time>
      </trkpt>
      <trkpt lat="48.22682" lon="-3.41481">
        <ele>205</ele>
        <time>2020-10-18T14:18:01.000Z</time>
      </trkpt>
      <trkpt lat="48.2268" lon="-3.41478">
        <ele>205</ele>
        <time>2020-10-18T14:18:02.000Z</time>
      </trkpt>
      <trkpt lat="48.22678" lon="-3.41476">
        <ele>205</ele>
        <time>2020-10-18T14:18:03.000Z</time>
      </trkpt>
      <trkpt lat="48.22676" lon="-3.41473">
        <ele>205</ele>
        <time>2020-10-18T14:18:04.000Z</time>
      </trkpt>
      <trkpt lat="48.22674" lon="-3.4147">
        <ele>205</ele>
        <time>2020-10-18T14:18:05.000Z</time>
      </trkpt>
      <trkpt lat="48.22672" lon="-3.41467">
        <ele>205</ele>
        <time>2020-10-18T14:18:06.000Z</time>
      </trkpt>
      <trkpt lat="48.2267" lon="-3.41463">
        <ele>205</ele>
        <time>2020-10-18T14:18:07.000Z</time>
      </trkpt>
      <trkpt lat="48.22669" lon="-3.41461">
        <ele>205</ele>
        <time>2020-10-18T14:18:08.000Z</time>
      </trkpt>
      <trkpt lat="48.22667" lon="-3.41458">
        <ele>205</ele>
        <time>2020-10-18T14:18:09.000Z</time>
      </trkpt>
      <trkpt lat="48.22665" lon="-3.41455">
        <ele>205</ele>
        <time>2020-10-18T14:18:10.000Z</time>
      </trkpt>
      <trkpt lat="48.22664" lon="-3.41452">
        <ele>205</ele>
        <time>2020-10-18T14:18:11.000Z</time>
      </trkpt>
      <trkpt lat="48.22663" lon="-3.41449">
        <ele>205</ele>
        <time>2020-10-18T14:18:12.000Z</time>
      </trkpt>
      <trkpt lat="48.22661" lon="-3.41447">
        <ele>205</ele>
        <time>2020-10-18T14:18:13.000Z</time>
      </trkpt>
      <trkpt lat="48.2266" lon="-3.41444">
        <ele>205.19999694824</ele>
        <time>2020-10-18T14:18:14.000Z</time>
      </trkpt>
      <trkpt lat="48.22658" lon="-3.41442">
        <ele>205.39999389648</ele>
        <time>2020-10-18T14:18:15.000Z</time>
      </trkpt>
      <trkpt lat="48.22654" lon="-3.41438">
        <ele>205.80000305176</ele>
        <time>2020-10-18T14:18:16.000Z</time>
      </trkpt>
      <trkpt lat="48.22654" lon="-3.41438">
        <ele>205.80000305176</ele>
        <time>2020-10-18T14:18:17.000Z</time>
      </trkpt>
      <trkpt lat="48.22652" lon="-3.41436">
        <ele>205.80000305176</ele>
        <time>2020-10-18T14:18:18.000Z</time>
      </trkpt>
      <trkpt lat="48.22649" lon="-3.41434">
        <ele>206</ele>
        <time>2020-10-18T14:18:19.000Z</time>
      </trkpt>
      <trkpt lat="48.22647" lon="-3.41431">
        <ele>206.19999694824</ele>
        <time>2020-10-18T14:18:20.000Z</time>
      </trkpt>
      <trkpt lat="48.22645" lon="-3.41429">
        <ele>206.39999389648</ele>
        <time>2020-10-18T14:18:21.000Z</time>
      </trkpt>
      <trkpt lat="48.22643" lon="-3.41427">
        <ele>206.60000610352</ele>
        <time>2020-10-18T14:18:22.000Z</time>
      </trkpt>
      <trkpt lat="48.22641" lon="-3.41424">
        <ele>206.80000305176</ele>
        <time>2020-10-18T14:18:23.000Z</time>
      </trkpt>
      <trkpt lat="48.22639" lon="-3.41419">
        <ele>207</ele>
        <time>2020-10-18T14:18:24.000Z</time>
      </trkpt>
      <trkpt lat="48.22637" lon="-3.41416">
        <ele>207.19999694824</ele>
        <time>2020-10-18T14:18:25.000Z</time>
      </trkpt>
      <trkpt lat="48.22635" lon="-3.41413">
        <ele>207.39999389648</ele>
        <time>2020-10-18T14:18:26.000Z</time>
      </trkpt>
      <trkpt lat="48.22633" lon="-3.4141">
        <ele>207.60000610352</ele>
        <time>2020-10-18T14:18:27.000Z</time>
      </trkpt>
      <trkpt lat="48.22631" lon="-3.41408">
        <ele>207.80000305176</ele>
        <time>2020-10-18T14:18:28.000Z</time>
      </trkpt>
      <trkpt lat="48.22629" lon="-3.41405">
        <ele>208</ele>
        <time>2020-10-18T14:18:29.000Z</time>
      </trkpt>
      <trkpt lat="48.22627" lon="-3.41403">
        <ele>208.19999694824</ele>
        <time>2020-10-18T14:18:30.000Z</time>
      </trkpt>
      <trkpt lat="48.22625" lon="-3.414">
        <ele>208.19999694824</ele>
        <time>2020-10-18T14:18:31.000Z</time>
      </trkpt>
      <trkpt lat="48.22623" lon="-3.41397">
        <ele>208</ele>
        <time>2020-10-18T14:18:32.000Z</time>
      </trkpt>
      <trkpt lat="48.22621" lon="-3.41394">
        <ele>208</ele>
        <time>2020-10-18T14:18:33.000Z</time>
      </trkpt>
      <trkpt lat="48.22619" lon="-3.41391">
        <ele>208</ele>
        <time>2020-10-18T14:18:34.000Z</time>
      </trkpt>
      <trkpt lat="48.22618" lon="-3.41388">
        <ele>208</ele>
        <time>2020-10-18T14:18:35.000Z</time>
      </trkpt>
      <trkpt lat="48.22616" lon="-3.41386">
        <ele>207.80000305176</ele>
        <time>2020-10-18T14:18:36.000Z</time>
      </trkpt>
      <trkpt lat="48.22614" lon="-3.41384">
        <ele>207.80000305176</ele>
        <time>2020-10-18T14:18:37.000Z</time>
      </trkpt>
      <trkpt lat="48.22612" lon="-3.41381">
        <ele>207.80000305176</ele>
        <time>2020-10-18T14:18:38.000Z</time>
      </trkpt>
      <trkpt lat="48.2261" lon="-3.41379">
        <ele>207.80000305176</ele>
        <time>2020-10-18T14:18:39.000Z</time>
      </trkpt>
      <trkpt lat="48.22608" lon="-3.41376">
        <ele>207.60000610352</ele>
        <time>2020-10-18T14:18:40.000Z</time>
      </trkpt>
      <trkpt lat="48.22606" lon="-3.41373">
        <ele>207.60000610352</ele>
        <time>2020-10-18T14:18:41.000Z</time>
      </trkpt>
      <trkpt lat="48.22604" lon="-3.4137">
        <ele>207.60000610352</ele>
        <time>2020-10-18T14:18:42.000Z</time>
      </trkpt>
      <trkpt lat="48.22602" lon="-3.41368">
        <ele>207.60000610352</ele>
        <time>2020-10-18T14:18:43.000Z</time>
      </trkpt>
      <trkpt lat="48.22601" lon="-3.41365">
        <ele>207.39999389648</ele>
        <time>2020-10-18T14:18:44.000Z</time>
      </trkpt>
      <trkpt lat="48.22599" lon="-3.41363">
        <ele>207.39999389648</ele>
        <time>2020-10-18T14:18:45.000Z</time>
      </trkpt>
      <trkpt lat="48.22597" lon="-3.4136">
        <ele>207.39999389648</ele>
        <time>2020-10-18T14:18:46.000Z</time>
      </trkpt>
      <trkpt lat="48.22595" lon="-3.41358">
        <ele>207.39999389648</ele>
        <time>2020-10-18T14:18:47.000Z</time>
      </trkpt>
      <trkpt lat="48.22593" lon="-3.41355">
        <ele>207.39999389648</ele>
        <time>2020-10-18T14:18:48.000Z</time>
      </trkpt>
      <trkpt lat="48.22591" lon="-3.41353">
        <ele>207.39999389648</ele>
        <time>2020-10-18T14:18:49.000Z</time>
      </trkpt>
      <trkpt lat="48.2259" lon="-3.4135">
        <ele>207.39999389648</ele>
        <time>2020-10-18T14:18:50.000Z</time>
      </trkpt>
      <trkpt lat="48.22588" lon="-3.41347">
        <ele>207.39999389648</ele>
        <time>2020-10-18T14:18:51.000Z</time>
      </trkpt>
      <trkpt lat="48.22586" lon="-3.41345">
        <ele>207.60000610352</ele>
        <time>2020-10-18T14:18:52.000Z</time>
      </trkpt>
      <trkpt lat="48.22584" lon="-3.41342">
        <ele>207.80000305176</ele>
        <time>2020-10-18T14:18:53.000Z</time>
      </trkpt>
      <trkpt lat="48.22582" lon="-3.41339">
        <ele>207.80000305176</ele>
        <time>2020-10-18T14:18:54.000Z</time>
      </trkpt>
      <trkpt lat="48.2258" lon="-3.41336">
        <ele>208</ele>
        <time>2020-10-18T14:18:55.000Z</time>
      </trkpt>
      <trkpt lat="48.22578" lon="-3.41333">
        <ele>208</ele>
        <time>2020-10-18T14:18:56.000Z</time>
      </trkpt>
      <trkpt lat="48.22576" lon="-3.41331">
        <ele>208.19999694824</ele>
        <time>2020-10-18T14:18:57.000Z</time>
      </trkpt>
      <trkpt lat="48.22574" lon="-3.41328">
        <ele>208.39999389648</ele>
        <time>2020-10-18T14:18:58.000Z</time>
      </trkpt>
      <trkpt lat="48.22571" lon="-3.41325">
        <ele>208.39999389648</ele>
        <time>2020-10-18T14:18:59.000Z</time>
      </trkpt>
      <trkpt lat="48.22569" lon="-3.41322">
        <ele>208.60000610352</ele>
        <time>2020-10-18T14:19:00.000Z</time>
      </trkpt>
      <trkpt lat="48.22567" lon="-3.41319">
        <ele>208.60000610352</ele>
        <time>2020-10-18T14:19:01.000Z</time>
      </trkpt>
      <trkpt lat="48.22565" lon="-3.41317">
        <ele>208.80000305176</ele>
        <time>2020-10-18T14:19:02.000Z</time>
      </trkpt>
      <trkpt lat="48.22563" lon="-3.41314">
        <ele>209</ele>
        <time>2020-10-18T14:19:03.000Z</time>
      </trkpt>
      <trkpt lat="48.22561" lon="-3.41311">
        <ele>209</ele>
        <time>2020-10-18T14:19:04.000Z</time>
      </trkpt>
      <trkpt lat="48.22559" lon="-3.41308">
        <ele>209.19999694824</ele>
        <time>2020-10-18T14:19:05.000Z</time>
      </trkpt>
      <trkpt lat="48.22557" lon="-3.41305">
        <ele>209.19999694824</ele>
        <time>2020-10-18T14:19:06.000Z</time>
      </trkpt>
      <trkpt lat="48.22555" lon="-3.41302">
        <ele>209.39999389648</ele>
        <time>2020-10-18T14:19:07.000Z</time>
      </trkpt>
      <trkpt lat="48.22553" lon="-3.41298">
        <ele>209.39999389648</ele>
        <time>2020-10-18T14:19:08.000Z</time>
      </trkpt>
      <trkpt lat="48.22551" lon="-3.41295">
        <ele>209.39999389648</ele>
        <time>2020-10-18T14:19:09.000Z</time>
      </trkpt>
      <trkpt lat="48.22549" lon="-3.41293">
        <ele>209.60000610352</ele>
        <time>2020-10-18T14:19:10.000Z</time>
      </trkpt>
      <trkpt lat="48.22547" lon="-3.4129">
        <ele>209.60000610352</ele>
        <time>2020-10-18T14:19:11.000Z</time>
      </trkpt>
      <trkpt lat="48.22544" lon="-3.41287">
        <ele>209.80000305176</ele>
        <time>2020-10-18T14:19:12.000Z</time>
      </trkpt>
      <trkpt lat="48.22542" lon="-3.41284">
        <ele>209.80000305176</ele>
        <time>2020-10-18T14:19:13.000Z</time>
      </trkpt>
      <trkpt lat="48.2254" lon="-3.41281">
        <ele>209.80000305176</ele>
        <time>2020-10-18T14:19:14.000Z</time>
      </trkpt>
      <trkpt lat="48.22538" lon="-3.41278">
        <ele>209.80000305176</ele>
        <time>2020-10-18T14:19:15.000Z</time>
      </trkpt>
      <trkpt lat="48.22536" lon="-3.41275">
        <ele>210</ele>
        <time>2020-10-18T14:19:16.000Z</time>
      </trkpt>
      <trkpt lat="48.22534" lon="-3.41272">
        <ele>210</ele>
        <time>2020-10-18T14:19:17.000Z</time>
      </trkpt>
      <trkpt lat="48.22532" lon="-3.41269">
        <ele>210</ele>
        <time>2020-10-18T14:19:18.000Z</time>
      </trkpt>
      <trkpt lat="48.2253" lon="-3.41265">
        <ele>210.19999694824</ele>
        <time>2020-10-18T14:19:19.000Z</time>
      </trkpt>
      <trkpt lat="48.22528" lon="-3.41262">
        <ele>210.19999694824</ele>
        <time>2020-10-18T14:19:20.000Z</time>
      </trkpt>
      <trkpt lat="48.22525" lon="-3.41259">
        <ele>210</ele>
        <time>2020-10-18T14:19:21.000Z</time>
      </trkpt>
      <trkpt lat="48.22523" lon="-3.41255">
        <ele>210</ele>
        <time>2020-10-18T14:19:22.000Z</time>
      </trkpt>
      <trkpt lat="48.22521" lon="-3.41252">
        <ele>210</ele>
        <time>2020-10-18T14:19:23.000Z</time>
      </trkpt>
      <trkpt lat="48.22518" lon="-3.41249">
        <ele>210.19999694824</ele>
        <time>2020-10-18T14:19:24.000Z</time>
      </trkpt>
      <trkpt lat="48.22516" lon="-3.41245">
        <ele>210.19999694824</ele>
        <time>2020-10-18T14:19:25.000Z</time>
      </trkpt>
      <trkpt lat="48.22514" lon="-3.41242">
        <ele>210.39999389648</ele>
        <time>2020-10-18T14:19:26.000Z</time>
      </trkpt>
      <trkpt lat="48.22511" lon="-3.41238">
        <ele>210.39999389648</ele>
        <time>2020-10-18T14:19:27.000Z</time>
      </trkpt>
      <trkpt lat="48.22509" lon="-3.41235">
        <ele>210.60000610352</ele>
        <time>2020-10-18T14:19:28.000Z</time>
      </trkpt>
      <trkpt lat="48.22507" lon="-3.41232">
        <ele>210.60000610352</ele>
        <time>2020-10-18T14:19:29.000Z</time>
      </trkpt>
      <trkpt lat="48.22504" lon="-3.41228">
        <ele>210.80000305176</ele>
        <time>2020-10-18T14:19:30.000Z</time>
      </trkpt>
      <trkpt lat="48.22502" lon="-3.41225">
        <ele>210.80000305176</ele>
        <time>2020-10-18T14:19:31.000Z</time>
      </trkpt>
      <trkpt lat="48.225" lon="-3.41222">
        <ele>211</ele>
        <time>2020-10-18T14:19:32.000Z</time>
      </trkpt>
      <trkpt lat="48.22497" lon="-3.41218">
        <ele>211.19999694824</ele>
        <time>2020-10-18T14:19:33.000Z</time>
      </trkpt>
      <trkpt lat="48.22495" lon="-3.41215">
        <ele>211.19999694824</ele>
        <time>2020-10-18T14:19:34.000Z</time>
      </trkpt>
      <trkpt lat="48.22492" lon="-3.41211">
        <ele>211.39999389648</ele>
        <time>2020-10-18T14:19:35.000Z</time>
      </trkpt>
      <trkpt lat="48.2249" lon="-3.41208">
        <ele>211.39999389648</ele>
        <time>2020-10-18T14:19:36.000Z</time>
      </trkpt>
      <trkpt lat="48.22487" lon="-3.41204">
        <ele>211.60000610352</ele>
        <time>2020-10-18T14:19:37.000Z</time>
      </trkpt>
      <trkpt lat="48.22485" lon="-3.41201">
        <ele>211.60000610352</ele>
        <time>2020-10-18T14:19:38.000Z</time>
      </trkpt>
      <trkpt lat="48.22482" lon="-3.41197">
        <ele>211.60000610352</ele>
        <time>2020-10-18T14:19:39.000Z</time>
      </trkpt>
      <trkpt lat="48.2248" lon="-3.41193">
        <ele>211.39999389648</ele>
        <time>2020-10-18T14:19:40.000Z</time>
      </trkpt>
      <trkpt lat="48.22478" lon="-3.41189">
        <ele>211.39999389648</ele>
        <time>2020-10-18T14:19:41.000Z</time>
      </trkpt>
      <trkpt lat="48.22475" lon="-3.41185">
        <ele>211.39999389648</ele>
        <time>2020-10-18T14:19:42.000Z</time>
      </trkpt>
      <trkpt lat="48.22473" lon="-3.41182">
        <ele>211.39999389648</ele>
        <time>2020-10-18T14:19:43.000Z</time>
      </trkpt>
      <trkpt lat="48.2247" lon="-3.41178">
        <ele>211.39999389648</ele>
        <time>2020-10-18T14:19:44.000Z</time>
      </trkpt>
      <trkpt lat="48.22467" lon="-3.41174">
        <ele>211.60000610352</ele>
        <time>2020-10-18T14:19:45.000Z</time>
      </trkpt>
      <trkpt lat="48.22465" lon="-3.4117">
        <ele>211.60000610352</ele>
        <time>2020-10-18T14:19:46.000Z</time>
      </trkpt>
      <trkpt lat="48.22462" lon="-3.41166">
        <ele>211.80000305176</ele>
        <time>2020-10-18T14:19:47.000Z</time>
      </trkpt>
      <trkpt lat="48.2246" lon="-3.41162">
        <ele>211.80000305176</ele>
        <time>2020-10-18T14:19:48.000Z</time>
      </trkpt>
      <trkpt lat="48.22458" lon="-3.41158">
        <ele>212</ele>
        <time>2020-10-18T14:19:49.000Z</time>
      </trkpt>
      <trkpt lat="48.22455" lon="-3.41154">
        <ele>212</ele>
        <time>2020-10-18T14:19:50.000Z</time>
      </trkpt>
      <trkpt lat="48.22453" lon="-3.4115">
        <ele>212</ele>
        <time>2020-10-18T14:19:51.000Z</time>
      </trkpt>
      <trkpt lat="48.22448" lon="-3.41142">
        <ele>211.80000305176</ele>
        <time>2020-10-18T14:19:52.000Z</time>
      </trkpt>
      <trkpt lat="48.22448" lon="-3.41142">
        <ele>211.80000305176</ele>
        <time>2020-10-18T14:19:53.000Z</time>
      </trkpt>
      <trkpt lat="48.22446" lon="-3.41138">
        <ele>211.80000305176</ele>
        <time>2020-10-18T14:19:54.000Z</time>
      </trkpt>
      <trkpt lat="48.22443" lon="-3.41134">
        <ele>211.80000305176</ele>
        <time>2020-10-18T14:19:55.000Z</time>
      </trkpt>
      <trkpt lat="48.22441" lon="-3.41129">
        <ele>211.60000610352</ele>
        <time>2020-10-18T14:19:56.000Z</time>
      </trkpt>
      <trkpt lat="48.22438" lon="-3.41124">
        <ele>211.60000610352</ele>
        <time>2020-10-18T14:19:57.000Z</time>
      </trkpt>
      <trkpt lat="48.22435" lon="-3.41119">
        <ele>211.60000610352</ele>
        <time>2020-10-18T14:19:58.000Z</time>
      </trkpt>
      <trkpt lat="48.22433" lon="-3.41115">
        <ele>211.39999389648</ele>
        <time>2020-10-18T14:19:59.000Z</time>
      </trkpt>
      <trkpt lat="48.2243" lon="-3.4111">
        <ele>211.39999389648</ele>
        <time>2020-10-18T14:20:00.000Z</time>
      </trkpt>
      <trkpt lat="48.22428" lon="-3.41105">
        <ele>211.39999389648</ele>
        <time>2020-10-18T14:20:01.000Z</time>
      </trkpt>
      <trkpt lat="48.22425" lon="-3.41101">
        <ele>211.39999389648</ele>
        <time>2020-10-18T14:20:02.000Z</time>
      </trkpt>
      <trkpt lat="48.2242" lon="-3.41091">
        <ele>211.60000610352</ele>
        <time>2020-10-18T14:20:03.000Z</time>
      </trkpt>
      <trkpt lat="48.2242" lon="-3.41091">
        <ele>211.60000610352</ele>
        <time>2020-10-18T14:20:04.000Z</time>
      </trkpt>
      <trkpt lat="48.22417" lon="-3.41086">
        <ele>211.80000305176</ele>
        <time>2020-10-18T14:20:05.000Z</time>
      </trkpt>
      <trkpt lat="48.22414" lon="-3.41081">
        <ele>211.80000305176</ele>
        <time>2020-10-18T14:20:06.000Z</time>
      </trkpt>
      <trkpt lat="48.22412" lon="-3.41076">
        <ele>212</ele>
        <time>2020-10-18T14:20:07.000Z</time>
      </trkpt>
      <trkpt lat="48.22409" lon="-3.41071">
        <ele>212.19999694824</ele>
        <time>2020-10-18T14:20:08.000Z</time>
      </trkpt>
      <trkpt lat="48.22407" lon="-3.41066">
        <ele>212.39999389648</ele>
        <time>2020-10-18T14:20:09.000Z</time>
      </trkpt>
      <trkpt lat="48.22404" lon="-3.41061">
        <ele>212.39999389648</ele>
        <time>2020-10-18T14:20:10.000Z</time>
      </trkpt>
      <trkpt lat="48.22401" lon="-3.41056">
        <ele>212.60000610352</ele>
        <time>2020-10-18T14:20:11.000Z</time>
      </trkpt>
      <trkpt lat="48.22399" lon="-3.41051">
        <ele>212.80000305176</ele>
        <time>2020-10-18T14:20:12.000Z</time>
      </trkpt>
      <trkpt lat="48.22396" lon="-3.41046">
        <ele>213</ele>
        <time>2020-10-18T14:20:13.000Z</time>
      </trkpt>
      <trkpt lat="48.22393" lon="-3.4104">
        <ele>213</ele>
        <time>2020-10-18T14:20:14.000Z</time>
      </trkpt>
      <trkpt lat="48.2239" lon="-3.41035">
        <ele>213</ele>
        <time>2020-10-18T14:20:15.000Z</time>
      </trkpt>
      <trkpt lat="48.22388" lon="-3.4103">
        <ele>213.19999694824</ele>
        <time>2020-10-18T14:20:16.000Z</time>
      </trkpt>
      <trkpt lat="48.22385" lon="-3.41024">
        <ele>213.19999694824</ele>
        <time>2020-10-18T14:20:17.000Z</time>
      </trkpt>
      <trkpt lat="48.22382" lon="-3.41019">
        <ele>213.39999389648</ele>
        <time>2020-10-18T14:20:18.000Z</time>
      </trkpt>
      <trkpt lat="48.22379" lon="-3.41013">
        <ele>213.39999389648</ele>
        <time>2020-10-18T14:20:19.000Z</time>
      </trkpt>
      <trkpt lat="48.22376" lon="-3.41008">
        <ele>213.39999389648</ele>
        <time>2020-10-18T14:20:20.000Z</time>
      </trkpt>
      <trkpt lat="48.22373" lon="-3.41002">
        <ele>213.60000610352</ele>
        <time>2020-10-18T14:20:21.000Z</time>
      </trkpt>
      <trkpt lat="48.2237" lon="-3.40997">
        <ele>213.60000610352</ele>
        <time>2020-10-18T14:20:22.000Z</time>
      </trkpt>
      <trkpt lat="48.22367" lon="-3.40992">
        <ele>213.60000610352</ele>
        <time>2020-10-18T14:20:23.000Z</time>
      </trkpt>
      <trkpt lat="48.22364" lon="-3.40987">
        <ele>213.60000610352</ele>
        <time>2020-10-18T14:20:24.000Z</time>
      </trkpt>
      <trkpt lat="48.22362" lon="-3.40981">
        <ele>213.39999389648</ele>
        <time>2020-10-18T14:20:25.000Z</time>
      </trkpt>
      <trkpt lat="48.22359" lon="-3.40976">
        <ele>213.19999694824</ele>
        <time>2020-10-18T14:20:26.000Z</time>
      </trkpt>
      <trkpt lat="48.22356" lon="-3.40971">
        <ele>213.19999694824</ele>
        <time>2020-10-18T14:20:27.000Z</time>
      </trkpt>
      <trkpt lat="48.22354" lon="-3.40965">
        <ele>213</ele>
        <time>2020-10-18T14:20:28.000Z</time>
      </trkpt>
      <trkpt lat="48.22351" lon="-3.4096">
        <ele>212.80000305176</ele>
        <time>2020-10-18T14:20:29.000Z</time>
      </trkpt>
      <trkpt lat="48.22348" lon="-3.40955">
        <ele>212.80000305176</ele>
        <time>2020-10-18T14:20:30.000Z</time>
      </trkpt>
      <trkpt lat="48.22345" lon="-3.4095">
        <ele>212.60000610352</ele>
        <time>2020-10-18T14:20:31.000Z</time>
      </trkpt>
      <trkpt lat="48.22342" lon="-3.40945">
        <ele>212.80000305176</ele>
        <time>2020-10-18T14:20:32.000Z</time>
      </trkpt>
      <trkpt lat="48.22339" lon="-3.4094">
        <ele>212.80000305176</ele>
        <time>2020-10-18T14:20:33.000Z</time>
      </trkpt>
      <trkpt lat="48.22337" lon="-3.40934">
        <ele>212.80000305176</ele>
        <time>2020-10-18T14:20:34.000Z</time>
      </trkpt>
      <trkpt lat="48.22334" lon="-3.4093">
        <ele>212.80000305176</ele>
        <time>2020-10-18T14:20:35.000Z</time>
      </trkpt>
      <trkpt lat="48.22331" lon="-3.40924">
        <ele>213</ele>
        <time>2020-10-18T14:20:36.000Z</time>
      </trkpt>
      <trkpt lat="48.22329" lon="-3.40919">
        <ele>213.19999694824</ele>
        <time>2020-10-18T14:20:37.000Z</time>
      </trkpt>
      <trkpt lat="48.22326" lon="-3.40914">
        <ele>213.39999389648</ele>
        <time>2020-10-18T14:20:38.000Z</time>
      </trkpt>
      <trkpt lat="48.22323" lon="-3.40909">
        <ele>213.60000610352</ele>
        <time>2020-10-18T14:20:39.000Z</time>
      </trkpt>
      <trkpt lat="48.22321" lon="-3.40904">
        <ele>213.80000305176</ele>
        <time>2020-10-18T14:20:40.000Z</time>
      </trkpt>
      <trkpt lat="48.22318" lon="-3.40899">
        <ele>214</ele>
        <time>2020-10-18T14:20:41.000Z</time>
      </trkpt>
      <trkpt lat="48.22315" lon="-3.40894">
        <ele>214.19999694824</ele>
        <time>2020-10-18T14:20:42.000Z</time>
      </trkpt>
      <trkpt lat="48.22313" lon="-3.40889">
        <ele>214.39999389648</ele>
        <time>2020-10-18T14:20:43.000Z</time>
      </trkpt>
      <trkpt lat="48.2231" lon="-3.40884">
        <ele>214.60000610352</ele>
        <time>2020-10-18T14:20:44.000Z</time>
      </trkpt>
      <trkpt lat="48.22307" lon="-3.40879">
        <ele>214.80000305176</ele>
        <time>2020-10-18T14:20:45.000Z</time>
      </trkpt>
      <trkpt lat="48.22305" lon="-3.40874">
        <ele>215</ele>
        <time>2020-10-18T14:20:46.000Z</time>
      </trkpt>
      <trkpt lat="48.22302" lon="-3.40869">
        <ele>215.19999694824</ele>
        <time>2020-10-18T14:20:47.000Z</time>
      </trkpt>
      <trkpt lat="48.22299" lon="-3.40864">
        <ele>215.39999389648</ele>
        <time>2020-10-18T14:20:48.000Z</time>
      </trkpt>
      <trkpt lat="48.22297" lon="-3.40859">
        <ele>215.39999389648</ele>
        <time>2020-10-18T14:20:49.000Z</time>
      </trkpt>
      <trkpt lat="48.22294" lon="-3.40854">
        <ele>215.60000610352</ele>
        <time>2020-10-18T14:20:50.000Z</time>
      </trkpt>
      <trkpt lat="48.22292" lon="-3.4085">
        <ele>215.80000305176</ele>
        <time>2020-10-18T14:20:51.000Z</time>
      </trkpt>
      <trkpt lat="48.22289" lon="-3.40845">
        <ele>216</ele>
        <time>2020-10-18T14:20:52.000Z</time>
      </trkpt>
      <trkpt lat="48.22287" lon="-3.4084">
        <ele>216.39999389648</ele>
        <time>2020-10-18T14:20:53.000Z</time>
      </trkpt>
      <trkpt lat="48.22285" lon="-3.40836">
        <ele>216.60000610352</ele>
        <time>2020-10-18T14:20:54.000Z</time>
      </trkpt>
      <trkpt lat="48.22282" lon="-3.40831">
        <ele>216.80000305176</ele>
        <time>2020-10-18T14:20:55.000Z</time>
      </trkpt>
      <trkpt lat="48.2228" lon="-3.40827">
        <ele>216.80000305176</ele>
        <time>2020-10-18T14:20:56.000Z</time>
      </trkpt>
      <trkpt lat="48.22277" lon="-3.40822">
        <ele>217</ele>
        <time>2020-10-18T14:20:57.000Z</time>
      </trkpt>
      <trkpt lat="48.22275" lon="-3.40818">
        <ele>217</ele>
        <time>2020-10-18T14:20:58.000Z</time>
      </trkpt>
      <trkpt lat="48.22272" lon="-3.40813">
        <ele>217</ele>
        <time>2020-10-18T14:20:59.000Z</time>
      </trkpt>
      <trkpt lat="48.2227" lon="-3.40808">
        <ele>217.19999694824</ele>
        <time>2020-10-18T14:21:00.000Z</time>
      </trkpt>
      <trkpt lat="48.22267" lon="-3.40804">
        <ele>217.19999694824</ele>
        <time>2020-10-18T14:21:01.000Z</time>
      </trkpt>
      <trkpt lat="48.22265" lon="-3.40799">
        <ele>217.19999694824</ele>
        <time>2020-10-18T14:21:02.000Z</time>
      </trkpt>
      <trkpt lat="48.22263" lon="-3.40795">
        <ele>217.39999389648</ele>
        <time>2020-10-18T14:21:03.000Z</time>
      </trkpt>
      <trkpt lat="48.2226" lon="-3.4079">
        <ele>217.60000610352</ele>
        <time>2020-10-18T14:21:04.000Z</time>
      </trkpt>
      <trkpt lat="48.22258" lon="-3.40786">
        <ele>218</ele>
        <time>2020-10-18T14:21:05.000Z</time>
      </trkpt>
      <trkpt lat="48.22256" lon="-3.40782">
        <ele>218.39999389648</ele>
        <time>2020-10-18T14:21:06.000Z</time>
      </trkpt>
      <trkpt lat="48.22253" lon="-3.40777">
        <ele>218.80000305176</ele>
        <time>2020-10-18T14:21:07.000Z</time>
      </trkpt>
      <trkpt lat="48.22251" lon="-3.40773">
        <ele>219</ele>
        <time>2020-10-18T14:21:08.000Z</time>
      </trkpt>
      <trkpt lat="48.22248" lon="-3.40768">
        <ele>219.19999694824</ele>
        <time>2020-10-18T14:21:09.000Z</time>
      </trkpt>
      <trkpt lat="48.22246" lon="-3.40764">
        <ele>219.39999389648</ele>
        <time>2020-10-18T14:21:10.000Z</time>
      </trkpt>
      <trkpt lat="48.22244" lon="-3.4076">
        <ele>219.80000305176</ele>
        <time>2020-10-18T14:21:11.000Z</time>
      </trkpt>
      <trkpt lat="48.22242" lon="-3.40755">
        <ele>220.19999694824</ele>
        <time>2020-10-18T14:21:12.000Z</time>
      </trkpt>
      <trkpt lat="48.2224" lon="-3.40751">
        <ele>220.60000610352</ele>
        <time>2020-10-18T14:21:13.000Z</time>
      </trkpt>
      <trkpt lat="48.22237" lon="-3.40747">
        <ele>220.80000305176</ele>
        <time>2020-10-18T14:21:14.000Z</time>
      </trkpt>
      <trkpt lat="48.22235" lon="-3.40743">
        <ele>221.19999694824</ele>
        <time>2020-10-18T14:21:15.000Z</time>
      </trkpt>
      <trkpt lat="48.22233" lon="-3.40739">
        <ele>221.60000610352</ele>
        <time>2020-10-18T14:21:16.000Z</time>
      </trkpt>
      <trkpt lat="48.22229" lon="-3.4073">
        <ele>222.19999694824</ele>
        <time>2020-10-18T14:21:17.000Z</time>
      </trkpt>
      <trkpt lat="48.22229" lon="-3.4073">
        <ele>222.19999694824</ele>
        <time>2020-10-18T14:21:18.000Z</time>
      </trkpt>
      <trkpt lat="48.22226" lon="-3.40726">
        <ele>222.60000610352</ele>
        <time>2020-10-18T14:21:19.000Z</time>
      </trkpt>
      <trkpt lat="48.22224" lon="-3.40722">
        <ele>223</ele>
        <time>2020-10-18T14:21:20.000Z</time>
      </trkpt>
      <trkpt lat="48.22221" lon="-3.40718">
        <ele>223.19999694824</ele>
        <time>2020-10-18T14:21:21.000Z</time>
      </trkpt>
      <trkpt lat="48.22219" lon="-3.40714">
        <ele>223.19999694824</ele>
        <time>2020-10-18T14:21:22.000Z</time>
      </trkpt>
      <trkpt lat="48.22217" lon="-3.4071">
        <ele>223.39999389648</ele>
        <time>2020-10-18T14:21:23.000Z</time>
      </trkpt>
      <trkpt lat="48.22215" lon="-3.40705">
        <ele>223.60000610352</ele>
        <time>2020-10-18T14:21:24.000Z</time>
      </trkpt>
      <trkpt lat="48.22213" lon="-3.40701">
        <ele>223.60000610352</ele>
        <time>2020-10-18T14:21:25.000Z</time>
      </trkpt>
      <trkpt lat="48.2221" lon="-3.40697">
        <ele>223.80000305176</ele>
        <time>2020-10-18T14:21:26.000Z</time>
      </trkpt>
      <trkpt lat="48.22208" lon="-3.40692">
        <ele>223.80000305176</ele>
        <time>2020-10-18T14:21:27.000Z</time>
      </trkpt>
      <trkpt lat="48.22206" lon="-3.40688">
        <ele>224</ele>
        <time>2020-10-18T14:21:28.000Z</time>
      </trkpt>
      <trkpt lat="48.22204" lon="-3.40684">
        <ele>224</ele>
        <time>2020-10-18T14:21:29.000Z</time>
      </trkpt>
      <trkpt lat="48.22201" lon="-3.40679">
        <ele>224.39999389648</ele>
        <time>2020-10-18T14:21:30.000Z</time>
      </trkpt>
      <trkpt lat="48.22199" lon="-3.40675">
        <ele>224.60000610352</ele>
        <time>2020-10-18T14:21:31.000Z</time>
      </trkpt>
      <trkpt lat="48.22197" lon="-3.40672">
        <ele>224.80000305176</ele>
        <time>2020-10-18T14:21:32.000Z</time>
      </trkpt>
      <trkpt lat="48.22195" lon="-3.40668">
        <ele>225.19999694824</ele>
        <time>2020-10-18T14:21:33.000Z</time>
      </trkpt>
      <trkpt lat="48.22193" lon="-3.40665">
        <ele>225.39999389648</ele>
        <time>2020-10-18T14:21:34.000Z</time>
      </trkpt>
      <trkpt lat="48.22191" lon="-3.40661">
        <ele>225.39999389648</ele>
        <time>2020-10-18T14:21:35.000Z</time>
      </trkpt>
      <trkpt lat="48.2219" lon="-3.40658">
        <ele>225.39999389648</ele>
        <time>2020-10-18T14:21:36.000Z</time>
      </trkpt>
      <trkpt lat="48.22188" lon="-3.40654">
        <ele>225.60000610352</ele>
        <time>2020-10-18T14:21:37.000Z</time>
      </trkpt>
      <trkpt lat="48.22186" lon="-3.40651">
        <ele>225.60000610352</ele>
        <time>2020-10-18T14:21:38.000Z</time>
      </trkpt>
      <trkpt lat="48.22185" lon="-3.40647">
        <ele>225.60000610352</ele>
        <time>2020-10-18T14:21:39.000Z</time>
      </trkpt>
      <trkpt lat="48.22183" lon="-3.40644">
        <ele>225.80000305176</ele>
        <time>2020-10-18T14:21:40.000Z</time>
      </trkpt>
      <trkpt lat="48.22182" lon="-3.40641">
        <ele>225.80000305176</ele>
        <time>2020-10-18T14:21:41.000Z</time>
      </trkpt>
      <trkpt lat="48.2218" lon="-3.40638">
        <ele>225.80000305176</ele>
        <time>2020-10-18T14:21:42.000Z</time>
      </trkpt>
      <trkpt lat="48.22177" lon="-3.40632">
        <ele>226</ele>
        <time>2020-10-18T14:21:43.000Z</time>
      </trkpt>
      <trkpt lat="48.22177" lon="-3.40632">
        <ele>226</ele>
        <time>2020-10-18T14:21:44.000Z</time>
      </trkpt>
      <trkpt lat="48.22175" lon="-3.40629">
        <ele>226</ele>
        <time>2020-10-18T14:21:45.000Z</time>
      </trkpt>
      <trkpt lat="48.22174" lon="-3.40626">
        <ele>226.19999694824</ele>
        <time>2020-10-18T14:21:46.000Z</time>
      </trkpt>
      <trkpt lat="48.22171" lon="-3.4062">
        <ele>226.39999389648</ele>
        <time>2020-10-18T14:21:47.000Z</time>
      </trkpt>
      <trkpt lat="48.22171" lon="-3.4062">
        <ele>226.39999389648</ele>
        <time>2020-10-18T14:21:48.000Z</time>
      </trkpt>
      <trkpt lat="48.2217" lon="-3.40617">
        <ele>226.39999389648</ele>
        <time>2020-10-18T14:21:49.000Z</time>
      </trkpt>
      <trkpt lat="48.22169" lon="-3.40614">
        <ele>226.39999389648</ele>
        <time>2020-10-18T14:21:50.000Z</time>
      </trkpt>
      <trkpt lat="48.22167" lon="-3.40612">
        <ele>226.60000610352</ele>
        <time>2020-10-18T14:21:51.000Z</time>
      </trkpt>
      <trkpt lat="48.22166" lon="-3.40609">
        <ele>226.80000305176</ele>
        <time>2020-10-18T14:21:52.000Z</time>
      </trkpt>
      <trkpt lat="48.22164" lon="-3.40607">
        <ele>226.80000305176</ele>
        <time>2020-10-18T14:21:53.000Z</time>
      </trkpt>
      <trkpt lat="48.22162" lon="-3.40604">
        <ele>227</ele>
        <time>2020-10-18T14:21:54.000Z</time>
      </trkpt>
      <trkpt lat="48.22161" lon="-3.40602">
        <ele>227.19999694824</ele>
        <time>2020-10-18T14:21:55.000Z</time>
      </trkpt>
      <trkpt lat="48.22159" lon="-3.40599">
        <ele>227.39999389648</ele>
        <time>2020-10-18T14:21:56.000Z</time>
      </trkpt>
      <trkpt lat="48.22158" lon="-3.40597">
        <ele>227.39999389648</ele>
        <time>2020-10-18T14:21:57.000Z</time>
      </trkpt>
      <trkpt lat="48.22157" lon="-3.40594">
        <ele>227.60000610352</ele>
        <time>2020-10-18T14:21:58.000Z</time>
      </trkpt>
      <trkpt lat="48.22155" lon="-3.40591">
        <ele>227.80000305176</ele>
        <time>2020-10-18T14:21:59.000Z</time>
      </trkpt>
      <trkpt lat="48.22154" lon="-3.40589">
        <ele>228</ele>
        <time>2020-10-18T14:22:00.000Z</time>
      </trkpt>
      <trkpt lat="48.22153" lon="-3.40586">
        <ele>228.19999694824</ele>
        <time>2020-10-18T14:22:01.000Z</time>
      </trkpt>
      <trkpt lat="48.22151" lon="-3.40583">
        <ele>228.39999389648</ele>
        <time>2020-10-18T14:22:02.000Z</time>
      </trkpt>
      <trkpt lat="48.2215" lon="-3.40581">
        <ele>228.39999389648</ele>
        <time>2020-10-18T14:22:03.000Z</time>
      </trkpt>
      <trkpt lat="48.22148" lon="-3.40578">
        <ele>228.60000610352</ele>
        <time>2020-10-18T14:22:04.000Z</time>
      </trkpt>
      <trkpt lat="48.22147" lon="-3.40576">
        <ele>228.80000305176</ele>
        <time>2020-10-18T14:22:05.000Z</time>
      </trkpt>
      <trkpt lat="48.22146" lon="-3.40574">
        <ele>229</ele>
        <time>2020-10-18T14:22:06.000Z</time>
      </trkpt>
      <trkpt lat="48.22145" lon="-3.40571">
        <ele>229</ele>
        <time>2020-10-18T14:22:07.000Z</time>
      </trkpt>
      <trkpt lat="48.22143" lon="-3.40569">
        <ele>229.19999694824</ele>
        <time>2020-10-18T14:22:08.000Z</time>
      </trkpt>
      <trkpt lat="48.22142" lon="-3.40566">
        <ele>229.39999389648</ele>
        <time>2020-10-18T14:22:09.000Z</time>
      </trkpt>
      <trkpt lat="48.22141" lon="-3.40564">
        <ele>229.60000610352</ele>
        <time>2020-10-18T14:22:10.000Z</time>
      </trkpt>
      <trkpt lat="48.2214" lon="-3.40562">
        <ele>229.80000305176</ele>
        <time>2020-10-18T14:22:11.000Z</time>
      </trkpt>
      <trkpt lat="48.22138" lon="-3.4056">
        <ele>229.80000305176</ele>
        <time>2020-10-18T14:22:12.000Z</time>
      </trkpt>
      <trkpt lat="48.22137" lon="-3.40557">
        <ele>230</ele>
        <time>2020-10-18T14:22:13.000Z</time>
      </trkpt>
      <trkpt lat="48.22136" lon="-3.40555">
        <ele>230.19999694824</ele>
        <time>2020-10-18T14:22:14.000Z</time>
      </trkpt>
      <trkpt lat="48.22134" lon="-3.40554">
        <ele>230.39999389648</ele>
        <time>2020-10-18T14:22:15.000Z</time>
      </trkpt>
      <trkpt lat="48.22133" lon="-3.40552">
        <ele>230.39999389648</ele>
        <time>2020-10-18T14:22:16.000Z</time>
      </trkpt>
      <trkpt lat="48.22132" lon="-3.4055">
        <ele>230.60000610352</ele>
        <time>2020-10-18T14:22:17.000Z</time>
      </trkpt>
      <trkpt lat="48.22131" lon="-3.40548">
        <ele>230.80000305176</ele>
        <time>2020-10-18T14:22:18.000Z</time>
      </trkpt>
      <trkpt lat="48.2213" lon="-3.40546">
        <ele>230.80000305176</ele>
        <time>2020-10-18T14:22:19.000Z</time>
      </trkpt>
      <trkpt lat="48.22128" lon="-3.40545">
        <ele>231</ele>
        <time>2020-10-18T14:22:20.000Z</time>
      </trkpt>
      <trkpt lat="48.22127" lon="-3.40543">
        <ele>231.19999694824</ele>
        <time>2020-10-18T14:22:21.000Z</time>
      </trkpt>
      <trkpt lat="48.22126" lon="-3.40541">
        <ele>231.39999389648</ele>
        <time>2020-10-18T14:22:22.000Z</time>
      </trkpt>
      <trkpt lat="48.22124" lon="-3.40539">
        <ele>231.60000610352</ele>
        <time>2020-10-18T14:22:23.000Z</time>
      </trkpt>
      <trkpt lat="48.22123" lon="-3.40537">
        <ele>231.60000610352</ele>
        <time>2020-10-18T14:22:24.000Z</time>
      </trkpt>
      <trkpt lat="48.22122" lon="-3.40535">
        <ele>231.80000305176</ele>
        <time>2020-10-18T14:22:25.000Z</time>
      </trkpt>
      <trkpt lat="48.22121" lon="-3.40533">
        <ele>232</ele>
        <time>2020-10-18T14:22:26.000Z</time>
      </trkpt>
      <trkpt lat="48.22119" lon="-3.40531">
        <ele>232.19999694824</ele>
        <time>2020-10-18T14:22:27.000Z</time>
      </trkpt>
      <trkpt lat="48.22118" lon="-3.40529">
        <ele>232.19999694824</ele>
        <time>2020-10-18T14:22:28.000Z</time>
      </trkpt>
      <trkpt lat="48.22117" lon="-3.40528">
        <ele>232.39999389648</ele>
        <time>2020-10-18T14:22:29.000Z</time>
      </trkpt>
      <trkpt lat="48.22116" lon="-3.40526">
        <ele>232.60000610352</ele>
        <time>2020-10-18T14:22:30.000Z</time>
      </trkpt>
      <trkpt lat="48.22114" lon="-3.40524">
        <ele>232.80000305176</ele>
        <time>2020-10-18T14:22:31.000Z</time>
      </trkpt>
      <trkpt lat="48.22113" lon="-3.40522">
        <ele>232.80000305176</ele>
        <time>2020-10-18T14:22:32.000Z</time>
      </trkpt>
      <trkpt lat="48.22112" lon="-3.4052">
        <ele>233</ele>
        <time>2020-10-18T14:22:33.000Z</time>
      </trkpt>
      <trkpt lat="48.2211" lon="-3.40516">
        <ele>233.19999694824</ele>
        <time>2020-10-18T14:22:34.000Z</time>
      </trkpt>
      <trkpt lat="48.2211" lon="-3.40516">
        <ele>233.19999694824</ele>
        <time>2020-10-18T14:22:35.000Z</time>
      </trkpt>
      <trkpt lat="48.22109" lon="-3.40515">
        <ele>233.39999389648</ele>
        <time>2020-10-18T14:22:36.000Z</time>
      </trkpt>
      <trkpt lat="48.22107" lon="-3.40513">
        <ele>233.60000610352</ele>
        <time>2020-10-18T14:22:37.000Z</time>
      </trkpt>
      <trkpt lat="48.22106" lon="-3.40511">
        <ele>233.80000305176</ele>
        <time>2020-10-18T14:22:38.000Z</time>
      </trkpt>
      <trkpt lat="48.22104" lon="-3.40509">
        <ele>234</ele>
        <time>2020-10-18T14:22:39.000Z</time>
      </trkpt>
      <trkpt lat="48.22103" lon="-3.40507">
        <ele>234.19999694824</ele>
        <time>2020-10-18T14:22:40.000Z</time>
      </trkpt>
      <trkpt lat="48.22101" lon="-3.40505">
        <ele>234.39999389648</ele>
        <time>2020-10-18T14:22:41.000Z</time>
      </trkpt>
      <trkpt lat="48.221" lon="-3.40504">
        <ele>234.60000610352</ele>
        <time>2020-10-18T14:22:42.000Z</time>
      </trkpt>
      <trkpt lat="48.22099" lon="-3.40502">
        <ele>234.80000305176</ele>
        <time>2020-10-18T14:22:43.000Z</time>
      </trkpt>
      <trkpt lat="48.22098" lon="-3.40501">
        <ele>235</ele>
        <time>2020-10-18T14:22:44.000Z</time>
      </trkpt>
      <trkpt lat="48.22097" lon="-3.40499">
        <ele>235.19999694824</ele>
        <time>2020-10-18T14:22:45.000Z</time>
      </trkpt>
      <trkpt lat="48.22095" lon="-3.40497">
        <ele>235.39999389648</ele>
        <time>2020-10-18T14:22:46.000Z</time>
      </trkpt>
      <trkpt lat="48.22094" lon="-3.40495">
        <ele>235.60000610352</ele>
        <time>2020-10-18T14:22:47.000Z</time>
      </trkpt>
      <trkpt lat="48.22093" lon="-3.40494">
        <ele>235.60000610352</ele>
        <time>2020-10-18T14:22:48.000Z</time>
      </trkpt>
      <trkpt lat="48.22091" lon="-3.40492">
        <ele>235.60000610352</ele>
        <time>2020-10-18T14:22:49.000Z</time>
      </trkpt>
      <trkpt lat="48.22088" lon="-3.40489">
        <ele>235.80000305176</ele>
        <time>2020-10-18T14:22:50.000Z</time>
      </trkpt>
      <trkpt lat="48.22088" lon="-3.40489">
        <ele>235.80000305176</ele>
        <time>2020-10-18T14:22:51.000Z</time>
      </trkpt>
      <trkpt lat="48.22086" lon="-3.40488">
        <ele>235.80000305176</ele>
        <time>2020-10-18T14:22:52.000Z</time>
      </trkpt>
      <trkpt lat="48.22085" lon="-3.40487">
        <ele>236</ele>
        <time>2020-10-18T14:22:53.000Z</time>
      </trkpt>
      <trkpt lat="48.22083" lon="-3.40486">
        <ele>236</ele>
        <time>2020-10-18T14:22:54.000Z</time>
      </trkpt>
      <trkpt lat="48.22082" lon="-3.40486">
        <ele>236</ele>
        <time>2020-10-18T14:22:55.000Z</time>
      </trkpt>
      <trkpt lat="48.22081" lon="-3.40486">
        <ele>236</ele>
        <time>2020-10-18T14:22:56.000Z</time>
      </trkpt>
      <trkpt lat="48.2208" lon="-3.40486">
        <ele>236</ele>
        <time>2020-10-18T14:22:57.000Z</time>
      </trkpt>
      <trkpt lat="48.22079" lon="-3.40486">
        <ele>236.19999694824</ele>
        <time>2020-10-18T14:22:58.000Z</time>
      </trkpt>
      <trkpt lat="48.22078" lon="-3.40486">
        <ele>236.19999694824</ele>
        <time>2020-10-18T14:22:59.000Z</time>
      </trkpt>
      <trkpt lat="48.22077" lon="-3.40486">
        <ele>236.19999694824</ele>
        <time>2020-10-18T14:23:00.000Z</time>
      </trkpt>
      <trkpt lat="48.22077" lon="-3.40486">
        <ele>236.19999694824</ele>
        <time>2020-10-18T14:23:01.000Z</time>
      </trkpt>
      <trkpt lat="48.22075" lon="-3.40486">
        <ele>236.19999694824</ele>
        <time>2020-10-18T14:23:02.000Z</time>
      </trkpt>
      <trkpt lat="48.22073" lon="-3.40486">
        <ele>236.19999694824</ele>
        <time>2020-10-18T14:23:03.000Z</time>
      </trkpt>
      <trkpt lat="48.2207" lon="-3.40485">
        <ele>236.39999389648</ele>
        <time>2020-10-18T14:23:04.000Z</time>
      </trkpt>
      <trkpt lat="48.22068" lon="-3.40484">
        <ele>236.39999389648</ele>
        <time>2020-10-18T14:23:05.000Z</time>
      </trkpt>
      <trkpt lat="48.22065" lon="-3.40483">
        <ele>236.39999389648</ele>
        <time>2020-10-18T14:23:06.000Z</time>
      </trkpt>
      <trkpt lat="48.22063" lon="-3.4048">
        <ele>236.60000610352</ele>
        <time>2020-10-18T14:23:07.000Z</time>
      </trkpt>
      <trkpt lat="48.22062" lon="-3.40477">
        <ele>236.80000305176</ele>
        <time>2020-10-18T14:23:08.000Z</time>
      </trkpt>
      <trkpt lat="48.22061" lon="-3.40473">
        <ele>236.80000305176</ele>
        <time>2020-10-18T14:23:09.000Z</time>
      </trkpt>
      <trkpt lat="48.22061" lon="-3.40469">
        <ele>237</ele>
        <time>2020-10-18T14:23:10.000Z</time>
      </trkpt>
      <trkpt lat="48.22061" lon="-3.40465">
        <ele>237</ele>
        <time>2020-10-18T14:23:11.000Z</time>
      </trkpt>
      <trkpt lat="48.22062" lon="-3.40461">
        <ele>237</ele>
        <time>2020-10-18T14:23:12.000Z</time>
      </trkpt>
      <trkpt lat="48.22063" lon="-3.40457">
        <ele>237</ele>
        <time>2020-10-18T14:23:13.000Z</time>
      </trkpt>
      <trkpt lat="48.22065" lon="-3.40453">
        <ele>237.19999694824</ele>
        <time>2020-10-18T14:23:14.000Z</time>
      </trkpt>
      <trkpt lat="48.22066" lon="-3.40449">
        <ele>237.19999694824</ele>
        <time>2020-10-18T14:23:15.000Z</time>
      </trkpt>
      <trkpt lat="48.22067" lon="-3.40444">
        <ele>237.19999694824</ele>
        <time>2020-10-18T14:23:16.000Z</time>
      </trkpt>
      <trkpt lat="48.22068" lon="-3.4044">
        <ele>237.19999694824</ele>
        <time>2020-10-18T14:23:17.000Z</time>
      </trkpt>
      <trkpt lat="48.22068" lon="-3.40436">
        <ele>237.19999694824</ele>
        <time>2020-10-18T14:23:18.000Z</time>
      </trkpt>
      <trkpt lat="48.22069" lon="-3.40432">
        <ele>237.39999389648</ele>
        <time>2020-10-18T14:23:19.000Z</time>
      </trkpt>
      <trkpt lat="48.22069" lon="-3.40428">
        <ele>237.39999389648</ele>
        <time>2020-10-18T14:23:20.000Z</time>
      </trkpt>
      <trkpt lat="48.2207" lon="-3.40423">
        <ele>237.39999389648</ele>
        <time>2020-10-18T14:23:21.000Z</time>
      </trkpt>
      <trkpt lat="48.2207" lon="-3.40418">
        <ele>237.39999389648</ele>
        <time>2020-10-18T14:23:22.000Z</time>
      </trkpt>
      <trkpt lat="48.22071" lon="-3.40412">
        <ele>237.19999694824</ele>
        <time>2020-10-18T14:23:23.000Z</time>
      </trkpt>
      <trkpt lat="48.22071" lon="-3.40407">
        <ele>237.19999694824</ele>
        <time>2020-10-18T14:23:24.000Z</time>
      </trkpt>
      <trkpt lat="48.22071" lon="-3.40402">
        <ele>237.19999694824</ele>
        <time>2020-10-18T14:23:25.000Z</time>
      </trkpt>
      <trkpt lat="48.22072" lon="-3.40396">
        <ele>237.19999694824</ele>
        <time>2020-10-18T14:23:26.000Z</time>
      </trkpt>
      <trkpt lat="48.22072" lon="-3.40391">
        <ele>237.19999694824</ele>
        <time>2020-10-18T14:23:27.000Z</time>
      </trkpt>
      <trkpt lat="48.22073" lon="-3.40385">
        <ele>237.19999694824</ele>
        <time>2020-10-18T14:23:28.000Z</time>
      </trkpt>
      <trkpt lat="48.22073" lon="-3.40379">
        <ele>237.19999694824</ele>
        <time>2020-10-18T14:23:29.000Z</time>
      </trkpt>
      <trkpt lat="48.22074" lon="-3.40373">
        <ele>237.19999694824</ele>
        <time>2020-10-18T14:23:30.000Z</time>
      </trkpt>
      <trkpt lat="48.22075" lon="-3.40367">
        <ele>237.19999694824</ele>
        <time>2020-10-18T14:23:31.000Z</time>
      </trkpt>
      <trkpt lat="48.22076" lon="-3.40361">
        <ele>237.39999389648</ele>
        <time>2020-10-18T14:23:32.000Z</time>
      </trkpt>
      <trkpt lat="48.22078" lon="-3.40355">
        <ele>237.39999389648</ele>
        <time>2020-10-18T14:23:33.000Z</time>
      </trkpt>
      <trkpt lat="48.22079" lon="-3.40349">
        <ele>237.39999389648</ele>
        <time>2020-10-18T14:23:34.000Z</time>
      </trkpt>
      <trkpt lat="48.2208" lon="-3.40342">
        <ele>237.60000610352</ele>
        <time>2020-10-18T14:23:35.000Z</time>
      </trkpt>
      <trkpt lat="48.22082" lon="-3.40336">
        <ele>237.60000610352</ele>
        <time>2020-10-18T14:23:36.000Z</time>
      </trkpt>
      <trkpt lat="48.22083" lon="-3.40329">
        <ele>237.80000305176</ele>
        <time>2020-10-18T14:23:37.000Z</time>
      </trkpt>
      <trkpt lat="48.22085" lon="-3.40322">
        <ele>237.80000305176</ele>
        <time>2020-10-18T14:23:38.000Z</time>
      </trkpt>
      <trkpt lat="48.22087" lon="-3.40315">
        <ele>238</ele>
        <time>2020-10-18T14:23:39.000Z</time>
      </trkpt>
      <trkpt lat="48.22089" lon="-3.40308">
        <ele>238.19999694824</ele>
        <time>2020-10-18T14:23:40.000Z</time>
      </trkpt>
      <trkpt lat="48.22091" lon="-3.40301">
        <ele>238.19999694824</ele>
        <time>2020-10-18T14:23:41.000Z</time>
      </trkpt>
      <trkpt lat="48.22093" lon="-3.40294">
        <ele>238.39999389648</ele>
        <time>2020-10-18T14:23:42.000Z</time>
      </trkpt>
      <trkpt lat="48.22095" lon="-3.40287">
        <ele>238.39999389648</ele>
        <time>2020-10-18T14:23:43.000Z</time>
      </trkpt>
      <trkpt lat="48.22098" lon="-3.4028">
        <ele>238.39999389648</ele>
        <time>2020-10-18T14:23:44.000Z</time>
      </trkpt>
      <trkpt lat="48.221" lon="-3.40273">
        <ele>238.39999389648</ele>
        <time>2020-10-18T14:23:45.000Z</time>
      </trkpt>
      <trkpt lat="48.22103" lon="-3.40265">
        <ele>238.39999389648</ele>
        <time>2020-10-18T14:23:46.000Z</time>
      </trkpt>
      <trkpt lat="48.22108" lon="-3.40251">
        <ele>238.60000610352</ele>
        <time>2020-10-18T14:23:47.000Z</time>
      </trkpt>
      <trkpt lat="48.22108" lon="-3.40251">
        <ele>238.60000610352</ele>
        <time>2020-10-18T14:23:48.000Z</time>
      </trkpt>
      <trkpt lat="48.22111" lon="-3.40243">
        <ele>238.60000610352</ele>
        <time>2020-10-18T14:23:49.000Z</time>
      </trkpt>
      <trkpt lat="48.22113" lon="-3.40235">
        <ele>238.60000610352</ele>
        <time>2020-10-18T14:23:50.000Z</time>
      </trkpt>
      <trkpt lat="48.22115" lon="-3.40227">
        <ele>238.39999389648</ele>
        <time>2020-10-18T14:23:51.000Z</time>
      </trkpt>
      <trkpt lat="48.22118" lon="-3.40219">
        <ele>238.39999389648</ele>
        <time>2020-10-18T14:23:52.000Z</time>
      </trkpt>
      <trkpt lat="48.2212" lon="-3.40211">
        <ele>238.39999389648</ele>
        <time>2020-10-18T14:23:53.000Z</time>
      </trkpt>
      <trkpt lat="48.22123" lon="-3.40203">
        <ele>238.39999389648</ele>
        <time>2020-10-18T14:23:54.000Z</time>
      </trkpt>
      <trkpt lat="48.22126" lon="-3.40196">
        <ele>238.39999389648</ele>
        <time>2020-10-18T14:23:55.000Z</time>
      </trkpt>
      <trkpt lat="48.22128" lon="-3.40188">
        <ele>238.39999389648</ele>
        <time>2020-10-18T14:23:56.000Z</time>
      </trkpt>
      <trkpt lat="48.2213" lon="-3.40181">
        <ele>238.39999389648</ele>
        <time>2020-10-18T14:23:57.000Z</time>
      </trkpt>
      <trkpt lat="48.22133" lon="-3.40173">
        <ele>238.19999694824</ele>
        <time>2020-10-18T14:23:58.000Z</time>
      </trkpt>
      <trkpt lat="48.22137" lon="-3.40167">
        <ele>238.19999694824</ele>
        <time>2020-10-18T14:23:59.000Z</time>
      </trkpt>
      <trkpt lat="48.2214" lon="-3.4016">
        <ele>238.19999694824</ele>
        <time>2020-10-18T14:24:00.000Z</time>
      </trkpt>
      <trkpt lat="48.22143" lon="-3.40154">
        <ele>238</ele>
        <time>2020-10-18T14:24:01.000Z</time>
      </trkpt>
      <trkpt lat="48.22149" lon="-3.40142">
        <ele>238</ele>
        <time>2020-10-18T14:24:02.000Z</time>
      </trkpt>
      <trkpt lat="48.22149" lon="-3.40142">
        <ele>238</ele>
        <time>2020-10-18T14:24:03.000Z</time>
      </trkpt>
      <trkpt lat="48.22152" lon="-3.40136">
        <ele>237.80000305176</ele>
        <time>2020-10-18T14:24:04.000Z</time>
      </trkpt>
      <trkpt lat="48.22155" lon="-3.40131">
        <ele>237.80000305176</ele>
        <time>2020-10-18T14:24:05.000Z</time>
      </trkpt>
      <trkpt lat="48.22157" lon="-3.40125">
        <ele>237.80000305176</ele>
        <time>2020-10-18T14:24:06.000Z</time>
      </trkpt>
      <trkpt lat="48.2216" lon="-3.4012">
        <ele>237.60000610352</ele>
        <time>2020-10-18T14:24:07.000Z</time>
      </trkpt>
      <trkpt lat="48.22163" lon="-3.40116">
        <ele>237.60000610352</ele>
        <time>2020-10-18T14:24:08.000Z</time>
      </trkpt>
      <trkpt lat="48.22165" lon="-3.40111">
        <ele>237.39999389648</ele>
        <time>2020-10-18T14:24:09.000Z</time>
      </trkpt>
      <trkpt lat="48.22168" lon="-3.40105">
        <ele>237.39999389648</ele>
        <time>2020-10-18T14:24:10.000Z</time>
      </trkpt>
      <trkpt lat="48.2217" lon="-3.401">
        <ele>237.39999389648</ele>
        <time>2020-10-18T14:24:11.000Z</time>
      </trkpt>
      <trkpt lat="48.22172" lon="-3.40094">
        <ele>237.39999389648</ele>
        <time>2020-10-18T14:24:12.000Z</time>
      </trkpt>
      <trkpt lat="48.22175" lon="-3.40088">
        <ele>237.60000610352</ele>
        <time>2020-10-18T14:24:13.000Z</time>
      </trkpt>
      <trkpt lat="48.22177" lon="-3.40082">
        <ele>237.60000610352</ele>
        <time>2020-10-18T14:24:14.000Z</time>
      </trkpt>
      <trkpt lat="48.22179" lon="-3.40076">
        <ele>237.80000305176</ele>
        <time>2020-10-18T14:24:15.000Z</time>
      </trkpt>
      <trkpt lat="48.22181" lon="-3.40069">
        <ele>238</ele>
        <time>2020-10-18T14:24:16.000Z</time>
      </trkpt>
      <trkpt lat="48.22183" lon="-3.40062">
        <ele>238.19999694824</ele>
        <time>2020-10-18T14:24:17.000Z</time>
      </trkpt>
      <trkpt lat="48.22185" lon="-3.40055">
        <ele>238.39999389648</ele>
        <time>2020-10-18T14:24:18.000Z</time>
      </trkpt>
      <trkpt lat="48.22186" lon="-3.40048">
        <ele>238.80000305176</ele>
        <time>2020-10-18T14:24:19.000Z</time>
      </trkpt>
      <trkpt lat="48.22188" lon="-3.40041">
        <ele>239</ele>
        <time>2020-10-18T14:24:20.000Z</time>
      </trkpt>
      <trkpt lat="48.2219" lon="-3.40035">
        <ele>239.19999694824</ele>
        <time>2020-10-18T14:24:21.000Z</time>
      </trkpt>
      <trkpt lat="48.22192" lon="-3.40028">
        <ele>239.39999389648</ele>
        <time>2020-10-18T14:24:22.000Z</time>
      </trkpt>
      <trkpt lat="48.22193" lon="-3.40022">
        <ele>239.60000610352</ele>
        <time>2020-10-18T14:24:23.000Z</time>
      </trkpt>
      <trkpt lat="48.22195" lon="-3.40015">
        <ele>239.80000305176</ele>
        <time>2020-10-18T14:24:24.000Z</time>
      </trkpt>
      <trkpt lat="48.22196" lon="-3.40008">
        <ele>240</ele>
        <time>2020-10-18T14:24:25.000Z</time>
      </trkpt>
      <trkpt lat="48.22197" lon="-3.40002">
        <ele>240</ele>
        <time>2020-10-18T14:24:26.000Z</time>
      </trkpt>
      <trkpt lat="48.22199" lon="-3.39995">
        <ele>240.19999694824</ele>
        <time>2020-10-18T14:24:27.000Z</time>
      </trkpt>
      <trkpt lat="48.222" lon="-3.39989">
        <ele>240.19999694824</ele>
        <time>2020-10-18T14:24:28.000Z</time>
      </trkpt>
      <trkpt lat="48.22201" lon="-3.39983">
        <ele>240.19999694824</ele>
        <time>2020-10-18T14:24:29.000Z</time>
      </trkpt>
      <trkpt lat="48.22203" lon="-3.39977">
        <ele>240.19999694824</ele>
        <time>2020-10-18T14:24:30.000Z</time>
      </trkpt>
      <trkpt lat="48.22204" lon="-3.39971">
        <ele>240.39999389648</ele>
        <time>2020-10-18T14:24:31.000Z</time>
      </trkpt>
      <trkpt lat="48.22206" lon="-3.39964">
        <ele>240.39999389648</ele>
        <time>2020-10-18T14:24:32.000Z</time>
      </trkpt>
      <trkpt lat="48.22207" lon="-3.39958">
        <ele>240.39999389648</ele>
        <time>2020-10-18T14:24:33.000Z</time>
      </trkpt>
      <trkpt lat="48.22209" lon="-3.39952">
        <ele>240.39999389648</ele>
        <time>2020-10-18T14:24:34.000Z</time>
      </trkpt>
      <trkpt lat="48.2221" lon="-3.39946">
        <ele>240.39999389648</ele>
        <time>2020-10-18T14:24:35.000Z</time>
      </trkpt>
      <trkpt lat="48.22212" lon="-3.39941">
        <ele>240.39999389648</ele>
        <time>2020-10-18T14:24:36.000Z</time>
      </trkpt>
      <trkpt lat="48.22213" lon="-3.39935">
        <ele>240.39999389648</ele>
        <time>2020-10-18T14:24:37.000Z</time>
      </trkpt>
      <trkpt lat="48.22214" lon="-3.39929">
        <ele>240.39999389648</ele>
        <time>2020-10-18T14:24:38.000Z</time>
      </trkpt>
      <trkpt lat="48.22215" lon="-3.39924">
        <ele>240.39999389648</ele>
        <time>2020-10-18T14:24:39.000Z</time>
      </trkpt>
      <trkpt lat="48.22216" lon="-3.39918">
        <ele>240.39999389648</ele>
        <time>2020-10-18T14:24:40.000Z</time>
      </trkpt>
      <trkpt lat="48.22217" lon="-3.39912">
        <ele>240.39999389648</ele>
        <time>2020-10-18T14:24:41.000Z</time>
      </trkpt>
      <trkpt lat="48.22218" lon="-3.39907">
        <ele>240.39999389648</ele>
        <time>2020-10-18T14:24:42.000Z</time>
      </trkpt>
      <trkpt lat="48.22219" lon="-3.39902">
        <ele>240.39999389648</ele>
        <time>2020-10-18T14:24:43.000Z</time>
      </trkpt>
      <trkpt lat="48.2222" lon="-3.39896">
        <ele>240.39999389648</ele>
        <time>2020-10-18T14:24:44.000Z</time>
      </trkpt>
      <trkpt lat="48.22222" lon="-3.39891">
        <ele>240.60000610352</ele>
        <time>2020-10-18T14:24:45.000Z</time>
      </trkpt>
      <trkpt lat="48.22224" lon="-3.39885">
        <ele>240.60000610352</ele>
        <time>2020-10-18T14:24:46.000Z</time>
      </trkpt>
      <trkpt lat="48.22225" lon="-3.39879">
        <ele>240.39999389648</ele>
        <time>2020-10-18T14:24:47.000Z</time>
      </trkpt>
      <trkpt lat="48.22226" lon="-3.39874">
        <ele>240.39999389648</ele>
        <time>2020-10-18T14:24:48.000Z</time>
      </trkpt>
      <trkpt lat="48.22226" lon="-3.39867">
        <ele>240.39999389648</ele>
        <time>2020-10-18T14:24:49.000Z</time>
      </trkpt>
      <trkpt lat="48.22227" lon="-3.39862">
        <ele>240.39999389648</ele>
        <time>2020-10-18T14:24:50.000Z</time>
      </trkpt>
      <trkpt lat="48.22228" lon="-3.39856">
        <ele>240.19999694824</ele>
        <time>2020-10-18T14:24:51.000Z</time>
      </trkpt>
      <trkpt lat="48.22229" lon="-3.3985">
        <ele>240.19999694824</ele>
        <time>2020-10-18T14:24:52.000Z</time>
      </trkpt>
      <trkpt lat="48.22229" lon="-3.39844">
        <ele>240.19999694824</ele>
        <time>2020-10-18T14:24:53.000Z</time>
      </trkpt>
      <trkpt lat="48.2223" lon="-3.39838">
        <ele>240.39999389648</ele>
        <time>2020-10-18T14:24:54.000Z</time>
      </trkpt>
      <trkpt lat="48.22231" lon="-3.39831">
        <ele>240.39999389648</ele>
        <time>2020-10-18T14:24:55.000Z</time>
      </trkpt>
      <trkpt lat="48.22232" lon="-3.39825">
        <ele>240.60000610352</ele>
        <time>2020-10-18T14:24:56.000Z</time>
      </trkpt>
      <trkpt lat="48.22233" lon="-3.39819">
        <ele>240.60000610352</ele>
        <time>2020-10-18T14:24:57.000Z</time>
      </trkpt>
      <trkpt lat="48.22233" lon="-3.39813">
        <ele>240.80000305176</ele>
        <time>2020-10-18T14:24:58.000Z</time>
      </trkpt>
      <trkpt lat="48.22234" lon="-3.39807">
        <ele>240.80000305176</ele>
        <time>2020-10-18T14:24:59.000Z</time>
      </trkpt>
      <trkpt lat="48.22235" lon="-3.39801">
        <ele>241</ele>
        <time>2020-10-18T14:25:00.000Z</time>
      </trkpt>
      <trkpt lat="48.22235" lon="-3.39794">
        <ele>241</ele>
        <time>2020-10-18T14:25:01.000Z</time>
      </trkpt>
      <trkpt lat="48.22236" lon="-3.39788">
        <ele>241</ele>
        <time>2020-10-18T14:25:02.000Z</time>
      </trkpt>
      <trkpt lat="48.22237" lon="-3.39781">
        <ele>241</ele>
        <time>2020-10-18T14:25:03.000Z</time>
      </trkpt>
      <trkpt lat="48.22238" lon="-3.39775">
        <ele>241.19999694824</ele>
        <time>2020-10-18T14:25:04.000Z</time>
      </trkpt>
      <trkpt lat="48.22239" lon="-3.39769">
        <ele>241.19999694824</ele>
        <time>2020-10-18T14:25:05.000Z</time>
      </trkpt>
      <trkpt lat="48.22239" lon="-3.39762">
        <ele>241.19999694824</ele>
        <time>2020-10-18T14:25:06.000Z</time>
      </trkpt>
      <trkpt lat="48.2224" lon="-3.39756">
        <ele>241</ele>
        <time>2020-10-18T14:25:07.000Z</time>
      </trkpt>
      <trkpt lat="48.22241" lon="-3.39749">
        <ele>241</ele>
        <time>2020-10-18T14:25:08.000Z</time>
      </trkpt>
      <trkpt lat="48.22242" lon="-3.39743">
        <ele>241</ele>
        <time>2020-10-18T14:25:09.000Z</time>
      </trkpt>
      <trkpt lat="48.22243" lon="-3.39736">
        <ele>241</ele>
        <time>2020-10-18T14:25:10.000Z</time>
      </trkpt>
      <trkpt lat="48.22244" lon="-3.3973">
        <ele>241</ele>
        <time>2020-10-18T14:25:11.000Z</time>
      </trkpt>
      <trkpt lat="48.22245" lon="-3.39723">
        <ele>240.80000305176</ele>
        <time>2020-10-18T14:25:12.000Z</time>
      </trkpt>
      <trkpt lat="48.22246" lon="-3.39716">
        <ele>240.80000305176</ele>
        <time>2020-10-18T14:25:13.000Z</time>
      </trkpt>
      <trkpt lat="48.22248" lon="-3.39709">
        <ele>240.80000305176</ele>
        <time>2020-10-18T14:25:14.000Z</time>
      </trkpt>
      <trkpt lat="48.22249" lon="-3.39702">
        <ele>240.80000305176</ele>
        <time>2020-10-18T14:25:15.000Z</time>
      </trkpt>
      <trkpt lat="48.2225" lon="-3.39695">
        <ele>240.80000305176</ele>
        <time>2020-10-18T14:25:16.000Z</time>
      </trkpt>
      <trkpt lat="48.22251" lon="-3.39689">
        <ele>240.60000610352</ele>
        <time>2020-10-18T14:25:17.000Z</time>
      </trkpt>
      <trkpt lat="48.22253" lon="-3.39682">
        <ele>240.60000610352</ele>
        <time>2020-10-18T14:25:18.000Z</time>
      </trkpt>
      <trkpt lat="48.22254" lon="-3.39675">
        <ele>240.60000610352</ele>
        <time>2020-10-18T14:25:19.000Z</time>
      </trkpt>
      <trkpt lat="48.22255" lon="-3.39668">
        <ele>240.60000610352</ele>
        <time>2020-10-18T14:25:20.000Z</time>
      </trkpt>
      <trkpt lat="48.22257" lon="-3.39661">
        <ele>240.39999389648</ele>
        <time>2020-10-18T14:25:21.000Z</time>
      </trkpt>
      <trkpt lat="48.22258" lon="-3.39654">
        <ele>240.39999389648</ele>
        <time>2020-10-18T14:25:22.000Z</time>
      </trkpt>
      <trkpt lat="48.2226" lon="-3.39646">
        <ele>240.39999389648</ele>
        <time>2020-10-18T14:25:23.000Z</time>
      </trkpt>
      <trkpt lat="48.22261" lon="-3.39639">
        <ele>240.39999389648</ele>
        <time>2020-10-18T14:25:24.000Z</time>
      </trkpt>
      <trkpt lat="48.22263" lon="-3.39632">
        <ele>240.39999389648</ele>
        <time>2020-10-18T14:25:25.000Z</time>
      </trkpt>
      <trkpt lat="48.22264" lon="-3.39625">
        <ele>240.19999694824</ele>
        <time>2020-10-18T14:25:26.000Z</time>
      </trkpt>
      <trkpt lat="48.22266" lon="-3.39618">
        <ele>240.19999694824</ele>
        <time>2020-10-18T14:25:27.000Z</time>
      </trkpt>
      <trkpt lat="48.22268" lon="-3.39611">
        <ele>240</ele>
        <time>2020-10-18T14:25:28.000Z</time>
      </trkpt>
      <trkpt lat="48.2227" lon="-3.39604">
        <ele>239.80000305176</ele>
        <time>2020-10-18T14:25:29.000Z</time>
      </trkpt>
      <trkpt lat="48.22272" lon="-3.39597">
        <ele>239.80000305176</ele>
        <time>2020-10-18T14:25:30.000Z</time>
      </trkpt>
      <trkpt lat="48.22274" lon="-3.39589">
        <ele>240</ele>
        <time>2020-10-18T14:25:31.000Z</time>
      </trkpt>
      <trkpt lat="48.22275" lon="-3.39581">
        <ele>240</ele>
        <time>2020-10-18T14:25:32.000Z</time>
      </trkpt>
      <trkpt lat="48.22277" lon="-3.39573">
        <ele>240</ele>
        <time>2020-10-18T14:25:33.000Z</time>
      </trkpt>
      <trkpt lat="48.22278" lon="-3.39565">
        <ele>240</ele>
        <time>2020-10-18T14:25:34.000Z</time>
      </trkpt>
      <trkpt lat="48.2228" lon="-3.39557">
        <ele>240</ele>
        <time>2020-10-18T14:25:35.000Z</time>
      </trkpt>
      <trkpt lat="48.22281" lon="-3.39548">
        <ele>240</ele>
        <time>2020-10-18T14:25:36.000Z</time>
      </trkpt>
      <trkpt lat="48.22283" lon="-3.39541">
        <ele>240</ele>
        <time>2020-10-18T14:25:37.000Z</time>
      </trkpt>
      <trkpt lat="48.22285" lon="-3.39533">
        <ele>240</ele>
        <time>2020-10-18T14:25:38.000Z</time>
      </trkpt>
      <trkpt lat="48.22286" lon="-3.39526">
        <ele>240</ele>
        <time>2020-10-18T14:25:39.000Z</time>
      </trkpt>
      <trkpt lat="48.22288" lon="-3.3952">
        <ele>240</ele>
        <time>2020-10-18T14:25:40.000Z</time>
      </trkpt>
      <trkpt lat="48.22289" lon="-3.39515">
        <ele>240</ele>
        <time>2020-10-18T14:25:41.000Z</time>
      </trkpt>
      <trkpt lat="48.2229" lon="-3.3951">
        <ele>240</ele>
        <time>2020-10-18T14:25:42.000Z</time>
      </trkpt>
      <trkpt lat="48.22291" lon="-3.39505">
        <ele>240</ele>
        <time>2020-10-18T14:25:43.000Z</time>
      </trkpt>
      <trkpt lat="48.22292" lon="-3.39499">
        <ele>240</ele>
        <time>2020-10-18T14:25:44.000Z</time>
      </trkpt>
      <trkpt lat="48.22293" lon="-3.39494">
        <ele>240</ele>
        <time>2020-10-18T14:25:45.000Z</time>
      </trkpt>
      <trkpt lat="48.22294" lon="-3.39488">
        <ele>240</ele>
        <time>2020-10-18T14:25:46.000Z</time>
      </trkpt>
      <trkpt lat="48.22293" lon="-3.39482">
        <ele>240</ele>
        <time>2020-10-18T14:25:47.000Z</time>
      </trkpt>
      <trkpt lat="48.22293" lon="-3.39475">
        <ele>239.80000305176</ele>
        <time>2020-10-18T14:25:48.000Z</time>
      </trkpt>
      <trkpt lat="48.22292" lon="-3.3947">
        <ele>239.80000305176</ele>
        <time>2020-10-18T14:25:49.000Z</time>
      </trkpt>
      <trkpt lat="48.22292" lon="-3.39464">
        <ele>239.80000305176</ele>
        <time>2020-10-18T14:25:50.000Z</time>
      </trkpt>
      <trkpt lat="48.22292" lon="-3.39458">
        <ele>239.60000610352</ele>
        <time>2020-10-18T14:25:51.000Z</time>
      </trkpt>
      <trkpt lat="48.22293" lon="-3.39451">
        <ele>239.60000610352</ele>
        <time>2020-10-18T14:25:52.000Z</time>
      </trkpt>
      <trkpt lat="48.22294" lon="-3.39445">
        <ele>239.60000610352</ele>
        <time>2020-10-18T14:25:53.000Z</time>
      </trkpt>
      <trkpt lat="48.22295" lon="-3.39439">
        <ele>239.39999389648</ele>
        <time>2020-10-18T14:25:54.000Z</time>
      </trkpt>
      <trkpt lat="48.22295" lon="-3.39433">
        <ele>239.39999389648</ele>
        <time>2020-10-18T14:25:55.000Z</time>
      </trkpt>
      <trkpt lat="48.22295" lon="-3.39428">
        <ele>239.39999389648</ele>
        <time>2020-10-18T14:25:56.000Z</time>
      </trkpt>
      <trkpt lat="48.22293" lon="-3.39423">
        <ele>239.39999389648</ele>
        <time>2020-10-18T14:25:57.000Z</time>
      </trkpt>
      <trkpt lat="48.2229" lon="-3.39419">
        <ele>239.39999389648</ele>
        <time>2020-10-18T14:25:58.000Z</time>
      </trkpt>
      <trkpt lat="48.22287" lon="-3.39416">
        <ele>239.19999694824</ele>
        <time>2020-10-18T14:25:59.000Z</time>
      </trkpt>
      <trkpt lat="48.22283" lon="-3.39412">
        <ele>239.19999694824</ele>
        <time>2020-10-18T14:26:00.000Z</time>
      </trkpt>
      <trkpt lat="48.22278" lon="-3.39408">
        <ele>239</ele>
        <time>2020-10-18T14:26:01.000Z</time>
      </trkpt>
      <trkpt lat="48.22274" lon="-3.39405">
        <ele>238.80000305176</ele>
        <time>2020-10-18T14:26:02.000Z</time>
      </trkpt>
      <trkpt lat="48.22269" lon="-3.39401">
        <ele>238.60000610352</ele>
        <time>2020-10-18T14:26:03.000Z</time>
      </trkpt>
      <trkpt lat="48.22265" lon="-3.39397">
        <ele>238.19999694824</ele>
        <time>2020-10-18T14:26:04.000Z</time>
      </trkpt>
      <trkpt lat="48.2226" lon="-3.39393">
        <ele>238</ele>
        <time>2020-10-18T14:26:05.000Z</time>
      </trkpt>
      <trkpt lat="48.22255" lon="-3.39389">
        <ele>237.60000610352</ele>
        <time>2020-10-18T14:26:06.000Z</time>
      </trkpt>
      <trkpt lat="48.2225" lon="-3.39385">
        <ele>237.19999694824</ele>
        <time>2020-10-18T14:26:07.000Z</time>
      </trkpt>
      <trkpt lat="48.22244" lon="-3.39381">
        <ele>236.80000305176</ele>
        <time>2020-10-18T14:26:08.000Z</time>
      </trkpt>
      <trkpt lat="48.22239" lon="-3.39376">
        <ele>236.19999694824</ele>
        <time>2020-10-18T14:26:09.000Z</time>
      </trkpt>
      <trkpt lat="48.22233" lon="-3.39371">
        <ele>235.80000305176</ele>
        <time>2020-10-18T14:26:10.000Z</time>
      </trkpt>
      <trkpt lat="48.22227" lon="-3.39365">
        <ele>235.39999389648</ele>
        <time>2020-10-18T14:26:11.000Z</time>
      </trkpt>
      <trkpt lat="48.22222" lon="-3.39359">
        <ele>234.80000305176</ele>
        <time>2020-10-18T14:26:12.000Z</time>
      </trkpt>
      <trkpt lat="48.22216" lon="-3.39353">
        <ele>234.39999389648</ele>
        <time>2020-10-18T14:26:13.000Z</time>
      </trkpt>
      <trkpt lat="48.2221" lon="-3.39346">
        <ele>233.80000305176</ele>
        <time>2020-10-18T14:26:14.000Z</time>
      </trkpt>
      <trkpt lat="48.22204" lon="-3.39339">
        <ele>233.60000610352</ele>
        <time>2020-10-18T14:26:15.000Z</time>
      </trkpt>
      <trkpt lat="48.22198" lon="-3.39331">
        <ele>233.19999694824</ele>
        <time>2020-10-18T14:26:16.000Z</time>
      </trkpt>
      <trkpt lat="48.22192" lon="-3.39323">
        <ele>232.60000610352</ele>
        <time>2020-10-18T14:26:17.000Z</time>
      </trkpt>
      <trkpt lat="48.22186" lon="-3.39315">
        <ele>232</ele>
        <time>2020-10-18T14:26:18.000Z</time>
      </trkpt>
      <trkpt lat="48.22179" lon="-3.39306">
        <ele>231.60000610352</ele>
        <time>2020-10-18T14:26:19.000Z</time>
      </trkpt>
      <trkpt lat="48.22172" lon="-3.39298">
        <ele>231</ele>
        <time>2020-10-18T14:26:20.000Z</time>
      </trkpt>
      <trkpt lat="48.22166" lon="-3.39289">
        <ele>230.39999389648</ele>
        <time>2020-10-18T14:26:21.000Z</time>
      </trkpt>
      <trkpt lat="48.22159" lon="-3.3928">
        <ele>229.80000305176</ele>
        <time>2020-10-18T14:26:22.000Z</time>
      </trkpt>
      <trkpt lat="48.22152" lon="-3.39271">
        <ele>229.19999694824</ele>
        <time>2020-10-18T14:26:23.000Z</time>
      </trkpt>
      <trkpt lat="48.22145" lon="-3.39263">
        <ele>228.39999389648</ele>
        <time>2020-10-18T14:26:24.000Z</time>
      </trkpt>
      <trkpt lat="48.22138" lon="-3.39254">
        <ele>227.60000610352</ele>
        <time>2020-10-18T14:26:25.000Z</time>
      </trkpt>
      <trkpt lat="48.22131" lon="-3.39245">
        <ele>226.80000305176</ele>
        <time>2020-10-18T14:26:26.000Z</time>
      </trkpt>
      <trkpt lat="48.22124" lon="-3.39235">
        <ele>226</ele>
        <time>2020-10-18T14:26:27.000Z</time>
      </trkpt>
      <trkpt lat="48.22117" lon="-3.39226">
        <ele>225.19999694824</ele>
        <time>2020-10-18T14:26:28.000Z</time>
      </trkpt>
      <trkpt lat="48.2211" lon="-3.39216">
        <ele>224.39999389648</ele>
        <time>2020-10-18T14:26:29.000Z</time>
      </trkpt>
      <trkpt lat="48.22098" lon="-3.39194">
        <ele>222.60000610352</ele>
        <time>2020-10-18T14:26:30.000Z</time>
      </trkpt>
      <trkpt lat="48.22098" lon="-3.39194">
        <ele>222.60000610352</ele>
        <time>2020-10-18T14:26:31.000Z</time>
      </trkpt>
      <trkpt lat="48.22093" lon="-3.39182">
        <ele>221.80000305176</ele>
        <time>2020-10-18T14:26:32.000Z</time>
      </trkpt>
      <trkpt lat="48.22088" lon="-3.3917">
        <ele>221.19999694824</ele>
        <time>2020-10-18T14:26:33.000Z</time>
      </trkpt>
      <trkpt lat="48.22083" lon="-3.39157">
        <ele>220.80000305176</ele>
        <time>2020-10-18T14:26:34.000Z</time>
      </trkpt>
      <trkpt lat="48.22079" lon="-3.39144">
        <ele>220.19999694824</ele>
        <time>2020-10-18T14:26:35.000Z</time>
      </trkpt>
      <trkpt lat="48.22075" lon="-3.39131">
        <ele>219.60000610352</ele>
        <time>2020-10-18T14:26:36.000Z</time>
      </trkpt>
      <trkpt lat="48.2207" lon="-3.39118">
        <ele>219.19999694824</ele>
        <time>2020-10-18T14:26:37.000Z</time>
      </trkpt>
      <trkpt lat="48.22066" lon="-3.39104">
        <ele>219.19999694824</ele>
        <time>2020-10-18T14:26:38.000Z</time>
      </trkpt>
      <trkpt lat="48.22063" lon="-3.3909">
        <ele>219.19999694824</ele>
        <time>2020-10-18T14:26:39.000Z</time>
      </trkpt>
      <trkpt lat="48.22059" lon="-3.39078">
        <ele>218.80000305176</ele>
        <time>2020-10-18T14:26:40.000Z</time>
      </trkpt>
      <trkpt lat="48.22056" lon="-3.39066">
        <ele>218.60000610352</ele>
        <time>2020-10-18T14:26:41.000Z</time>
      </trkpt>
      <trkpt lat="48.22054" lon="-3.39054">
        <ele>218.39999389648</ele>
        <time>2020-10-18T14:26:42.000Z</time>
      </trkpt>
      <trkpt lat="48.22051" lon="-3.39042">
        <ele>218.19999694824</ele>
        <time>2020-10-18T14:26:43.000Z</time>
      </trkpt>
      <trkpt lat="48.22049" lon="-3.3903">
        <ele>218</ele>
        <time>2020-10-18T14:26:44.000Z</time>
      </trkpt>
      <trkpt lat="48.22048" lon="-3.39019">
        <ele>218</ele>
        <time>2020-10-18T14:26:45.000Z</time>
      </trkpt>
      <trkpt lat="48.22047" lon="-3.39009">
        <ele>217.60000610352</ele>
        <time>2020-10-18T14:26:46.000Z</time>
      </trkpt>
      <trkpt lat="48.22047" lon="-3.39001">
        <ele>217.39999389648</ele>
        <time>2020-10-18T14:26:47.000Z</time>
      </trkpt>
      <trkpt lat="48.22047" lon="-3.38994">
        <ele>217</ele>
        <time>2020-10-18T14:26:48.000Z</time>
      </trkpt>
      <trkpt lat="48.22048" lon="-3.38988">
        <ele>217</ele>
        <time>2020-10-18T14:26:49.000Z</time>
      </trkpt>
      <trkpt lat="48.22051" lon="-3.38983">
        <ele>216.80000305176</ele>
        <time>2020-10-18T14:26:50.000Z</time>
      </trkpt>
      <trkpt lat="48.22053" lon="-3.38978">
        <ele>216.60000610352</ele>
        <time>2020-10-18T14:26:51.000Z</time>
      </trkpt>
      <trkpt lat="48.22056" lon="-3.38973">
        <ele>216.60000610352</ele>
        <time>2020-10-18T14:26:52.000Z</time>
      </trkpt>
      <trkpt lat="48.22058" lon="-3.38969">
        <ele>216.39999389648</ele>
        <time>2020-10-18T14:26:53.000Z</time>
      </trkpt>
      <trkpt lat="48.2206" lon="-3.38965">
        <ele>216.39999389648</ele>
        <time>2020-10-18T14:26:54.000Z</time>
      </trkpt>
      <trkpt lat="48.22061" lon="-3.38962">
        <ele>216.19999694824</ele>
        <time>2020-10-18T14:26:55.000Z</time>
      </trkpt>
      <trkpt lat="48.22063" lon="-3.3896">
        <ele>216.19999694824</ele>
        <time>2020-10-18T14:26:56.000Z</time>
      </trkpt>
      <trkpt lat="48.22065" lon="-3.38958">
        <ele>216.19999694824</ele>
        <time>2020-10-18T14:26:57.000Z</time>
      </trkpt>
      <trkpt lat="48.22068" lon="-3.38956">
        <ele>216.19999694824</ele>
        <time>2020-10-18T14:26:58.000Z</time>
      </trkpt>
      <trkpt lat="48.22071" lon="-3.38955">
        <ele>216.19999694824</ele>
        <time>2020-10-18T14:26:59.000Z</time>
      </trkpt>
      <trkpt lat="48.22074" lon="-3.38953">
        <ele>216.19999694824</ele>
        <time>2020-10-18T14:27:00.000Z</time>
      </trkpt>
      <trkpt lat="48.22077" lon="-3.38952">
        <ele>216.19999694824</ele>
        <time>2020-10-18T14:27:01.000Z</time>
      </trkpt>
      <trkpt lat="48.2208" lon="-3.3895">
        <ele>216.39999389648</ele>
        <time>2020-10-18T14:27:02.000Z</time>
      </trkpt>
      <trkpt lat="48.22083" lon="-3.38949">
        <ele>216.39999389648</ele>
        <time>2020-10-18T14:27:03.000Z</time>
      </trkpt>
      <trkpt lat="48.22085" lon="-3.38947">
        <ele>216.19999694824</ele>
        <time>2020-10-18T14:27:04.000Z</time>
      </trkpt>
      <trkpt lat="48.22086" lon="-3.38945">
        <ele>216.19999694824</ele>
        <time>2020-10-18T14:27:05.000Z</time>
      </trkpt>
      <trkpt lat="48.22086" lon="-3.38945">
        <ele>216.19999694824</ele>
        <time>2020-10-18T14:27:06.000Z</time>
      </trkpt>
      <trkpt lat="48.22087" lon="-3.38944">
        <ele>216.19999694824</ele>
        <time>2020-10-18T14:27:07.000Z</time>
      </trkpt>
      <trkpt lat="48.22087" lon="-3.38944">
        <ele>216.19999694824</ele>
        <time>2020-10-18T14:27:08.000Z</time>
      </trkpt>
      <trkpt lat="48.22087" lon="-3.38945">
        <ele>216.19999694824</ele>
        <time>2020-10-18T14:27:09.000Z</time>
      </trkpt>
      <trkpt lat="48.22087" lon="-3.38945">
        <ele>216.19999694824</ele>
        <time>2020-10-18T14:27:10.000Z</time>
      </trkpt>
      <trkpt lat="48.22087" lon="-3.38945">
        <ele>216.19999694824</ele>
        <time>2020-10-18T14:27:11.000Z</time>
      </trkpt>
      <trkpt lat="48.22087" lon="-3.38945">
        <ele>216.19999694824</ele>
        <time>2020-10-18T14:27:12.000Z</time>
      </trkpt>
      <trkpt lat="48.22087" lon="-3.38945">
        <ele>216.19999694824</ele>
        <time>2020-10-18T14:27:13.000Z</time>
      </trkpt>
      <trkpt lat="48.22087" lon="-3.38945">
        <ele>216.19999694824</ele>
        <time>2020-10-18T14:27:14.000Z</time>
      </trkpt>
      <trkpt lat="48.22087" lon="-3.38945">
        <ele>216.19999694824</ele>
        <time>2020-10-18T14:27:15.000Z</time>
      </trkpt>
      <trkpt lat="48.22087" lon="-3.38945">
        <ele>216.19999694824</ele>
        <time>2020-10-18T14:27:16.000Z</time>
      </trkpt>
      <trkpt lat="48.22087" lon="-3.38945">
        <ele>216.19999694824</ele>
        <time>2020-10-18T14:27:17.000Z</time>
      </trkpt>
      <trkpt lat="48.22087" lon="-3.38945">
        <ele>216.19999694824</ele>
        <time>2020-10-18T14:27:18.000Z</time>
      </trkpt>
      <trkpt lat="48.22087" lon="-3.38945">
        <ele>216.19999694824</ele>
        <time>2020-10-18T14:27:19.000Z</time>
      </trkpt>
      <trkpt lat="48.22087" lon="-3.38945">
        <ele>216.19999694824</ele>
        <time>2020-10-18T14:27:20.000Z</time>
      </trkpt>
      <trkpt lat="48.22087" lon="-3.38945">
        <ele>216.19999694824</ele>
        <time>2020-10-18T14:27:21.000Z</time>
      </trkpt>
      <trkpt lat="48.22087" lon="-3.38945">
        <ele>216.19999694824</ele>
        <time>2020-10-18T14:27:22.000Z</time>
      </trkpt>
      <trkpt lat="48.22087" lon="-3.38945">
        <ele>216.19999694824</ele>
        <time>2020-10-18T14:27:23.000Z</time>
      </trkpt>
      <trkpt lat="48.22087" lon="-3.38945">
        <ele>216.19999694824</ele>
        <time>2020-10-18T14:27:24.000Z</time>
      </trkpt>
      <trkpt lat="48.22087" lon="-3.38945">
        <ele>216.19999694824</ele>
        <time>2020-10-18T14:27:25.000Z</time>
      </trkpt>
      <trkpt lat="48.22087" lon="-3.38945">
        <ele>216.19999694824</ele>
        <time>2020-10-18T14:27:26.000Z</time>
      </trkpt>
    </trkseg>
  </trk>
</gpx>